<?xml version="1.0" encoding="UTF-8" standalone="no" ?>
<gpx xmlns="http://www.topografix.com/GPX/1/1" xmlns:xsi="http://www.w3.org/2001/XMLSchema-instance" xsi:schemaLocation="http://www.topografix.com/GPX/1/1 http://www.topografix.com/GPX/1/1/gpx.xsd" version="1.1" creator="VisuGPX - https://www.visugpx.com">
  <metadata>
    <name>2eme jour St Leger- St Martin de Nigelle 2010</name>
  </metadata>
  <trk>
    <name><![CDATA[002-2010/05/14-10:44:03]]></name>
    <trkseg>
      <trkpt lat="48.73052" lon="1.75623">
        <ele>179</ele>
        <time>2010-05-14T08:44:03Z</time>
      </trkpt>
      <trkpt lat="48.73055" lon="1.7558">
        <ele>177</ele>
        <time>2010-05-14T08:44:25Z</time>
      </trkpt>
      <trkpt lat="48.73055" lon="1.75577">
        <ele>177</ele>
        <time>2010-05-14T08:44:26Z</time>
      </trkpt>
      <trkpt lat="48.73055" lon="1.75574">
        <ele>177</ele>
        <time>2010-05-14T08:44:28Z</time>
      </trkpt>
      <trkpt lat="48.73055" lon="1.75572">
        <ele>177</ele>
        <time>2010-05-14T08:44:29Z</time>
      </trkpt>
      <trkpt lat="48.73055" lon="1.7557">
        <ele>177</ele>
        <time>2010-05-14T08:44:31Z</time>
      </trkpt>
      <trkpt lat="48.73056" lon="1.75568">
        <ele>177</ele>
        <time>2010-05-14T08:44:32Z</time>
      </trkpt>
      <trkpt lat="48.73056" lon="1.75566">
        <ele>177</ele>
        <time>2010-05-14T08:44:33Z</time>
      </trkpt>
      <trkpt lat="48.73055" lon="1.75564">
        <ele>177</ele>
        <time>2010-05-14T08:44:34Z</time>
      </trkpt>
      <trkpt lat="48.73055" lon="1.75562">
        <ele>177</ele>
        <time>2010-05-14T08:44:35Z</time>
      </trkpt>
      <trkpt lat="48.73055" lon="1.75561">
        <ele>177</ele>
        <time>2010-05-14T08:44:36Z</time>
      </trkpt>
      <trkpt lat="48.73054" lon="1.75557">
        <ele>177</ele>
        <time>2010-05-14T08:44:38Z</time>
      </trkpt>
      <trkpt lat="48.73054" lon="1.75555">
        <ele>177</ele>
        <time>2010-05-14T08:44:39Z</time>
      </trkpt>
      <trkpt lat="48.73054" lon="1.75553">
        <ele>177</ele>
        <time>2010-05-14T08:44:40Z</time>
      </trkpt>
      <trkpt lat="48.73053" lon="1.75551">
        <ele>177</ele>
        <time>2010-05-14T08:44:41Z</time>
      </trkpt>
      <trkpt lat="48.73053" lon="1.75548">
        <ele>177</ele>
        <time>2010-05-14T08:44:43Z</time>
      </trkpt>
      <trkpt lat="48.73054" lon="1.75544">
        <ele>177</ele>
        <time>2010-05-14T08:44:44Z</time>
      </trkpt>
      <trkpt lat="48.73054" lon="1.75542">
        <ele>177</ele>
        <time>2010-05-14T08:44:45Z</time>
      </trkpt>
      <trkpt lat="48.73054" lon="1.7554">
        <ele>177</ele>
        <time>2010-05-14T08:44:46Z</time>
      </trkpt>
      <trkpt lat="48.73054" lon="1.75538">
        <ele>177</ele>
        <time>2010-05-14T08:44:47Z</time>
      </trkpt>
      <trkpt lat="48.73054" lon="1.75536">
        <ele>177</ele>
        <time>2010-05-14T08:44:48Z</time>
      </trkpt>
      <trkpt lat="48.73054" lon="1.75533">
        <ele>177</ele>
        <time>2010-05-14T08:44:50Z</time>
      </trkpt>
      <trkpt lat="48.73053" lon="1.7553">
        <ele>177</ele>
        <time>2010-05-14T08:44:51Z</time>
      </trkpt>
      <trkpt lat="48.73054" lon="1.75527">
        <ele>177</ele>
        <time>2010-05-14T08:44:52Z</time>
      </trkpt>
      <trkpt lat="48.73055" lon="1.75523">
        <ele>177</ele>
        <time>2010-05-14T08:44:53Z</time>
      </trkpt>
      <trkpt lat="48.73056" lon="1.75519">
        <ele>177</ele>
        <time>2010-05-14T08:44:54Z</time>
      </trkpt>
      <trkpt lat="48.73057" lon="1.75516">
        <ele>177</ele>
        <time>2010-05-14T08:44:55Z</time>
      </trkpt>
      <trkpt lat="48.73058" lon="1.75514">
        <ele>177</ele>
        <time>2010-05-14T08:44:57Z</time>
      </trkpt>
      <trkpt lat="48.73058" lon="1.75512">
        <ele>177</ele>
        <time>2010-05-14T08:44:58Z</time>
      </trkpt>
      <trkpt lat="48.73057" lon="1.7551">
        <ele>177</ele>
        <time>2010-05-14T08:44:59Z</time>
      </trkpt>
      <trkpt lat="48.73057" lon="1.75506">
        <ele>177</ele>
        <time>2010-05-14T08:45:00Z</time>
      </trkpt>
      <trkpt lat="48.73057" lon="1.75503">
        <ele>177</ele>
        <time>2010-05-14T08:45:01Z</time>
      </trkpt>
      <trkpt lat="48.73058" lon="1.75501">
        <ele>177</ele>
        <time>2010-05-14T08:45:02Z</time>
      </trkpt>
      <trkpt lat="48.73058" lon="1.75499">
        <ele>177</ele>
        <time>2010-05-14T08:45:03Z</time>
      </trkpt>
      <trkpt lat="48.73057" lon="1.75497">
        <ele>177</ele>
        <time>2010-05-14T08:45:04Z</time>
      </trkpt>
      <trkpt lat="48.73058" lon="1.75495">
        <ele>177</ele>
        <time>2010-05-14T08:45:05Z</time>
      </trkpt>
      <trkpt lat="48.73058" lon="1.75494">
        <ele>177</ele>
        <time>2010-05-14T08:45:06Z</time>
      </trkpt>
      <trkpt lat="48.73058" lon="1.75492">
        <ele>177</ele>
        <time>2010-05-14T08:45:07Z</time>
      </trkpt>
      <trkpt lat="48.73059" lon="1.75489">
        <ele>177</ele>
        <time>2010-05-14T08:45:09Z</time>
      </trkpt>
      <trkpt lat="48.73059" lon="1.75488">
        <ele>177</ele>
        <time>2010-05-14T08:45:10Z</time>
      </trkpt>
      <trkpt lat="48.73059" lon="1.75485">
        <ele>178</ele>
        <time>2010-05-14T08:45:11Z</time>
      </trkpt>
      <trkpt lat="48.73059" lon="1.75483">
        <ele>178</ele>
        <time>2010-05-14T08:45:12Z</time>
      </trkpt>
      <trkpt lat="48.73059" lon="1.75481">
        <ele>179</ele>
        <time>2010-05-14T08:45:13Z</time>
      </trkpt>
      <trkpt lat="48.73059" lon="1.7548">
        <ele>179</ele>
        <time>2010-05-14T08:45:14Z</time>
      </trkpt>
      <trkpt lat="48.73059" lon="1.75478">
        <ele>180</ele>
        <time>2010-05-14T08:45:15Z</time>
      </trkpt>
      <trkpt lat="48.73059" lon="1.75475">
        <ele>180</ele>
        <time>2010-05-14T08:45:17Z</time>
      </trkpt>
      <trkpt lat="48.73059" lon="1.75473">
        <ele>180</ele>
        <time>2010-05-14T08:45:18Z</time>
      </trkpt>
      <trkpt lat="48.73059" lon="1.7547">
        <ele>180</ele>
        <time>2010-05-14T08:45:20Z</time>
      </trkpt>
      <trkpt lat="48.73059" lon="1.75469">
        <ele>180</ele>
        <time>2010-05-14T08:45:21Z</time>
      </trkpt>
      <trkpt lat="48.73059" lon="1.75467">
        <ele>180</ele>
        <time>2010-05-14T08:45:22Z</time>
      </trkpt>
      <trkpt lat="48.73059" lon="1.75464">
        <ele>180</ele>
        <time>2010-05-14T08:45:23Z</time>
      </trkpt>
      <trkpt lat="48.73059" lon="1.75463">
        <ele>180</ele>
        <time>2010-05-14T08:45:24Z</time>
      </trkpt>
      <trkpt lat="48.7306" lon="1.75461">
        <ele>181</ele>
        <time>2010-05-14T08:45:25Z</time>
      </trkpt>
      <trkpt lat="48.7306" lon="1.75459">
        <ele>181</ele>
        <time>2010-05-14T08:45:26Z</time>
      </trkpt>
      <trkpt lat="48.7306" lon="1.75457">
        <ele>181</ele>
        <time>2010-05-14T08:45:27Z</time>
      </trkpt>
      <trkpt lat="48.7306" lon="1.75455">
        <ele>181</ele>
        <time>2010-05-14T08:45:28Z</time>
      </trkpt>
      <trkpt lat="48.7306" lon="1.75453">
        <ele>181</ele>
        <time>2010-05-14T08:45:29Z</time>
      </trkpt>
      <trkpt lat="48.7306" lon="1.75451">
        <ele>181</ele>
        <time>2010-05-14T08:45:30Z</time>
      </trkpt>
      <trkpt lat="48.73061" lon="1.75449">
        <ele>181</ele>
        <time>2010-05-14T08:45:31Z</time>
      </trkpt>
      <trkpt lat="48.73061" lon="1.75447">
        <ele>181</ele>
        <time>2010-05-14T08:45:32Z</time>
      </trkpt>
      <trkpt lat="48.73061" lon="1.75446">
        <ele>181</ele>
        <time>2010-05-14T08:45:33Z</time>
      </trkpt>
      <trkpt lat="48.7306" lon="1.75444">
        <ele>181</ele>
        <time>2010-05-14T08:45:34Z</time>
      </trkpt>
      <trkpt lat="48.7306" lon="1.75442">
        <ele>181</ele>
        <time>2010-05-14T08:45:35Z</time>
      </trkpt>
      <trkpt lat="48.7306" lon="1.75441">
        <ele>181</ele>
        <time>2010-05-14T08:45:36Z</time>
      </trkpt>
      <trkpt lat="48.73061" lon="1.75438">
        <ele>181</ele>
        <time>2010-05-14T08:45:38Z</time>
      </trkpt>
      <trkpt lat="48.73062" lon="1.75436">
        <ele>181</ele>
        <time>2010-05-14T08:45:39Z</time>
      </trkpt>
      <trkpt lat="48.73062" lon="1.75433">
        <ele>181</ele>
        <time>2010-05-14T08:45:41Z</time>
      </trkpt>
      <trkpt lat="48.73063" lon="1.7543">
        <ele>181</ele>
        <time>2010-05-14T08:45:43Z</time>
      </trkpt>
      <trkpt lat="48.73062" lon="1.75427">
        <ele>181</ele>
        <time>2010-05-14T08:45:45Z</time>
      </trkpt>
      <trkpt lat="48.73062" lon="1.75425">
        <ele>181</ele>
        <time>2010-05-14T08:45:47Z</time>
      </trkpt>
      <trkpt lat="48.73063" lon="1.75425">
        <ele>181</ele>
        <time>2010-05-14T08:45:50Z</time>
      </trkpt>
      <trkpt lat="48.73063" lon="1.75423">
        <ele>181</ele>
        <time>2010-05-14T08:45:52Z</time>
      </trkpt>
      <trkpt lat="48.73062" lon="1.75421">
        <ele>181</ele>
        <time>2010-05-14T08:45:58Z</time>
      </trkpt>
      <trkpt lat="48.73061" lon="1.75422">
        <ele>181</ele>
        <time>2010-05-14T08:46:00Z</time>
      </trkpt>
      <trkpt lat="48.73062" lon="1.75423">
        <ele>181</ele>
        <time>2010-05-14T08:46:08Z</time>
      </trkpt>
      <trkpt lat="48.73064" lon="1.75424">
        <ele>181</ele>
        <time>2010-05-14T08:46:10Z</time>
      </trkpt>
      <trkpt lat="48.73065" lon="1.75423">
        <ele>181</ele>
        <time>2010-05-14T08:46:11Z</time>
      </trkpt>
      <trkpt lat="48.73064" lon="1.75425">
        <ele>180</ele>
        <time>2010-05-14T08:46:14Z</time>
      </trkpt>
      <trkpt lat="48.73064" lon="1.75427">
        <ele>180</ele>
        <time>2010-05-14T08:46:18Z</time>
      </trkpt>
      <trkpt lat="48.73063" lon="1.75429">
        <ele>180</ele>
        <time>2010-05-14T08:46:23Z</time>
      </trkpt>
      <trkpt lat="48.73065" lon="1.75428">
        <ele>180</ele>
        <time>2010-05-14T08:46:29Z</time>
      </trkpt>
      <trkpt lat="48.73065" lon="1.75426">
        <ele>179</ele>
        <time>2010-05-14T08:46:31Z</time>
      </trkpt>
      <trkpt lat="48.73066" lon="1.75424">
        <ele>179</ele>
        <time>2010-05-14T08:46:32Z</time>
      </trkpt>
      <trkpt lat="48.73068" lon="1.75423">
        <ele>179</ele>
        <time>2010-05-14T08:46:33Z</time>
      </trkpt>
      <trkpt lat="48.73068" lon="1.75424">
        <ele>178</ele>
        <time>2010-05-14T08:46:37Z</time>
      </trkpt>
      <trkpt lat="48.73066" lon="1.75424">
        <ele>178</ele>
        <time>2010-05-14T08:46:40Z</time>
      </trkpt>
      <trkpt lat="48.73065" lon="1.75422">
        <ele>178</ele>
        <time>2010-05-14T08:46:43Z</time>
      </trkpt>
      <trkpt lat="48.73064" lon="1.75423">
        <ele>178</ele>
        <time>2010-05-14T08:46:47Z</time>
      </trkpt>
      <trkpt lat="48.73062" lon="1.75424">
        <ele>178</ele>
        <time>2010-05-14T08:46:51Z</time>
      </trkpt>
      <trkpt lat="48.7306" lon="1.75425">
        <ele>178</ele>
        <time>2010-05-14T08:46:54Z</time>
      </trkpt>
      <trkpt lat="48.73059" lon="1.75424">
        <ele>178</ele>
        <time>2010-05-14T08:46:58Z</time>
      </trkpt>
      <trkpt lat="48.73058" lon="1.75425">
        <ele>178</ele>
        <time>2010-05-14T08:46:59Z</time>
      </trkpt>
      <trkpt lat="48.73058" lon="1.75427">
        <ele>178</ele>
        <time>2010-05-14T08:47:00Z</time>
      </trkpt>
      <trkpt lat="48.73057" lon="1.75429">
        <ele>178</ele>
        <time>2010-05-14T08:47:01Z</time>
      </trkpt>
      <trkpt lat="48.73056" lon="1.7543">
        <ele>178</ele>
        <time>2010-05-14T08:47:02Z</time>
      </trkpt>
      <trkpt lat="48.73055" lon="1.75431">
        <ele>178</ele>
        <time>2010-05-14T08:47:03Z</time>
      </trkpt>
      <trkpt lat="48.73054" lon="1.75432">
        <ele>178</ele>
        <time>2010-05-14T08:47:04Z</time>
      </trkpt>
      <trkpt lat="48.73052" lon="1.75434">
        <ele>178</ele>
        <time>2010-05-14T08:47:06Z</time>
      </trkpt>
      <trkpt lat="48.73051" lon="1.75434">
        <ele>181</ele>
        <time>2010-05-14T08:47:10Z</time>
      </trkpt>
      <trkpt lat="48.73053" lon="1.75431">
        <ele>183</ele>
        <time>2010-05-14T08:47:14Z</time>
      </trkpt>
      <trkpt lat="48.73054" lon="1.75428">
        <ele>183</ele>
        <time>2010-05-14T08:47:15Z</time>
      </trkpt>
      <trkpt lat="48.73055" lon="1.75425">
        <ele>183</ele>
        <time>2010-05-14T08:47:16Z</time>
      </trkpt>
      <trkpt lat="48.73056" lon="1.75421">
        <ele>183</ele>
        <time>2010-05-14T08:47:17Z</time>
      </trkpt>
      <trkpt lat="48.73056" lon="1.75418">
        <ele>183</ele>
        <time>2010-05-14T08:47:18Z</time>
      </trkpt>
      <trkpt lat="48.73056" lon="1.75415">
        <ele>183</ele>
        <time>2010-05-14T08:47:19Z</time>
      </trkpt>
      <trkpt lat="48.73056" lon="1.75413">
        <ele>183</ele>
        <time>2010-05-14T08:47:20Z</time>
      </trkpt>
      <trkpt lat="48.73057" lon="1.7541">
        <ele>183</ele>
        <time>2010-05-14T08:47:21Z</time>
      </trkpt>
      <trkpt lat="48.73057" lon="1.75408">
        <ele>183</ele>
        <time>2010-05-14T08:47:22Z</time>
      </trkpt>
      <trkpt lat="48.73057" lon="1.75406">
        <ele>183</ele>
        <time>2010-05-14T08:47:23Z</time>
      </trkpt>
      <trkpt lat="48.73057" lon="1.75404">
        <ele>183</ele>
        <time>2010-05-14T08:47:24Z</time>
      </trkpt>
      <trkpt lat="48.73058" lon="1.75402">
        <ele>183</ele>
        <time>2010-05-14T08:47:25Z</time>
      </trkpt>
      <trkpt lat="48.73059" lon="1.754">
        <ele>183</ele>
        <time>2010-05-14T08:47:26Z</time>
      </trkpt>
      <trkpt lat="48.73059" lon="1.75397">
        <ele>183</ele>
        <time>2010-05-14T08:47:27Z</time>
      </trkpt>
      <trkpt lat="48.7306" lon="1.75395">
        <ele>183</ele>
        <time>2010-05-14T08:47:28Z</time>
      </trkpt>
      <trkpt lat="48.7306" lon="1.75393">
        <ele>183</ele>
        <time>2010-05-14T08:47:29Z</time>
      </trkpt>
      <trkpt lat="48.7306" lon="1.75391">
        <ele>183</ele>
        <time>2010-05-14T08:47:30Z</time>
      </trkpt>
      <trkpt lat="48.7306" lon="1.75389">
        <ele>182</ele>
        <time>2010-05-14T08:47:31Z</time>
      </trkpt>
      <trkpt lat="48.7306" lon="1.75387">
        <ele>182</ele>
        <time>2010-05-14T08:47:32Z</time>
      </trkpt>
      <trkpt lat="48.7306" lon="1.75385">
        <ele>182</ele>
        <time>2010-05-14T08:47:33Z</time>
      </trkpt>
      <trkpt lat="48.73061" lon="1.75383">
        <ele>181</ele>
        <time>2010-05-14T08:47:34Z</time>
      </trkpt>
      <trkpt lat="48.73061" lon="1.75381">
        <ele>181</ele>
        <time>2010-05-14T08:47:35Z</time>
      </trkpt>
      <trkpt lat="48.73062" lon="1.75379">
        <ele>180</ele>
        <time>2010-05-14T08:47:37Z</time>
      </trkpt>
      <trkpt lat="48.73062" lon="1.75376">
        <ele>180</ele>
        <time>2010-05-14T08:47:39Z</time>
      </trkpt>
      <trkpt lat="48.73063" lon="1.75374">
        <ele>179</ele>
        <time>2010-05-14T08:47:40Z</time>
      </trkpt>
      <trkpt lat="48.73063" lon="1.75372">
        <ele>179</ele>
        <time>2010-05-14T08:47:41Z</time>
      </trkpt>
      <trkpt lat="48.73063" lon="1.7537">
        <ele>178</ele>
        <time>2010-05-14T08:47:42Z</time>
      </trkpt>
      <trkpt lat="48.73062" lon="1.75368">
        <ele>178</ele>
        <time>2010-05-14T08:47:43Z</time>
      </trkpt>
      <trkpt lat="48.73062" lon="1.75367">
        <ele>178</ele>
        <time>2010-05-14T08:47:44Z</time>
      </trkpt>
      <trkpt lat="48.73062" lon="1.75364">
        <ele>177</ele>
        <time>2010-05-14T08:47:45Z</time>
      </trkpt>
      <trkpt lat="48.73062" lon="1.75362">
        <ele>177</ele>
        <time>2010-05-14T08:47:46Z</time>
      </trkpt>
      <trkpt lat="48.73062" lon="1.7536">
        <ele>176</ele>
        <time>2010-05-14T08:47:47Z</time>
      </trkpt>
      <trkpt lat="48.73061" lon="1.75357">
        <ele>176</ele>
        <time>2010-05-14T08:47:48Z</time>
      </trkpt>
      <trkpt lat="48.73061" lon="1.75355">
        <ele>176</ele>
        <time>2010-05-14T08:47:49Z</time>
      </trkpt>
      <trkpt lat="48.73061" lon="1.75353">
        <ele>175</ele>
        <time>2010-05-14T08:47:50Z</time>
      </trkpt>
      <trkpt lat="48.73061" lon="1.7535">
        <ele>175</ele>
        <time>2010-05-14T08:47:51Z</time>
      </trkpt>
      <trkpt lat="48.73061" lon="1.75348">
        <ele>174</ele>
        <time>2010-05-14T08:47:52Z</time>
      </trkpt>
      <trkpt lat="48.73061" lon="1.75346">
        <ele>174</ele>
        <time>2010-05-14T08:47:53Z</time>
      </trkpt>
      <trkpt lat="48.73061" lon="1.75344">
        <ele>174</ele>
        <time>2010-05-14T08:47:54Z</time>
      </trkpt>
      <trkpt lat="48.7306" lon="1.75342">
        <ele>174</ele>
        <time>2010-05-14T08:47:55Z</time>
      </trkpt>
      <trkpt lat="48.7306" lon="1.75339">
        <ele>174</ele>
        <time>2010-05-14T08:47:56Z</time>
      </trkpt>
      <trkpt lat="48.7306" lon="1.75336">
        <ele>174</ele>
        <time>2010-05-14T08:47:57Z</time>
      </trkpt>
      <trkpt lat="48.7306" lon="1.75334">
        <ele>174</ele>
        <time>2010-05-14T08:47:58Z</time>
      </trkpt>
      <trkpt lat="48.7306" lon="1.75332">
        <ele>174</ele>
        <time>2010-05-14T08:47:59Z</time>
      </trkpt>
      <trkpt lat="48.73061" lon="1.75329">
        <ele>174</ele>
        <time>2010-05-14T08:48:00Z</time>
      </trkpt>
      <trkpt lat="48.73061" lon="1.75327">
        <ele>174</ele>
        <time>2010-05-14T08:48:01Z</time>
      </trkpt>
      <trkpt lat="48.73061" lon="1.75325">
        <ele>174</ele>
        <time>2010-05-14T08:48:02Z</time>
      </trkpt>
      <trkpt lat="48.73061" lon="1.75323">
        <ele>174</ele>
        <time>2010-05-14T08:48:03Z</time>
      </trkpt>
      <trkpt lat="48.73061" lon="1.75321">
        <ele>174</ele>
        <time>2010-05-14T08:48:04Z</time>
      </trkpt>
      <trkpt lat="48.73062" lon="1.7532">
        <ele>174</ele>
        <time>2010-05-14T08:48:05Z</time>
      </trkpt>
      <trkpt lat="48.73064" lon="1.75317">
        <ele>174</ele>
        <time>2010-05-14T08:48:07Z</time>
      </trkpt>
      <trkpt lat="48.73065" lon="1.75315">
        <ele>174</ele>
        <time>2010-05-14T08:48:08Z</time>
      </trkpt>
      <trkpt lat="48.73066" lon="1.75313">
        <ele>174</ele>
        <time>2010-05-14T08:48:09Z</time>
      </trkpt>
      <trkpt lat="48.73067" lon="1.7531">
        <ele>174</ele>
        <time>2010-05-14T08:48:10Z</time>
      </trkpt>
      <trkpt lat="48.73068" lon="1.75308">
        <ele>174</ele>
        <time>2010-05-14T08:48:11Z</time>
      </trkpt>
      <trkpt lat="48.73069" lon="1.75306">
        <ele>174</ele>
        <time>2010-05-14T08:48:12Z</time>
      </trkpt>
      <trkpt lat="48.73069" lon="1.75304">
        <ele>174</ele>
        <time>2010-05-14T08:48:13Z</time>
      </trkpt>
      <trkpt lat="48.7307" lon="1.75302">
        <ele>174</ele>
        <time>2010-05-14T08:48:14Z</time>
      </trkpt>
      <trkpt lat="48.7307" lon="1.753">
        <ele>174</ele>
        <time>2010-05-14T08:48:15Z</time>
      </trkpt>
      <trkpt lat="48.73069" lon="1.75297">
        <ele>174</ele>
        <time>2010-05-14T08:48:16Z</time>
      </trkpt>
      <trkpt lat="48.7307" lon="1.75294">
        <ele>174</ele>
        <time>2010-05-14T08:48:17Z</time>
      </trkpt>
      <trkpt lat="48.7307" lon="1.75292">
        <ele>174</ele>
        <time>2010-05-14T08:48:18Z</time>
      </trkpt>
      <trkpt lat="48.7307" lon="1.75289">
        <ele>174</ele>
        <time>2010-05-14T08:48:19Z</time>
      </trkpt>
      <trkpt lat="48.73069" lon="1.75287">
        <ele>174</ele>
        <time>2010-05-14T08:48:20Z</time>
      </trkpt>
      <trkpt lat="48.73069" lon="1.75286">
        <ele>174</ele>
        <time>2010-05-14T08:48:21Z</time>
      </trkpt>
      <trkpt lat="48.73069" lon="1.75284">
        <ele>174</ele>
        <time>2010-05-14T08:48:22Z</time>
      </trkpt>
      <trkpt lat="48.7307" lon="1.75282">
        <ele>174</ele>
        <time>2010-05-14T08:48:23Z</time>
      </trkpt>
      <trkpt lat="48.7307" lon="1.7528">
        <ele>174</ele>
        <time>2010-05-14T08:48:24Z</time>
      </trkpt>
      <trkpt lat="48.73071" lon="1.75278">
        <ele>174</ele>
        <time>2010-05-14T08:48:25Z</time>
      </trkpt>
      <trkpt lat="48.73071" lon="1.75276">
        <ele>174</ele>
        <time>2010-05-14T08:48:26Z</time>
      </trkpt>
      <trkpt lat="48.73071" lon="1.75275">
        <ele>174</ele>
        <time>2010-05-14T08:48:27Z</time>
      </trkpt>
      <trkpt lat="48.73071" lon="1.75273">
        <ele>174</ele>
        <time>2010-05-14T08:48:28Z</time>
      </trkpt>
      <trkpt lat="48.73072" lon="1.75271">
        <ele>174</ele>
        <time>2010-05-14T08:48:29Z</time>
      </trkpt>
      <trkpt lat="48.73072" lon="1.75269">
        <ele>174</ele>
        <time>2010-05-14T08:48:30Z</time>
      </trkpt>
      <trkpt lat="48.73072" lon="1.75266">
        <ele>174</ele>
        <time>2010-05-14T08:48:31Z</time>
      </trkpt>
      <trkpt lat="48.73072" lon="1.75264">
        <ele>174</ele>
        <time>2010-05-14T08:48:32Z</time>
      </trkpt>
      <trkpt lat="48.73072" lon="1.75262">
        <ele>174</ele>
        <time>2010-05-14T08:48:33Z</time>
      </trkpt>
      <trkpt lat="48.73073" lon="1.75259">
        <ele>174</ele>
        <time>2010-05-14T08:48:34Z</time>
      </trkpt>
      <trkpt lat="48.73072" lon="1.75257">
        <ele>174</ele>
        <time>2010-05-14T08:48:35Z</time>
      </trkpt>
      <trkpt lat="48.73072" lon="1.75255">
        <ele>174</ele>
        <time>2010-05-14T08:48:36Z</time>
      </trkpt>
      <trkpt lat="48.73072" lon="1.75252">
        <ele>174</ele>
        <time>2010-05-14T08:48:37Z</time>
      </trkpt>
      <trkpt lat="48.73072" lon="1.75249">
        <ele>174</ele>
        <time>2010-05-14T08:48:38Z</time>
      </trkpt>
      <trkpt lat="48.73071" lon="1.75247">
        <ele>174</ele>
        <time>2010-05-14T08:48:39Z</time>
      </trkpt>
      <trkpt lat="48.73071" lon="1.75245">
        <ele>174</ele>
        <time>2010-05-14T08:48:40Z</time>
      </trkpt>
      <trkpt lat="48.73071" lon="1.75243">
        <ele>174</ele>
        <time>2010-05-14T08:48:41Z</time>
      </trkpt>
      <trkpt lat="48.7307" lon="1.7524">
        <ele>174</ele>
        <time>2010-05-14T08:48:42Z</time>
      </trkpt>
      <trkpt lat="48.7307" lon="1.75238">
        <ele>174</ele>
        <time>2010-05-14T08:48:43Z</time>
      </trkpt>
      <trkpt lat="48.7307" lon="1.75235">
        <ele>173</ele>
        <time>2010-05-14T08:48:44Z</time>
      </trkpt>
      <trkpt lat="48.73069" lon="1.75232">
        <ele>173</ele>
        <time>2010-05-14T08:48:45Z</time>
      </trkpt>
      <trkpt lat="48.73069" lon="1.7523">
        <ele>172</ele>
        <time>2010-05-14T08:48:46Z</time>
      </trkpt>
      <trkpt lat="48.73069" lon="1.75227">
        <ele>172</ele>
        <time>2010-05-14T08:48:47Z</time>
      </trkpt>
      <trkpt lat="48.73069" lon="1.75224">
        <ele>172</ele>
        <time>2010-05-14T08:48:48Z</time>
      </trkpt>
      <trkpt lat="48.73069" lon="1.75219">
        <ele>172</ele>
        <time>2010-05-14T08:48:49Z</time>
      </trkpt>
      <trkpt lat="48.73069" lon="1.75216">
        <ele>172</ele>
        <time>2010-05-14T08:48:50Z</time>
      </trkpt>
      <trkpt lat="48.73069" lon="1.75213">
        <ele>172</ele>
        <time>2010-05-14T08:48:51Z</time>
      </trkpt>
      <trkpt lat="48.73068" lon="1.75211">
        <ele>171</ele>
        <time>2010-05-14T08:48:52Z</time>
      </trkpt>
      <trkpt lat="48.73068" lon="1.75208">
        <ele>171</ele>
        <time>2010-05-14T08:48:53Z</time>
      </trkpt>
      <trkpt lat="48.73068" lon="1.75206">
        <ele>171</ele>
        <time>2010-05-14T08:48:54Z</time>
      </trkpt>
      <trkpt lat="48.73068" lon="1.75203">
        <ele>170</ele>
        <time>2010-05-14T08:48:55Z</time>
      </trkpt>
      <trkpt lat="48.73069" lon="1.752">
        <ele>170</ele>
        <time>2010-05-14T08:48:56Z</time>
      </trkpt>
      <trkpt lat="48.73069" lon="1.75197">
        <ele>169</ele>
        <time>2010-05-14T08:48:57Z</time>
      </trkpt>
      <trkpt lat="48.73069" lon="1.75195">
        <ele>169</ele>
        <time>2010-05-14T08:48:58Z</time>
      </trkpt>
      <trkpt lat="48.73069" lon="1.75193">
        <ele>168</ele>
        <time>2010-05-14T08:48:59Z</time>
      </trkpt>
      <trkpt lat="48.7307" lon="1.75191">
        <ele>168</ele>
        <time>2010-05-14T08:49:00Z</time>
      </trkpt>
      <trkpt lat="48.7307" lon="1.75189">
        <ele>167</ele>
        <time>2010-05-14T08:49:01Z</time>
      </trkpt>
      <trkpt lat="48.7307" lon="1.75187">
        <ele>167</ele>
        <time>2010-05-14T08:49:02Z</time>
      </trkpt>
      <trkpt lat="48.7307" lon="1.75185">
        <ele>167</ele>
        <time>2010-05-14T08:49:03Z</time>
      </trkpt>
      <trkpt lat="48.7307" lon="1.75183">
        <ele>166</ele>
        <time>2010-05-14T08:49:04Z</time>
      </trkpt>
      <trkpt lat="48.7307" lon="1.75181">
        <ele>166</ele>
        <time>2010-05-14T08:49:05Z</time>
      </trkpt>
      <trkpt lat="48.7307" lon="1.75179">
        <ele>166</ele>
        <time>2010-05-14T08:49:06Z</time>
      </trkpt>
      <trkpt lat="48.7307" lon="1.75177">
        <ele>166</ele>
        <time>2010-05-14T08:49:07Z</time>
      </trkpt>
      <trkpt lat="48.7307" lon="1.75175">
        <ele>165</ele>
        <time>2010-05-14T08:49:08Z</time>
      </trkpt>
      <trkpt lat="48.7307" lon="1.75172">
        <ele>165</ele>
        <time>2010-05-14T08:49:09Z</time>
      </trkpt>
      <trkpt lat="48.7307" lon="1.7517">
        <ele>165</ele>
        <time>2010-05-14T08:49:10Z</time>
      </trkpt>
      <trkpt lat="48.7307" lon="1.75168">
        <ele>164</ele>
        <time>2010-05-14T08:49:11Z</time>
      </trkpt>
      <trkpt lat="48.7307" lon="1.75166">
        <ele>164</ele>
        <time>2010-05-14T08:49:12Z</time>
      </trkpt>
      <trkpt lat="48.7307" lon="1.75163">
        <ele>164</ele>
        <time>2010-05-14T08:49:13Z</time>
      </trkpt>
      <trkpt lat="48.7307" lon="1.7516">
        <ele>164</ele>
        <time>2010-05-14T08:49:14Z</time>
      </trkpt>
      <trkpt lat="48.7307" lon="1.75158">
        <ele>163</ele>
        <time>2010-05-14T08:49:15Z</time>
      </trkpt>
      <trkpt lat="48.7307" lon="1.75156">
        <ele>163</ele>
        <time>2010-05-14T08:49:16Z</time>
      </trkpt>
      <trkpt lat="48.7307" lon="1.75154">
        <ele>163</ele>
        <time>2010-05-14T08:49:17Z</time>
      </trkpt>
      <trkpt lat="48.7307" lon="1.75151">
        <ele>163</ele>
        <time>2010-05-14T08:49:18Z</time>
      </trkpt>
      <trkpt lat="48.73069" lon="1.75148">
        <ele>163</ele>
        <time>2010-05-14T08:49:19Z</time>
      </trkpt>
      <trkpt lat="48.73069" lon="1.75145">
        <ele>163</ele>
        <time>2010-05-14T08:49:20Z</time>
      </trkpt>
      <trkpt lat="48.7307" lon="1.75143">
        <ele>163</ele>
        <time>2010-05-14T08:49:21Z</time>
      </trkpt>
      <trkpt lat="48.7307" lon="1.75141">
        <ele>163</ele>
        <time>2010-05-14T08:49:22Z</time>
      </trkpt>
      <trkpt lat="48.7307" lon="1.75139">
        <ele>163</ele>
        <time>2010-05-14T08:49:23Z</time>
      </trkpt>
      <trkpt lat="48.7307" lon="1.75137">
        <ele>163</ele>
        <time>2010-05-14T08:49:24Z</time>
      </trkpt>
      <trkpt lat="48.7307" lon="1.75136">
        <ele>163</ele>
        <time>2010-05-14T08:49:25Z</time>
      </trkpt>
      <trkpt lat="48.7307" lon="1.75132">
        <ele>163</ele>
        <time>2010-05-14T08:49:27Z</time>
      </trkpt>
      <trkpt lat="48.7307" lon="1.75129">
        <ele>163</ele>
        <time>2010-05-14T08:49:28Z</time>
      </trkpt>
      <trkpt lat="48.7307" lon="1.75127">
        <ele>163</ele>
        <time>2010-05-14T08:49:29Z</time>
      </trkpt>
      <trkpt lat="48.73071" lon="1.75125">
        <ele>163</ele>
        <time>2010-05-14T08:49:30Z</time>
      </trkpt>
      <trkpt lat="48.73071" lon="1.75123">
        <ele>163</ele>
        <time>2010-05-14T08:49:31Z</time>
      </trkpt>
      <trkpt lat="48.7307" lon="1.75121">
        <ele>163</ele>
        <time>2010-05-14T08:49:32Z</time>
      </trkpt>
      <trkpt lat="48.7307" lon="1.75119">
        <ele>163</ele>
        <time>2010-05-14T08:49:33Z</time>
      </trkpt>
      <trkpt lat="48.7307" lon="1.75116">
        <ele>163</ele>
        <time>2010-05-14T08:49:35Z</time>
      </trkpt>
      <trkpt lat="48.7307" lon="1.75114">
        <ele>163</ele>
        <time>2010-05-14T08:49:36Z</time>
      </trkpt>
      <trkpt lat="48.7307" lon="1.75111">
        <ele>163</ele>
        <time>2010-05-14T08:49:37Z</time>
      </trkpt>
      <trkpt lat="48.7307" lon="1.75108">
        <ele>163</ele>
        <time>2010-05-14T08:49:38Z</time>
      </trkpt>
      <trkpt lat="48.7307" lon="1.75106">
        <ele>163</ele>
        <time>2010-05-14T08:49:39Z</time>
      </trkpt>
      <trkpt lat="48.73069" lon="1.75104">
        <ele>163</ele>
        <time>2010-05-14T08:49:40Z</time>
      </trkpt>
      <trkpt lat="48.73069" lon="1.75101">
        <ele>163</ele>
        <time>2010-05-14T08:49:41Z</time>
      </trkpt>
      <trkpt lat="48.73069" lon="1.75098">
        <ele>163</ele>
        <time>2010-05-14T08:49:42Z</time>
      </trkpt>
      <trkpt lat="48.73068" lon="1.75094">
        <ele>163</ele>
        <time>2010-05-14T08:49:43Z</time>
      </trkpt>
      <trkpt lat="48.73068" lon="1.75091">
        <ele>163</ele>
        <time>2010-05-14T08:49:44Z</time>
      </trkpt>
      <trkpt lat="48.73068" lon="1.75087">
        <ele>163</ele>
        <time>2010-05-14T08:49:45Z</time>
      </trkpt>
      <trkpt lat="48.73067" lon="1.75084">
        <ele>163</ele>
        <time>2010-05-14T08:49:46Z</time>
      </trkpt>
      <trkpt lat="48.73067" lon="1.75081">
        <ele>163</ele>
        <time>2010-05-14T08:49:47Z</time>
      </trkpt>
      <trkpt lat="48.73067" lon="1.75077">
        <ele>163</ele>
        <time>2010-05-14T08:49:48Z</time>
      </trkpt>
      <trkpt lat="48.73066" lon="1.75073">
        <ele>163</ele>
        <time>2010-05-14T08:49:49Z</time>
      </trkpt>
      <trkpt lat="48.73066" lon="1.75069">
        <ele>163</ele>
        <time>2010-05-14T08:49:50Z</time>
      </trkpt>
      <trkpt lat="48.73066" lon="1.75066">
        <ele>163</ele>
        <time>2010-05-14T08:49:51Z</time>
      </trkpt>
      <trkpt lat="48.73065" lon="1.75062">
        <ele>163</ele>
        <time>2010-05-14T08:49:52Z</time>
      </trkpt>
      <trkpt lat="48.73065" lon="1.7506">
        <ele>163</ele>
        <time>2010-05-14T08:49:53Z</time>
      </trkpt>
      <trkpt lat="48.73065" lon="1.75058">
        <ele>163</ele>
        <time>2010-05-14T08:49:54Z</time>
      </trkpt>
      <trkpt lat="48.73065" lon="1.75055">
        <ele>163</ele>
        <time>2010-05-14T08:49:56Z</time>
      </trkpt>
      <trkpt lat="48.73066" lon="1.75053">
        <ele>163</ele>
        <time>2010-05-14T08:49:57Z</time>
      </trkpt>
      <trkpt lat="48.73066" lon="1.75051">
        <ele>163</ele>
        <time>2010-05-14T08:49:58Z</time>
      </trkpt>
      <trkpt lat="48.73066" lon="1.75048">
        <ele>163</ele>
        <time>2010-05-14T08:49:59Z</time>
      </trkpt>
      <trkpt lat="48.73066" lon="1.75046">
        <ele>163</ele>
        <time>2010-05-14T08:50:00Z</time>
      </trkpt>
      <trkpt lat="48.73066" lon="1.75044">
        <ele>163</ele>
        <time>2010-05-14T08:50:01Z</time>
      </trkpt>
      <trkpt lat="48.73066" lon="1.75041">
        <ele>163</ele>
        <time>2010-05-14T08:50:02Z</time>
      </trkpt>
      <trkpt lat="48.73066" lon="1.7504">
        <ele>163</ele>
        <time>2010-05-14T08:50:03Z</time>
      </trkpt>
      <trkpt lat="48.73066" lon="1.75037">
        <ele>162</ele>
        <time>2010-05-14T08:50:05Z</time>
      </trkpt>
      <trkpt lat="48.73066" lon="1.75035">
        <ele>162</ele>
        <time>2010-05-14T08:50:06Z</time>
      </trkpt>
      <trkpt lat="48.73066" lon="1.75032">
        <ele>162</ele>
        <time>2010-05-14T08:50:07Z</time>
      </trkpt>
      <trkpt lat="48.73066" lon="1.7503">
        <ele>161</ele>
        <time>2010-05-14T08:50:08Z</time>
      </trkpt>
      <trkpt lat="48.73065" lon="1.75027">
        <ele>161</ele>
        <time>2010-05-14T08:50:09Z</time>
      </trkpt>
      <trkpt lat="48.73065" lon="1.75024">
        <ele>161</ele>
        <time>2010-05-14T08:50:10Z</time>
      </trkpt>
      <trkpt lat="48.73065" lon="1.75022">
        <ele>161</ele>
        <time>2010-05-14T08:50:11Z</time>
      </trkpt>
      <trkpt lat="48.73065" lon="1.75019">
        <ele>161</ele>
        <time>2010-05-14T08:50:13Z</time>
      </trkpt>
      <trkpt lat="48.73066" lon="1.75016">
        <ele>160</ele>
        <time>2010-05-14T08:50:14Z</time>
      </trkpt>
      <trkpt lat="48.73066" lon="1.75014">
        <ele>160</ele>
        <time>2010-05-14T08:50:15Z</time>
      </trkpt>
      <trkpt lat="48.73066" lon="1.75012">
        <ele>159</ele>
        <time>2010-05-14T08:50:16Z</time>
      </trkpt>
      <trkpt lat="48.73067" lon="1.75011">
        <ele>159</ele>
        <time>2010-05-14T08:50:17Z</time>
      </trkpt>
      <trkpt lat="48.73067" lon="1.75008">
        <ele>159</ele>
        <time>2010-05-14T08:50:18Z</time>
      </trkpt>
      <trkpt lat="48.73067" lon="1.75006">
        <ele>159</ele>
        <time>2010-05-14T08:50:19Z</time>
      </trkpt>
      <trkpt lat="48.73067" lon="1.75004">
        <ele>159</ele>
        <time>2010-05-14T08:50:20Z</time>
      </trkpt>
      <trkpt lat="48.73067" lon="1.75002">
        <ele>159</ele>
        <time>2010-05-14T08:50:21Z</time>
      </trkpt>
      <trkpt lat="48.73067" lon="1.75">
        <ele>159</ele>
        <time>2010-05-14T08:50:22Z</time>
      </trkpt>
      <trkpt lat="48.73067" lon="1.74997">
        <ele>158</ele>
        <time>2010-05-14T08:50:23Z</time>
      </trkpt>
      <trkpt lat="48.73068" lon="1.74995">
        <ele>158</ele>
        <time>2010-05-14T08:50:24Z</time>
      </trkpt>
      <trkpt lat="48.73069" lon="1.74993">
        <ele>158</ele>
        <time>2010-05-14T08:50:25Z</time>
      </trkpt>
      <trkpt lat="48.73069" lon="1.74991">
        <ele>158</ele>
        <time>2010-05-14T08:50:26Z</time>
      </trkpt>
      <trkpt lat="48.7307" lon="1.74988">
        <ele>158</ele>
        <time>2010-05-14T08:50:27Z</time>
      </trkpt>
      <trkpt lat="48.73069" lon="1.74985">
        <ele>158</ele>
        <time>2010-05-14T08:50:28Z</time>
      </trkpt>
      <trkpt lat="48.73069" lon="1.74982">
        <ele>157</ele>
        <time>2010-05-14T08:50:29Z</time>
      </trkpt>
      <trkpt lat="48.73069" lon="1.74979">
        <ele>157</ele>
        <time>2010-05-14T08:50:30Z</time>
      </trkpt>
      <trkpt lat="48.73069" lon="1.74976">
        <ele>157</ele>
        <time>2010-05-14T08:50:31Z</time>
      </trkpt>
      <trkpt lat="48.73069" lon="1.74974">
        <ele>156</ele>
        <time>2010-05-14T08:50:32Z</time>
      </trkpt>
      <trkpt lat="48.73069" lon="1.74972">
        <ele>156</ele>
        <time>2010-05-14T08:50:33Z</time>
      </trkpt>
      <trkpt lat="48.73069" lon="1.7497">
        <ele>156</ele>
        <time>2010-05-14T08:50:34Z</time>
      </trkpt>
      <trkpt lat="48.73069" lon="1.74968">
        <ele>156</ele>
        <time>2010-05-14T08:50:35Z</time>
      </trkpt>
      <trkpt lat="48.73068" lon="1.74966">
        <ele>155</ele>
        <time>2010-05-14T08:50:36Z</time>
      </trkpt>
      <trkpt lat="48.73068" lon="1.74964">
        <ele>155</ele>
        <time>2010-05-14T08:50:37Z</time>
      </trkpt>
      <trkpt lat="48.73068" lon="1.7496">
        <ele>155</ele>
        <time>2010-05-14T08:50:38Z</time>
      </trkpt>
      <trkpt lat="48.73068" lon="1.74958">
        <ele>155</ele>
        <time>2010-05-14T08:50:39Z</time>
      </trkpt>
      <trkpt lat="48.73068" lon="1.74955">
        <ele>155</ele>
        <time>2010-05-14T08:50:40Z</time>
      </trkpt>
      <trkpt lat="48.73068" lon="1.74952">
        <ele>155</ele>
        <time>2010-05-14T08:50:41Z</time>
      </trkpt>
      <trkpt lat="48.73068" lon="1.7495">
        <ele>155</ele>
        <time>2010-05-14T08:50:42Z</time>
      </trkpt>
      <trkpt lat="48.73067" lon="1.74948">
        <ele>155</ele>
        <time>2010-05-14T08:50:43Z</time>
      </trkpt>
      <trkpt lat="48.73067" lon="1.74946">
        <ele>155</ele>
        <time>2010-05-14T08:50:44Z</time>
      </trkpt>
      <trkpt lat="48.73067" lon="1.74944">
        <ele>155</ele>
        <time>2010-05-14T08:50:45Z</time>
      </trkpt>
      <trkpt lat="48.73065" lon="1.74941">
        <ele>155</ele>
        <time>2010-05-14T08:50:47Z</time>
      </trkpt>
      <trkpt lat="48.73065" lon="1.74939">
        <ele>155</ele>
        <time>2010-05-14T08:50:48Z</time>
      </trkpt>
      <trkpt lat="48.73064" lon="1.74937">
        <ele>155</ele>
        <time>2010-05-14T08:50:49Z</time>
      </trkpt>
      <trkpt lat="48.73064" lon="1.74935">
        <ele>155</ele>
        <time>2010-05-14T08:50:50Z</time>
      </trkpt>
      <trkpt lat="48.73064" lon="1.74934">
        <ele>155</ele>
        <time>2010-05-14T08:50:51Z</time>
      </trkpt>
      <trkpt lat="48.73063" lon="1.74931">
        <ele>155</ele>
        <time>2010-05-14T08:50:52Z</time>
      </trkpt>
      <trkpt lat="48.73063" lon="1.74928">
        <ele>155</ele>
        <time>2010-05-14T08:50:53Z</time>
      </trkpt>
      <trkpt lat="48.73063" lon="1.74924">
        <ele>155</ele>
        <time>2010-05-14T08:50:54Z</time>
      </trkpt>
      <trkpt lat="48.73063" lon="1.74922">
        <ele>155</ele>
        <time>2010-05-14T08:50:55Z</time>
      </trkpt>
      <trkpt lat="48.73062" lon="1.74918">
        <ele>155</ele>
        <time>2010-05-14T08:50:56Z</time>
      </trkpt>
      <trkpt lat="48.73062" lon="1.74916">
        <ele>155</ele>
        <time>2010-05-14T08:50:57Z</time>
      </trkpt>
      <trkpt lat="48.73061" lon="1.74914">
        <ele>155</ele>
        <time>2010-05-14T08:50:58Z</time>
      </trkpt>
      <trkpt lat="48.7306" lon="1.74911">
        <ele>155</ele>
        <time>2010-05-14T08:51:00Z</time>
      </trkpt>
      <trkpt lat="48.73059" lon="1.74908">
        <ele>155</ele>
        <time>2010-05-14T08:51:02Z</time>
      </trkpt>
      <trkpt lat="48.73058" lon="1.74905">
        <ele>155</ele>
        <time>2010-05-14T08:51:03Z</time>
      </trkpt>
      <trkpt lat="48.73057" lon="1.74903">
        <ele>155</ele>
        <time>2010-05-14T08:51:04Z</time>
      </trkpt>
      <trkpt lat="48.73056" lon="1.74901">
        <ele>155</ele>
        <time>2010-05-14T08:51:05Z</time>
      </trkpt>
      <trkpt lat="48.73056" lon="1.74899">
        <ele>155</ele>
        <time>2010-05-14T08:51:06Z</time>
      </trkpt>
      <trkpt lat="48.73055" lon="1.74898">
        <ele>155</ele>
        <time>2010-05-14T08:51:07Z</time>
      </trkpt>
      <trkpt lat="48.73055" lon="1.74895">
        <ele>155</ele>
        <time>2010-05-14T08:51:08Z</time>
      </trkpt>
      <trkpt lat="48.73055" lon="1.74891">
        <ele>155</ele>
        <time>2010-05-14T08:51:09Z</time>
      </trkpt>
      <trkpt lat="48.73056" lon="1.74887">
        <ele>155</ele>
        <time>2010-05-14T08:51:10Z</time>
      </trkpt>
      <trkpt lat="48.73056" lon="1.74885">
        <ele>155</ele>
        <time>2010-05-14T08:51:11Z</time>
      </trkpt>
      <trkpt lat="48.73056" lon="1.74883">
        <ele>155</ele>
        <time>2010-05-14T08:51:12Z</time>
      </trkpt>
      <trkpt lat="48.73055" lon="1.74881">
        <ele>155</ele>
        <time>2010-05-14T08:51:13Z</time>
      </trkpt>
      <trkpt lat="48.73056" lon="1.7488">
        <ele>155</ele>
        <time>2010-05-14T08:51:15Z</time>
      </trkpt>
      <trkpt lat="48.73058" lon="1.74877">
        <ele>155</ele>
        <time>2010-05-14T08:51:17Z</time>
      </trkpt>
      <trkpt lat="48.73059" lon="1.74874">
        <ele>155</ele>
        <time>2010-05-14T08:51:18Z</time>
      </trkpt>
      <trkpt lat="48.7306" lon="1.74872">
        <ele>155</ele>
        <time>2010-05-14T08:51:19Z</time>
      </trkpt>
      <trkpt lat="48.73061" lon="1.7487">
        <ele>155</ele>
        <time>2010-05-14T08:51:20Z</time>
      </trkpt>
      <trkpt lat="48.73062" lon="1.74867">
        <ele>154</ele>
        <time>2010-05-14T08:51:21Z</time>
      </trkpt>
      <trkpt lat="48.73063" lon="1.74864">
        <ele>153</ele>
        <time>2010-05-14T08:51:22Z</time>
      </trkpt>
      <trkpt lat="48.73063" lon="1.74859">
        <ele>153</ele>
        <time>2010-05-14T08:51:23Z</time>
      </trkpt>
      <trkpt lat="48.73063" lon="1.74854">
        <ele>152</ele>
        <time>2010-05-14T08:51:24Z</time>
      </trkpt>
      <trkpt lat="48.73063" lon="1.74851">
        <ele>152</ele>
        <time>2010-05-14T08:51:25Z</time>
      </trkpt>
      <trkpt lat="48.73063" lon="1.74847">
        <ele>152</ele>
        <time>2010-05-14T08:51:26Z</time>
      </trkpt>
      <trkpt lat="48.73064" lon="1.74842">
        <ele>152</ele>
        <time>2010-05-14T08:51:27Z</time>
      </trkpt>
      <trkpt lat="48.73064" lon="1.74837">
        <ele>152</ele>
        <time>2010-05-14T08:51:28Z</time>
      </trkpt>
      <trkpt lat="48.73064" lon="1.74834">
        <ele>152</ele>
        <time>2010-05-14T08:51:29Z</time>
      </trkpt>
      <trkpt lat="48.73064" lon="1.7483">
        <ele>152</ele>
        <time>2010-05-14T08:51:30Z</time>
      </trkpt>
      <trkpt lat="48.73063" lon="1.74827">
        <ele>152</ele>
        <time>2010-05-14T08:51:31Z</time>
      </trkpt>
      <trkpt lat="48.73062" lon="1.74824">
        <ele>152</ele>
        <time>2010-05-14T08:51:32Z</time>
      </trkpt>
      <trkpt lat="48.73061" lon="1.7482">
        <ele>153</ele>
        <time>2010-05-14T08:51:33Z</time>
      </trkpt>
      <trkpt lat="48.7306" lon="1.74818">
        <ele>153</ele>
        <time>2010-05-14T08:51:34Z</time>
      </trkpt>
      <trkpt lat="48.7306" lon="1.74815">
        <ele>153</ele>
        <time>2010-05-14T08:51:36Z</time>
      </trkpt>
      <trkpt lat="48.73061" lon="1.74812">
        <ele>153</ele>
        <time>2010-05-14T08:51:38Z</time>
      </trkpt>
      <trkpt lat="48.7306" lon="1.74811">
        <ele>153</ele>
        <time>2010-05-14T08:51:39Z</time>
      </trkpt>
      <trkpt lat="48.73059" lon="1.74808">
        <ele>153</ele>
        <time>2010-05-14T08:51:40Z</time>
      </trkpt>
      <trkpt lat="48.73058" lon="1.74805">
        <ele>153</ele>
        <time>2010-05-14T08:51:41Z</time>
      </trkpt>
      <trkpt lat="48.73058" lon="1.74803">
        <ele>153</ele>
        <time>2010-05-14T08:51:42Z</time>
      </trkpt>
      <trkpt lat="48.73057" lon="1.74801">
        <ele>153</ele>
        <time>2010-05-14T08:51:43Z</time>
      </trkpt>
      <trkpt lat="48.73057" lon="1.74799">
        <ele>153</ele>
        <time>2010-05-14T08:51:44Z</time>
      </trkpt>
      <trkpt lat="48.73056" lon="1.74797">
        <ele>153</ele>
        <time>2010-05-14T08:51:45Z</time>
      </trkpt>
      <trkpt lat="48.73056" lon="1.74793">
        <ele>153</ele>
        <time>2010-05-14T08:51:46Z</time>
      </trkpt>
      <trkpt lat="48.73055" lon="1.7479">
        <ele>153</ele>
        <time>2010-05-14T08:51:47Z</time>
      </trkpt>
      <trkpt lat="48.73054" lon="1.74787">
        <ele>153</ele>
        <time>2010-05-14T08:51:49Z</time>
      </trkpt>
      <trkpt lat="48.73054" lon="1.74785">
        <ele>153</ele>
        <time>2010-05-14T08:51:50Z</time>
      </trkpt>
      <trkpt lat="48.73053" lon="1.74782">
        <ele>153</ele>
        <time>2010-05-14T08:51:52Z</time>
      </trkpt>
      <trkpt lat="48.73053" lon="1.7478">
        <ele>153</ele>
        <time>2010-05-14T08:51:53Z</time>
      </trkpt>
      <trkpt lat="48.73053" lon="1.74777">
        <ele>153</ele>
        <time>2010-05-14T08:51:54Z</time>
      </trkpt>
      <trkpt lat="48.73052" lon="1.74775">
        <ele>153</ele>
        <time>2010-05-14T08:51:55Z</time>
      </trkpt>
      <trkpt lat="48.73052" lon="1.74772">
        <ele>153</ele>
        <time>2010-05-14T08:51:56Z</time>
      </trkpt>
      <trkpt lat="48.73053" lon="1.74769">
        <ele>153</ele>
        <time>2010-05-14T08:51:57Z</time>
      </trkpt>
      <trkpt lat="48.73053" lon="1.74767">
        <ele>153</ele>
        <time>2010-05-14T08:51:58Z</time>
      </trkpt>
      <trkpt lat="48.73053" lon="1.74765">
        <ele>153</ele>
        <time>2010-05-14T08:51:59Z</time>
      </trkpt>
      <trkpt lat="48.73053" lon="1.7476">
        <ele>153</ele>
        <time>2010-05-14T08:52:00Z</time>
      </trkpt>
      <trkpt lat="48.73053" lon="1.74757">
        <ele>154</ele>
        <time>2010-05-14T08:52:01Z</time>
      </trkpt>
      <trkpt lat="48.73053" lon="1.74755">
        <ele>154</ele>
        <time>2010-05-14T08:52:02Z</time>
      </trkpt>
      <trkpt lat="48.73052" lon="1.74753">
        <ele>154</ele>
        <time>2010-05-14T08:52:03Z</time>
      </trkpt>
      <trkpt lat="48.73052" lon="1.74751">
        <ele>154</ele>
        <time>2010-05-14T08:52:04Z</time>
      </trkpt>
      <trkpt lat="48.73051" lon="1.74749">
        <ele>154</ele>
        <time>2010-05-14T08:52:05Z</time>
      </trkpt>
      <trkpt lat="48.73051" lon="1.74747">
        <ele>154</ele>
        <time>2010-05-14T08:52:06Z</time>
      </trkpt>
      <trkpt lat="48.73051" lon="1.74742">
        <ele>154</ele>
        <time>2010-05-14T08:52:08Z</time>
      </trkpt>
      <trkpt lat="48.73051" lon="1.74741">
        <ele>154</ele>
        <time>2010-05-14T08:52:09Z</time>
      </trkpt>
      <trkpt lat="48.7305" lon="1.74739">
        <ele>154</ele>
        <time>2010-05-14T08:52:10Z</time>
      </trkpt>
      <trkpt lat="48.7305" lon="1.74737">
        <ele>154</ele>
        <time>2010-05-14T08:52:11Z</time>
      </trkpt>
      <trkpt lat="48.73049" lon="1.74735">
        <ele>154</ele>
        <time>2010-05-14T08:52:12Z</time>
      </trkpt>
      <trkpt lat="48.73048" lon="1.74732">
        <ele>154</ele>
        <time>2010-05-14T08:52:13Z</time>
      </trkpt>
      <trkpt lat="48.73048" lon="1.7473">
        <ele>154</ele>
        <time>2010-05-14T08:52:14Z</time>
      </trkpt>
      <trkpt lat="48.73048" lon="1.74729">
        <ele>154</ele>
        <time>2010-05-14T08:52:15Z</time>
      </trkpt>
      <trkpt lat="48.73048" lon="1.74726">
        <ele>154</ele>
        <time>2010-05-14T08:52:16Z</time>
      </trkpt>
      <trkpt lat="48.73048" lon="1.74722">
        <ele>154</ele>
        <time>2010-05-14T08:52:17Z</time>
      </trkpt>
      <trkpt lat="48.73048" lon="1.7472">
        <ele>154</ele>
        <time>2010-05-14T08:52:18Z</time>
      </trkpt>
      <trkpt lat="48.73048" lon="1.74718">
        <ele>154</ele>
        <time>2010-05-14T08:52:19Z</time>
      </trkpt>
      <trkpt lat="48.73047" lon="1.74715">
        <ele>154</ele>
        <time>2010-05-14T08:52:20Z</time>
      </trkpt>
      <trkpt lat="48.73047" lon="1.74713">
        <ele>154</ele>
        <time>2010-05-14T08:52:21Z</time>
      </trkpt>
      <trkpt lat="48.73046" lon="1.74711">
        <ele>154</ele>
        <time>2010-05-14T08:52:22Z</time>
      </trkpt>
      <trkpt lat="48.73046" lon="1.74708">
        <ele>154</ele>
        <time>2010-05-14T08:52:23Z</time>
      </trkpt>
      <trkpt lat="48.73045" lon="1.74705">
        <ele>154</ele>
        <time>2010-05-14T08:52:25Z</time>
      </trkpt>
      <trkpt lat="48.73044" lon="1.74703">
        <ele>154</ele>
        <time>2010-05-14T08:52:26Z</time>
      </trkpt>
      <trkpt lat="48.73044" lon="1.747">
        <ele>154</ele>
        <time>2010-05-14T08:52:27Z</time>
      </trkpt>
      <trkpt lat="48.73044" lon="1.74698">
        <ele>154</ele>
        <time>2010-05-14T08:52:28Z</time>
      </trkpt>
      <trkpt lat="48.73044" lon="1.74696">
        <ele>154</ele>
        <time>2010-05-14T08:52:29Z</time>
      </trkpt>
      <trkpt lat="48.73045" lon="1.74694">
        <ele>154</ele>
        <time>2010-05-14T08:52:30Z</time>
      </trkpt>
      <trkpt lat="48.73045" lon="1.74692">
        <ele>154</ele>
        <time>2010-05-14T08:52:31Z</time>
      </trkpt>
      <trkpt lat="48.73045" lon="1.74689">
        <ele>154</ele>
        <time>2010-05-14T08:52:32Z</time>
      </trkpt>
      <trkpt lat="48.73044" lon="1.74687">
        <ele>155</ele>
        <time>2010-05-14T08:52:33Z</time>
      </trkpt>
      <trkpt lat="48.73043" lon="1.74684">
        <ele>155</ele>
        <time>2010-05-14T08:52:34Z</time>
      </trkpt>
      <trkpt lat="48.73043" lon="1.74682">
        <ele>156</ele>
        <time>2010-05-14T08:52:35Z</time>
      </trkpt>
      <trkpt lat="48.73041" lon="1.74678">
        <ele>156</ele>
        <time>2010-05-14T08:52:37Z</time>
      </trkpt>
      <trkpt lat="48.73039" lon="1.74677">
        <ele>156</ele>
        <time>2010-05-14T08:52:38Z</time>
      </trkpt>
      <trkpt lat="48.73038" lon="1.74675">
        <ele>156</ele>
        <time>2010-05-14T08:52:39Z</time>
      </trkpt>
      <trkpt lat="48.73036" lon="1.74673">
        <ele>156</ele>
        <time>2010-05-14T08:52:40Z</time>
      </trkpt>
      <trkpt lat="48.73035" lon="1.74672">
        <ele>156</ele>
        <time>2010-05-14T08:52:41Z</time>
      </trkpt>
      <trkpt lat="48.73034" lon="1.74671">
        <ele>156</ele>
        <time>2010-05-14T08:52:42Z</time>
      </trkpt>
      <trkpt lat="48.73032" lon="1.7467">
        <ele>156</ele>
        <time>2010-05-14T08:52:43Z</time>
      </trkpt>
      <trkpt lat="48.73031" lon="1.74668">
        <ele>156</ele>
        <time>2010-05-14T08:52:44Z</time>
      </trkpt>
      <trkpt lat="48.7303" lon="1.74666">
        <ele>156</ele>
        <time>2010-05-14T08:52:45Z</time>
      </trkpt>
      <trkpt lat="48.73029" lon="1.74663">
        <ele>156</ele>
        <time>2010-05-14T08:52:47Z</time>
      </trkpt>
      <trkpt lat="48.73028" lon="1.74661">
        <ele>156</ele>
        <time>2010-05-14T08:52:48Z</time>
      </trkpt>
      <trkpt lat="48.73027" lon="1.74659">
        <ele>156</ele>
        <time>2010-05-14T08:52:49Z</time>
      </trkpt>
      <trkpt lat="48.73025" lon="1.74657">
        <ele>156</ele>
        <time>2010-05-14T08:52:50Z</time>
      </trkpt>
      <trkpt lat="48.73023" lon="1.74655">
        <ele>156</ele>
        <time>2010-05-14T08:52:51Z</time>
      </trkpt>
      <trkpt lat="48.73021" lon="1.74653">
        <ele>156</ele>
        <time>2010-05-14T08:52:52Z</time>
      </trkpt>
      <trkpt lat="48.73019" lon="1.7465">
        <ele>156</ele>
        <time>2010-05-14T08:52:53Z</time>
      </trkpt>
      <trkpt lat="48.73018" lon="1.74648">
        <ele>156</ele>
        <time>2010-05-14T08:52:54Z</time>
      </trkpt>
      <trkpt lat="48.73017" lon="1.74646">
        <ele>155</ele>
        <time>2010-05-14T08:52:55Z</time>
      </trkpt>
      <trkpt lat="48.73016" lon="1.74645">
        <ele>155</ele>
        <time>2010-05-14T08:52:56Z</time>
      </trkpt>
      <trkpt lat="48.73015" lon="1.74642">
        <ele>154</ele>
        <time>2010-05-14T08:52:57Z</time>
      </trkpt>
      <trkpt lat="48.73014" lon="1.74641">
        <ele>154</ele>
        <time>2010-05-14T08:52:58Z</time>
      </trkpt>
      <trkpt lat="48.73013" lon="1.74638">
        <ele>153</ele>
        <time>2010-05-14T08:53:00Z</time>
      </trkpt>
      <trkpt lat="48.73011" lon="1.74637">
        <ele>153</ele>
        <time>2010-05-14T08:53:01Z</time>
      </trkpt>
      <trkpt lat="48.7301" lon="1.74634">
        <ele>152</ele>
        <time>2010-05-14T08:53:03Z</time>
      </trkpt>
      <trkpt lat="48.73009" lon="1.74632">
        <ele>152</ele>
        <time>2010-05-14T08:53:04Z</time>
      </trkpt>
      <trkpt lat="48.73007" lon="1.74629">
        <ele>152</ele>
        <time>2010-05-14T08:53:06Z</time>
      </trkpt>
      <trkpt lat="48.73005" lon="1.74628">
        <ele>151</ele>
        <time>2010-05-14T08:53:08Z</time>
      </trkpt>
      <trkpt lat="48.73004" lon="1.74627">
        <ele>150</ele>
        <time>2010-05-14T08:53:09Z</time>
      </trkpt>
      <trkpt lat="48.73004" lon="1.74623">
        <ele>150</ele>
        <time>2010-05-14T08:53:10Z</time>
      </trkpt>
      <trkpt lat="48.73002" lon="1.74621">
        <ele>150</ele>
        <time>2010-05-14T08:53:12Z</time>
      </trkpt>
      <trkpt lat="48.73001" lon="1.74618">
        <ele>150</ele>
        <time>2010-05-14T08:53:13Z</time>
      </trkpt>
      <trkpt lat="48.73001" lon="1.74616">
        <ele>150</ele>
        <time>2010-05-14T08:53:14Z</time>
      </trkpt>
      <trkpt lat="48.73" lon="1.74614">
        <ele>150</ele>
        <time>2010-05-14T08:53:15Z</time>
      </trkpt>
      <trkpt lat="48.72999" lon="1.74612">
        <ele>150</ele>
        <time>2010-05-14T08:53:16Z</time>
      </trkpt>
      <trkpt lat="48.72997" lon="1.74609">
        <ele>150</ele>
        <time>2010-05-14T08:53:18Z</time>
      </trkpt>
      <trkpt lat="48.72995" lon="1.74608">
        <ele>150</ele>
        <time>2010-05-14T08:53:19Z</time>
      </trkpt>
      <trkpt lat="48.72994" lon="1.74607">
        <ele>150</ele>
        <time>2010-05-14T08:53:20Z</time>
      </trkpt>
      <trkpt lat="48.72993" lon="1.74605">
        <ele>150</ele>
        <time>2010-05-14T08:53:22Z</time>
      </trkpt>
      <trkpt lat="48.72991" lon="1.74601">
        <ele>150</ele>
        <time>2010-05-14T08:53:24Z</time>
      </trkpt>
      <trkpt lat="48.72989" lon="1.746">
        <ele>150</ele>
        <time>2010-05-14T08:53:25Z</time>
      </trkpt>
      <trkpt lat="48.72988" lon="1.74599">
        <ele>150</ele>
        <time>2010-05-14T08:53:27Z</time>
      </trkpt>
      <trkpt lat="48.72986" lon="1.74598">
        <ele>150</ele>
        <time>2010-05-14T08:53:28Z</time>
      </trkpt>
      <trkpt lat="48.72984" lon="1.74597">
        <ele>150</ele>
        <time>2010-05-14T08:53:29Z</time>
      </trkpt>
      <trkpt lat="48.72983" lon="1.74596">
        <ele>150</ele>
        <time>2010-05-14T08:53:30Z</time>
      </trkpt>
      <trkpt lat="48.72982" lon="1.74594">
        <ele>150</ele>
        <time>2010-05-14T08:53:31Z</time>
      </trkpt>
      <trkpt lat="48.7298" lon="1.74592">
        <ele>150</ele>
        <time>2010-05-14T08:53:32Z</time>
      </trkpt>
      <trkpt lat="48.72979" lon="1.7459">
        <ele>150</ele>
        <time>2010-05-14T08:53:33Z</time>
      </trkpt>
      <trkpt lat="48.72978" lon="1.74587">
        <ele>149</ele>
        <time>2010-05-14T08:53:34Z</time>
      </trkpt>
      <trkpt lat="48.72977" lon="1.74584">
        <ele>148</ele>
        <time>2010-05-14T08:53:36Z</time>
      </trkpt>
      <trkpt lat="48.72976" lon="1.74582">
        <ele>148</ele>
        <time>2010-05-14T08:53:37Z</time>
      </trkpt>
      <trkpt lat="48.72976" lon="1.7458">
        <ele>148</ele>
        <time>2010-05-14T08:53:38Z</time>
      </trkpt>
      <trkpt lat="48.72976" lon="1.74575">
        <ele>148</ele>
        <time>2010-05-14T08:53:39Z</time>
      </trkpt>
      <trkpt lat="48.72976" lon="1.74573">
        <ele>148</ele>
        <time>2010-05-14T08:53:40Z</time>
      </trkpt>
      <trkpt lat="48.72974" lon="1.74571">
        <ele>148</ele>
        <time>2010-05-14T08:53:41Z</time>
      </trkpt>
      <trkpt lat="48.72974" lon="1.74569">
        <ele>148</ele>
        <time>2010-05-14T08:53:42Z</time>
      </trkpt>
      <trkpt lat="48.72973" lon="1.74566">
        <ele>148</ele>
        <time>2010-05-14T08:53:43Z</time>
      </trkpt>
      <trkpt lat="48.72973" lon="1.74564">
        <ele>148</ele>
        <time>2010-05-14T08:53:44Z</time>
      </trkpt>
      <trkpt lat="48.72973" lon="1.74562">
        <ele>148</ele>
        <time>2010-05-14T08:53:45Z</time>
      </trkpt>
      <trkpt lat="48.72972" lon="1.74559">
        <ele>147</ele>
        <time>2010-05-14T08:53:46Z</time>
      </trkpt>
      <trkpt lat="48.72972" lon="1.74555">
        <ele>147</ele>
        <time>2010-05-14T08:53:47Z</time>
      </trkpt>
      <trkpt lat="48.72971" lon="1.74553">
        <ele>147</ele>
        <time>2010-05-14T08:53:48Z</time>
      </trkpt>
      <trkpt lat="48.72971" lon="1.7455">
        <ele>147</ele>
        <time>2010-05-14T08:53:49Z</time>
      </trkpt>
      <trkpt lat="48.72971" lon="1.74548">
        <ele>147</ele>
        <time>2010-05-14T08:53:50Z</time>
      </trkpt>
      <trkpt lat="48.7297" lon="1.74546">
        <ele>147</ele>
        <time>2010-05-14T08:53:51Z</time>
      </trkpt>
      <trkpt lat="48.7297" lon="1.74543">
        <ele>147</ele>
        <time>2010-05-14T08:53:52Z</time>
      </trkpt>
      <trkpt lat="48.7297" lon="1.74541">
        <ele>147</ele>
        <time>2010-05-14T08:53:53Z</time>
      </trkpt>
      <trkpt lat="48.7297" lon="1.74539">
        <ele>147</ele>
        <time>2010-05-14T08:53:54Z</time>
      </trkpt>
      <trkpt lat="48.72969" lon="1.74537">
        <ele>147</ele>
        <time>2010-05-14T08:53:55Z</time>
      </trkpt>
      <trkpt lat="48.72969" lon="1.74535">
        <ele>147</ele>
        <time>2010-05-14T08:53:56Z</time>
      </trkpt>
      <trkpt lat="48.7297" lon="1.74534">
        <ele>147</ele>
        <time>2010-05-14T08:53:57Z</time>
      </trkpt>
      <trkpt lat="48.72971" lon="1.74531">
        <ele>147</ele>
        <time>2010-05-14T08:53:59Z</time>
      </trkpt>
      <trkpt lat="48.72972" lon="1.74528">
        <ele>147</ele>
        <time>2010-05-14T08:54:01Z</time>
      </trkpt>
      <trkpt lat="48.72973" lon="1.74527">
        <ele>147</ele>
        <time>2010-05-14T08:54:02Z</time>
      </trkpt>
      <trkpt lat="48.72976" lon="1.74526">
        <ele>147</ele>
        <time>2010-05-14T08:54:04Z</time>
      </trkpt>
      <trkpt lat="48.72977" lon="1.74522">
        <ele>147</ele>
        <time>2010-05-14T08:54:06Z</time>
      </trkpt>
      <trkpt lat="48.72978" lon="1.7452">
        <ele>147</ele>
        <time>2010-05-14T08:54:08Z</time>
      </trkpt>
      <trkpt lat="48.7298" lon="1.74517">
        <ele>147</ele>
        <time>2010-05-14T08:54:10Z</time>
      </trkpt>
      <trkpt lat="48.72981" lon="1.74515">
        <ele>147</ele>
        <time>2010-05-14T08:54:11Z</time>
      </trkpt>
      <trkpt lat="48.72982" lon="1.74513">
        <ele>147</ele>
        <time>2010-05-14T08:54:12Z</time>
      </trkpt>
      <trkpt lat="48.72983" lon="1.74513">
        <ele>146</ele>
        <time>2010-05-14T08:54:13Z</time>
      </trkpt>
      <trkpt lat="48.72985" lon="1.74511">
        <ele>146</ele>
        <time>2010-05-14T08:54:14Z</time>
      </trkpt>
      <trkpt lat="48.72985" lon="1.74509">
        <ele>146</ele>
        <time>2010-05-14T08:54:15Z</time>
      </trkpt>
      <trkpt lat="48.72986" lon="1.74507">
        <ele>146</ele>
        <time>2010-05-14T08:54:16Z</time>
      </trkpt>
      <trkpt lat="48.72987" lon="1.74505">
        <ele>146</ele>
        <time>2010-05-14T08:54:17Z</time>
      </trkpt>
      <trkpt lat="48.72988" lon="1.74503">
        <ele>146</ele>
        <time>2010-05-14T08:54:18Z</time>
      </trkpt>
      <trkpt lat="48.72989" lon="1.74502">
        <ele>145</ele>
        <time>2010-05-14T08:54:19Z</time>
      </trkpt>
      <trkpt lat="48.72991" lon="1.74499">
        <ele>145</ele>
        <time>2010-05-14T08:54:21Z</time>
      </trkpt>
      <trkpt lat="48.72993" lon="1.74497">
        <ele>144</ele>
        <time>2010-05-14T08:54:23Z</time>
      </trkpt>
      <trkpt lat="48.72994" lon="1.74496">
        <ele>144</ele>
        <time>2010-05-14T08:54:24Z</time>
      </trkpt>
      <trkpt lat="48.72997" lon="1.74493">
        <ele>143</ele>
        <time>2010-05-14T08:54:26Z</time>
      </trkpt>
      <trkpt lat="48.72998" lon="1.74492">
        <ele>142</ele>
        <time>2010-05-14T08:54:27Z</time>
      </trkpt>
      <trkpt lat="48.72999" lon="1.7449">
        <ele>141</ele>
        <time>2010-05-14T08:54:29Z</time>
      </trkpt>
      <trkpt lat="48.73" lon="1.74489">
        <ele>141</ele>
        <time>2010-05-14T08:54:30Z</time>
      </trkpt>
      <trkpt lat="48.73002" lon="1.74488">
        <ele>140</ele>
        <time>2010-05-14T08:54:31Z</time>
      </trkpt>
      <trkpt lat="48.73003" lon="1.74486">
        <ele>140</ele>
        <time>2010-05-14T08:54:32Z</time>
      </trkpt>
      <trkpt lat="48.73007" lon="1.74486">
        <ele>140</ele>
        <time>2010-05-14T08:54:33Z</time>
      </trkpt>
      <trkpt lat="48.73008" lon="1.74485">
        <ele>140</ele>
        <time>2010-05-14T08:54:34Z</time>
      </trkpt>
      <trkpt lat="48.7301" lon="1.74483">
        <ele>140</ele>
        <time>2010-05-14T08:54:35Z</time>
      </trkpt>
      <trkpt lat="48.73012" lon="1.74482">
        <ele>140</ele>
        <time>2010-05-14T08:54:36Z</time>
      </trkpt>
      <trkpt lat="48.73014" lon="1.74481">
        <ele>140</ele>
        <time>2010-05-14T08:54:37Z</time>
      </trkpt>
      <trkpt lat="48.73016" lon="1.7448">
        <ele>140</ele>
        <time>2010-05-14T08:54:38Z</time>
      </trkpt>
      <trkpt lat="48.73018" lon="1.74478">
        <ele>140</ele>
        <time>2010-05-14T08:54:40Z</time>
      </trkpt>
      <trkpt lat="48.7302" lon="1.74476">
        <ele>140</ele>
        <time>2010-05-14T08:54:42Z</time>
      </trkpt>
      <trkpt lat="48.73022" lon="1.74476">
        <ele>140</ele>
        <time>2010-05-14T08:54:44Z</time>
      </trkpt>
      <trkpt lat="48.73024" lon="1.74475">
        <ele>140</ele>
        <time>2010-05-14T08:54:45Z</time>
      </trkpt>
      <trkpt lat="48.73026" lon="1.74474">
        <ele>140</ele>
        <time>2010-05-14T08:54:46Z</time>
      </trkpt>
      <trkpt lat="48.73027" lon="1.74474">
        <ele>140</ele>
        <time>2010-05-14T08:54:47Z</time>
      </trkpt>
      <trkpt lat="48.73029" lon="1.74473">
        <ele>140</ele>
        <time>2010-05-14T08:54:48Z</time>
      </trkpt>
      <trkpt lat="48.7303" lon="1.74472">
        <ele>139</ele>
        <time>2010-05-14T08:54:49Z</time>
      </trkpt>
      <trkpt lat="48.73031" lon="1.7447">
        <ele>139</ele>
        <time>2010-05-14T08:54:51Z</time>
      </trkpt>
      <trkpt lat="48.73034" lon="1.7447">
        <ele>139</ele>
        <time>2010-05-14T08:54:52Z</time>
      </trkpt>
      <trkpt lat="48.73036" lon="1.74468">
        <ele>139</ele>
        <time>2010-05-14T08:54:53Z</time>
      </trkpt>
      <trkpt lat="48.73038" lon="1.74467">
        <ele>139</ele>
        <time>2010-05-14T08:54:54Z</time>
      </trkpt>
      <trkpt lat="48.73042" lon="1.74466">
        <ele>139</ele>
        <time>2010-05-14T08:54:55Z</time>
      </trkpt>
      <trkpt lat="48.73043" lon="1.74464">
        <ele>139</ele>
        <time>2010-05-14T08:54:56Z</time>
      </trkpt>
      <trkpt lat="48.73045" lon="1.74459">
        <ele>139</ele>
        <time>2010-05-14T08:54:57Z</time>
      </trkpt>
      <trkpt lat="48.73047" lon="1.74455">
        <ele>139</ele>
        <time>2010-05-14T08:54:58Z</time>
      </trkpt>
      <trkpt lat="48.73047" lon="1.74451">
        <ele>140</ele>
        <time>2010-05-14T08:54:59Z</time>
      </trkpt>
      <trkpt lat="48.73047" lon="1.74448">
        <ele>140</ele>
        <time>2010-05-14T08:55:00Z</time>
      </trkpt>
      <trkpt lat="48.73047" lon="1.74444">
        <ele>141</ele>
        <time>2010-05-14T08:55:01Z</time>
      </trkpt>
      <trkpt lat="48.73046" lon="1.74438">
        <ele>141</ele>
        <time>2010-05-14T08:55:02Z</time>
      </trkpt>
      <trkpt lat="48.73045" lon="1.74434">
        <ele>141</ele>
        <time>2010-05-14T08:55:03Z</time>
      </trkpt>
      <trkpt lat="48.73044" lon="1.74434">
        <ele>141</ele>
        <time>2010-05-14T08:55:04Z</time>
      </trkpt>
      <trkpt lat="48.73042" lon="1.7443">
        <ele>141</ele>
        <time>2010-05-14T08:55:05Z</time>
      </trkpt>
      <trkpt lat="48.73041" lon="1.74428">
        <ele>141</ele>
        <time>2010-05-14T08:55:06Z</time>
      </trkpt>
      <trkpt lat="48.73039" lon="1.74425">
        <ele>141</ele>
        <time>2010-05-14T08:55:08Z</time>
      </trkpt>
      <trkpt lat="48.73037" lon="1.74423">
        <ele>141</ele>
        <time>2010-05-14T08:55:10Z</time>
      </trkpt>
      <trkpt lat="48.73037" lon="1.74421">
        <ele>141</ele>
        <time>2010-05-14T08:55:11Z</time>
      </trkpt>
      <trkpt lat="48.73036" lon="1.74419">
        <ele>141</ele>
        <time>2010-05-14T08:55:12Z</time>
      </trkpt>
      <trkpt lat="48.73036" lon="1.74417">
        <ele>141</ele>
        <time>2010-05-14T08:55:13Z</time>
      </trkpt>
      <trkpt lat="48.73035" lon="1.74415">
        <ele>141</ele>
        <time>2010-05-14T08:55:14Z</time>
      </trkpt>
      <trkpt lat="48.73036" lon="1.74411">
        <ele>141</ele>
        <time>2010-05-14T08:55:16Z</time>
      </trkpt>
      <trkpt lat="48.73036" lon="1.74407">
        <ele>141</ele>
        <time>2010-05-14T08:55:17Z</time>
      </trkpt>
      <trkpt lat="48.73036" lon="1.74405">
        <ele>141</ele>
        <time>2010-05-14T08:55:18Z</time>
      </trkpt>
      <trkpt lat="48.73035" lon="1.74398">
        <ele>141</ele>
        <time>2010-05-14T08:55:22Z</time>
      </trkpt>
      <trkpt lat="48.73033" lon="1.74395">
        <ele>141</ele>
        <time>2010-05-14T08:55:23Z</time>
      </trkpt>
      <trkpt lat="48.73033" lon="1.74391">
        <ele>141</ele>
        <time>2010-05-14T08:55:24Z</time>
      </trkpt>
      <trkpt lat="48.73033" lon="1.74388">
        <ele>141</ele>
        <time>2010-05-14T08:55:25Z</time>
      </trkpt>
      <trkpt lat="48.73033" lon="1.74384">
        <ele>141</ele>
        <time>2010-05-14T08:55:26Z</time>
      </trkpt>
      <trkpt lat="48.73033" lon="1.74382">
        <ele>141</ele>
        <time>2010-05-14T08:55:27Z</time>
      </trkpt>
      <trkpt lat="48.73033" lon="1.74378">
        <ele>141</ele>
        <time>2010-05-14T08:55:28Z</time>
      </trkpt>
      <trkpt lat="48.73032" lon="1.74375">
        <ele>141</ele>
        <time>2010-05-14T08:55:30Z</time>
      </trkpt>
      <trkpt lat="48.73031" lon="1.74372">
        <ele>141</ele>
        <time>2010-05-14T08:55:31Z</time>
      </trkpt>
      <trkpt lat="48.73031" lon="1.74368">
        <ele>141</ele>
        <time>2010-05-14T08:55:33Z</time>
      </trkpt>
      <trkpt lat="48.73031" lon="1.74367">
        <ele>141</ele>
        <time>2010-05-14T08:55:34Z</time>
      </trkpt>
      <trkpt lat="48.7303" lon="1.74364">
        <ele>141</ele>
        <time>2010-05-14T08:55:35Z</time>
      </trkpt>
      <trkpt lat="48.73031" lon="1.74361">
        <ele>141</ele>
        <time>2010-05-14T08:55:36Z</time>
      </trkpt>
      <trkpt lat="48.73031" lon="1.74358">
        <ele>141</ele>
        <time>2010-05-14T08:55:37Z</time>
      </trkpt>
      <trkpt lat="48.73032" lon="1.74355">
        <ele>141</ele>
        <time>2010-05-14T08:55:38Z</time>
      </trkpt>
      <trkpt lat="48.73031" lon="1.74353">
        <ele>141</ele>
        <time>2010-05-14T08:55:39Z</time>
      </trkpt>
      <trkpt lat="48.73031" lon="1.7435">
        <ele>141</ele>
        <time>2010-05-14T08:55:40Z</time>
      </trkpt>
      <trkpt lat="48.73032" lon="1.74348">
        <ele>141</ele>
        <time>2010-05-14T08:55:41Z</time>
      </trkpt>
      <trkpt lat="48.73032" lon="1.74345">
        <ele>141</ele>
        <time>2010-05-14T08:55:42Z</time>
      </trkpt>
      <trkpt lat="48.73033" lon="1.74343">
        <ele>141</ele>
        <time>2010-05-14T08:55:43Z</time>
      </trkpt>
      <trkpt lat="48.73033" lon="1.74341">
        <ele>141</ele>
        <time>2010-05-14T08:55:44Z</time>
      </trkpt>
      <trkpt lat="48.73032" lon="1.74338">
        <ele>141</ele>
        <time>2010-05-14T08:55:45Z</time>
      </trkpt>
      <trkpt lat="48.73032" lon="1.74335">
        <ele>141</ele>
        <time>2010-05-14T08:55:46Z</time>
      </trkpt>
      <trkpt lat="48.73032" lon="1.74332">
        <ele>141</ele>
        <time>2010-05-14T08:55:47Z</time>
      </trkpt>
      <trkpt lat="48.73033" lon="1.74328">
        <ele>142</ele>
        <time>2010-05-14T08:55:48Z</time>
      </trkpt>
      <trkpt lat="48.73032" lon="1.74326">
        <ele>143</ele>
        <time>2010-05-14T08:55:49Z</time>
      </trkpt>
      <trkpt lat="48.73032" lon="1.74323">
        <ele>144</ele>
        <time>2010-05-14T08:55:50Z</time>
      </trkpt>
      <trkpt lat="48.73033" lon="1.74321">
        <ele>145</ele>
        <time>2010-05-14T08:55:51Z</time>
      </trkpt>
      <trkpt lat="48.73034" lon="1.74318">
        <ele>146</ele>
        <time>2010-05-14T08:55:52Z</time>
      </trkpt>
      <trkpt lat="48.73034" lon="1.74316">
        <ele>147</ele>
        <time>2010-05-14T08:55:53Z</time>
      </trkpt>
      <trkpt lat="48.73033" lon="1.74313">
        <ele>148</ele>
        <time>2010-05-14T08:55:54Z</time>
      </trkpt>
      <trkpt lat="48.73033" lon="1.74311">
        <ele>149</ele>
        <time>2010-05-14T08:55:56Z</time>
      </trkpt>
      <trkpt lat="48.73031" lon="1.74309">
        <ele>149</ele>
        <time>2010-05-14T08:55:57Z</time>
      </trkpt>
      <trkpt lat="48.73029" lon="1.74307">
        <ele>149</ele>
        <time>2010-05-14T08:55:58Z</time>
      </trkpt>
      <trkpt lat="48.73027" lon="1.74305">
        <ele>149</ele>
        <time>2010-05-14T08:55:59Z</time>
      </trkpt>
      <trkpt lat="48.73026" lon="1.74304">
        <ele>149</ele>
        <time>2010-05-14T08:56:00Z</time>
      </trkpt>
      <trkpt lat="48.73025" lon="1.74301">
        <ele>149</ele>
        <time>2010-05-14T08:56:02Z</time>
      </trkpt>
      <trkpt lat="48.73024" lon="1.74299">
        <ele>148</ele>
        <time>2010-05-14T08:56:03Z</time>
      </trkpt>
      <trkpt lat="48.73024" lon="1.74297">
        <ele>147</ele>
        <time>2010-05-14T08:56:04Z</time>
      </trkpt>
      <trkpt lat="48.73023" lon="1.74295">
        <ele>146</ele>
        <time>2010-05-14T08:56:05Z</time>
      </trkpt>
      <trkpt lat="48.73023" lon="1.74293">
        <ele>146</ele>
        <time>2010-05-14T08:56:06Z</time>
      </trkpt>
      <trkpt lat="48.73023" lon="1.74291">
        <ele>145</ele>
        <time>2010-05-14T08:56:07Z</time>
      </trkpt>
      <trkpt lat="48.73022" lon="1.74289">
        <ele>144</ele>
        <time>2010-05-14T08:56:08Z</time>
      </trkpt>
      <trkpt lat="48.73021" lon="1.74286">
        <ele>144</ele>
        <time>2010-05-14T08:56:09Z</time>
      </trkpt>
      <trkpt lat="48.73021" lon="1.74284">
        <ele>143</ele>
        <time>2010-05-14T08:56:10Z</time>
      </trkpt>
      <trkpt lat="48.7302" lon="1.74283">
        <ele>143</ele>
        <time>2010-05-14T08:56:11Z</time>
      </trkpt>
      <trkpt lat="48.7302" lon="1.7428">
        <ele>142</ele>
        <time>2010-05-14T08:56:12Z</time>
      </trkpt>
      <trkpt lat="48.73019" lon="1.74276">
        <ele>142</ele>
        <time>2010-05-14T08:56:13Z</time>
      </trkpt>
      <trkpt lat="48.7302" lon="1.74273">
        <ele>141</ele>
        <time>2010-05-14T08:56:14Z</time>
      </trkpt>
      <trkpt lat="48.7302" lon="1.74271">
        <ele>141</ele>
        <time>2010-05-14T08:56:15Z</time>
      </trkpt>
      <trkpt lat="48.7302" lon="1.74269">
        <ele>141</ele>
        <time>2010-05-14T08:56:16Z</time>
      </trkpt>
      <trkpt lat="48.7302" lon="1.74267">
        <ele>141</ele>
        <time>2010-05-14T08:56:17Z</time>
      </trkpt>
      <trkpt lat="48.73019" lon="1.74265">
        <ele>141</ele>
        <time>2010-05-14T08:56:18Z</time>
      </trkpt>
      <trkpt lat="48.73019" lon="1.74263">
        <ele>141</ele>
        <time>2010-05-14T08:56:19Z</time>
      </trkpt>
      <trkpt lat="48.73019" lon="1.74261">
        <ele>141</ele>
        <time>2010-05-14T08:56:21Z</time>
      </trkpt>
      <trkpt lat="48.73019" lon="1.74258">
        <ele>141</ele>
        <time>2010-05-14T08:56:22Z</time>
      </trkpt>
      <trkpt lat="48.73019" lon="1.74256">
        <ele>141</ele>
        <time>2010-05-14T08:56:23Z</time>
      </trkpt>
      <trkpt lat="48.73018" lon="1.74253">
        <ele>141</ele>
        <time>2010-05-14T08:56:24Z</time>
      </trkpt>
      <trkpt lat="48.73018" lon="1.7425">
        <ele>141</ele>
        <time>2010-05-14T08:56:25Z</time>
      </trkpt>
      <trkpt lat="48.73017" lon="1.74246">
        <ele>141</ele>
        <time>2010-05-14T08:56:26Z</time>
      </trkpt>
      <trkpt lat="48.73017" lon="1.74243">
        <ele>141</ele>
        <time>2010-05-14T08:56:27Z</time>
      </trkpt>
      <trkpt lat="48.73016" lon="1.74239">
        <ele>141</ele>
        <time>2010-05-14T08:56:28Z</time>
      </trkpt>
      <trkpt lat="48.73016" lon="1.74236">
        <ele>141</ele>
        <time>2010-05-14T08:56:29Z</time>
      </trkpt>
      <trkpt lat="48.73016" lon="1.74235">
        <ele>141</ele>
        <time>2010-05-14T08:56:30Z</time>
      </trkpt>
      <trkpt lat="48.73016" lon="1.74232">
        <ele>141</ele>
        <time>2010-05-14T08:56:31Z</time>
      </trkpt>
      <trkpt lat="48.73015" lon="1.74229">
        <ele>141</ele>
        <time>2010-05-14T08:56:33Z</time>
      </trkpt>
      <trkpt lat="48.73015" lon="1.74226">
        <ele>141</ele>
        <time>2010-05-14T08:56:35Z</time>
      </trkpt>
      <trkpt lat="48.73015" lon="1.74224">
        <ele>141</ele>
        <time>2010-05-14T08:56:36Z</time>
      </trkpt>
      <trkpt lat="48.73015" lon="1.74222">
        <ele>141</ele>
        <time>2010-05-14T08:56:37Z</time>
      </trkpt>
      <trkpt lat="48.73014" lon="1.7422">
        <ele>141</ele>
        <time>2010-05-14T08:56:38Z</time>
      </trkpt>
      <trkpt lat="48.73013" lon="1.74218">
        <ele>141</ele>
        <time>2010-05-14T08:56:39Z</time>
      </trkpt>
      <trkpt lat="48.73013" lon="1.74216">
        <ele>141</ele>
        <time>2010-05-14T08:56:40Z</time>
      </trkpt>
      <trkpt lat="48.73013" lon="1.74213">
        <ele>141</ele>
        <time>2010-05-14T08:56:41Z</time>
      </trkpt>
      <trkpt lat="48.73013" lon="1.74211">
        <ele>141</ele>
        <time>2010-05-14T08:56:42Z</time>
      </trkpt>
      <trkpt lat="48.73012" lon="1.74209">
        <ele>141</ele>
        <time>2010-05-14T08:56:43Z</time>
      </trkpt>
      <trkpt lat="48.73011" lon="1.74205">
        <ele>141</ele>
        <time>2010-05-14T08:56:45Z</time>
      </trkpt>
      <trkpt lat="48.73011" lon="1.74204">
        <ele>141</ele>
        <time>2010-05-14T08:56:46Z</time>
      </trkpt>
      <trkpt lat="48.7301" lon="1.74201">
        <ele>141</ele>
        <time>2010-05-14T08:56:47Z</time>
      </trkpt>
      <trkpt lat="48.7301" lon="1.74199">
        <ele>141</ele>
        <time>2010-05-14T08:56:48Z</time>
      </trkpt>
      <trkpt lat="48.7301" lon="1.74196">
        <ele>141</ele>
        <time>2010-05-14T08:56:50Z</time>
      </trkpt>
      <trkpt lat="48.7301" lon="1.74191">
        <ele>141</ele>
        <time>2010-05-14T08:56:51Z</time>
      </trkpt>
      <trkpt lat="48.7301" lon="1.74189">
        <ele>141</ele>
        <time>2010-05-14T08:56:52Z</time>
      </trkpt>
      <trkpt lat="48.73009" lon="1.74187">
        <ele>141</ele>
        <time>2010-05-14T08:56:53Z</time>
      </trkpt>
      <trkpt lat="48.73008" lon="1.74185">
        <ele>141</ele>
        <time>2010-05-14T08:56:54Z</time>
      </trkpt>
      <trkpt lat="48.73008" lon="1.74182">
        <ele>141</ele>
        <time>2010-05-14T08:56:55Z</time>
      </trkpt>
      <trkpt lat="48.73008" lon="1.74179">
        <ele>141</ele>
        <time>2010-05-14T08:56:56Z</time>
      </trkpt>
      <trkpt lat="48.73008" lon="1.74176">
        <ele>141</ele>
        <time>2010-05-14T08:56:57Z</time>
      </trkpt>
      <trkpt lat="48.73007" lon="1.74174">
        <ele>141</ele>
        <time>2010-05-14T08:56:58Z</time>
      </trkpt>
      <trkpt lat="48.73006" lon="1.74172">
        <ele>141</ele>
        <time>2010-05-14T08:56:59Z</time>
      </trkpt>
      <trkpt lat="48.73006" lon="1.7417">
        <ele>141</ele>
        <time>2010-05-14T08:57:00Z</time>
      </trkpt>
      <trkpt lat="48.73006" lon="1.74167">
        <ele>141</ele>
        <time>2010-05-14T08:57:01Z</time>
      </trkpt>
      <trkpt lat="48.73006" lon="1.74166">
        <ele>141</ele>
        <time>2010-05-14T08:57:02Z</time>
      </trkpt>
      <trkpt lat="48.73007" lon="1.74163">
        <ele>141</ele>
        <time>2010-05-14T08:57:03Z</time>
      </trkpt>
      <trkpt lat="48.73006" lon="1.7416">
        <ele>141</ele>
        <time>2010-05-14T08:57:05Z</time>
      </trkpt>
      <trkpt lat="48.73007" lon="1.74157">
        <ele>141</ele>
        <time>2010-05-14T08:57:07Z</time>
      </trkpt>
      <trkpt lat="48.73007" lon="1.74152">
        <ele>141</ele>
        <time>2010-05-14T08:57:09Z</time>
      </trkpt>
      <trkpt lat="48.73007" lon="1.7415">
        <ele>141</ele>
        <time>2010-05-14T08:57:10Z</time>
      </trkpt>
      <trkpt lat="48.73007" lon="1.74148">
        <ele>141</ele>
        <time>2010-05-14T08:57:11Z</time>
      </trkpt>
      <trkpt lat="48.73006" lon="1.74146">
        <ele>141</ele>
        <time>2010-05-14T08:57:12Z</time>
      </trkpt>
      <trkpt lat="48.73006" lon="1.74144">
        <ele>141</ele>
        <time>2010-05-14T08:57:13Z</time>
      </trkpt>
      <trkpt lat="48.73007" lon="1.7414">
        <ele>141</ele>
        <time>2010-05-14T08:57:14Z</time>
      </trkpt>
      <trkpt lat="48.73007" lon="1.74138">
        <ele>141</ele>
        <time>2010-05-14T08:57:15Z</time>
      </trkpt>
      <trkpt lat="48.73006" lon="1.74136">
        <ele>141</ele>
        <time>2010-05-14T08:57:16Z</time>
      </trkpt>
      <trkpt lat="48.73006" lon="1.74133">
        <ele>141</ele>
        <time>2010-05-14T08:57:17Z</time>
      </trkpt>
      <trkpt lat="48.73005" lon="1.74131">
        <ele>141</ele>
        <time>2010-05-14T08:57:18Z</time>
      </trkpt>
      <trkpt lat="48.73006" lon="1.74129">
        <ele>141</ele>
        <time>2010-05-14T08:57:19Z</time>
      </trkpt>
      <trkpt lat="48.73005" lon="1.74126">
        <ele>141</ele>
        <time>2010-05-14T08:57:20Z</time>
      </trkpt>
      <trkpt lat="48.73005" lon="1.74121">
        <ele>141</ele>
        <time>2010-05-14T08:57:21Z</time>
      </trkpt>
      <trkpt lat="48.73005" lon="1.74117">
        <ele>141</ele>
        <time>2010-05-14T08:57:22Z</time>
      </trkpt>
      <trkpt lat="48.73005" lon="1.74113">
        <ele>142</ele>
        <time>2010-05-14T08:57:23Z</time>
      </trkpt>
      <trkpt lat="48.73005" lon="1.74109">
        <ele>143</ele>
        <time>2010-05-14T08:57:24Z</time>
      </trkpt>
      <trkpt lat="48.73005" lon="1.74105">
        <ele>144</ele>
        <time>2010-05-14T08:57:25Z</time>
      </trkpt>
      <trkpt lat="48.73004" lon="1.74102">
        <ele>145</ele>
        <time>2010-05-14T08:57:26Z</time>
      </trkpt>
      <trkpt lat="48.73004" lon="1.74099">
        <ele>146</ele>
        <time>2010-05-14T08:57:27Z</time>
      </trkpt>
      <trkpt lat="48.73003" lon="1.74096">
        <ele>146</ele>
        <time>2010-05-14T08:57:28Z</time>
      </trkpt>
      <trkpt lat="48.73003" lon="1.74094">
        <ele>147</ele>
        <time>2010-05-14T08:57:29Z</time>
      </trkpt>
      <trkpt lat="48.73004" lon="1.74092">
        <ele>147</ele>
        <time>2010-05-14T08:57:30Z</time>
      </trkpt>
      <trkpt lat="48.73005" lon="1.7409">
        <ele>147</ele>
        <time>2010-05-14T08:57:31Z</time>
      </trkpt>
      <trkpt lat="48.73005" lon="1.74086">
        <ele>147</ele>
        <time>2010-05-14T08:57:33Z</time>
      </trkpt>
      <trkpt lat="48.73005" lon="1.74083">
        <ele>147</ele>
        <time>2010-05-14T08:57:34Z</time>
      </trkpt>
      <trkpt lat="48.73005" lon="1.74081">
        <ele>147</ele>
        <time>2010-05-14T08:57:35Z</time>
      </trkpt>
      <trkpt lat="48.73005" lon="1.74078">
        <ele>147</ele>
        <time>2010-05-14T08:57:36Z</time>
      </trkpt>
      <trkpt lat="48.73005" lon="1.74075">
        <ele>147</ele>
        <time>2010-05-14T08:57:37Z</time>
      </trkpt>
      <trkpt lat="48.73004" lon="1.74071">
        <ele>147</ele>
        <time>2010-05-14T08:57:38Z</time>
      </trkpt>
      <trkpt lat="48.73004" lon="1.74069">
        <ele>147</ele>
        <time>2010-05-14T08:57:39Z</time>
      </trkpt>
      <trkpt lat="48.73004" lon="1.74065">
        <ele>147</ele>
        <time>2010-05-14T08:57:40Z</time>
      </trkpt>
      <trkpt lat="48.73004" lon="1.74062">
        <ele>147</ele>
        <time>2010-05-14T08:57:41Z</time>
      </trkpt>
      <trkpt lat="48.73004" lon="1.7406">
        <ele>147</ele>
        <time>2010-05-14T08:57:42Z</time>
      </trkpt>
      <trkpt lat="48.73003" lon="1.74056">
        <ele>147</ele>
        <time>2010-05-14T08:57:43Z</time>
      </trkpt>
      <trkpt lat="48.73003" lon="1.74054">
        <ele>147</ele>
        <time>2010-05-14T08:57:44Z</time>
      </trkpt>
      <trkpt lat="48.73004" lon="1.74051">
        <ele>147</ele>
        <time>2010-05-14T08:57:45Z</time>
      </trkpt>
      <trkpt lat="48.73004" lon="1.74047">
        <ele>147</ele>
        <time>2010-05-14T08:57:46Z</time>
      </trkpt>
      <trkpt lat="48.73004" lon="1.74045">
        <ele>147</ele>
        <time>2010-05-14T08:57:47Z</time>
      </trkpt>
      <trkpt lat="48.73004" lon="1.74042">
        <ele>147</ele>
        <time>2010-05-14T08:57:48Z</time>
      </trkpt>
      <trkpt lat="48.73003" lon="1.74041">
        <ele>147</ele>
        <time>2010-05-14T08:57:49Z</time>
      </trkpt>
      <trkpt lat="48.73003" lon="1.74038">
        <ele>147</ele>
        <time>2010-05-14T08:57:50Z</time>
      </trkpt>
      <trkpt lat="48.73002" lon="1.74036">
        <ele>147</ele>
        <time>2010-05-14T08:57:51Z</time>
      </trkpt>
      <trkpt lat="48.73002" lon="1.74035">
        <ele>147</ele>
        <time>2010-05-14T08:57:52Z</time>
      </trkpt>
      <trkpt lat="48.73003" lon="1.74033">
        <ele>147</ele>
        <time>2010-05-14T08:57:53Z</time>
      </trkpt>
      <trkpt lat="48.73003" lon="1.74031">
        <ele>147</ele>
        <time>2010-05-14T08:57:54Z</time>
      </trkpt>
      <trkpt lat="48.73003" lon="1.74029">
        <ele>147</ele>
        <time>2010-05-14T08:57:55Z</time>
      </trkpt>
      <trkpt lat="48.73003" lon="1.74026">
        <ele>147</ele>
        <time>2010-05-14T08:57:56Z</time>
      </trkpt>
      <trkpt lat="48.73002" lon="1.74024">
        <ele>147</ele>
        <time>2010-05-14T08:57:57Z</time>
      </trkpt>
      <trkpt lat="48.73001" lon="1.74021">
        <ele>147</ele>
        <time>2010-05-14T08:57:58Z</time>
      </trkpt>
      <trkpt lat="48.73" lon="1.74018">
        <ele>147</ele>
        <time>2010-05-14T08:57:59Z</time>
      </trkpt>
      <trkpt lat="48.72999" lon="1.74016">
        <ele>147</ele>
        <time>2010-05-14T08:58:00Z</time>
      </trkpt>
      <trkpt lat="48.72997" lon="1.74013">
        <ele>147</ele>
        <time>2010-05-14T08:58:00Z</time>
      </trkpt>
      <trkpt lat="48.72997" lon="1.74011">
        <ele>147</ele>
        <time>2010-05-14T08:58:02Z</time>
      </trkpt>
      <trkpt lat="48.72997" lon="1.74008">
        <ele>147</ele>
        <time>2010-05-14T08:58:03Z</time>
      </trkpt>
      <trkpt lat="48.72997" lon="1.74006">
        <ele>147</ele>
        <time>2010-05-14T08:58:04Z</time>
      </trkpt>
      <trkpt lat="48.72997" lon="1.74004">
        <ele>147</ele>
        <time>2010-05-14T08:58:05Z</time>
      </trkpt>
      <trkpt lat="48.72997" lon="1.74">
        <ele>147</ele>
        <time>2010-05-14T08:58:06Z</time>
      </trkpt>
      <trkpt lat="48.72997" lon="1.73996">
        <ele>147</ele>
        <time>2010-05-14T08:58:07Z</time>
      </trkpt>
      <trkpt lat="48.72997" lon="1.73994">
        <ele>147</ele>
        <time>2010-05-14T08:58:08Z</time>
      </trkpt>
      <trkpt lat="48.72997" lon="1.7399">
        <ele>147</ele>
        <time>2010-05-14T08:58:09Z</time>
      </trkpt>
      <trkpt lat="48.72997" lon="1.73988">
        <ele>147</ele>
        <time>2010-05-14T08:58:10Z</time>
      </trkpt>
      <trkpt lat="48.72997" lon="1.73986">
        <ele>148</ele>
        <time>2010-05-14T08:58:11Z</time>
      </trkpt>
      <trkpt lat="48.72997" lon="1.73983">
        <ele>149</ele>
        <time>2010-05-14T08:58:12Z</time>
      </trkpt>
      <trkpt lat="48.72997" lon="1.7398">
        <ele>149</ele>
        <time>2010-05-14T08:58:13Z</time>
      </trkpt>
      <trkpt lat="48.72998" lon="1.73977">
        <ele>150</ele>
        <time>2010-05-14T08:58:14Z</time>
      </trkpt>
      <trkpt lat="48.72998" lon="1.73973">
        <ele>150</ele>
        <time>2010-05-14T08:58:16Z</time>
      </trkpt>
      <trkpt lat="48.72997" lon="1.7397">
        <ele>150</ele>
        <time>2010-05-14T08:58:17Z</time>
      </trkpt>
      <trkpt lat="48.72997" lon="1.73967">
        <ele>150</ele>
        <time>2010-05-14T08:58:18Z</time>
      </trkpt>
      <trkpt lat="48.72998" lon="1.73962">
        <ele>150</ele>
        <time>2010-05-14T08:58:20Z</time>
      </trkpt>
      <trkpt lat="48.72997" lon="1.73957">
        <ele>150</ele>
        <time>2010-05-14T08:58:21Z</time>
      </trkpt>
      <trkpt lat="48.72997" lon="1.73955">
        <ele>150</ele>
        <time>2010-05-14T08:58:22Z</time>
      </trkpt>
      <trkpt lat="48.72996" lon="1.73953">
        <ele>150</ele>
        <time>2010-05-14T08:58:23Z</time>
      </trkpt>
      <trkpt lat="48.72997" lon="1.73946">
        <ele>150</ele>
        <time>2010-05-14T08:58:26Z</time>
      </trkpt>
      <trkpt lat="48.72997" lon="1.73938">
        <ele>150</ele>
        <time>2010-05-14T08:58:27Z</time>
      </trkpt>
      <trkpt lat="48.72996" lon="1.73936">
        <ele>150</ele>
        <time>2010-05-14T08:58:28Z</time>
      </trkpt>
      <trkpt lat="48.72995" lon="1.73933">
        <ele>150</ele>
        <time>2010-05-14T08:58:29Z</time>
      </trkpt>
      <trkpt lat="48.72994" lon="1.7393">
        <ele>150</ele>
        <time>2010-05-14T08:58:30Z</time>
      </trkpt>
      <trkpt lat="48.72993" lon="1.73927">
        <ele>150</ele>
        <time>2010-05-14T08:58:31Z</time>
      </trkpt>
      <trkpt lat="48.72993" lon="1.73925">
        <ele>150</ele>
        <time>2010-05-14T08:58:32Z</time>
      </trkpt>
      <trkpt lat="48.72992" lon="1.73922">
        <ele>149</ele>
        <time>2010-05-14T08:58:33Z</time>
      </trkpt>
      <trkpt lat="48.7299" lon="1.73922">
        <ele>147</ele>
        <time>2010-05-14T08:58:35Z</time>
      </trkpt>
      <trkpt lat="48.72989" lon="1.73921">
        <ele>147</ele>
        <time>2010-05-14T08:58:37Z</time>
      </trkpt>
      <trkpt lat="48.72987" lon="1.7392">
        <ele>146</ele>
        <time>2010-05-14T08:58:37Z</time>
      </trkpt>
      <trkpt lat="48.72986" lon="1.73921">
        <ele>145</ele>
        <time>2010-05-14T08:58:40Z</time>
      </trkpt>
      <trkpt lat="48.72985" lon="1.7392">
        <ele>144</ele>
        <time>2010-05-14T08:58:40Z</time>
      </trkpt>
      <trkpt lat="48.72983" lon="1.73919">
        <ele>142</ele>
        <time>2010-05-14T08:58:43Z</time>
      </trkpt>
      <trkpt lat="48.72982" lon="1.73919">
        <ele>141</ele>
        <time>2010-05-14T08:58:44Z</time>
      </trkpt>
      <trkpt lat="48.7298" lon="1.73918">
        <ele>140</ele>
        <time>2010-05-14T08:58:46Z</time>
      </trkpt>
      <trkpt lat="48.7298" lon="1.73915">
        <ele>140</ele>
        <time>2010-05-14T08:58:48Z</time>
      </trkpt>
      <trkpt lat="48.72978" lon="1.73913">
        <ele>140</ele>
        <time>2010-05-14T08:58:49Z</time>
      </trkpt>
      <trkpt lat="48.72976" lon="1.73911">
        <ele>140</ele>
        <time>2010-05-14T08:58:50Z</time>
      </trkpt>
      <trkpt lat="48.72975" lon="1.73911">
        <ele>139</ele>
        <time>2010-05-14T08:58:51Z</time>
      </trkpt>
      <trkpt lat="48.72974" lon="1.73909">
        <ele>139</ele>
        <time>2010-05-14T08:58:51Z</time>
      </trkpt>
      <trkpt lat="48.72973" lon="1.73907">
        <ele>139</ele>
        <time>2010-05-14T08:58:53Z</time>
      </trkpt>
      <trkpt lat="48.72972" lon="1.73906">
        <ele>139</ele>
        <time>2010-05-14T08:58:54Z</time>
      </trkpt>
      <trkpt lat="48.7297" lon="1.73906">
        <ele>139</ele>
        <time>2010-05-14T08:58:55Z</time>
      </trkpt>
      <trkpt lat="48.72969" lon="1.73905">
        <ele>139</ele>
        <time>2010-05-14T08:58:57Z</time>
      </trkpt>
      <trkpt lat="48.72967" lon="1.73905">
        <ele>138</ele>
        <time>2010-05-14T08:58:59Z</time>
      </trkpt>
      <trkpt lat="48.72965" lon="1.73904">
        <ele>138</ele>
        <time>2010-05-14T08:59:01Z</time>
      </trkpt>
      <trkpt lat="48.72963" lon="1.73903">
        <ele>138</ele>
        <time>2010-05-14T08:59:02Z</time>
      </trkpt>
      <trkpt lat="48.72962" lon="1.73902">
        <ele>137</ele>
        <time>2010-05-14T08:59:03Z</time>
      </trkpt>
      <trkpt lat="48.7296" lon="1.73901">
        <ele>137</ele>
        <time>2010-05-14T08:59:05Z</time>
      </trkpt>
      <trkpt lat="48.72958" lon="1.739">
        <ele>137</ele>
        <time>2010-05-14T08:59:05Z</time>
      </trkpt>
      <trkpt lat="48.72956" lon="1.73898">
        <ele>137</ele>
        <time>2010-05-14T08:59:08Z</time>
      </trkpt>
      <trkpt lat="48.72954" lon="1.73897">
        <ele>137</ele>
        <time>2010-05-14T08:59:09Z</time>
      </trkpt>
      <trkpt lat="48.72954" lon="1.73895">
        <ele>137</ele>
        <time>2010-05-14T08:59:13Z</time>
      </trkpt>
      <trkpt lat="48.72952" lon="1.73893">
        <ele>136</ele>
        <time>2010-05-14T08:59:15Z</time>
      </trkpt>
      <trkpt lat="48.72952" lon="1.73892">
        <ele>136</ele>
        <time>2010-05-14T08:59:17Z</time>
      </trkpt>
      <trkpt lat="48.72951" lon="1.7389">
        <ele>136</ele>
        <time>2010-05-14T08:59:19Z</time>
      </trkpt>
      <trkpt lat="48.7295" lon="1.73888">
        <ele>136</ele>
        <time>2010-05-14T08:59:20Z</time>
      </trkpt>
      <trkpt lat="48.72949" lon="1.73886">
        <ele>136</ele>
        <time>2010-05-14T08:59:23Z</time>
      </trkpt>
      <trkpt lat="48.72947" lon="1.73885">
        <ele>136</ele>
        <time>2010-05-14T08:59:27Z</time>
      </trkpt>
      <trkpt lat="48.72945" lon="1.73885">
        <ele>136</ele>
        <time>2010-05-14T08:59:27Z</time>
      </trkpt>
      <trkpt lat="48.72945" lon="1.73883">
        <ele>136</ele>
        <time>2010-05-14T08:59:31Z</time>
      </trkpt>
      <trkpt lat="48.72945" lon="1.73881">
        <ele>136</ele>
        <time>2010-05-14T08:59:42Z</time>
      </trkpt>
      <trkpt lat="48.72944" lon="1.73879">
        <ele>136</ele>
        <time>2010-05-14T08:59:46Z</time>
      </trkpt>
      <trkpt lat="48.72943" lon="1.73879">
        <ele>136</ele>
        <time>2010-05-14T08:59:52Z</time>
      </trkpt>
      <trkpt lat="48.72941" lon="1.73878">
        <ele>136</ele>
        <time>2010-05-14T08:59:53Z</time>
      </trkpt>
      <trkpt lat="48.7294" lon="1.73878">
        <ele>135</ele>
        <time>2010-05-14T09:00:01Z</time>
      </trkpt>
      <trkpt lat="48.7294" lon="1.73874">
        <ele>135</ele>
        <time>2010-05-14T09:00:02Z</time>
      </trkpt>
      <trkpt lat="48.7294" lon="1.73876">
        <ele>134</ele>
        <time>2010-05-14T09:00:02Z</time>
      </trkpt>
      <trkpt lat="48.72939" lon="1.73875">
        <ele>134</ele>
        <time>2010-05-14T09:00:04Z</time>
      </trkpt>
      <trkpt lat="48.7294" lon="1.73878">
        <ele>134</ele>
        <time>2010-05-14T09:00:08Z</time>
      </trkpt>
      <trkpt lat="48.72941" lon="1.73879">
        <ele>134</ele>
        <time>2010-05-14T09:00:08Z</time>
      </trkpt>
      <trkpt lat="48.72941" lon="1.73877">
        <ele>134</ele>
        <time>2010-05-14T09:00:11Z</time>
      </trkpt>
      <trkpt lat="48.72943" lon="1.73878">
        <ele>134</ele>
        <time>2010-05-14T09:00:19Z</time>
      </trkpt>
      <trkpt lat="48.72942" lon="1.7388">
        <ele>134</ele>
        <time>2010-05-14T09:00:24Z</time>
      </trkpt>
      <trkpt lat="48.72944" lon="1.73881">
        <ele>133</ele>
        <time>2010-05-14T09:00:29Z</time>
      </trkpt>
      <trkpt lat="48.72944" lon="1.73879">
        <ele>132</ele>
        <time>2010-05-14T09:00:31Z</time>
      </trkpt>
      <trkpt lat="48.72943" lon="1.7388">
        <ele>131</ele>
        <time>2010-05-14T09:00:39Z</time>
      </trkpt>
      <trkpt lat="48.72944" lon="1.73881">
        <ele>131</ele>
        <time>2010-05-14T09:00:41Z</time>
      </trkpt>
      <trkpt lat="48.72943" lon="1.73881">
        <ele>131</ele>
        <time>2010-05-14T09:00:52Z</time>
      </trkpt>
      <trkpt lat="48.72941" lon="1.7388">
        <ele>131</ele>
        <time>2010-05-14T09:00:53Z</time>
      </trkpt>
      <trkpt lat="48.7294" lon="1.7388">
        <ele>131</ele>
        <time>2010-05-14T09:00:55Z</time>
      </trkpt>
      <trkpt lat="48.7294" lon="1.73878">
        <ele>131</ele>
        <time>2010-05-14T09:00:59Z</time>
      </trkpt>
      <trkpt lat="48.7294" lon="1.73875">
        <ele>131</ele>
        <time>2010-05-14T09:01:00Z</time>
      </trkpt>
      <trkpt lat="48.72939" lon="1.73873">
        <ele>131</ele>
        <time>2010-05-14T09:01:02Z</time>
      </trkpt>
      <trkpt lat="48.72938" lon="1.73872">
        <ele>131</ele>
        <time>2010-05-14T09:01:04Z</time>
      </trkpt>
      <trkpt lat="48.72937" lon="1.73871">
        <ele>131</ele>
        <time>2010-05-14T09:01:04Z</time>
      </trkpt>
      <trkpt lat="48.72935" lon="1.7387">
        <ele>131</ele>
        <time>2010-05-14T09:01:05Z</time>
      </trkpt>
      <trkpt lat="48.72934" lon="1.73869">
        <ele>131</ele>
        <time>2010-05-14T09:01:07Z</time>
      </trkpt>
      <trkpt lat="48.72932" lon="1.73868">
        <ele>131</ele>
        <time>2010-05-14T09:01:10Z</time>
      </trkpt>
      <trkpt lat="48.7293" lon="1.73867">
        <ele>131</ele>
        <time>2010-05-14T09:01:11Z</time>
      </trkpt>
      <trkpt lat="48.72928" lon="1.73865">
        <ele>131</ele>
        <time>2010-05-14T09:01:14Z</time>
      </trkpt>
      <trkpt lat="48.72927" lon="1.73863">
        <ele>131</ele>
        <time>2010-05-14T09:01:16Z</time>
      </trkpt>
      <trkpt lat="48.72925" lon="1.7386">
        <ele>131</ele>
        <time>2010-05-14T09:01:17Z</time>
      </trkpt>
      <trkpt lat="48.72923" lon="1.73858">
        <ele>131</ele>
        <time>2010-05-14T09:01:20Z</time>
      </trkpt>
      <trkpt lat="48.72922" lon="1.73858">
        <ele>131</ele>
        <time>2010-05-14T09:01:22Z</time>
      </trkpt>
      <trkpt lat="48.7292" lon="1.73857">
        <ele>131</ele>
        <time>2010-05-14T09:01:22Z</time>
      </trkpt>
      <trkpt lat="48.72919" lon="1.73856">
        <ele>131</ele>
        <time>2010-05-14T09:01:23Z</time>
      </trkpt>
      <trkpt lat="48.72918" lon="1.73856">
        <ele>131</ele>
        <time>2010-05-14T09:01:24Z</time>
      </trkpt>
      <trkpt lat="48.72917" lon="1.73855">
        <ele>131</ele>
        <time>2010-05-14T09:01:26Z</time>
      </trkpt>
      <trkpt lat="48.72916" lon="1.73854">
        <ele>131</ele>
        <time>2010-05-14T09:01:27Z</time>
      </trkpt>
      <trkpt lat="48.72915" lon="1.73853">
        <ele>131</ele>
        <time>2010-05-14T09:01:27Z</time>
      </trkpt>
      <trkpt lat="48.72913" lon="1.73851">
        <ele>131</ele>
        <time>2010-05-14T09:01:29Z</time>
      </trkpt>
      <trkpt lat="48.72911" lon="1.7385">
        <ele>131</ele>
        <time>2010-05-14T09:01:30Z</time>
      </trkpt>
      <trkpt lat="48.7291" lon="1.73847">
        <ele>131</ele>
        <time>2010-05-14T09:01:32Z</time>
      </trkpt>
      <trkpt lat="48.72908" lon="1.73846">
        <ele>131</ele>
        <time>2010-05-14T09:01:33Z</time>
      </trkpt>
      <trkpt lat="48.72906" lon="1.73844">
        <ele>131</ele>
        <time>2010-05-14T09:01:35Z</time>
      </trkpt>
      <trkpt lat="48.72905" lon="1.73843">
        <ele>131</ele>
        <time>2010-05-14T09:01:38Z</time>
      </trkpt>
      <trkpt lat="48.72903" lon="1.73841">
        <ele>131</ele>
        <time>2010-05-14T09:01:39Z</time>
      </trkpt>
      <trkpt lat="48.72901" lon="1.7384">
        <ele>131</ele>
        <time>2010-05-14T09:01:41Z</time>
      </trkpt>
      <trkpt lat="48.72899" lon="1.73838">
        <ele>131</ele>
        <time>2010-05-14T09:01:44Z</time>
      </trkpt>
      <trkpt lat="48.72898" lon="1.73837">
        <ele>131</ele>
        <time>2010-05-14T09:01:44Z</time>
      </trkpt>
      <trkpt lat="48.72896" lon="1.73835">
        <ele>131</ele>
        <time>2010-05-14T09:01:46Z</time>
      </trkpt>
      <trkpt lat="48.72893" lon="1.73834">
        <ele>131</ele>
        <time>2010-05-14T09:01:49Z</time>
      </trkpt>
      <trkpt lat="48.72892" lon="1.73833">
        <ele>131</ele>
        <time>2010-05-14T09:01:50Z</time>
      </trkpt>
      <trkpt lat="48.72891" lon="1.73831">
        <ele>131</ele>
        <time>2010-05-14T09:01:50Z</time>
      </trkpt>
      <trkpt lat="48.7289" lon="1.7383">
        <ele>131</ele>
        <time>2010-05-14T09:01:51Z</time>
      </trkpt>
      <trkpt lat="48.72888" lon="1.73828">
        <ele>131</ele>
        <time>2010-05-14T09:01:54Z</time>
      </trkpt>
      <trkpt lat="48.72886" lon="1.73827">
        <ele>131</ele>
        <time>2010-05-14T09:01:55Z</time>
      </trkpt>
      <trkpt lat="48.72884" lon="1.73826">
        <ele>130</ele>
        <time>2010-05-14T09:01:57Z</time>
      </trkpt>
      <trkpt lat="48.72883" lon="1.73825">
        <ele>130</ele>
        <time>2010-05-14T09:01:57Z</time>
      </trkpt>
      <trkpt lat="48.72882" lon="1.73824">
        <ele>130</ele>
        <time>2010-05-14T09:01:59Z</time>
      </trkpt>
      <trkpt lat="48.72881" lon="1.73823">
        <ele>130</ele>
        <time>2010-05-14T09:01:59Z</time>
      </trkpt>
      <trkpt lat="48.7288" lon="1.73822">
        <ele>130</ele>
        <time>2010-05-14T09:02:00Z</time>
      </trkpt>
      <trkpt lat="48.72878" lon="1.7382">
        <ele>130</ele>
        <time>2010-05-14T09:02:02Z</time>
      </trkpt>
      <trkpt lat="48.72876" lon="1.73819">
        <ele>130</ele>
        <time>2010-05-14T09:02:04Z</time>
      </trkpt>
      <trkpt lat="48.72875" lon="1.73818">
        <ele>130</ele>
        <time>2010-05-14T09:02:04Z</time>
      </trkpt>
      <trkpt lat="48.72874" lon="1.73815">
        <ele>130</ele>
        <time>2010-05-14T09:02:06Z</time>
      </trkpt>
      <trkpt lat="48.72873" lon="1.73813">
        <ele>130</ele>
        <time>2010-05-14T09:02:07Z</time>
      </trkpt>
      <trkpt lat="48.72872" lon="1.7381">
        <ele>130</ele>
        <time>2010-05-14T09:02:10Z</time>
      </trkpt>
      <trkpt lat="48.72872" lon="1.73808">
        <ele>130</ele>
        <time>2010-05-14T09:02:11Z</time>
      </trkpt>
      <trkpt lat="48.72871" lon="1.73807">
        <ele>130</ele>
        <time>2010-05-14T09:02:19Z</time>
      </trkpt>
      <trkpt lat="48.72872" lon="1.73807">
        <ele>130</ele>
        <time>2010-05-14T09:02:26Z</time>
      </trkpt>
      <trkpt lat="48.72872" lon="1.73805">
        <ele>130</ele>
        <time>2010-05-14T09:02:35Z</time>
      </trkpt>
      <trkpt lat="48.72872" lon="1.73803">
        <ele>130</ele>
        <time>2010-05-14T09:02:42Z</time>
      </trkpt>
      <trkpt lat="48.7287" lon="1.73802">
        <ele>130</ele>
        <time>2010-05-14T09:02:45Z</time>
      </trkpt>
      <trkpt lat="48.72868" lon="1.73799">
        <ele>130</ele>
        <time>2010-05-14T09:02:49Z</time>
      </trkpt>
      <trkpt lat="48.72867" lon="1.73801">
        <ele>130</ele>
        <time>2010-05-14T09:02:54Z</time>
      </trkpt>
      <trkpt lat="48.72867" lon="1.73802">
        <ele>130</ele>
        <time>2010-05-14T09:02:55Z</time>
      </trkpt>
      <trkpt lat="48.72866" lon="1.73802">
        <ele>130</ele>
        <time>2010-05-14T09:02:58Z</time>
      </trkpt>
      <trkpt lat="48.72865" lon="1.738">
        <ele>130</ele>
        <time>2010-05-14T09:03:00Z</time>
      </trkpt>
      <trkpt lat="48.72863" lon="1.73799">
        <ele>130</ele>
        <time>2010-05-14T09:03:00Z</time>
      </trkpt>
      <trkpt lat="48.72862" lon="1.73797">
        <ele>130</ele>
        <time>2010-05-14T09:03:01Z</time>
      </trkpt>
      <trkpt lat="48.7286" lon="1.73794">
        <ele>130</ele>
        <time>2010-05-14T09:03:03Z</time>
      </trkpt>
      <trkpt lat="48.72857" lon="1.73792">
        <ele>130</ele>
        <time>2010-05-14T09:03:06Z</time>
      </trkpt>
      <trkpt lat="48.72856" lon="1.7379">
        <ele>130</ele>
        <time>2010-05-14T09:03:06Z</time>
      </trkpt>
      <trkpt lat="48.72855" lon="1.73789">
        <ele>130</ele>
        <time>2010-05-14T09:03:07Z</time>
      </trkpt>
      <trkpt lat="48.72853" lon="1.73788">
        <ele>130</ele>
        <time>2010-05-14T09:03:08Z</time>
      </trkpt>
      <trkpt lat="48.72852" lon="1.73787">
        <ele>130</ele>
        <time>2010-05-14T09:03:10Z</time>
      </trkpt>
      <trkpt lat="48.72851" lon="1.73786">
        <ele>130</ele>
        <time>2010-05-14T09:03:10Z</time>
      </trkpt>
      <trkpt lat="48.7285" lon="1.73784">
        <ele>130</ele>
        <time>2010-05-14T09:03:12Z</time>
      </trkpt>
      <trkpt lat="48.72848" lon="1.73783">
        <ele>130</ele>
        <time>2010-05-14T09:03:12Z</time>
      </trkpt>
      <trkpt lat="48.72847" lon="1.73782">
        <ele>130</ele>
        <time>2010-05-14T09:03:13Z</time>
      </trkpt>
      <trkpt lat="48.72845" lon="1.73779">
        <ele>130</ele>
        <time>2010-05-14T09:03:15Z</time>
      </trkpt>
      <trkpt lat="48.72843" lon="1.73777">
        <ele>130</ele>
        <time>2010-05-14T09:03:18Z</time>
      </trkpt>
      <trkpt lat="48.72841" lon="1.73776">
        <ele>130</ele>
        <time>2010-05-14T09:03:20Z</time>
      </trkpt>
      <trkpt lat="48.72839" lon="1.73775">
        <ele>130</ele>
        <time>2010-05-14T09:03:21Z</time>
      </trkpt>
      <trkpt lat="48.72837" lon="1.73773">
        <ele>130</ele>
        <time>2010-05-14T09:03:24Z</time>
      </trkpt>
      <trkpt lat="48.72836" lon="1.73772">
        <ele>130</ele>
        <time>2010-05-14T09:03:24Z</time>
      </trkpt>
      <trkpt lat="48.72834" lon="1.7377">
        <ele>130</ele>
        <time>2010-05-14T09:03:25Z</time>
      </trkpt>
      <trkpt lat="48.72832" lon="1.73769">
        <ele>130</ele>
        <time>2010-05-14T09:03:26Z</time>
      </trkpt>
      <trkpt lat="48.72831" lon="1.73768">
        <ele>130</ele>
        <time>2010-05-14T09:03:27Z</time>
      </trkpt>
      <trkpt lat="48.7283" lon="1.73767">
        <ele>130</ele>
        <time>2010-05-14T09:03:28Z</time>
      </trkpt>
      <trkpt lat="48.72829" lon="1.73765">
        <ele>130</ele>
        <time>2010-05-14T09:03:30Z</time>
      </trkpt>
      <trkpt lat="48.72827" lon="1.73763">
        <ele>130</ele>
        <time>2010-05-14T09:03:31Z</time>
      </trkpt>
      <trkpt lat="48.72824" lon="1.7376">
        <ele>130</ele>
        <time>2010-05-14T09:03:33Z</time>
      </trkpt>
      <trkpt lat="48.72823" lon="1.73759">
        <ele>130</ele>
        <time>2010-05-14T09:03:35Z</time>
      </trkpt>
      <trkpt lat="48.72822" lon="1.73757">
        <ele>130</ele>
        <time>2010-05-14T09:03:35Z</time>
      </trkpt>
      <trkpt lat="48.7282" lon="1.73756">
        <ele>130</ele>
        <time>2010-05-14T09:03:36Z</time>
      </trkpt>
      <trkpt lat="48.72819" lon="1.73755">
        <ele>130</ele>
        <time>2010-05-14T09:03:37Z</time>
      </trkpt>
      <trkpt lat="48.72818" lon="1.73754">
        <ele>130</ele>
        <time>2010-05-14T09:03:38Z</time>
      </trkpt>
      <trkpt lat="48.72817" lon="1.73752">
        <ele>130</ele>
        <time>2010-05-14T09:03:40Z</time>
      </trkpt>
      <trkpt lat="48.72816" lon="1.73751">
        <ele>130</ele>
        <time>2010-05-14T09:03:40Z</time>
      </trkpt>
      <trkpt lat="48.72814" lon="1.73749">
        <ele>130</ele>
        <time>2010-05-14T09:03:42Z</time>
      </trkpt>
      <trkpt lat="48.72812" lon="1.73747">
        <ele>130</ele>
        <time>2010-05-14T09:03:43Z</time>
      </trkpt>
      <trkpt lat="48.72811" lon="1.73746">
        <ele>130</ele>
        <time>2010-05-14T09:03:45Z</time>
      </trkpt>
      <trkpt lat="48.7281" lon="1.73744">
        <ele>130</ele>
        <time>2010-05-14T09:03:45Z</time>
      </trkpt>
      <trkpt lat="48.72809" lon="1.73743">
        <ele>130</ele>
        <time>2010-05-14T09:03:46Z</time>
      </trkpt>
      <trkpt lat="48.72808" lon="1.73741">
        <ele>130</ele>
        <time>2010-05-14T09:03:47Z</time>
      </trkpt>
      <trkpt lat="48.72806" lon="1.7374">
        <ele>130</ele>
        <time>2010-05-14T09:03:48Z</time>
      </trkpt>
      <trkpt lat="48.72805" lon="1.73739">
        <ele>130</ele>
        <time>2010-05-14T09:03:50Z</time>
      </trkpt>
      <trkpt lat="48.72804" lon="1.73738">
        <ele>130</ele>
        <time>2010-05-14T09:03:50Z</time>
      </trkpt>
      <trkpt lat="48.72802" lon="1.73736">
        <ele>130</ele>
        <time>2010-05-14T09:03:51Z</time>
      </trkpt>
      <trkpt lat="48.72801" lon="1.73734">
        <ele>130</ele>
        <time>2010-05-14T09:03:52Z</time>
      </trkpt>
      <trkpt lat="48.728" lon="1.73733">
        <ele>130</ele>
        <time>2010-05-14T09:03:53Z</time>
      </trkpt>
      <trkpt lat="48.72798" lon="1.73731">
        <ele>130</ele>
        <time>2010-05-14T09:03:54Z</time>
      </trkpt>
      <trkpt lat="48.72797" lon="1.7373">
        <ele>130</ele>
        <time>2010-05-14T09:03:56Z</time>
      </trkpt>
      <trkpt lat="48.72796" lon="1.73729">
        <ele>130</ele>
        <time>2010-05-14T09:03:56Z</time>
      </trkpt>
      <trkpt lat="48.72794" lon="1.73728">
        <ele>130</ele>
        <time>2010-05-14T09:03:57Z</time>
      </trkpt>
      <trkpt lat="48.72793" lon="1.73726">
        <ele>130</ele>
        <time>2010-05-14T09:03:58Z</time>
      </trkpt>
      <trkpt lat="48.72791" lon="1.73724">
        <ele>130</ele>
        <time>2010-05-14T09:03:59Z</time>
      </trkpt>
      <trkpt lat="48.7279" lon="1.73722">
        <ele>130</ele>
        <time>2010-05-14T09:04:01Z</time>
      </trkpt>
      <trkpt lat="48.72788" lon="1.73721">
        <ele>130</ele>
        <time>2010-05-14T09:04:01Z</time>
      </trkpt>
      <trkpt lat="48.72787" lon="1.73719">
        <ele>130</ele>
        <time>2010-05-14T09:04:02Z</time>
      </trkpt>
      <trkpt lat="48.72785" lon="1.73718">
        <ele>130</ele>
        <time>2010-05-14T09:04:03Z</time>
      </trkpt>
      <trkpt lat="48.72784" lon="1.73716">
        <ele>130</ele>
        <time>2010-05-14T09:04:04Z</time>
      </trkpt>
      <trkpt lat="48.72782" lon="1.73714">
        <ele>130</ele>
        <time>2010-05-14T09:04:07Z</time>
      </trkpt>
      <trkpt lat="48.72781" lon="1.73713">
        <ele>130</ele>
        <time>2010-05-14T09:04:07Z</time>
      </trkpt>
      <trkpt lat="48.7278" lon="1.73712">
        <ele>130</ele>
        <time>2010-05-14T09:04:08Z</time>
      </trkpt>
      <trkpt lat="48.72779" lon="1.7371">
        <ele>130</ele>
        <time>2010-05-14T09:04:10Z</time>
      </trkpt>
      <trkpt lat="48.72777" lon="1.73708">
        <ele>130</ele>
        <time>2010-05-14T09:04:10Z</time>
      </trkpt>
      <trkpt lat="48.72776" lon="1.73707">
        <ele>130</ele>
        <time>2010-05-14T09:04:12Z</time>
      </trkpt>
      <trkpt lat="48.72774" lon="1.73706">
        <ele>130</ele>
        <time>2010-05-14T09:04:12Z</time>
      </trkpt>
      <trkpt lat="48.72773" lon="1.73704">
        <ele>130</ele>
        <time>2010-05-14T09:04:13Z</time>
      </trkpt>
      <trkpt lat="48.72772" lon="1.73703">
        <ele>130</ele>
        <time>2010-05-14T09:04:14Z</time>
      </trkpt>
      <trkpt lat="48.72771" lon="1.73702">
        <ele>130</ele>
        <time>2010-05-14T09:04:15Z</time>
      </trkpt>
      <trkpt lat="48.72768" lon="1.73699">
        <ele>130</ele>
        <time>2010-05-14T09:04:18Z</time>
      </trkpt>
      <trkpt lat="48.72767" lon="1.73698">
        <ele>130</ele>
        <time>2010-05-14T09:04:18Z</time>
      </trkpt>
      <trkpt lat="48.72765" lon="1.73696">
        <ele>130</ele>
        <time>2010-05-14T09:04:19Z</time>
      </trkpt>
      <trkpt lat="48.72764" lon="1.73695">
        <ele>130</ele>
        <time>2010-05-14T09:04:20Z</time>
      </trkpt>
      <trkpt lat="48.72763" lon="1.73694">
        <ele>130</ele>
        <time>2010-05-14T09:04:21Z</time>
      </trkpt>
      <trkpt lat="48.72762" lon="1.73692">
        <ele>130</ele>
        <time>2010-05-14T09:04:23Z</time>
      </trkpt>
      <trkpt lat="48.7276" lon="1.73691">
        <ele>130</ele>
        <time>2010-05-14T09:04:23Z</time>
      </trkpt>
      <trkpt lat="48.72759" lon="1.73689">
        <ele>130</ele>
        <time>2010-05-14T09:04:24Z</time>
      </trkpt>
      <trkpt lat="48.72757" lon="1.73688">
        <ele>130</ele>
        <time>2010-05-14T09:04:25Z</time>
      </trkpt>
      <trkpt lat="48.72756" lon="1.73687">
        <ele>130</ele>
        <time>2010-05-14T09:04:26Z</time>
      </trkpt>
      <trkpt lat="48.72754" lon="1.73686">
        <ele>130</ele>
        <time>2010-05-14T09:04:28Z</time>
      </trkpt>
      <trkpt lat="48.72753" lon="1.73684">
        <ele>130</ele>
        <time>2010-05-14T09:04:28Z</time>
      </trkpt>
      <trkpt lat="48.72752" lon="1.73683">
        <ele>130</ele>
        <time>2010-05-14T09:04:29Z</time>
      </trkpt>
      <trkpt lat="48.7275" lon="1.73681">
        <ele>130</ele>
        <time>2010-05-14T09:04:30Z</time>
      </trkpt>
      <trkpt lat="48.72748" lon="1.7368">
        <ele>130</ele>
        <time>2010-05-14T09:04:31Z</time>
      </trkpt>
      <trkpt lat="48.72747" lon="1.73679">
        <ele>130</ele>
        <time>2010-05-14T09:04:33Z</time>
      </trkpt>
      <trkpt lat="48.72745" lon="1.73678">
        <ele>130</ele>
        <time>2010-05-14T09:04:33Z</time>
      </trkpt>
      <trkpt lat="48.72744" lon="1.73676">
        <ele>130</ele>
        <time>2010-05-14T09:04:34Z</time>
      </trkpt>
      <trkpt lat="48.72742" lon="1.73674">
        <ele>130</ele>
        <time>2010-05-14T09:04:35Z</time>
      </trkpt>
      <trkpt lat="48.72741" lon="1.73672">
        <ele>130</ele>
        <time>2010-05-14T09:04:36Z</time>
      </trkpt>
      <trkpt lat="48.7274" lon="1.73671">
        <ele>130</ele>
        <time>2010-05-14T09:04:38Z</time>
      </trkpt>
      <trkpt lat="48.72739" lon="1.7367">
        <ele>130</ele>
        <time>2010-05-14T09:04:38Z</time>
      </trkpt>
      <trkpt lat="48.72737" lon="1.73668">
        <ele>130</ele>
        <time>2010-05-14T09:04:39Z</time>
      </trkpt>
      <trkpt lat="48.72736" lon="1.73667">
        <ele>130</ele>
        <time>2010-05-14T09:04:40Z</time>
      </trkpt>
      <trkpt lat="48.72734" lon="1.73666">
        <ele>130</ele>
        <time>2010-05-14T09:04:41Z</time>
      </trkpt>
      <trkpt lat="48.72732" lon="1.73664">
        <ele>130</ele>
        <time>2010-05-14T09:04:43Z</time>
      </trkpt>
      <trkpt lat="48.72731" lon="1.73663">
        <ele>130</ele>
        <time>2010-05-14T09:04:43Z</time>
      </trkpt>
      <trkpt lat="48.72729" lon="1.73662">
        <ele>131</ele>
        <time>2010-05-14T09:04:44Z</time>
      </trkpt>
      <trkpt lat="48.72728" lon="1.7366">
        <ele>131</ele>
        <time>2010-05-14T09:04:45Z</time>
      </trkpt>
      <trkpt lat="48.72727" lon="1.73659">
        <ele>131</ele>
        <time>2010-05-14T09:04:46Z</time>
      </trkpt>
      <trkpt lat="48.72725" lon="1.73658">
        <ele>131</ele>
        <time>2010-05-14T09:04:48Z</time>
      </trkpt>
      <trkpt lat="48.72724" lon="1.73656">
        <ele>131</ele>
        <time>2010-05-14T09:04:48Z</time>
      </trkpt>
      <trkpt lat="48.72722" lon="1.73653">
        <ele>132</ele>
        <time>2010-05-14T09:04:50Z</time>
      </trkpt>
      <trkpt lat="48.7272" lon="1.73651">
        <ele>132</ele>
        <time>2010-05-14T09:04:53Z</time>
      </trkpt>
      <trkpt lat="48.72719" lon="1.7365">
        <ele>132</ele>
        <time>2010-05-14T09:04:53Z</time>
      </trkpt>
      <trkpt lat="48.72717" lon="1.73649">
        <ele>132</ele>
        <time>2010-05-14T09:04:54Z</time>
      </trkpt>
      <trkpt lat="48.72716" lon="1.73647">
        <ele>132</ele>
        <time>2010-05-14T09:04:55Z</time>
      </trkpt>
      <trkpt lat="48.72714" lon="1.73646">
        <ele>132</ele>
        <time>2010-05-14T09:04:56Z</time>
      </trkpt>
      <trkpt lat="48.72713" lon="1.73644">
        <ele>132</ele>
        <time>2010-05-14T09:04:58Z</time>
      </trkpt>
      <trkpt lat="48.72712" lon="1.73643">
        <ele>132</ele>
        <time>2010-05-14T09:04:58Z</time>
      </trkpt>
      <trkpt lat="48.72711" lon="1.73641">
        <ele>132</ele>
        <time>2010-05-14T09:04:59Z</time>
      </trkpt>
      <trkpt lat="48.72709" lon="1.73638">
        <ele>132</ele>
        <time>2010-05-14T09:05:01Z</time>
      </trkpt>
      <trkpt lat="48.72708" lon="1.73636">
        <ele>132</ele>
        <time>2010-05-14T09:05:03Z</time>
      </trkpt>
      <trkpt lat="48.72708" lon="1.73634">
        <ele>132</ele>
        <time>2010-05-14T09:05:03Z</time>
      </trkpt>
      <trkpt lat="48.72706" lon="1.73632">
        <ele>132</ele>
        <time>2010-05-14T09:05:05Z</time>
      </trkpt>
      <trkpt lat="48.72705" lon="1.73631">
        <ele>132</ele>
        <time>2010-05-14T09:05:06Z</time>
      </trkpt>
      <trkpt lat="48.72703" lon="1.73629">
        <ele>132</ele>
        <time>2010-05-14T09:05:09Z</time>
      </trkpt>
      <trkpt lat="48.72701" lon="1.73626">
        <ele>132</ele>
        <time>2010-05-14T09:05:10Z</time>
      </trkpt>
      <trkpt lat="48.727" lon="1.73625">
        <ele>132</ele>
        <time>2010-05-14T09:05:11Z</time>
      </trkpt>
      <trkpt lat="48.72697" lon="1.73623">
        <ele>131</ele>
        <time>2010-05-14T09:05:14Z</time>
      </trkpt>
      <trkpt lat="48.72696" lon="1.73622">
        <ele>131</ele>
        <time>2010-05-14T09:05:14Z</time>
      </trkpt>
      <trkpt lat="48.72695" lon="1.73622">
        <ele>131</ele>
        <time>2010-05-14T09:05:15Z</time>
      </trkpt>
      <trkpt lat="48.72694" lon="1.73621">
        <ele>131</ele>
        <time>2010-05-14T09:05:16Z</time>
      </trkpt>
      <trkpt lat="48.72692" lon="1.7362">
        <ele>131</ele>
        <time>2010-05-14T09:05:18Z</time>
      </trkpt>
      <trkpt lat="48.7269" lon="1.73618">
        <ele>131</ele>
        <time>2010-05-14T09:05:20Z</time>
      </trkpt>
      <trkpt lat="48.72689" lon="1.73617">
        <ele>132</ele>
        <time>2010-05-14T09:05:21Z</time>
      </trkpt>
      <trkpt lat="48.72687" lon="1.73615">
        <ele>134</ele>
        <time>2010-05-14T09:05:24Z</time>
      </trkpt>
      <trkpt lat="48.72686" lon="1.73616">
        <ele>137</ele>
        <time>2010-05-14T09:05:26Z</time>
      </trkpt>
      <trkpt lat="48.72684" lon="1.73614">
        <ele>138</ele>
        <time>2010-05-14T09:05:29Z</time>
      </trkpt>
      <trkpt lat="48.72682" lon="1.73613">
        <ele>138</ele>
        <time>2010-05-14T09:05:30Z</time>
      </trkpt>
      <trkpt lat="48.72681" lon="1.73611">
        <ele>138</ele>
        <time>2010-05-14T09:05:32Z</time>
      </trkpt>
      <trkpt lat="48.72679" lon="1.73609">
        <ele>138</ele>
        <time>2010-05-14T09:05:35Z</time>
      </trkpt>
      <trkpt lat="48.72678" lon="1.73609">
        <ele>138</ele>
        <time>2010-05-14T09:05:35Z</time>
      </trkpt>
      <trkpt lat="48.72677" lon="1.73608">
        <ele>138</ele>
        <time>2010-05-14T09:05:36Z</time>
      </trkpt>
      <trkpt lat="48.72675" lon="1.73606">
        <ele>137</ele>
        <time>2010-05-14T09:05:37Z</time>
      </trkpt>
      <trkpt lat="48.72674" lon="1.73604">
        <ele>137</ele>
        <time>2010-05-14T09:05:38Z</time>
      </trkpt>
      <trkpt lat="48.72672" lon="1.73602">
        <ele>136</ele>
        <time>2010-05-14T09:05:41Z</time>
      </trkpt>
      <trkpt lat="48.72671" lon="1.73601">
        <ele>136</ele>
        <time>2010-05-14T09:05:41Z</time>
      </trkpt>
      <trkpt lat="48.72669" lon="1.73599">
        <ele>136</ele>
        <time>2010-05-14T09:05:43Z</time>
      </trkpt>
      <trkpt lat="48.72667" lon="1.73597">
        <ele>136</ele>
        <time>2010-05-14T09:05:44Z</time>
      </trkpt>
      <trkpt lat="48.72666" lon="1.73596">
        <ele>136</ele>
        <time>2010-05-14T09:05:46Z</time>
      </trkpt>
      <trkpt lat="48.72665" lon="1.73595">
        <ele>136</ele>
        <time>2010-05-14T09:05:46Z</time>
      </trkpt>
      <trkpt lat="48.72664" lon="1.73594">
        <ele>135</ele>
        <time>2010-05-14T09:05:47Z</time>
      </trkpt>
      <trkpt lat="48.72662" lon="1.73592">
        <ele>135</ele>
        <time>2010-05-14T09:05:48Z</time>
      </trkpt>
      <trkpt lat="48.72661" lon="1.73591">
        <ele>135</ele>
        <time>2010-05-14T09:05:50Z</time>
      </trkpt>
      <trkpt lat="48.7266" lon="1.7359">
        <ele>135</ele>
        <time>2010-05-14T09:05:51Z</time>
      </trkpt>
      <trkpt lat="48.72659" lon="1.73588">
        <ele>135</ele>
        <time>2010-05-14T09:05:51Z</time>
      </trkpt>
      <trkpt lat="48.72657" lon="1.73586">
        <ele>135</ele>
        <time>2010-05-14T09:05:53Z</time>
      </trkpt>
      <trkpt lat="48.72656" lon="1.73584">
        <ele>134</ele>
        <time>2010-05-14T09:05:54Z</time>
      </trkpt>
      <trkpt lat="48.72654" lon="1.73582">
        <ele>134</ele>
        <time>2010-05-14T09:05:56Z</time>
      </trkpt>
      <trkpt lat="48.72653" lon="1.7358">
        <ele>134</ele>
        <time>2010-05-14T09:05:56Z</time>
      </trkpt>
      <trkpt lat="48.72651" lon="1.73579">
        <ele>134</ele>
        <time>2010-05-14T09:05:57Z</time>
      </trkpt>
      <trkpt lat="48.72649" lon="1.73578">
        <ele>134</ele>
        <time>2010-05-14T09:05:58Z</time>
      </trkpt>
      <trkpt lat="48.72648" lon="1.73577">
        <ele>134</ele>
        <time>2010-05-14T09:05:59Z</time>
      </trkpt>
      <trkpt lat="48.72647" lon="1.73575">
        <ele>134</ele>
        <time>2010-05-14T09:06:01Z</time>
      </trkpt>
      <trkpt lat="48.72645" lon="1.73574">
        <ele>134</ele>
        <time>2010-05-14T09:06:01Z</time>
      </trkpt>
      <trkpt lat="48.72643" lon="1.73572">
        <ele>134</ele>
        <time>2010-05-14T09:06:03Z</time>
      </trkpt>
      <trkpt lat="48.72642" lon="1.73571">
        <ele>134</ele>
        <time>2010-05-14T09:06:04Z</time>
      </trkpt>
      <trkpt lat="48.7264" lon="1.7357">
        <ele>134</ele>
        <time>2010-05-14T09:06:06Z</time>
      </trkpt>
      <trkpt lat="48.72639" lon="1.73569">
        <ele>134</ele>
        <time>2010-05-14T09:06:06Z</time>
      </trkpt>
      <trkpt lat="48.72638" lon="1.73568">
        <ele>134</ele>
        <time>2010-05-14T09:06:07Z</time>
      </trkpt>
      <trkpt lat="48.72636" lon="1.73567">
        <ele>134</ele>
        <time>2010-05-14T09:06:08Z</time>
      </trkpt>
      <trkpt lat="48.72635" lon="1.73566">
        <ele>134</ele>
        <time>2010-05-14T09:06:09Z</time>
      </trkpt>
      <trkpt lat="48.72632" lon="1.73564">
        <ele>134</ele>
        <time>2010-05-14T09:06:11Z</time>
      </trkpt>
      <trkpt lat="48.72631" lon="1.73562">
        <ele>134</ele>
        <time>2010-05-14T09:06:12Z</time>
      </trkpt>
      <trkpt lat="48.7263" lon="1.73561">
        <ele>134</ele>
        <time>2010-05-14T09:06:13Z</time>
      </trkpt>
      <trkpt lat="48.72628" lon="1.73559">
        <ele>134</ele>
        <time>2010-05-14T09:06:14Z</time>
      </trkpt>
      <trkpt lat="48.72626" lon="1.73558">
        <ele>134</ele>
        <time>2010-05-14T09:06:15Z</time>
      </trkpt>
      <trkpt lat="48.72625" lon="1.73556">
        <ele>134</ele>
        <time>2010-05-14T09:06:17Z</time>
      </trkpt>
      <trkpt lat="48.72623" lon="1.73554">
        <ele>134</ele>
        <time>2010-05-14T09:06:17Z</time>
      </trkpt>
      <trkpt lat="48.72622" lon="1.73552">
        <ele>134</ele>
        <time>2010-05-14T09:06:18Z</time>
      </trkpt>
      <trkpt lat="48.7262" lon="1.73551">
        <ele>134</ele>
        <time>2010-05-14T09:06:19Z</time>
      </trkpt>
      <trkpt lat="48.72618" lon="1.7355">
        <ele>134</ele>
        <time>2010-05-14T09:06:20Z</time>
      </trkpt>
      <trkpt lat="48.72616" lon="1.73548">
        <ele>134</ele>
        <time>2010-05-14T09:06:22Z</time>
      </trkpt>
      <trkpt lat="48.72615" lon="1.73546">
        <ele>134</ele>
        <time>2010-05-14T09:06:22Z</time>
      </trkpt>
      <trkpt lat="48.72612" lon="1.73544">
        <ele>134</ele>
        <time>2010-05-14T09:06:23Z</time>
      </trkpt>
      <trkpt lat="48.72609" lon="1.73542">
        <ele>134</ele>
        <time>2010-05-14T09:06:24Z</time>
      </trkpt>
      <trkpt lat="48.72607" lon="1.73539">
        <ele>134</ele>
        <time>2010-05-14T09:06:25Z</time>
      </trkpt>
      <trkpt lat="48.72604" lon="1.73536">
        <ele>134</ele>
        <time>2010-05-14T09:06:26Z</time>
      </trkpt>
      <trkpt lat="48.72601" lon="1.73532">
        <ele>134</ele>
        <time>2010-05-14T09:06:27Z</time>
      </trkpt>
      <trkpt lat="48.72598" lon="1.73529">
        <ele>133</ele>
        <time>2010-05-14T09:06:28Z</time>
      </trkpt>
      <trkpt lat="48.72596" lon="1.73526">
        <ele>133</ele>
        <time>2010-05-14T09:06:29Z</time>
      </trkpt>
      <trkpt lat="48.72593" lon="1.73524">
        <ele>132</ele>
        <time>2010-05-14T09:06:30Z</time>
      </trkpt>
      <trkpt lat="48.72591" lon="1.73521">
        <ele>131</ele>
        <time>2010-05-14T09:06:32Z</time>
      </trkpt>
      <trkpt lat="48.72588" lon="1.73519">
        <ele>131</ele>
        <time>2010-05-14T09:06:32Z</time>
      </trkpt>
      <trkpt lat="48.72585" lon="1.73516">
        <ele>131</ele>
        <time>2010-05-14T09:06:33Z</time>
      </trkpt>
      <trkpt lat="48.72583" lon="1.73513">
        <ele>130</ele>
        <time>2010-05-14T09:06:34Z</time>
      </trkpt>
      <trkpt lat="48.7258" lon="1.73511">
        <ele>130</ele>
        <time>2010-05-14T09:06:35Z</time>
      </trkpt>
      <trkpt lat="48.72579" lon="1.73509">
        <ele>130</ele>
        <time>2010-05-14T09:06:37Z</time>
      </trkpt>
      <trkpt lat="48.72576" lon="1.73506">
        <ele>129</ele>
        <time>2010-05-14T09:06:37Z</time>
      </trkpt>
      <trkpt lat="48.72572" lon="1.73501">
        <ele>129</ele>
        <time>2010-05-14T09:06:38Z</time>
      </trkpt>
      <trkpt lat="48.72568" lon="1.73498">
        <ele>129</ele>
        <time>2010-05-14T09:06:39Z</time>
      </trkpt>
      <trkpt lat="48.72564" lon="1.73494">
        <ele>129</ele>
        <time>2010-05-14T09:06:40Z</time>
      </trkpt>
      <trkpt lat="48.72561" lon="1.7349">
        <ele>129</ele>
        <time>2010-05-14T09:06:42Z</time>
      </trkpt>
      <trkpt lat="48.72558" lon="1.73488">
        <ele>129</ele>
        <time>2010-05-14T09:06:42Z</time>
      </trkpt>
      <trkpt lat="48.72555" lon="1.73485">
        <ele>129</ele>
        <time>2010-05-14T09:06:43Z</time>
      </trkpt>
      <trkpt lat="48.72551" lon="1.73479">
        <ele>129</ele>
        <time>2010-05-14T09:06:44Z</time>
      </trkpt>
      <trkpt lat="48.72548" lon="1.73475">
        <ele>129</ele>
        <time>2010-05-14T09:06:45Z</time>
      </trkpt>
      <trkpt lat="48.72545" lon="1.73472">
        <ele>129</ele>
        <time>2010-05-14T09:06:47Z</time>
      </trkpt>
      <trkpt lat="48.72542" lon="1.73468">
        <ele>129</ele>
        <time>2010-05-14T09:06:47Z</time>
      </trkpt>
      <trkpt lat="48.72539" lon="1.73466">
        <ele>129</ele>
        <time>2010-05-14T09:06:48Z</time>
      </trkpt>
      <trkpt lat="48.7253" lon="1.73463">
        <ele>129</ele>
        <time>2010-05-14T09:06:52Z</time>
      </trkpt>
      <trkpt lat="48.72525" lon="1.7346">
        <ele>129</ele>
        <time>2010-05-14T09:06:52Z</time>
      </trkpt>
      <trkpt lat="48.72521" lon="1.73456">
        <ele>129</ele>
        <time>2010-05-14T09:06:53Z</time>
      </trkpt>
      <trkpt lat="48.72516" lon="1.73455">
        <ele>129</ele>
        <time>2010-05-14T09:06:54Z</time>
      </trkpt>
      <trkpt lat="48.72511" lon="1.73454">
        <ele>129</ele>
        <time>2010-05-14T09:06:55Z</time>
      </trkpt>
      <trkpt lat="48.72507" lon="1.73454">
        <ele>129</ele>
        <time>2010-05-14T09:06:57Z</time>
      </trkpt>
      <trkpt lat="48.72502" lon="1.73452">
        <ele>129</ele>
        <time>2010-05-14T09:06:57Z</time>
      </trkpt>
      <trkpt lat="48.72499" lon="1.73452">
        <ele>129</ele>
        <time>2010-05-14T09:06:58Z</time>
      </trkpt>
      <trkpt lat="48.72495" lon="1.73451">
        <ele>129</ele>
        <time>2010-05-14T09:06:59Z</time>
      </trkpt>
      <trkpt lat="48.72492" lon="1.7345">
        <ele>129</ele>
        <time>2010-05-14T09:07:00Z</time>
      </trkpt>
      <trkpt lat="48.72489" lon="1.7345">
        <ele>129</ele>
        <time>2010-05-14T09:07:02Z</time>
      </trkpt>
      <trkpt lat="48.72484" lon="1.73449">
        <ele>129</ele>
        <time>2010-05-14T09:07:02Z</time>
      </trkpt>
      <trkpt lat="48.7248" lon="1.73449">
        <ele>129</ele>
        <time>2010-05-14T09:07:03Z</time>
      </trkpt>
      <trkpt lat="48.72477" lon="1.73449">
        <ele>129</ele>
        <time>2010-05-14T09:07:04Z</time>
      </trkpt>
      <trkpt lat="48.72474" lon="1.73449">
        <ele>128</ele>
        <time>2010-05-14T09:07:05Z</time>
      </trkpt>
      <trkpt lat="48.7247" lon="1.73447">
        <ele>127</ele>
        <time>2010-05-14T09:07:06Z</time>
      </trkpt>
      <trkpt lat="48.72466" lon="1.73445">
        <ele>126</ele>
        <time>2010-05-14T09:07:07Z</time>
      </trkpt>
      <trkpt lat="48.72462" lon="1.73443">
        <ele>125</ele>
        <time>2010-05-14T09:07:08Z</time>
      </trkpt>
      <trkpt lat="48.72459" lon="1.73443">
        <ele>124</ele>
        <time>2010-05-14T09:07:09Z</time>
      </trkpt>
      <trkpt lat="48.72456" lon="1.73443">
        <ele>123</ele>
        <time>2010-05-14T09:07:10Z</time>
      </trkpt>
      <trkpt lat="48.72453" lon="1.73441">
        <ele>122</ele>
        <time>2010-05-14T09:07:11Z</time>
      </trkpt>
      <trkpt lat="48.7245" lon="1.73439">
        <ele>121</ele>
        <time>2010-05-14T09:07:12Z</time>
      </trkpt>
      <trkpt lat="48.72447" lon="1.73437">
        <ele>120</ele>
        <time>2010-05-14T09:07:13Z</time>
      </trkpt>
      <trkpt lat="48.72443" lon="1.73435">
        <ele>119</ele>
        <time>2010-05-14T09:07:14Z</time>
      </trkpt>
      <trkpt lat="48.72439" lon="1.73433">
        <ele>118</ele>
        <time>2010-05-14T09:07:15Z</time>
      </trkpt>
      <trkpt lat="48.72435" lon="1.73433">
        <ele>117</ele>
        <time>2010-05-14T09:07:17Z</time>
      </trkpt>
      <trkpt lat="48.72432" lon="1.73432">
        <ele>117</ele>
        <time>2010-05-14T09:07:17Z</time>
      </trkpt>
      <trkpt lat="48.72429" lon="1.73431">
        <ele>117</ele>
        <time>2010-05-14T09:07:18Z</time>
      </trkpt>
      <trkpt lat="48.72426" lon="1.73431">
        <ele>117</ele>
        <time>2010-05-14T09:07:19Z</time>
      </trkpt>
      <trkpt lat="48.72423" lon="1.7343">
        <ele>117</ele>
        <time>2010-05-14T09:07:20Z</time>
      </trkpt>
      <trkpt lat="48.7242" lon="1.7343">
        <ele>117</ele>
        <time>2010-05-14T09:07:22Z</time>
      </trkpt>
      <trkpt lat="48.72417" lon="1.7343">
        <ele>117</ele>
        <time>2010-05-14T09:07:22Z</time>
      </trkpt>
      <trkpt lat="48.72414" lon="1.7343">
        <ele>117</ele>
        <time>2010-05-14T09:07:23Z</time>
      </trkpt>
      <trkpt lat="48.72412" lon="1.73429">
        <ele>117</ele>
        <time>2010-05-14T09:07:24Z</time>
      </trkpt>
      <trkpt lat="48.72408" lon="1.73427">
        <ele>117</ele>
        <time>2010-05-14T09:07:25Z</time>
      </trkpt>
      <trkpt lat="48.72405" lon="1.73427">
        <ele>117</ele>
        <time>2010-05-14T09:07:26Z</time>
      </trkpt>
      <trkpt lat="48.724" lon="1.73426">
        <ele>117</ele>
        <time>2010-05-14T09:07:27Z</time>
      </trkpt>
      <trkpt lat="48.72398" lon="1.73426">
        <ele>117</ele>
        <time>2010-05-14T09:07:28Z</time>
      </trkpt>
      <trkpt lat="48.72391" lon="1.73426">
        <ele>117</ele>
        <time>2010-05-14T09:07:32Z</time>
      </trkpt>
      <trkpt lat="48.72384" lon="1.73425">
        <ele>117</ele>
        <time>2010-05-14T09:07:32Z</time>
      </trkpt>
      <trkpt lat="48.7238" lon="1.73424">
        <ele>117</ele>
        <time>2010-05-14T09:07:33Z</time>
      </trkpt>
      <trkpt lat="48.72374" lon="1.73423">
        <ele>117</ele>
        <time>2010-05-14T09:07:34Z</time>
      </trkpt>
      <trkpt lat="48.72368" lon="1.73422">
        <ele>117</ele>
        <time>2010-05-14T09:07:35Z</time>
      </trkpt>
      <trkpt lat="48.72366" lon="1.7342">
        <ele>117</ele>
        <time>2010-05-14T09:07:36Z</time>
      </trkpt>
      <trkpt lat="48.72363" lon="1.73419">
        <ele>117</ele>
        <time>2010-05-14T09:07:37Z</time>
      </trkpt>
      <trkpt lat="48.72361" lon="1.73417">
        <ele>117</ele>
        <time>2010-05-14T09:07:38Z</time>
      </trkpt>
      <trkpt lat="48.72359" lon="1.73417">
        <ele>117</ele>
        <time>2010-05-14T09:07:39Z</time>
      </trkpt>
      <trkpt lat="48.72355" lon="1.73416">
        <ele>117</ele>
        <time>2010-05-14T09:07:40Z</time>
      </trkpt>
      <trkpt lat="48.72348" lon="1.73415">
        <ele>117</ele>
        <time>2010-05-14T09:07:43Z</time>
      </trkpt>
      <trkpt lat="48.72342" lon="1.73417">
        <ele>117</ele>
        <time>2010-05-14T09:07:44Z</time>
      </trkpt>
      <trkpt lat="48.72337" lon="1.73418">
        <ele>117</ele>
        <time>2010-05-14T09:07:45Z</time>
      </trkpt>
      <trkpt lat="48.72333" lon="1.7342">
        <ele>117</ele>
        <time>2010-05-14T09:07:46Z</time>
      </trkpt>
      <trkpt lat="48.72328" lon="1.73419">
        <ele>117</ele>
        <time>2010-05-14T09:07:47Z</time>
      </trkpt>
      <trkpt lat="48.72323" lon="1.73418">
        <ele>117</ele>
        <time>2010-05-14T09:07:49Z</time>
      </trkpt>
      <trkpt lat="48.72319" lon="1.73417">
        <ele>117</ele>
        <time>2010-05-14T09:07:49Z</time>
      </trkpt>
      <trkpt lat="48.72315" lon="1.73415">
        <ele>117</ele>
        <time>2010-05-14T09:07:50Z</time>
      </trkpt>
      <trkpt lat="48.72312" lon="1.73414">
        <ele>117</ele>
        <time>2010-05-14T09:07:51Z</time>
      </trkpt>
      <trkpt lat="48.7231" lon="1.73413">
        <ele>117</ele>
        <time>2010-05-14T09:07:52Z</time>
      </trkpt>
      <trkpt lat="48.72306" lon="1.73411">
        <ele>117</ele>
        <time>2010-05-14T09:07:53Z</time>
      </trkpt>
      <trkpt lat="48.72303" lon="1.73409">
        <ele>117</ele>
        <time>2010-05-14T09:07:54Z</time>
      </trkpt>
      <trkpt lat="48.72301" lon="1.73408">
        <ele>117</ele>
        <time>2010-05-14T09:07:55Z</time>
      </trkpt>
      <trkpt lat="48.72292" lon="1.73406">
        <ele>117</ele>
        <time>2010-05-14T09:07:58Z</time>
      </trkpt>
      <trkpt lat="48.72281" lon="1.73403">
        <ele>117</ele>
        <time>2010-05-14T09:08:01Z</time>
      </trkpt>
      <trkpt lat="48.72272" lon="1.73401">
        <ele>118</ele>
        <time>2010-05-14T09:08:02Z</time>
      </trkpt>
      <trkpt lat="48.72268" lon="1.73397">
        <ele>119</ele>
        <time>2010-05-14T09:08:03Z</time>
      </trkpt>
      <trkpt lat="48.72263" lon="1.73395">
        <ele>120</ele>
        <time>2010-05-14T09:08:04Z</time>
      </trkpt>
      <trkpt lat="48.72258" lon="1.73394">
        <ele>121</ele>
        <time>2010-05-14T09:08:05Z</time>
      </trkpt>
      <trkpt lat="48.72255" lon="1.73394">
        <ele>121</ele>
        <time>2010-05-14T09:08:06Z</time>
      </trkpt>
      <trkpt lat="48.72251" lon="1.73392">
        <ele>121</ele>
        <time>2010-05-14T09:08:07Z</time>
      </trkpt>
      <trkpt lat="48.72249" lon="1.73391">
        <ele>121</ele>
        <time>2010-05-14T09:08:09Z</time>
      </trkpt>
      <trkpt lat="48.72246" lon="1.73389">
        <ele>121</ele>
        <time>2010-05-14T09:08:09Z</time>
      </trkpt>
      <trkpt lat="48.72244" lon="1.73389">
        <ele>121</ele>
        <time>2010-05-14T09:08:10Z</time>
      </trkpt>
      <trkpt lat="48.72241" lon="1.73388">
        <ele>121</ele>
        <time>2010-05-14T09:08:11Z</time>
      </trkpt>
      <trkpt lat="48.72239" lon="1.73388">
        <ele>121</ele>
        <time>2010-05-14T09:08:12Z</time>
      </trkpt>
      <trkpt lat="48.72238" lon="1.73389">
        <ele>121</ele>
        <time>2010-05-14T09:08:13Z</time>
      </trkpt>
      <trkpt lat="48.72237" lon="1.7339">
        <ele>121</ele>
        <time>2010-05-14T09:08:14Z</time>
      </trkpt>
      <trkpt lat="48.72235" lon="1.73391">
        <ele>121</ele>
        <time>2010-05-14T09:08:16Z</time>
      </trkpt>
      <trkpt lat="48.72234" lon="1.73393">
        <ele>121</ele>
        <time>2010-05-14T09:08:17Z</time>
      </trkpt>
      <trkpt lat="48.72232" lon="1.73394">
        <ele>121</ele>
        <time>2010-05-14T09:08:19Z</time>
      </trkpt>
      <trkpt lat="48.72229" lon="1.73394">
        <ele>121</ele>
        <time>2010-05-14T09:08:21Z</time>
      </trkpt>
      <trkpt lat="48.72226" lon="1.73394">
        <ele>121</ele>
        <time>2010-05-14T09:08:22Z</time>
      </trkpt>
      <trkpt lat="48.72224" lon="1.73395">
        <ele>121</ele>
        <time>2010-05-14T09:08:23Z</time>
      </trkpt>
      <trkpt lat="48.72221" lon="1.73396">
        <ele>121</ele>
        <time>2010-05-14T09:08:25Z</time>
      </trkpt>
      <trkpt lat="48.7222" lon="1.73397">
        <ele>121</ele>
        <time>2010-05-14T09:08:26Z</time>
      </trkpt>
      <trkpt lat="48.72218" lon="1.73396">
        <ele>121</ele>
        <time>2010-05-14T09:08:27Z</time>
      </trkpt>
      <trkpt lat="48.72216" lon="1.73396">
        <ele>121</ele>
        <time>2010-05-14T09:08:28Z</time>
      </trkpt>
      <trkpt lat="48.72215" lon="1.73396">
        <ele>121</ele>
        <time>2010-05-14T09:08:29Z</time>
      </trkpt>
      <trkpt lat="48.72213" lon="1.73396">
        <ele>121</ele>
        <time>2010-05-14T09:08:30Z</time>
      </trkpt>
      <trkpt lat="48.72212" lon="1.73397">
        <ele>121</ele>
        <time>2010-05-14T09:08:31Z</time>
      </trkpt>
      <trkpt lat="48.72211" lon="1.73396">
        <ele>121</ele>
        <time>2010-05-14T09:08:32Z</time>
      </trkpt>
      <trkpt lat="48.72209" lon="1.73396">
        <ele>121</ele>
        <time>2010-05-14T09:08:33Z</time>
      </trkpt>
      <trkpt lat="48.72206" lon="1.73397">
        <ele>122</ele>
        <time>2010-05-14T09:08:34Z</time>
      </trkpt>
      <trkpt lat="48.72204" lon="1.73397">
        <ele>122</ele>
        <time>2010-05-14T09:08:35Z</time>
      </trkpt>
      <trkpt lat="48.72202" lon="1.73398">
        <ele>122</ele>
        <time>2010-05-14T09:08:36Z</time>
      </trkpt>
      <trkpt lat="48.722" lon="1.73399">
        <ele>122</ele>
        <time>2010-05-14T09:08:37Z</time>
      </trkpt>
      <trkpt lat="48.72199" lon="1.734">
        <ele>122</ele>
        <time>2010-05-14T09:08:38Z</time>
      </trkpt>
      <trkpt lat="48.72197" lon="1.73401">
        <ele>122</ele>
        <time>2010-05-14T09:08:39Z</time>
      </trkpt>
      <trkpt lat="48.72195" lon="1.73401">
        <ele>122</ele>
        <time>2010-05-14T09:08:40Z</time>
      </trkpt>
      <trkpt lat="48.72194" lon="1.73402">
        <ele>122</ele>
        <time>2010-05-14T09:08:41Z</time>
      </trkpt>
      <trkpt lat="48.72191" lon="1.73403">
        <ele>122</ele>
        <time>2010-05-14T09:08:42Z</time>
      </trkpt>
      <trkpt lat="48.7219" lon="1.73403">
        <ele>122</ele>
        <time>2010-05-14T09:08:43Z</time>
      </trkpt>
      <trkpt lat="48.72188" lon="1.73404">
        <ele>123</ele>
        <time>2010-05-14T09:08:44Z</time>
      </trkpt>
      <trkpt lat="48.72186" lon="1.73405">
        <ele>123</ele>
        <time>2010-05-14T09:08:45Z</time>
      </trkpt>
      <trkpt lat="48.72184" lon="1.73405">
        <ele>124</ele>
        <time>2010-05-14T09:08:46Z</time>
      </trkpt>
      <trkpt lat="48.72182" lon="1.73406">
        <ele>124</ele>
        <time>2010-05-14T09:08:47Z</time>
      </trkpt>
      <trkpt lat="48.72181" lon="1.73406">
        <ele>125</ele>
        <time>2010-05-14T09:08:48Z</time>
      </trkpt>
      <trkpt lat="48.72179" lon="1.73408">
        <ele>125</ele>
        <time>2010-05-14T09:08:49Z</time>
      </trkpt>
      <trkpt lat="48.72178" lon="1.73408">
        <ele>126</ele>
        <time>2010-05-14T09:08:50Z</time>
      </trkpt>
      <trkpt lat="48.72175" lon="1.73408">
        <ele>126</ele>
        <time>2010-05-14T09:08:51Z</time>
      </trkpt>
      <trkpt lat="48.72174" lon="1.73407">
        <ele>127</ele>
        <time>2010-05-14T09:08:52Z</time>
      </trkpt>
      <trkpt lat="48.72172" lon="1.73407">
        <ele>127</ele>
        <time>2010-05-14T09:08:53Z</time>
      </trkpt>
      <trkpt lat="48.7217" lon="1.73407">
        <ele>128</ele>
        <time>2010-05-14T09:08:54Z</time>
      </trkpt>
      <trkpt lat="48.72169" lon="1.73407">
        <ele>128</ele>
        <time>2010-05-14T09:08:55Z</time>
      </trkpt>
      <trkpt lat="48.72167" lon="1.73407">
        <ele>128</ele>
        <time>2010-05-14T09:08:57Z</time>
      </trkpt>
      <trkpt lat="48.72165" lon="1.73407">
        <ele>128</ele>
        <time>2010-05-14T09:08:59Z</time>
      </trkpt>
      <trkpt lat="48.72162" lon="1.73407">
        <ele>128</ele>
        <time>2010-05-14T09:09:00Z</time>
      </trkpt>
      <trkpt lat="48.7216" lon="1.73408">
        <ele>128</ele>
        <time>2010-05-14T09:09:01Z</time>
      </trkpt>
      <trkpt lat="48.72158" lon="1.7341">
        <ele>128</ele>
        <time>2010-05-14T09:09:03Z</time>
      </trkpt>
      <trkpt lat="48.72156" lon="1.73412">
        <ele>128</ele>
        <time>2010-05-14T09:09:05Z</time>
      </trkpt>
      <trkpt lat="48.72155" lon="1.73411">
        <ele>128</ele>
        <time>2010-05-14T09:09:06Z</time>
      </trkpt>
      <trkpt lat="48.72153" lon="1.73411">
        <ele>128</ele>
        <time>2010-05-14T09:09:07Z</time>
      </trkpt>
      <trkpt lat="48.72151" lon="1.73411">
        <ele>128</ele>
        <time>2010-05-14T09:09:08Z</time>
      </trkpt>
      <trkpt lat="48.72149" lon="1.73411">
        <ele>128</ele>
        <time>2010-05-14T09:09:09Z</time>
      </trkpt>
      <trkpt lat="48.72148" lon="1.73411">
        <ele>128</ele>
        <time>2010-05-14T09:09:10Z</time>
      </trkpt>
      <trkpt lat="48.72146" lon="1.73411">
        <ele>128</ele>
        <time>2010-05-14T09:09:11Z</time>
      </trkpt>
      <trkpt lat="48.72145" lon="1.73411">
        <ele>129</ele>
        <time>2010-05-14T09:09:12Z</time>
      </trkpt>
      <trkpt lat="48.72143" lon="1.7341">
        <ele>129</ele>
        <time>2010-05-14T09:09:13Z</time>
      </trkpt>
      <trkpt lat="48.72142" lon="1.7341">
        <ele>129</ele>
        <time>2010-05-14T09:09:14Z</time>
      </trkpt>
      <trkpt lat="48.72141" lon="1.7341">
        <ele>129</ele>
        <time>2010-05-14T09:09:15Z</time>
      </trkpt>
      <trkpt lat="48.72138" lon="1.7341">
        <ele>129</ele>
        <time>2010-05-14T09:09:17Z</time>
      </trkpt>
      <trkpt lat="48.72136" lon="1.73409">
        <ele>129</ele>
        <time>2010-05-14T09:09:18Z</time>
      </trkpt>
      <trkpt lat="48.72135" lon="1.73409">
        <ele>129</ele>
        <time>2010-05-14T09:09:19Z</time>
      </trkpt>
      <trkpt lat="48.72133" lon="1.73408">
        <ele>129</ele>
        <time>2010-05-14T09:09:20Z</time>
      </trkpt>
      <trkpt lat="48.72131" lon="1.73408">
        <ele>129</ele>
        <time>2010-05-14T09:09:21Z</time>
      </trkpt>
      <trkpt lat="48.7213" lon="1.73407">
        <ele>129</ele>
        <time>2010-05-14T09:09:22Z</time>
      </trkpt>
      <trkpt lat="48.72129" lon="1.73407">
        <ele>129</ele>
        <time>2010-05-14T09:09:23Z</time>
      </trkpt>
      <trkpt lat="48.72127" lon="1.73406">
        <ele>129</ele>
        <time>2010-05-14T09:09:25Z</time>
      </trkpt>
      <trkpt lat="48.72124" lon="1.73406">
        <ele>129</ele>
        <time>2010-05-14T09:09:27Z</time>
      </trkpt>
      <trkpt lat="48.72123" lon="1.73405">
        <ele>129</ele>
        <time>2010-05-14T09:09:28Z</time>
      </trkpt>
      <trkpt lat="48.72121" lon="1.73405">
        <ele>129</ele>
        <time>2010-05-14T09:09:29Z</time>
      </trkpt>
      <trkpt lat="48.72119" lon="1.73405">
        <ele>129</ele>
        <time>2010-05-14T09:09:32Z</time>
      </trkpt>
      <trkpt lat="48.72116" lon="1.73406">
        <ele>129</ele>
        <time>2010-05-14T09:09:33Z</time>
      </trkpt>
      <trkpt lat="48.72115" lon="1.73406">
        <ele>129</ele>
        <time>2010-05-14T09:09:34Z</time>
      </trkpt>
      <trkpt lat="48.72114" lon="1.73407">
        <ele>129</ele>
        <time>2010-05-14T09:09:36Z</time>
      </trkpt>
      <trkpt lat="48.72111" lon="1.73409">
        <ele>129</ele>
        <time>2010-05-14T09:09:38Z</time>
      </trkpt>
      <trkpt lat="48.7211" lon="1.7341">
        <ele>129</ele>
        <time>2010-05-14T09:09:39Z</time>
      </trkpt>
      <trkpt lat="48.72108" lon="1.73411">
        <ele>129</ele>
        <time>2010-05-14T09:09:40Z</time>
      </trkpt>
      <trkpt lat="48.72106" lon="1.73412">
        <ele>129</ele>
        <time>2010-05-14T09:09:41Z</time>
      </trkpt>
      <trkpt lat="48.72104" lon="1.73413">
        <ele>129</ele>
        <time>2010-05-14T09:09:42Z</time>
      </trkpt>
      <trkpt lat="48.72102" lon="1.73413">
        <ele>129</ele>
        <time>2010-05-14T09:09:43Z</time>
      </trkpt>
      <trkpt lat="48.721" lon="1.73413">
        <ele>129</ele>
        <time>2010-05-14T09:09:44Z</time>
      </trkpt>
      <trkpt lat="48.72098" lon="1.73413">
        <ele>129</ele>
        <time>2010-05-14T09:09:45Z</time>
      </trkpt>
      <trkpt lat="48.72095" lon="1.73413">
        <ele>129</ele>
        <time>2010-05-14T09:09:46Z</time>
      </trkpt>
      <trkpt lat="48.72093" lon="1.73414">
        <ele>129</ele>
        <time>2010-05-14T09:09:47Z</time>
      </trkpt>
      <trkpt lat="48.7209" lon="1.73414">
        <ele>128</ele>
        <time>2010-05-14T09:09:48Z</time>
      </trkpt>
      <trkpt lat="48.72084" lon="1.73415">
        <ele>128</ele>
        <time>2010-05-14T09:09:52Z</time>
      </trkpt>
      <trkpt lat="48.7208" lon="1.73418">
        <ele>127</ele>
        <time>2010-05-14T09:09:52Z</time>
      </trkpt>
      <trkpt lat="48.72076" lon="1.73419">
        <ele>127</ele>
        <time>2010-05-14T09:09:53Z</time>
      </trkpt>
      <trkpt lat="48.72073" lon="1.7342">
        <ele>126</ele>
        <time>2010-05-14T09:09:54Z</time>
      </trkpt>
      <trkpt lat="48.72069" lon="1.7342">
        <ele>125</ele>
        <time>2010-05-14T09:09:55Z</time>
      </trkpt>
      <trkpt lat="48.72064" lon="1.73421">
        <ele>124</ele>
        <time>2010-05-14T09:09:56Z</time>
      </trkpt>
      <trkpt lat="48.72059" lon="1.73421">
        <ele>124</ele>
        <time>2010-05-14T09:09:57Z</time>
      </trkpt>
      <trkpt lat="48.72054" lon="1.73422">
        <ele>124</ele>
        <time>2010-05-14T09:09:58Z</time>
      </trkpt>
      <trkpt lat="48.7205" lon="1.73423">
        <ele>124</ele>
        <time>2010-05-14T09:09:59Z</time>
      </trkpt>
      <trkpt lat="48.72048" lon="1.73425">
        <ele>124</ele>
        <time>2010-05-14T09:10:00Z</time>
      </trkpt>
      <trkpt lat="48.72044" lon="1.73427">
        <ele>124</ele>
        <time>2010-05-14T09:10:01Z</time>
      </trkpt>
      <trkpt lat="48.7204" lon="1.73428">
        <ele>124</ele>
        <time>2010-05-14T09:10:02Z</time>
      </trkpt>
      <trkpt lat="48.72037" lon="1.73429">
        <ele>124</ele>
        <time>2010-05-14T09:10:03Z</time>
      </trkpt>
      <trkpt lat="48.72033" lon="1.73431">
        <ele>124</ele>
        <time>2010-05-14T09:10:04Z</time>
      </trkpt>
      <trkpt lat="48.72028" lon="1.73432">
        <ele>124</ele>
        <time>2010-05-14T09:10:05Z</time>
      </trkpt>
      <trkpt lat="48.72022" lon="1.73434">
        <ele>124</ele>
        <time>2010-05-14T09:10:06Z</time>
      </trkpt>
      <trkpt lat="48.72016" lon="1.73434">
        <ele>124</ele>
        <time>2010-05-14T09:10:07Z</time>
      </trkpt>
      <trkpt lat="48.72012" lon="1.73434">
        <ele>124</ele>
        <time>2010-05-14T09:10:08Z</time>
      </trkpt>
      <trkpt lat="48.72007" lon="1.73435">
        <ele>125</ele>
        <time>2010-05-14T09:10:09Z</time>
      </trkpt>
      <trkpt lat="48.72003" lon="1.73437">
        <ele>126</ele>
        <time>2010-05-14T09:10:10Z</time>
      </trkpt>
      <trkpt lat="48.71998" lon="1.73437">
        <ele>127</ele>
        <time>2010-05-14T09:10:11Z</time>
      </trkpt>
      <trkpt lat="48.71994" lon="1.73438">
        <ele>127</ele>
        <time>2010-05-14T09:10:12Z</time>
      </trkpt>
      <trkpt lat="48.71991" lon="1.7344">
        <ele>127</ele>
        <time>2010-05-14T09:10:13Z</time>
      </trkpt>
      <trkpt lat="48.71987" lon="1.73442">
        <ele>127</ele>
        <time>2010-05-14T09:10:14Z</time>
      </trkpt>
      <trkpt lat="48.71984" lon="1.73444">
        <ele>127</ele>
        <time>2010-05-14T09:10:15Z</time>
      </trkpt>
      <trkpt lat="48.71981" lon="1.73444">
        <ele>127</ele>
        <time>2010-05-14T09:10:16Z</time>
      </trkpt>
      <trkpt lat="48.71979" lon="1.73446">
        <ele>127</ele>
        <time>2010-05-14T09:10:17Z</time>
      </trkpt>
      <trkpt lat="48.71976" lon="1.73445">
        <ele>127</ele>
        <time>2010-05-14T09:10:18Z</time>
      </trkpt>
      <trkpt lat="48.71973" lon="1.73446">
        <ele>127</ele>
        <time>2010-05-14T09:10:19Z</time>
      </trkpt>
      <trkpt lat="48.71971" lon="1.73447">
        <ele>127</ele>
        <time>2010-05-14T09:10:20Z</time>
      </trkpt>
      <trkpt lat="48.71968" lon="1.73448">
        <ele>127</ele>
        <time>2010-05-14T09:10:21Z</time>
      </trkpt>
      <trkpt lat="48.71963" lon="1.73449">
        <ele>127</ele>
        <time>2010-05-14T09:10:22Z</time>
      </trkpt>
      <trkpt lat="48.71958" lon="1.73451">
        <ele>127</ele>
        <time>2010-05-14T09:10:23Z</time>
      </trkpt>
      <trkpt lat="48.71953" lon="1.73452">
        <ele>127</ele>
        <time>2010-05-14T09:10:24Z</time>
      </trkpt>
      <trkpt lat="48.7195" lon="1.73453">
        <ele>127</ele>
        <time>2010-05-14T09:10:25Z</time>
      </trkpt>
      <trkpt lat="48.71946" lon="1.73454">
        <ele>127</ele>
        <time>2010-05-14T09:10:26Z</time>
      </trkpt>
      <trkpt lat="48.71944" lon="1.73454">
        <ele>128</ele>
        <time>2010-05-14T09:10:27Z</time>
      </trkpt>
      <trkpt lat="48.71942" lon="1.73455">
        <ele>129</ele>
        <time>2010-05-14T09:10:28Z</time>
      </trkpt>
      <trkpt lat="48.71939" lon="1.73456">
        <ele>129</ele>
        <time>2010-05-14T09:10:29Z</time>
      </trkpt>
      <trkpt lat="48.71935" lon="1.73458">
        <ele>129</ele>
        <time>2010-05-14T09:10:30Z</time>
      </trkpt>
      <trkpt lat="48.71931" lon="1.73459">
        <ele>129</ele>
        <time>2010-05-14T09:10:31Z</time>
      </trkpt>
      <trkpt lat="48.71925" lon="1.7346">
        <ele>129</ele>
        <time>2010-05-14T09:10:32Z</time>
      </trkpt>
      <trkpt lat="48.71919" lon="1.73461">
        <ele>129</ele>
        <time>2010-05-14T09:10:33Z</time>
      </trkpt>
      <trkpt lat="48.71913" lon="1.73463">
        <ele>130</ele>
        <time>2010-05-14T09:10:34Z</time>
      </trkpt>
      <trkpt lat="48.71909" lon="1.73465">
        <ele>131</ele>
        <time>2010-05-14T09:10:35Z</time>
      </trkpt>
      <trkpt lat="48.71906" lon="1.73466">
        <ele>132</ele>
        <time>2010-05-14T09:10:36Z</time>
      </trkpt>
      <trkpt lat="48.71902" lon="1.73466">
        <ele>133</ele>
        <time>2010-05-14T09:10:37Z</time>
      </trkpt>
      <trkpt lat="48.71898" lon="1.73467">
        <ele>133</ele>
        <time>2010-05-14T09:10:38Z</time>
      </trkpt>
      <trkpt lat="48.71894" lon="1.73468">
        <ele>134</ele>
        <time>2010-05-14T09:10:39Z</time>
      </trkpt>
      <trkpt lat="48.7189" lon="1.73469">
        <ele>134</ele>
        <time>2010-05-14T09:10:40Z</time>
      </trkpt>
      <trkpt lat="48.71887" lon="1.73469">
        <ele>134</ele>
        <time>2010-05-14T09:10:41Z</time>
      </trkpt>
      <trkpt lat="48.71884" lon="1.73469">
        <ele>134</ele>
        <time>2010-05-14T09:10:42Z</time>
      </trkpt>
      <trkpt lat="48.7188" lon="1.7347">
        <ele>134</ele>
        <time>2010-05-14T09:10:43Z</time>
      </trkpt>
      <trkpt lat="48.71877" lon="1.73469">
        <ele>134</ele>
        <time>2010-05-14T09:10:44Z</time>
      </trkpt>
      <trkpt lat="48.71873" lon="1.7347">
        <ele>134</ele>
        <time>2010-05-14T09:10:45Z</time>
      </trkpt>
      <trkpt lat="48.7187" lon="1.73471">
        <ele>134</ele>
        <time>2010-05-14T09:10:46Z</time>
      </trkpt>
      <trkpt lat="48.71867" lon="1.73471">
        <ele>134</ele>
        <time>2010-05-14T09:10:47Z</time>
      </trkpt>
      <trkpt lat="48.71864" lon="1.73472">
        <ele>134</ele>
        <time>2010-05-14T09:10:48Z</time>
      </trkpt>
      <trkpt lat="48.71861" lon="1.73472">
        <ele>134</ele>
        <time>2010-05-14T09:10:49Z</time>
      </trkpt>
      <trkpt lat="48.71858" lon="1.73472">
        <ele>134</ele>
        <time>2010-05-14T09:10:50Z</time>
      </trkpt>
      <trkpt lat="48.71854" lon="1.73473">
        <ele>134</ele>
        <time>2010-05-14T09:10:51Z</time>
      </trkpt>
      <trkpt lat="48.71849" lon="1.73474">
        <ele>134</ele>
        <time>2010-05-14T09:10:52Z</time>
      </trkpt>
      <trkpt lat="48.71845" lon="1.73476">
        <ele>134</ele>
        <time>2010-05-14T09:10:53Z</time>
      </trkpt>
      <trkpt lat="48.7184" lon="1.73479">
        <ele>134</ele>
        <time>2010-05-14T09:10:54Z</time>
      </trkpt>
      <trkpt lat="48.71835" lon="1.73481">
        <ele>134</ele>
        <time>2010-05-14T09:10:55Z</time>
      </trkpt>
      <trkpt lat="48.7183" lon="1.73482">
        <ele>134</ele>
        <time>2010-05-14T09:10:56Z</time>
      </trkpt>
      <trkpt lat="48.71826" lon="1.73482">
        <ele>134</ele>
        <time>2010-05-14T09:10:57Z</time>
      </trkpt>
      <trkpt lat="48.71822" lon="1.73483">
        <ele>134</ele>
        <time>2010-05-14T09:10:58Z</time>
      </trkpt>
      <trkpt lat="48.7182" lon="1.73483">
        <ele>134</ele>
        <time>2010-05-14T09:10:59Z</time>
      </trkpt>
      <trkpt lat="48.71817" lon="1.73484">
        <ele>134</ele>
        <time>2010-05-14T09:11:00Z</time>
      </trkpt>
      <trkpt lat="48.71814" lon="1.73485">
        <ele>134</ele>
        <time>2010-05-14T09:11:01Z</time>
      </trkpt>
      <trkpt lat="48.71811" lon="1.73486">
        <ele>134</ele>
        <time>2010-05-14T09:11:02Z</time>
      </trkpt>
      <trkpt lat="48.71807" lon="1.73487">
        <ele>134</ele>
        <time>2010-05-14T09:11:03Z</time>
      </trkpt>
      <trkpt lat="48.71803" lon="1.73488">
        <ele>134</ele>
        <time>2010-05-14T09:11:04Z</time>
      </trkpt>
      <trkpt lat="48.71799" lon="1.73488">
        <ele>134</ele>
        <time>2010-05-14T09:11:05Z</time>
      </trkpt>
      <trkpt lat="48.71794" lon="1.73489">
        <ele>135</ele>
        <time>2010-05-14T09:11:06Z</time>
      </trkpt>
      <trkpt lat="48.7179" lon="1.73489">
        <ele>135</ele>
        <time>2010-05-14T09:11:07Z</time>
      </trkpt>
      <trkpt lat="48.71785" lon="1.7349">
        <ele>135</ele>
        <time>2010-05-14T09:11:08Z</time>
      </trkpt>
      <trkpt lat="48.71782" lon="1.73491">
        <ele>135</ele>
        <time>2010-05-14T09:11:09Z</time>
      </trkpt>
      <trkpt lat="48.71779" lon="1.73492">
        <ele>135</ele>
        <time>2010-05-14T09:11:10Z</time>
      </trkpt>
      <trkpt lat="48.71776" lon="1.73494">
        <ele>135</ele>
        <time>2010-05-14T09:11:11Z</time>
      </trkpt>
      <trkpt lat="48.71772" lon="1.73495">
        <ele>135</ele>
        <time>2010-05-14T09:11:12Z</time>
      </trkpt>
      <trkpt lat="48.71769" lon="1.73496">
        <ele>135</ele>
        <time>2010-05-14T09:11:13Z</time>
      </trkpt>
      <trkpt lat="48.71766" lon="1.73498">
        <ele>135</ele>
        <time>2010-05-14T09:11:14Z</time>
      </trkpt>
      <trkpt lat="48.71763" lon="1.73498">
        <ele>136</ele>
        <time>2010-05-14T09:11:15Z</time>
      </trkpt>
      <trkpt lat="48.71759" lon="1.73499">
        <ele>137</ele>
        <time>2010-05-14T09:11:16Z</time>
      </trkpt>
      <trkpt lat="48.71757" lon="1.73499">
        <ele>137</ele>
        <time>2010-05-14T09:11:17Z</time>
      </trkpt>
      <trkpt lat="48.71755" lon="1.73501">
        <ele>138</ele>
        <time>2010-05-14T09:11:18Z</time>
      </trkpt>
      <trkpt lat="48.71753" lon="1.73502">
        <ele>138</ele>
        <time>2010-05-14T09:11:19Z</time>
      </trkpt>
      <trkpt lat="48.71752" lon="1.73503">
        <ele>138</ele>
        <time>2010-05-14T09:11:20Z</time>
      </trkpt>
      <trkpt lat="48.7175" lon="1.73503">
        <ele>138</ele>
        <time>2010-05-14T09:11:21Z</time>
      </trkpt>
      <trkpt lat="48.71748" lon="1.73504">
        <ele>138</ele>
        <time>2010-05-14T09:11:22Z</time>
      </trkpt>
      <trkpt lat="48.71745" lon="1.73505">
        <ele>138</ele>
        <time>2010-05-14T09:11:23Z</time>
      </trkpt>
      <trkpt lat="48.71742" lon="1.73505">
        <ele>138</ele>
        <time>2010-05-14T09:11:24Z</time>
      </trkpt>
      <trkpt lat="48.71739" lon="1.73505">
        <ele>138</ele>
        <time>2010-05-14T09:11:25Z</time>
      </trkpt>
      <trkpt lat="48.71735" lon="1.73505">
        <ele>138</ele>
        <time>2010-05-14T09:11:26Z</time>
      </trkpt>
      <trkpt lat="48.71732" lon="1.73505">
        <ele>138</ele>
        <time>2010-05-14T09:11:27Z</time>
      </trkpt>
      <trkpt lat="48.71728" lon="1.73505">
        <ele>138</ele>
        <time>2010-05-14T09:11:28Z</time>
      </trkpt>
      <trkpt lat="48.71724" lon="1.73505">
        <ele>138</ele>
        <time>2010-05-14T09:11:29Z</time>
      </trkpt>
      <trkpt lat="48.71721" lon="1.73506">
        <ele>138</ele>
        <time>2010-05-14T09:11:30Z</time>
      </trkpt>
      <trkpt lat="48.71718" lon="1.73506">
        <ele>138</ele>
        <time>2010-05-14T09:11:31Z</time>
      </trkpt>
      <trkpt lat="48.71715" lon="1.73507">
        <ele>138</ele>
        <time>2010-05-14T09:11:32Z</time>
      </trkpt>
      <trkpt lat="48.71712" lon="1.73507">
        <ele>138</ele>
        <time>2010-05-14T09:11:33Z</time>
      </trkpt>
      <trkpt lat="48.71709" lon="1.73507">
        <ele>138</ele>
        <time>2010-05-14T09:11:34Z</time>
      </trkpt>
      <trkpt lat="48.71706" lon="1.73507">
        <ele>138</ele>
        <time>2010-05-14T09:11:35Z</time>
      </trkpt>
      <trkpt lat="48.71702" lon="1.73507">
        <ele>138</ele>
        <time>2010-05-14T09:11:36Z</time>
      </trkpt>
      <trkpt lat="48.71698" lon="1.73507">
        <ele>138</ele>
        <time>2010-05-14T09:11:37Z</time>
      </trkpt>
      <trkpt lat="48.71694" lon="1.73507">
        <ele>138</ele>
        <time>2010-05-14T09:11:38Z</time>
      </trkpt>
      <trkpt lat="48.7169" lon="1.73508">
        <ele>138</ele>
        <time>2010-05-14T09:11:39Z</time>
      </trkpt>
      <trkpt lat="48.71686" lon="1.73509">
        <ele>138</ele>
        <time>2010-05-14T09:11:40Z</time>
      </trkpt>
      <trkpt lat="48.71682" lon="1.7351">
        <ele>138</ele>
        <time>2010-05-14T09:11:41Z</time>
      </trkpt>
      <trkpt lat="48.71679" lon="1.7351">
        <ele>138</ele>
        <time>2010-05-14T09:11:42Z</time>
      </trkpt>
      <trkpt lat="48.71675" lon="1.73512">
        <ele>138</ele>
        <time>2010-05-14T09:11:43Z</time>
      </trkpt>
      <trkpt lat="48.71672" lon="1.73513">
        <ele>138</ele>
        <time>2010-05-14T09:11:44Z</time>
      </trkpt>
      <trkpt lat="48.71667" lon="1.73515">
        <ele>138</ele>
        <time>2010-05-14T09:11:45Z</time>
      </trkpt>
      <trkpt lat="48.71663" lon="1.73516">
        <ele>138</ele>
        <time>2010-05-14T09:11:46Z</time>
      </trkpt>
      <trkpt lat="48.7166" lon="1.73517">
        <ele>138</ele>
        <time>2010-05-14T09:11:47Z</time>
      </trkpt>
      <trkpt lat="48.71656" lon="1.73518">
        <ele>138</ele>
        <time>2010-05-14T09:11:48Z</time>
      </trkpt>
      <trkpt lat="48.71651" lon="1.7352">
        <ele>138</ele>
        <time>2010-05-14T09:11:49Z</time>
      </trkpt>
      <trkpt lat="48.71646" lon="1.73521">
        <ele>138</ele>
        <time>2010-05-14T09:11:50Z</time>
      </trkpt>
      <trkpt lat="48.71642" lon="1.73523">
        <ele>138</ele>
        <time>2010-05-14T09:11:51Z</time>
      </trkpt>
      <trkpt lat="48.71639" lon="1.73524">
        <ele>138</ele>
        <time>2010-05-14T09:11:52Z</time>
      </trkpt>
      <trkpt lat="48.71635" lon="1.73525">
        <ele>138</ele>
        <time>2010-05-14T09:11:53Z</time>
      </trkpt>
      <trkpt lat="48.71632" lon="1.73525">
        <ele>138</ele>
        <time>2010-05-14T09:11:54Z</time>
      </trkpt>
      <trkpt lat="48.71629" lon="1.73527">
        <ele>138</ele>
        <time>2010-05-14T09:11:55Z</time>
      </trkpt>
      <trkpt lat="48.71626" lon="1.73528">
        <ele>138</ele>
        <time>2010-05-14T09:11:56Z</time>
      </trkpt>
      <trkpt lat="48.71624" lon="1.73528">
        <ele>138</ele>
        <time>2010-05-14T09:11:57Z</time>
      </trkpt>
      <trkpt lat="48.71621" lon="1.73528">
        <ele>138</ele>
        <time>2010-05-14T09:11:58Z</time>
      </trkpt>
      <trkpt lat="48.71618" lon="1.73529">
        <ele>138</ele>
        <time>2010-05-14T09:11:59Z</time>
      </trkpt>
      <trkpt lat="48.71616" lon="1.73529">
        <ele>138</ele>
        <time>2010-05-14T09:12:00Z</time>
      </trkpt>
      <trkpt lat="48.71612" lon="1.7353">
        <ele>138</ele>
        <time>2010-05-14T09:12:01Z</time>
      </trkpt>
      <trkpt lat="48.71608" lon="1.73531">
        <ele>138</ele>
        <time>2010-05-14T09:12:02Z</time>
      </trkpt>
      <trkpt lat="48.71605" lon="1.73531">
        <ele>138</ele>
        <time>2010-05-14T09:12:03Z</time>
      </trkpt>
      <trkpt lat="48.71602" lon="1.73532">
        <ele>138</ele>
        <time>2010-05-14T09:12:04Z</time>
      </trkpt>
      <trkpt lat="48.71599" lon="1.73532">
        <ele>138</ele>
        <time>2010-05-14T09:12:05Z</time>
      </trkpt>
      <trkpt lat="48.71596" lon="1.73533">
        <ele>138</ele>
        <time>2010-05-14T09:12:06Z</time>
      </trkpt>
      <trkpt lat="48.71593" lon="1.73533">
        <ele>138</ele>
        <time>2010-05-14T09:12:07Z</time>
      </trkpt>
      <trkpt lat="48.7159" lon="1.73533">
        <ele>138</ele>
        <time>2010-05-14T09:12:08Z</time>
      </trkpt>
      <trkpt lat="48.71587" lon="1.73534">
        <ele>138</ele>
        <time>2010-05-14T09:12:09Z</time>
      </trkpt>
      <trkpt lat="48.71584" lon="1.73533">
        <ele>138</ele>
        <time>2010-05-14T09:12:10Z</time>
      </trkpt>
      <trkpt lat="48.71581" lon="1.73533">
        <ele>138</ele>
        <time>2010-05-14T09:12:11Z</time>
      </trkpt>
      <trkpt lat="48.71579" lon="1.73534">
        <ele>138</ele>
        <time>2010-05-14T09:12:12Z</time>
      </trkpt>
      <trkpt lat="48.71576" lon="1.73534">
        <ele>138</ele>
        <time>2010-05-14T09:12:13Z</time>
      </trkpt>
      <trkpt lat="48.71574" lon="1.73535">
        <ele>138</ele>
        <time>2010-05-14T09:12:14Z</time>
      </trkpt>
      <trkpt lat="48.71572" lon="1.73536">
        <ele>138</ele>
        <time>2010-05-14T09:12:15Z</time>
      </trkpt>
      <trkpt lat="48.71569" lon="1.73538">
        <ele>138</ele>
        <time>2010-05-14T09:12:16Z</time>
      </trkpt>
      <trkpt lat="48.71567" lon="1.73538">
        <ele>138</ele>
        <time>2010-05-14T09:12:17Z</time>
      </trkpt>
      <trkpt lat="48.71564" lon="1.73539">
        <ele>138</ele>
        <time>2010-05-14T09:12:18Z</time>
      </trkpt>
      <trkpt lat="48.71559" lon="1.7354">
        <ele>138</ele>
        <time>2010-05-14T09:12:19Z</time>
      </trkpt>
      <trkpt lat="48.71555" lon="1.73541">
        <ele>138</ele>
        <time>2010-05-14T09:12:20Z</time>
      </trkpt>
      <trkpt lat="48.71552" lon="1.73542">
        <ele>138</ele>
        <time>2010-05-14T09:12:21Z</time>
      </trkpt>
      <trkpt lat="48.71548" lon="1.73543">
        <ele>139</ele>
        <time>2010-05-14T09:12:22Z</time>
      </trkpt>
      <trkpt lat="48.71544" lon="1.73545">
        <ele>140</ele>
        <time>2010-05-14T09:12:23Z</time>
      </trkpt>
      <trkpt lat="48.71541" lon="1.73546">
        <ele>141</ele>
        <time>2010-05-14T09:12:24Z</time>
      </trkpt>
      <trkpt lat="48.71536" lon="1.73548">
        <ele>142</ele>
        <time>2010-05-14T09:12:25Z</time>
      </trkpt>
      <trkpt lat="48.71532" lon="1.7355">
        <ele>143</ele>
        <time>2010-05-14T09:12:26Z</time>
      </trkpt>
      <trkpt lat="48.71529" lon="1.73551">
        <ele>144</ele>
        <time>2010-05-14T09:12:27Z</time>
      </trkpt>
      <trkpt lat="48.71527" lon="1.73552">
        <ele>145</ele>
        <time>2010-05-14T09:12:28Z</time>
      </trkpt>
      <trkpt lat="48.71524" lon="1.73552">
        <ele>146</ele>
        <time>2010-05-14T09:12:29Z</time>
      </trkpt>
      <trkpt lat="48.71522" lon="1.73553">
        <ele>147</ele>
        <time>2010-05-14T09:12:30Z</time>
      </trkpt>
      <trkpt lat="48.71519" lon="1.73555">
        <ele>148</ele>
        <time>2010-05-14T09:12:31Z</time>
      </trkpt>
      <trkpt lat="48.71515" lon="1.73556">
        <ele>149</ele>
        <time>2010-05-14T09:12:32Z</time>
      </trkpt>
      <trkpt lat="48.71511" lon="1.73557">
        <ele>150</ele>
        <time>2010-05-14T09:12:33Z</time>
      </trkpt>
      <trkpt lat="48.71509" lon="1.73557">
        <ele>151</ele>
        <time>2010-05-14T09:12:34Z</time>
      </trkpt>
      <trkpt lat="48.71506" lon="1.73558">
        <ele>152</ele>
        <time>2010-05-14T09:12:35Z</time>
      </trkpt>
      <trkpt lat="48.71503" lon="1.7356">
        <ele>153</ele>
        <time>2010-05-14T09:12:36Z</time>
      </trkpt>
      <trkpt lat="48.715" lon="1.7356">
        <ele>154</ele>
        <time>2010-05-14T09:12:37Z</time>
      </trkpt>
      <trkpt lat="48.71496" lon="1.7356">
        <ele>154</ele>
        <time>2010-05-14T09:12:38Z</time>
      </trkpt>
      <trkpt lat="48.71493" lon="1.73561">
        <ele>154</ele>
        <time>2010-05-14T09:12:39Z</time>
      </trkpt>
      <trkpt lat="48.7149" lon="1.73562">
        <ele>154</ele>
        <time>2010-05-14T09:12:40Z</time>
      </trkpt>
      <trkpt lat="48.71487" lon="1.73562">
        <ele>154</ele>
        <time>2010-05-14T09:12:41Z</time>
      </trkpt>
      <trkpt lat="48.71483" lon="1.73563">
        <ele>154</ele>
        <time>2010-05-14T09:12:42Z</time>
      </trkpt>
      <trkpt lat="48.71479" lon="1.73563">
        <ele>154</ele>
        <time>2010-05-14T09:12:43Z</time>
      </trkpt>
      <trkpt lat="48.71476" lon="1.73563">
        <ele>154</ele>
        <time>2010-05-14T09:12:44Z</time>
      </trkpt>
      <trkpt lat="48.71472" lon="1.73564">
        <ele>154</ele>
        <time>2010-05-14T09:12:45Z</time>
      </trkpt>
      <trkpt lat="48.71468" lon="1.73563">
        <ele>154</ele>
        <time>2010-05-14T09:12:46Z</time>
      </trkpt>
      <trkpt lat="48.71464" lon="1.73562">
        <ele>154</ele>
        <time>2010-05-14T09:12:47Z</time>
      </trkpt>
      <trkpt lat="48.71462" lon="1.73564">
        <ele>154</ele>
        <time>2010-05-14T09:12:48Z</time>
      </trkpt>
      <trkpt lat="48.71459" lon="1.73564">
        <ele>154</ele>
        <time>2010-05-14T09:12:49Z</time>
      </trkpt>
      <trkpt lat="48.71457" lon="1.73566">
        <ele>154</ele>
        <time>2010-05-14T09:12:50Z</time>
      </trkpt>
      <trkpt lat="48.71453" lon="1.73567">
        <ele>154</ele>
        <time>2010-05-14T09:12:51Z</time>
      </trkpt>
      <trkpt lat="48.7145" lon="1.73568">
        <ele>154</ele>
        <time>2010-05-14T09:12:52Z</time>
      </trkpt>
      <trkpt lat="48.71448" lon="1.73569">
        <ele>154</ele>
        <time>2010-05-14T09:12:53Z</time>
      </trkpt>
      <trkpt lat="48.71445" lon="1.7357">
        <ele>154</ele>
        <time>2010-05-14T09:12:54Z</time>
      </trkpt>
      <trkpt lat="48.71442" lon="1.7357">
        <ele>154</ele>
        <time>2010-05-14T09:12:55Z</time>
      </trkpt>
      <trkpt lat="48.71439" lon="1.7357">
        <ele>155</ele>
        <time>2010-05-14T09:12:56Z</time>
      </trkpt>
      <trkpt lat="48.71436" lon="1.7357">
        <ele>155</ele>
        <time>2010-05-14T09:12:57Z</time>
      </trkpt>
      <trkpt lat="48.71432" lon="1.73572">
        <ele>155</ele>
        <time>2010-05-14T09:12:58Z</time>
      </trkpt>
      <trkpt lat="48.71428" lon="1.73572">
        <ele>155</ele>
        <time>2010-05-14T09:12:59Z</time>
      </trkpt>
      <trkpt lat="48.71425" lon="1.73572">
        <ele>155</ele>
        <time>2010-05-14T09:13:00Z</time>
      </trkpt>
      <trkpt lat="48.71422" lon="1.73573">
        <ele>156</ele>
        <time>2010-05-14T09:13:01Z</time>
      </trkpt>
      <trkpt lat="48.71419" lon="1.73573">
        <ele>156</ele>
        <time>2010-05-14T09:13:02Z</time>
      </trkpt>
      <trkpt lat="48.71416" lon="1.73574">
        <ele>156</ele>
        <time>2010-05-14T09:13:03Z</time>
      </trkpt>
      <trkpt lat="48.71413" lon="1.73575">
        <ele>156</ele>
        <time>2010-05-14T09:13:04Z</time>
      </trkpt>
      <trkpt lat="48.7141" lon="1.73576">
        <ele>156</ele>
        <time>2010-05-14T09:13:05Z</time>
      </trkpt>
      <trkpt lat="48.71407" lon="1.73577">
        <ele>156</ele>
        <time>2010-05-14T09:13:06Z</time>
      </trkpt>
      <trkpt lat="48.71404" lon="1.73578">
        <ele>156</ele>
        <time>2010-05-14T09:13:07Z</time>
      </trkpt>
      <trkpt lat="48.71401" lon="1.73579">
        <ele>156</ele>
        <time>2010-05-14T09:13:08Z</time>
      </trkpt>
      <trkpt lat="48.71396" lon="1.73578">
        <ele>157</ele>
        <time>2010-05-14T09:13:09Z</time>
      </trkpt>
      <trkpt lat="48.71393" lon="1.73576">
        <ele>157</ele>
        <time>2010-05-14T09:13:10Z</time>
      </trkpt>
      <trkpt lat="48.7139" lon="1.73575">
        <ele>157</ele>
        <time>2010-05-14T09:13:11Z</time>
      </trkpt>
      <trkpt lat="48.71383" lon="1.73573">
        <ele>157</ele>
        <time>2010-05-14T09:13:14Z</time>
      </trkpt>
      <trkpt lat="48.71377" lon="1.73569">
        <ele>157</ele>
        <time>2010-05-14T09:13:15Z</time>
      </trkpt>
      <trkpt lat="48.71374" lon="1.73566">
        <ele>157</ele>
        <time>2010-05-14T09:13:16Z</time>
      </trkpt>
      <trkpt lat="48.71371" lon="1.73563">
        <ele>157</ele>
        <time>2010-05-14T09:13:17Z</time>
      </trkpt>
      <trkpt lat="48.71368" lon="1.73561">
        <ele>157</ele>
        <time>2010-05-14T09:13:18Z</time>
      </trkpt>
      <trkpt lat="48.71366" lon="1.7356">
        <ele>157</ele>
        <time>2010-05-14T09:13:19Z</time>
      </trkpt>
      <trkpt lat="48.71364" lon="1.73557">
        <ele>158</ele>
        <time>2010-05-14T09:13:20Z</time>
      </trkpt>
      <trkpt lat="48.71361" lon="1.73554">
        <ele>159</ele>
        <time>2010-05-14T09:13:21Z</time>
      </trkpt>
      <trkpt lat="48.71359" lon="1.73551">
        <ele>160</ele>
        <time>2010-05-14T09:13:22Z</time>
      </trkpt>
      <trkpt lat="48.71357" lon="1.73549">
        <ele>160</ele>
        <time>2010-05-14T09:13:23Z</time>
      </trkpt>
      <trkpt lat="48.71354" lon="1.73547">
        <ele>161</ele>
        <time>2010-05-14T09:13:24Z</time>
      </trkpt>
      <trkpt lat="48.71349" lon="1.73543">
        <ele>161</ele>
        <time>2010-05-14T09:13:27Z</time>
      </trkpt>
      <trkpt lat="48.71345" lon="1.73535">
        <ele>161</ele>
        <time>2010-05-14T09:13:28Z</time>
      </trkpt>
      <trkpt lat="48.71343" lon="1.73532">
        <ele>161</ele>
        <time>2010-05-14T09:13:29Z</time>
      </trkpt>
      <trkpt lat="48.71339" lon="1.7353">
        <ele>161</ele>
        <time>2010-05-14T09:13:30Z</time>
      </trkpt>
      <trkpt lat="48.71336" lon="1.7353">
        <ele>161</ele>
        <time>2010-05-14T09:13:31Z</time>
      </trkpt>
      <trkpt lat="48.71333" lon="1.7353">
        <ele>162</ele>
        <time>2010-05-14T09:13:32Z</time>
      </trkpt>
      <trkpt lat="48.71331" lon="1.73531">
        <ele>163</ele>
        <time>2010-05-14T09:13:33Z</time>
      </trkpt>
      <trkpt lat="48.71329" lon="1.73533">
        <ele>164</ele>
        <time>2010-05-14T09:13:34Z</time>
      </trkpt>
      <trkpt lat="48.71327" lon="1.73535">
        <ele>165</ele>
        <time>2010-05-14T09:13:35Z</time>
      </trkpt>
      <trkpt lat="48.71323" lon="1.73536">
        <ele>166</ele>
        <time>2010-05-14T09:13:36Z</time>
      </trkpt>
      <trkpt lat="48.71321" lon="1.73538">
        <ele>167</ele>
        <time>2010-05-14T09:13:37Z</time>
      </trkpt>
      <trkpt lat="48.71317" lon="1.73542">
        <ele>168</ele>
        <time>2010-05-14T09:13:38Z</time>
      </trkpt>
      <trkpt lat="48.71312" lon="1.73547">
        <ele>168</ele>
        <time>2010-05-14T09:13:39Z</time>
      </trkpt>
      <trkpt lat="48.71309" lon="1.73553">
        <ele>169</ele>
        <time>2010-05-14T09:13:40Z</time>
      </trkpt>
      <trkpt lat="48.71307" lon="1.73557">
        <ele>169</ele>
        <time>2010-05-14T09:13:41Z</time>
      </trkpt>
      <trkpt lat="48.71305" lon="1.73562">
        <ele>170</ele>
        <time>2010-05-14T09:13:42Z</time>
      </trkpt>
      <trkpt lat="48.71303" lon="1.73567">
        <ele>171</ele>
        <time>2010-05-14T09:13:43Z</time>
      </trkpt>
      <trkpt lat="48.713" lon="1.73572">
        <ele>172</ele>
        <time>2010-05-14T09:13:44Z</time>
      </trkpt>
      <trkpt lat="48.71298" lon="1.73578">
        <ele>173</ele>
        <time>2010-05-14T09:13:45Z</time>
      </trkpt>
      <trkpt lat="48.71296" lon="1.73583">
        <ele>174</ele>
        <time>2010-05-14T09:13:46Z</time>
      </trkpt>
      <trkpt lat="48.71292" lon="1.73585">
        <ele>175</ele>
        <time>2010-05-14T09:13:47Z</time>
      </trkpt>
      <trkpt lat="48.71291" lon="1.73589">
        <ele>176</ele>
        <time>2010-05-14T09:13:48Z</time>
      </trkpt>
      <trkpt lat="48.7129" lon="1.73592">
        <ele>176</ele>
        <time>2010-05-14T09:13:49Z</time>
      </trkpt>
      <trkpt lat="48.71288" lon="1.73596">
        <ele>176</ele>
        <time>2010-05-14T09:13:50Z</time>
      </trkpt>
      <trkpt lat="48.71285" lon="1.73599">
        <ele>176</ele>
        <time>2010-05-14T09:13:51Z</time>
      </trkpt>
      <trkpt lat="48.71283" lon="1.73603">
        <ele>176</ele>
        <time>2010-05-14T09:13:52Z</time>
      </trkpt>
      <trkpt lat="48.7128" lon="1.73605">
        <ele>176</ele>
        <time>2010-05-14T09:13:53Z</time>
      </trkpt>
      <trkpt lat="48.71276" lon="1.73607">
        <ele>176</ele>
        <time>2010-05-14T09:13:54Z</time>
      </trkpt>
      <trkpt lat="48.71274" lon="1.73608">
        <ele>176</ele>
        <time>2010-05-14T09:13:55Z</time>
      </trkpt>
      <trkpt lat="48.71271" lon="1.73609">
        <ele>177</ele>
        <time>2010-05-14T09:13:56Z</time>
      </trkpt>
      <trkpt lat="48.71267" lon="1.7361">
        <ele>177</ele>
        <time>2010-05-14T09:13:57Z</time>
      </trkpt>
      <trkpt lat="48.71264" lon="1.73611">
        <ele>177</ele>
        <time>2010-05-14T09:13:58Z</time>
      </trkpt>
      <trkpt lat="48.71261" lon="1.73611">
        <ele>177</ele>
        <time>2010-05-14T09:13:59Z</time>
      </trkpt>
      <trkpt lat="48.71258" lon="1.73612">
        <ele>177</ele>
        <time>2010-05-14T09:14:00Z</time>
      </trkpt>
      <trkpt lat="48.71255" lon="1.73612">
        <ele>177</ele>
        <time>2010-05-14T09:14:01Z</time>
      </trkpt>
      <trkpt lat="48.71252" lon="1.73613">
        <ele>177</ele>
        <time>2010-05-14T09:14:02Z</time>
      </trkpt>
      <trkpt lat="48.71249" lon="1.73614">
        <ele>177</ele>
        <time>2010-05-14T09:14:03Z</time>
      </trkpt>
      <trkpt lat="48.71246" lon="1.73615">
        <ele>177</ele>
        <time>2010-05-14T09:14:04Z</time>
      </trkpt>
      <trkpt lat="48.71242" lon="1.73615">
        <ele>177</ele>
        <time>2010-05-14T09:14:05Z</time>
      </trkpt>
      <trkpt lat="48.71239" lon="1.73615">
        <ele>177</ele>
        <time>2010-05-14T09:14:06Z</time>
      </trkpt>
      <trkpt lat="48.71236" lon="1.73616">
        <ele>177</ele>
        <time>2010-05-14T09:14:07Z</time>
      </trkpt>
      <trkpt lat="48.71233" lon="1.73616">
        <ele>177</ele>
        <time>2010-05-14T09:14:08Z</time>
      </trkpt>
      <trkpt lat="48.7123" lon="1.73615">
        <ele>177</ele>
        <time>2010-05-14T09:14:09Z</time>
      </trkpt>
      <trkpt lat="48.71227" lon="1.73615">
        <ele>177</ele>
        <time>2010-05-14T09:14:10Z</time>
      </trkpt>
      <trkpt lat="48.71224" lon="1.73614">
        <ele>177</ele>
        <time>2010-05-14T09:14:11Z</time>
      </trkpt>
      <trkpt lat="48.71221" lon="1.73613">
        <ele>177</ele>
        <time>2010-05-14T09:14:12Z</time>
      </trkpt>
      <trkpt lat="48.71218" lon="1.73612">
        <ele>177</ele>
        <time>2010-05-14T09:14:13Z</time>
      </trkpt>
      <trkpt lat="48.71216" lon="1.73611">
        <ele>177</ele>
        <time>2010-05-14T09:14:14Z</time>
      </trkpt>
      <trkpt lat="48.71214" lon="1.73609">
        <ele>177</ele>
        <time>2010-05-14T09:14:15Z</time>
      </trkpt>
      <trkpt lat="48.71212" lon="1.73607">
        <ele>177</ele>
        <time>2010-05-14T09:14:16Z</time>
      </trkpt>
      <trkpt lat="48.71211" lon="1.73607">
        <ele>177</ele>
        <time>2010-05-14T09:14:17Z</time>
      </trkpt>
      <trkpt lat="48.7121" lon="1.73606">
        <ele>177</ele>
        <time>2010-05-14T09:14:18Z</time>
      </trkpt>
      <trkpt lat="48.71209" lon="1.73606">
        <ele>177</ele>
        <time>2010-05-14T09:14:19Z</time>
      </trkpt>
      <trkpt lat="48.71207" lon="1.73605">
        <ele>177</ele>
        <time>2010-05-14T09:14:21Z</time>
      </trkpt>
      <trkpt lat="48.71206" lon="1.73604">
        <ele>177</ele>
        <time>2010-05-14T09:14:22Z</time>
      </trkpt>
      <trkpt lat="48.71205" lon="1.73604">
        <ele>177</ele>
        <time>2010-05-14T09:14:25Z</time>
      </trkpt>
      <trkpt lat="48.71204" lon="1.73603">
        <ele>177</ele>
        <time>2010-05-14T09:14:27Z</time>
      </trkpt>
      <trkpt lat="48.71203" lon="1.73601">
        <ele>177</ele>
        <time>2010-05-14T09:14:29Z</time>
      </trkpt>
      <trkpt lat="48.71204" lon="1.73603">
        <ele>177</ele>
        <time>2010-05-14T09:14:32Z</time>
      </trkpt>
      <trkpt lat="48.71204" lon="1.73605">
        <ele>177</ele>
        <time>2010-05-14T09:14:34Z</time>
      </trkpt>
      <trkpt lat="48.71204" lon="1.73609">
        <ele>177</ele>
        <time>2010-05-14T09:14:36Z</time>
      </trkpt>
      <trkpt lat="48.71203" lon="1.7361">
        <ele>177</ele>
        <time>2010-05-14T09:14:37Z</time>
      </trkpt>
      <trkpt lat="48.71203" lon="1.73612">
        <ele>177</ele>
        <time>2010-05-14T09:14:40Z</time>
      </trkpt>
      <trkpt lat="48.71202" lon="1.73612">
        <ele>178</ele>
        <time>2010-05-14T09:14:44Z</time>
      </trkpt>
      <trkpt lat="48.71203" lon="1.7361">
        <ele>182</ele>
        <time>2010-05-14T09:14:59Z</time>
      </trkpt>
      <trkpt lat="48.71202" lon="1.73612">
        <ele>184</ele>
        <time>2010-05-14T09:15:03Z</time>
      </trkpt>
      <trkpt lat="48.71201" lon="1.73614">
        <ele>186</ele>
        <time>2010-05-14T09:15:05Z</time>
      </trkpt>
      <trkpt lat="48.71199" lon="1.73615">
        <ele>188</ele>
        <time>2010-05-14T09:15:07Z</time>
      </trkpt>
      <trkpt lat="48.71198" lon="1.73615">
        <ele>193</ele>
        <time>2010-05-14T09:15:12Z</time>
      </trkpt>
      <trkpt lat="48.71196" lon="1.73614">
        <ele>194</ele>
        <time>2010-05-14T09:15:14Z</time>
      </trkpt>
      <trkpt lat="48.71195" lon="1.73614">
        <ele>194</ele>
        <time>2010-05-14T09:15:16Z</time>
      </trkpt>
      <trkpt lat="48.71194" lon="1.73615">
        <ele>194</ele>
        <time>2010-05-14T09:15:18Z</time>
      </trkpt>
      <trkpt lat="48.71195" lon="1.73617">
        <ele>193</ele>
        <time>2010-05-14T09:15:20Z</time>
      </trkpt>
      <trkpt lat="48.71195" lon="1.73619">
        <ele>191</ele>
        <time>2010-05-14T09:15:22Z</time>
      </trkpt>
      <trkpt lat="48.71194" lon="1.73621">
        <ele>189</ele>
        <time>2010-05-14T09:15:24Z</time>
      </trkpt>
      <trkpt lat="48.71193" lon="1.73623">
        <ele>188</ele>
        <time>2010-05-14T09:15:26Z</time>
      </trkpt>
      <trkpt lat="48.71192" lon="1.73625">
        <ele>187</ele>
        <time>2010-05-14T09:15:28Z</time>
      </trkpt>
      <trkpt lat="48.71192" lon="1.73627">
        <ele>187</ele>
        <time>2010-05-14T09:15:29Z</time>
      </trkpt>
      <trkpt lat="48.7119" lon="1.73628">
        <ele>186</ele>
        <time>2010-05-14T09:15:30Z</time>
      </trkpt>
      <trkpt lat="48.71188" lon="1.73629">
        <ele>186</ele>
        <time>2010-05-14T09:15:31Z</time>
      </trkpt>
      <trkpt lat="48.71186" lon="1.73629">
        <ele>186</ele>
        <time>2010-05-14T09:15:32Z</time>
      </trkpt>
      <trkpt lat="48.71185" lon="1.7363">
        <ele>186</ele>
        <time>2010-05-14T09:15:33Z</time>
      </trkpt>
      <trkpt lat="48.71183" lon="1.73632">
        <ele>186</ele>
        <time>2010-05-14T09:15:35Z</time>
      </trkpt>
      <trkpt lat="48.71181" lon="1.73634">
        <ele>186</ele>
        <time>2010-05-14T09:15:37Z</time>
      </trkpt>
      <trkpt lat="48.71179" lon="1.73635">
        <ele>186</ele>
        <time>2010-05-14T09:15:38Z</time>
      </trkpt>
      <trkpt lat="48.71177" lon="1.73636">
        <ele>186</ele>
        <time>2010-05-14T09:15:39Z</time>
      </trkpt>
      <trkpt lat="48.71176" lon="1.73638">
        <ele>186</ele>
        <time>2010-05-14T09:15:40Z</time>
      </trkpt>
      <trkpt lat="48.71174" lon="1.7364">
        <ele>185</ele>
        <time>2010-05-14T09:15:42Z</time>
      </trkpt>
      <trkpt lat="48.71173" lon="1.73641">
        <ele>184</ele>
        <time>2010-05-14T09:15:43Z</time>
      </trkpt>
      <trkpt lat="48.71171" lon="1.73643">
        <ele>184</ele>
        <time>2010-05-14T09:15:45Z</time>
      </trkpt>
      <trkpt lat="48.71168" lon="1.73644">
        <ele>183</ele>
        <time>2010-05-14T09:15:46Z</time>
      </trkpt>
      <trkpt lat="48.71166" lon="1.73646">
        <ele>183</ele>
        <time>2010-05-14T09:15:47Z</time>
      </trkpt>
      <trkpt lat="48.71165" lon="1.73648">
        <ele>183</ele>
        <time>2010-05-14T09:15:48Z</time>
      </trkpt>
      <trkpt lat="48.71164" lon="1.73649">
        <ele>183</ele>
        <time>2010-05-14T09:15:49Z</time>
      </trkpt>
      <trkpt lat="48.71162" lon="1.73651">
        <ele>183</ele>
        <time>2010-05-14T09:15:50Z</time>
      </trkpt>
      <trkpt lat="48.7116" lon="1.73653">
        <ele>183</ele>
        <time>2010-05-14T09:15:51Z</time>
      </trkpt>
      <trkpt lat="48.71159" lon="1.73654">
        <ele>183</ele>
        <time>2010-05-14T09:15:52Z</time>
      </trkpt>
      <trkpt lat="48.71158" lon="1.73655">
        <ele>183</ele>
        <time>2010-05-14T09:15:53Z</time>
      </trkpt>
      <trkpt lat="48.71155" lon="1.73657">
        <ele>182</ele>
        <time>2010-05-14T09:15:55Z</time>
      </trkpt>
      <trkpt lat="48.71153" lon="1.73658">
        <ele>182</ele>
        <time>2010-05-14T09:15:56Z</time>
      </trkpt>
      <trkpt lat="48.71151" lon="1.7366">
        <ele>182</ele>
        <time>2010-05-14T09:15:57Z</time>
      </trkpt>
      <trkpt lat="48.71149" lon="1.73661">
        <ele>181</ele>
        <time>2010-05-14T09:15:58Z</time>
      </trkpt>
      <trkpt lat="48.71148" lon="1.73663">
        <ele>181</ele>
        <time>2010-05-14T09:15:59Z</time>
      </trkpt>
      <trkpt lat="48.71146" lon="1.73664">
        <ele>181</ele>
        <time>2010-05-14T09:16:00Z</time>
      </trkpt>
      <trkpt lat="48.71145" lon="1.73666">
        <ele>181</ele>
        <time>2010-05-14T09:16:01Z</time>
      </trkpt>
      <trkpt lat="48.71143" lon="1.73668">
        <ele>181</ele>
        <time>2010-05-14T09:16:02Z</time>
      </trkpt>
      <trkpt lat="48.71143" lon="1.7367">
        <ele>181</ele>
        <time>2010-05-14T09:16:03Z</time>
      </trkpt>
      <trkpt lat="48.71142" lon="1.73672">
        <ele>181</ele>
        <time>2010-05-14T09:16:04Z</time>
      </trkpt>
      <trkpt lat="48.71141" lon="1.73674">
        <ele>181</ele>
        <time>2010-05-14T09:16:05Z</time>
      </trkpt>
      <trkpt lat="48.71139" lon="1.73677">
        <ele>181</ele>
        <time>2010-05-14T09:16:07Z</time>
      </trkpt>
      <trkpt lat="48.71138" lon="1.73678">
        <ele>181</ele>
        <time>2010-05-14T09:16:08Z</time>
      </trkpt>
      <trkpt lat="48.71137" lon="1.73679">
        <ele>181</ele>
        <time>2010-05-14T09:16:09Z</time>
      </trkpt>
      <trkpt lat="48.71134" lon="1.73681">
        <ele>181</ele>
        <time>2010-05-14T09:16:11Z</time>
      </trkpt>
      <trkpt lat="48.71132" lon="1.73682">
        <ele>181</ele>
        <time>2010-05-14T09:16:12Z</time>
      </trkpt>
      <trkpt lat="48.7113" lon="1.73684">
        <ele>181</ele>
        <time>2010-05-14T09:16:13Z</time>
      </trkpt>
      <trkpt lat="48.71129" lon="1.73685">
        <ele>181</ele>
        <time>2010-05-14T09:16:14Z</time>
      </trkpt>
      <trkpt lat="48.71128" lon="1.73687">
        <ele>181</ele>
        <time>2010-05-14T09:16:15Z</time>
      </trkpt>
      <trkpt lat="48.71126" lon="1.73689">
        <ele>181</ele>
        <time>2010-05-14T09:16:17Z</time>
      </trkpt>
      <trkpt lat="48.71125" lon="1.7369">
        <ele>181</ele>
        <time>2010-05-14T09:16:18Z</time>
      </trkpt>
      <trkpt lat="48.71122" lon="1.73692">
        <ele>181</ele>
        <time>2010-05-14T09:16:20Z</time>
      </trkpt>
      <trkpt lat="48.7112" lon="1.73694">
        <ele>181</ele>
        <time>2010-05-14T09:16:21Z</time>
      </trkpt>
      <trkpt lat="48.71119" lon="1.73696">
        <ele>181</ele>
        <time>2010-05-14T09:16:22Z</time>
      </trkpt>
      <trkpt lat="48.71118" lon="1.73698">
        <ele>181</ele>
        <time>2010-05-14T09:16:23Z</time>
      </trkpt>
      <trkpt lat="48.71117" lon="1.73699">
        <ele>181</ele>
        <time>2010-05-14T09:16:24Z</time>
      </trkpt>
      <trkpt lat="48.71115" lon="1.73701">
        <ele>181</ele>
        <time>2010-05-14T09:16:25Z</time>
      </trkpt>
      <trkpt lat="48.71113" lon="1.73703">
        <ele>181</ele>
        <time>2010-05-14T09:16:26Z</time>
      </trkpt>
      <trkpt lat="48.71111" lon="1.73705">
        <ele>181</ele>
        <time>2010-05-14T09:16:27Z</time>
      </trkpt>
      <trkpt lat="48.71109" lon="1.73706">
        <ele>181</ele>
        <time>2010-05-14T09:16:28Z</time>
      </trkpt>
      <trkpt lat="48.71108" lon="1.73708">
        <ele>181</ele>
        <time>2010-05-14T09:16:29Z</time>
      </trkpt>
      <trkpt lat="48.71107" lon="1.73709">
        <ele>181</ele>
        <time>2010-05-14T09:16:30Z</time>
      </trkpt>
      <trkpt lat="48.71106" lon="1.73711">
        <ele>181</ele>
        <time>2010-05-14T09:16:31Z</time>
      </trkpt>
      <trkpt lat="48.71105" lon="1.73711">
        <ele>181</ele>
        <time>2010-05-14T09:16:32Z</time>
      </trkpt>
      <trkpt lat="48.71103" lon="1.73713">
        <ele>181</ele>
        <time>2010-05-14T09:16:33Z</time>
      </trkpt>
      <trkpt lat="48.71103" lon="1.73715">
        <ele>181</ele>
        <time>2010-05-14T09:16:34Z</time>
      </trkpt>
      <trkpt lat="48.71101" lon="1.73717">
        <ele>181</ele>
        <time>2010-05-14T09:16:35Z</time>
      </trkpt>
      <trkpt lat="48.71099" lon="1.73719">
        <ele>181</ele>
        <time>2010-05-14T09:16:36Z</time>
      </trkpt>
      <trkpt lat="48.71096" lon="1.7372">
        <ele>181</ele>
        <time>2010-05-14T09:16:37Z</time>
      </trkpt>
      <trkpt lat="48.71094" lon="1.73721">
        <ele>181</ele>
        <time>2010-05-14T09:16:38Z</time>
      </trkpt>
      <trkpt lat="48.71092" lon="1.73723">
        <ele>181</ele>
        <time>2010-05-14T09:16:39Z</time>
      </trkpt>
      <trkpt lat="48.7109" lon="1.73726">
        <ele>182</ele>
        <time>2010-05-14T09:16:41Z</time>
      </trkpt>
      <trkpt lat="48.71088" lon="1.73729">
        <ele>182</ele>
        <time>2010-05-14T09:16:42Z</time>
      </trkpt>
      <trkpt lat="48.71087" lon="1.73731">
        <ele>183</ele>
        <time>2010-05-14T09:16:43Z</time>
      </trkpt>
      <trkpt lat="48.71086" lon="1.73732">
        <ele>184</ele>
        <time>2010-05-14T09:16:44Z</time>
      </trkpt>
      <trkpt lat="48.71084" lon="1.73734">
        <ele>185</ele>
        <time>2010-05-14T09:16:45Z</time>
      </trkpt>
      <trkpt lat="48.71083" lon="1.73735">
        <ele>185</ele>
        <time>2010-05-14T09:16:47Z</time>
      </trkpt>
      <trkpt lat="48.71081" lon="1.73737">
        <ele>185</ele>
        <time>2010-05-14T09:16:48Z</time>
      </trkpt>
      <trkpt lat="48.71079" lon="1.73739">
        <ele>185</ele>
        <time>2010-05-14T09:16:50Z</time>
      </trkpt>
      <trkpt lat="48.71077" lon="1.7374">
        <ele>185</ele>
        <time>2010-05-14T09:16:51Z</time>
      </trkpt>
      <trkpt lat="48.71075" lon="1.73741">
        <ele>185</ele>
        <time>2010-05-14T09:16:52Z</time>
      </trkpt>
      <trkpt lat="48.71074" lon="1.73742">
        <ele>185</ele>
        <time>2010-05-14T09:16:53Z</time>
      </trkpt>
      <trkpt lat="48.71072" lon="1.73743">
        <ele>185</ele>
        <time>2010-05-14T09:16:54Z</time>
      </trkpt>
      <trkpt lat="48.7107" lon="1.73745">
        <ele>185</ele>
        <time>2010-05-14T09:16:55Z</time>
      </trkpt>
      <trkpt lat="48.71068" lon="1.73746">
        <ele>185</ele>
        <time>2010-05-14T09:16:57Z</time>
      </trkpt>
      <trkpt lat="48.71067" lon="1.73748">
        <ele>185</ele>
        <time>2010-05-14T09:16:58Z</time>
      </trkpt>
      <trkpt lat="48.71066" lon="1.7375">
        <ele>185</ele>
        <time>2010-05-14T09:16:59Z</time>
      </trkpt>
      <trkpt lat="48.71065" lon="1.73752">
        <ele>185</ele>
        <time>2010-05-14T09:17:00Z</time>
      </trkpt>
      <trkpt lat="48.71062" lon="1.73754">
        <ele>185</ele>
        <time>2010-05-14T09:17:02Z</time>
      </trkpt>
      <trkpt lat="48.71061" lon="1.73755">
        <ele>185</ele>
        <time>2010-05-14T09:17:03Z</time>
      </trkpt>
      <trkpt lat="48.71059" lon="1.73756">
        <ele>185</ele>
        <time>2010-05-14T09:17:04Z</time>
      </trkpt>
      <trkpt lat="48.71058" lon="1.73759">
        <ele>185</ele>
        <time>2010-05-14T09:17:06Z</time>
      </trkpt>
      <trkpt lat="48.71056" lon="1.73761">
        <ele>185</ele>
        <time>2010-05-14T09:17:07Z</time>
      </trkpt>
      <trkpt lat="48.71053" lon="1.73763">
        <ele>185</ele>
        <time>2010-05-14T09:17:08Z</time>
      </trkpt>
      <trkpt lat="48.71052" lon="1.73765">
        <ele>185</ele>
        <time>2010-05-14T09:17:09Z</time>
      </trkpt>
      <trkpt lat="48.7105" lon="1.73766">
        <ele>185</ele>
        <time>2010-05-14T09:17:10Z</time>
      </trkpt>
      <trkpt lat="48.71049" lon="1.73768">
        <ele>185</ele>
        <time>2010-05-14T09:17:11Z</time>
      </trkpt>
      <trkpt lat="48.71046" lon="1.73771">
        <ele>185</ele>
        <time>2010-05-14T09:17:13Z</time>
      </trkpt>
      <trkpt lat="48.71044" lon="1.73774">
        <ele>185</ele>
        <time>2010-05-14T09:17:15Z</time>
      </trkpt>
      <trkpt lat="48.71042" lon="1.73776">
        <ele>185</ele>
        <time>2010-05-14T09:17:16Z</time>
      </trkpt>
      <trkpt lat="48.71041" lon="1.73778">
        <ele>185</ele>
        <time>2010-05-14T09:17:18Z</time>
      </trkpt>
      <trkpt lat="48.71039" lon="1.7378">
        <ele>185</ele>
        <time>2010-05-14T09:17:19Z</time>
      </trkpt>
      <trkpt lat="48.71038" lon="1.73782">
        <ele>185</ele>
        <time>2010-05-14T09:17:20Z</time>
      </trkpt>
      <trkpt lat="48.71036" lon="1.73785">
        <ele>185</ele>
        <time>2010-05-14T09:17:22Z</time>
      </trkpt>
      <trkpt lat="48.71034" lon="1.73786">
        <ele>185</ele>
        <time>2010-05-14T09:17:23Z</time>
      </trkpt>
      <trkpt lat="48.71032" lon="1.73787">
        <ele>185</ele>
        <time>2010-05-14T09:17:24Z</time>
      </trkpt>
      <trkpt lat="48.7103" lon="1.73789">
        <ele>185</ele>
        <time>2010-05-14T09:17:26Z</time>
      </trkpt>
      <trkpt lat="48.71028" lon="1.73792">
        <ele>185</ele>
        <time>2010-05-14T09:17:27Z</time>
      </trkpt>
      <trkpt lat="48.71026" lon="1.73794">
        <ele>185</ele>
        <time>2010-05-14T09:17:28Z</time>
      </trkpt>
      <trkpt lat="48.71025" lon="1.73796">
        <ele>185</ele>
        <time>2010-05-14T09:17:29Z</time>
      </trkpt>
      <trkpt lat="48.71023" lon="1.73797">
        <ele>185</ele>
        <time>2010-05-14T09:17:30Z</time>
      </trkpt>
      <trkpt lat="48.71021" lon="1.73799">
        <ele>185</ele>
        <time>2010-05-14T09:17:31Z</time>
      </trkpt>
      <trkpt lat="48.7102" lon="1.73801">
        <ele>185</ele>
        <time>2010-05-14T09:17:32Z</time>
      </trkpt>
      <trkpt lat="48.71019" lon="1.73802">
        <ele>185</ele>
        <time>2010-05-14T09:17:33Z</time>
      </trkpt>
      <trkpt lat="48.71017" lon="1.73802">
        <ele>185</ele>
        <time>2010-05-14T09:17:34Z</time>
      </trkpt>
      <trkpt lat="48.71015" lon="1.73803">
        <ele>186</ele>
        <time>2010-05-14T09:17:36Z</time>
      </trkpt>
      <trkpt lat="48.71014" lon="1.73804">
        <ele>186</ele>
        <time>2010-05-14T09:17:37Z</time>
      </trkpt>
      <trkpt lat="48.71012" lon="1.73805">
        <ele>186</ele>
        <time>2010-05-14T09:17:39Z</time>
      </trkpt>
      <trkpt lat="48.7101" lon="1.73806">
        <ele>186</ele>
        <time>2010-05-14T09:17:41Z</time>
      </trkpt>
      <trkpt lat="48.71008" lon="1.73808">
        <ele>186</ele>
        <time>2010-05-14T09:17:43Z</time>
      </trkpt>
      <trkpt lat="48.71007" lon="1.7381">
        <ele>186</ele>
        <time>2010-05-14T09:17:45Z</time>
      </trkpt>
      <trkpt lat="48.71007" lon="1.73812">
        <ele>183</ele>
        <time>2010-05-14T09:17:48Z</time>
      </trkpt>
      <trkpt lat="48.71006" lon="1.73814">
        <ele>180</ele>
        <time>2010-05-14T09:17:51Z</time>
      </trkpt>
      <trkpt lat="48.71005" lon="1.73815">
        <ele>179</ele>
        <time>2010-05-14T09:17:55Z</time>
      </trkpt>
      <trkpt lat="48.71004" lon="1.73813">
        <ele>179</ele>
        <time>2010-05-14T09:18:08Z</time>
      </trkpt>
      <trkpt lat="48.71002" lon="1.73812">
        <ele>179</ele>
        <time>2010-05-14T09:18:11Z</time>
      </trkpt>
      <trkpt lat="48.71003" lon="1.73813">
        <ele>179</ele>
        <time>2010-05-14T09:18:14Z</time>
      </trkpt>
      <trkpt lat="48.71004" lon="1.73815">
        <ele>179</ele>
        <time>2010-05-14T09:18:17Z</time>
      </trkpt>
      <trkpt lat="48.71004" lon="1.73817">
        <ele>179</ele>
        <time>2010-05-14T09:18:20Z</time>
      </trkpt>
      <trkpt lat="48.71005" lon="1.73818">
        <ele>179</ele>
        <time>2010-05-14T09:18:25Z</time>
      </trkpt>
      <trkpt lat="48.71007" lon="1.73817">
        <ele>179</ele>
        <time>2010-05-14T09:18:29Z</time>
      </trkpt>
      <trkpt lat="48.71007" lon="1.73819">
        <ele>182</ele>
        <time>2010-05-14T09:18:36Z</time>
      </trkpt>
      <trkpt lat="48.71006" lon="1.73818">
        <ele>183</ele>
        <time>2010-05-14T09:18:39Z</time>
      </trkpt>
      <trkpt lat="48.71004" lon="1.73819">
        <ele>183</ele>
        <time>2010-05-14T09:18:41Z</time>
      </trkpt>
      <trkpt lat="48.71004" lon="1.73821">
        <ele>184</ele>
        <time>2010-05-14T09:18:44Z</time>
      </trkpt>
      <trkpt lat="48.71005" lon="1.73821">
        <ele>185</ele>
        <time>2010-05-14T09:18:45Z</time>
      </trkpt>
      <trkpt lat="48.71007" lon="1.73822">
        <ele>185</ele>
        <time>2010-05-14T09:18:46Z</time>
      </trkpt>
      <trkpt lat="48.71008" lon="1.73823">
        <ele>185</ele>
        <time>2010-05-14T09:18:48Z</time>
      </trkpt>
      <trkpt lat="48.71009" lon="1.73823">
        <ele>185</ele>
        <time>2010-05-14T09:18:50Z</time>
      </trkpt>
      <trkpt lat="48.71008" lon="1.73824">
        <ele>185</ele>
        <time>2010-05-14T09:18:52Z</time>
      </trkpt>
      <trkpt lat="48.71006" lon="1.73823">
        <ele>185</ele>
        <time>2010-05-14T09:18:53Z</time>
      </trkpt>
      <trkpt lat="48.71005" lon="1.73823">
        <ele>185</ele>
        <time>2010-05-14T09:18:54Z</time>
      </trkpt>
      <trkpt lat="48.71004" lon="1.73823">
        <ele>185</ele>
        <time>2010-05-14T09:18:55Z</time>
      </trkpt>
      <trkpt lat="48.71003" lon="1.73822">
        <ele>185</ele>
        <time>2010-05-14T09:18:57Z</time>
      </trkpt>
      <trkpt lat="48.71" lon="1.73821">
        <ele>185</ele>
        <time>2010-05-14T09:19:01Z</time>
      </trkpt>
      <trkpt lat="48.70998" lon="1.73821">
        <ele>185</ele>
        <time>2010-05-14T09:19:05Z</time>
      </trkpt>
      <trkpt lat="48.70997" lon="1.73821">
        <ele>185</ele>
        <time>2010-05-14T09:19:06Z</time>
      </trkpt>
      <trkpt lat="48.70996" lon="1.73821">
        <ele>185</ele>
        <time>2010-05-14T09:19:07Z</time>
      </trkpt>
      <trkpt lat="48.70994" lon="1.7382">
        <ele>186</ele>
        <time>2010-05-14T09:19:09Z</time>
      </trkpt>
      <trkpt lat="48.70998" lon="1.73819">
        <ele>186</ele>
        <time>2010-05-14T09:19:16Z</time>
      </trkpt>
      <trkpt lat="48.71" lon="1.73818">
        <ele>186</ele>
        <time>2010-05-14T09:19:17Z</time>
      </trkpt>
      <trkpt lat="48.71" lon="1.73817">
        <ele>186</ele>
        <time>2010-05-14T09:19:18Z</time>
      </trkpt>
      <trkpt lat="48.71" lon="1.73814">
        <ele>186</ele>
        <time>2010-05-14T09:19:20Z</time>
      </trkpt>
      <trkpt lat="48.70999" lon="1.73812">
        <ele>186</ele>
        <time>2010-05-14T09:19:21Z</time>
      </trkpt>
      <trkpt lat="48.70997" lon="1.73811">
        <ele>185</ele>
        <time>2010-05-14T09:19:22Z</time>
      </trkpt>
      <trkpt lat="48.70996" lon="1.7381">
        <ele>185</ele>
        <time>2010-05-14T09:19:23Z</time>
      </trkpt>
      <trkpt lat="48.70995" lon="1.73809">
        <ele>185</ele>
        <time>2010-05-14T09:19:24Z</time>
      </trkpt>
      <trkpt lat="48.70993" lon="1.73809">
        <ele>185</ele>
        <time>2010-05-14T09:19:25Z</time>
      </trkpt>
      <trkpt lat="48.70992" lon="1.7381">
        <ele>185</ele>
        <time>2010-05-14T09:19:26Z</time>
      </trkpt>
      <trkpt lat="48.7099" lon="1.73809">
        <ele>185</ele>
        <time>2010-05-14T09:19:27Z</time>
      </trkpt>
      <trkpt lat="48.70988" lon="1.73808">
        <ele>185</ele>
        <time>2010-05-14T09:19:28Z</time>
      </trkpt>
      <trkpt lat="48.70987" lon="1.73808">
        <ele>185</ele>
        <time>2010-05-14T09:19:29Z</time>
      </trkpt>
      <trkpt lat="48.70986" lon="1.73807">
        <ele>185</ele>
        <time>2010-05-14T09:19:30Z</time>
      </trkpt>
      <trkpt lat="48.70984" lon="1.73806">
        <ele>185</ele>
        <time>2010-05-14T09:19:31Z</time>
      </trkpt>
      <trkpt lat="48.70982" lon="1.73805">
        <ele>185</ele>
        <time>2010-05-14T09:19:32Z</time>
      </trkpt>
      <trkpt lat="48.70981" lon="1.73805">
        <ele>184</ele>
        <time>2010-05-14T09:19:33Z</time>
      </trkpt>
      <trkpt lat="48.70979" lon="1.73804">
        <ele>183</ele>
        <time>2010-05-14T09:19:34Z</time>
      </trkpt>
      <trkpt lat="48.70978" lon="1.73803">
        <ele>182</ele>
        <time>2010-05-14T09:19:35Z</time>
      </trkpt>
      <trkpt lat="48.70975" lon="1.73802">
        <ele>182</ele>
        <time>2010-05-14T09:19:37Z</time>
      </trkpt>
      <trkpt lat="48.70972" lon="1.73802">
        <ele>181</ele>
        <time>2010-05-14T09:19:38Z</time>
      </trkpt>
      <trkpt lat="48.7097" lon="1.73801">
        <ele>181</ele>
        <time>2010-05-14T09:19:39Z</time>
      </trkpt>
      <trkpt lat="48.70968" lon="1.738">
        <ele>181</ele>
        <time>2010-05-14T09:19:40Z</time>
      </trkpt>
      <trkpt lat="48.70966" lon="1.73799">
        <ele>180</ele>
        <time>2010-05-14T09:19:41Z</time>
      </trkpt>
      <trkpt lat="48.70964" lon="1.73799">
        <ele>180</ele>
        <time>2010-05-14T09:19:42Z</time>
      </trkpt>
      <trkpt lat="48.70963" lon="1.73798">
        <ele>179</ele>
        <time>2010-05-14T09:19:43Z</time>
      </trkpt>
      <trkpt lat="48.70961" lon="1.73797">
        <ele>178</ele>
        <time>2010-05-14T09:19:44Z</time>
      </trkpt>
      <trkpt lat="48.70959" lon="1.73797">
        <ele>178</ele>
        <time>2010-05-14T09:19:45Z</time>
      </trkpt>
      <trkpt lat="48.70958" lon="1.73797">
        <ele>177</ele>
        <time>2010-05-14T09:19:46Z</time>
      </trkpt>
      <trkpt lat="48.70957" lon="1.73797">
        <ele>176</ele>
        <time>2010-05-14T09:19:47Z</time>
      </trkpt>
      <trkpt lat="48.70955" lon="1.73798">
        <ele>175</ele>
        <time>2010-05-14T09:19:49Z</time>
      </trkpt>
      <trkpt lat="48.70954" lon="1.73798">
        <ele>175</ele>
        <time>2010-05-14T09:19:50Z</time>
      </trkpt>
      <trkpt lat="48.70951" lon="1.73798">
        <ele>175</ele>
        <time>2010-05-14T09:19:52Z</time>
      </trkpt>
      <trkpt lat="48.70949" lon="1.73797">
        <ele>175</ele>
        <time>2010-05-14T09:19:53Z</time>
      </trkpt>
      <trkpt lat="48.70947" lon="1.73797">
        <ele>175</ele>
        <time>2010-05-14T09:19:54Z</time>
      </trkpt>
      <trkpt lat="48.70946" lon="1.73798">
        <ele>175</ele>
        <time>2010-05-14T09:19:55Z</time>
      </trkpt>
      <trkpt lat="48.70944" lon="1.73797">
        <ele>175</ele>
        <time>2010-05-14T09:19:56Z</time>
      </trkpt>
      <trkpt lat="48.70942" lon="1.73797">
        <ele>175</ele>
        <time>2010-05-14T09:19:57Z</time>
      </trkpt>
      <trkpt lat="48.7094" lon="1.73797">
        <ele>175</ele>
        <time>2010-05-14T09:19:58Z</time>
      </trkpt>
      <trkpt lat="48.70938" lon="1.73797">
        <ele>175</ele>
        <time>2010-05-14T09:19:59Z</time>
      </trkpt>
      <trkpt lat="48.70937" lon="1.73797">
        <ele>175</ele>
        <time>2010-05-14T09:20:00Z</time>
      </trkpt>
      <trkpt lat="48.70935" lon="1.73797">
        <ele>175</ele>
        <time>2010-05-14T09:20:01Z</time>
      </trkpt>
      <trkpt lat="48.70934" lon="1.73797">
        <ele>175</ele>
        <time>2010-05-14T09:20:02Z</time>
      </trkpt>
      <trkpt lat="48.70932" lon="1.73798">
        <ele>175</ele>
        <time>2010-05-14T09:20:03Z</time>
      </trkpt>
      <trkpt lat="48.70931" lon="1.73797">
        <ele>175</ele>
        <time>2010-05-14T09:20:04Z</time>
      </trkpt>
      <trkpt lat="48.70929" lon="1.73797">
        <ele>175</ele>
        <time>2010-05-14T09:20:05Z</time>
      </trkpt>
      <trkpt lat="48.70927" lon="1.73797">
        <ele>175</ele>
        <time>2010-05-14T09:20:06Z</time>
      </trkpt>
      <trkpt lat="48.70926" lon="1.73798">
        <ele>176</ele>
        <time>2010-05-14T09:20:08Z</time>
      </trkpt>
      <trkpt lat="48.70924" lon="1.738">
        <ele>178</ele>
        <time>2010-05-14T09:20:10Z</time>
      </trkpt>
      <trkpt lat="48.70923" lon="1.738">
        <ele>178</ele>
        <time>2010-05-14T09:20:11Z</time>
      </trkpt>
      <trkpt lat="48.70921" lon="1.738">
        <ele>179</ele>
        <time>2010-05-14T09:20:12Z</time>
      </trkpt>
      <trkpt lat="48.70919" lon="1.73799">
        <ele>179</ele>
        <time>2010-05-14T09:20:13Z</time>
      </trkpt>
      <trkpt lat="48.70918" lon="1.73799">
        <ele>179</ele>
        <time>2010-05-14T09:20:14Z</time>
      </trkpt>
      <trkpt lat="48.70916" lon="1.73798">
        <ele>180</ele>
        <time>2010-05-14T09:20:15Z</time>
      </trkpt>
      <trkpt lat="48.70915" lon="1.73798">
        <ele>180</ele>
        <time>2010-05-14T09:20:16Z</time>
      </trkpt>
      <trkpt lat="48.70913" lon="1.73797">
        <ele>180</ele>
        <time>2010-05-14T09:20:18Z</time>
      </trkpt>
      <trkpt lat="48.70911" lon="1.73796">
        <ele>180</ele>
        <time>2010-05-14T09:20:19Z</time>
      </trkpt>
      <trkpt lat="48.70909" lon="1.73796">
        <ele>180</ele>
        <time>2010-05-14T09:20:20Z</time>
      </trkpt>
      <trkpt lat="48.70907" lon="1.73795">
        <ele>180</ele>
        <time>2010-05-14T09:20:21Z</time>
      </trkpt>
      <trkpt lat="48.70905" lon="1.73794">
        <ele>180</ele>
        <time>2010-05-14T09:20:22Z</time>
      </trkpt>
      <trkpt lat="48.70904" lon="1.73794">
        <ele>180</ele>
        <time>2010-05-14T09:20:23Z</time>
      </trkpt>
      <trkpt lat="48.70902" lon="1.73794">
        <ele>180</ele>
        <time>2010-05-14T09:20:24Z</time>
      </trkpt>
      <trkpt lat="48.70899" lon="1.73794">
        <ele>180</ele>
        <time>2010-05-14T09:20:25Z</time>
      </trkpt>
      <trkpt lat="48.70898" lon="1.73794">
        <ele>180</ele>
        <time>2010-05-14T09:20:26Z</time>
      </trkpt>
      <trkpt lat="48.70896" lon="1.73794">
        <ele>180</ele>
        <time>2010-05-14T09:20:27Z</time>
      </trkpt>
      <trkpt lat="48.70894" lon="1.73795">
        <ele>180</ele>
        <time>2010-05-14T09:20:28Z</time>
      </trkpt>
      <trkpt lat="48.70893" lon="1.73795">
        <ele>180</ele>
        <time>2010-05-14T09:20:29Z</time>
      </trkpt>
      <trkpt lat="48.70891" lon="1.73795">
        <ele>180</ele>
        <time>2010-05-14T09:20:30Z</time>
      </trkpt>
      <trkpt lat="48.7089" lon="1.73796">
        <ele>180</ele>
        <time>2010-05-14T09:20:31Z</time>
      </trkpt>
      <trkpt lat="48.70888" lon="1.73796">
        <ele>180</ele>
        <time>2010-05-14T09:20:32Z</time>
      </trkpt>
      <trkpt lat="48.70886" lon="1.73795">
        <ele>180</ele>
        <time>2010-05-14T09:20:33Z</time>
      </trkpt>
      <trkpt lat="48.70885" lon="1.73795">
        <ele>180</ele>
        <time>2010-05-14T09:20:34Z</time>
      </trkpt>
      <trkpt lat="48.70884" lon="1.73795">
        <ele>180</ele>
        <time>2010-05-14T09:20:35Z</time>
      </trkpt>
      <trkpt lat="48.70882" lon="1.73795">
        <ele>180</ele>
        <time>2010-05-14T09:20:36Z</time>
      </trkpt>
      <trkpt lat="48.70881" lon="1.73795">
        <ele>180</ele>
        <time>2010-05-14T09:20:37Z</time>
      </trkpt>
      <trkpt lat="48.70879" lon="1.73795">
        <ele>180</ele>
        <time>2010-05-14T09:20:38Z</time>
      </trkpt>
      <trkpt lat="48.70877" lon="1.73795">
        <ele>180</ele>
        <time>2010-05-14T09:20:39Z</time>
      </trkpt>
      <trkpt lat="48.70875" lon="1.73795">
        <ele>180</ele>
        <time>2010-05-14T09:20:40Z</time>
      </trkpt>
      <trkpt lat="48.70874" lon="1.73795">
        <ele>180</ele>
        <time>2010-05-14T09:20:41Z</time>
      </trkpt>
      <trkpt lat="48.70872" lon="1.73795">
        <ele>180</ele>
        <time>2010-05-14T09:20:42Z</time>
      </trkpt>
      <trkpt lat="48.70871" lon="1.73794">
        <ele>180</ele>
        <time>2010-05-14T09:20:43Z</time>
      </trkpt>
      <trkpt lat="48.70869" lon="1.73794">
        <ele>180</ele>
        <time>2010-05-14T09:20:44Z</time>
      </trkpt>
      <trkpt lat="48.70868" lon="1.73793">
        <ele>180</ele>
        <time>2010-05-14T09:20:45Z</time>
      </trkpt>
      <trkpt lat="48.70867" lon="1.73793">
        <ele>180</ele>
        <time>2010-05-14T09:20:46Z</time>
      </trkpt>
      <trkpt lat="48.70865" lon="1.73793">
        <ele>180</ele>
        <time>2010-05-14T09:20:47Z</time>
      </trkpt>
      <trkpt lat="48.70863" lon="1.73793">
        <ele>180</ele>
        <time>2010-05-14T09:20:48Z</time>
      </trkpt>
      <trkpt lat="48.70862" lon="1.73792">
        <ele>180</ele>
        <time>2010-05-14T09:20:50Z</time>
      </trkpt>
      <trkpt lat="48.7086" lon="1.73792">
        <ele>180</ele>
        <time>2010-05-14T09:20:50Z</time>
      </trkpt>
      <trkpt lat="48.70859" lon="1.73792">
        <ele>180</ele>
        <time>2010-05-14T09:20:51Z</time>
      </trkpt>
      <trkpt lat="48.70857" lon="1.73792">
        <ele>180</ele>
        <time>2010-05-14T09:20:52Z</time>
      </trkpt>
      <trkpt lat="48.70856" lon="1.73792">
        <ele>180</ele>
        <time>2010-05-14T09:20:53Z</time>
      </trkpt>
      <trkpt lat="48.70854" lon="1.73791">
        <ele>180</ele>
        <time>2010-05-14T09:20:54Z</time>
      </trkpt>
      <trkpt lat="48.70853" lon="1.73792">
        <ele>180</ele>
        <time>2010-05-14T09:20:55Z</time>
      </trkpt>
      <trkpt lat="48.70851" lon="1.73792">
        <ele>180</ele>
        <time>2010-05-14T09:20:56Z</time>
      </trkpt>
      <trkpt lat="48.7085" lon="1.73791">
        <ele>180</ele>
        <time>2010-05-14T09:20:57Z</time>
      </trkpt>
      <trkpt lat="48.70848" lon="1.73792">
        <ele>180</ele>
        <time>2010-05-14T09:20:58Z</time>
      </trkpt>
      <trkpt lat="48.70847" lon="1.73792">
        <ele>180</ele>
        <time>2010-05-14T09:20:59Z</time>
      </trkpt>
      <trkpt lat="48.70845" lon="1.73792">
        <ele>180</ele>
        <time>2010-05-14T09:21:00Z</time>
      </trkpt>
      <trkpt lat="48.70843" lon="1.73792">
        <ele>180</ele>
        <time>2010-05-14T09:21:02Z</time>
      </trkpt>
      <trkpt lat="48.70841" lon="1.73792">
        <ele>180</ele>
        <time>2010-05-14T09:21:03Z</time>
      </trkpt>
      <trkpt lat="48.7084" lon="1.73791">
        <ele>180</ele>
        <time>2010-05-14T09:21:04Z</time>
      </trkpt>
      <trkpt lat="48.70838" lon="1.73791">
        <ele>180</ele>
        <time>2010-05-14T09:21:05Z</time>
      </trkpt>
      <trkpt lat="48.70836" lon="1.7379">
        <ele>180</ele>
        <time>2010-05-14T09:21:06Z</time>
      </trkpt>
      <trkpt lat="48.70835" lon="1.7379">
        <ele>180</ele>
        <time>2010-05-14T09:21:07Z</time>
      </trkpt>
      <trkpt lat="48.70833" lon="1.73789">
        <ele>180</ele>
        <time>2010-05-14T09:21:08Z</time>
      </trkpt>
      <trkpt lat="48.70831" lon="1.73789">
        <ele>180</ele>
        <time>2010-05-14T09:21:09Z</time>
      </trkpt>
      <trkpt lat="48.70829" lon="1.7379">
        <ele>180</ele>
        <time>2010-05-14T09:21:10Z</time>
      </trkpt>
      <trkpt lat="48.70827" lon="1.7379">
        <ele>180</ele>
        <time>2010-05-14T09:21:11Z</time>
      </trkpt>
      <trkpt lat="48.70826" lon="1.7379">
        <ele>180</ele>
        <time>2010-05-14T09:21:12Z</time>
      </trkpt>
      <trkpt lat="48.70825" lon="1.73789">
        <ele>180</ele>
        <time>2010-05-14T09:21:13Z</time>
      </trkpt>
      <trkpt lat="48.70823" lon="1.73788">
        <ele>180</ele>
        <time>2010-05-14T09:21:14Z</time>
      </trkpt>
      <trkpt lat="48.70822" lon="1.73788">
        <ele>180</ele>
        <time>2010-05-14T09:21:15Z</time>
      </trkpt>
      <trkpt lat="48.7082" lon="1.73788">
        <ele>180</ele>
        <time>2010-05-14T09:21:16Z</time>
      </trkpt>
      <trkpt lat="48.70819" lon="1.73787">
        <ele>180</ele>
        <time>2010-05-14T09:21:17Z</time>
      </trkpt>
      <trkpt lat="48.70817" lon="1.73787">
        <ele>180</ele>
        <time>2010-05-14T09:21:18Z</time>
      </trkpt>
      <trkpt lat="48.70815" lon="1.73787">
        <ele>180</ele>
        <time>2010-05-14T09:21:19Z</time>
      </trkpt>
      <trkpt lat="48.70813" lon="1.73787">
        <ele>180</ele>
        <time>2010-05-14T09:21:20Z</time>
      </trkpt>
      <trkpt lat="48.70811" lon="1.73787">
        <ele>180</ele>
        <time>2010-05-14T09:21:21Z</time>
      </trkpt>
      <trkpt lat="48.7081" lon="1.73786">
        <ele>180</ele>
        <time>2010-05-14T09:21:22Z</time>
      </trkpt>
      <trkpt lat="48.70808" lon="1.73786">
        <ele>180</ele>
        <time>2010-05-14T09:21:23Z</time>
      </trkpt>
      <trkpt lat="48.70807" lon="1.73786">
        <ele>180</ele>
        <time>2010-05-14T09:21:24Z</time>
      </trkpt>
      <trkpt lat="48.70805" lon="1.73786">
        <ele>180</ele>
        <time>2010-05-14T09:21:25Z</time>
      </trkpt>
      <trkpt lat="48.70804" lon="1.73785">
        <ele>180</ele>
        <time>2010-05-14T09:21:26Z</time>
      </trkpt>
      <trkpt lat="48.70802" lon="1.73784">
        <ele>180</ele>
        <time>2010-05-14T09:21:27Z</time>
      </trkpt>
      <trkpt lat="48.70801" lon="1.73784">
        <ele>180</ele>
        <time>2010-05-14T09:21:28Z</time>
      </trkpt>
      <trkpt lat="48.70799" lon="1.73784">
        <ele>180</ele>
        <time>2010-05-14T09:21:29Z</time>
      </trkpt>
      <trkpt lat="48.70798" lon="1.73784">
        <ele>180</ele>
        <time>2010-05-14T09:21:30Z</time>
      </trkpt>
      <trkpt lat="48.70796" lon="1.73783">
        <ele>180</ele>
        <time>2010-05-14T09:21:31Z</time>
      </trkpt>
      <trkpt lat="48.70795" lon="1.73783">
        <ele>180</ele>
        <time>2010-05-14T09:21:32Z</time>
      </trkpt>
      <trkpt lat="48.70793" lon="1.73783">
        <ele>180</ele>
        <time>2010-05-14T09:21:33Z</time>
      </trkpt>
      <trkpt lat="48.70791" lon="1.73783">
        <ele>180</ele>
        <time>2010-05-14T09:21:34Z</time>
      </trkpt>
      <trkpt lat="48.7079" lon="1.73782">
        <ele>179</ele>
        <time>2010-05-14T09:21:35Z</time>
      </trkpt>
      <trkpt lat="48.70788" lon="1.73783">
        <ele>179</ele>
        <time>2010-05-14T09:21:36Z</time>
      </trkpt>
      <trkpt lat="48.70786" lon="1.73783">
        <ele>179</ele>
        <time>2010-05-14T09:21:37Z</time>
      </trkpt>
      <trkpt lat="48.70785" lon="1.73783">
        <ele>179</ele>
        <time>2010-05-14T09:21:38Z</time>
      </trkpt>
      <trkpt lat="48.70783" lon="1.73783">
        <ele>179</ele>
        <time>2010-05-14T09:21:39Z</time>
      </trkpt>
      <trkpt lat="48.70781" lon="1.73783">
        <ele>179</ele>
        <time>2010-05-14T09:21:40Z</time>
      </trkpt>
      <trkpt lat="48.7078" lon="1.73783">
        <ele>179</ele>
        <time>2010-05-14T09:21:41Z</time>
      </trkpt>
      <trkpt lat="48.70778" lon="1.73783">
        <ele>179</ele>
        <time>2010-05-14T09:21:42Z</time>
      </trkpt>
      <trkpt lat="48.70776" lon="1.73783">
        <ele>179</ele>
        <time>2010-05-14T09:21:43Z</time>
      </trkpt>
      <trkpt lat="48.70775" lon="1.73782">
        <ele>179</ele>
        <time>2010-05-14T09:21:44Z</time>
      </trkpt>
      <trkpt lat="48.70773" lon="1.73783">
        <ele>179</ele>
        <time>2010-05-14T09:21:45Z</time>
      </trkpt>
      <trkpt lat="48.70771" lon="1.73782">
        <ele>179</ele>
        <time>2010-05-14T09:21:46Z</time>
      </trkpt>
      <trkpt lat="48.7077" lon="1.73782">
        <ele>179</ele>
        <time>2010-05-14T09:21:47Z</time>
      </trkpt>
      <trkpt lat="48.70769" lon="1.73782">
        <ele>179</ele>
        <time>2010-05-14T09:21:48Z</time>
      </trkpt>
      <trkpt lat="48.70767" lon="1.73782">
        <ele>179</ele>
        <time>2010-05-14T09:21:49Z</time>
      </trkpt>
      <trkpt lat="48.70766" lon="1.73781">
        <ele>178</ele>
        <time>2010-05-14T09:21:50Z</time>
      </trkpt>
      <trkpt lat="48.70764" lon="1.73781">
        <ele>178</ele>
        <time>2010-05-14T09:21:51Z</time>
      </trkpt>
      <trkpt lat="48.70762" lon="1.73781">
        <ele>178</ele>
        <time>2010-05-14T09:21:52Z</time>
      </trkpt>
      <trkpt lat="48.70761" lon="1.7378">
        <ele>177</ele>
        <time>2010-05-14T09:21:53Z</time>
      </trkpt>
      <trkpt lat="48.70759" lon="1.73779">
        <ele>177</ele>
        <time>2010-05-14T09:21:54Z</time>
      </trkpt>
      <trkpt lat="48.70758" lon="1.73779">
        <ele>177</ele>
        <time>2010-05-14T09:21:55Z</time>
      </trkpt>
      <trkpt lat="48.70756" lon="1.73779">
        <ele>177</ele>
        <time>2010-05-14T09:21:56Z</time>
      </trkpt>
      <trkpt lat="48.70755" lon="1.73778">
        <ele>177</ele>
        <time>2010-05-14T09:21:57Z</time>
      </trkpt>
      <trkpt lat="48.70753" lon="1.73778">
        <ele>177</ele>
        <time>2010-05-14T09:21:58Z</time>
      </trkpt>
      <trkpt lat="48.70751" lon="1.73778">
        <ele>177</ele>
        <time>2010-05-14T09:21:59Z</time>
      </trkpt>
      <trkpt lat="48.7075" lon="1.73778">
        <ele>177</ele>
        <time>2010-05-14T09:22:00Z</time>
      </trkpt>
      <trkpt lat="48.70748" lon="1.73778">
        <ele>177</ele>
        <time>2010-05-14T09:22:01Z</time>
      </trkpt>
      <trkpt lat="48.70746" lon="1.73778">
        <ele>177</ele>
        <time>2010-05-14T09:22:02Z</time>
      </trkpt>
      <trkpt lat="48.70744" lon="1.73779">
        <ele>177</ele>
        <time>2010-05-14T09:22:03Z</time>
      </trkpt>
      <trkpt lat="48.70742" lon="1.7378">
        <ele>177</ele>
        <time>2010-05-14T09:22:04Z</time>
      </trkpt>
      <trkpt lat="48.70739" lon="1.7378">
        <ele>177</ele>
        <time>2010-05-14T09:22:05Z</time>
      </trkpt>
      <trkpt lat="48.70737" lon="1.73781">
        <ele>177</ele>
        <time>2010-05-14T09:22:06Z</time>
      </trkpt>
      <trkpt lat="48.70736" lon="1.73781">
        <ele>178</ele>
        <time>2010-05-14T09:22:07Z</time>
      </trkpt>
      <trkpt lat="48.70734" lon="1.73781">
        <ele>178</ele>
        <time>2010-05-14T09:22:08Z</time>
      </trkpt>
      <trkpt lat="48.70733" lon="1.7378">
        <ele>179</ele>
        <time>2010-05-14T09:22:09Z</time>
      </trkpt>
      <trkpt lat="48.70731" lon="1.7378">
        <ele>179</ele>
        <time>2010-05-14T09:22:10Z</time>
      </trkpt>
      <trkpt lat="48.7073" lon="1.73779">
        <ele>179</ele>
        <time>2010-05-14T09:22:11Z</time>
      </trkpt>
      <trkpt lat="48.70728" lon="1.73778">
        <ele>179</ele>
        <time>2010-05-14T09:22:12Z</time>
      </trkpt>
      <trkpt lat="48.70727" lon="1.73778">
        <ele>179</ele>
        <time>2010-05-14T09:22:13Z</time>
      </trkpt>
      <trkpt lat="48.70725" lon="1.73778">
        <ele>179</ele>
        <time>2010-05-14T09:22:14Z</time>
      </trkpt>
      <trkpt lat="48.70724" lon="1.73777">
        <ele>179</ele>
        <time>2010-05-14T09:22:15Z</time>
      </trkpt>
      <trkpt lat="48.70722" lon="1.73777">
        <ele>179</ele>
        <time>2010-05-14T09:22:16Z</time>
      </trkpt>
      <trkpt lat="48.7072" lon="1.73777">
        <ele>179</ele>
        <time>2010-05-14T09:22:17Z</time>
      </trkpt>
      <trkpt lat="48.70719" lon="1.73777">
        <ele>179</ele>
        <time>2010-05-14T09:22:18Z</time>
      </trkpt>
      <trkpt lat="48.70717" lon="1.73776">
        <ele>179</ele>
        <time>2010-05-14T09:22:19Z</time>
      </trkpt>
      <trkpt lat="48.70716" lon="1.73776">
        <ele>179</ele>
        <time>2010-05-14T09:22:20Z</time>
      </trkpt>
      <trkpt lat="48.70713" lon="1.73776">
        <ele>179</ele>
        <time>2010-05-14T09:22:21Z</time>
      </trkpt>
      <trkpt lat="48.70712" lon="1.73776">
        <ele>179</ele>
        <time>2010-05-14T09:22:22Z</time>
      </trkpt>
      <trkpt lat="48.7071" lon="1.73776">
        <ele>179</ele>
        <time>2010-05-14T09:22:23Z</time>
      </trkpt>
      <trkpt lat="48.70708" lon="1.73776">
        <ele>179</ele>
        <time>2010-05-14T09:22:24Z</time>
      </trkpt>
      <trkpt lat="48.70707" lon="1.73775">
        <ele>179</ele>
        <time>2010-05-14T09:22:25Z</time>
      </trkpt>
      <trkpt lat="48.70705" lon="1.73775">
        <ele>179</ele>
        <time>2010-05-14T09:22:26Z</time>
      </trkpt>
      <trkpt lat="48.70703" lon="1.73775">
        <ele>179</ele>
        <time>2010-05-14T09:22:27Z</time>
      </trkpt>
      <trkpt lat="48.70701" lon="1.73776">
        <ele>179</ele>
        <time>2010-05-14T09:22:28Z</time>
      </trkpt>
      <trkpt lat="48.70699" lon="1.73776">
        <ele>179</ele>
        <time>2010-05-14T09:22:29Z</time>
      </trkpt>
      <trkpt lat="48.70698" lon="1.73776">
        <ele>179</ele>
        <time>2010-05-14T09:22:30Z</time>
      </trkpt>
      <trkpt lat="48.70696" lon="1.73776">
        <ele>179</ele>
        <time>2010-05-14T09:22:31Z</time>
      </trkpt>
      <trkpt lat="48.70695" lon="1.73775">
        <ele>179</ele>
        <time>2010-05-14T09:22:32Z</time>
      </trkpt>
      <trkpt lat="48.70693" lon="1.73775">
        <ele>179</ele>
        <time>2010-05-14T09:22:33Z</time>
      </trkpt>
      <trkpt lat="48.70692" lon="1.73775">
        <ele>179</ele>
        <time>2010-05-14T09:22:34Z</time>
      </trkpt>
      <trkpt lat="48.70691" lon="1.73775">
        <ele>179</ele>
        <time>2010-05-14T09:22:35Z</time>
      </trkpt>
      <trkpt lat="48.70689" lon="1.73775">
        <ele>179</ele>
        <time>2010-05-14T09:22:36Z</time>
      </trkpt>
      <trkpt lat="48.70688" lon="1.73774">
        <ele>179</ele>
        <time>2010-05-14T09:22:37Z</time>
      </trkpt>
      <trkpt lat="48.70687" lon="1.73774">
        <ele>179</ele>
        <time>2010-05-14T09:22:38Z</time>
      </trkpt>
      <trkpt lat="48.70685" lon="1.73772">
        <ele>179</ele>
        <time>2010-05-14T09:22:40Z</time>
      </trkpt>
      <trkpt lat="48.70683" lon="1.73772">
        <ele>179</ele>
        <time>2010-05-14T09:22:41Z</time>
      </trkpt>
      <trkpt lat="48.70681" lon="1.73772">
        <ele>179</ele>
        <time>2010-05-14T09:22:42Z</time>
      </trkpt>
      <trkpt lat="48.70679" lon="1.73771">
        <ele>178</ele>
        <time>2010-05-14T09:22:44Z</time>
      </trkpt>
      <trkpt lat="48.70678" lon="1.73771">
        <ele>178</ele>
        <time>2010-05-14T09:22:45Z</time>
      </trkpt>
      <trkpt lat="48.70676" lon="1.73771">
        <ele>177</ele>
        <time>2010-05-14T09:22:46Z</time>
      </trkpt>
      <trkpt lat="48.70674" lon="1.73772">
        <ele>177</ele>
        <time>2010-05-14T09:22:47Z</time>
      </trkpt>
      <trkpt lat="48.70673" lon="1.73772">
        <ele>177</ele>
        <time>2010-05-14T09:22:48Z</time>
      </trkpt>
      <trkpt lat="48.70671" lon="1.73772">
        <ele>177</ele>
        <time>2010-05-14T09:22:49Z</time>
      </trkpt>
      <trkpt lat="48.7067" lon="1.73772">
        <ele>177</ele>
        <time>2010-05-14T09:22:50Z</time>
      </trkpt>
      <trkpt lat="48.70668" lon="1.73771">
        <ele>177</ele>
        <time>2010-05-14T09:22:51Z</time>
      </trkpt>
      <trkpt lat="48.70667" lon="1.73771">
        <ele>177</ele>
        <time>2010-05-14T09:22:52Z</time>
      </trkpt>
      <trkpt lat="48.70665" lon="1.73771">
        <ele>177</ele>
        <time>2010-05-14T09:22:53Z</time>
      </trkpt>
      <trkpt lat="48.70664" lon="1.73771">
        <ele>177</ele>
        <time>2010-05-14T09:22:54Z</time>
      </trkpt>
      <trkpt lat="48.70662" lon="1.7377">
        <ele>177</ele>
        <time>2010-05-14T09:22:55Z</time>
      </trkpt>
      <trkpt lat="48.7066" lon="1.7377">
        <ele>177</ele>
        <time>2010-05-14T09:22:56Z</time>
      </trkpt>
      <trkpt lat="48.70659" lon="1.73769">
        <ele>177</ele>
        <time>2010-05-14T09:22:57Z</time>
      </trkpt>
      <trkpt lat="48.70657" lon="1.73769">
        <ele>177</ele>
        <time>2010-05-14T09:22:58Z</time>
      </trkpt>
      <trkpt lat="48.70655" lon="1.73769">
        <ele>177</ele>
        <time>2010-05-14T09:22:59Z</time>
      </trkpt>
      <trkpt lat="48.70654" lon="1.73768">
        <ele>176</ele>
        <time>2010-05-14T09:23:00Z</time>
      </trkpt>
      <trkpt lat="48.70653" lon="1.73768">
        <ele>176</ele>
        <time>2010-05-14T09:23:01Z</time>
      </trkpt>
      <trkpt lat="48.70651" lon="1.73768">
        <ele>176</ele>
        <time>2010-05-14T09:23:02Z</time>
      </trkpt>
      <trkpt lat="48.70649" lon="1.73768">
        <ele>175</ele>
        <time>2010-05-14T09:23:03Z</time>
      </trkpt>
      <trkpt lat="48.70647" lon="1.73768">
        <ele>175</ele>
        <time>2010-05-14T09:23:04Z</time>
      </trkpt>
      <trkpt lat="48.70645" lon="1.73768">
        <ele>175</ele>
        <time>2010-05-14T09:23:05Z</time>
      </trkpt>
      <trkpt lat="48.70642" lon="1.73768">
        <ele>174</ele>
        <time>2010-05-14T09:23:06Z</time>
      </trkpt>
      <trkpt lat="48.7064" lon="1.73768">
        <ele>174</ele>
        <time>2010-05-14T09:23:07Z</time>
      </trkpt>
      <trkpt lat="48.70638" lon="1.73768">
        <ele>174</ele>
        <time>2010-05-14T09:23:08Z</time>
      </trkpt>
      <trkpt lat="48.70636" lon="1.73768">
        <ele>174</ele>
        <time>2010-05-14T09:23:09Z</time>
      </trkpt>
      <trkpt lat="48.70634" lon="1.73768">
        <ele>174</ele>
        <time>2010-05-14T09:23:10Z</time>
      </trkpt>
      <trkpt lat="48.70631" lon="1.73768">
        <ele>174</ele>
        <time>2010-05-14T09:23:11Z</time>
      </trkpt>
      <trkpt lat="48.70628" lon="1.73768">
        <ele>174</ele>
        <time>2010-05-14T09:23:12Z</time>
      </trkpt>
      <trkpt lat="48.70625" lon="1.73768">
        <ele>174</ele>
        <time>2010-05-14T09:23:13Z</time>
      </trkpt>
      <trkpt lat="48.70621" lon="1.73767">
        <ele>174</ele>
        <time>2010-05-14T09:23:14Z</time>
      </trkpt>
      <trkpt lat="48.70618" lon="1.73765">
        <ele>174</ele>
        <time>2010-05-14T09:23:15Z</time>
      </trkpt>
      <trkpt lat="48.70615" lon="1.73764">
        <ele>173</ele>
        <time>2010-05-14T09:23:16Z</time>
      </trkpt>
      <trkpt lat="48.70612" lon="1.73763">
        <ele>172</ele>
        <time>2010-05-14T09:23:17Z</time>
      </trkpt>
      <trkpt lat="48.70609" lon="1.73763">
        <ele>171</ele>
        <time>2010-05-14T09:23:18Z</time>
      </trkpt>
      <trkpt lat="48.70606" lon="1.73764">
        <ele>170</ele>
        <time>2010-05-14T09:23:19Z</time>
      </trkpt>
      <trkpt lat="48.70603" lon="1.73764">
        <ele>170</ele>
        <time>2010-05-14T09:23:20Z</time>
      </trkpt>
      <trkpt lat="48.70602" lon="1.73764">
        <ele>169</ele>
        <time>2010-05-14T09:23:21Z</time>
      </trkpt>
      <trkpt lat="48.706" lon="1.73765">
        <ele>169</ele>
        <time>2010-05-14T09:23:22Z</time>
      </trkpt>
      <trkpt lat="48.70598" lon="1.73765">
        <ele>169</ele>
        <time>2010-05-14T09:23:23Z</time>
      </trkpt>
      <trkpt lat="48.70597" lon="1.73765">
        <ele>169</ele>
        <time>2010-05-14T09:23:24Z</time>
      </trkpt>
      <trkpt lat="48.70595" lon="1.73766">
        <ele>169</ele>
        <time>2010-05-14T09:23:25Z</time>
      </trkpt>
      <trkpt lat="48.70593" lon="1.73766">
        <ele>169</ele>
        <time>2010-05-14T09:23:26Z</time>
      </trkpt>
      <trkpt lat="48.70591" lon="1.73765">
        <ele>169</ele>
        <time>2010-05-14T09:23:27Z</time>
      </trkpt>
      <trkpt lat="48.7059" lon="1.73765">
        <ele>169</ele>
        <time>2010-05-14T09:23:28Z</time>
      </trkpt>
      <trkpt lat="48.70588" lon="1.73765">
        <ele>169</ele>
        <time>2010-05-14T09:23:29Z</time>
      </trkpt>
      <trkpt lat="48.70587" lon="1.73765">
        <ele>169</ele>
        <time>2010-05-14T09:23:30Z</time>
      </trkpt>
      <trkpt lat="48.70585" lon="1.73765">
        <ele>169</ele>
        <time>2010-05-14T09:23:31Z</time>
      </trkpt>
      <trkpt lat="48.70584" lon="1.73764">
        <ele>169</ele>
        <time>2010-05-14T09:23:32Z</time>
      </trkpt>
      <trkpt lat="48.70582" lon="1.73764">
        <ele>169</ele>
        <time>2010-05-14T09:23:33Z</time>
      </trkpt>
      <trkpt lat="48.70581" lon="1.73764">
        <ele>169</ele>
        <time>2010-05-14T09:23:34Z</time>
      </trkpt>
      <trkpt lat="48.70579" lon="1.73763">
        <ele>169</ele>
        <time>2010-05-14T09:23:35Z</time>
      </trkpt>
      <trkpt lat="48.70577" lon="1.73761">
        <ele>169</ele>
        <time>2010-05-14T09:23:36Z</time>
      </trkpt>
      <trkpt lat="48.70576" lon="1.73761">
        <ele>169</ele>
        <time>2010-05-14T09:23:37Z</time>
      </trkpt>
      <trkpt lat="48.70574" lon="1.7376">
        <ele>169</ele>
        <time>2010-05-14T09:23:38Z</time>
      </trkpt>
      <trkpt lat="48.70572" lon="1.73761">
        <ele>169</ele>
        <time>2010-05-14T09:23:39Z</time>
      </trkpt>
      <trkpt lat="48.70571" lon="1.73761">
        <ele>169</ele>
        <time>2010-05-14T09:23:40Z</time>
      </trkpt>
      <trkpt lat="48.7057" lon="1.73761">
        <ele>169</ele>
        <time>2010-05-14T09:23:41Z</time>
      </trkpt>
      <trkpt lat="48.70568" lon="1.73761">
        <ele>169</ele>
        <time>2010-05-14T09:23:42Z</time>
      </trkpt>
      <trkpt lat="48.70567" lon="1.73761">
        <ele>169</ele>
        <time>2010-05-14T09:23:43Z</time>
      </trkpt>
      <trkpt lat="48.70566" lon="1.73762">
        <ele>169</ele>
        <time>2010-05-14T09:23:44Z</time>
      </trkpt>
      <trkpt lat="48.70564" lon="1.73762">
        <ele>169</ele>
        <time>2010-05-14T09:23:45Z</time>
      </trkpt>
      <trkpt lat="48.70562" lon="1.73761">
        <ele>169</ele>
        <time>2010-05-14T09:23:46Z</time>
      </trkpt>
      <trkpt lat="48.70561" lon="1.73761">
        <ele>169</ele>
        <time>2010-05-14T09:23:47Z</time>
      </trkpt>
      <trkpt lat="48.70558" lon="1.7376">
        <ele>169</ele>
        <time>2010-05-14T09:23:48Z</time>
      </trkpt>
      <trkpt lat="48.70557" lon="1.7376">
        <ele>169</ele>
        <time>2010-05-14T09:23:49Z</time>
      </trkpt>
      <trkpt lat="48.70556" lon="1.7376">
        <ele>169</ele>
        <time>2010-05-14T09:23:50Z</time>
      </trkpt>
      <trkpt lat="48.70554" lon="1.7376">
        <ele>169</ele>
        <time>2010-05-14T09:23:51Z</time>
      </trkpt>
      <trkpt lat="48.70552" lon="1.7376">
        <ele>169</ele>
        <time>2010-05-14T09:23:52Z</time>
      </trkpt>
      <trkpt lat="48.70551" lon="1.73759">
        <ele>169</ele>
        <time>2010-05-14T09:23:53Z</time>
      </trkpt>
      <trkpt lat="48.70548" lon="1.7376">
        <ele>169</ele>
        <time>2010-05-14T09:23:55Z</time>
      </trkpt>
      <trkpt lat="48.70547" lon="1.7376">
        <ele>169</ele>
        <time>2010-05-14T09:23:56Z</time>
      </trkpt>
      <trkpt lat="48.70544" lon="1.7376">
        <ele>169</ele>
        <time>2010-05-14T09:23:57Z</time>
      </trkpt>
      <trkpt lat="48.70542" lon="1.7376">
        <ele>169</ele>
        <time>2010-05-14T09:23:58Z</time>
      </trkpt>
      <trkpt lat="48.70541" lon="1.7376">
        <ele>169</ele>
        <time>2010-05-14T09:23:59Z</time>
      </trkpt>
      <trkpt lat="48.70539" lon="1.73759">
        <ele>169</ele>
        <time>2010-05-14T09:24:00Z</time>
      </trkpt>
      <trkpt lat="48.70538" lon="1.7376">
        <ele>169</ele>
        <time>2010-05-14T09:24:01Z</time>
      </trkpt>
      <trkpt lat="48.70536" lon="1.7376">
        <ele>169</ele>
        <time>2010-05-14T09:24:02Z</time>
      </trkpt>
      <trkpt lat="48.70535" lon="1.7376">
        <ele>169</ele>
        <time>2010-05-14T09:24:03Z</time>
      </trkpt>
      <trkpt lat="48.70533" lon="1.7376">
        <ele>169</ele>
        <time>2010-05-14T09:24:04Z</time>
      </trkpt>
      <trkpt lat="48.70531" lon="1.7376">
        <ele>169</ele>
        <time>2010-05-14T09:24:05Z</time>
      </trkpt>
      <trkpt lat="48.7053" lon="1.73761">
        <ele>169</ele>
        <time>2010-05-14T09:24:06Z</time>
      </trkpt>
      <trkpt lat="48.70528" lon="1.73761">
        <ele>169</ele>
        <time>2010-05-14T09:24:07Z</time>
      </trkpt>
      <trkpt lat="48.70526" lon="1.73762">
        <ele>169</ele>
        <time>2010-05-14T09:24:08Z</time>
      </trkpt>
      <trkpt lat="48.70524" lon="1.73761">
        <ele>170</ele>
        <time>2010-05-14T09:24:09Z</time>
      </trkpt>
      <trkpt lat="48.70522" lon="1.73761">
        <ele>171</ele>
        <time>2010-05-14T09:24:10Z</time>
      </trkpt>
      <trkpt lat="48.70521" lon="1.73762">
        <ele>172</ele>
        <time>2010-05-14T09:24:11Z</time>
      </trkpt>
      <trkpt lat="48.70518" lon="1.73759">
        <ele>172</ele>
        <time>2010-05-14T09:24:13Z</time>
      </trkpt>
      <trkpt lat="48.70517" lon="1.73759">
        <ele>172</ele>
        <time>2010-05-14T09:24:14Z</time>
      </trkpt>
      <trkpt lat="48.70515" lon="1.73759">
        <ele>172</ele>
        <time>2010-05-14T09:24:16Z</time>
      </trkpt>
      <trkpt lat="48.70513" lon="1.73758">
        <ele>172</ele>
        <time>2010-05-14T09:24:17Z</time>
      </trkpt>
      <trkpt lat="48.70512" lon="1.73758">
        <ele>172</ele>
        <time>2010-05-14T09:24:18Z</time>
      </trkpt>
      <trkpt lat="48.7051" lon="1.73756">
        <ele>172</ele>
        <time>2010-05-14T09:24:20Z</time>
      </trkpt>
      <trkpt lat="48.70509" lon="1.73755">
        <ele>172</ele>
        <time>2010-05-14T09:24:21Z</time>
      </trkpt>
      <trkpt lat="48.70508" lon="1.73752">
        <ele>172</ele>
        <time>2010-05-14T09:24:22Z</time>
      </trkpt>
      <trkpt lat="48.70507" lon="1.7375">
        <ele>172</ele>
        <time>2010-05-14T09:24:23Z</time>
      </trkpt>
      <trkpt lat="48.70504" lon="1.73749">
        <ele>172</ele>
        <time>2010-05-14T09:24:24Z</time>
      </trkpt>
      <trkpt lat="48.70502" lon="1.7375">
        <ele>172</ele>
        <time>2010-05-14T09:24:28Z</time>
      </trkpt>
      <trkpt lat="48.705" lon="1.73751">
        <ele>173</ele>
        <time>2010-05-14T09:24:31Z</time>
      </trkpt>
      <trkpt lat="48.70499" lon="1.7375">
        <ele>174</ele>
        <time>2010-05-14T09:24:33Z</time>
      </trkpt>
      <trkpt lat="48.70501" lon="1.7375">
        <ele>175</ele>
        <time>2010-05-14T09:24:35Z</time>
      </trkpt>
      <trkpt lat="48.70502" lon="1.73752">
        <ele>176</ele>
        <time>2010-05-14T09:24:38Z</time>
      </trkpt>
      <trkpt lat="48.705" lon="1.7375">
        <ele>177</ele>
        <time>2010-05-14T09:24:43Z</time>
      </trkpt>
      <trkpt lat="48.70498" lon="1.73749">
        <ele>177</ele>
        <time>2010-05-14T09:24:46Z</time>
      </trkpt>
      <trkpt lat="48.70497" lon="1.73747">
        <ele>180</ele>
        <time>2010-05-14T09:24:49Z</time>
      </trkpt>
      <trkpt lat="48.70498" lon="1.7375">
        <ele>183</ele>
        <time>2010-05-14T09:24:52Z</time>
      </trkpt>
      <trkpt lat="48.70499" lon="1.73751">
        <ele>184</ele>
        <time>2010-05-14T09:24:53Z</time>
      </trkpt>
      <trkpt lat="48.705" lon="1.73753">
        <ele>185</ele>
        <time>2010-05-14T09:24:56Z</time>
      </trkpt>
      <trkpt lat="48.70502" lon="1.73754">
        <ele>185</ele>
        <time>2010-05-14T09:24:57Z</time>
      </trkpt>
      <trkpt lat="48.705" lon="1.73754">
        <ele>185</ele>
        <time>2010-05-14T09:24:59Z</time>
      </trkpt>
      <trkpt lat="48.705" lon="1.73756">
        <ele>185</ele>
        <time>2010-05-14T09:25:03Z</time>
      </trkpt>
      <trkpt lat="48.70501" lon="1.73756">
        <ele>188</ele>
        <time>2010-05-14T09:25:12Z</time>
      </trkpt>
      <trkpt lat="48.70502" lon="1.73756">
        <ele>188</ele>
        <time>2010-05-14T09:25:15Z</time>
      </trkpt>
      <trkpt lat="48.70503" lon="1.73757">
        <ele>185</ele>
        <time>2010-05-14T09:25:18Z</time>
      </trkpt>
      <trkpt lat="48.70504" lon="1.73755">
        <ele>180</ele>
        <time>2010-05-14T09:25:23Z</time>
      </trkpt>
      <trkpt lat="48.70505" lon="1.73756">
        <ele>170</ele>
        <time>2010-05-14T09:25:35Z</time>
      </trkpt>
      <trkpt lat="48.70507" lon="1.73758">
        <ele>168</ele>
        <time>2010-05-14T09:25:39Z</time>
      </trkpt>
      <trkpt lat="48.70509" lon="1.73759">
        <ele>167</ele>
        <time>2010-05-14T09:25:41Z</time>
      </trkpt>
      <trkpt lat="48.7051" lon="1.73759">
        <ele>166</ele>
        <time>2010-05-14T09:25:42Z</time>
      </trkpt>
      <trkpt lat="48.70511" lon="1.7376">
        <ele>165</ele>
        <time>2010-05-14T09:25:44Z</time>
      </trkpt>
      <trkpt lat="48.70511" lon="1.73762">
        <ele>163</ele>
        <time>2010-05-14T09:25:47Z</time>
      </trkpt>
      <trkpt lat="48.70511" lon="1.73764">
        <ele>162</ele>
        <time>2010-05-14T09:25:51Z</time>
      </trkpt>
      <trkpt lat="48.70509" lon="1.73764">
        <ele>162</ele>
        <time>2010-05-14T09:25:53Z</time>
      </trkpt>
      <trkpt lat="48.70507" lon="1.73765">
        <ele>162</ele>
        <time>2010-05-14T09:25:55Z</time>
      </trkpt>
      <trkpt lat="48.70506" lon="1.73764">
        <ele>163</ele>
        <time>2010-05-14T09:25:56Z</time>
      </trkpt>
      <trkpt lat="48.70505" lon="1.73764">
        <ele>164</ele>
        <time>2010-05-14T09:25:57Z</time>
      </trkpt>
      <trkpt lat="48.70504" lon="1.73763">
        <ele>165</ele>
        <time>2010-05-14T09:25:58Z</time>
      </trkpt>
      <trkpt lat="48.70502" lon="1.73762">
        <ele>166</ele>
        <time>2010-05-14T09:25:59Z</time>
      </trkpt>
      <trkpt lat="48.705" lon="1.73762">
        <ele>167</ele>
        <time>2010-05-14T09:26:00Z</time>
      </trkpt>
      <trkpt lat="48.70499" lon="1.73761">
        <ele>168</ele>
        <time>2010-05-14T09:26:01Z</time>
      </trkpt>
      <trkpt lat="48.70494" lon="1.73758">
        <ele>170</ele>
        <time>2010-05-14T09:26:05Z</time>
      </trkpt>
      <trkpt lat="48.70491" lon="1.73757">
        <ele>171</ele>
        <time>2010-05-14T09:26:06Z</time>
      </trkpt>
      <trkpt lat="48.7049" lon="1.73757">
        <ele>172</ele>
        <time>2010-05-14T09:26:07Z</time>
      </trkpt>
      <trkpt lat="48.70488" lon="1.73757">
        <ele>173</ele>
        <time>2010-05-14T09:26:08Z</time>
      </trkpt>
      <trkpt lat="48.70486" lon="1.73758">
        <ele>174</ele>
        <time>2010-05-14T09:26:09Z</time>
      </trkpt>
      <trkpt lat="48.70484" lon="1.73758">
        <ele>175</ele>
        <time>2010-05-14T09:26:10Z</time>
      </trkpt>
      <trkpt lat="48.70481" lon="1.73759">
        <ele>177</ele>
        <time>2010-05-14T09:26:12Z</time>
      </trkpt>
      <trkpt lat="48.7048" lon="1.7376">
        <ele>178</ele>
        <time>2010-05-14T09:26:13Z</time>
      </trkpt>
      <trkpt lat="48.70478" lon="1.7376">
        <ele>179</ele>
        <time>2010-05-14T09:26:14Z</time>
      </trkpt>
      <trkpt lat="48.70477" lon="1.7376">
        <ele>180</ele>
        <time>2010-05-14T09:26:15Z</time>
      </trkpt>
      <trkpt lat="48.70475" lon="1.73761">
        <ele>181</ele>
        <time>2010-05-14T09:26:16Z</time>
      </trkpt>
      <trkpt lat="48.70474" lon="1.73761">
        <ele>182</ele>
        <time>2010-05-14T09:26:17Z</time>
      </trkpt>
      <trkpt lat="48.70472" lon="1.73761">
        <ele>184</ele>
        <time>2010-05-14T09:26:19Z</time>
      </trkpt>
      <trkpt lat="48.70471" lon="1.73761">
        <ele>185</ele>
        <time>2010-05-14T09:26:20Z</time>
      </trkpt>
      <trkpt lat="48.70469" lon="1.73761">
        <ele>186</ele>
        <time>2010-05-14T09:26:21Z</time>
      </trkpt>
      <trkpt lat="48.70467" lon="1.7376">
        <ele>186</ele>
        <time>2010-05-14T09:26:22Z</time>
      </trkpt>
      <trkpt lat="48.70466" lon="1.73759">
        <ele>186</ele>
        <time>2010-05-14T09:26:23Z</time>
      </trkpt>
      <trkpt lat="48.70464" lon="1.7376">
        <ele>186</ele>
        <time>2010-05-14T09:26:24Z</time>
      </trkpt>
      <trkpt lat="48.70463" lon="1.7376">
        <ele>186</ele>
        <time>2010-05-14T09:26:25Z</time>
      </trkpt>
      <trkpt lat="48.70462" lon="1.73758">
        <ele>186</ele>
        <time>2010-05-14T09:26:27Z</time>
      </trkpt>
      <trkpt lat="48.7046" lon="1.73757">
        <ele>186</ele>
        <time>2010-05-14T09:26:30Z</time>
      </trkpt>
      <trkpt lat="48.70458" lon="1.73756">
        <ele>186</ele>
        <time>2010-05-14T09:26:32Z</time>
      </trkpt>
      <trkpt lat="48.70457" lon="1.73756">
        <ele>186</ele>
        <time>2010-05-14T09:26:33Z</time>
      </trkpt>
      <trkpt lat="48.70452" lon="1.73755">
        <ele>185</ele>
        <time>2010-05-14T09:26:36Z</time>
      </trkpt>
      <trkpt lat="48.7045" lon="1.73755">
        <ele>184</ele>
        <time>2010-05-14T09:26:37Z</time>
      </trkpt>
      <trkpt lat="48.70447" lon="1.73755">
        <ele>183</ele>
        <time>2010-05-14T09:26:38Z</time>
      </trkpt>
      <trkpt lat="48.70445" lon="1.73754">
        <ele>182</ele>
        <time>2010-05-14T09:26:39Z</time>
      </trkpt>
      <trkpt lat="48.70442" lon="1.73752">
        <ele>180</ele>
        <time>2010-05-14T09:26:41Z</time>
      </trkpt>
      <trkpt lat="48.70441" lon="1.73752">
        <ele>180</ele>
        <time>2010-05-14T09:26:42Z</time>
      </trkpt>
      <trkpt lat="48.70439" lon="1.73752">
        <ele>178</ele>
        <time>2010-05-14T09:26:44Z</time>
      </trkpt>
      <trkpt lat="48.70438" lon="1.73752">
        <ele>178</ele>
        <time>2010-05-14T09:26:45Z</time>
      </trkpt>
      <trkpt lat="48.70436" lon="1.73752">
        <ele>177</ele>
        <time>2010-05-14T09:26:46Z</time>
      </trkpt>
      <trkpt lat="48.70435" lon="1.73751">
        <ele>176</ele>
        <time>2010-05-14T09:26:47Z</time>
      </trkpt>
      <trkpt lat="48.70433" lon="1.73751">
        <ele>176</ele>
        <time>2010-05-14T09:26:48Z</time>
      </trkpt>
      <trkpt lat="48.70432" lon="1.73751">
        <ele>176</ele>
        <time>2010-05-14T09:26:49Z</time>
      </trkpt>
      <trkpt lat="48.7043" lon="1.73751">
        <ele>176</ele>
        <time>2010-05-14T09:26:50Z</time>
      </trkpt>
      <trkpt lat="48.70429" lon="1.73751">
        <ele>176</ele>
        <time>2010-05-14T09:26:51Z</time>
      </trkpt>
      <trkpt lat="48.70428" lon="1.73753">
        <ele>176</ele>
        <time>2010-05-14T09:26:53Z</time>
      </trkpt>
      <trkpt lat="48.70426" lon="1.73753">
        <ele>176</ele>
        <time>2010-05-14T09:26:54Z</time>
      </trkpt>
      <trkpt lat="48.70424" lon="1.73752">
        <ele>176</ele>
        <time>2010-05-14T09:26:56Z</time>
      </trkpt>
      <trkpt lat="48.70423" lon="1.73751">
        <ele>176</ele>
        <time>2010-05-14T09:26:57Z</time>
      </trkpt>
      <trkpt lat="48.70421" lon="1.7375">
        <ele>176</ele>
        <time>2010-05-14T09:26:58Z</time>
      </trkpt>
      <trkpt lat="48.70419" lon="1.7375">
        <ele>176</ele>
        <time>2010-05-14T09:27:00Z</time>
      </trkpt>
      <trkpt lat="48.70417" lon="1.7375">
        <ele>176</ele>
        <time>2010-05-14T09:27:01Z</time>
      </trkpt>
      <trkpt lat="48.70416" lon="1.7375">
        <ele>176</ele>
        <time>2010-05-14T09:27:02Z</time>
      </trkpt>
      <trkpt lat="48.70413" lon="1.73749">
        <ele>176</ele>
        <time>2010-05-14T09:27:04Z</time>
      </trkpt>
      <trkpt lat="48.70411" lon="1.73748">
        <ele>176</ele>
        <time>2010-05-14T09:27:05Z</time>
      </trkpt>
      <trkpt lat="48.70409" lon="1.73748">
        <ele>176</ele>
        <time>2010-05-14T09:27:06Z</time>
      </trkpt>
      <trkpt lat="48.70408" lon="1.73748">
        <ele>176</ele>
        <time>2010-05-14T09:27:07Z</time>
      </trkpt>
      <trkpt lat="48.70405" lon="1.73747">
        <ele>176</ele>
        <time>2010-05-14T09:27:08Z</time>
      </trkpt>
      <trkpt lat="48.70404" lon="1.73747">
        <ele>176</ele>
        <time>2010-05-14T09:27:09Z</time>
      </trkpt>
      <trkpt lat="48.70402" lon="1.73747">
        <ele>176</ele>
        <time>2010-05-14T09:27:10Z</time>
      </trkpt>
      <trkpt lat="48.70401" lon="1.73747">
        <ele>176</ele>
        <time>2010-05-14T09:27:11Z</time>
      </trkpt>
      <trkpt lat="48.70399" lon="1.73746">
        <ele>176</ele>
        <time>2010-05-14T09:27:13Z</time>
      </trkpt>
      <trkpt lat="48.70397" lon="1.73746">
        <ele>176</ele>
        <time>2010-05-14T09:27:14Z</time>
      </trkpt>
      <trkpt lat="48.70395" lon="1.73746">
        <ele>176</ele>
        <time>2010-05-14T09:27:15Z</time>
      </trkpt>
      <trkpt lat="48.70394" lon="1.73746">
        <ele>176</ele>
        <time>2010-05-14T09:27:16Z</time>
      </trkpt>
      <trkpt lat="48.70393" lon="1.73746">
        <ele>176</ele>
        <time>2010-05-14T09:27:17Z</time>
      </trkpt>
      <trkpt lat="48.70391" lon="1.73746">
        <ele>176</ele>
        <time>2010-05-14T09:27:18Z</time>
      </trkpt>
      <trkpt lat="48.7039" lon="1.73745">
        <ele>176</ele>
        <time>2010-05-14T09:27:19Z</time>
      </trkpt>
      <trkpt lat="48.70388" lon="1.73745">
        <ele>176</ele>
        <time>2010-05-14T09:27:21Z</time>
      </trkpt>
      <trkpt lat="48.70386" lon="1.73745">
        <ele>176</ele>
        <time>2010-05-14T09:27:22Z</time>
      </trkpt>
      <trkpt lat="48.70385" lon="1.73743">
        <ele>176</ele>
        <time>2010-05-14T09:27:23Z</time>
      </trkpt>
      <trkpt lat="48.70383" lon="1.73742">
        <ele>176</ele>
        <time>2010-05-14T09:27:24Z</time>
      </trkpt>
      <trkpt lat="48.70382" lon="1.73742">
        <ele>176</ele>
        <time>2010-05-14T09:27:25Z</time>
      </trkpt>
      <trkpt lat="48.7038" lon="1.73741">
        <ele>176</ele>
        <time>2010-05-14T09:27:26Z</time>
      </trkpt>
      <trkpt lat="48.70379" lon="1.73741">
        <ele>176</ele>
        <time>2010-05-14T09:27:27Z</time>
      </trkpt>
      <trkpt lat="48.70377" lon="1.7374">
        <ele>176</ele>
        <time>2010-05-14T09:27:28Z</time>
      </trkpt>
      <trkpt lat="48.70375" lon="1.7374">
        <ele>175</ele>
        <time>2010-05-14T09:27:29Z</time>
      </trkpt>
      <trkpt lat="48.70373" lon="1.73741">
        <ele>175</ele>
        <time>2010-05-14T09:27:30Z</time>
      </trkpt>
      <trkpt lat="48.70372" lon="1.73741">
        <ele>175</ele>
        <time>2010-05-14T09:27:31Z</time>
      </trkpt>
      <trkpt lat="48.70371" lon="1.73741">
        <ele>175</ele>
        <time>2010-05-14T09:27:32Z</time>
      </trkpt>
      <trkpt lat="48.70369" lon="1.73741">
        <ele>175</ele>
        <time>2010-05-14T09:27:33Z</time>
      </trkpt>
      <trkpt lat="48.70366" lon="1.7374">
        <ele>175</ele>
        <time>2010-05-14T09:27:34Z</time>
      </trkpt>
      <trkpt lat="48.70362" lon="1.73739">
        <ele>175</ele>
        <time>2010-05-14T09:27:35Z</time>
      </trkpt>
      <trkpt lat="48.7036" lon="1.73739">
        <ele>175</ele>
        <time>2010-05-14T09:27:36Z</time>
      </trkpt>
      <trkpt lat="48.70358" lon="1.73739">
        <ele>175</ele>
        <time>2010-05-14T09:27:37Z</time>
      </trkpt>
      <trkpt lat="48.70357" lon="1.7374">
        <ele>175</ele>
        <time>2010-05-14T09:27:38Z</time>
      </trkpt>
      <trkpt lat="48.70355" lon="1.7374">
        <ele>175</ele>
        <time>2010-05-14T09:27:39Z</time>
      </trkpt>
      <trkpt lat="48.70353" lon="1.7374">
        <ele>175</ele>
        <time>2010-05-14T09:27:40Z</time>
      </trkpt>
      <trkpt lat="48.70351" lon="1.7374">
        <ele>175</ele>
        <time>2010-05-14T09:27:41Z</time>
      </trkpt>
      <trkpt lat="48.7035" lon="1.73739">
        <ele>175</ele>
        <time>2010-05-14T09:27:42Z</time>
      </trkpt>
      <trkpt lat="48.70347" lon="1.7374">
        <ele>175</ele>
        <time>2010-05-14T09:27:43Z</time>
      </trkpt>
      <trkpt lat="48.70346" lon="1.73739">
        <ele>175</ele>
        <time>2010-05-14T09:27:44Z</time>
      </trkpt>
      <trkpt lat="48.70344" lon="1.73739">
        <ele>175</ele>
        <time>2010-05-14T09:27:45Z</time>
      </trkpt>
      <trkpt lat="48.70342" lon="1.73738">
        <ele>175</ele>
        <time>2010-05-14T09:27:46Z</time>
      </trkpt>
      <trkpt lat="48.70339" lon="1.73738">
        <ele>175</ele>
        <time>2010-05-14T09:27:48Z</time>
      </trkpt>
      <trkpt lat="48.70338" lon="1.73738">
        <ele>175</ele>
        <time>2010-05-14T09:27:49Z</time>
      </trkpt>
      <trkpt lat="48.70337" lon="1.73738">
        <ele>175</ele>
        <time>2010-05-14T09:27:50Z</time>
      </trkpt>
      <trkpt lat="48.70336" lon="1.73738">
        <ele>175</ele>
        <time>2010-05-14T09:27:51Z</time>
      </trkpt>
      <trkpt lat="48.70334" lon="1.73738">
        <ele>175</ele>
        <time>2010-05-14T09:27:53Z</time>
      </trkpt>
      <trkpt lat="48.70332" lon="1.73738">
        <ele>175</ele>
        <time>2010-05-14T09:27:54Z</time>
      </trkpt>
      <trkpt lat="48.70331" lon="1.73738">
        <ele>175</ele>
        <time>2010-05-14T09:27:55Z</time>
      </trkpt>
      <trkpt lat="48.7033" lon="1.73738">
        <ele>175</ele>
        <time>2010-05-14T09:27:56Z</time>
      </trkpt>
      <trkpt lat="48.70328" lon="1.73738">
        <ele>175</ele>
        <time>2010-05-14T09:27:57Z</time>
      </trkpt>
      <trkpt lat="48.70327" lon="1.73737">
        <ele>175</ele>
        <time>2010-05-14T09:27:59Z</time>
      </trkpt>
      <trkpt lat="48.70325" lon="1.73737">
        <ele>175</ele>
        <time>2010-05-14T09:28:00Z</time>
      </trkpt>
      <trkpt lat="48.70324" lon="1.73736">
        <ele>175</ele>
        <time>2010-05-14T09:28:01Z</time>
      </trkpt>
      <trkpt lat="48.70321" lon="1.73734">
        <ele>175</ele>
        <time>2010-05-14T09:28:03Z</time>
      </trkpt>
      <trkpt lat="48.70318" lon="1.73733">
        <ele>175</ele>
        <time>2010-05-14T09:28:04Z</time>
      </trkpt>
      <trkpt lat="48.70316" lon="1.73732">
        <ele>175</ele>
        <time>2010-05-14T09:28:05Z</time>
      </trkpt>
      <trkpt lat="48.70314" lon="1.73731">
        <ele>175</ele>
        <time>2010-05-14T09:28:06Z</time>
      </trkpt>
      <trkpt lat="48.70311" lon="1.7373">
        <ele>175</ele>
        <time>2010-05-14T09:28:07Z</time>
      </trkpt>
      <trkpt lat="48.70309" lon="1.7373">
        <ele>175</ele>
        <time>2010-05-14T09:28:08Z</time>
      </trkpt>
      <trkpt lat="48.70307" lon="1.73731">
        <ele>175</ele>
        <time>2010-05-14T09:28:09Z</time>
      </trkpt>
      <trkpt lat="48.70306" lon="1.7373">
        <ele>175</ele>
        <time>2010-05-14T09:28:11Z</time>
      </trkpt>
      <trkpt lat="48.70304" lon="1.73731">
        <ele>175</ele>
        <time>2010-05-14T09:28:12Z</time>
      </trkpt>
      <trkpt lat="48.70303" lon="1.73731">
        <ele>175</ele>
        <time>2010-05-14T09:28:13Z</time>
      </trkpt>
      <trkpt lat="48.70301" lon="1.73731">
        <ele>175</ele>
        <time>2010-05-14T09:28:14Z</time>
      </trkpt>
      <trkpt lat="48.703" lon="1.7373">
        <ele>175</ele>
        <time>2010-05-14T09:28:15Z</time>
      </trkpt>
      <trkpt lat="48.70298" lon="1.73729">
        <ele>175</ele>
        <time>2010-05-14T09:28:16Z</time>
      </trkpt>
      <trkpt lat="48.70296" lon="1.7373">
        <ele>175</ele>
        <time>2010-05-14T09:28:17Z</time>
      </trkpt>
      <trkpt lat="48.70294" lon="1.73729">
        <ele>175</ele>
        <time>2010-05-14T09:28:18Z</time>
      </trkpt>
      <trkpt lat="48.70293" lon="1.73729">
        <ele>175</ele>
        <time>2010-05-14T09:28:19Z</time>
      </trkpt>
      <trkpt lat="48.70291" lon="1.7373">
        <ele>175</ele>
        <time>2010-05-14T09:28:20Z</time>
      </trkpt>
      <trkpt lat="48.7029" lon="1.73731">
        <ele>175</ele>
        <time>2010-05-14T09:28:21Z</time>
      </trkpt>
      <trkpt lat="48.70288" lon="1.73731">
        <ele>175</ele>
        <time>2010-05-14T09:28:22Z</time>
      </trkpt>
      <trkpt lat="48.70285" lon="1.73732">
        <ele>175</ele>
        <time>2010-05-14T09:28:24Z</time>
      </trkpt>
      <trkpt lat="48.70284" lon="1.73732">
        <ele>175</ele>
        <time>2010-05-14T09:28:25Z</time>
      </trkpt>
      <trkpt lat="48.70282" lon="1.73733">
        <ele>175</ele>
        <time>2010-05-14T09:28:26Z</time>
      </trkpt>
      <trkpt lat="48.7028" lon="1.73733">
        <ele>175</ele>
        <time>2010-05-14T09:28:28Z</time>
      </trkpt>
      <trkpt lat="48.70278" lon="1.73732">
        <ele>175</ele>
        <time>2010-05-14T09:28:29Z</time>
      </trkpt>
      <trkpt lat="48.70276" lon="1.73731">
        <ele>175</ele>
        <time>2010-05-14T09:28:30Z</time>
      </trkpt>
      <trkpt lat="48.70274" lon="1.7373">
        <ele>175</ele>
        <time>2010-05-14T09:28:31Z</time>
      </trkpt>
      <trkpt lat="48.70273" lon="1.73731">
        <ele>175</ele>
        <time>2010-05-14T09:28:32Z</time>
      </trkpt>
      <trkpt lat="48.70271" lon="1.73732">
        <ele>175</ele>
        <time>2010-05-14T09:28:33Z</time>
      </trkpt>
      <trkpt lat="48.7027" lon="1.73732">
        <ele>175</ele>
        <time>2010-05-14T09:28:34Z</time>
      </trkpt>
      <trkpt lat="48.70268" lon="1.73733">
        <ele>175</ele>
        <time>2010-05-14T09:28:35Z</time>
      </trkpt>
      <trkpt lat="48.70267" lon="1.73733">
        <ele>175</ele>
        <time>2010-05-14T09:28:36Z</time>
      </trkpt>
      <trkpt lat="48.70265" lon="1.73733">
        <ele>175</ele>
        <time>2010-05-14T09:28:37Z</time>
      </trkpt>
      <trkpt lat="48.70263" lon="1.73733">
        <ele>175</ele>
        <time>2010-05-14T09:28:38Z</time>
      </trkpt>
      <trkpt lat="48.70261" lon="1.73734">
        <ele>175</ele>
        <time>2010-05-14T09:28:40Z</time>
      </trkpt>
      <trkpt lat="48.7026" lon="1.73734">
        <ele>175</ele>
        <time>2010-05-14T09:28:41Z</time>
      </trkpt>
      <trkpt lat="48.70259" lon="1.73732">
        <ele>175</ele>
        <time>2010-05-14T09:28:42Z</time>
      </trkpt>
      <trkpt lat="48.70257" lon="1.73733">
        <ele>175</ele>
        <time>2010-05-14T09:28:43Z</time>
      </trkpt>
      <trkpt lat="48.70255" lon="1.73733">
        <ele>175</ele>
        <time>2010-05-14T09:28:44Z</time>
      </trkpt>
      <trkpt lat="48.70253" lon="1.73733">
        <ele>175</ele>
        <time>2010-05-14T09:28:45Z</time>
      </trkpt>
      <trkpt lat="48.70251" lon="1.73733">
        <ele>175</ele>
        <time>2010-05-14T09:28:46Z</time>
      </trkpt>
      <trkpt lat="48.70249" lon="1.73733">
        <ele>175</ele>
        <time>2010-05-14T09:28:47Z</time>
      </trkpt>
      <trkpt lat="48.70247" lon="1.73732">
        <ele>175</ele>
        <time>2010-05-14T09:28:48Z</time>
      </trkpt>
      <trkpt lat="48.70245" lon="1.73732">
        <ele>175</ele>
        <time>2010-05-14T09:28:49Z</time>
      </trkpt>
      <trkpt lat="48.70244" lon="1.73731">
        <ele>175</ele>
        <time>2010-05-14T09:28:50Z</time>
      </trkpt>
      <trkpt lat="48.70242" lon="1.73731">
        <ele>175</ele>
        <time>2010-05-14T09:28:51Z</time>
      </trkpt>
      <trkpt lat="48.70241" lon="1.73731">
        <ele>175</ele>
        <time>2010-05-14T09:28:53Z</time>
      </trkpt>
      <trkpt lat="48.70239" lon="1.7373">
        <ele>175</ele>
        <time>2010-05-14T09:28:54Z</time>
      </trkpt>
      <trkpt lat="48.70238" lon="1.73729">
        <ele>175</ele>
        <time>2010-05-14T09:28:55Z</time>
      </trkpt>
      <trkpt lat="48.70236" lon="1.73729">
        <ele>175</ele>
        <time>2010-05-14T09:28:56Z</time>
      </trkpt>
      <trkpt lat="48.70235" lon="1.73729">
        <ele>175</ele>
        <time>2010-05-14T09:28:57Z</time>
      </trkpt>
      <trkpt lat="48.70234" lon="1.73729">
        <ele>175</ele>
        <time>2010-05-14T09:28:58Z</time>
      </trkpt>
      <trkpt lat="48.70232" lon="1.73729">
        <ele>175</ele>
        <time>2010-05-14T09:28:59Z</time>
      </trkpt>
      <trkpt lat="48.70231" lon="1.73729">
        <ele>175</ele>
        <time>2010-05-14T09:29:00Z</time>
      </trkpt>
      <trkpt lat="48.70229" lon="1.73729">
        <ele>175</ele>
        <time>2010-05-14T09:29:01Z</time>
      </trkpt>
      <trkpt lat="48.70227" lon="1.73729">
        <ele>175</ele>
        <time>2010-05-14T09:29:03Z</time>
      </trkpt>
      <trkpt lat="48.70225" lon="1.73729">
        <ele>175</ele>
        <time>2010-05-14T09:29:04Z</time>
      </trkpt>
      <trkpt lat="48.70223" lon="1.73728">
        <ele>175</ele>
        <time>2010-05-14T09:29:05Z</time>
      </trkpt>
      <trkpt lat="48.70221" lon="1.73728">
        <ele>175</ele>
        <time>2010-05-14T09:29:06Z</time>
      </trkpt>
      <trkpt lat="48.7022" lon="1.73728">
        <ele>175</ele>
        <time>2010-05-14T09:29:07Z</time>
      </trkpt>
      <trkpt lat="48.70218" lon="1.73728">
        <ele>175</ele>
        <time>2010-05-14T09:29:08Z</time>
      </trkpt>
      <trkpt lat="48.70216" lon="1.73727">
        <ele>175</ele>
        <time>2010-05-14T09:29:09Z</time>
      </trkpt>
      <trkpt lat="48.70215" lon="1.73727">
        <ele>175</ele>
        <time>2010-05-14T09:29:10Z</time>
      </trkpt>
      <trkpt lat="48.70213" lon="1.73726">
        <ele>175</ele>
        <time>2010-05-14T09:29:11Z</time>
      </trkpt>
      <trkpt lat="48.70211" lon="1.73725">
        <ele>175</ele>
        <time>2010-05-14T09:29:12Z</time>
      </trkpt>
      <trkpt lat="48.70209" lon="1.73725">
        <ele>175</ele>
        <time>2010-05-14T09:29:13Z</time>
      </trkpt>
      <trkpt lat="48.70207" lon="1.73725">
        <ele>175</ele>
        <time>2010-05-14T09:29:14Z</time>
      </trkpt>
      <trkpt lat="48.70205" lon="1.73724">
        <ele>175</ele>
        <time>2010-05-14T09:29:15Z</time>
      </trkpt>
      <trkpt lat="48.70203" lon="1.73724">
        <ele>175</ele>
        <time>2010-05-14T09:29:16Z</time>
      </trkpt>
      <trkpt lat="48.70202" lon="1.73725">
        <ele>175</ele>
        <time>2010-05-14T09:29:17Z</time>
      </trkpt>
      <trkpt lat="48.702" lon="1.73725">
        <ele>175</ele>
        <time>2010-05-14T09:29:18Z</time>
      </trkpt>
      <trkpt lat="48.70199" lon="1.73724">
        <ele>175</ele>
        <time>2010-05-14T09:29:19Z</time>
      </trkpt>
      <trkpt lat="48.70198" lon="1.73724">
        <ele>176</ele>
        <time>2010-05-14T09:29:20Z</time>
      </trkpt>
      <trkpt lat="48.70196" lon="1.73725">
        <ele>176</ele>
        <time>2010-05-14T09:29:21Z</time>
      </trkpt>
      <trkpt lat="48.70193" lon="1.73726">
        <ele>177</ele>
        <time>2010-05-14T09:29:23Z</time>
      </trkpt>
      <trkpt lat="48.70191" lon="1.73725">
        <ele>177</ele>
        <time>2010-05-14T09:29:24Z</time>
      </trkpt>
      <trkpt lat="48.7019" lon="1.73724">
        <ele>177</ele>
        <time>2010-05-14T09:29:26Z</time>
      </trkpt>
      <trkpt lat="48.70188" lon="1.73722">
        <ele>177</ele>
        <time>2010-05-14T09:29:27Z</time>
      </trkpt>
      <trkpt lat="48.70187" lon="1.73722">
        <ele>177</ele>
        <time>2010-05-14T09:29:28Z</time>
      </trkpt>
      <trkpt lat="48.70185" lon="1.73721">
        <ele>177</ele>
        <time>2010-05-14T09:29:29Z</time>
      </trkpt>
      <trkpt lat="48.70184" lon="1.7372">
        <ele>177</ele>
        <time>2010-05-14T09:29:30Z</time>
      </trkpt>
      <trkpt lat="48.70181" lon="1.7372">
        <ele>176</ele>
        <time>2010-05-14T09:29:32Z</time>
      </trkpt>
      <trkpt lat="48.70179" lon="1.7372">
        <ele>175</ele>
        <time>2010-05-14T09:29:33Z</time>
      </trkpt>
      <trkpt lat="48.70177" lon="1.7372">
        <ele>175</ele>
        <time>2010-05-14T09:29:34Z</time>
      </trkpt>
      <trkpt lat="48.70176" lon="1.73721">
        <ele>175</ele>
        <time>2010-05-14T09:29:35Z</time>
      </trkpt>
      <trkpt lat="48.70174" lon="1.73721">
        <ele>174</ele>
        <time>2010-05-14T09:29:36Z</time>
      </trkpt>
      <trkpt lat="48.70172" lon="1.73721">
        <ele>174</ele>
        <time>2010-05-14T09:29:37Z</time>
      </trkpt>
      <trkpt lat="48.7017" lon="1.73722">
        <ele>173</ele>
        <time>2010-05-14T09:29:38Z</time>
      </trkpt>
      <trkpt lat="48.70168" lon="1.73723">
        <ele>173</ele>
        <time>2010-05-14T09:29:39Z</time>
      </trkpt>
      <trkpt lat="48.70167" lon="1.73723">
        <ele>172</ele>
        <time>2010-05-14T09:29:40Z</time>
      </trkpt>
      <trkpt lat="48.70166" lon="1.73724">
        <ele>171</ele>
        <time>2010-05-14T09:29:41Z</time>
      </trkpt>
      <trkpt lat="48.70164" lon="1.73724">
        <ele>170</ele>
        <time>2010-05-14T09:29:42Z</time>
      </trkpt>
      <trkpt lat="48.70163" lon="1.73723">
        <ele>170</ele>
        <time>2010-05-14T09:29:43Z</time>
      </trkpt>
      <trkpt lat="48.70161" lon="1.73722">
        <ele>169</ele>
        <time>2010-05-14T09:29:44Z</time>
      </trkpt>
      <trkpt lat="48.7016" lon="1.73722">
        <ele>168</ele>
        <time>2010-05-14T09:29:45Z</time>
      </trkpt>
      <trkpt lat="48.70157" lon="1.7372">
        <ele>168</ele>
        <time>2010-05-14T09:29:47Z</time>
      </trkpt>
      <trkpt lat="48.70156" lon="1.73718">
        <ele>168</ele>
        <time>2010-05-14T09:29:48Z</time>
      </trkpt>
      <trkpt lat="48.70155" lon="1.73718">
        <ele>168</ele>
        <time>2010-05-14T09:29:49Z</time>
      </trkpt>
      <trkpt lat="48.70154" lon="1.73718">
        <ele>168</ele>
        <time>2010-05-14T09:29:50Z</time>
      </trkpt>
      <trkpt lat="48.70151" lon="1.73718">
        <ele>168</ele>
        <time>2010-05-14T09:29:51Z</time>
      </trkpt>
      <trkpt lat="48.7015" lon="1.73718">
        <ele>168</ele>
        <time>2010-05-14T09:29:52Z</time>
      </trkpt>
      <trkpt lat="48.70148" lon="1.73718">
        <ele>168</ele>
        <time>2010-05-14T09:29:53Z</time>
      </trkpt>
      <trkpt lat="48.70146" lon="1.73717">
        <ele>168</ele>
        <time>2010-05-14T09:29:54Z</time>
      </trkpt>
      <trkpt lat="48.70143" lon="1.73717">
        <ele>168</ele>
        <time>2010-05-14T09:29:55Z</time>
      </trkpt>
      <trkpt lat="48.70142" lon="1.73717">
        <ele>168</ele>
        <time>2010-05-14T09:29:56Z</time>
      </trkpt>
      <trkpt lat="48.7014" lon="1.73716">
        <ele>168</ele>
        <time>2010-05-14T09:29:57Z</time>
      </trkpt>
      <trkpt lat="48.70139" lon="1.73716">
        <ele>168</ele>
        <time>2010-05-14T09:29:58Z</time>
      </trkpt>
      <trkpt lat="48.70136" lon="1.73716">
        <ele>168</ele>
        <time>2010-05-14T09:30:00Z</time>
      </trkpt>
      <trkpt lat="48.70134" lon="1.73716">
        <ele>168</ele>
        <time>2010-05-14T09:30:01Z</time>
      </trkpt>
      <trkpt lat="48.70133" lon="1.73716">
        <ele>168</ele>
        <time>2010-05-14T09:30:02Z</time>
      </trkpt>
      <trkpt lat="48.70131" lon="1.73717">
        <ele>168</ele>
        <time>2010-05-14T09:30:03Z</time>
      </trkpt>
      <trkpt lat="48.70129" lon="1.73716">
        <ele>168</ele>
        <time>2010-05-14T09:30:04Z</time>
      </trkpt>
      <trkpt lat="48.70128" lon="1.73716">
        <ele>168</ele>
        <time>2010-05-14T09:30:05Z</time>
      </trkpt>
      <trkpt lat="48.70126" lon="1.73716">
        <ele>168</ele>
        <time>2010-05-14T09:30:06Z</time>
      </trkpt>
      <trkpt lat="48.70124" lon="1.73716">
        <ele>168</ele>
        <time>2010-05-14T09:30:07Z</time>
      </trkpt>
      <trkpt lat="48.70123" lon="1.73715">
        <ele>168</ele>
        <time>2010-05-14T09:30:08Z</time>
      </trkpt>
      <trkpt lat="48.70122" lon="1.73715">
        <ele>168</ele>
        <time>2010-05-14T09:30:09Z</time>
      </trkpt>
      <trkpt lat="48.7012" lon="1.73716">
        <ele>167</ele>
        <time>2010-05-14T09:30:10Z</time>
      </trkpt>
      <trkpt lat="48.70119" lon="1.73716">
        <ele>167</ele>
        <time>2010-05-14T09:30:11Z</time>
      </trkpt>
      <trkpt lat="48.70117" lon="1.73717">
        <ele>167</ele>
        <time>2010-05-14T09:30:12Z</time>
      </trkpt>
      <trkpt lat="48.70116" lon="1.73716">
        <ele>167</ele>
        <time>2010-05-14T09:30:13Z</time>
      </trkpt>
      <trkpt lat="48.70114" lon="1.73717">
        <ele>167</ele>
        <time>2010-05-14T09:30:14Z</time>
      </trkpt>
      <trkpt lat="48.70113" lon="1.73716">
        <ele>167</ele>
        <time>2010-05-14T09:30:15Z</time>
      </trkpt>
      <trkpt lat="48.70112" lon="1.73716">
        <ele>167</ele>
        <time>2010-05-14T09:30:16Z</time>
      </trkpt>
      <trkpt lat="48.70111" lon="1.73716">
        <ele>167</ele>
        <time>2010-05-14T09:30:17Z</time>
      </trkpt>
      <trkpt lat="48.70109" lon="1.73716">
        <ele>167</ele>
        <time>2010-05-14T09:30:18Z</time>
      </trkpt>
      <trkpt lat="48.70107" lon="1.73716">
        <ele>167</ele>
        <time>2010-05-14T09:30:19Z</time>
      </trkpt>
      <trkpt lat="48.70105" lon="1.73715">
        <ele>167</ele>
        <time>2010-05-14T09:30:20Z</time>
      </trkpt>
      <trkpt lat="48.70103" lon="1.73715">
        <ele>167</ele>
        <time>2010-05-14T09:30:22Z</time>
      </trkpt>
      <trkpt lat="48.70101" lon="1.73715">
        <ele>167</ele>
        <time>2010-05-14T09:30:23Z</time>
      </trkpt>
      <trkpt lat="48.70099" lon="1.73715">
        <ele>167</ele>
        <time>2010-05-14T09:30:24Z</time>
      </trkpt>
      <trkpt lat="48.70097" lon="1.73715">
        <ele>167</ele>
        <time>2010-05-14T09:30:25Z</time>
      </trkpt>
      <trkpt lat="48.70096" lon="1.73715">
        <ele>167</ele>
        <time>2010-05-14T09:30:26Z</time>
      </trkpt>
      <trkpt lat="48.70093" lon="1.73714">
        <ele>167</ele>
        <time>2010-05-14T09:30:27Z</time>
      </trkpt>
      <trkpt lat="48.70091" lon="1.73714">
        <ele>167</ele>
        <time>2010-05-14T09:30:28Z</time>
      </trkpt>
      <trkpt lat="48.7009" lon="1.73713">
        <ele>167</ele>
        <time>2010-05-14T09:30:29Z</time>
      </trkpt>
      <trkpt lat="48.70089" lon="1.73713">
        <ele>167</ele>
        <time>2010-05-14T09:30:30Z</time>
      </trkpt>
      <trkpt lat="48.70087" lon="1.73713">
        <ele>167</ele>
        <time>2010-05-14T09:30:31Z</time>
      </trkpt>
      <trkpt lat="48.70085" lon="1.73713">
        <ele>167</ele>
        <time>2010-05-14T09:30:32Z</time>
      </trkpt>
      <trkpt lat="48.70083" lon="1.73712">
        <ele>167</ele>
        <time>2010-05-14T09:30:33Z</time>
      </trkpt>
      <trkpt lat="48.70082" lon="1.73712">
        <ele>167</ele>
        <time>2010-05-14T09:30:34Z</time>
      </trkpt>
      <trkpt lat="48.7008" lon="1.73712">
        <ele>167</ele>
        <time>2010-05-14T09:30:35Z</time>
      </trkpt>
      <trkpt lat="48.70079" lon="1.73712">
        <ele>167</ele>
        <time>2010-05-14T09:30:36Z</time>
      </trkpt>
      <trkpt lat="48.70077" lon="1.73711">
        <ele>167</ele>
        <time>2010-05-14T09:30:37Z</time>
      </trkpt>
      <trkpt lat="48.70075" lon="1.7371">
        <ele>167</ele>
        <time>2010-05-14T09:30:38Z</time>
      </trkpt>
      <trkpt lat="48.70074" lon="1.73708">
        <ele>167</ele>
        <time>2010-05-14T09:30:39Z</time>
      </trkpt>
      <trkpt lat="48.70072" lon="1.73707">
        <ele>167</ele>
        <time>2010-05-14T09:30:40Z</time>
      </trkpt>
      <trkpt lat="48.7007" lon="1.73706">
        <ele>167</ele>
        <time>2010-05-14T09:30:41Z</time>
      </trkpt>
      <trkpt lat="48.70067" lon="1.73705">
        <ele>167</ele>
        <time>2010-05-14T09:30:42Z</time>
      </trkpt>
      <trkpt lat="48.70065" lon="1.73705">
        <ele>167</ele>
        <time>2010-05-14T09:30:43Z</time>
      </trkpt>
      <trkpt lat="48.70064" lon="1.73705">
        <ele>167</ele>
        <time>2010-05-14T09:30:44Z</time>
      </trkpt>
      <trkpt lat="48.70063" lon="1.73705">
        <ele>167</ele>
        <time>2010-05-14T09:30:45Z</time>
      </trkpt>
      <trkpt lat="48.70061" lon="1.73706">
        <ele>167</ele>
        <time>2010-05-14T09:30:46Z</time>
      </trkpt>
      <trkpt lat="48.70059" lon="1.73707">
        <ele>167</ele>
        <time>2010-05-14T09:30:47Z</time>
      </trkpt>
      <trkpt lat="48.70057" lon="1.73707">
        <ele>167</ele>
        <time>2010-05-14T09:30:48Z</time>
      </trkpt>
      <trkpt lat="48.70054" lon="1.73706">
        <ele>167</ele>
        <time>2010-05-14T09:30:50Z</time>
      </trkpt>
      <trkpt lat="48.70052" lon="1.73706">
        <ele>167</ele>
        <time>2010-05-14T09:30:52Z</time>
      </trkpt>
      <trkpt lat="48.7005" lon="1.73706">
        <ele>167</ele>
        <time>2010-05-14T09:30:54Z</time>
      </trkpt>
      <trkpt lat="48.70048" lon="1.73706">
        <ele>167</ele>
        <time>2010-05-14T09:30:55Z</time>
      </trkpt>
      <trkpt lat="48.70047" lon="1.73706">
        <ele>167</ele>
        <time>2010-05-14T09:30:56Z</time>
      </trkpt>
      <trkpt lat="48.70046" lon="1.73706">
        <ele>167</ele>
        <time>2010-05-14T09:30:57Z</time>
      </trkpt>
      <trkpt lat="48.70044" lon="1.73705">
        <ele>167</ele>
        <time>2010-05-14T09:30:58Z</time>
      </trkpt>
      <trkpt lat="48.70042" lon="1.73705">
        <ele>167</ele>
        <time>2010-05-14T09:30:59Z</time>
      </trkpt>
      <trkpt lat="48.70041" lon="1.73706">
        <ele>167</ele>
        <time>2010-05-14T09:31:00Z</time>
      </trkpt>
      <trkpt lat="48.70039" lon="1.73706">
        <ele>167</ele>
        <time>2010-05-14T09:31:01Z</time>
      </trkpt>
      <trkpt lat="48.70038" lon="1.73707">
        <ele>167</ele>
        <time>2010-05-14T09:31:02Z</time>
      </trkpt>
      <trkpt lat="48.70037" lon="1.73707">
        <ele>167</ele>
        <time>2010-05-14T09:31:03Z</time>
      </trkpt>
      <trkpt lat="48.70035" lon="1.73707">
        <ele>167</ele>
        <time>2010-05-14T09:31:04Z</time>
      </trkpt>
      <trkpt lat="48.70034" lon="1.73707">
        <ele>167</ele>
        <time>2010-05-14T09:31:05Z</time>
      </trkpt>
      <trkpt lat="48.70032" lon="1.73707">
        <ele>167</ele>
        <time>2010-05-14T09:31:06Z</time>
      </trkpt>
      <trkpt lat="48.7003" lon="1.73706">
        <ele>167</ele>
        <time>2010-05-14T09:31:07Z</time>
      </trkpt>
      <trkpt lat="48.70029" lon="1.73705">
        <ele>168</ele>
        <time>2010-05-14T09:31:08Z</time>
      </trkpt>
      <trkpt lat="48.70026" lon="1.73703">
        <ele>169</ele>
        <time>2010-05-14T09:31:10Z</time>
      </trkpt>
      <trkpt lat="48.70025" lon="1.73702">
        <ele>169</ele>
        <time>2010-05-14T09:31:11Z</time>
      </trkpt>
      <trkpt lat="48.70023" lon="1.73702">
        <ele>169</ele>
        <time>2010-05-14T09:31:12Z</time>
      </trkpt>
      <trkpt lat="48.70021" lon="1.73702">
        <ele>169</ele>
        <time>2010-05-14T09:31:13Z</time>
      </trkpt>
      <trkpt lat="48.7002" lon="1.73703">
        <ele>169</ele>
        <time>2010-05-14T09:31:14Z</time>
      </trkpt>
      <trkpt lat="48.70017" lon="1.73704">
        <ele>169</ele>
        <time>2010-05-14T09:31:16Z</time>
      </trkpt>
      <trkpt lat="48.70016" lon="1.73704">
        <ele>169</ele>
        <time>2010-05-14T09:31:17Z</time>
      </trkpt>
      <trkpt lat="48.70014" lon="1.73705">
        <ele>169</ele>
        <time>2010-05-14T09:31:19Z</time>
      </trkpt>
      <trkpt lat="48.70012" lon="1.73705">
        <ele>169</ele>
        <time>2010-05-14T09:31:21Z</time>
      </trkpt>
      <trkpt lat="48.70009" lon="1.73705">
        <ele>169</ele>
        <time>2010-05-14T09:31:23Z</time>
      </trkpt>
      <trkpt lat="48.70008" lon="1.73705">
        <ele>169</ele>
        <time>2010-05-14T09:31:24Z</time>
      </trkpt>
      <trkpt lat="48.70006" lon="1.73706">
        <ele>170</ele>
        <time>2010-05-14T09:31:25Z</time>
      </trkpt>
      <trkpt lat="48.70005" lon="1.73705">
        <ele>170</ele>
        <time>2010-05-14T09:31:26Z</time>
      </trkpt>
      <trkpt lat="48.70002" lon="1.73705">
        <ele>171</ele>
        <time>2010-05-14T09:31:27Z</time>
      </trkpt>
      <trkpt lat="48.7" lon="1.73705">
        <ele>172</ele>
        <time>2010-05-14T09:31:28Z</time>
      </trkpt>
      <trkpt lat="48.69998" lon="1.73706">
        <ele>173</ele>
        <time>2010-05-14T09:31:29Z</time>
      </trkpt>
      <trkpt lat="48.69997" lon="1.73706">
        <ele>173</ele>
        <time>2010-05-14T09:31:30Z</time>
      </trkpt>
      <trkpt lat="48.69995" lon="1.73706">
        <ele>174</ele>
        <time>2010-05-14T09:31:31Z</time>
      </trkpt>
      <trkpt lat="48.69993" lon="1.73706">
        <ele>174</ele>
        <time>2010-05-14T09:31:32Z</time>
      </trkpt>
      <trkpt lat="48.69992" lon="1.73706">
        <ele>174</ele>
        <time>2010-05-14T09:31:33Z</time>
      </trkpt>
      <trkpt lat="48.69991" lon="1.73706">
        <ele>174</ele>
        <time>2010-05-14T09:31:34Z</time>
      </trkpt>
      <trkpt lat="48.69988" lon="1.73707">
        <ele>174</ele>
        <time>2010-05-14T09:31:36Z</time>
      </trkpt>
      <trkpt lat="48.69987" lon="1.73707">
        <ele>174</ele>
        <time>2010-05-14T09:31:37Z</time>
      </trkpt>
      <trkpt lat="48.69986" lon="1.73706">
        <ele>174</ele>
        <time>2010-05-14T09:31:38Z</time>
      </trkpt>
      <trkpt lat="48.69984" lon="1.73705">
        <ele>174</ele>
        <time>2010-05-14T09:31:39Z</time>
      </trkpt>
      <trkpt lat="48.69983" lon="1.73704">
        <ele>174</ele>
        <time>2010-05-14T09:31:40Z</time>
      </trkpt>
      <trkpt lat="48.69982" lon="1.73704">
        <ele>174</ele>
        <time>2010-05-14T09:31:41Z</time>
      </trkpt>
      <trkpt lat="48.6998" lon="1.73702">
        <ele>174</ele>
        <time>2010-05-14T09:31:42Z</time>
      </trkpt>
      <trkpt lat="48.69978" lon="1.73701">
        <ele>174</ele>
        <time>2010-05-14T09:31:43Z</time>
      </trkpt>
      <trkpt lat="48.69975" lon="1.737">
        <ele>174</ele>
        <time>2010-05-14T09:31:44Z</time>
      </trkpt>
      <trkpt lat="48.69972" lon="1.73699">
        <ele>174</ele>
        <time>2010-05-14T09:31:45Z</time>
      </trkpt>
      <trkpt lat="48.6997" lon="1.73699">
        <ele>174</ele>
        <time>2010-05-14T09:31:46Z</time>
      </trkpt>
      <trkpt lat="48.69967" lon="1.73697">
        <ele>174</ele>
        <time>2010-05-14T09:31:47Z</time>
      </trkpt>
      <trkpt lat="48.69964" lon="1.73696">
        <ele>173</ele>
        <time>2010-05-14T09:31:48Z</time>
      </trkpt>
      <trkpt lat="48.69962" lon="1.73696">
        <ele>172</ele>
        <time>2010-05-14T09:31:49Z</time>
      </trkpt>
      <trkpt lat="48.6996" lon="1.73696">
        <ele>171</ele>
        <time>2010-05-14T09:31:50Z</time>
      </trkpt>
      <trkpt lat="48.69958" lon="1.73696">
        <ele>170</ele>
        <time>2010-05-14T09:31:51Z</time>
      </trkpt>
      <trkpt lat="48.69956" lon="1.73697">
        <ele>169</ele>
        <time>2010-05-14T09:31:52Z</time>
      </trkpt>
      <trkpt lat="48.69955" lon="1.73697">
        <ele>169</ele>
        <time>2010-05-14T09:31:53Z</time>
      </trkpt>
      <trkpt lat="48.69954" lon="1.73698">
        <ele>169</ele>
        <time>2010-05-14T09:31:54Z</time>
      </trkpt>
      <trkpt lat="48.69952" lon="1.73697">
        <ele>169</ele>
        <time>2010-05-14T09:31:55Z</time>
      </trkpt>
      <trkpt lat="48.69951" lon="1.73698">
        <ele>169</ele>
        <time>2010-05-14T09:31:56Z</time>
      </trkpt>
      <trkpt lat="48.69949" lon="1.73699">
        <ele>169</ele>
        <time>2010-05-14T09:31:57Z</time>
      </trkpt>
      <trkpt lat="48.69947" lon="1.73702">
        <ele>169</ele>
        <time>2010-05-14T09:31:58Z</time>
      </trkpt>
      <trkpt lat="48.69945" lon="1.73702">
        <ele>169</ele>
        <time>2010-05-14T09:31:59Z</time>
      </trkpt>
      <trkpt lat="48.69943" lon="1.73703">
        <ele>169</ele>
        <time>2010-05-14T09:32:00Z</time>
      </trkpt>
      <trkpt lat="48.69941" lon="1.73703">
        <ele>170</ele>
        <time>2010-05-14T09:32:01Z</time>
      </trkpt>
      <trkpt lat="48.6994" lon="1.73703">
        <ele>171</ele>
        <time>2010-05-14T09:32:02Z</time>
      </trkpt>
      <trkpt lat="48.69939" lon="1.73703">
        <ele>172</ele>
        <time>2010-05-14T09:32:03Z</time>
      </trkpt>
      <trkpt lat="48.69937" lon="1.73703">
        <ele>173</ele>
        <time>2010-05-14T09:32:04Z</time>
      </trkpt>
      <trkpt lat="48.69936" lon="1.73702">
        <ele>174</ele>
        <time>2010-05-14T09:32:05Z</time>
      </trkpt>
      <trkpt lat="48.69934" lon="1.737">
        <ele>174</ele>
        <time>2010-05-14T09:32:07Z</time>
      </trkpt>
      <trkpt lat="48.69932" lon="1.73699">
        <ele>174</ele>
        <time>2010-05-14T09:32:09Z</time>
      </trkpt>
      <trkpt lat="48.69929" lon="1.73698">
        <ele>174</ele>
        <time>2010-05-14T09:32:11Z</time>
      </trkpt>
      <trkpt lat="48.69927" lon="1.73698">
        <ele>174</ele>
        <time>2010-05-14T09:32:12Z</time>
      </trkpt>
      <trkpt lat="48.69925" lon="1.73698">
        <ele>174</ele>
        <time>2010-05-14T09:32:13Z</time>
      </trkpt>
      <trkpt lat="48.69924" lon="1.73698">
        <ele>174</ele>
        <time>2010-05-14T09:32:14Z</time>
      </trkpt>
      <trkpt lat="48.69922" lon="1.73698">
        <ele>174</ele>
        <time>2010-05-14T09:32:15Z</time>
      </trkpt>
      <trkpt lat="48.6992" lon="1.73697">
        <ele>174</ele>
        <time>2010-05-14T09:32:17Z</time>
      </trkpt>
      <trkpt lat="48.69918" lon="1.73696">
        <ele>174</ele>
        <time>2010-05-14T09:32:18Z</time>
      </trkpt>
      <trkpt lat="48.69916" lon="1.73695">
        <ele>174</ele>
        <time>2010-05-14T09:32:19Z</time>
      </trkpt>
      <trkpt lat="48.69914" lon="1.73696">
        <ele>174</ele>
        <time>2010-05-14T09:32:20Z</time>
      </trkpt>
      <trkpt lat="48.69913" lon="1.73696">
        <ele>174</ele>
        <time>2010-05-14T09:32:21Z</time>
      </trkpt>
      <trkpt lat="48.69911" lon="1.73696">
        <ele>174</ele>
        <time>2010-05-14T09:32:22Z</time>
      </trkpt>
      <trkpt lat="48.69909" lon="1.73695">
        <ele>174</ele>
        <time>2010-05-14T09:32:24Z</time>
      </trkpt>
      <trkpt lat="48.69908" lon="1.73694">
        <ele>174</ele>
        <time>2010-05-14T09:32:25Z</time>
      </trkpt>
      <trkpt lat="48.69906" lon="1.73695">
        <ele>174</ele>
        <time>2010-05-14T09:32:26Z</time>
      </trkpt>
      <trkpt lat="48.69905" lon="1.73695">
        <ele>174</ele>
        <time>2010-05-14T09:32:27Z</time>
      </trkpt>
      <trkpt lat="48.69903" lon="1.73695">
        <ele>174</ele>
        <time>2010-05-14T09:32:28Z</time>
      </trkpt>
      <trkpt lat="48.69902" lon="1.73696">
        <ele>174</ele>
        <time>2010-05-14T09:32:29Z</time>
      </trkpt>
      <trkpt lat="48.69901" lon="1.73696">
        <ele>174</ele>
        <time>2010-05-14T09:32:30Z</time>
      </trkpt>
      <trkpt lat="48.69899" lon="1.73696">
        <ele>174</ele>
        <time>2010-05-14T09:32:31Z</time>
      </trkpt>
      <trkpt lat="48.69897" lon="1.73696">
        <ele>174</ele>
        <time>2010-05-14T09:32:32Z</time>
      </trkpt>
      <trkpt lat="48.69895" lon="1.73696">
        <ele>174</ele>
        <time>2010-05-14T09:32:33Z</time>
      </trkpt>
      <trkpt lat="48.69893" lon="1.73696">
        <ele>174</ele>
        <time>2010-05-14T09:32:34Z</time>
      </trkpt>
      <trkpt lat="48.69892" lon="1.73695">
        <ele>174</ele>
        <time>2010-05-14T09:32:35Z</time>
      </trkpt>
      <trkpt lat="48.6989" lon="1.73694">
        <ele>174</ele>
        <time>2010-05-14T09:32:37Z</time>
      </trkpt>
      <trkpt lat="48.69889" lon="1.73695">
        <ele>174</ele>
        <time>2010-05-14T09:32:38Z</time>
      </trkpt>
      <trkpt lat="48.69887" lon="1.73694">
        <ele>174</ele>
        <time>2010-05-14T09:32:39Z</time>
      </trkpt>
      <trkpt lat="48.69885" lon="1.73694">
        <ele>174</ele>
        <time>2010-05-14T09:32:40Z</time>
      </trkpt>
      <trkpt lat="48.69883" lon="1.73694">
        <ele>174</ele>
        <time>2010-05-14T09:32:41Z</time>
      </trkpt>
      <trkpt lat="48.69882" lon="1.73693">
        <ele>174</ele>
        <time>2010-05-14T09:32:42Z</time>
      </trkpt>
      <trkpt lat="48.69881" lon="1.73693">
        <ele>174</ele>
        <time>2010-05-14T09:32:43Z</time>
      </trkpt>
      <trkpt lat="48.69879" lon="1.73694">
        <ele>174</ele>
        <time>2010-05-14T09:32:45Z</time>
      </trkpt>
      <trkpt lat="48.69877" lon="1.73694">
        <ele>174</ele>
        <time>2010-05-14T09:32:46Z</time>
      </trkpt>
      <trkpt lat="48.69876" lon="1.73694">
        <ele>174</ele>
        <time>2010-05-14T09:32:47Z</time>
      </trkpt>
      <trkpt lat="48.69874" lon="1.73693">
        <ele>174</ele>
        <time>2010-05-14T09:32:48Z</time>
      </trkpt>
      <trkpt lat="48.69872" lon="1.73694">
        <ele>174</ele>
        <time>2010-05-14T09:32:49Z</time>
      </trkpt>
      <trkpt lat="48.69871" lon="1.73694">
        <ele>174</ele>
        <time>2010-05-14T09:32:50Z</time>
      </trkpt>
      <trkpt lat="48.69868" lon="1.73694">
        <ele>174</ele>
        <time>2010-05-14T09:32:52Z</time>
      </trkpt>
      <trkpt lat="48.69866" lon="1.73693">
        <ele>174</ele>
        <time>2010-05-14T09:32:53Z</time>
      </trkpt>
      <trkpt lat="48.69865" lon="1.73692">
        <ele>174</ele>
        <time>2010-05-14T09:32:54Z</time>
      </trkpt>
      <trkpt lat="48.69865" lon="1.7369">
        <ele>174</ele>
        <time>2010-05-14T09:32:55Z</time>
      </trkpt>
      <trkpt lat="48.69863" lon="1.73689">
        <ele>174</ele>
        <time>2010-05-14T09:32:56Z</time>
      </trkpt>
      <trkpt lat="48.69862" lon="1.73689">
        <ele>174</ele>
        <time>2010-05-14T09:32:57Z</time>
      </trkpt>
      <trkpt lat="48.69861" lon="1.73689">
        <ele>174</ele>
        <time>2010-05-14T09:32:58Z</time>
      </trkpt>
      <trkpt lat="48.69859" lon="1.73689">
        <ele>173</ele>
        <time>2010-05-14T09:32:59Z</time>
      </trkpt>
      <trkpt lat="48.69858" lon="1.7369">
        <ele>173</ele>
        <time>2010-05-14T09:33:00Z</time>
      </trkpt>
      <trkpt lat="48.69856" lon="1.7369">
        <ele>173</ele>
        <time>2010-05-14T09:33:01Z</time>
      </trkpt>
      <trkpt lat="48.69854" lon="1.7369">
        <ele>172</ele>
        <time>2010-05-14T09:33:02Z</time>
      </trkpt>
      <trkpt lat="48.69853" lon="1.7369">
        <ele>172</ele>
        <time>2010-05-14T09:33:03Z</time>
      </trkpt>
      <trkpt lat="48.69851" lon="1.73689">
        <ele>172</ele>
        <time>2010-05-14T09:33:04Z</time>
      </trkpt>
      <trkpt lat="48.69848" lon="1.73689">
        <ele>172</ele>
        <time>2010-05-14T09:33:05Z</time>
      </trkpt>
      <trkpt lat="48.69846" lon="1.73688">
        <ele>172</ele>
        <time>2010-05-14T09:33:06Z</time>
      </trkpt>
      <trkpt lat="48.69844" lon="1.73686">
        <ele>172</ele>
        <time>2010-05-14T09:33:07Z</time>
      </trkpt>
      <trkpt lat="48.69842" lon="1.73686">
        <ele>172</ele>
        <time>2010-05-14T09:33:08Z</time>
      </trkpt>
      <trkpt lat="48.6984" lon="1.73685">
        <ele>172</ele>
        <time>2010-05-14T09:33:09Z</time>
      </trkpt>
      <trkpt lat="48.69839" lon="1.73685">
        <ele>171</ele>
        <time>2010-05-14T09:33:10Z</time>
      </trkpt>
      <trkpt lat="48.69837" lon="1.73685">
        <ele>170</ele>
        <time>2010-05-14T09:33:11Z</time>
      </trkpt>
      <trkpt lat="48.69835" lon="1.73685">
        <ele>170</ele>
        <time>2010-05-14T09:33:12Z</time>
      </trkpt>
      <trkpt lat="48.69833" lon="1.73685">
        <ele>170</ele>
        <time>2010-05-14T09:33:13Z</time>
      </trkpt>
      <trkpt lat="48.69832" lon="1.73685">
        <ele>170</ele>
        <time>2010-05-14T09:33:14Z</time>
      </trkpt>
      <trkpt lat="48.6983" lon="1.73685">
        <ele>170</ele>
        <time>2010-05-14T09:33:15Z</time>
      </trkpt>
      <trkpt lat="48.69828" lon="1.73685">
        <ele>170</ele>
        <time>2010-05-14T09:33:16Z</time>
      </trkpt>
      <trkpt lat="48.69826" lon="1.73684">
        <ele>170</ele>
        <time>2010-05-14T09:33:17Z</time>
      </trkpt>
      <trkpt lat="48.69825" lon="1.73684">
        <ele>170</ele>
        <time>2010-05-14T09:33:18Z</time>
      </trkpt>
      <trkpt lat="48.69823" lon="1.73684">
        <ele>170</ele>
        <time>2010-05-14T09:33:19Z</time>
      </trkpt>
      <trkpt lat="48.69822" lon="1.73684">
        <ele>170</ele>
        <time>2010-05-14T09:33:20Z</time>
      </trkpt>
      <trkpt lat="48.6982" lon="1.73683">
        <ele>170</ele>
        <time>2010-05-14T09:33:21Z</time>
      </trkpt>
      <trkpt lat="48.69819" lon="1.73682">
        <ele>170</ele>
        <time>2010-05-14T09:33:22Z</time>
      </trkpt>
      <trkpt lat="48.69817" lon="1.73682">
        <ele>170</ele>
        <time>2010-05-14T09:33:24Z</time>
      </trkpt>
      <trkpt lat="48.69816" lon="1.73683">
        <ele>170</ele>
        <time>2010-05-14T09:33:25Z</time>
      </trkpt>
      <trkpt lat="48.69814" lon="1.73682">
        <ele>170</ele>
        <time>2010-05-14T09:33:26Z</time>
      </trkpt>
      <trkpt lat="48.69813" lon="1.73684">
        <ele>170</ele>
        <time>2010-05-14T09:33:27Z</time>
      </trkpt>
      <trkpt lat="48.6981" lon="1.73684">
        <ele>170</ele>
        <time>2010-05-14T09:33:28Z</time>
      </trkpt>
      <trkpt lat="48.69808" lon="1.73682">
        <ele>170</ele>
        <time>2010-05-14T09:33:29Z</time>
      </trkpt>
      <trkpt lat="48.69807" lon="1.73682">
        <ele>170</ele>
        <time>2010-05-14T09:33:30Z</time>
      </trkpt>
      <trkpt lat="48.69806" lon="1.73682">
        <ele>170</ele>
        <time>2010-05-14T09:33:31Z</time>
      </trkpt>
      <trkpt lat="48.69804" lon="1.73682">
        <ele>170</ele>
        <time>2010-05-14T09:33:32Z</time>
      </trkpt>
      <trkpt lat="48.69802" lon="1.73682">
        <ele>170</ele>
        <time>2010-05-14T09:33:33Z</time>
      </trkpt>
      <trkpt lat="48.69801" lon="1.73681">
        <ele>170</ele>
        <time>2010-05-14T09:33:34Z</time>
      </trkpt>
      <trkpt lat="48.69799" lon="1.73681">
        <ele>170</ele>
        <time>2010-05-14T09:33:35Z</time>
      </trkpt>
      <trkpt lat="48.69797" lon="1.73681">
        <ele>170</ele>
        <time>2010-05-14T09:33:36Z</time>
      </trkpt>
      <trkpt lat="48.69795" lon="1.7368">
        <ele>170</ele>
        <time>2010-05-14T09:33:37Z</time>
      </trkpt>
      <trkpt lat="48.69794" lon="1.7368">
        <ele>170</ele>
        <time>2010-05-14T09:33:38Z</time>
      </trkpt>
      <trkpt lat="48.69791" lon="1.7368">
        <ele>170</ele>
        <time>2010-05-14T09:33:40Z</time>
      </trkpt>
      <trkpt lat="48.6979" lon="1.7368">
        <ele>170</ele>
        <time>2010-05-14T09:33:41Z</time>
      </trkpt>
      <trkpt lat="48.69788" lon="1.73681">
        <ele>170</ele>
        <time>2010-05-14T09:33:42Z</time>
      </trkpt>
      <trkpt lat="48.69787" lon="1.73681">
        <ele>170</ele>
        <time>2010-05-14T09:33:43Z</time>
      </trkpt>
      <trkpt lat="48.69785" lon="1.73684">
        <ele>170</ele>
        <time>2010-05-14T09:33:45Z</time>
      </trkpt>
      <trkpt lat="48.69784" lon="1.73684">
        <ele>170</ele>
        <time>2010-05-14T09:33:46Z</time>
      </trkpt>
      <trkpt lat="48.69782" lon="1.73683">
        <ele>170</ele>
        <time>2010-05-14T09:33:47Z</time>
      </trkpt>
      <trkpt lat="48.69781" lon="1.73681">
        <ele>170</ele>
        <time>2010-05-14T09:33:49Z</time>
      </trkpt>
      <trkpt lat="48.69778" lon="1.73679">
        <ele>170</ele>
        <time>2010-05-14T09:33:51Z</time>
      </trkpt>
      <trkpt lat="48.69777" lon="1.73679">
        <ele>170</ele>
        <time>2010-05-14T09:33:52Z</time>
      </trkpt>
      <trkpt lat="48.69775" lon="1.73678">
        <ele>170</ele>
        <time>2010-05-14T09:33:53Z</time>
      </trkpt>
      <trkpt lat="48.69773" lon="1.73677">
        <ele>170</ele>
        <time>2010-05-14T09:33:55Z</time>
      </trkpt>
      <trkpt lat="48.69771" lon="1.73678">
        <ele>170</ele>
        <time>2010-05-14T09:33:57Z</time>
      </trkpt>
      <trkpt lat="48.6977" lon="1.73678">
        <ele>170</ele>
        <time>2010-05-14T09:34:00Z</time>
      </trkpt>
      <trkpt lat="48.69768" lon="1.73677">
        <ele>170</ele>
        <time>2010-05-14T09:34:03Z</time>
      </trkpt>
      <trkpt lat="48.69767" lon="1.73677">
        <ele>170</ele>
        <time>2010-05-14T09:34:04Z</time>
      </trkpt>
      <trkpt lat="48.69765" lon="1.73677">
        <ele>170</ele>
        <time>2010-05-14T09:34:05Z</time>
      </trkpt>
      <trkpt lat="48.69764" lon="1.73678">
        <ele>170</ele>
        <time>2010-05-14T09:34:06Z</time>
      </trkpt>
      <trkpt lat="48.69762" lon="1.73678">
        <ele>170</ele>
        <time>2010-05-14T09:34:08Z</time>
      </trkpt>
      <trkpt lat="48.69761" lon="1.73678">
        <ele>170</ele>
        <time>2010-05-14T09:34:09Z</time>
      </trkpt>
      <trkpt lat="48.6976" lon="1.73678">
        <ele>170</ele>
        <time>2010-05-14T09:34:10Z</time>
      </trkpt>
      <trkpt lat="48.69758" lon="1.73679">
        <ele>170</ele>
        <time>2010-05-14T09:34:12Z</time>
      </trkpt>
      <trkpt lat="48.69756" lon="1.73679">
        <ele>170</ele>
        <time>2010-05-14T09:34:14Z</time>
      </trkpt>
      <trkpt lat="48.69754" lon="1.73678">
        <ele>170</ele>
        <time>2010-05-14T09:34:16Z</time>
      </trkpt>
      <trkpt lat="48.69753" lon="1.73677">
        <ele>170</ele>
        <time>2010-05-14T09:34:17Z</time>
      </trkpt>
      <trkpt lat="48.69751" lon="1.73677">
        <ele>170</ele>
        <time>2010-05-14T09:34:18Z</time>
      </trkpt>
      <trkpt lat="48.6975" lon="1.73678">
        <ele>170</ele>
        <time>2010-05-14T09:34:19Z</time>
      </trkpt>
      <trkpt lat="48.69748" lon="1.73679">
        <ele>170</ele>
        <time>2010-05-14T09:34:20Z</time>
      </trkpt>
      <trkpt lat="48.69747" lon="1.73679">
        <ele>170</ele>
        <time>2010-05-14T09:34:21Z</time>
      </trkpt>
      <trkpt lat="48.69745" lon="1.73679">
        <ele>170</ele>
        <time>2010-05-14T09:34:22Z</time>
      </trkpt>
      <trkpt lat="48.69743" lon="1.73679">
        <ele>170</ele>
        <time>2010-05-14T09:34:23Z</time>
      </trkpt>
      <trkpt lat="48.69741" lon="1.73679">
        <ele>170</ele>
        <time>2010-05-14T09:34:24Z</time>
      </trkpt>
      <trkpt lat="48.6974" lon="1.73679">
        <ele>170</ele>
        <time>2010-05-14T09:34:25Z</time>
      </trkpt>
      <trkpt lat="48.69738" lon="1.73679">
        <ele>170</ele>
        <time>2010-05-14T09:34:26Z</time>
      </trkpt>
      <trkpt lat="48.69737" lon="1.73678">
        <ele>171</ele>
        <time>2010-05-14T09:34:27Z</time>
      </trkpt>
      <trkpt lat="48.69735" lon="1.73678">
        <ele>172</ele>
        <time>2010-05-14T09:34:28Z</time>
      </trkpt>
      <trkpt lat="48.69734" lon="1.73678">
        <ele>172</ele>
        <time>2010-05-14T09:34:29Z</time>
      </trkpt>
      <trkpt lat="48.69732" lon="1.73677">
        <ele>173</ele>
        <time>2010-05-14T09:34:30Z</time>
      </trkpt>
      <trkpt lat="48.69731" lon="1.73677">
        <ele>174</ele>
        <time>2010-05-14T09:34:31Z</time>
      </trkpt>
      <trkpt lat="48.69729" lon="1.73676">
        <ele>175</ele>
        <time>2010-05-14T09:34:32Z</time>
      </trkpt>
      <trkpt lat="48.69728" lon="1.73676">
        <ele>175</ele>
        <time>2010-05-14T09:34:33Z</time>
      </trkpt>
      <trkpt lat="48.69726" lon="1.73677">
        <ele>176</ele>
        <time>2010-05-14T09:34:34Z</time>
      </trkpt>
      <trkpt lat="48.69725" lon="1.73676">
        <ele>176</ele>
        <time>2010-05-14T09:34:35Z</time>
      </trkpt>
      <trkpt lat="48.69723" lon="1.73675">
        <ele>176</ele>
        <time>2010-05-14T09:34:36Z</time>
      </trkpt>
      <trkpt lat="48.69722" lon="1.73675">
        <ele>176</ele>
        <time>2010-05-14T09:34:37Z</time>
      </trkpt>
      <trkpt lat="48.6972" lon="1.73675">
        <ele>176</ele>
        <time>2010-05-14T09:34:38Z</time>
      </trkpt>
      <trkpt lat="48.69718" lon="1.73674">
        <ele>176</ele>
        <time>2010-05-14T09:34:39Z</time>
      </trkpt>
      <trkpt lat="48.69716" lon="1.73674">
        <ele>176</ele>
        <time>2010-05-14T09:34:40Z</time>
      </trkpt>
      <trkpt lat="48.69715" lon="1.73674">
        <ele>176</ele>
        <time>2010-05-14T09:34:41Z</time>
      </trkpt>
      <trkpt lat="48.69714" lon="1.73674">
        <ele>176</ele>
        <time>2010-05-14T09:34:42Z</time>
      </trkpt>
      <trkpt lat="48.69713" lon="1.73673">
        <ele>176</ele>
        <time>2010-05-14T09:34:43Z</time>
      </trkpt>
      <trkpt lat="48.69711" lon="1.73674">
        <ele>176</ele>
        <time>2010-05-14T09:34:44Z</time>
      </trkpt>
      <trkpt lat="48.69709" lon="1.73674">
        <ele>176</ele>
        <time>2010-05-14T09:34:45Z</time>
      </trkpt>
      <trkpt lat="48.69707" lon="1.73673">
        <ele>176</ele>
        <time>2010-05-14T09:34:46Z</time>
      </trkpt>
      <trkpt lat="48.69705" lon="1.73672">
        <ele>176</ele>
        <time>2010-05-14T09:34:47Z</time>
      </trkpt>
      <trkpt lat="48.69704" lon="1.73672">
        <ele>176</ele>
        <time>2010-05-14T09:34:48Z</time>
      </trkpt>
      <trkpt lat="48.69701" lon="1.73672">
        <ele>176</ele>
        <time>2010-05-14T09:34:50Z</time>
      </trkpt>
      <trkpt lat="48.69699" lon="1.73672">
        <ele>177</ele>
        <time>2010-05-14T09:34:52Z</time>
      </trkpt>
      <trkpt lat="48.69697" lon="1.73672">
        <ele>178</ele>
        <time>2010-05-14T09:34:54Z</time>
      </trkpt>
      <trkpt lat="48.69695" lon="1.73672">
        <ele>178</ele>
        <time>2010-05-14T09:34:55Z</time>
      </trkpt>
      <trkpt lat="48.69694" lon="1.73672">
        <ele>178</ele>
        <time>2010-05-14T09:34:56Z</time>
      </trkpt>
      <trkpt lat="48.69692" lon="1.73672">
        <ele>178</ele>
        <time>2010-05-14T09:34:57Z</time>
      </trkpt>
      <trkpt lat="48.6969" lon="1.73672">
        <ele>178</ele>
        <time>2010-05-14T09:34:58Z</time>
      </trkpt>
      <trkpt lat="48.69689" lon="1.73672">
        <ele>178</ele>
        <time>2010-05-14T09:34:59Z</time>
      </trkpt>
      <trkpt lat="48.69687" lon="1.73672">
        <ele>178</ele>
        <time>2010-05-14T09:35:00Z</time>
      </trkpt>
      <trkpt lat="48.69685" lon="1.73672">
        <ele>178</ele>
        <time>2010-05-14T09:35:02Z</time>
      </trkpt>
      <trkpt lat="48.69684" lon="1.73672">
        <ele>178</ele>
        <time>2010-05-14T09:35:03Z</time>
      </trkpt>
      <trkpt lat="48.69683" lon="1.73671">
        <ele>178</ele>
        <time>2010-05-14T09:35:04Z</time>
      </trkpt>
      <trkpt lat="48.6968" lon="1.73671">
        <ele>178</ele>
        <time>2010-05-14T09:35:06Z</time>
      </trkpt>
      <trkpt lat="48.69679" lon="1.73671">
        <ele>178</ele>
        <time>2010-05-14T09:35:07Z</time>
      </trkpt>
      <trkpt lat="48.69678" lon="1.73671">
        <ele>177</ele>
        <time>2010-05-14T09:35:08Z</time>
      </trkpt>
      <trkpt lat="48.69676" lon="1.73671">
        <ele>177</ele>
        <time>2010-05-14T09:35:09Z</time>
      </trkpt>
      <trkpt lat="48.69675" lon="1.7367">
        <ele>176</ele>
        <time>2010-05-14T09:35:10Z</time>
      </trkpt>
      <trkpt lat="48.69673" lon="1.73671">
        <ele>176</ele>
        <time>2010-05-14T09:35:11Z</time>
      </trkpt>
      <trkpt lat="48.69671" lon="1.73671">
        <ele>175</ele>
        <time>2010-05-14T09:35:13Z</time>
      </trkpt>
      <trkpt lat="48.6967" lon="1.73671">
        <ele>174</ele>
        <time>2010-05-14T09:35:15Z</time>
      </trkpt>
      <trkpt lat="48.69669" lon="1.73671">
        <ele>174</ele>
        <time>2010-05-14T09:35:16Z</time>
      </trkpt>
      <trkpt lat="48.69666" lon="1.73672">
        <ele>172</ele>
        <time>2010-05-14T09:35:18Z</time>
      </trkpt>
      <trkpt lat="48.69664" lon="1.73672">
        <ele>172</ele>
        <time>2010-05-14T09:35:20Z</time>
      </trkpt>
      <trkpt lat="48.69661" lon="1.73672">
        <ele>172</ele>
        <time>2010-05-14T09:35:21Z</time>
      </trkpt>
      <trkpt lat="48.6966" lon="1.73673">
        <ele>172</ele>
        <time>2010-05-14T09:35:22Z</time>
      </trkpt>
      <trkpt lat="48.69658" lon="1.73673">
        <ele>172</ele>
        <time>2010-05-14T09:35:23Z</time>
      </trkpt>
      <trkpt lat="48.69655" lon="1.73672">
        <ele>172</ele>
        <time>2010-05-14T09:35:24Z</time>
      </trkpt>
      <trkpt lat="48.69653" lon="1.73672">
        <ele>172</ele>
        <time>2010-05-14T09:35:25Z</time>
      </trkpt>
      <trkpt lat="48.69652" lon="1.73672">
        <ele>172</ele>
        <time>2010-05-14T09:35:26Z</time>
      </trkpt>
      <trkpt lat="48.6965" lon="1.73672">
        <ele>172</ele>
        <time>2010-05-14T09:35:27Z</time>
      </trkpt>
      <trkpt lat="48.69648" lon="1.73672">
        <ele>172</ele>
        <time>2010-05-14T09:35:28Z</time>
      </trkpt>
      <trkpt lat="48.69646" lon="1.73671">
        <ele>172</ele>
        <time>2010-05-14T09:35:29Z</time>
      </trkpt>
      <trkpt lat="48.69645" lon="1.73671">
        <ele>172</ele>
        <time>2010-05-14T09:35:30Z</time>
      </trkpt>
      <trkpt lat="48.69643" lon="1.73671">
        <ele>172</ele>
        <time>2010-05-14T09:35:31Z</time>
      </trkpt>
      <trkpt lat="48.69641" lon="1.7367">
        <ele>172</ele>
        <time>2010-05-14T09:35:32Z</time>
      </trkpt>
      <trkpt lat="48.6964" lon="1.73669">
        <ele>173</ele>
        <time>2010-05-14T09:35:33Z</time>
      </trkpt>
      <trkpt lat="48.69638" lon="1.73669">
        <ele>174</ele>
        <time>2010-05-14T09:35:34Z</time>
      </trkpt>
      <trkpt lat="48.69637" lon="1.73668">
        <ele>174</ele>
        <time>2010-05-14T09:35:35Z</time>
      </trkpt>
      <trkpt lat="48.69636" lon="1.73667">
        <ele>174</ele>
        <time>2010-05-14T09:35:36Z</time>
      </trkpt>
      <trkpt lat="48.69634" lon="1.73666">
        <ele>174</ele>
        <time>2010-05-14T09:35:37Z</time>
      </trkpt>
      <trkpt lat="48.69633" lon="1.73665">
        <ele>174</ele>
        <time>2010-05-14T09:35:38Z</time>
      </trkpt>
      <trkpt lat="48.6963" lon="1.73665">
        <ele>174</ele>
        <time>2010-05-14T09:35:40Z</time>
      </trkpt>
      <trkpt lat="48.69629" lon="1.73665">
        <ele>174</ele>
        <time>2010-05-14T09:35:41Z</time>
      </trkpt>
      <trkpt lat="48.69628" lon="1.73665">
        <ele>174</ele>
        <time>2010-05-14T09:35:42Z</time>
      </trkpt>
      <trkpt lat="48.69626" lon="1.73665">
        <ele>174</ele>
        <time>2010-05-14T09:35:43Z</time>
      </trkpt>
      <trkpt lat="48.69625" lon="1.73665">
        <ele>174</ele>
        <time>2010-05-14T09:35:44Z</time>
      </trkpt>
      <trkpt lat="48.69623" lon="1.73665">
        <ele>175</ele>
        <time>2010-05-14T09:35:45Z</time>
      </trkpt>
      <trkpt lat="48.69622" lon="1.73664">
        <ele>175</ele>
        <time>2010-05-14T09:35:46Z</time>
      </trkpt>
      <trkpt lat="48.6962" lon="1.73664">
        <ele>176</ele>
        <time>2010-05-14T09:35:47Z</time>
      </trkpt>
      <trkpt lat="48.69618" lon="1.73664">
        <ele>177</ele>
        <time>2010-05-14T09:35:48Z</time>
      </trkpt>
      <trkpt lat="48.69617" lon="1.73664">
        <ele>177</ele>
        <time>2010-05-14T09:35:49Z</time>
      </trkpt>
      <trkpt lat="48.69615" lon="1.73663">
        <ele>177</ele>
        <time>2010-05-14T09:35:51Z</time>
      </trkpt>
      <trkpt lat="48.69613" lon="1.7366">
        <ele>177</ele>
        <time>2010-05-14T09:35:53Z</time>
      </trkpt>
      <trkpt lat="48.69612" lon="1.73658">
        <ele>177</ele>
        <time>2010-05-14T09:35:54Z</time>
      </trkpt>
      <trkpt lat="48.6961" lon="1.73657">
        <ele>177</ele>
        <time>2010-05-14T09:35:55Z</time>
      </trkpt>
      <trkpt lat="48.69609" lon="1.73654">
        <ele>177</ele>
        <time>2010-05-14T09:35:57Z</time>
      </trkpt>
      <trkpt lat="48.69607" lon="1.73652">
        <ele>177</ele>
        <time>2010-05-14T09:35:59Z</time>
      </trkpt>
      <trkpt lat="48.69606" lon="1.73652">
        <ele>177</ele>
        <time>2010-05-14T09:36:00Z</time>
      </trkpt>
      <trkpt lat="48.69605" lon="1.73651">
        <ele>177</ele>
        <time>2010-05-14T09:36:01Z</time>
      </trkpt>
      <trkpt lat="48.69602" lon="1.73648">
        <ele>177</ele>
        <time>2010-05-14T09:36:03Z</time>
      </trkpt>
      <trkpt lat="48.69601" lon="1.73648">
        <ele>177</ele>
        <time>2010-05-14T09:36:04Z</time>
      </trkpt>
      <trkpt lat="48.69599" lon="1.73647">
        <ele>177</ele>
        <time>2010-05-14T09:36:05Z</time>
      </trkpt>
      <trkpt lat="48.69597" lon="1.73646">
        <ele>177</ele>
        <time>2010-05-14T09:36:06Z</time>
      </trkpt>
      <trkpt lat="48.69595" lon="1.73649">
        <ele>177</ele>
        <time>2010-05-14T09:36:09Z</time>
      </trkpt>
      <trkpt lat="48.69594" lon="1.7365">
        <ele>177</ele>
        <time>2010-05-14T09:36:10Z</time>
      </trkpt>
      <trkpt lat="48.69593" lon="1.73652">
        <ele>177</ele>
        <time>2010-05-14T09:36:11Z</time>
      </trkpt>
      <trkpt lat="48.69592" lon="1.73654">
        <ele>177</ele>
        <time>2010-05-14T09:36:12Z</time>
      </trkpt>
      <trkpt lat="48.6959" lon="1.73655">
        <ele>177</ele>
        <time>2010-05-14T09:36:13Z</time>
      </trkpt>
      <trkpt lat="48.69589" lon="1.73656">
        <ele>178</ele>
        <time>2010-05-14T09:36:14Z</time>
      </trkpt>
      <trkpt lat="48.69587" lon="1.73658">
        <ele>179</ele>
        <time>2010-05-14T09:36:15Z</time>
      </trkpt>
      <trkpt lat="48.69585" lon="1.7366">
        <ele>180</ele>
        <time>2010-05-14T09:36:16Z</time>
      </trkpt>
      <trkpt lat="48.69584" lon="1.73662">
        <ele>181</ele>
        <time>2010-05-14T09:36:17Z</time>
      </trkpt>
      <trkpt lat="48.69583" lon="1.73664">
        <ele>182</ele>
        <time>2010-05-14T09:36:18Z</time>
      </trkpt>
      <trkpt lat="48.69581" lon="1.73666">
        <ele>184</ele>
        <time>2010-05-14T09:36:20Z</time>
      </trkpt>
      <trkpt lat="48.69579" lon="1.73665">
        <ele>184</ele>
        <time>2010-05-14T09:36:22Z</time>
      </trkpt>
      <trkpt lat="48.69578" lon="1.73664">
        <ele>184</ele>
        <time>2010-05-14T09:36:23Z</time>
      </trkpt>
      <trkpt lat="48.69576" lon="1.73664">
        <ele>184</ele>
        <time>2010-05-14T09:36:25Z</time>
      </trkpt>
      <trkpt lat="48.69574" lon="1.73664">
        <ele>184</ele>
        <time>2010-05-14T09:36:26Z</time>
      </trkpt>
      <trkpt lat="48.69573" lon="1.73664">
        <ele>183</ele>
        <time>2010-05-14T09:36:27Z</time>
      </trkpt>
      <trkpt lat="48.69571" lon="1.73664">
        <ele>183</ele>
        <time>2010-05-14T09:36:28Z</time>
      </trkpt>
      <trkpt lat="48.6957" lon="1.73665">
        <ele>183</ele>
        <time>2010-05-14T09:36:29Z</time>
      </trkpt>
      <trkpt lat="48.69568" lon="1.73666">
        <ele>183</ele>
        <time>2010-05-14T09:36:31Z</time>
      </trkpt>
      <trkpt lat="48.69566" lon="1.73665">
        <ele>183</ele>
        <time>2010-05-14T09:36:32Z</time>
      </trkpt>
      <trkpt lat="48.69565" lon="1.73664">
        <ele>183</ele>
        <time>2010-05-14T09:36:33Z</time>
      </trkpt>
      <trkpt lat="48.69563" lon="1.73664">
        <ele>183</ele>
        <time>2010-05-14T09:36:34Z</time>
      </trkpt>
      <trkpt lat="48.69562" lon="1.73663">
        <ele>183</ele>
        <time>2010-05-14T09:36:35Z</time>
      </trkpt>
      <trkpt lat="48.69559" lon="1.73663">
        <ele>182</ele>
        <time>2010-05-14T09:36:37Z</time>
      </trkpt>
      <trkpt lat="48.69558" lon="1.73662">
        <ele>182</ele>
        <time>2010-05-14T09:36:38Z</time>
      </trkpt>
      <trkpt lat="48.69557" lon="1.73662">
        <ele>181</ele>
        <time>2010-05-14T09:36:39Z</time>
      </trkpt>
      <trkpt lat="48.69555" lon="1.73661">
        <ele>180</ele>
        <time>2010-05-14T09:36:40Z</time>
      </trkpt>
      <trkpt lat="48.69553" lon="1.73659">
        <ele>179</ele>
        <time>2010-05-14T09:36:41Z</time>
      </trkpt>
      <trkpt lat="48.69552" lon="1.73659">
        <ele>178</ele>
        <time>2010-05-14T09:36:42Z</time>
      </trkpt>
      <trkpt lat="48.6955" lon="1.73658">
        <ele>176</ele>
        <time>2010-05-14T09:36:44Z</time>
      </trkpt>
      <trkpt lat="48.69548" lon="1.73659">
        <ele>175</ele>
        <time>2010-05-14T09:36:46Z</time>
      </trkpt>
      <trkpt lat="48.69547" lon="1.73659">
        <ele>175</ele>
        <time>2010-05-14T09:36:47Z</time>
      </trkpt>
      <trkpt lat="48.69545" lon="1.7366">
        <ele>175</ele>
        <time>2010-05-14T09:36:48Z</time>
      </trkpt>
      <trkpt lat="48.69544" lon="1.7366">
        <ele>175</ele>
        <time>2010-05-14T09:36:49Z</time>
      </trkpt>
      <trkpt lat="48.69542" lon="1.73659">
        <ele>175</ele>
        <time>2010-05-14T09:36:50Z</time>
      </trkpt>
      <trkpt lat="48.6954" lon="1.73659">
        <ele>175</ele>
        <time>2010-05-14T09:36:51Z</time>
      </trkpt>
      <trkpt lat="48.69539" lon="1.73659">
        <ele>175</ele>
        <time>2010-05-14T09:36:52Z</time>
      </trkpt>
      <trkpt lat="48.69536" lon="1.7366">
        <ele>175</ele>
        <time>2010-05-14T09:36:54Z</time>
      </trkpt>
      <trkpt lat="48.69535" lon="1.73659">
        <ele>175</ele>
        <time>2010-05-14T09:36:55Z</time>
      </trkpt>
      <trkpt lat="48.69533" lon="1.73658">
        <ele>175</ele>
        <time>2010-05-14T09:36:56Z</time>
      </trkpt>
      <trkpt lat="48.69531" lon="1.73658">
        <ele>175</ele>
        <time>2010-05-14T09:36:57Z</time>
      </trkpt>
      <trkpt lat="48.6953" lon="1.73657">
        <ele>175</ele>
        <time>2010-05-14T09:36:58Z</time>
      </trkpt>
      <trkpt lat="48.69528" lon="1.73657">
        <ele>175</ele>
        <time>2010-05-14T09:36:59Z</time>
      </trkpt>
      <trkpt lat="48.69527" lon="1.73656">
        <ele>175</ele>
        <time>2010-05-14T09:37:00Z</time>
      </trkpt>
      <trkpt lat="48.69524" lon="1.73657">
        <ele>175</ele>
        <time>2010-05-14T09:37:02Z</time>
      </trkpt>
      <trkpt lat="48.69522" lon="1.73657">
        <ele>175</ele>
        <time>2010-05-14T09:37:03Z</time>
      </trkpt>
      <trkpt lat="48.69521" lon="1.73657">
        <ele>175</ele>
        <time>2010-05-14T09:37:04Z</time>
      </trkpt>
      <trkpt lat="48.69518" lon="1.73657">
        <ele>175</ele>
        <time>2010-05-14T09:37:05Z</time>
      </trkpt>
      <trkpt lat="48.69517" lon="1.73657">
        <ele>176</ele>
        <time>2010-05-14T09:37:06Z</time>
      </trkpt>
      <trkpt lat="48.69515" lon="1.73657">
        <ele>176</ele>
        <time>2010-05-14T09:37:08Z</time>
      </trkpt>
      <trkpt lat="48.69514" lon="1.73656">
        <ele>176</ele>
        <time>2010-05-14T09:37:09Z</time>
      </trkpt>
      <trkpt lat="48.69512" lon="1.73656">
        <ele>176</ele>
        <time>2010-05-14T09:37:11Z</time>
      </trkpt>
      <trkpt lat="48.6951" lon="1.73656">
        <ele>176</ele>
        <time>2010-05-14T09:37:13Z</time>
      </trkpt>
      <trkpt lat="48.69508" lon="1.73655">
        <ele>176</ele>
        <time>2010-05-14T09:37:14Z</time>
      </trkpt>
      <trkpt lat="48.69506" lon="1.73656">
        <ele>176</ele>
        <time>2010-05-14T09:37:16Z</time>
      </trkpt>
      <trkpt lat="48.69504" lon="1.73655">
        <ele>176</ele>
        <time>2010-05-14T09:37:17Z</time>
      </trkpt>
      <trkpt lat="48.69502" lon="1.73654">
        <ele>176</ele>
        <time>2010-05-14T09:37:18Z</time>
      </trkpt>
      <trkpt lat="48.695" lon="1.73654">
        <ele>176</ele>
        <time>2010-05-14T09:37:19Z</time>
      </trkpt>
      <trkpt lat="48.69499" lon="1.73653">
        <ele>176</ele>
        <time>2010-05-14T09:37:20Z</time>
      </trkpt>
      <trkpt lat="48.69497" lon="1.73652">
        <ele>174</ele>
        <time>2010-05-14T09:37:22Z</time>
      </trkpt>
      <trkpt lat="48.69496" lon="1.73652">
        <ele>173</ele>
        <time>2010-05-14T09:37:23Z</time>
      </trkpt>
      <trkpt lat="48.69494" lon="1.73652">
        <ele>173</ele>
        <time>2010-05-14T09:37:24Z</time>
      </trkpt>
      <trkpt lat="48.69493" lon="1.73652">
        <ele>172</ele>
        <time>2010-05-14T09:37:25Z</time>
      </trkpt>
      <trkpt lat="48.69491" lon="1.73651">
        <ele>172</ele>
        <time>2010-05-14T09:37:26Z</time>
      </trkpt>
      <trkpt lat="48.6949" lon="1.73651">
        <ele>172</ele>
        <time>2010-05-14T09:37:27Z</time>
      </trkpt>
      <trkpt lat="48.69488" lon="1.7365">
        <ele>169</ele>
        <time>2010-05-14T09:37:31Z</time>
      </trkpt>
      <trkpt lat="48.69485" lon="1.7365">
        <ele>169</ele>
        <time>2010-05-14T09:37:34Z</time>
      </trkpt>
      <trkpt lat="48.69482" lon="1.73649">
        <ele>169</ele>
        <time>2010-05-14T09:37:35Z</time>
      </trkpt>
      <trkpt lat="48.69478" lon="1.73648">
        <ele>169</ele>
        <time>2010-05-14T09:37:36Z</time>
      </trkpt>
      <trkpt lat="48.69474" lon="1.73647">
        <ele>168</ele>
        <time>2010-05-14T09:37:37Z</time>
      </trkpt>
      <trkpt lat="48.69471" lon="1.73647">
        <ele>167</ele>
        <time>2010-05-14T09:37:38Z</time>
      </trkpt>
      <trkpt lat="48.69466" lon="1.73646">
        <ele>166</ele>
        <time>2010-05-14T09:37:39Z</time>
      </trkpt>
      <trkpt lat="48.69461" lon="1.73646">
        <ele>166</ele>
        <time>2010-05-14T09:37:40Z</time>
      </trkpt>
      <trkpt lat="48.69456" lon="1.73646">
        <ele>165</ele>
        <time>2010-05-14T09:37:41Z</time>
      </trkpt>
      <trkpt lat="48.69451" lon="1.73646">
        <ele>165</ele>
        <time>2010-05-14T09:37:42Z</time>
      </trkpt>
      <trkpt lat="48.69446" lon="1.73646">
        <ele>164</ele>
        <time>2010-05-14T09:37:43Z</time>
      </trkpt>
      <trkpt lat="48.6944" lon="1.73645">
        <ele>164</ele>
        <time>2010-05-14T09:37:44Z</time>
      </trkpt>
      <trkpt lat="48.69434" lon="1.73642">
        <ele>163</ele>
        <time>2010-05-14T09:37:45Z</time>
      </trkpt>
      <trkpt lat="48.69429" lon="1.73639">
        <ele>162</ele>
        <time>2010-05-14T09:37:46Z</time>
      </trkpt>
      <trkpt lat="48.69424" lon="1.73638">
        <ele>161</ele>
        <time>2010-05-14T09:37:47Z</time>
      </trkpt>
      <trkpt lat="48.6942" lon="1.73637">
        <ele>160</ele>
        <time>2010-05-14T09:37:48Z</time>
      </trkpt>
      <trkpt lat="48.69416" lon="1.73637">
        <ele>159</ele>
        <time>2010-05-14T09:37:49Z</time>
      </trkpt>
      <trkpt lat="48.69413" lon="1.73637">
        <ele>158</ele>
        <time>2010-05-14T09:37:50Z</time>
      </trkpt>
      <trkpt lat="48.69411" lon="1.73637">
        <ele>157</ele>
        <time>2010-05-14T09:37:51Z</time>
      </trkpt>
      <trkpt lat="48.69408" lon="1.73638">
        <ele>156</ele>
        <time>2010-05-14T09:37:52Z</time>
      </trkpt>
      <trkpt lat="48.69407" lon="1.73639">
        <ele>156</ele>
        <time>2010-05-14T09:37:53Z</time>
      </trkpt>
      <trkpt lat="48.69404" lon="1.7364">
        <ele>156</ele>
        <time>2010-05-14T09:37:55Z</time>
      </trkpt>
      <trkpt lat="48.69402" lon="1.7364">
        <ele>156</ele>
        <time>2010-05-14T09:37:56Z</time>
      </trkpt>
      <trkpt lat="48.69401" lon="1.73639">
        <ele>156</ele>
        <time>2010-05-14T09:37:57Z</time>
      </trkpt>
      <trkpt lat="48.69399" lon="1.73639">
        <ele>156</ele>
        <time>2010-05-14T09:37:58Z</time>
      </trkpt>
      <trkpt lat="48.69397" lon="1.73638">
        <ele>156</ele>
        <time>2010-05-14T09:37:59Z</time>
      </trkpt>
      <trkpt lat="48.69396" lon="1.73638">
        <ele>156</ele>
        <time>2010-05-14T09:38:00Z</time>
      </trkpt>
      <trkpt lat="48.69394" lon="1.73638">
        <ele>156</ele>
        <time>2010-05-14T09:38:01Z</time>
      </trkpt>
      <trkpt lat="48.69393" lon="1.73638">
        <ele>156</ele>
        <time>2010-05-14T09:38:02Z</time>
      </trkpt>
      <trkpt lat="48.69391" lon="1.73638">
        <ele>156</ele>
        <time>2010-05-14T09:38:03Z</time>
      </trkpt>
      <trkpt lat="48.69388" lon="1.73637">
        <ele>156</ele>
        <time>2010-05-14T09:38:04Z</time>
      </trkpt>
      <trkpt lat="48.69386" lon="1.73637">
        <ele>156</ele>
        <time>2010-05-14T09:38:05Z</time>
      </trkpt>
      <trkpt lat="48.69384" lon="1.73636">
        <ele>156</ele>
        <time>2010-05-14T09:38:06Z</time>
      </trkpt>
      <trkpt lat="48.69382" lon="1.73636">
        <ele>156</ele>
        <time>2010-05-14T09:38:07Z</time>
      </trkpt>
      <trkpt lat="48.6938" lon="1.73636">
        <ele>156</ele>
        <time>2010-05-14T09:38:08Z</time>
      </trkpt>
      <trkpt lat="48.69379" lon="1.73636">
        <ele>156</ele>
        <time>2010-05-14T09:38:09Z</time>
      </trkpt>
      <trkpt lat="48.69377" lon="1.73636">
        <ele>156</ele>
        <time>2010-05-14T09:38:10Z</time>
      </trkpt>
      <trkpt lat="48.69376" lon="1.73637">
        <ele>156</ele>
        <time>2010-05-14T09:38:11Z</time>
      </trkpt>
      <trkpt lat="48.69374" lon="1.73638">
        <ele>156</ele>
        <time>2010-05-14T09:38:12Z</time>
      </trkpt>
      <trkpt lat="48.69373" lon="1.73639">
        <ele>156</ele>
        <time>2010-05-14T09:38:13Z</time>
      </trkpt>
      <trkpt lat="48.69371" lon="1.7364">
        <ele>157</ele>
        <time>2010-05-14T09:38:14Z</time>
      </trkpt>
      <trkpt lat="48.6937" lon="1.7364">
        <ele>157</ele>
        <time>2010-05-14T09:38:15Z</time>
      </trkpt>
      <trkpt lat="48.69368" lon="1.73641">
        <ele>158</ele>
        <time>2010-05-14T09:38:16Z</time>
      </trkpt>
      <trkpt lat="48.69367" lon="1.73641">
        <ele>158</ele>
        <time>2010-05-14T09:38:17Z</time>
      </trkpt>
      <trkpt lat="48.69366" lon="1.73642">
        <ele>158</ele>
        <time>2010-05-14T09:38:18Z</time>
      </trkpt>
      <trkpt lat="48.69364" lon="1.73643">
        <ele>158</ele>
        <time>2010-05-14T09:38:19Z</time>
      </trkpt>
      <trkpt lat="48.69363" lon="1.73643">
        <ele>158</ele>
        <time>2010-05-14T09:38:20Z</time>
      </trkpt>
      <trkpt lat="48.69362" lon="1.73643">
        <ele>158</ele>
        <time>2010-05-14T09:38:21Z</time>
      </trkpt>
      <trkpt lat="48.6936" lon="1.73643">
        <ele>159</ele>
        <time>2010-05-14T09:38:22Z</time>
      </trkpt>
      <trkpt lat="48.69359" lon="1.73644">
        <ele>159</ele>
        <time>2010-05-14T09:38:23Z</time>
      </trkpt>
      <trkpt lat="48.69358" lon="1.73644">
        <ele>160</ele>
        <time>2010-05-14T09:38:24Z</time>
      </trkpt>
      <trkpt lat="48.69355" lon="1.73643">
        <ele>162</ele>
        <time>2010-05-14T09:38:26Z</time>
      </trkpt>
      <trkpt lat="48.69354" lon="1.73643">
        <ele>162</ele>
        <time>2010-05-14T09:38:27Z</time>
      </trkpt>
      <trkpt lat="48.69352" lon="1.73642">
        <ele>163</ele>
        <time>2010-05-14T09:38:28Z</time>
      </trkpt>
      <trkpt lat="48.6935" lon="1.73642">
        <ele>163</ele>
        <time>2010-05-14T09:38:29Z</time>
      </trkpt>
      <trkpt lat="48.69348" lon="1.73641">
        <ele>163</ele>
        <time>2010-05-14T09:38:30Z</time>
      </trkpt>
      <trkpt lat="48.69347" lon="1.73641">
        <ele>164</ele>
        <time>2010-05-14T09:38:31Z</time>
      </trkpt>
      <trkpt lat="48.69345" lon="1.73642">
        <ele>164</ele>
        <time>2010-05-14T09:38:32Z</time>
      </trkpt>
      <trkpt lat="48.69343" lon="1.73641">
        <ele>165</ele>
        <time>2010-05-14T09:38:33Z</time>
      </trkpt>
      <trkpt lat="48.69342" lon="1.73641">
        <ele>165</ele>
        <time>2010-05-14T09:38:34Z</time>
      </trkpt>
      <trkpt lat="48.6934" lon="1.73641">
        <ele>166</ele>
        <time>2010-05-14T09:38:35Z</time>
      </trkpt>
      <trkpt lat="48.69336" lon="1.73641">
        <ele>166</ele>
        <time>2010-05-14T09:38:36Z</time>
      </trkpt>
      <trkpt lat="48.69325" lon="1.73638">
        <ele>167</ele>
        <time>2010-05-14T09:38:38Z</time>
      </trkpt>
      <trkpt lat="48.69319" lon="1.73638">
        <ele>167</ele>
        <time>2010-05-14T09:38:39Z</time>
      </trkpt>
      <trkpt lat="48.69312" lon="1.73635">
        <ele>167</ele>
        <time>2010-05-14T09:38:40Z</time>
      </trkpt>
      <trkpt lat="48.69305" lon="1.73633">
        <ele>167</ele>
        <time>2010-05-14T09:38:41Z</time>
      </trkpt>
      <trkpt lat="48.69298" lon="1.7363">
        <ele>167</ele>
        <time>2010-05-14T09:38:42Z</time>
      </trkpt>
      <trkpt lat="48.69291" lon="1.73628">
        <ele>167</ele>
        <time>2010-05-14T09:38:43Z</time>
      </trkpt>
      <trkpt lat="48.69283" lon="1.73626">
        <ele>167</ele>
        <time>2010-05-14T09:38:44Z</time>
      </trkpt>
      <trkpt lat="48.69276" lon="1.73624">
        <ele>166</ele>
        <time>2010-05-14T09:38:45Z</time>
      </trkpt>
      <trkpt lat="48.69269" lon="1.73622">
        <ele>165</ele>
        <time>2010-05-14T09:38:46Z</time>
      </trkpt>
      <trkpt lat="48.69263" lon="1.7362">
        <ele>164</ele>
        <time>2010-05-14T09:38:47Z</time>
      </trkpt>
      <trkpt lat="48.69258" lon="1.7362">
        <ele>164</ele>
        <time>2010-05-14T09:38:48Z</time>
      </trkpt>
      <trkpt lat="48.69252" lon="1.73619">
        <ele>164</ele>
        <time>2010-05-14T09:38:49Z</time>
      </trkpt>
      <trkpt lat="48.69246" lon="1.73618">
        <ele>164</ele>
        <time>2010-05-14T09:38:50Z</time>
      </trkpt>
      <trkpt lat="48.69238" lon="1.73617">
        <ele>164</ele>
        <time>2010-05-14T09:38:51Z</time>
      </trkpt>
      <trkpt lat="48.69232" lon="1.73617">
        <ele>164</ele>
        <time>2010-05-14T09:38:52Z</time>
      </trkpt>
      <trkpt lat="48.69226" lon="1.73616">
        <ele>164</ele>
        <time>2010-05-14T09:38:53Z</time>
      </trkpt>
      <trkpt lat="48.69221" lon="1.73616">
        <ele>164</ele>
        <time>2010-05-14T09:38:54Z</time>
      </trkpt>
      <trkpt lat="48.69213" lon="1.73617">
        <ele>164</ele>
        <time>2010-05-14T09:38:55Z</time>
      </trkpt>
      <trkpt lat="48.69206" lon="1.73616">
        <ele>164</ele>
        <time>2010-05-14T09:38:56Z</time>
      </trkpt>
      <trkpt lat="48.69199" lon="1.73615">
        <ele>164</ele>
        <time>2010-05-14T09:38:57Z</time>
      </trkpt>
      <trkpt lat="48.69191" lon="1.73613">
        <ele>164</ele>
        <time>2010-05-14T09:38:58Z</time>
      </trkpt>
      <trkpt lat="48.69185" lon="1.73613">
        <ele>164</ele>
        <time>2010-05-14T09:38:59Z</time>
      </trkpt>
      <trkpt lat="48.6918" lon="1.73613">
        <ele>164</ele>
        <time>2010-05-14T09:39:00Z</time>
      </trkpt>
      <trkpt lat="48.69175" lon="1.73613">
        <ele>164</ele>
        <time>2010-05-14T09:39:01Z</time>
      </trkpt>
      <trkpt lat="48.69169" lon="1.73612">
        <ele>164</ele>
        <time>2010-05-14T09:39:02Z</time>
      </trkpt>
      <trkpt lat="48.69164" lon="1.73612">
        <ele>164</ele>
        <time>2010-05-14T09:39:03Z</time>
      </trkpt>
      <trkpt lat="48.69159" lon="1.73609">
        <ele>164</ele>
        <time>2010-05-14T09:39:04Z</time>
      </trkpt>
      <trkpt lat="48.69155" lon="1.73608">
        <ele>164</ele>
        <time>2010-05-14T09:39:05Z</time>
      </trkpt>
      <trkpt lat="48.69151" lon="1.73608">
        <ele>164</ele>
        <time>2010-05-14T09:39:06Z</time>
      </trkpt>
      <trkpt lat="48.69147" lon="1.73607">
        <ele>164</ele>
        <time>2010-05-14T09:39:07Z</time>
      </trkpt>
      <trkpt lat="48.69142" lon="1.73608">
        <ele>164</ele>
        <time>2010-05-14T09:39:08Z</time>
      </trkpt>
      <trkpt lat="48.69135" lon="1.73607">
        <ele>164</ele>
        <time>2010-05-14T09:39:09Z</time>
      </trkpt>
      <trkpt lat="48.69129" lon="1.73605">
        <ele>164</ele>
        <time>2010-05-14T09:39:10Z</time>
      </trkpt>
      <trkpt lat="48.69124" lon="1.73605">
        <ele>164</ele>
        <time>2010-05-14T09:39:11Z</time>
      </trkpt>
      <trkpt lat="48.69115" lon="1.73606">
        <ele>164</ele>
        <time>2010-05-14T09:39:13Z</time>
      </trkpt>
      <trkpt lat="48.69111" lon="1.73605">
        <ele>164</ele>
        <time>2010-05-14T09:39:14Z</time>
      </trkpt>
      <trkpt lat="48.69107" lon="1.73605">
        <ele>164</ele>
        <time>2010-05-14T09:39:15Z</time>
      </trkpt>
      <trkpt lat="48.69102" lon="1.73605">
        <ele>164</ele>
        <time>2010-05-14T09:39:16Z</time>
      </trkpt>
      <trkpt lat="48.69099" lon="1.73606">
        <ele>164</ele>
        <time>2010-05-14T09:39:17Z</time>
      </trkpt>
      <trkpt lat="48.69093" lon="1.73604">
        <ele>164</ele>
        <time>2010-05-14T09:39:18Z</time>
      </trkpt>
      <trkpt lat="48.69089" lon="1.73602">
        <ele>164</ele>
        <time>2010-05-14T09:39:19Z</time>
      </trkpt>
      <trkpt lat="48.69085" lon="1.73601">
        <ele>164</ele>
        <time>2010-05-14T09:39:20Z</time>
      </trkpt>
      <trkpt lat="48.69083" lon="1.73601">
        <ele>164</ele>
        <time>2010-05-14T09:39:21Z</time>
      </trkpt>
      <trkpt lat="48.69081" lon="1.736">
        <ele>164</ele>
        <time>2010-05-14T09:39:22Z</time>
      </trkpt>
      <trkpt lat="48.6908" lon="1.736">
        <ele>164</ele>
        <time>2010-05-14T09:39:23Z</time>
      </trkpt>
      <trkpt lat="48.69079" lon="1.73601">
        <ele>164</ele>
        <time>2010-05-14T09:39:24Z</time>
      </trkpt>
      <trkpt lat="48.69077" lon="1.73601">
        <ele>164</ele>
        <time>2010-05-14T09:39:25Z</time>
      </trkpt>
      <trkpt lat="48.69076" lon="1.73602">
        <ele>164</ele>
        <time>2010-05-14T09:39:26Z</time>
      </trkpt>
      <trkpt lat="48.69074" lon="1.73603">
        <ele>164</ele>
        <time>2010-05-14T09:39:27Z</time>
      </trkpt>
      <trkpt lat="48.69072" lon="1.73604">
        <ele>164</ele>
        <time>2010-05-14T09:39:29Z</time>
      </trkpt>
      <trkpt lat="48.69071" lon="1.73603">
        <ele>164</ele>
        <time>2010-05-14T09:39:31Z</time>
      </trkpt>
      <trkpt lat="48.69069" lon="1.73605">
        <ele>164</ele>
        <time>2010-05-14T09:39:33Z</time>
      </trkpt>
      <trkpt lat="48.69067" lon="1.73606">
        <ele>165</ele>
        <time>2010-05-14T09:39:35Z</time>
      </trkpt>
      <trkpt lat="48.69065" lon="1.73606">
        <ele>167</ele>
        <time>2010-05-14T09:39:37Z</time>
      </trkpt>
      <trkpt lat="48.69064" lon="1.73604">
        <ele>167</ele>
        <time>2010-05-14T09:39:38Z</time>
      </trkpt>
      <trkpt lat="48.69062" lon="1.73605">
        <ele>167</ele>
        <time>2010-05-14T09:39:39Z</time>
      </trkpt>
      <trkpt lat="48.69061" lon="1.73605">
        <ele>167</ele>
        <time>2010-05-14T09:39:40Z</time>
      </trkpt>
      <trkpt lat="48.6906" lon="1.73605">
        <ele>167</ele>
        <time>2010-05-14T09:39:41Z</time>
      </trkpt>
      <trkpt lat="48.69058" lon="1.73605">
        <ele>167</ele>
        <time>2010-05-14T09:39:43Z</time>
      </trkpt>
      <trkpt lat="48.69056" lon="1.73605">
        <ele>167</ele>
        <time>2010-05-14T09:39:45Z</time>
      </trkpt>
      <trkpt lat="48.69054" lon="1.73606">
        <ele>167</ele>
        <time>2010-05-14T09:39:47Z</time>
      </trkpt>
      <trkpt lat="48.69053" lon="1.73606">
        <ele>167</ele>
        <time>2010-05-14T09:39:48Z</time>
      </trkpt>
      <trkpt lat="48.69051" lon="1.73606">
        <ele>167</ele>
        <time>2010-05-14T09:39:49Z</time>
      </trkpt>
      <trkpt lat="48.69049" lon="1.73606">
        <ele>167</ele>
        <time>2010-05-14T09:39:50Z</time>
      </trkpt>
      <trkpt lat="48.69048" lon="1.73606">
        <ele>167</ele>
        <time>2010-05-14T09:39:51Z</time>
      </trkpt>
      <trkpt lat="48.69049" lon="1.73607">
        <ele>167</ele>
        <time>2010-05-14T09:40:01Z</time>
      </trkpt>
      <trkpt lat="48.6905" lon="1.73606">
        <ele>167</ele>
        <time>2010-05-14T09:40:03Z</time>
      </trkpt>
      <trkpt lat="48.69052" lon="1.73605">
        <ele>167</ele>
        <time>2010-05-14T09:40:05Z</time>
      </trkpt>
      <trkpt lat="48.69054" lon="1.73605">
        <ele>165</ele>
        <time>2010-05-14T09:40:07Z</time>
      </trkpt>
      <trkpt lat="48.69055" lon="1.73605">
        <ele>163</ele>
        <time>2010-05-14T09:40:09Z</time>
      </trkpt>
      <trkpt lat="48.69057" lon="1.73603">
        <ele>163</ele>
        <time>2010-05-14T09:40:11Z</time>
      </trkpt>
      <trkpt lat="48.69059" lon="1.73602">
        <ele>163</ele>
        <time>2010-05-14T09:40:14Z</time>
      </trkpt>
      <trkpt lat="48.6906" lon="1.73602">
        <ele>163</ele>
        <time>2010-05-14T09:40:16Z</time>
      </trkpt>
      <trkpt lat="48.69063" lon="1.73603">
        <ele>163</ele>
        <time>2010-05-14T09:40:19Z</time>
      </trkpt>
      <trkpt lat="48.69064" lon="1.73603">
        <ele>163</ele>
        <time>2010-05-14T09:40:21Z</time>
      </trkpt>
      <trkpt lat="48.69066" lon="1.73603">
        <ele>163</ele>
        <time>2010-05-14T09:40:22Z</time>
      </trkpt>
      <trkpt lat="48.69067" lon="1.73604">
        <ele>163</ele>
        <time>2010-05-14T09:40:23Z</time>
      </trkpt>
      <trkpt lat="48.69068" lon="1.73606">
        <ele>163</ele>
        <time>2010-05-14T09:40:26Z</time>
      </trkpt>
      <trkpt lat="48.6907" lon="1.73607">
        <ele>163</ele>
        <time>2010-05-14T09:40:28Z</time>
      </trkpt>
      <trkpt lat="48.69072" lon="1.73608">
        <ele>163</ele>
        <time>2010-05-14T09:40:30Z</time>
      </trkpt>
      <trkpt lat="48.69074" lon="1.73608">
        <ele>164</ele>
        <time>2010-05-14T09:40:32Z</time>
      </trkpt>
      <trkpt lat="48.69075" lon="1.73609">
        <ele>166</ele>
        <time>2010-05-14T09:40:34Z</time>
      </trkpt>
      <trkpt lat="48.69077" lon="1.73609">
        <ele>169</ele>
        <time>2010-05-14T09:40:37Z</time>
      </trkpt>
      <trkpt lat="48.69078" lon="1.73609">
        <ele>172</ele>
        <time>2010-05-14T09:40:44Z</time>
      </trkpt>
      <trkpt lat="48.69079" lon="1.73609">
        <ele>173</ele>
        <time>2010-05-14T09:40:46Z</time>
      </trkpt>
      <trkpt lat="48.6908" lon="1.73608">
        <ele>175</ele>
        <time>2010-05-14T09:40:50Z</time>
      </trkpt>
      <trkpt lat="48.69082" lon="1.73608">
        <ele>176</ele>
        <time>2010-05-14T09:40:51Z</time>
      </trkpt>
      <trkpt lat="48.69083" lon="1.73606">
        <ele>178</ele>
        <time>2010-05-14T09:40:53Z</time>
      </trkpt>
      <trkpt lat="48.69081" lon="1.73603">
        <ele>180</ele>
        <time>2010-05-14T09:40:55Z</time>
      </trkpt>
      <trkpt lat="48.69079" lon="1.73603">
        <ele>180</ele>
        <time>2010-05-14T09:40:56Z</time>
      </trkpt>
      <trkpt lat="48.69078" lon="1.73601">
        <ele>180</ele>
        <time>2010-05-14T09:40:59Z</time>
      </trkpt>
      <trkpt lat="48.69077" lon="1.73602">
        <ele>181</ele>
        <time>2010-05-14T09:41:03Z</time>
      </trkpt>
      <trkpt lat="48.69078" lon="1.736">
        <ele>181</ele>
        <time>2010-05-14T09:41:06Z</time>
      </trkpt>
      <trkpt lat="48.69078" lon="1.73598">
        <ele>181</ele>
        <time>2010-05-14T09:41:07Z</time>
      </trkpt>
      <trkpt lat="48.6908" lon="1.73597">
        <ele>181</ele>
        <time>2010-05-14T09:41:08Z</time>
      </trkpt>
      <trkpt lat="48.6908" lon="1.73599">
        <ele>181</ele>
        <time>2010-05-14T09:41:11Z</time>
      </trkpt>
      <trkpt lat="48.69081" lon="1.73601">
        <ele>181</ele>
        <time>2010-05-14T09:41:13Z</time>
      </trkpt>
      <trkpt lat="48.69081" lon="1.73602">
        <ele>181</ele>
        <time>2010-05-14T09:41:16Z</time>
      </trkpt>
      <trkpt lat="48.69083" lon="1.73603">
        <ele>181</ele>
        <time>2010-05-14T09:41:17Z</time>
      </trkpt>
      <trkpt lat="48.69084" lon="1.73603">
        <ele>182</ele>
        <time>2010-05-14T09:41:18Z</time>
      </trkpt>
      <trkpt lat="48.69084" lon="1.73605">
        <ele>183</ele>
        <time>2010-05-14T09:41:21Z</time>
      </trkpt>
      <trkpt lat="48.69085" lon="1.73606">
        <ele>184</ele>
        <time>2010-05-14T09:41:25Z</time>
      </trkpt>
      <trkpt lat="48.69084" lon="1.73606">
        <ele>185</ele>
        <time>2010-05-14T09:41:30Z</time>
      </trkpt>
      <trkpt lat="48.69083" lon="1.73606">
        <ele>185</ele>
        <time>2010-05-14T09:41:31Z</time>
      </trkpt>
      <trkpt lat="48.69081" lon="1.73607">
        <ele>185</ele>
        <time>2010-05-14T09:41:32Z</time>
      </trkpt>
      <trkpt lat="48.69081" lon="1.73609">
        <ele>185</ele>
        <time>2010-05-14T09:41:33Z</time>
      </trkpt>
      <trkpt lat="48.69082" lon="1.73611">
        <ele>185</ele>
        <time>2010-05-14T09:41:34Z</time>
      </trkpt>
      <trkpt lat="48.69083" lon="1.73613">
        <ele>185</ele>
        <time>2010-05-14T09:41:36Z</time>
      </trkpt>
      <trkpt lat="48.69083" lon="1.73616">
        <ele>185</ele>
        <time>2010-05-14T09:41:40Z</time>
      </trkpt>
      <trkpt lat="48.69083" lon="1.73619">
        <ele>186</ele>
        <time>2010-05-14T09:41:42Z</time>
      </trkpt>
      <trkpt lat="48.69081" lon="1.7362">
        <ele>190</ele>
        <time>2010-05-14T09:41:45Z</time>
      </trkpt>
      <trkpt lat="48.69079" lon="1.73621">
        <ele>194</ele>
        <time>2010-05-14T09:41:47Z</time>
      </trkpt>
      <trkpt lat="48.69078" lon="1.73619">
        <ele>197</ele>
        <time>2010-05-14T09:41:49Z</time>
      </trkpt>
      <trkpt lat="48.69077" lon="1.73617">
        <ele>198</ele>
        <time>2010-05-14T09:41:50Z</time>
      </trkpt>
      <trkpt lat="48.69078" lon="1.7362">
        <ele>199</ele>
        <time>2010-05-14T09:41:51Z</time>
      </trkpt>
      <trkpt lat="48.6908" lon="1.73618">
        <ele>200</ele>
        <time>2010-05-14T09:41:53Z</time>
      </trkpt>
      <trkpt lat="48.69081" lon="1.73617">
        <ele>200</ele>
        <time>2010-05-14T09:41:54Z</time>
      </trkpt>
      <trkpt lat="48.6908" lon="1.73614">
        <ele>199</ele>
        <time>2010-05-14T09:41:55Z</time>
      </trkpt>
      <trkpt lat="48.6908" lon="1.73613">
        <ele>197</ele>
        <time>2010-05-14T09:41:56Z</time>
      </trkpt>
      <trkpt lat="48.6908" lon="1.73614">
        <ele>187</ele>
        <time>2010-05-14T09:42:01Z</time>
      </trkpt>
      <trkpt lat="48.69082" lon="1.73614">
        <ele>183</ele>
        <time>2010-05-14T09:42:03Z</time>
      </trkpt>
      <trkpt lat="48.6908" lon="1.73613">
        <ele>178</ele>
        <time>2010-05-14T09:42:07Z</time>
      </trkpt>
      <trkpt lat="48.69077" lon="1.73609">
        <ele>169</ele>
        <time>2010-05-14T09:42:14Z</time>
      </trkpt>
      <trkpt lat="48.69075" lon="1.73607">
        <ele>168</ele>
        <time>2010-05-14T09:42:15Z</time>
      </trkpt>
      <trkpt lat="48.69073" lon="1.73606">
        <ele>166</ele>
        <time>2010-05-14T09:42:16Z</time>
      </trkpt>
      <trkpt lat="48.69072" lon="1.73602">
        <ele>164</ele>
        <time>2010-05-14T09:42:18Z</time>
      </trkpt>
      <trkpt lat="48.6907" lon="1.73599">
        <ele>163</ele>
        <time>2010-05-14T09:42:19Z</time>
      </trkpt>
      <trkpt lat="48.69069" lon="1.73598">
        <ele>162</ele>
        <time>2010-05-14T09:42:20Z</time>
      </trkpt>
      <trkpt lat="48.69068" lon="1.73597">
        <ele>161</ele>
        <time>2010-05-14T09:42:22Z</time>
      </trkpt>
      <trkpt lat="48.69069" lon="1.73598">
        <ele>161</ele>
        <time>2010-05-14T09:42:25Z</time>
      </trkpt>
      <trkpt lat="48.6907" lon="1.736">
        <ele>159</ele>
        <time>2010-05-14T09:42:32Z</time>
      </trkpt>
      <trkpt lat="48.69071" lon="1.73602">
        <ele>158</ele>
        <time>2010-05-14T09:42:39Z</time>
      </trkpt>
      <trkpt lat="48.69071" lon="1.73604">
        <ele>158</ele>
        <time>2010-05-14T09:42:44Z</time>
      </trkpt>
      <trkpt lat="48.69073" lon="1.73605">
        <ele>158</ele>
        <time>2010-05-14T09:42:46Z</time>
      </trkpt>
      <trkpt lat="48.69074" lon="1.73608">
        <ele>158</ele>
        <time>2010-05-14T09:42:48Z</time>
      </trkpt>
      <trkpt lat="48.69075" lon="1.7361">
        <ele>158</ele>
        <time>2010-05-14T09:42:50Z</time>
      </trkpt>
      <trkpt lat="48.69076" lon="1.7361">
        <ele>158</ele>
        <time>2010-05-14T09:42:51Z</time>
      </trkpt>
      <trkpt lat="48.69077" lon="1.73611">
        <ele>160</ele>
        <time>2010-05-14T09:42:53Z</time>
      </trkpt>
      <trkpt lat="48.69079" lon="1.7361">
        <ele>160</ele>
        <time>2010-05-14T09:42:55Z</time>
      </trkpt>
      <trkpt lat="48.69079" lon="1.73608">
        <ele>161</ele>
        <time>2010-05-14T09:42:57Z</time>
      </trkpt>
      <trkpt lat="48.69079" lon="1.73606">
        <ele>163</ele>
        <time>2010-05-14T09:42:59Z</time>
      </trkpt>
      <trkpt lat="48.69079" lon="1.73604">
        <ele>165</ele>
        <time>2010-05-14T09:43:01Z</time>
      </trkpt>
      <trkpt lat="48.69081" lon="1.73603">
        <ele>166</ele>
        <time>2010-05-14T09:43:03Z</time>
      </trkpt>
      <trkpt lat="48.69083" lon="1.73603">
        <ele>166</ele>
        <time>2010-05-14T09:43:04Z</time>
      </trkpt>
      <trkpt lat="48.69085" lon="1.73603">
        <ele>167</ele>
        <time>2010-05-14T09:43:05Z</time>
      </trkpt>
      <trkpt lat="48.69083" lon="1.73605">
        <ele>167</ele>
        <time>2010-05-14T09:43:08Z</time>
      </trkpt>
      <trkpt lat="48.69082" lon="1.73607">
        <ele>167</ele>
        <time>2010-05-14T09:43:12Z</time>
      </trkpt>
      <trkpt lat="48.69081" lon="1.73607">
        <ele>167</ele>
        <time>2010-05-14T09:43:16Z</time>
      </trkpt>
      <trkpt lat="48.69079" lon="1.73608">
        <ele>167</ele>
        <time>2010-05-14T09:43:18Z</time>
      </trkpt>
      <trkpt lat="48.69078" lon="1.73609">
        <ele>167</ele>
        <time>2010-05-14T09:43:19Z</time>
      </trkpt>
      <trkpt lat="48.69076" lon="1.7361">
        <ele>167</ele>
        <time>2010-05-14T09:43:20Z</time>
      </trkpt>
      <trkpt lat="48.69074" lon="1.7361">
        <ele>167</ele>
        <time>2010-05-14T09:43:21Z</time>
      </trkpt>
      <trkpt lat="48.69073" lon="1.73611">
        <ele>167</ele>
        <time>2010-05-14T09:43:22Z</time>
      </trkpt>
      <trkpt lat="48.69071" lon="1.7361">
        <ele>167</ele>
        <time>2010-05-14T09:43:23Z</time>
      </trkpt>
      <trkpt lat="48.6907" lon="1.7361">
        <ele>167</ele>
        <time>2010-05-14T09:43:24Z</time>
      </trkpt>
      <trkpt lat="48.69068" lon="1.73607">
        <ele>167</ele>
        <time>2010-05-14T09:43:27Z</time>
      </trkpt>
      <trkpt lat="48.69067" lon="1.73605">
        <ele>167</ele>
        <time>2010-05-14T09:43:28Z</time>
      </trkpt>
      <trkpt lat="48.69065" lon="1.73603">
        <ele>167</ele>
        <time>2010-05-14T09:43:31Z</time>
      </trkpt>
      <trkpt lat="48.69064" lon="1.73604">
        <ele>166</ele>
        <time>2010-05-14T09:43:32Z</time>
      </trkpt>
      <trkpt lat="48.69062" lon="1.73604">
        <ele>164</ele>
        <time>2010-05-14T09:43:34Z</time>
      </trkpt>
      <trkpt lat="48.69062" lon="1.73606">
        <ele>164</ele>
        <time>2010-05-14T09:43:38Z</time>
      </trkpt>
      <trkpt lat="48.69062" lon="1.73609">
        <ele>164</ele>
        <time>2010-05-14T09:43:39Z</time>
      </trkpt>
      <trkpt lat="48.69059" lon="1.73612">
        <ele>164</ele>
        <time>2010-05-14T09:43:41Z</time>
      </trkpt>
      <trkpt lat="48.69058" lon="1.73612">
        <ele>164</ele>
        <time>2010-05-14T09:43:42Z</time>
      </trkpt>
      <trkpt lat="48.69059" lon="1.73611">
        <ele>164</ele>
        <time>2010-05-14T09:43:45Z</time>
      </trkpt>
      <trkpt lat="48.69059" lon="1.73609">
        <ele>164</ele>
        <time>2010-05-14T09:43:46Z</time>
      </trkpt>
      <trkpt lat="48.69058" lon="1.73606">
        <ele>164</ele>
        <time>2010-05-14T09:43:48Z</time>
      </trkpt>
      <trkpt lat="48.69056" lon="1.73606">
        <ele>155</ele>
        <time>2010-05-14T09:43:59Z</time>
      </trkpt>
      <trkpt lat="48.69056" lon="1.73604">
        <ele>155</ele>
        <time>2010-05-14T09:44:02Z</time>
      </trkpt>
      <trkpt lat="48.69058" lon="1.73603">
        <ele>155</ele>
        <time>2010-05-14T09:44:05Z</time>
      </trkpt>
      <trkpt lat="48.69059" lon="1.73603">
        <ele>155</ele>
        <time>2010-05-14T09:44:08Z</time>
      </trkpt>
      <trkpt lat="48.6906" lon="1.73602">
        <ele>155</ele>
        <time>2010-05-14T09:44:10Z</time>
      </trkpt>
      <trkpt lat="48.69062" lon="1.73599">
        <ele>155</ele>
        <time>2010-05-14T09:44:12Z</time>
      </trkpt>
      <trkpt lat="48.69063" lon="1.73599">
        <ele>151</ele>
        <time>2010-05-14T09:44:17Z</time>
      </trkpt>
      <trkpt lat="48.69065" lon="1.736">
        <ele>151</ele>
        <time>2010-05-14T09:44:19Z</time>
      </trkpt>
      <trkpt lat="48.69066" lon="1.73601">
        <ele>151</ele>
        <time>2010-05-14T09:44:26Z</time>
      </trkpt>
      <trkpt lat="48.69064" lon="1.73602">
        <ele>151</ele>
        <time>2010-05-14T09:44:29Z</time>
      </trkpt>
      <trkpt lat="48.69065" lon="1.73604">
        <ele>154</ele>
        <time>2010-05-14T09:44:37Z</time>
      </trkpt>
      <trkpt lat="48.69063" lon="1.73604">
        <ele>155</ele>
        <time>2010-05-14T09:44:41Z</time>
      </trkpt>
      <trkpt lat="48.69063" lon="1.73606">
        <ele>155</ele>
        <time>2010-05-14T09:44:45Z</time>
      </trkpt>
      <trkpt lat="48.69062" lon="1.73609">
        <ele>157</ele>
        <time>2010-05-14T09:44:47Z</time>
      </trkpt>
      <trkpt lat="48.69061" lon="1.73611">
        <ele>159</ele>
        <time>2010-05-14T09:44:49Z</time>
      </trkpt>
      <trkpt lat="48.69059" lon="1.73612">
        <ele>161</ele>
        <time>2010-05-14T09:44:51Z</time>
      </trkpt>
      <trkpt lat="48.69058" lon="1.73612">
        <ele>163</ele>
        <time>2010-05-14T09:44:53Z</time>
      </trkpt>
      <trkpt lat="48.69057" lon="1.7361">
        <ele>165</ele>
        <time>2010-05-14T09:44:55Z</time>
      </trkpt>
      <trkpt lat="48.69055" lon="1.73609">
        <ele>166</ele>
        <time>2010-05-14T09:44:58Z</time>
      </trkpt>
      <trkpt lat="48.69056" lon="1.73612">
        <ele>169</ele>
        <time>2010-05-14T09:45:03Z</time>
      </trkpt>
      <trkpt lat="48.69056" lon="1.73614">
        <ele>170</ele>
        <time>2010-05-14T09:45:04Z</time>
      </trkpt>
      <trkpt lat="48.69056" lon="1.73616">
        <ele>172</ele>
        <time>2010-05-14T09:45:06Z</time>
      </trkpt>
      <trkpt lat="48.69057" lon="1.73618">
        <ele>174</ele>
        <time>2010-05-14T09:45:08Z</time>
      </trkpt>
      <trkpt lat="48.69059" lon="1.7362">
        <ele>178</ele>
        <time>2010-05-14T09:45:12Z</time>
      </trkpt>
      <trkpt lat="48.6906" lon="1.73618">
        <ele>180</ele>
        <time>2010-05-14T09:45:17Z</time>
      </trkpt>
      <trkpt lat="48.6906" lon="1.73615">
        <ele>180</ele>
        <time>2010-05-14T09:45:19Z</time>
      </trkpt>
      <trkpt lat="48.6906" lon="1.73613">
        <ele>180</ele>
        <time>2010-05-14T09:45:20Z</time>
      </trkpt>
      <trkpt lat="48.69059" lon="1.73611">
        <ele>180</ele>
        <time>2010-05-14T09:45:22Z</time>
      </trkpt>
      <trkpt lat="48.6906" lon="1.73609">
        <ele>180</ele>
        <time>2010-05-14T09:45:25Z</time>
      </trkpt>
      <trkpt lat="48.69061" lon="1.73607">
        <ele>180</ele>
        <time>2010-05-14T09:45:28Z</time>
      </trkpt>
      <trkpt lat="48.6906" lon="1.73607">
        <ele>180</ele>
        <time>2010-05-14T09:45:31Z</time>
      </trkpt>
      <trkpt lat="48.69058" lon="1.73607">
        <ele>180</ele>
        <time>2010-05-14T09:45:33Z</time>
      </trkpt>
      <trkpt lat="48.69057" lon="1.73606">
        <ele>180</ele>
        <time>2010-05-14T09:45:35Z</time>
      </trkpt>
      <trkpt lat="48.69055" lon="1.73605">
        <ele>180</ele>
        <time>2010-05-14T09:45:37Z</time>
      </trkpt>
      <trkpt lat="48.69054" lon="1.73606">
        <ele>180</ele>
        <time>2010-05-14T09:45:39Z</time>
      </trkpt>
      <trkpt lat="48.69052" lon="1.73606">
        <ele>180</ele>
        <time>2010-05-14T09:45:40Z</time>
      </trkpt>
      <trkpt lat="48.69051" lon="1.73605">
        <ele>180</ele>
        <time>2010-05-14T09:45:41Z</time>
      </trkpt>
      <trkpt lat="48.69049" lon="1.73606">
        <ele>178</ele>
        <time>2010-05-14T09:45:43Z</time>
      </trkpt>
      <trkpt lat="48.69047" lon="1.73607">
        <ele>177</ele>
        <time>2010-05-14T09:45:46Z</time>
      </trkpt>
      <trkpt lat="48.69046" lon="1.73608">
        <ele>177</ele>
        <time>2010-05-14T09:45:48Z</time>
      </trkpt>
      <trkpt lat="48.69045" lon="1.73607">
        <ele>175</ele>
        <time>2010-05-14T09:45:51Z</time>
      </trkpt>
      <trkpt lat="48.69044" lon="1.73607">
        <ele>174</ele>
        <time>2010-05-14T09:45:54Z</time>
      </trkpt>
      <trkpt lat="48.69043" lon="1.73606">
        <ele>174</ele>
        <time>2010-05-14T09:45:55Z</time>
      </trkpt>
      <trkpt lat="48.69041" lon="1.73606">
        <ele>173</ele>
        <time>2010-05-14T09:45:56Z</time>
      </trkpt>
      <trkpt lat="48.6904" lon="1.73607">
        <ele>173</ele>
        <time>2010-05-14T09:45:57Z</time>
      </trkpt>
      <trkpt lat="48.69039" lon="1.73607">
        <ele>173</ele>
        <time>2010-05-14T09:45:58Z</time>
      </trkpt>
      <trkpt lat="48.69037" lon="1.73606">
        <ele>173</ele>
        <time>2010-05-14T09:45:59Z</time>
      </trkpt>
      <trkpt lat="48.69035" lon="1.73605">
        <ele>172</ele>
        <time>2010-05-14T09:46:00Z</time>
      </trkpt>
      <trkpt lat="48.69033" lon="1.73604">
        <ele>172</ele>
        <time>2010-05-14T09:46:01Z</time>
      </trkpt>
      <trkpt lat="48.69031" lon="1.73604">
        <ele>171</ele>
        <time>2010-05-14T09:46:02Z</time>
      </trkpt>
      <trkpt lat="48.69028" lon="1.73604">
        <ele>171</ele>
        <time>2010-05-14T09:46:03Z</time>
      </trkpt>
      <trkpt lat="48.69025" lon="1.73604">
        <ele>170</ele>
        <time>2010-05-14T09:46:04Z</time>
      </trkpt>
      <trkpt lat="48.69021" lon="1.73605">
        <ele>170</ele>
        <time>2010-05-14T09:46:05Z</time>
      </trkpt>
      <trkpt lat="48.69017" lon="1.73605">
        <ele>169</ele>
        <time>2010-05-14T09:46:06Z</time>
      </trkpt>
      <trkpt lat="48.69013" lon="1.73604">
        <ele>169</ele>
        <time>2010-05-14T09:46:07Z</time>
      </trkpt>
      <trkpt lat="48.69009" lon="1.73604">
        <ele>168</ele>
        <time>2010-05-14T09:46:08Z</time>
      </trkpt>
      <trkpt lat="48.69005" lon="1.73603">
        <ele>167</ele>
        <time>2010-05-14T09:46:09Z</time>
      </trkpt>
      <trkpt lat="48.69" lon="1.73602">
        <ele>167</ele>
        <time>2010-05-14T09:46:10Z</time>
      </trkpt>
      <trkpt lat="48.68995" lon="1.73601">
        <ele>166</ele>
        <time>2010-05-14T09:46:11Z</time>
      </trkpt>
      <trkpt lat="48.68989" lon="1.736">
        <ele>166</ele>
        <time>2010-05-14T09:46:12Z</time>
      </trkpt>
      <trkpt lat="48.68983" lon="1.73602">
        <ele>165</ele>
        <time>2010-05-14T09:46:13Z</time>
      </trkpt>
      <trkpt lat="48.68978" lon="1.73604">
        <ele>165</ele>
        <time>2010-05-14T09:46:14Z</time>
      </trkpt>
      <trkpt lat="48.68971" lon="1.73605">
        <ele>165</ele>
        <time>2010-05-14T09:46:15Z</time>
      </trkpt>
      <trkpt lat="48.68964" lon="1.73606">
        <ele>165</ele>
        <time>2010-05-14T09:46:16Z</time>
      </trkpt>
      <trkpt lat="48.68956" lon="1.73605">
        <ele>165</ele>
        <time>2010-05-14T09:46:17Z</time>
      </trkpt>
      <trkpt lat="48.68947" lon="1.73603">
        <ele>165</ele>
        <time>2010-05-14T09:46:18Z</time>
      </trkpt>
      <trkpt lat="48.68939" lon="1.73601">
        <ele>165</ele>
        <time>2010-05-14T09:46:19Z</time>
      </trkpt>
      <trkpt lat="48.6893" lon="1.73599">
        <ele>164</ele>
        <time>2010-05-14T09:46:20Z</time>
      </trkpt>
      <trkpt lat="48.68921" lon="1.73598">
        <ele>163</ele>
        <time>2010-05-14T09:46:21Z</time>
      </trkpt>
      <trkpt lat="48.68913" lon="1.73597">
        <ele>162</ele>
        <time>2010-05-14T09:46:22Z</time>
      </trkpt>
      <trkpt lat="48.68905" lon="1.73596">
        <ele>161</ele>
        <time>2010-05-14T09:46:23Z</time>
      </trkpt>
      <trkpt lat="48.68896" lon="1.73595">
        <ele>160</ele>
        <time>2010-05-14T09:46:24Z</time>
      </trkpt>
      <trkpt lat="48.68888" lon="1.73593">
        <ele>160</ele>
        <time>2010-05-14T09:46:25Z</time>
      </trkpt>
      <trkpt lat="48.68879" lon="1.73591">
        <ele>160</ele>
        <time>2010-05-14T09:46:26Z</time>
      </trkpt>
      <trkpt lat="48.68869" lon="1.7359">
        <ele>160</ele>
        <time>2010-05-14T09:46:27Z</time>
      </trkpt>
      <trkpt lat="48.6886" lon="1.73589">
        <ele>160</ele>
        <time>2010-05-14T09:46:28Z</time>
      </trkpt>
      <trkpt lat="48.68851" lon="1.73588">
        <ele>160</ele>
        <time>2010-05-14T09:46:29Z</time>
      </trkpt>
      <trkpt lat="48.68841" lon="1.73588">
        <ele>160</ele>
        <time>2010-05-14T09:46:30Z</time>
      </trkpt>
      <trkpt lat="48.68831" lon="1.73587">
        <ele>160</ele>
        <time>2010-05-14T09:46:31Z</time>
      </trkpt>
      <trkpt lat="48.68821" lon="1.73587">
        <ele>161</ele>
        <time>2010-05-14T09:46:32Z</time>
      </trkpt>
      <trkpt lat="48.68811" lon="1.73585">
        <ele>161</ele>
        <time>2010-05-14T09:46:33Z</time>
      </trkpt>
      <trkpt lat="48.68802" lon="1.73583">
        <ele>162</ele>
        <time>2010-05-14T09:46:34Z</time>
      </trkpt>
      <trkpt lat="48.68793" lon="1.73584">
        <ele>162</ele>
        <time>2010-05-14T09:46:35Z</time>
      </trkpt>
      <trkpt lat="48.68782" lon="1.7358">
        <ele>162</ele>
        <time>2010-05-14T09:46:36Z</time>
      </trkpt>
      <trkpt lat="48.68773" lon="1.73579">
        <ele>162</ele>
        <time>2010-05-14T09:46:37Z</time>
      </trkpt>
      <trkpt lat="48.68764" lon="1.73577">
        <ele>162</ele>
        <time>2010-05-14T09:46:38Z</time>
      </trkpt>
      <trkpt lat="48.68755" lon="1.73576">
        <ele>162</ele>
        <time>2010-05-14T09:46:39Z</time>
      </trkpt>
      <trkpt lat="48.68748" lon="1.73575">
        <ele>162</ele>
        <time>2010-05-14T09:46:40Z</time>
      </trkpt>
      <trkpt lat="48.68739" lon="1.73572">
        <ele>162</ele>
        <time>2010-05-14T09:46:41Z</time>
      </trkpt>
      <trkpt lat="48.68731" lon="1.7357">
        <ele>162</ele>
        <time>2010-05-14T09:46:42Z</time>
      </trkpt>
      <trkpt lat="48.68725" lon="1.7357">
        <ele>162</ele>
        <time>2010-05-14T09:46:43Z</time>
      </trkpt>
      <trkpt lat="48.68718" lon="1.73568">
        <ele>162</ele>
        <time>2010-05-14T09:46:44Z</time>
      </trkpt>
      <trkpt lat="48.68711" lon="1.73565">
        <ele>162</ele>
        <time>2010-05-14T09:46:45Z</time>
      </trkpt>
      <trkpt lat="48.68705" lon="1.73566">
        <ele>162</ele>
        <time>2010-05-14T09:46:46Z</time>
      </trkpt>
      <trkpt lat="48.68699" lon="1.73564">
        <ele>162</ele>
        <time>2010-05-14T09:46:47Z</time>
      </trkpt>
      <trkpt lat="48.68693" lon="1.73564">
        <ele>162</ele>
        <time>2010-05-14T09:46:48Z</time>
      </trkpt>
      <trkpt lat="48.68688" lon="1.73564">
        <ele>162</ele>
        <time>2010-05-14T09:46:49Z</time>
      </trkpt>
      <trkpt lat="48.68684" lon="1.73564">
        <ele>162</ele>
        <time>2010-05-14T09:46:50Z</time>
      </trkpt>
      <trkpt lat="48.6868" lon="1.73564">
        <ele>162</ele>
        <time>2010-05-14T09:46:51Z</time>
      </trkpt>
      <trkpt lat="48.68676" lon="1.73565">
        <ele>162</ele>
        <time>2010-05-14T09:46:52Z</time>
      </trkpt>
      <trkpt lat="48.68672" lon="1.73565">
        <ele>162</ele>
        <time>2010-05-14T09:46:53Z</time>
      </trkpt>
      <trkpt lat="48.68668" lon="1.73564">
        <ele>162</ele>
        <time>2010-05-14T09:46:54Z</time>
      </trkpt>
      <trkpt lat="48.68664" lon="1.73564">
        <ele>162</ele>
        <time>2010-05-14T09:46:55Z</time>
      </trkpt>
      <trkpt lat="48.6866" lon="1.73563">
        <ele>162</ele>
        <time>2010-05-14T09:46:56Z</time>
      </trkpt>
      <trkpt lat="48.68656" lon="1.73561">
        <ele>163</ele>
        <time>2010-05-14T09:46:57Z</time>
      </trkpt>
      <trkpt lat="48.68653" lon="1.7356">
        <ele>163</ele>
        <time>2010-05-14T09:46:58Z</time>
      </trkpt>
      <trkpt lat="48.6865" lon="1.73559">
        <ele>164</ele>
        <time>2010-05-14T09:46:59Z</time>
      </trkpt>
      <trkpt lat="48.68647" lon="1.73558">
        <ele>164</ele>
        <time>2010-05-14T09:47:00Z</time>
      </trkpt>
      <trkpt lat="48.68644" lon="1.73557">
        <ele>164</ele>
        <time>2010-05-14T09:47:01Z</time>
      </trkpt>
      <trkpt lat="48.68642" lon="1.73557">
        <ele>164</ele>
        <time>2010-05-14T09:47:02Z</time>
      </trkpt>
      <trkpt lat="48.6864" lon="1.73556">
        <ele>164</ele>
        <time>2010-05-14T09:47:03Z</time>
      </trkpt>
      <trkpt lat="48.68637" lon="1.73556">
        <ele>164</ele>
        <time>2010-05-14T09:47:05Z</time>
      </trkpt>
      <trkpt lat="48.68636" lon="1.73555">
        <ele>164</ele>
        <time>2010-05-14T09:47:06Z</time>
      </trkpt>
      <trkpt lat="48.68634" lon="1.73555">
        <ele>163</ele>
        <time>2010-05-14T09:47:07Z</time>
      </trkpt>
      <trkpt lat="48.68632" lon="1.73555">
        <ele>162</ele>
        <time>2010-05-14T09:47:08Z</time>
      </trkpt>
      <trkpt lat="48.6863" lon="1.73555">
        <ele>161</ele>
        <time>2010-05-14T09:47:09Z</time>
      </trkpt>
      <trkpt lat="48.68627" lon="1.73557">
        <ele>160</ele>
        <time>2010-05-14T09:47:11Z</time>
      </trkpt>
      <trkpt lat="48.68626" lon="1.73556">
        <ele>160</ele>
        <time>2010-05-14T09:47:12Z</time>
      </trkpt>
      <trkpt lat="48.68624" lon="1.73556">
        <ele>160</ele>
        <time>2010-05-14T09:47:13Z</time>
      </trkpt>
      <trkpt lat="48.68623" lon="1.73556">
        <ele>160</ele>
        <time>2010-05-14T09:47:14Z</time>
      </trkpt>
      <trkpt lat="48.68622" lon="1.73555">
        <ele>159</ele>
        <time>2010-05-14T09:47:15Z</time>
      </trkpt>
      <trkpt lat="48.6862" lon="1.73556">
        <ele>157</ele>
        <time>2010-05-14T09:47:17Z</time>
      </trkpt>
      <trkpt lat="48.68618" lon="1.73556">
        <ele>156</ele>
        <time>2010-05-14T09:47:18Z</time>
      </trkpt>
      <trkpt lat="48.68617" lon="1.73555">
        <ele>155</ele>
        <time>2010-05-14T09:47:19Z</time>
      </trkpt>
      <trkpt lat="48.68616" lon="1.73556">
        <ele>154</ele>
        <time>2010-05-14T09:47:20Z</time>
      </trkpt>
      <trkpt lat="48.68614" lon="1.73557">
        <ele>153</ele>
        <time>2010-05-14T09:47:21Z</time>
      </trkpt>
      <trkpt lat="48.68612" lon="1.73556">
        <ele>152</ele>
        <time>2010-05-14T09:47:22Z</time>
      </trkpt>
      <trkpt lat="48.6861" lon="1.73556">
        <ele>151</ele>
        <time>2010-05-14T09:47:23Z</time>
      </trkpt>
      <trkpt lat="48.68608" lon="1.73558">
        <ele>151</ele>
        <time>2010-05-14T09:47:24Z</time>
      </trkpt>
      <trkpt lat="48.68607" lon="1.73558">
        <ele>151</ele>
        <time>2010-05-14T09:47:25Z</time>
      </trkpt>
      <trkpt lat="48.68605" lon="1.73558">
        <ele>151</ele>
        <time>2010-05-14T09:47:26Z</time>
      </trkpt>
      <trkpt lat="48.68604" lon="1.73559">
        <ele>151</ele>
        <time>2010-05-14T09:47:27Z</time>
      </trkpt>
      <trkpt lat="48.68601" lon="1.73558">
        <ele>151</ele>
        <time>2010-05-14T09:47:29Z</time>
      </trkpt>
      <trkpt lat="48.68599" lon="1.73558">
        <ele>151</ele>
        <time>2010-05-14T09:47:30Z</time>
      </trkpt>
      <trkpt lat="48.68597" lon="1.73558">
        <ele>151</ele>
        <time>2010-05-14T09:47:31Z</time>
      </trkpt>
      <trkpt lat="48.68594" lon="1.73558">
        <ele>151</ele>
        <time>2010-05-14T09:47:32Z</time>
      </trkpt>
      <trkpt lat="48.68591" lon="1.73558">
        <ele>151</ele>
        <time>2010-05-14T09:47:33Z</time>
      </trkpt>
      <trkpt lat="48.68588" lon="1.73559">
        <ele>151</ele>
        <time>2010-05-14T09:47:34Z</time>
      </trkpt>
      <trkpt lat="48.68584" lon="1.73559">
        <ele>151</ele>
        <time>2010-05-14T09:47:35Z</time>
      </trkpt>
      <trkpt lat="48.6858" lon="1.73558">
        <ele>151</ele>
        <time>2010-05-14T09:47:36Z</time>
      </trkpt>
      <trkpt lat="48.68576" lon="1.73557">
        <ele>151</ele>
        <time>2010-05-14T09:47:37Z</time>
      </trkpt>
      <trkpt lat="48.68562" lon="1.73556">
        <ele>151</ele>
        <time>2010-05-14T09:47:40Z</time>
      </trkpt>
      <trkpt lat="48.68556" lon="1.73552">
        <ele>151</ele>
        <time>2010-05-14T09:47:41Z</time>
      </trkpt>
      <trkpt lat="48.68551" lon="1.73551">
        <ele>151</ele>
        <time>2010-05-14T09:47:42Z</time>
      </trkpt>
      <trkpt lat="48.68546" lon="1.73549">
        <ele>151</ele>
        <time>2010-05-14T09:47:43Z</time>
      </trkpt>
      <trkpt lat="48.6854" lon="1.73546">
        <ele>151</ele>
        <time>2010-05-14T09:47:44Z</time>
      </trkpt>
      <trkpt lat="48.68535" lon="1.73543">
        <ele>151</ele>
        <time>2010-05-14T09:47:45Z</time>
      </trkpt>
      <trkpt lat="48.68528" lon="1.73543">
        <ele>151</ele>
        <time>2010-05-14T09:47:46Z</time>
      </trkpt>
      <trkpt lat="48.68522" lon="1.73543">
        <ele>151</ele>
        <time>2010-05-14T09:47:47Z</time>
      </trkpt>
      <trkpt lat="48.68514" lon="1.73542">
        <ele>151</ele>
        <time>2010-05-14T09:47:48Z</time>
      </trkpt>
      <trkpt lat="48.68507" lon="1.73541">
        <ele>151</ele>
        <time>2010-05-14T09:47:49Z</time>
      </trkpt>
      <trkpt lat="48.685" lon="1.7354">
        <ele>151</ele>
        <time>2010-05-14T09:47:50Z</time>
      </trkpt>
      <trkpt lat="48.68494" lon="1.7354">
        <ele>151</ele>
        <time>2010-05-14T09:47:51Z</time>
      </trkpt>
      <trkpt lat="48.68487" lon="1.73539">
        <ele>151</ele>
        <time>2010-05-14T09:47:52Z</time>
      </trkpt>
      <trkpt lat="48.6848" lon="1.73538">
        <ele>151</ele>
        <time>2010-05-14T09:47:53Z</time>
      </trkpt>
      <trkpt lat="48.68473" lon="1.73538">
        <ele>151</ele>
        <time>2010-05-14T09:47:54Z</time>
      </trkpt>
      <trkpt lat="48.68465" lon="1.73535">
        <ele>151</ele>
        <time>2010-05-14T09:47:55Z</time>
      </trkpt>
      <trkpt lat="48.68458" lon="1.73533">
        <ele>151</ele>
        <time>2010-05-14T09:47:56Z</time>
      </trkpt>
      <trkpt lat="48.6845" lon="1.73531">
        <ele>151</ele>
        <time>2010-05-14T09:47:57Z</time>
      </trkpt>
      <trkpt lat="48.68443" lon="1.73531">
        <ele>151</ele>
        <time>2010-05-14T09:47:58Z</time>
      </trkpt>
      <trkpt lat="48.68434" lon="1.73531">
        <ele>151</ele>
        <time>2010-05-14T09:47:59Z</time>
      </trkpt>
      <trkpt lat="48.68426" lon="1.73532">
        <ele>151</ele>
        <time>2010-05-14T09:48:00Z</time>
      </trkpt>
      <trkpt lat="48.68418" lon="1.73532">
        <ele>151</ele>
        <time>2010-05-14T09:48:01Z</time>
      </trkpt>
      <trkpt lat="48.68409" lon="1.73533">
        <ele>151</ele>
        <time>2010-05-14T09:48:02Z</time>
      </trkpt>
      <trkpt lat="48.684" lon="1.73531">
        <ele>152</ele>
        <time>2010-05-14T09:48:03Z</time>
      </trkpt>
      <trkpt lat="48.68393" lon="1.73531">
        <ele>153</ele>
        <time>2010-05-14T09:48:04Z</time>
      </trkpt>
      <trkpt lat="48.68385" lon="1.73529">
        <ele>154</ele>
        <time>2010-05-14T09:48:05Z</time>
      </trkpt>
      <trkpt lat="48.68377" lon="1.73528">
        <ele>155</ele>
        <time>2010-05-14T09:48:06Z</time>
      </trkpt>
      <trkpt lat="48.68369" lon="1.73525">
        <ele>156</ele>
        <time>2010-05-14T09:48:07Z</time>
      </trkpt>
      <trkpt lat="48.68361" lon="1.73524">
        <ele>157</ele>
        <time>2010-05-14T09:48:08Z</time>
      </trkpt>
      <trkpt lat="48.68353" lon="1.73524">
        <ele>158</ele>
        <time>2010-05-14T09:48:09Z</time>
      </trkpt>
      <trkpt lat="48.68344" lon="1.73524">
        <ele>159</ele>
        <time>2010-05-14T09:48:10Z</time>
      </trkpt>
      <trkpt lat="48.68337" lon="1.73522">
        <ele>160</ele>
        <time>2010-05-14T09:48:11Z</time>
      </trkpt>
      <trkpt lat="48.68329" lon="1.73521">
        <ele>161</ele>
        <time>2010-05-14T09:48:12Z</time>
      </trkpt>
      <trkpt lat="48.68322" lon="1.7352">
        <ele>162</ele>
        <time>2010-05-14T09:48:13Z</time>
      </trkpt>
      <trkpt lat="48.68315" lon="1.73518">
        <ele>163</ele>
        <time>2010-05-14T09:48:14Z</time>
      </trkpt>
      <trkpt lat="48.68307" lon="1.73517">
        <ele>164</ele>
        <time>2010-05-14T09:48:15Z</time>
      </trkpt>
      <trkpt lat="48.683" lon="1.73515">
        <ele>165</ele>
        <time>2010-05-14T09:48:16Z</time>
      </trkpt>
      <trkpt lat="48.68293" lon="1.73514">
        <ele>166</ele>
        <time>2010-05-14T09:48:17Z</time>
      </trkpt>
      <trkpt lat="48.68285" lon="1.73514">
        <ele>167</ele>
        <time>2010-05-14T09:48:18Z</time>
      </trkpt>
      <trkpt lat="48.68277" lon="1.73513">
        <ele>167</ele>
        <time>2010-05-14T09:48:19Z</time>
      </trkpt>
      <trkpt lat="48.68268" lon="1.73511">
        <ele>168</ele>
        <time>2010-05-14T09:48:20Z</time>
      </trkpt>
      <trkpt lat="48.68259" lon="1.7351">
        <ele>168</ele>
        <time>2010-05-14T09:48:21Z</time>
      </trkpt>
      <trkpt lat="48.68251" lon="1.73509">
        <ele>168</ele>
        <time>2010-05-14T09:48:22Z</time>
      </trkpt>
      <trkpt lat="48.68243" lon="1.73509">
        <ele>168</ele>
        <time>2010-05-14T09:48:23Z</time>
      </trkpt>
      <trkpt lat="48.68234" lon="1.73508">
        <ele>168</ele>
        <time>2010-05-14T09:48:24Z</time>
      </trkpt>
      <trkpt lat="48.68226" lon="1.73507">
        <ele>168</ele>
        <time>2010-05-14T09:48:25Z</time>
      </trkpt>
      <trkpt lat="48.68219" lon="1.73507">
        <ele>168</ele>
        <time>2010-05-14T09:48:26Z</time>
      </trkpt>
      <trkpt lat="48.68212" lon="1.73507">
        <ele>169</ele>
        <time>2010-05-14T09:48:27Z</time>
      </trkpt>
      <trkpt lat="48.68203" lon="1.73504">
        <ele>170</ele>
        <time>2010-05-14T09:48:28Z</time>
      </trkpt>
      <trkpt lat="48.68194" lon="1.73503">
        <ele>171</ele>
        <time>2010-05-14T09:48:29Z</time>
      </trkpt>
      <trkpt lat="48.68186" lon="1.73502">
        <ele>171</ele>
        <time>2010-05-14T09:48:30Z</time>
      </trkpt>
      <trkpt lat="48.68177" lon="1.73501">
        <ele>172</ele>
        <time>2010-05-14T09:48:31Z</time>
      </trkpt>
      <trkpt lat="48.68169" lon="1.73501">
        <ele>172</ele>
        <time>2010-05-14T09:48:32Z</time>
      </trkpt>
      <trkpt lat="48.68161" lon="1.73499">
        <ele>173</ele>
        <time>2010-05-14T09:48:33Z</time>
      </trkpt>
      <trkpt lat="48.68152" lon="1.73498">
        <ele>173</ele>
        <time>2010-05-14T09:48:34Z</time>
      </trkpt>
      <trkpt lat="48.68145" lon="1.73499">
        <ele>174</ele>
        <time>2010-05-14T09:48:35Z</time>
      </trkpt>
      <trkpt lat="48.68139" lon="1.73498">
        <ele>174</ele>
        <time>2010-05-14T09:48:36Z</time>
      </trkpt>
      <trkpt lat="48.68132" lon="1.73498">
        <ele>174</ele>
        <time>2010-05-14T09:48:37Z</time>
      </trkpt>
      <trkpt lat="48.68126" lon="1.73499">
        <ele>174</ele>
        <time>2010-05-14T09:48:38Z</time>
      </trkpt>
      <trkpt lat="48.68118" lon="1.73497">
        <ele>174</ele>
        <time>2010-05-14T09:48:39Z</time>
      </trkpt>
      <trkpt lat="48.68111" lon="1.73496">
        <ele>174</ele>
        <time>2010-05-14T09:48:40Z</time>
      </trkpt>
      <trkpt lat="48.68104" lon="1.73494">
        <ele>174</ele>
        <time>2010-05-14T09:48:41Z</time>
      </trkpt>
      <trkpt lat="48.68097" lon="1.73492">
        <ele>174</ele>
        <time>2010-05-14T09:48:42Z</time>
      </trkpt>
      <trkpt lat="48.6809" lon="1.73491">
        <ele>174</ele>
        <time>2010-05-14T09:48:43Z</time>
      </trkpt>
      <trkpt lat="48.68082" lon="1.73489">
        <ele>174</ele>
        <time>2010-05-14T09:48:44Z</time>
      </trkpt>
      <trkpt lat="48.68075" lon="1.73489">
        <ele>174</ele>
        <time>2010-05-14T09:48:45Z</time>
      </trkpt>
      <trkpt lat="48.68069" lon="1.73489">
        <ele>174</ele>
        <time>2010-05-14T09:48:46Z</time>
      </trkpt>
      <trkpt lat="48.68063" lon="1.73488">
        <ele>174</ele>
        <time>2010-05-14T09:48:47Z</time>
      </trkpt>
      <trkpt lat="48.68057" lon="1.73487">
        <ele>175</ele>
        <time>2010-05-14T09:48:48Z</time>
      </trkpt>
      <trkpt lat="48.6805" lon="1.73487">
        <ele>175</ele>
        <time>2010-05-14T09:48:49Z</time>
      </trkpt>
      <trkpt lat="48.68043" lon="1.73488">
        <ele>175</ele>
        <time>2010-05-14T09:48:50Z</time>
      </trkpt>
      <trkpt lat="48.68036" lon="1.73488">
        <ele>175</ele>
        <time>2010-05-14T09:48:51Z</time>
      </trkpt>
      <trkpt lat="48.6803" lon="1.73488">
        <ele>175</ele>
        <time>2010-05-14T09:48:52Z</time>
      </trkpt>
      <trkpt lat="48.68023" lon="1.73489">
        <ele>175</ele>
        <time>2010-05-14T09:48:53Z</time>
      </trkpt>
      <trkpt lat="48.68015" lon="1.73489">
        <ele>175</ele>
        <time>2010-05-14T09:48:54Z</time>
      </trkpt>
      <trkpt lat="48.68008" lon="1.7349">
        <ele>175</ele>
        <time>2010-05-14T09:48:55Z</time>
      </trkpt>
      <trkpt lat="48.68001" lon="1.73489">
        <ele>176</ele>
        <time>2010-05-14T09:48:56Z</time>
      </trkpt>
      <trkpt lat="48.67993" lon="1.73488">
        <ele>177</ele>
        <time>2010-05-14T09:48:57Z</time>
      </trkpt>
      <trkpt lat="48.67986" lon="1.73487">
        <ele>177</ele>
        <time>2010-05-14T09:48:58Z</time>
      </trkpt>
      <trkpt lat="48.67979" lon="1.73487">
        <ele>178</ele>
        <time>2010-05-14T09:48:59Z</time>
      </trkpt>
      <trkpt lat="48.67972" lon="1.73486">
        <ele>178</ele>
        <time>2010-05-14T09:49:00Z</time>
      </trkpt>
      <trkpt lat="48.67965" lon="1.73485">
        <ele>178</ele>
        <time>2010-05-14T09:49:01Z</time>
      </trkpt>
      <trkpt lat="48.67957" lon="1.73484">
        <ele>178</ele>
        <time>2010-05-14T09:49:02Z</time>
      </trkpt>
      <trkpt lat="48.67949" lon="1.73483">
        <ele>178</ele>
        <time>2010-05-14T09:49:03Z</time>
      </trkpt>
      <trkpt lat="48.6794" lon="1.73483">
        <ele>178</ele>
        <time>2010-05-14T09:49:04Z</time>
      </trkpt>
      <trkpt lat="48.67932" lon="1.73483">
        <ele>178</ele>
        <time>2010-05-14T09:49:05Z</time>
      </trkpt>
      <trkpt lat="48.67924" lon="1.73482">
        <ele>178</ele>
        <time>2010-05-14T09:49:06Z</time>
      </trkpt>
      <trkpt lat="48.67916" lon="1.73481">
        <ele>177</ele>
        <time>2010-05-14T09:49:07Z</time>
      </trkpt>
      <trkpt lat="48.67909" lon="1.7348">
        <ele>176</ele>
        <time>2010-05-14T09:49:08Z</time>
      </trkpt>
      <trkpt lat="48.67902" lon="1.7348">
        <ele>176</ele>
        <time>2010-05-14T09:49:09Z</time>
      </trkpt>
      <trkpt lat="48.67894" lon="1.73479">
        <ele>175</ele>
        <time>2010-05-14T09:49:10Z</time>
      </trkpt>
      <trkpt lat="48.67888" lon="1.73478">
        <ele>175</ele>
        <time>2010-05-14T09:49:11Z</time>
      </trkpt>
      <trkpt lat="48.67881" lon="1.73478">
        <ele>174</ele>
        <time>2010-05-14T09:49:12Z</time>
      </trkpt>
      <trkpt lat="48.67875" lon="1.73475">
        <ele>174</ele>
        <time>2010-05-14T09:49:13Z</time>
      </trkpt>
      <trkpt lat="48.67869" lon="1.73472">
        <ele>173</ele>
        <time>2010-05-14T09:49:14Z</time>
      </trkpt>
      <trkpt lat="48.67863" lon="1.73471">
        <ele>173</ele>
        <time>2010-05-14T09:49:15Z</time>
      </trkpt>
      <trkpt lat="48.67858" lon="1.7347">
        <ele>173</ele>
        <time>2010-05-14T09:49:16Z</time>
      </trkpt>
      <trkpt lat="48.67854" lon="1.73469">
        <ele>172</ele>
        <time>2010-05-14T09:49:17Z</time>
      </trkpt>
      <trkpt lat="48.6785" lon="1.73467">
        <ele>172</ele>
        <time>2010-05-14T09:49:18Z</time>
      </trkpt>
      <trkpt lat="48.67846" lon="1.73464">
        <ele>172</ele>
        <time>2010-05-14T09:49:19Z</time>
      </trkpt>
      <trkpt lat="48.67844" lon="1.73462">
        <ele>171</ele>
        <time>2010-05-14T09:49:20Z</time>
      </trkpt>
      <trkpt lat="48.67846" lon="1.73461">
        <ele>169</ele>
        <time>2010-05-14T09:49:22Z</time>
      </trkpt>
      <trkpt lat="48.67848" lon="1.73462">
        <ele>168</ele>
        <time>2010-05-14T09:49:23Z</time>
      </trkpt>
      <trkpt lat="48.67849" lon="1.73462">
        <ele>167</ele>
        <time>2010-05-14T09:49:24Z</time>
      </trkpt>
      <trkpt lat="48.67847" lon="1.73459">
        <ele>164</ele>
        <time>2010-05-14T09:49:27Z</time>
      </trkpt>
      <trkpt lat="48.67846" lon="1.73457">
        <ele>164</ele>
        <time>2010-05-14T09:49:28Z</time>
      </trkpt>
      <trkpt lat="48.67848" lon="1.73458">
        <ele>164</ele>
        <time>2010-05-14T09:49:31Z</time>
      </trkpt>
      <trkpt lat="48.67849" lon="1.73459">
        <ele>164</ele>
        <time>2010-05-14T09:49:32Z</time>
      </trkpt>
      <trkpt lat="48.6785" lon="1.7346">
        <ele>164</ele>
        <time>2010-05-14T09:49:33Z</time>
      </trkpt>
      <trkpt lat="48.67852" lon="1.73461">
        <ele>164</ele>
        <time>2010-05-14T09:49:34Z</time>
      </trkpt>
      <trkpt lat="48.67854" lon="1.73462">
        <ele>164</ele>
        <time>2010-05-14T09:49:35Z</time>
      </trkpt>
      <trkpt lat="48.67855" lon="1.73461">
        <ele>164</ele>
        <time>2010-05-14T09:49:36Z</time>
      </trkpt>
      <trkpt lat="48.67855" lon="1.73458">
        <ele>164</ele>
        <time>2010-05-14T09:49:37Z</time>
      </trkpt>
      <trkpt lat="48.67855" lon="1.73456">
        <ele>164</ele>
        <time>2010-05-14T09:49:38Z</time>
      </trkpt>
      <trkpt lat="48.67854" lon="1.73453">
        <ele>164</ele>
        <time>2010-05-14T09:49:39Z</time>
      </trkpt>
      <trkpt lat="48.67852" lon="1.73451">
        <ele>164</ele>
        <time>2010-05-14T09:49:40Z</time>
      </trkpt>
      <trkpt lat="48.6785" lon="1.73449">
        <ele>164</ele>
        <time>2010-05-14T09:49:41Z</time>
      </trkpt>
      <trkpt lat="48.67848" lon="1.73446">
        <ele>163</ele>
        <time>2010-05-14T09:49:42Z</time>
      </trkpt>
      <trkpt lat="48.67845" lon="1.73443">
        <ele>162</ele>
        <time>2010-05-14T09:49:43Z</time>
      </trkpt>
      <trkpt lat="48.67842" lon="1.7344">
        <ele>161</ele>
        <time>2010-05-14T09:49:44Z</time>
      </trkpt>
      <trkpt lat="48.67838" lon="1.73438">
        <ele>161</ele>
        <time>2010-05-14T09:49:45Z</time>
      </trkpt>
      <trkpt lat="48.67834" lon="1.73435">
        <ele>160</ele>
        <time>2010-05-14T09:49:46Z</time>
      </trkpt>
      <trkpt lat="48.67831" lon="1.73433">
        <ele>160</ele>
        <time>2010-05-14T09:49:47Z</time>
      </trkpt>
      <trkpt lat="48.67826" lon="1.73428">
        <ele>159</ele>
        <time>2010-05-14T09:49:48Z</time>
      </trkpt>
      <trkpt lat="48.67822" lon="1.73424">
        <ele>158</ele>
        <time>2010-05-14T09:49:49Z</time>
      </trkpt>
      <trkpt lat="48.67819" lon="1.73421">
        <ele>157</ele>
        <time>2010-05-14T09:49:50Z</time>
      </trkpt>
      <trkpt lat="48.67817" lon="1.73418">
        <ele>156</ele>
        <time>2010-05-14T09:49:51Z</time>
      </trkpt>
      <trkpt lat="48.67814" lon="1.73415">
        <ele>155</ele>
        <time>2010-05-14T09:49:52Z</time>
      </trkpt>
      <trkpt lat="48.6781" lon="1.73412">
        <ele>154</ele>
        <time>2010-05-14T09:49:53Z</time>
      </trkpt>
      <trkpt lat="48.67807" lon="1.73408">
        <ele>154</ele>
        <time>2010-05-14T09:49:54Z</time>
      </trkpt>
      <trkpt lat="48.67804" lon="1.73405">
        <ele>154</ele>
        <time>2010-05-14T09:49:55Z</time>
      </trkpt>
      <trkpt lat="48.67803" lon="1.73405">
        <ele>154</ele>
        <time>2010-05-14T09:49:56Z</time>
      </trkpt>
      <trkpt lat="48.67801" lon="1.73404">
        <ele>154</ele>
        <time>2010-05-14T09:49:58Z</time>
      </trkpt>
      <trkpt lat="48.678" lon="1.73404">
        <ele>155</ele>
        <time>2010-05-14T09:50:00Z</time>
      </trkpt>
      <trkpt lat="48.67798" lon="1.73402">
        <ele>157</ele>
        <time>2010-05-14T09:50:02Z</time>
      </trkpt>
      <trkpt lat="48.67796" lon="1.734">
        <ele>159</ele>
        <time>2010-05-14T09:50:04Z</time>
      </trkpt>
      <trkpt lat="48.67794" lon="1.73397">
        <ele>161</ele>
        <time>2010-05-14T09:50:06Z</time>
      </trkpt>
      <trkpt lat="48.67793" lon="1.73395">
        <ele>162</ele>
        <time>2010-05-14T09:50:07Z</time>
      </trkpt>
      <trkpt lat="48.67792" lon="1.73393">
        <ele>163</ele>
        <time>2010-05-14T09:50:14Z</time>
      </trkpt>
      <trkpt lat="48.67791" lon="1.73391">
        <ele>163</ele>
        <time>2010-05-14T09:50:18Z</time>
      </trkpt>
      <trkpt lat="48.6779" lon="1.73389">
        <ele>164</ele>
        <time>2010-05-14T09:50:20Z</time>
      </trkpt>
      <trkpt lat="48.67789" lon="1.73389">
        <ele>164</ele>
        <time>2010-05-14T09:50:27Z</time>
      </trkpt>
      <trkpt lat="48.67788" lon="1.73389">
        <ele>164</ele>
        <time>2010-05-14T09:50:30Z</time>
      </trkpt>
      <trkpt lat="48.67786" lon="1.73389">
        <ele>164</ele>
        <time>2010-05-14T09:50:32Z</time>
      </trkpt>
      <trkpt lat="48.67785" lon="1.73388">
        <ele>165</ele>
        <time>2010-05-14T09:50:33Z</time>
      </trkpt>
      <trkpt lat="48.67783" lon="1.73389">
        <ele>167</ele>
        <time>2010-05-14T09:50:35Z</time>
      </trkpt>
      <trkpt lat="48.67782" lon="1.73388">
        <ele>169</ele>
        <time>2010-05-14T09:50:37Z</time>
      </trkpt>
      <trkpt lat="48.6778" lon="1.73387">
        <ele>171</ele>
        <time>2010-05-14T09:50:39Z</time>
      </trkpt>
      <trkpt lat="48.67778" lon="1.73386">
        <ele>171</ele>
        <time>2010-05-14T09:50:41Z</time>
      </trkpt>
      <trkpt lat="48.67776" lon="1.73386">
        <ele>171</ele>
        <time>2010-05-14T09:50:43Z</time>
      </trkpt>
      <trkpt lat="48.67775" lon="1.73385">
        <ele>171</ele>
        <time>2010-05-14T09:50:44Z</time>
      </trkpt>
      <trkpt lat="48.67774" lon="1.73384">
        <ele>171</ele>
        <time>2010-05-14T09:50:45Z</time>
      </trkpt>
      <trkpt lat="48.67772" lon="1.73381">
        <ele>171</ele>
        <time>2010-05-14T09:50:47Z</time>
      </trkpt>
      <trkpt lat="48.6777" lon="1.7338">
        <ele>171</ele>
        <time>2010-05-14T09:50:48Z</time>
      </trkpt>
      <trkpt lat="48.67768" lon="1.73379">
        <ele>171</ele>
        <time>2010-05-14T09:50:49Z</time>
      </trkpt>
      <trkpt lat="48.67767" lon="1.73378">
        <ele>171</ele>
        <time>2010-05-14T09:50:50Z</time>
      </trkpt>
      <trkpt lat="48.67765" lon="1.73375">
        <ele>171</ele>
        <time>2010-05-14T09:50:52Z</time>
      </trkpt>
      <trkpt lat="48.67763" lon="1.73374">
        <ele>171</ele>
        <time>2010-05-14T09:50:53Z</time>
      </trkpt>
      <trkpt lat="48.67761" lon="1.73372">
        <ele>171</ele>
        <time>2010-05-14T09:50:54Z</time>
      </trkpt>
      <trkpt lat="48.67759" lon="1.73371">
        <ele>171</ele>
        <time>2010-05-14T09:50:56Z</time>
      </trkpt>
      <trkpt lat="48.67758" lon="1.73371">
        <ele>171</ele>
        <time>2010-05-14T09:50:57Z</time>
      </trkpt>
      <trkpt lat="48.67756" lon="1.73369">
        <ele>171</ele>
        <time>2010-05-14T09:50:59Z</time>
      </trkpt>
      <trkpt lat="48.67755" lon="1.73368">
        <ele>171</ele>
        <time>2010-05-14T09:51:01Z</time>
      </trkpt>
      <trkpt lat="48.67753" lon="1.73367">
        <ele>171</ele>
        <time>2010-05-14T09:51:02Z</time>
      </trkpt>
      <trkpt lat="48.67751" lon="1.73366">
        <ele>171</ele>
        <time>2010-05-14T09:51:03Z</time>
      </trkpt>
      <trkpt lat="48.67749" lon="1.73364">
        <ele>171</ele>
        <time>2010-05-14T09:51:04Z</time>
      </trkpt>
      <trkpt lat="48.67748" lon="1.73363">
        <ele>171</ele>
        <time>2010-05-14T09:51:05Z</time>
      </trkpt>
      <trkpt lat="48.67746" lon="1.73362">
        <ele>171</ele>
        <time>2010-05-14T09:51:06Z</time>
      </trkpt>
      <trkpt lat="48.67745" lon="1.73361">
        <ele>171</ele>
        <time>2010-05-14T09:51:07Z</time>
      </trkpt>
      <trkpt lat="48.67744" lon="1.73359">
        <ele>171</ele>
        <time>2010-05-14T09:51:08Z</time>
      </trkpt>
      <trkpt lat="48.67742" lon="1.73357">
        <ele>171</ele>
        <time>2010-05-14T09:51:10Z</time>
      </trkpt>
      <trkpt lat="48.6774" lon="1.73355">
        <ele>171</ele>
        <time>2010-05-14T09:51:12Z</time>
      </trkpt>
      <trkpt lat="48.67738" lon="1.73353">
        <ele>171</ele>
        <time>2010-05-14T09:51:13Z</time>
      </trkpt>
      <trkpt lat="48.67737" lon="1.73351">
        <ele>171</ele>
        <time>2010-05-14T09:51:14Z</time>
      </trkpt>
      <trkpt lat="48.67736" lon="1.73349">
        <ele>171</ele>
        <time>2010-05-14T09:51:15Z</time>
      </trkpt>
      <trkpt lat="48.67735" lon="1.73348">
        <ele>171</ele>
        <time>2010-05-14T09:51:16Z</time>
      </trkpt>
      <trkpt lat="48.67733" lon="1.73345">
        <ele>171</ele>
        <time>2010-05-14T09:51:18Z</time>
      </trkpt>
      <trkpt lat="48.67731" lon="1.73344">
        <ele>170</ele>
        <time>2010-05-14T09:51:20Z</time>
      </trkpt>
      <trkpt lat="48.67729" lon="1.73343">
        <ele>168</ele>
        <time>2010-05-14T09:51:22Z</time>
      </trkpt>
      <trkpt lat="48.67728" lon="1.73342">
        <ele>168</ele>
        <time>2010-05-14T09:51:24Z</time>
      </trkpt>
      <trkpt lat="48.67727" lon="1.7334">
        <ele>168</ele>
        <time>2010-05-14T09:51:26Z</time>
      </trkpt>
      <trkpt lat="48.67726" lon="1.73338">
        <ele>168</ele>
        <time>2010-05-14T09:51:28Z</time>
      </trkpt>
      <trkpt lat="48.67727" lon="1.73335">
        <ele>168</ele>
        <time>2010-05-14T09:51:30Z</time>
      </trkpt>
      <trkpt lat="48.67727" lon="1.73333">
        <ele>168</ele>
        <time>2010-05-14T09:51:31Z</time>
      </trkpt>
      <trkpt lat="48.67726" lon="1.73332">
        <ele>168</ele>
        <time>2010-05-14T09:51:32Z</time>
      </trkpt>
      <trkpt lat="48.67725" lon="1.73329">
        <ele>168</ele>
        <time>2010-05-14T09:51:36Z</time>
      </trkpt>
      <trkpt lat="48.67726" lon="1.73331">
        <ele>168</ele>
        <time>2010-05-14T09:51:43Z</time>
      </trkpt>
      <trkpt lat="48.67726" lon="1.73333">
        <ele>168</ele>
        <time>2010-05-14T09:51:47Z</time>
      </trkpt>
      <trkpt lat="48.67726" lon="1.73335">
        <ele>168</ele>
        <time>2010-05-14T09:51:49Z</time>
      </trkpt>
      <trkpt lat="48.67726" lon="1.73332">
        <ele>171</ele>
        <time>2010-05-14T09:51:55Z</time>
      </trkpt>
      <trkpt lat="48.67726" lon="1.7333">
        <ele>172</ele>
        <time>2010-05-14T09:51:56Z</time>
      </trkpt>
      <trkpt lat="48.67726" lon="1.73326">
        <ele>172</ele>
        <time>2010-05-14T09:51:57Z</time>
      </trkpt>
      <trkpt lat="48.67726" lon="1.73323">
        <ele>173</ele>
        <time>2010-05-14T09:51:58Z</time>
      </trkpt>
      <trkpt lat="48.67726" lon="1.73321">
        <ele>173</ele>
        <time>2010-05-14T09:51:59Z</time>
      </trkpt>
      <trkpt lat="48.67726" lon="1.73319">
        <ele>173</ele>
        <time>2010-05-14T09:52:00Z</time>
      </trkpt>
      <trkpt lat="48.67726" lon="1.73317">
        <ele>173</ele>
        <time>2010-05-14T09:52:01Z</time>
      </trkpt>
      <trkpt lat="48.67726" lon="1.73314">
        <ele>173</ele>
        <time>2010-05-14T09:52:02Z</time>
      </trkpt>
      <trkpt lat="48.67726" lon="1.73312">
        <ele>173</ele>
        <time>2010-05-14T09:52:03Z</time>
      </trkpt>
      <trkpt lat="48.67725" lon="1.7331">
        <ele>173</ele>
        <time>2010-05-14T09:52:04Z</time>
      </trkpt>
      <trkpt lat="48.67725" lon="1.73308">
        <ele>173</ele>
        <time>2010-05-14T09:52:05Z</time>
      </trkpt>
      <trkpt lat="48.67725" lon="1.73306">
        <ele>173</ele>
        <time>2010-05-14T09:52:06Z</time>
      </trkpt>
      <trkpt lat="48.67724" lon="1.73303">
        <ele>173</ele>
        <time>2010-05-14T09:52:07Z</time>
      </trkpt>
      <trkpt lat="48.67724" lon="1.733">
        <ele>173</ele>
        <time>2010-05-14T09:52:08Z</time>
      </trkpt>
      <trkpt lat="48.67723" lon="1.73297">
        <ele>173</ele>
        <time>2010-05-14T09:52:09Z</time>
      </trkpt>
      <trkpt lat="48.67723" lon="1.73295">
        <ele>173</ele>
        <time>2010-05-14T09:52:10Z</time>
      </trkpt>
      <trkpt lat="48.67723" lon="1.73293">
        <ele>173</ele>
        <time>2010-05-14T09:52:11Z</time>
      </trkpt>
      <trkpt lat="48.67723" lon="1.7329">
        <ele>173</ele>
        <time>2010-05-14T09:52:12Z</time>
      </trkpt>
      <trkpt lat="48.67722" lon="1.73287">
        <ele>173</ele>
        <time>2010-05-14T09:52:13Z</time>
      </trkpt>
      <trkpt lat="48.67722" lon="1.73285">
        <ele>173</ele>
        <time>2010-05-14T09:52:14Z</time>
      </trkpt>
      <trkpt lat="48.67722" lon="1.73282">
        <ele>173</ele>
        <time>2010-05-14T09:52:15Z</time>
      </trkpt>
      <trkpt lat="48.67721" lon="1.73277">
        <ele>173</ele>
        <time>2010-05-14T09:52:17Z</time>
      </trkpt>
      <trkpt lat="48.6772" lon="1.73275">
        <ele>173</ele>
        <time>2010-05-14T09:52:18Z</time>
      </trkpt>
      <trkpt lat="48.6772" lon="1.73272">
        <ele>173</ele>
        <time>2010-05-14T09:52:19Z</time>
      </trkpt>
      <trkpt lat="48.67719" lon="1.73269">
        <ele>173</ele>
        <time>2010-05-14T09:52:20Z</time>
      </trkpt>
      <trkpt lat="48.67718" lon="1.73265">
        <ele>173</ele>
        <time>2010-05-14T09:52:21Z</time>
      </trkpt>
      <trkpt lat="48.67718" lon="1.73262">
        <ele>173</ele>
        <time>2010-05-14T09:52:22Z</time>
      </trkpt>
      <trkpt lat="48.67717" lon="1.7326">
        <ele>173</ele>
        <time>2010-05-14T09:52:23Z</time>
      </trkpt>
      <trkpt lat="48.67717" lon="1.73257">
        <ele>173</ele>
        <time>2010-05-14T09:52:24Z</time>
      </trkpt>
      <trkpt lat="48.67715" lon="1.73253">
        <ele>173</ele>
        <time>2010-05-14T09:52:25Z</time>
      </trkpt>
      <trkpt lat="48.67714" lon="1.7325">
        <ele>173</ele>
        <time>2010-05-14T09:52:26Z</time>
      </trkpt>
      <trkpt lat="48.67713" lon="1.73247">
        <ele>173</ele>
        <time>2010-05-14T09:52:27Z</time>
      </trkpt>
      <trkpt lat="48.67713" lon="1.73245">
        <ele>173</ele>
        <time>2010-05-14T09:52:28Z</time>
      </trkpt>
      <trkpt lat="48.67712" lon="1.73242">
        <ele>173</ele>
        <time>2010-05-14T09:52:29Z</time>
      </trkpt>
      <trkpt lat="48.67712" lon="1.7324">
        <ele>173</ele>
        <time>2010-05-14T09:52:30Z</time>
      </trkpt>
      <trkpt lat="48.67712" lon="1.73237">
        <ele>173</ele>
        <time>2010-05-14T09:52:31Z</time>
      </trkpt>
      <trkpt lat="48.67711" lon="1.73235">
        <ele>173</ele>
        <time>2010-05-14T09:52:32Z</time>
      </trkpt>
      <trkpt lat="48.67711" lon="1.73232">
        <ele>173</ele>
        <time>2010-05-14T09:52:33Z</time>
      </trkpt>
      <trkpt lat="48.6771" lon="1.73229">
        <ele>173</ele>
        <time>2010-05-14T09:52:34Z</time>
      </trkpt>
      <trkpt lat="48.6771" lon="1.73227">
        <ele>173</ele>
        <time>2010-05-14T09:52:35Z</time>
      </trkpt>
      <trkpt lat="48.6771" lon="1.73224">
        <ele>173</ele>
        <time>2010-05-14T09:52:36Z</time>
      </trkpt>
      <trkpt lat="48.67709" lon="1.73221">
        <ele>173</ele>
        <time>2010-05-14T09:52:37Z</time>
      </trkpt>
      <trkpt lat="48.67708" lon="1.73218">
        <ele>173</ele>
        <time>2010-05-14T09:52:39Z</time>
      </trkpt>
      <trkpt lat="48.67707" lon="1.73216">
        <ele>173</ele>
        <time>2010-05-14T09:52:40Z</time>
      </trkpt>
      <trkpt lat="48.67706" lon="1.73214">
        <ele>173</ele>
        <time>2010-05-14T09:52:41Z</time>
      </trkpt>
      <trkpt lat="48.67706" lon="1.73212">
        <ele>173</ele>
        <time>2010-05-14T09:52:42Z</time>
      </trkpt>
      <trkpt lat="48.67705" lon="1.7321">
        <ele>173</ele>
        <time>2010-05-14T09:52:44Z</time>
      </trkpt>
      <trkpt lat="48.67705" lon="1.73208">
        <ele>173</ele>
        <time>2010-05-14T09:52:45Z</time>
      </trkpt>
      <trkpt lat="48.67705" lon="1.73206">
        <ele>173</ele>
        <time>2010-05-14T09:52:46Z</time>
      </trkpt>
      <trkpt lat="48.67705" lon="1.73204">
        <ele>173</ele>
        <time>2010-05-14T09:52:47Z</time>
      </trkpt>
      <trkpt lat="48.67705" lon="1.73201">
        <ele>173</ele>
        <time>2010-05-14T09:52:48Z</time>
      </trkpt>
      <trkpt lat="48.67705" lon="1.73199">
        <ele>173</ele>
        <time>2010-05-14T09:52:49Z</time>
      </trkpt>
      <trkpt lat="48.67705" lon="1.73197">
        <ele>173</ele>
        <time>2010-05-14T09:52:50Z</time>
      </trkpt>
      <trkpt lat="48.67704" lon="1.73194">
        <ele>173</ele>
        <time>2010-05-14T09:52:51Z</time>
      </trkpt>
      <trkpt lat="48.67704" lon="1.73192">
        <ele>173</ele>
        <time>2010-05-14T09:52:52Z</time>
      </trkpt>
      <trkpt lat="48.67703" lon="1.7319">
        <ele>173</ele>
        <time>2010-05-14T09:52:53Z</time>
      </trkpt>
      <trkpt lat="48.67703" lon="1.73188">
        <ele>173</ele>
        <time>2010-05-14T09:52:54Z</time>
      </trkpt>
      <trkpt lat="48.67703" lon="1.73186">
        <ele>173</ele>
        <time>2010-05-14T09:52:55Z</time>
      </trkpt>
      <trkpt lat="48.67702" lon="1.73183">
        <ele>173</ele>
        <time>2010-05-14T09:52:56Z</time>
      </trkpt>
      <trkpt lat="48.67702" lon="1.7318">
        <ele>173</ele>
        <time>2010-05-14T09:52:57Z</time>
      </trkpt>
      <trkpt lat="48.67701" lon="1.73177">
        <ele>173</ele>
        <time>2010-05-14T09:52:58Z</time>
      </trkpt>
      <trkpt lat="48.677" lon="1.73175">
        <ele>173</ele>
        <time>2010-05-14T09:52:59Z</time>
      </trkpt>
      <trkpt lat="48.677" lon="1.73173">
        <ele>173</ele>
        <time>2010-05-14T09:53:00Z</time>
      </trkpt>
      <trkpt lat="48.67699" lon="1.7317">
        <ele>173</ele>
        <time>2010-05-14T09:53:01Z</time>
      </trkpt>
      <trkpt lat="48.67698" lon="1.73167">
        <ele>173</ele>
        <time>2010-05-14T09:53:02Z</time>
      </trkpt>
      <trkpt lat="48.67697" lon="1.73165">
        <ele>173</ele>
        <time>2010-05-14T09:53:03Z</time>
      </trkpt>
      <trkpt lat="48.67697" lon="1.73163">
        <ele>173</ele>
        <time>2010-05-14T09:53:04Z</time>
      </trkpt>
      <trkpt lat="48.67697" lon="1.73161">
        <ele>173</ele>
        <time>2010-05-14T09:53:05Z</time>
      </trkpt>
      <trkpt lat="48.67697" lon="1.73159">
        <ele>173</ele>
        <time>2010-05-14T09:53:06Z</time>
      </trkpt>
      <trkpt lat="48.67696" lon="1.73157">
        <ele>173</ele>
        <time>2010-05-14T09:53:07Z</time>
      </trkpt>
      <trkpt lat="48.67696" lon="1.73155">
        <ele>173</ele>
        <time>2010-05-14T09:53:08Z</time>
      </trkpt>
      <trkpt lat="48.67696" lon="1.73153">
        <ele>173</ele>
        <time>2010-05-14T09:53:09Z</time>
      </trkpt>
      <trkpt lat="48.67696" lon="1.73151">
        <ele>173</ele>
        <time>2010-05-14T09:53:10Z</time>
      </trkpt>
      <trkpt lat="48.67696" lon="1.73149">
        <ele>173</ele>
        <time>2010-05-14T09:53:11Z</time>
      </trkpt>
      <trkpt lat="48.67696" lon="1.73147">
        <ele>173</ele>
        <time>2010-05-14T09:53:12Z</time>
      </trkpt>
      <trkpt lat="48.67696" lon="1.73145">
        <ele>173</ele>
        <time>2010-05-14T09:53:13Z</time>
      </trkpt>
      <trkpt lat="48.67696" lon="1.73143">
        <ele>173</ele>
        <time>2010-05-14T09:53:14Z</time>
      </trkpt>
      <trkpt lat="48.67696" lon="1.7314">
        <ele>173</ele>
        <time>2010-05-14T09:53:15Z</time>
      </trkpt>
      <trkpt lat="48.67695" lon="1.73137">
        <ele>173</ele>
        <time>2010-05-14T09:53:16Z</time>
      </trkpt>
      <trkpt lat="48.67695" lon="1.73135">
        <ele>173</ele>
        <time>2010-05-14T09:53:17Z</time>
      </trkpt>
      <trkpt lat="48.67695" lon="1.73132">
        <ele>173</ele>
        <time>2010-05-14T09:53:18Z</time>
      </trkpt>
      <trkpt lat="48.67694" lon="1.73129">
        <ele>173</ele>
        <time>2010-05-14T09:53:19Z</time>
      </trkpt>
      <trkpt lat="48.67694" lon="1.73127">
        <ele>173</ele>
        <time>2010-05-14T09:53:20Z</time>
      </trkpt>
      <trkpt lat="48.67694" lon="1.73123">
        <ele>173</ele>
        <time>2010-05-14T09:53:22Z</time>
      </trkpt>
      <trkpt lat="48.67694" lon="1.73121">
        <ele>173</ele>
        <time>2010-05-14T09:53:23Z</time>
      </trkpt>
      <trkpt lat="48.67694" lon="1.73119">
        <ele>173</ele>
        <time>2010-05-14T09:53:24Z</time>
      </trkpt>
      <trkpt lat="48.67693" lon="1.73116">
        <ele>173</ele>
        <time>2010-05-14T09:53:25Z</time>
      </trkpt>
      <trkpt lat="48.67692" lon="1.73112">
        <ele>172</ele>
        <time>2010-05-14T09:53:26Z</time>
      </trkpt>
      <trkpt lat="48.67692" lon="1.73109">
        <ele>172</ele>
        <time>2010-05-14T09:53:27Z</time>
      </trkpt>
      <trkpt lat="48.67691" lon="1.73105">
        <ele>172</ele>
        <time>2010-05-14T09:53:28Z</time>
      </trkpt>
      <trkpt lat="48.67691" lon="1.73103">
        <ele>171</ele>
        <time>2010-05-14T09:53:30Z</time>
      </trkpt>
      <trkpt lat="48.67691" lon="1.73101">
        <ele>171</ele>
        <time>2010-05-14T09:53:30Z</time>
      </trkpt>
      <trkpt lat="48.67691" lon="1.73098">
        <ele>171</ele>
        <time>2010-05-14T09:53:31Z</time>
      </trkpt>
      <trkpt lat="48.6769" lon="1.73096">
        <ele>171</ele>
        <time>2010-05-14T09:53:32Z</time>
      </trkpt>
      <trkpt lat="48.6769" lon="1.73094">
        <ele>171</ele>
        <time>2010-05-14T09:53:33Z</time>
      </trkpt>
      <trkpt lat="48.6769" lon="1.73091">
        <ele>171</ele>
        <time>2010-05-14T09:53:34Z</time>
      </trkpt>
      <trkpt lat="48.6769" lon="1.73088">
        <ele>171</ele>
        <time>2010-05-14T09:53:35Z</time>
      </trkpt>
      <trkpt lat="48.6769" lon="1.73086">
        <ele>171</ele>
        <time>2010-05-14T09:53:36Z</time>
      </trkpt>
      <trkpt lat="48.6769" lon="1.73084">
        <ele>171</ele>
        <time>2010-05-14T09:53:37Z</time>
      </trkpt>
      <trkpt lat="48.6769" lon="1.73082">
        <ele>171</ele>
        <time>2010-05-14T09:53:38Z</time>
      </trkpt>
      <trkpt lat="48.6769" lon="1.73079">
        <ele>171</ele>
        <time>2010-05-14T09:53:39Z</time>
      </trkpt>
      <trkpt lat="48.6769" lon="1.73077">
        <ele>171</ele>
        <time>2010-05-14T09:53:40Z</time>
      </trkpt>
      <trkpt lat="48.6769" lon="1.73075">
        <ele>171</ele>
        <time>2010-05-14T09:53:41Z</time>
      </trkpt>
      <trkpt lat="48.6769" lon="1.73072">
        <ele>171</ele>
        <time>2010-05-14T09:53:42Z</time>
      </trkpt>
      <trkpt lat="48.67689" lon="1.7307">
        <ele>171</ele>
        <time>2010-05-14T09:53:43Z</time>
      </trkpt>
      <trkpt lat="48.67689" lon="1.73068">
        <ele>170</ele>
        <time>2010-05-14T09:53:44Z</time>
      </trkpt>
      <trkpt lat="48.67688" lon="1.73066">
        <ele>170</ele>
        <time>2010-05-14T09:53:45Z</time>
      </trkpt>
      <trkpt lat="48.67688" lon="1.73063">
        <ele>170</ele>
        <time>2010-05-14T09:53:46Z</time>
      </trkpt>
      <trkpt lat="48.67687" lon="1.73061">
        <ele>170</ele>
        <time>2010-05-14T09:53:47Z</time>
      </trkpt>
      <trkpt lat="48.67686" lon="1.73057">
        <ele>170</ele>
        <time>2010-05-14T09:53:48Z</time>
      </trkpt>
      <trkpt lat="48.67686" lon="1.73054">
        <ele>170</ele>
        <time>2010-05-14T09:53:49Z</time>
      </trkpt>
      <trkpt lat="48.67685" lon="1.73052">
        <ele>170</ele>
        <time>2010-05-14T09:53:50Z</time>
      </trkpt>
      <trkpt lat="48.67685" lon="1.73049">
        <ele>170</ele>
        <time>2010-05-14T09:53:51Z</time>
      </trkpt>
      <trkpt lat="48.67685" lon="1.73047">
        <ele>170</ele>
        <time>2010-05-14T09:53:52Z</time>
      </trkpt>
      <trkpt lat="48.67684" lon="1.73044">
        <ele>170</ele>
        <time>2010-05-14T09:53:53Z</time>
      </trkpt>
      <trkpt lat="48.67684" lon="1.73042">
        <ele>170</ele>
        <time>2010-05-14T09:53:54Z</time>
      </trkpt>
      <trkpt lat="48.67683" lon="1.73038">
        <ele>170</ele>
        <time>2010-05-14T09:53:55Z</time>
      </trkpt>
      <trkpt lat="48.67682" lon="1.73036">
        <ele>170</ele>
        <time>2010-05-14T09:53:56Z</time>
      </trkpt>
      <trkpt lat="48.67681" lon="1.73033">
        <ele>170</ele>
        <time>2010-05-14T09:53:57Z</time>
      </trkpt>
      <trkpt lat="48.67681" lon="1.73031">
        <ele>170</ele>
        <time>2010-05-14T09:53:58Z</time>
      </trkpt>
      <trkpt lat="48.6768" lon="1.73029">
        <ele>170</ele>
        <time>2010-05-14T09:53:59Z</time>
      </trkpt>
      <trkpt lat="48.6768" lon="1.73027">
        <ele>170</ele>
        <time>2010-05-14T09:54:00Z</time>
      </trkpt>
      <trkpt lat="48.67679" lon="1.73025">
        <ele>170</ele>
        <time>2010-05-14T09:54:01Z</time>
      </trkpt>
      <trkpt lat="48.67679" lon="1.73023">
        <ele>170</ele>
        <time>2010-05-14T09:54:02Z</time>
      </trkpt>
      <trkpt lat="48.67679" lon="1.73021">
        <ele>170</ele>
        <time>2010-05-14T09:54:03Z</time>
      </trkpt>
      <trkpt lat="48.67679" lon="1.73019">
        <ele>170</ele>
        <time>2010-05-14T09:54:04Z</time>
      </trkpt>
      <trkpt lat="48.67679" lon="1.73017">
        <ele>170</ele>
        <time>2010-05-14T09:54:05Z</time>
      </trkpt>
      <trkpt lat="48.67678" lon="1.73014">
        <ele>170</ele>
        <time>2010-05-14T09:54:06Z</time>
      </trkpt>
      <trkpt lat="48.67678" lon="1.73011">
        <ele>170</ele>
        <time>2010-05-14T09:54:08Z</time>
      </trkpt>
      <trkpt lat="48.67677" lon="1.73009">
        <ele>170</ele>
        <time>2010-05-14T09:54:09Z</time>
      </trkpt>
      <trkpt lat="48.67677" lon="1.73007">
        <ele>170</ele>
        <time>2010-05-14T09:54:10Z</time>
      </trkpt>
      <trkpt lat="48.67677" lon="1.73004">
        <ele>170</ele>
        <time>2010-05-14T09:54:11Z</time>
      </trkpt>
      <trkpt lat="48.67677" lon="1.73001">
        <ele>170</ele>
        <time>2010-05-14T09:54:12Z</time>
      </trkpt>
      <trkpt lat="48.67677" lon="1.72999">
        <ele>170</ele>
        <time>2010-05-14T09:54:13Z</time>
      </trkpt>
      <trkpt lat="48.67677" lon="1.72995">
        <ele>170</ele>
        <time>2010-05-14T09:54:14Z</time>
      </trkpt>
      <trkpt lat="48.67677" lon="1.72993">
        <ele>170</ele>
        <time>2010-05-14T09:54:15Z</time>
      </trkpt>
      <trkpt lat="48.67678" lon="1.7299">
        <ele>170</ele>
        <time>2010-05-14T09:54:16Z</time>
      </trkpt>
      <trkpt lat="48.67678" lon="1.72986">
        <ele>170</ele>
        <time>2010-05-14T09:54:17Z</time>
      </trkpt>
      <trkpt lat="48.67677" lon="1.72983">
        <ele>170</ele>
        <time>2010-05-14T09:54:18Z</time>
      </trkpt>
      <trkpt lat="48.67675" lon="1.7298">
        <ele>170</ele>
        <time>2010-05-14T09:54:19Z</time>
      </trkpt>
      <trkpt lat="48.67674" lon="1.72976">
        <ele>170</ele>
        <time>2010-05-14T09:54:20Z</time>
      </trkpt>
      <trkpt lat="48.67672" lon="1.72972">
        <ele>170</ele>
        <time>2010-05-14T09:54:21Z</time>
      </trkpt>
      <trkpt lat="48.67672" lon="1.7297">
        <ele>170</ele>
        <time>2010-05-14T09:54:22Z</time>
      </trkpt>
      <trkpt lat="48.6767" lon="1.72967">
        <ele>170</ele>
        <time>2010-05-14T09:54:23Z</time>
      </trkpt>
      <trkpt lat="48.67669" lon="1.72963">
        <ele>170</ele>
        <time>2010-05-14T09:54:24Z</time>
      </trkpt>
      <trkpt lat="48.67668" lon="1.7296">
        <ele>170</ele>
        <time>2010-05-14T09:54:25Z</time>
      </trkpt>
      <trkpt lat="48.67668" lon="1.72957">
        <ele>171</ele>
        <time>2010-05-14T09:54:27Z</time>
      </trkpt>
      <trkpt lat="48.67668" lon="1.72955">
        <ele>171</ele>
        <time>2010-05-14T09:54:28Z</time>
      </trkpt>
      <trkpt lat="48.67668" lon="1.72953">
        <ele>172</ele>
        <time>2010-05-14T09:54:29Z</time>
      </trkpt>
      <trkpt lat="48.67668" lon="1.72949">
        <ele>172</ele>
        <time>2010-05-14T09:54:31Z</time>
      </trkpt>
      <trkpt lat="48.67667" lon="1.72947">
        <ele>172</ele>
        <time>2010-05-14T09:54:32Z</time>
      </trkpt>
      <trkpt lat="48.67667" lon="1.72944">
        <ele>173</ele>
        <time>2010-05-14T09:54:34Z</time>
      </trkpt>
      <trkpt lat="48.67667" lon="1.72942">
        <ele>173</ele>
        <time>2010-05-14T09:54:35Z</time>
      </trkpt>
      <trkpt lat="48.67667" lon="1.7294">
        <ele>173</ele>
        <time>2010-05-14T09:54:36Z</time>
      </trkpt>
      <trkpt lat="48.67667" lon="1.72937">
        <ele>173</ele>
        <time>2010-05-14T09:54:37Z</time>
      </trkpt>
      <trkpt lat="48.67667" lon="1.72935">
        <ele>173</ele>
        <time>2010-05-14T09:54:38Z</time>
      </trkpt>
      <trkpt lat="48.67666" lon="1.72932">
        <ele>173</ele>
        <time>2010-05-14T09:54:39Z</time>
      </trkpt>
      <trkpt lat="48.67666" lon="1.7293">
        <ele>173</ele>
        <time>2010-05-14T09:54:40Z</time>
      </trkpt>
      <trkpt lat="48.67666" lon="1.72928">
        <ele>173</ele>
        <time>2010-05-14T09:54:41Z</time>
      </trkpt>
      <trkpt lat="48.67666" lon="1.72926">
        <ele>173</ele>
        <time>2010-05-14T09:54:42Z</time>
      </trkpt>
      <trkpt lat="48.67666" lon="1.72924">
        <ele>173</ele>
        <time>2010-05-14T09:54:43Z</time>
      </trkpt>
      <trkpt lat="48.67666" lon="1.72922">
        <ele>173</ele>
        <time>2010-05-14T09:54:44Z</time>
      </trkpt>
      <trkpt lat="48.67665" lon="1.72919">
        <ele>173</ele>
        <time>2010-05-14T09:54:45Z</time>
      </trkpt>
      <trkpt lat="48.67665" lon="1.72916">
        <ele>173</ele>
        <time>2010-05-14T09:54:46Z</time>
      </trkpt>
      <trkpt lat="48.67665" lon="1.72913">
        <ele>173</ele>
        <time>2010-05-14T09:54:47Z</time>
      </trkpt>
      <trkpt lat="48.67665" lon="1.72911">
        <ele>173</ele>
        <time>2010-05-14T09:54:48Z</time>
      </trkpt>
      <trkpt lat="48.67666" lon="1.72908">
        <ele>173</ele>
        <time>2010-05-14T09:54:49Z</time>
      </trkpt>
      <trkpt lat="48.67665" lon="1.72906">
        <ele>173</ele>
        <time>2010-05-14T09:54:50Z</time>
      </trkpt>
      <trkpt lat="48.67665" lon="1.72904">
        <ele>172</ele>
        <time>2010-05-14T09:54:51Z</time>
      </trkpt>
      <trkpt lat="48.67664" lon="1.72901">
        <ele>171</ele>
        <time>2010-05-14T09:54:52Z</time>
      </trkpt>
      <trkpt lat="48.67663" lon="1.72898">
        <ele>170</ele>
        <time>2010-05-14T09:54:53Z</time>
      </trkpt>
      <trkpt lat="48.67662" lon="1.72895">
        <ele>169</ele>
        <time>2010-05-14T09:54:54Z</time>
      </trkpt>
      <trkpt lat="48.67661" lon="1.72891">
        <ele>169</ele>
        <time>2010-05-14T09:54:55Z</time>
      </trkpt>
      <trkpt lat="48.67661" lon="1.72889">
        <ele>168</ele>
        <time>2010-05-14T09:54:56Z</time>
      </trkpt>
      <trkpt lat="48.67661" lon="1.72887">
        <ele>168</ele>
        <time>2010-05-14T09:54:57Z</time>
      </trkpt>
      <trkpt lat="48.6766" lon="1.72884">
        <ele>168</ele>
        <time>2010-05-14T09:54:58Z</time>
      </trkpt>
      <trkpt lat="48.67659" lon="1.72881">
        <ele>168</ele>
        <time>2010-05-14T09:54:59Z</time>
      </trkpt>
      <trkpt lat="48.67659" lon="1.72878">
        <ele>168</ele>
        <time>2010-05-14T09:55:00Z</time>
      </trkpt>
      <trkpt lat="48.67658" lon="1.72875">
        <ele>168</ele>
        <time>2010-05-14T09:55:01Z</time>
      </trkpt>
      <trkpt lat="48.67657" lon="1.72872">
        <ele>168</ele>
        <time>2010-05-14T09:55:02Z</time>
      </trkpt>
      <trkpt lat="48.67656" lon="1.72869">
        <ele>168</ele>
        <time>2010-05-14T09:55:03Z</time>
      </trkpt>
      <trkpt lat="48.67655" lon="1.72866">
        <ele>168</ele>
        <time>2010-05-14T09:55:04Z</time>
      </trkpt>
      <trkpt lat="48.67654" lon="1.72864">
        <ele>168</ele>
        <time>2010-05-14T09:55:05Z</time>
      </trkpt>
      <trkpt lat="48.67654" lon="1.72862">
        <ele>168</ele>
        <time>2010-05-14T09:55:06Z</time>
      </trkpt>
      <trkpt lat="48.67654" lon="1.72859">
        <ele>168</ele>
        <time>2010-05-14T09:55:07Z</time>
      </trkpt>
      <trkpt lat="48.67654" lon="1.72858">
        <ele>168</ele>
        <time>2010-05-14T09:55:08Z</time>
      </trkpt>
      <trkpt lat="48.67653" lon="1.72855">
        <ele>168</ele>
        <time>2010-05-14T09:55:09Z</time>
      </trkpt>
      <trkpt lat="48.67653" lon="1.72853">
        <ele>168</ele>
        <time>2010-05-14T09:55:10Z</time>
      </trkpt>
      <trkpt lat="48.67653" lon="1.7285">
        <ele>168</ele>
        <time>2010-05-14T09:55:12Z</time>
      </trkpt>
      <trkpt lat="48.67651" lon="1.72848">
        <ele>168</ele>
        <time>2010-05-14T09:55:14Z</time>
      </trkpt>
      <trkpt lat="48.6765" lon="1.72846">
        <ele>168</ele>
        <time>2010-05-14T09:55:15Z</time>
      </trkpt>
      <trkpt lat="48.6765" lon="1.72844">
        <ele>168</ele>
        <time>2010-05-14T09:55:16Z</time>
      </trkpt>
      <trkpt lat="48.6765" lon="1.72842">
        <ele>168</ele>
        <time>2010-05-14T09:55:17Z</time>
      </trkpt>
      <trkpt lat="48.67649" lon="1.7284">
        <ele>168</ele>
        <time>2010-05-14T09:55:18Z</time>
      </trkpt>
      <trkpt lat="48.67649" lon="1.72837">
        <ele>168</ele>
        <time>2010-05-14T09:55:19Z</time>
      </trkpt>
      <trkpt lat="48.67649" lon="1.72834">
        <ele>168</ele>
        <time>2010-05-14T09:55:21Z</time>
      </trkpt>
      <trkpt lat="48.67648" lon="1.72831">
        <ele>168</ele>
        <time>2010-05-14T09:55:22Z</time>
      </trkpt>
      <trkpt lat="48.67647" lon="1.72828">
        <ele>168</ele>
        <time>2010-05-14T09:55:23Z</time>
      </trkpt>
      <trkpt lat="48.67647" lon="1.72825">
        <ele>168</ele>
        <time>2010-05-14T09:55:24Z</time>
      </trkpt>
      <trkpt lat="48.67646" lon="1.72822">
        <ele>168</ele>
        <time>2010-05-14T09:55:25Z</time>
      </trkpt>
      <trkpt lat="48.67646" lon="1.72819">
        <ele>168</ele>
        <time>2010-05-14T09:55:26Z</time>
      </trkpt>
      <trkpt lat="48.67645" lon="1.72817">
        <ele>169</ele>
        <time>2010-05-14T09:55:27Z</time>
      </trkpt>
      <trkpt lat="48.67645" lon="1.72813">
        <ele>169</ele>
        <time>2010-05-14T09:55:29Z</time>
      </trkpt>
      <trkpt lat="48.67645" lon="1.7281">
        <ele>169</ele>
        <time>2010-05-14T09:55:30Z</time>
      </trkpt>
      <trkpt lat="48.67646" lon="1.72808">
        <ele>169</ele>
        <time>2010-05-14T09:55:31Z</time>
      </trkpt>
      <trkpt lat="48.67646" lon="1.72806">
        <ele>169</ele>
        <time>2010-05-14T09:55:32Z</time>
      </trkpt>
      <trkpt lat="48.67645" lon="1.72804">
        <ele>169</ele>
        <time>2010-05-14T09:55:33Z</time>
      </trkpt>
      <trkpt lat="48.67645" lon="1.72802">
        <ele>169</ele>
        <time>2010-05-14T09:55:34Z</time>
      </trkpt>
      <trkpt lat="48.67645" lon="1.72799">
        <ele>169</ele>
        <time>2010-05-14T09:55:35Z</time>
      </trkpt>
      <trkpt lat="48.67645" lon="1.72797">
        <ele>169</ele>
        <time>2010-05-14T09:55:36Z</time>
      </trkpt>
      <trkpt lat="48.67645" lon="1.72794">
        <ele>169</ele>
        <time>2010-05-14T09:55:37Z</time>
      </trkpt>
      <trkpt lat="48.67645" lon="1.72792">
        <ele>169</ele>
        <time>2010-05-14T09:55:38Z</time>
      </trkpt>
      <trkpt lat="48.67645" lon="1.7279">
        <ele>168</ele>
        <time>2010-05-14T09:55:39Z</time>
      </trkpt>
      <trkpt lat="48.67644" lon="1.72788">
        <ele>168</ele>
        <time>2010-05-14T09:55:40Z</time>
      </trkpt>
      <trkpt lat="48.67644" lon="1.72786">
        <ele>167</ele>
        <time>2010-05-14T09:55:41Z</time>
      </trkpt>
      <trkpt lat="48.67644" lon="1.72784">
        <ele>166</ele>
        <time>2010-05-14T09:55:42Z</time>
      </trkpt>
      <trkpt lat="48.67643" lon="1.72781">
        <ele>166</ele>
        <time>2010-05-14T09:55:43Z</time>
      </trkpt>
      <trkpt lat="48.67641" lon="1.72777">
        <ele>166</ele>
        <time>2010-05-14T09:55:45Z</time>
      </trkpt>
      <trkpt lat="48.67641" lon="1.72774">
        <ele>166</ele>
        <time>2010-05-14T09:55:46Z</time>
      </trkpt>
      <trkpt lat="48.6764" lon="1.72771">
        <ele>166</ele>
        <time>2010-05-14T09:55:47Z</time>
      </trkpt>
      <trkpt lat="48.6764" lon="1.72769">
        <ele>166</ele>
        <time>2010-05-14T09:55:48Z</time>
      </trkpt>
      <trkpt lat="48.67639" lon="1.72766">
        <ele>166</ele>
        <time>2010-05-14T09:55:49Z</time>
      </trkpt>
      <trkpt lat="48.67639" lon="1.72763">
        <ele>166</ele>
        <time>2010-05-14T09:55:50Z</time>
      </trkpt>
      <trkpt lat="48.67638" lon="1.72759">
        <ele>166</ele>
        <time>2010-05-14T09:55:51Z</time>
      </trkpt>
      <trkpt lat="48.67637" lon="1.72757">
        <ele>166</ele>
        <time>2010-05-14T09:55:52Z</time>
      </trkpt>
      <trkpt lat="48.67637" lon="1.72755">
        <ele>166</ele>
        <time>2010-05-14T09:55:53Z</time>
      </trkpt>
      <trkpt lat="48.67637" lon="1.72752">
        <ele>167</ele>
        <time>2010-05-14T09:55:55Z</time>
      </trkpt>
      <trkpt lat="48.67637" lon="1.72748">
        <ele>167</ele>
        <time>2010-05-14T09:55:57Z</time>
      </trkpt>
      <trkpt lat="48.67636" lon="1.72746">
        <ele>167</ele>
        <time>2010-05-14T09:55:58Z</time>
      </trkpt>
      <trkpt lat="48.67636" lon="1.72743">
        <ele>168</ele>
        <time>2010-05-14T09:55:59Z</time>
      </trkpt>
      <trkpt lat="48.67636" lon="1.72741">
        <ele>168</ele>
        <time>2010-05-14T09:56:00Z</time>
      </trkpt>
      <trkpt lat="48.67636" lon="1.72739">
        <ele>168</ele>
        <time>2010-05-14T09:56:01Z</time>
      </trkpt>
      <trkpt lat="48.67636" lon="1.72737">
        <ele>168</ele>
        <time>2010-05-14T09:56:02Z</time>
      </trkpt>
      <trkpt lat="48.67636" lon="1.72735">
        <ele>168</ele>
        <time>2010-05-14T09:56:03Z</time>
      </trkpt>
      <trkpt lat="48.67635" lon="1.72733">
        <ele>168</ele>
        <time>2010-05-14T09:56:04Z</time>
      </trkpt>
      <trkpt lat="48.67635" lon="1.72731">
        <ele>168</ele>
        <time>2010-05-14T09:56:05Z</time>
      </trkpt>
      <trkpt lat="48.67635" lon="1.72729">
        <ele>168</ele>
        <time>2010-05-14T09:56:06Z</time>
      </trkpt>
      <trkpt lat="48.67634" lon="1.72726">
        <ele>168</ele>
        <time>2010-05-14T09:56:07Z</time>
      </trkpt>
      <trkpt lat="48.67634" lon="1.72724">
        <ele>168</ele>
        <time>2010-05-14T09:56:08Z</time>
      </trkpt>
      <trkpt lat="48.67634" lon="1.72721">
        <ele>168</ele>
        <time>2010-05-14T09:56:09Z</time>
      </trkpt>
      <trkpt lat="48.67634" lon="1.72718">
        <ele>168</ele>
        <time>2010-05-14T09:56:10Z</time>
      </trkpt>
      <trkpt lat="48.67634" lon="1.72716">
        <ele>168</ele>
        <time>2010-05-14T09:56:11Z</time>
      </trkpt>
      <trkpt lat="48.67633" lon="1.72713">
        <ele>168</ele>
        <time>2010-05-14T09:56:13Z</time>
      </trkpt>
      <trkpt lat="48.67632" lon="1.72711">
        <ele>168</ele>
        <time>2010-05-14T09:56:15Z</time>
      </trkpt>
      <trkpt lat="48.67633" lon="1.72712">
        <ele>168</ele>
        <time>2010-05-14T09:56:23Z</time>
      </trkpt>
      <trkpt lat="48.67635" lon="1.7271">
        <ele>168</ele>
        <time>2010-05-14T09:56:32Z</time>
      </trkpt>
      <trkpt lat="48.67636" lon="1.7271">
        <ele>168</ele>
        <time>2010-05-14T09:56:34Z</time>
      </trkpt>
      <trkpt lat="48.67638" lon="1.72709">
        <ele>168</ele>
        <time>2010-05-14T09:56:37Z</time>
      </trkpt>
      <trkpt lat="48.67639" lon="1.72709">
        <ele>168</ele>
        <time>2010-05-14T09:56:40Z</time>
      </trkpt>
      <trkpt lat="48.67641" lon="1.72709">
        <ele>168</ele>
        <time>2010-05-14T09:56:42Z</time>
      </trkpt>
      <trkpt lat="48.67642" lon="1.72706">
        <ele>168</ele>
        <time>2010-05-14T09:56:44Z</time>
      </trkpt>
      <trkpt lat="48.6764" lon="1.72705">
        <ele>168</ele>
        <time>2010-05-14T09:56:45Z</time>
      </trkpt>
      <trkpt lat="48.67638" lon="1.72702">
        <ele>168</ele>
        <time>2010-05-14T09:56:47Z</time>
      </trkpt>
      <trkpt lat="48.67637" lon="1.727">
        <ele>168</ele>
        <time>2010-05-14T09:56:48Z</time>
      </trkpt>
      <trkpt lat="48.67636" lon="1.72697">
        <ele>168</ele>
        <time>2010-05-14T09:56:49Z</time>
      </trkpt>
      <trkpt lat="48.67635" lon="1.72695">
        <ele>168</ele>
        <time>2010-05-14T09:56:50Z</time>
      </trkpt>
      <trkpt lat="48.67634" lon="1.72692">
        <ele>168</ele>
        <time>2010-05-14T09:56:51Z</time>
      </trkpt>
      <trkpt lat="48.67633" lon="1.7269">
        <ele>168</ele>
        <time>2010-05-14T09:56:52Z</time>
      </trkpt>
      <trkpt lat="48.67632" lon="1.72687">
        <ele>168</ele>
        <time>2010-05-14T09:56:53Z</time>
      </trkpt>
      <trkpt lat="48.67631" lon="1.72684">
        <ele>168</ele>
        <time>2010-05-14T09:56:54Z</time>
      </trkpt>
      <trkpt lat="48.6763" lon="1.72681">
        <ele>168</ele>
        <time>2010-05-14T09:56:55Z</time>
      </trkpt>
      <trkpt lat="48.6763" lon="1.72678">
        <ele>168</ele>
        <time>2010-05-14T09:56:56Z</time>
      </trkpt>
      <trkpt lat="48.67629" lon="1.72676">
        <ele>169</ele>
        <time>2010-05-14T09:56:57Z</time>
      </trkpt>
      <trkpt lat="48.67629" lon="1.72674">
        <ele>169</ele>
        <time>2010-05-14T09:56:58Z</time>
      </trkpt>
      <trkpt lat="48.67628" lon="1.72671">
        <ele>169</ele>
        <time>2010-05-14T09:56:59Z</time>
      </trkpt>
      <trkpt lat="48.67628" lon="1.72669">
        <ele>170</ele>
        <time>2010-05-14T09:57:00Z</time>
      </trkpt>
      <trkpt lat="48.67627" lon="1.72666">
        <ele>170</ele>
        <time>2010-05-14T09:57:01Z</time>
      </trkpt>
      <trkpt lat="48.67627" lon="1.72664">
        <ele>170</ele>
        <time>2010-05-14T09:57:02Z</time>
      </trkpt>
      <trkpt lat="48.67627" lon="1.72662">
        <ele>170</ele>
        <time>2010-05-14T09:57:03Z</time>
      </trkpt>
      <trkpt lat="48.67626" lon="1.72659">
        <ele>170</ele>
        <time>2010-05-14T09:57:04Z</time>
      </trkpt>
      <trkpt lat="48.67625" lon="1.72656">
        <ele>171</ele>
        <time>2010-05-14T09:57:05Z</time>
      </trkpt>
      <trkpt lat="48.67625" lon="1.72653">
        <ele>171</ele>
        <time>2010-05-14T09:57:06Z</time>
      </trkpt>
      <trkpt lat="48.67625" lon="1.72651">
        <ele>171</ele>
        <time>2010-05-14T09:57:07Z</time>
      </trkpt>
      <trkpt lat="48.67624" lon="1.72649">
        <ele>171</ele>
        <time>2010-05-14T09:57:08Z</time>
      </trkpt>
      <trkpt lat="48.67624" lon="1.72646">
        <ele>171</ele>
        <time>2010-05-14T09:57:09Z</time>
      </trkpt>
      <trkpt lat="48.67623" lon="1.72644">
        <ele>171</ele>
        <time>2010-05-14T09:57:10Z</time>
      </trkpt>
      <trkpt lat="48.67623" lon="1.72641">
        <ele>171</ele>
        <time>2010-05-14T09:57:11Z</time>
      </trkpt>
      <trkpt lat="48.67622" lon="1.72638">
        <ele>171</ele>
        <time>2010-05-14T09:57:12Z</time>
      </trkpt>
      <trkpt lat="48.67622" lon="1.72635">
        <ele>172</ele>
        <time>2010-05-14T09:57:13Z</time>
      </trkpt>
      <trkpt lat="48.67621" lon="1.72632">
        <ele>172</ele>
        <time>2010-05-14T09:57:14Z</time>
      </trkpt>
      <trkpt lat="48.67621" lon="1.7263">
        <ele>172</ele>
        <time>2010-05-14T09:57:15Z</time>
      </trkpt>
      <trkpt lat="48.67621" lon="1.72628">
        <ele>172</ele>
        <time>2010-05-14T09:57:16Z</time>
      </trkpt>
      <trkpt lat="48.6762" lon="1.72626">
        <ele>173</ele>
        <time>2010-05-14T09:57:17Z</time>
      </trkpt>
      <trkpt lat="48.6762" lon="1.72623">
        <ele>173</ele>
        <time>2010-05-14T09:57:18Z</time>
      </trkpt>
      <trkpt lat="48.6762" lon="1.72621">
        <ele>173</ele>
        <time>2010-05-14T09:57:19Z</time>
      </trkpt>
      <trkpt lat="48.6762" lon="1.72619">
        <ele>173</ele>
        <time>2010-05-14T09:57:20Z</time>
      </trkpt>
      <trkpt lat="48.6762" lon="1.72617">
        <ele>173</ele>
        <time>2010-05-14T09:57:21Z</time>
      </trkpt>
      <trkpt lat="48.67619" lon="1.72615">
        <ele>173</ele>
        <time>2010-05-14T09:57:22Z</time>
      </trkpt>
      <trkpt lat="48.67619" lon="1.72613">
        <ele>173</ele>
        <time>2010-05-14T09:57:23Z</time>
      </trkpt>
      <trkpt lat="48.67619" lon="1.72609">
        <ele>173</ele>
        <time>2010-05-14T09:57:25Z</time>
      </trkpt>
      <trkpt lat="48.67618" lon="1.72608">
        <ele>173</ele>
        <time>2010-05-14T09:57:26Z</time>
      </trkpt>
      <trkpt lat="48.67618" lon="1.72605">
        <ele>173</ele>
        <time>2010-05-14T09:57:27Z</time>
      </trkpt>
      <trkpt lat="48.67617" lon="1.72602">
        <ele>173</ele>
        <time>2010-05-14T09:57:28Z</time>
      </trkpt>
      <trkpt lat="48.67616" lon="1.72598">
        <ele>173</ele>
        <time>2010-05-14T09:57:29Z</time>
      </trkpt>
      <trkpt lat="48.67615" lon="1.72594">
        <ele>173</ele>
        <time>2010-05-14T09:57:30Z</time>
      </trkpt>
      <trkpt lat="48.67614" lon="1.72592">
        <ele>173</ele>
        <time>2010-05-14T09:57:31Z</time>
      </trkpt>
      <trkpt lat="48.67614" lon="1.72589">
        <ele>173</ele>
        <time>2010-05-14T09:57:32Z</time>
      </trkpt>
      <trkpt lat="48.67613" lon="1.72586">
        <ele>173</ele>
        <time>2010-05-14T09:57:33Z</time>
      </trkpt>
      <trkpt lat="48.67612" lon="1.72583">
        <ele>173</ele>
        <time>2010-05-14T09:57:34Z</time>
      </trkpt>
      <trkpt lat="48.67612" lon="1.72581">
        <ele>173</ele>
        <time>2010-05-14T09:57:35Z</time>
      </trkpt>
      <trkpt lat="48.67612" lon="1.72578">
        <ele>173</ele>
        <time>2010-05-14T09:57:37Z</time>
      </trkpt>
      <trkpt lat="48.67611" lon="1.72574">
        <ele>173</ele>
        <time>2010-05-14T09:57:38Z</time>
      </trkpt>
      <trkpt lat="48.6761" lon="1.72572">
        <ele>173</ele>
        <time>2010-05-14T09:57:39Z</time>
      </trkpt>
      <trkpt lat="48.67609" lon="1.72569">
        <ele>173</ele>
        <time>2010-05-14T09:57:40Z</time>
      </trkpt>
      <trkpt lat="48.67609" lon="1.72567">
        <ele>173</ele>
        <time>2010-05-14T09:57:41Z</time>
      </trkpt>
      <trkpt lat="48.67608" lon="1.72564">
        <ele>173</ele>
        <time>2010-05-14T09:57:43Z</time>
      </trkpt>
      <trkpt lat="48.67608" lon="1.72562">
        <ele>173</ele>
        <time>2010-05-14T09:57:44Z</time>
      </trkpt>
      <trkpt lat="48.67607" lon="1.72559">
        <ele>173</ele>
        <time>2010-05-14T09:57:45Z</time>
      </trkpt>
      <trkpt lat="48.67607" lon="1.72558">
        <ele>173</ele>
        <time>2010-05-14T09:57:46Z</time>
      </trkpt>
      <trkpt lat="48.67607" lon="1.72554">
        <ele>173</ele>
        <time>2010-05-14T09:57:47Z</time>
      </trkpt>
      <trkpt lat="48.67606" lon="1.72552">
        <ele>173</ele>
        <time>2010-05-14T09:57:48Z</time>
      </trkpt>
      <trkpt lat="48.67606" lon="1.7255">
        <ele>173</ele>
        <time>2010-05-14T09:57:49Z</time>
      </trkpt>
      <trkpt lat="48.67606" lon="1.72547">
        <ele>173</ele>
        <time>2010-05-14T09:57:50Z</time>
      </trkpt>
      <trkpt lat="48.67606" lon="1.72545">
        <ele>173</ele>
        <time>2010-05-14T09:57:51Z</time>
      </trkpt>
      <trkpt lat="48.67606" lon="1.72543">
        <ele>173</ele>
        <time>2010-05-14T09:57:52Z</time>
      </trkpt>
      <trkpt lat="48.67605" lon="1.72541">
        <ele>173</ele>
        <time>2010-05-14T09:57:53Z</time>
      </trkpt>
      <trkpt lat="48.67605" lon="1.72539">
        <ele>173</ele>
        <time>2010-05-14T09:57:54Z</time>
      </trkpt>
      <trkpt lat="48.67604" lon="1.72536">
        <ele>173</ele>
        <time>2010-05-14T09:57:55Z</time>
      </trkpt>
      <trkpt lat="48.67604" lon="1.72533">
        <ele>173</ele>
        <time>2010-05-14T09:57:56Z</time>
      </trkpt>
      <trkpt lat="48.67603" lon="1.7253">
        <ele>173</ele>
        <time>2010-05-14T09:57:57Z</time>
      </trkpt>
      <trkpt lat="48.67603" lon="1.72527">
        <ele>173</ele>
        <time>2010-05-14T09:57:58Z</time>
      </trkpt>
      <trkpt lat="48.67602" lon="1.72525">
        <ele>173</ele>
        <time>2010-05-14T09:57:59Z</time>
      </trkpt>
      <trkpt lat="48.67602" lon="1.72523">
        <ele>173</ele>
        <time>2010-05-14T09:58:00Z</time>
      </trkpt>
      <trkpt lat="48.67601" lon="1.7252">
        <ele>173</ele>
        <time>2010-05-14T09:58:01Z</time>
      </trkpt>
      <trkpt lat="48.67601" lon="1.72517">
        <ele>173</ele>
        <time>2010-05-14T09:58:03Z</time>
      </trkpt>
      <trkpt lat="48.676" lon="1.72515">
        <ele>173</ele>
        <time>2010-05-14T09:58:04Z</time>
      </trkpt>
      <trkpt lat="48.676" lon="1.72513">
        <ele>173</ele>
        <time>2010-05-14T09:58:05Z</time>
      </trkpt>
      <trkpt lat="48.67599" lon="1.72511">
        <ele>173</ele>
        <time>2010-05-14T09:58:06Z</time>
      </trkpt>
      <trkpt lat="48.67599" lon="1.72507">
        <ele>172</ele>
        <time>2010-05-14T09:58:08Z</time>
      </trkpt>
      <trkpt lat="48.67598" lon="1.72504">
        <ele>172</ele>
        <time>2010-05-14T09:58:09Z</time>
      </trkpt>
      <trkpt lat="48.67597" lon="1.72501">
        <ele>172</ele>
        <time>2010-05-14T09:58:11Z</time>
      </trkpt>
      <trkpt lat="48.67597" lon="1.72499">
        <ele>172</ele>
        <time>2010-05-14T09:58:12Z</time>
      </trkpt>
      <trkpt lat="48.67597" lon="1.72496">
        <ele>171</ele>
        <time>2010-05-14T09:58:13Z</time>
      </trkpt>
      <trkpt lat="48.67596" lon="1.72493">
        <ele>171</ele>
        <time>2010-05-14T09:58:14Z</time>
      </trkpt>
      <trkpt lat="48.67596" lon="1.7249">
        <ele>171</ele>
        <time>2010-05-14T09:58:15Z</time>
      </trkpt>
      <trkpt lat="48.67595" lon="1.72487">
        <ele>171</ele>
        <time>2010-05-14T09:58:16Z</time>
      </trkpt>
      <trkpt lat="48.67594" lon="1.72484">
        <ele>170</ele>
        <time>2010-05-14T09:58:17Z</time>
      </trkpt>
      <trkpt lat="48.67594" lon="1.72481">
        <ele>170</ele>
        <time>2010-05-14T09:58:18Z</time>
      </trkpt>
      <trkpt lat="48.67593" lon="1.72479">
        <ele>170</ele>
        <time>2010-05-14T09:58:19Z</time>
      </trkpt>
      <trkpt lat="48.67593" lon="1.72477">
        <ele>170</ele>
        <time>2010-05-14T09:58:20Z</time>
      </trkpt>
      <trkpt lat="48.67592" lon="1.72474">
        <ele>169</ele>
        <time>2010-05-14T09:58:21Z</time>
      </trkpt>
      <trkpt lat="48.67592" lon="1.72472">
        <ele>169</ele>
        <time>2010-05-14T09:58:22Z</time>
      </trkpt>
      <trkpt lat="48.67592" lon="1.7247">
        <ele>169</ele>
        <time>2010-05-14T09:58:23Z</time>
      </trkpt>
      <trkpt lat="48.67592" lon="1.72468">
        <ele>169</ele>
        <time>2010-05-14T09:58:24Z</time>
      </trkpt>
      <trkpt lat="48.67592" lon="1.72465">
        <ele>169</ele>
        <time>2010-05-14T09:58:25Z</time>
      </trkpt>
      <trkpt lat="48.67592" lon="1.72463">
        <ele>169</ele>
        <time>2010-05-14T09:58:26Z</time>
      </trkpt>
      <trkpt lat="48.67592" lon="1.72461">
        <ele>169</ele>
        <time>2010-05-14T09:58:27Z</time>
      </trkpt>
      <trkpt lat="48.67592" lon="1.72458">
        <ele>169</ele>
        <time>2010-05-14T09:58:28Z</time>
      </trkpt>
      <trkpt lat="48.67592" lon="1.72455">
        <ele>169</ele>
        <time>2010-05-14T09:58:29Z</time>
      </trkpt>
      <trkpt lat="48.67591" lon="1.72452">
        <ele>169</ele>
        <time>2010-05-14T09:58:30Z</time>
      </trkpt>
      <trkpt lat="48.67591" lon="1.7245">
        <ele>169</ele>
        <time>2010-05-14T09:58:31Z</time>
      </trkpt>
      <trkpt lat="48.67591" lon="1.72447">
        <ele>169</ele>
        <time>2010-05-14T09:58:33Z</time>
      </trkpt>
      <trkpt lat="48.67591" lon="1.72444">
        <ele>169</ele>
        <time>2010-05-14T09:58:35Z</time>
      </trkpt>
      <trkpt lat="48.67591" lon="1.72443">
        <ele>169</ele>
        <time>2010-05-14T09:58:36Z</time>
      </trkpt>
      <trkpt lat="48.67592" lon="1.7244">
        <ele>169</ele>
        <time>2010-05-14T09:58:38Z</time>
      </trkpt>
      <trkpt lat="48.67591" lon="1.72437">
        <ele>169</ele>
        <time>2010-05-14T09:58:39Z</time>
      </trkpt>
      <trkpt lat="48.6759" lon="1.72434">
        <ele>169</ele>
        <time>2010-05-14T09:58:40Z</time>
      </trkpt>
      <trkpt lat="48.67589" lon="1.72431">
        <ele>169</ele>
        <time>2010-05-14T09:58:41Z</time>
      </trkpt>
      <trkpt lat="48.67589" lon="1.72428">
        <ele>169</ele>
        <time>2010-05-14T09:58:42Z</time>
      </trkpt>
      <trkpt lat="48.67588" lon="1.72424">
        <ele>169</ele>
        <time>2010-05-14T09:58:43Z</time>
      </trkpt>
      <trkpt lat="48.67587" lon="1.72421">
        <ele>169</ele>
        <time>2010-05-14T09:58:44Z</time>
      </trkpt>
      <trkpt lat="48.67587" lon="1.72418">
        <ele>169</ele>
        <time>2010-05-14T09:58:45Z</time>
      </trkpt>
      <trkpt lat="48.67586" lon="1.72416">
        <ele>169</ele>
        <time>2010-05-14T09:58:46Z</time>
      </trkpt>
      <trkpt lat="48.67586" lon="1.72413">
        <ele>169</ele>
        <time>2010-05-14T09:58:47Z</time>
      </trkpt>
      <trkpt lat="48.67585" lon="1.7241">
        <ele>169</ele>
        <time>2010-05-14T09:58:48Z</time>
      </trkpt>
      <trkpt lat="48.67585" lon="1.72408">
        <ele>169</ele>
        <time>2010-05-14T09:58:49Z</time>
      </trkpt>
      <trkpt lat="48.67585" lon="1.72406">
        <ele>169</ele>
        <time>2010-05-14T09:58:50Z</time>
      </trkpt>
      <trkpt lat="48.67584" lon="1.72403">
        <ele>169</ele>
        <time>2010-05-14T09:58:52Z</time>
      </trkpt>
      <trkpt lat="48.67585" lon="1.72401">
        <ele>169</ele>
        <time>2010-05-14T09:58:54Z</time>
      </trkpt>
      <trkpt lat="48.67585" lon="1.72399">
        <ele>169</ele>
        <time>2010-05-14T09:58:59Z</time>
      </trkpt>
      <trkpt lat="48.67585" lon="1.72397">
        <ele>169</ele>
        <time>2010-05-14T09:59:04Z</time>
      </trkpt>
      <trkpt lat="48.67584" lon="1.72395">
        <ele>169</ele>
        <time>2010-05-14T09:59:06Z</time>
      </trkpt>
      <trkpt lat="48.67583" lon="1.72391">
        <ele>169</ele>
        <time>2010-05-14T09:59:08Z</time>
      </trkpt>
      <trkpt lat="48.67583" lon="1.72393">
        <ele>169</ele>
        <time>2010-05-14T09:59:12Z</time>
      </trkpt>
      <trkpt lat="48.67584" lon="1.72394">
        <ele>168</ele>
        <time>2010-05-14T09:59:17Z</time>
      </trkpt>
      <trkpt lat="48.67585" lon="1.72394">
        <ele>168</ele>
        <time>2010-05-14T09:59:22Z</time>
      </trkpt>
      <trkpt lat="48.67586" lon="1.72393">
        <ele>168</ele>
        <time>2010-05-14T09:59:27Z</time>
      </trkpt>
      <trkpt lat="48.67588" lon="1.72392">
        <ele>168</ele>
        <time>2010-05-14T09:59:31Z</time>
      </trkpt>
      <trkpt lat="48.67589" lon="1.72391">
        <ele>169</ele>
        <time>2010-05-14T09:59:34Z</time>
      </trkpt>
      <trkpt lat="48.6759" lon="1.7239">
        <ele>170</ele>
        <time>2010-05-14T09:59:36Z</time>
      </trkpt>
      <trkpt lat="48.67592" lon="1.72391">
        <ele>170</ele>
        <time>2010-05-14T09:59:38Z</time>
      </trkpt>
      <trkpt lat="48.67591" lon="1.72389">
        <ele>170</ele>
        <time>2010-05-14T09:59:43Z</time>
      </trkpt>
      <trkpt lat="48.6759" lon="1.72388">
        <ele>171</ele>
        <time>2010-05-14T09:59:58Z</time>
      </trkpt>
      <trkpt lat="48.67588" lon="1.72389">
        <ele>171</ele>
        <time>2010-05-14T10:00:01Z</time>
      </trkpt>
      <trkpt lat="48.67587" lon="1.72389">
        <ele>171</ele>
        <time>2010-05-14T10:00:03Z</time>
      </trkpt>
      <trkpt lat="48.67586" lon="1.7239">
        <ele>171</ele>
        <time>2010-05-14T10:00:05Z</time>
      </trkpt>
      <trkpt lat="48.67585" lon="1.72388">
        <ele>172</ele>
        <time>2010-05-14T10:00:22Z</time>
      </trkpt>
      <trkpt lat="48.67584" lon="1.72384">
        <ele>172</ele>
        <time>2010-05-14T10:00:24Z</time>
      </trkpt>
      <trkpt lat="48.67584" lon="1.72382">
        <ele>172</ele>
        <time>2010-05-14T10:00:25Z</time>
      </trkpt>
      <trkpt lat="48.67584" lon="1.7238">
        <ele>172</ele>
        <time>2010-05-14T10:00:26Z</time>
      </trkpt>
      <trkpt lat="48.67584" lon="1.72377">
        <ele>171</ele>
        <time>2010-05-14T10:00:28Z</time>
      </trkpt>
      <trkpt lat="48.67583" lon="1.72375">
        <ele>171</ele>
        <time>2010-05-14T10:00:29Z</time>
      </trkpt>
      <trkpt lat="48.67582" lon="1.72373">
        <ele>170</ele>
        <time>2010-05-14T10:00:30Z</time>
      </trkpt>
      <trkpt lat="48.67583" lon="1.7237">
        <ele>168</ele>
        <time>2010-05-14T10:00:32Z</time>
      </trkpt>
      <trkpt lat="48.67583" lon="1.72368">
        <ele>168</ele>
        <time>2010-05-14T10:00:33Z</time>
      </trkpt>
      <trkpt lat="48.67583" lon="1.72365">
        <ele>167</ele>
        <time>2010-05-14T10:00:35Z</time>
      </trkpt>
      <trkpt lat="48.67583" lon="1.72362">
        <ele>166</ele>
        <time>2010-05-14T10:00:37Z</time>
      </trkpt>
      <trkpt lat="48.67583" lon="1.7236">
        <ele>166</ele>
        <time>2010-05-14T10:00:38Z</time>
      </trkpt>
      <trkpt lat="48.67582" lon="1.72357">
        <ele>166</ele>
        <time>2010-05-14T10:00:39Z</time>
      </trkpt>
      <trkpt lat="48.67581" lon="1.72353">
        <ele>166</ele>
        <time>2010-05-14T10:00:40Z</time>
      </trkpt>
      <trkpt lat="48.67581" lon="1.7235">
        <ele>165</ele>
        <time>2010-05-14T10:00:41Z</time>
      </trkpt>
      <trkpt lat="48.6758" lon="1.72347">
        <ele>165</ele>
        <time>2010-05-14T10:00:42Z</time>
      </trkpt>
      <trkpt lat="48.6758" lon="1.72345">
        <ele>165</ele>
        <time>2010-05-14T10:00:43Z</time>
      </trkpt>
      <trkpt lat="48.67578" lon="1.72341">
        <ele>165</ele>
        <time>2010-05-14T10:00:44Z</time>
      </trkpt>
      <trkpt lat="48.67577" lon="1.72338">
        <ele>165</ele>
        <time>2010-05-14T10:00:45Z</time>
      </trkpt>
      <trkpt lat="48.67576" lon="1.72334">
        <ele>165</ele>
        <time>2010-05-14T10:00:46Z</time>
      </trkpt>
      <trkpt lat="48.67576" lon="1.72332">
        <ele>165</ele>
        <time>2010-05-14T10:00:47Z</time>
      </trkpt>
      <trkpt lat="48.67575" lon="1.72329">
        <ele>165</ele>
        <time>2010-05-14T10:00:48Z</time>
      </trkpt>
      <trkpt lat="48.67575" lon="1.72327">
        <ele>165</ele>
        <time>2010-05-14T10:00:49Z</time>
      </trkpt>
      <trkpt lat="48.67574" lon="1.72325">
        <ele>165</ele>
        <time>2010-05-14T10:00:50Z</time>
      </trkpt>
      <trkpt lat="48.67573" lon="1.72322">
        <ele>165</ele>
        <time>2010-05-14T10:00:51Z</time>
      </trkpt>
      <trkpt lat="48.67573" lon="1.7232">
        <ele>165</ele>
        <time>2010-05-14T10:00:52Z</time>
      </trkpt>
      <trkpt lat="48.67573" lon="1.72318">
        <ele>165</ele>
        <time>2010-05-14T10:00:53Z</time>
      </trkpt>
      <trkpt lat="48.67573" lon="1.72316">
        <ele>165</ele>
        <time>2010-05-14T10:00:54Z</time>
      </trkpt>
      <trkpt lat="48.67573" lon="1.72314">
        <ele>165</ele>
        <time>2010-05-14T10:00:55Z</time>
      </trkpt>
      <trkpt lat="48.67572" lon="1.72311">
        <ele>165</ele>
        <time>2010-05-14T10:00:56Z</time>
      </trkpt>
      <trkpt lat="48.67572" lon="1.72309">
        <ele>165</ele>
        <time>2010-05-14T10:00:57Z</time>
      </trkpt>
      <trkpt lat="48.67572" lon="1.72306">
        <ele>165</ele>
        <time>2010-05-14T10:00:59Z</time>
      </trkpt>
      <trkpt lat="48.67571" lon="1.72302">
        <ele>165</ele>
        <time>2010-05-14T10:01:01Z</time>
      </trkpt>
      <trkpt lat="48.67571" lon="1.723">
        <ele>165</ele>
        <time>2010-05-14T10:01:02Z</time>
      </trkpt>
      <trkpt lat="48.67571" lon="1.72298">
        <ele>165</ele>
        <time>2010-05-14T10:01:03Z</time>
      </trkpt>
      <trkpt lat="48.67571" lon="1.72296">
        <ele>164</ele>
        <time>2010-05-14T10:01:04Z</time>
      </trkpt>
      <trkpt lat="48.6757" lon="1.72293">
        <ele>163</ele>
        <time>2010-05-14T10:01:06Z</time>
      </trkpt>
      <trkpt lat="48.67569" lon="1.72291">
        <ele>162</ele>
        <time>2010-05-14T10:01:08Z</time>
      </trkpt>
      <trkpt lat="48.67568" lon="1.72289">
        <ele>162</ele>
        <time>2010-05-14T10:01:10Z</time>
      </trkpt>
      <trkpt lat="48.67566" lon="1.72287">
        <ele>162</ele>
        <time>2010-05-14T10:01:12Z</time>
      </trkpt>
      <trkpt lat="48.67565" lon="1.72286">
        <ele>162</ele>
        <time>2010-05-14T10:01:17Z</time>
      </trkpt>
      <trkpt lat="48.67563" lon="1.72285">
        <ele>162</ele>
        <time>2010-05-14T10:01:20Z</time>
      </trkpt>
      <trkpt lat="48.67563" lon="1.72283">
        <ele>162</ele>
        <time>2010-05-14T10:01:23Z</time>
      </trkpt>
      <trkpt lat="48.67564" lon="1.72285">
        <ele>165</ele>
        <time>2010-05-14T10:01:41Z</time>
      </trkpt>
      <trkpt lat="48.67564" lon="1.72286">
        <ele>165</ele>
        <time>2010-05-14T10:01:44Z</time>
      </trkpt>
      <trkpt lat="48.67563" lon="1.72287">
        <ele>165</ele>
        <time>2010-05-14T10:01:48Z</time>
      </trkpt>
      <trkpt lat="48.67563" lon="1.72285">
        <ele>165</ele>
        <time>2010-05-14T10:01:58Z</time>
      </trkpt>
      <trkpt lat="48.67563" lon="1.72282">
        <ele>165</ele>
        <time>2010-05-14T10:02:00Z</time>
      </trkpt>
      <trkpt lat="48.67564" lon="1.7228">
        <ele>165</ele>
        <time>2010-05-14T10:02:03Z</time>
      </trkpt>
      <trkpt lat="48.67565" lon="1.72277">
        <ele>165</ele>
        <time>2010-05-14T10:02:05Z</time>
      </trkpt>
      <trkpt lat="48.67566" lon="1.72275">
        <ele>165</ele>
        <time>2010-05-14T10:02:06Z</time>
      </trkpt>
      <trkpt lat="48.67566" lon="1.72273">
        <ele>165</ele>
        <time>2010-05-14T10:02:07Z</time>
      </trkpt>
      <trkpt lat="48.67566" lon="1.72271">
        <ele>164</ele>
        <time>2010-05-14T10:02:10Z</time>
      </trkpt>
      <trkpt lat="48.67567" lon="1.72268">
        <ele>163</ele>
        <time>2010-05-14T10:02:12Z</time>
      </trkpt>
      <trkpt lat="48.67567" lon="1.72267">
        <ele>162</ele>
        <time>2010-05-14T10:02:13Z</time>
      </trkpt>
      <trkpt lat="48.67568" lon="1.72265">
        <ele>161</ele>
        <time>2010-05-14T10:02:15Z</time>
      </trkpt>
      <trkpt lat="48.67567" lon="1.72261">
        <ele>160</ele>
        <time>2010-05-14T10:02:16Z</time>
      </trkpt>
      <trkpt lat="48.67566" lon="1.72258">
        <ele>159</ele>
        <time>2010-05-14T10:02:17Z</time>
      </trkpt>
      <trkpt lat="48.67565" lon="1.72255">
        <ele>158</ele>
        <time>2010-05-14T10:02:18Z</time>
      </trkpt>
      <trkpt lat="48.67565" lon="1.72253">
        <ele>158</ele>
        <time>2010-05-14T10:02:19Z</time>
      </trkpt>
      <trkpt lat="48.67564" lon="1.72251">
        <ele>158</ele>
        <time>2010-05-14T10:02:20Z</time>
      </trkpt>
      <trkpt lat="48.67564" lon="1.72249">
        <ele>157</ele>
        <time>2010-05-14T10:02:23Z</time>
      </trkpt>
      <trkpt lat="48.67563" lon="1.72247">
        <ele>156</ele>
        <time>2010-05-14T10:02:24Z</time>
      </trkpt>
      <trkpt lat="48.67563" lon="1.72244">
        <ele>156</ele>
        <time>2010-05-14T10:02:26Z</time>
      </trkpt>
      <trkpt lat="48.67562" lon="1.72242">
        <ele>156</ele>
        <time>2010-05-14T10:02:27Z</time>
      </trkpt>
      <trkpt lat="48.67562" lon="1.72239">
        <ele>156</ele>
        <time>2010-05-14T10:02:29Z</time>
      </trkpt>
      <trkpt lat="48.67562" lon="1.72237">
        <ele>155</ele>
        <time>2010-05-14T10:02:31Z</time>
      </trkpt>
      <trkpt lat="48.67562" lon="1.72235">
        <ele>155</ele>
        <time>2010-05-14T10:02:33Z</time>
      </trkpt>
      <trkpt lat="48.67562" lon="1.72233">
        <ele>155</ele>
        <time>2010-05-14T10:02:35Z</time>
      </trkpt>
      <trkpt lat="48.67562" lon="1.72231">
        <ele>155</ele>
        <time>2010-05-14T10:02:37Z</time>
      </trkpt>
      <trkpt lat="48.67562" lon="1.72229">
        <ele>155</ele>
        <time>2010-05-14T10:02:39Z</time>
      </trkpt>
      <trkpt lat="48.67562" lon="1.72226">
        <ele>155</ele>
        <time>2010-05-14T10:02:41Z</time>
      </trkpt>
      <trkpt lat="48.67562" lon="1.72222">
        <ele>155</ele>
        <time>2010-05-14T10:02:43Z</time>
      </trkpt>
      <trkpt lat="48.67562" lon="1.72219">
        <ele>155</ele>
        <time>2010-05-14T10:02:45Z</time>
      </trkpt>
      <trkpt lat="48.67562" lon="1.72217">
        <ele>155</ele>
        <time>2010-05-14T10:02:46Z</time>
      </trkpt>
      <trkpt lat="48.67562" lon="1.72215">
        <ele>155</ele>
        <time>2010-05-14T10:02:48Z</time>
      </trkpt>
      <trkpt lat="48.67562" lon="1.72213">
        <ele>155</ele>
        <time>2010-05-14T10:02:49Z</time>
      </trkpt>
      <trkpt lat="48.67562" lon="1.72211">
        <ele>155</ele>
        <time>2010-05-14T10:02:51Z</time>
      </trkpt>
      <trkpt lat="48.67562" lon="1.72209">
        <ele>155</ele>
        <time>2010-05-14T10:02:52Z</time>
      </trkpt>
      <trkpt lat="48.67562" lon="1.72207">
        <ele>155</ele>
        <time>2010-05-14T10:02:53Z</time>
      </trkpt>
      <trkpt lat="48.67562" lon="1.72205">
        <ele>155</ele>
        <time>2010-05-14T10:02:54Z</time>
      </trkpt>
      <trkpt lat="48.67562" lon="1.72203">
        <ele>155</ele>
        <time>2010-05-14T10:02:55Z</time>
      </trkpt>
      <trkpt lat="48.67561" lon="1.72201">
        <ele>155</ele>
        <time>2010-05-14T10:02:56Z</time>
      </trkpt>
      <trkpt lat="48.6756" lon="1.72198">
        <ele>154</ele>
        <time>2010-05-14T10:02:58Z</time>
      </trkpt>
      <trkpt lat="48.6756" lon="1.72195">
        <ele>153</ele>
        <time>2010-05-14T10:02:59Z</time>
      </trkpt>
      <trkpt lat="48.67559" lon="1.72191">
        <ele>152</ele>
        <time>2010-05-14T10:03:01Z</time>
      </trkpt>
      <trkpt lat="48.67559" lon="1.72189">
        <ele>152</ele>
        <time>2010-05-14T10:03:02Z</time>
      </trkpt>
      <trkpt lat="48.67558" lon="1.72186">
        <ele>152</ele>
        <time>2010-05-14T10:03:04Z</time>
      </trkpt>
      <trkpt lat="48.67558" lon="1.72184">
        <ele>152</ele>
        <time>2010-05-14T10:03:06Z</time>
      </trkpt>
      <trkpt lat="48.67557" lon="1.72182">
        <ele>152</ele>
        <time>2010-05-14T10:03:07Z</time>
      </trkpt>
      <trkpt lat="48.67556" lon="1.72179">
        <ele>152</ele>
        <time>2010-05-14T10:03:08Z</time>
      </trkpt>
      <trkpt lat="48.67556" lon="1.72178">
        <ele>152</ele>
        <time>2010-05-14T10:03:09Z</time>
      </trkpt>
      <trkpt lat="48.67556" lon="1.72175">
        <ele>152</ele>
        <time>2010-05-14T10:03:11Z</time>
      </trkpt>
      <trkpt lat="48.67556" lon="1.72172">
        <ele>152</ele>
        <time>2010-05-14T10:03:13Z</time>
      </trkpt>
      <trkpt lat="48.67556" lon="1.7217">
        <ele>152</ele>
        <time>2010-05-14T10:03:15Z</time>
      </trkpt>
      <trkpt lat="48.67555" lon="1.72168">
        <ele>152</ele>
        <time>2010-05-14T10:03:16Z</time>
      </trkpt>
      <trkpt lat="48.67555" lon="1.72166">
        <ele>152</ele>
        <time>2010-05-14T10:03:17Z</time>
      </trkpt>
      <trkpt lat="48.67555" lon="1.72164">
        <ele>152</ele>
        <time>2010-05-14T10:03:18Z</time>
      </trkpt>
      <trkpt lat="48.67554" lon="1.72162">
        <ele>152</ele>
        <time>2010-05-14T10:03:19Z</time>
      </trkpt>
      <trkpt lat="48.67554" lon="1.72159">
        <ele>152</ele>
        <time>2010-05-14T10:03:20Z</time>
      </trkpt>
      <trkpt lat="48.67554" lon="1.72157">
        <ele>152</ele>
        <time>2010-05-14T10:03:21Z</time>
      </trkpt>
      <trkpt lat="48.67553" lon="1.72151">
        <ele>152</ele>
        <time>2010-05-14T10:03:22Z</time>
      </trkpt>
      <trkpt lat="48.67553" lon="1.72149">
        <ele>152</ele>
        <time>2010-05-14T10:03:23Z</time>
      </trkpt>
      <trkpt lat="48.67552" lon="1.72145">
        <ele>152</ele>
        <time>2010-05-14T10:03:24Z</time>
      </trkpt>
      <trkpt lat="48.67551" lon="1.72142">
        <ele>152</ele>
        <time>2010-05-14T10:03:25Z</time>
      </trkpt>
      <trkpt lat="48.6755" lon="1.72139">
        <ele>152</ele>
        <time>2010-05-14T10:03:26Z</time>
      </trkpt>
      <trkpt lat="48.6755" lon="1.72136">
        <ele>152</ele>
        <time>2010-05-14T10:03:27Z</time>
      </trkpt>
      <trkpt lat="48.67549" lon="1.72133">
        <ele>152</ele>
        <time>2010-05-14T10:03:28Z</time>
      </trkpt>
      <trkpt lat="48.67549" lon="1.72131">
        <ele>152</ele>
        <time>2010-05-14T10:03:29Z</time>
      </trkpt>
      <trkpt lat="48.67548" lon="1.72128">
        <ele>152</ele>
        <time>2010-05-14T10:03:30Z</time>
      </trkpt>
      <trkpt lat="48.67547" lon="1.72123">
        <ele>152</ele>
        <time>2010-05-14T10:03:31Z</time>
      </trkpt>
      <trkpt lat="48.67545" lon="1.72119">
        <ele>152</ele>
        <time>2010-05-14T10:03:32Z</time>
      </trkpt>
      <trkpt lat="48.67545" lon="1.72115">
        <ele>152</ele>
        <time>2010-05-14T10:03:34Z</time>
      </trkpt>
      <trkpt lat="48.67544" lon="1.72112">
        <ele>152</ele>
        <time>2010-05-14T10:03:35Z</time>
      </trkpt>
      <trkpt lat="48.67544" lon="1.72108">
        <ele>152</ele>
        <time>2010-05-14T10:03:36Z</time>
      </trkpt>
      <trkpt lat="48.67544" lon="1.72106">
        <ele>152</ele>
        <time>2010-05-14T10:03:37Z</time>
      </trkpt>
      <trkpt lat="48.67544" lon="1.72104">
        <ele>152</ele>
        <time>2010-05-14T10:03:38Z</time>
      </trkpt>
      <trkpt lat="48.67544" lon="1.72102">
        <ele>152</ele>
        <time>2010-05-14T10:03:39Z</time>
      </trkpt>
      <trkpt lat="48.67544" lon="1.72099">
        <ele>152</ele>
        <time>2010-05-14T10:03:40Z</time>
      </trkpt>
      <trkpt lat="48.67544" lon="1.72097">
        <ele>152</ele>
        <time>2010-05-14T10:03:41Z</time>
      </trkpt>
      <trkpt lat="48.67543" lon="1.72094">
        <ele>152</ele>
        <time>2010-05-14T10:03:42Z</time>
      </trkpt>
      <trkpt lat="48.67543" lon="1.72092">
        <ele>152</ele>
        <time>2010-05-14T10:03:43Z</time>
      </trkpt>
      <trkpt lat="48.67543" lon="1.72089">
        <ele>152</ele>
        <time>2010-05-14T10:03:44Z</time>
      </trkpt>
      <trkpt lat="48.67542" lon="1.72086">
        <ele>152</ele>
        <time>2010-05-14T10:03:45Z</time>
      </trkpt>
      <trkpt lat="48.67541" lon="1.72083">
        <ele>152</ele>
        <time>2010-05-14T10:03:46Z</time>
      </trkpt>
      <trkpt lat="48.67539" lon="1.72079">
        <ele>152</ele>
        <time>2010-05-14T10:03:47Z</time>
      </trkpt>
      <trkpt lat="48.67538" lon="1.72075">
        <ele>152</ele>
        <time>2010-05-14T10:03:48Z</time>
      </trkpt>
      <trkpt lat="48.67537" lon="1.72071">
        <ele>152</ele>
        <time>2010-05-14T10:03:49Z</time>
      </trkpt>
      <trkpt lat="48.67537" lon="1.72069">
        <ele>152</ele>
        <time>2010-05-14T10:03:50Z</time>
      </trkpt>
      <trkpt lat="48.67536" lon="1.72065">
        <ele>152</ele>
        <time>2010-05-14T10:03:51Z</time>
      </trkpt>
      <trkpt lat="48.67536" lon="1.72062">
        <ele>151</ele>
        <time>2010-05-14T10:03:52Z</time>
      </trkpt>
      <trkpt lat="48.67536" lon="1.72058">
        <ele>150</ele>
        <time>2010-05-14T10:03:53Z</time>
      </trkpt>
      <trkpt lat="48.67536" lon="1.72056">
        <ele>149</ele>
        <time>2010-05-14T10:03:54Z</time>
      </trkpt>
      <trkpt lat="48.67535" lon="1.72052">
        <ele>149</ele>
        <time>2010-05-14T10:03:55Z</time>
      </trkpt>
      <trkpt lat="48.67535" lon="1.72048">
        <ele>148</ele>
        <time>2010-05-14T10:03:56Z</time>
      </trkpt>
      <trkpt lat="48.67533" lon="1.72042">
        <ele>148</ele>
        <time>2010-05-14T10:03:57Z</time>
      </trkpt>
      <trkpt lat="48.67533" lon="1.72039">
        <ele>148</ele>
        <time>2010-05-14T10:03:58Z</time>
      </trkpt>
      <trkpt lat="48.67533" lon="1.72037">
        <ele>148</ele>
        <time>2010-05-14T10:04:00Z</time>
      </trkpt>
      <trkpt lat="48.67533" lon="1.72035">
        <ele>147</ele>
        <time>2010-05-14T10:04:01Z</time>
      </trkpt>
      <trkpt lat="48.67532" lon="1.72032">
        <ele>147</ele>
        <time>2010-05-14T10:04:03Z</time>
      </trkpt>
      <trkpt lat="48.67532" lon="1.7203">
        <ele>147</ele>
        <time>2010-05-14T10:04:04Z</time>
      </trkpt>
      <trkpt lat="48.67532" lon="1.72028">
        <ele>147</ele>
        <time>2010-05-14T10:04:05Z</time>
      </trkpt>
      <trkpt lat="48.67532" lon="1.72026">
        <ele>147</ele>
        <time>2010-05-14T10:04:06Z</time>
      </trkpt>
      <trkpt lat="48.6753" lon="1.72022">
        <ele>147</ele>
        <time>2010-05-14T10:04:07Z</time>
      </trkpt>
      <trkpt lat="48.67529" lon="1.72018">
        <ele>147</ele>
        <time>2010-05-14T10:04:08Z</time>
      </trkpt>
      <trkpt lat="48.67528" lon="1.72014">
        <ele>147</ele>
        <time>2010-05-14T10:04:09Z</time>
      </trkpt>
      <trkpt lat="48.67526" lon="1.7201">
        <ele>147</ele>
        <time>2010-05-14T10:04:10Z</time>
      </trkpt>
      <trkpt lat="48.67525" lon="1.72007">
        <ele>147</ele>
        <time>2010-05-14T10:04:11Z</time>
      </trkpt>
      <trkpt lat="48.67524" lon="1.72004">
        <ele>147</ele>
        <time>2010-05-14T10:04:12Z</time>
      </trkpt>
      <trkpt lat="48.67523" lon="1.71999">
        <ele>147</ele>
        <time>2010-05-14T10:04:14Z</time>
      </trkpt>
      <trkpt lat="48.67523" lon="1.71996">
        <ele>147</ele>
        <time>2010-05-14T10:04:15Z</time>
      </trkpt>
      <trkpt lat="48.67523" lon="1.71993">
        <ele>147</ele>
        <time>2010-05-14T10:04:17Z</time>
      </trkpt>
      <trkpt lat="48.67522" lon="1.71991">
        <ele>147</ele>
        <time>2010-05-14T10:04:18Z</time>
      </trkpt>
      <trkpt lat="48.67521" lon="1.71988">
        <ele>147</ele>
        <time>2010-05-14T10:04:19Z</time>
      </trkpt>
      <trkpt lat="48.67521" lon="1.71984">
        <ele>147</ele>
        <time>2010-05-14T10:04:21Z</time>
      </trkpt>
      <trkpt lat="48.67521" lon="1.71983">
        <ele>147</ele>
        <time>2010-05-14T10:04:22Z</time>
      </trkpt>
      <trkpt lat="48.67521" lon="1.7198">
        <ele>146</ele>
        <time>2010-05-14T10:04:24Z</time>
      </trkpt>
      <trkpt lat="48.67521" lon="1.71978">
        <ele>146</ele>
        <time>2010-05-14T10:04:25Z</time>
      </trkpt>
      <trkpt lat="48.67521" lon="1.71976">
        <ele>146</ele>
        <time>2010-05-14T10:04:26Z</time>
      </trkpt>
      <trkpt lat="48.67521" lon="1.71974">
        <ele>145</ele>
        <time>2010-05-14T10:04:27Z</time>
      </trkpt>
      <trkpt lat="48.67521" lon="1.71972">
        <ele>145</ele>
        <time>2010-05-14T10:04:28Z</time>
      </trkpt>
      <trkpt lat="48.6752" lon="1.7197">
        <ele>145</ele>
        <time>2010-05-14T10:04:29Z</time>
      </trkpt>
      <trkpt lat="48.6752" lon="1.71967">
        <ele>145</ele>
        <time>2010-05-14T10:04:31Z</time>
      </trkpt>
      <trkpt lat="48.67519" lon="1.71964">
        <ele>145</ele>
        <time>2010-05-14T10:04:33Z</time>
      </trkpt>
      <trkpt lat="48.67519" lon="1.71961">
        <ele>145</ele>
        <time>2010-05-14T10:04:35Z</time>
      </trkpt>
      <trkpt lat="48.6752" lon="1.71957">
        <ele>145</ele>
        <time>2010-05-14T10:04:37Z</time>
      </trkpt>
      <trkpt lat="48.6752" lon="1.71955">
        <ele>145</ele>
        <time>2010-05-14T10:04:38Z</time>
      </trkpt>
      <trkpt lat="48.6752" lon="1.71953">
        <ele>145</ele>
        <time>2010-05-14T10:04:39Z</time>
      </trkpt>
      <trkpt lat="48.6752" lon="1.71951">
        <ele>145</ele>
        <time>2010-05-14T10:04:40Z</time>
      </trkpt>
      <trkpt lat="48.67519" lon="1.71947">
        <ele>145</ele>
        <time>2010-05-14T10:04:41Z</time>
      </trkpt>
      <trkpt lat="48.67519" lon="1.71944">
        <ele>145</ele>
        <time>2010-05-14T10:04:42Z</time>
      </trkpt>
      <trkpt lat="48.67519" lon="1.71942">
        <ele>146</ele>
        <time>2010-05-14T10:04:43Z</time>
      </trkpt>
      <trkpt lat="48.6752" lon="1.71941">
        <ele>146</ele>
        <time>2010-05-14T10:04:44Z</time>
      </trkpt>
      <trkpt lat="48.6752" lon="1.71939">
        <ele>147</ele>
        <time>2010-05-14T10:04:45Z</time>
      </trkpt>
      <trkpt lat="48.67521" lon="1.71937">
        <ele>148</ele>
        <time>2010-05-14T10:04:46Z</time>
      </trkpt>
      <trkpt lat="48.67521" lon="1.71934">
        <ele>149</ele>
        <time>2010-05-14T10:04:47Z</time>
      </trkpt>
      <trkpt lat="48.6752" lon="1.71931">
        <ele>149</ele>
        <time>2010-05-14T10:04:48Z</time>
      </trkpt>
      <trkpt lat="48.67519" lon="1.71929">
        <ele>150</ele>
        <time>2010-05-14T10:04:49Z</time>
      </trkpt>
      <trkpt lat="48.67518" lon="1.71927">
        <ele>150</ele>
        <time>2010-05-14T10:04:50Z</time>
      </trkpt>
      <trkpt lat="48.67517" lon="1.71925">
        <ele>151</ele>
        <time>2010-05-14T10:04:51Z</time>
      </trkpt>
      <trkpt lat="48.67516" lon="1.71923">
        <ele>151</ele>
        <time>2010-05-14T10:04:52Z</time>
      </trkpt>
      <trkpt lat="48.67515" lon="1.71921">
        <ele>152</ele>
        <time>2010-05-14T10:04:53Z</time>
      </trkpt>
      <trkpt lat="48.67513" lon="1.71918">
        <ele>152</ele>
        <time>2010-05-14T10:04:54Z</time>
      </trkpt>
      <trkpt lat="48.67512" lon="1.71916">
        <ele>152</ele>
        <time>2010-05-14T10:04:55Z</time>
      </trkpt>
      <trkpt lat="48.6751" lon="1.71912">
        <ele>152</ele>
        <time>2010-05-14T10:04:56Z</time>
      </trkpt>
      <trkpt lat="48.67508" lon="1.71908">
        <ele>152</ele>
        <time>2010-05-14T10:04:57Z</time>
      </trkpt>
      <trkpt lat="48.67507" lon="1.71905">
        <ele>152</ele>
        <time>2010-05-14T10:04:58Z</time>
      </trkpt>
      <trkpt lat="48.67505" lon="1.71901">
        <ele>152</ele>
        <time>2010-05-14T10:04:59Z</time>
      </trkpt>
      <trkpt lat="48.67502" lon="1.71899">
        <ele>152</ele>
        <time>2010-05-14T10:05:00Z</time>
      </trkpt>
      <trkpt lat="48.675" lon="1.71896">
        <ele>152</ele>
        <time>2010-05-14T10:05:01Z</time>
      </trkpt>
      <trkpt lat="48.67498" lon="1.71893">
        <ele>152</ele>
        <time>2010-05-14T10:05:02Z</time>
      </trkpt>
      <trkpt lat="48.67495" lon="1.7189">
        <ele>152</ele>
        <time>2010-05-14T10:05:03Z</time>
      </trkpt>
      <trkpt lat="48.67493" lon="1.71887">
        <ele>152</ele>
        <time>2010-05-14T10:05:04Z</time>
      </trkpt>
      <trkpt lat="48.6749" lon="1.71885">
        <ele>151</ele>
        <time>2010-05-14T10:05:05Z</time>
      </trkpt>
      <trkpt lat="48.67488" lon="1.71882">
        <ele>151</ele>
        <time>2010-05-14T10:05:06Z</time>
      </trkpt>
      <trkpt lat="48.67486" lon="1.71879">
        <ele>151</ele>
        <time>2010-05-14T10:05:07Z</time>
      </trkpt>
      <trkpt lat="48.67484" lon="1.71876">
        <ele>151</ele>
        <time>2010-05-14T10:05:08Z</time>
      </trkpt>
      <trkpt lat="48.67482" lon="1.71871">
        <ele>151</ele>
        <time>2010-05-14T10:05:09Z</time>
      </trkpt>
      <trkpt lat="48.6748" lon="1.71868">
        <ele>151</ele>
        <time>2010-05-14T10:05:10Z</time>
      </trkpt>
      <trkpt lat="48.67476" lon="1.71862">
        <ele>151</ele>
        <time>2010-05-14T10:05:11Z</time>
      </trkpt>
      <trkpt lat="48.67474" lon="1.71858">
        <ele>151</ele>
        <time>2010-05-14T10:05:12Z</time>
      </trkpt>
      <trkpt lat="48.6747" lon="1.71854">
        <ele>151</ele>
        <time>2010-05-14T10:05:13Z</time>
      </trkpt>
      <trkpt lat="48.67468" lon="1.71851">
        <ele>151</ele>
        <time>2010-05-14T10:05:14Z</time>
      </trkpt>
      <trkpt lat="48.67465" lon="1.71848">
        <ele>151</ele>
        <time>2010-05-14T10:05:15Z</time>
      </trkpt>
      <trkpt lat="48.67462" lon="1.71844">
        <ele>151</ele>
        <time>2010-05-14T10:05:16Z</time>
      </trkpt>
      <trkpt lat="48.67459" lon="1.7184">
        <ele>151</ele>
        <time>2010-05-14T10:05:17Z</time>
      </trkpt>
      <trkpt lat="48.67454" lon="1.71835">
        <ele>151</ele>
        <time>2010-05-14T10:05:18Z</time>
      </trkpt>
      <trkpt lat="48.6745" lon="1.71831">
        <ele>151</ele>
        <time>2010-05-14T10:05:19Z</time>
      </trkpt>
      <trkpt lat="48.67446" lon="1.71826">
        <ele>151</ele>
        <time>2010-05-14T10:05:20Z</time>
      </trkpt>
      <trkpt lat="48.67442" lon="1.71822">
        <ele>151</ele>
        <time>2010-05-14T10:05:21Z</time>
      </trkpt>
      <trkpt lat="48.67439" lon="1.71818">
        <ele>151</ele>
        <time>2010-05-14T10:05:22Z</time>
      </trkpt>
      <trkpt lat="48.67436" lon="1.71815">
        <ele>150</ele>
        <time>2010-05-14T10:05:23Z</time>
      </trkpt>
      <trkpt lat="48.67433" lon="1.71812">
        <ele>150</ele>
        <time>2010-05-14T10:05:24Z</time>
      </trkpt>
      <trkpt lat="48.67429" lon="1.7181">
        <ele>149</ele>
        <time>2010-05-14T10:05:25Z</time>
      </trkpt>
      <trkpt lat="48.67425" lon="1.71807">
        <ele>149</ele>
        <time>2010-05-14T10:05:26Z</time>
      </trkpt>
      <trkpt lat="48.67422" lon="1.71804">
        <ele>149</ele>
        <time>2010-05-14T10:05:27Z</time>
      </trkpt>
      <trkpt lat="48.67418" lon="1.71801">
        <ele>149</ele>
        <time>2010-05-14T10:05:28Z</time>
      </trkpt>
      <trkpt lat="48.67415" lon="1.71797">
        <ele>149</ele>
        <time>2010-05-14T10:05:29Z</time>
      </trkpt>
      <trkpt lat="48.67412" lon="1.71793">
        <ele>149</ele>
        <time>2010-05-14T10:05:30Z</time>
      </trkpt>
      <trkpt lat="48.67407" lon="1.71789">
        <ele>149</ele>
        <time>2010-05-14T10:05:31Z</time>
      </trkpt>
      <trkpt lat="48.67403" lon="1.71787">
        <ele>149</ele>
        <time>2010-05-14T10:05:32Z</time>
      </trkpt>
      <trkpt lat="48.67399" lon="1.71782">
        <ele>149</ele>
        <time>2010-05-14T10:05:33Z</time>
      </trkpt>
      <trkpt lat="48.67395" lon="1.71778">
        <ele>149</ele>
        <time>2010-05-14T10:05:34Z</time>
      </trkpt>
      <trkpt lat="48.6739" lon="1.71773">
        <ele>149</ele>
        <time>2010-05-14T10:05:35Z</time>
      </trkpt>
      <trkpt lat="48.67386" lon="1.71768">
        <ele>149</ele>
        <time>2010-05-14T10:05:36Z</time>
      </trkpt>
      <trkpt lat="48.67381" lon="1.71762">
        <ele>148</ele>
        <time>2010-05-14T10:05:37Z</time>
      </trkpt>
      <trkpt lat="48.67377" lon="1.71755">
        <ele>148</ele>
        <time>2010-05-14T10:05:38Z</time>
      </trkpt>
      <trkpt lat="48.67373" lon="1.71748">
        <ele>147</ele>
        <time>2010-05-14T10:05:39Z</time>
      </trkpt>
      <trkpt lat="48.67369" lon="1.71741">
        <ele>147</ele>
        <time>2010-05-14T10:05:40Z</time>
      </trkpt>
      <trkpt lat="48.67364" lon="1.71735">
        <ele>147</ele>
        <time>2010-05-14T10:05:41Z</time>
      </trkpt>
      <trkpt lat="48.67359" lon="1.71729">
        <ele>147</ele>
        <time>2010-05-14T10:05:42Z</time>
      </trkpt>
      <trkpt lat="48.67354" lon="1.71722">
        <ele>147</ele>
        <time>2010-05-14T10:05:43Z</time>
      </trkpt>
      <trkpt lat="48.67348" lon="1.71715">
        <ele>147</ele>
        <time>2010-05-14T10:05:44Z</time>
      </trkpt>
      <trkpt lat="48.67343" lon="1.71707">
        <ele>147</ele>
        <time>2010-05-14T10:05:45Z</time>
      </trkpt>
      <trkpt lat="48.67338" lon="1.71701">
        <ele>147</ele>
        <time>2010-05-14T10:05:46Z</time>
      </trkpt>
      <trkpt lat="48.67333" lon="1.71696">
        <ele>147</ele>
        <time>2010-05-14T10:05:47Z</time>
      </trkpt>
      <trkpt lat="48.67328" lon="1.7169">
        <ele>147</ele>
        <time>2010-05-14T10:05:48Z</time>
      </trkpt>
      <trkpt lat="48.67323" lon="1.71684">
        <ele>147</ele>
        <time>2010-05-14T10:05:49Z</time>
      </trkpt>
      <trkpt lat="48.67317" lon="1.71678">
        <ele>147</ele>
        <time>2010-05-14T10:05:50Z</time>
      </trkpt>
      <trkpt lat="48.67312" lon="1.71672">
        <ele>147</ele>
        <time>2010-05-14T10:05:51Z</time>
      </trkpt>
      <trkpt lat="48.67306" lon="1.71666">
        <ele>148</ele>
        <time>2010-05-14T10:05:52Z</time>
      </trkpt>
      <trkpt lat="48.67301" lon="1.71658">
        <ele>148</ele>
        <time>2010-05-14T10:05:53Z</time>
      </trkpt>
      <trkpt lat="48.67296" lon="1.71651">
        <ele>149</ele>
        <time>2010-05-14T10:05:54Z</time>
      </trkpt>
      <trkpt lat="48.6729" lon="1.71644">
        <ele>149</ele>
        <time>2010-05-14T10:05:55Z</time>
      </trkpt>
      <trkpt lat="48.67285" lon="1.71637">
        <ele>149</ele>
        <time>2010-05-14T10:05:56Z</time>
      </trkpt>
      <trkpt lat="48.67279" lon="1.71628">
        <ele>149</ele>
        <time>2010-05-14T10:05:57Z</time>
      </trkpt>
      <trkpt lat="48.67274" lon="1.7162">
        <ele>149</ele>
        <time>2010-05-14T10:05:58Z</time>
      </trkpt>
      <trkpt lat="48.67269" lon="1.71611">
        <ele>150</ele>
        <time>2010-05-14T10:05:59Z</time>
      </trkpt>
      <trkpt lat="48.67264" lon="1.71603">
        <ele>151</ele>
        <time>2010-05-14T10:06:00Z</time>
      </trkpt>
      <trkpt lat="48.67258" lon="1.71595">
        <ele>152</ele>
        <time>2010-05-14T10:06:01Z</time>
      </trkpt>
      <trkpt lat="48.67252" lon="1.71586">
        <ele>152</ele>
        <time>2010-05-14T10:06:02Z</time>
      </trkpt>
      <trkpt lat="48.67246" lon="1.71576">
        <ele>153</ele>
        <time>2010-05-14T10:06:03Z</time>
      </trkpt>
      <trkpt lat="48.6724" lon="1.71567">
        <ele>153</ele>
        <time>2010-05-14T10:06:04Z</time>
      </trkpt>
      <trkpt lat="48.67235" lon="1.71558">
        <ele>153</ele>
        <time>2010-05-14T10:06:05Z</time>
      </trkpt>
      <trkpt lat="48.67229" lon="1.7155">
        <ele>154</ele>
        <time>2010-05-14T10:06:06Z</time>
      </trkpt>
      <trkpt lat="48.67223" lon="1.71541">
        <ele>154</ele>
        <time>2010-05-14T10:06:07Z</time>
      </trkpt>
      <trkpt lat="48.67216" lon="1.71531">
        <ele>154</ele>
        <time>2010-05-14T10:06:08Z</time>
      </trkpt>
      <trkpt lat="48.67209" lon="1.71522">
        <ele>154</ele>
        <time>2010-05-14T10:06:09Z</time>
      </trkpt>
      <trkpt lat="48.67202" lon="1.71512">
        <ele>154</ele>
        <time>2010-05-14T10:06:10Z</time>
      </trkpt>
      <trkpt lat="48.67197" lon="1.71504">
        <ele>154</ele>
        <time>2010-05-14T10:06:11Z</time>
      </trkpt>
      <trkpt lat="48.67191" lon="1.71497">
        <ele>154</ele>
        <time>2010-05-14T10:06:12Z</time>
      </trkpt>
      <trkpt lat="48.67185" lon="1.71489">
        <ele>154</ele>
        <time>2010-05-14T10:06:13Z</time>
      </trkpt>
      <trkpt lat="48.67179" lon="1.71481">
        <ele>154</ele>
        <time>2010-05-14T10:06:14Z</time>
      </trkpt>
      <trkpt lat="48.67174" lon="1.71472">
        <ele>154</ele>
        <time>2010-05-14T10:06:15Z</time>
      </trkpt>
      <trkpt lat="48.67169" lon="1.71465">
        <ele>154</ele>
        <time>2010-05-14T10:06:16Z</time>
      </trkpt>
      <trkpt lat="48.67163" lon="1.71457">
        <ele>154</ele>
        <time>2010-05-14T10:06:17Z</time>
      </trkpt>
      <trkpt lat="48.67158" lon="1.71449">
        <ele>154</ele>
        <time>2010-05-14T10:06:18Z</time>
      </trkpt>
      <trkpt lat="48.67152" lon="1.71442">
        <ele>154</ele>
        <time>2010-05-14T10:06:19Z</time>
      </trkpt>
      <trkpt lat="48.67147" lon="1.71435">
        <ele>154</ele>
        <time>2010-05-14T10:06:20Z</time>
      </trkpt>
      <trkpt lat="48.67142" lon="1.71428">
        <ele>154</ele>
        <time>2010-05-14T10:06:21Z</time>
      </trkpt>
      <trkpt lat="48.67137" lon="1.71421">
        <ele>154</ele>
        <time>2010-05-14T10:06:22Z</time>
      </trkpt>
      <trkpt lat="48.67132" lon="1.71415">
        <ele>154</ele>
        <time>2010-05-14T10:06:23Z</time>
      </trkpt>
      <trkpt lat="48.67128" lon="1.71408">
        <ele>154</ele>
        <time>2010-05-14T10:06:24Z</time>
      </trkpt>
      <trkpt lat="48.67123" lon="1.71402">
        <ele>154</ele>
        <time>2010-05-14T10:06:25Z</time>
      </trkpt>
      <trkpt lat="48.67119" lon="1.71395">
        <ele>154</ele>
        <time>2010-05-14T10:06:26Z</time>
      </trkpt>
      <trkpt lat="48.67115" lon="1.71388">
        <ele>154</ele>
        <time>2010-05-14T10:06:27Z</time>
      </trkpt>
      <trkpt lat="48.67111" lon="1.71382">
        <ele>154</ele>
        <time>2010-05-14T10:06:28Z</time>
      </trkpt>
      <trkpt lat="48.67106" lon="1.71376">
        <ele>154</ele>
        <time>2010-05-14T10:06:29Z</time>
      </trkpt>
      <trkpt lat="48.67102" lon="1.71371">
        <ele>154</ele>
        <time>2010-05-14T10:06:30Z</time>
      </trkpt>
      <trkpt lat="48.67099" lon="1.71367">
        <ele>154</ele>
        <time>2010-05-14T10:06:31Z</time>
      </trkpt>
      <trkpt lat="48.67096" lon="1.71363">
        <ele>154</ele>
        <time>2010-05-14T10:06:32Z</time>
      </trkpt>
      <trkpt lat="48.67094" lon="1.7136">
        <ele>154</ele>
        <time>2010-05-14T10:06:33Z</time>
      </trkpt>
      <trkpt lat="48.67092" lon="1.71357">
        <ele>154</ele>
        <time>2010-05-14T10:06:34Z</time>
      </trkpt>
      <trkpt lat="48.67089" lon="1.71352">
        <ele>154</ele>
        <time>2010-05-14T10:06:35Z</time>
      </trkpt>
      <trkpt lat="48.67087" lon="1.7135">
        <ele>154</ele>
        <time>2010-05-14T10:06:36Z</time>
      </trkpt>
      <trkpt lat="48.67085" lon="1.71347">
        <ele>154</ele>
        <time>2010-05-14T10:06:37Z</time>
      </trkpt>
      <trkpt lat="48.67083" lon="1.71343">
        <ele>154</ele>
        <time>2010-05-14T10:06:38Z</time>
      </trkpt>
      <trkpt lat="48.67081" lon="1.71341">
        <ele>154</ele>
        <time>2010-05-14T10:06:39Z</time>
      </trkpt>
      <trkpt lat="48.6708" lon="1.71338">
        <ele>153</ele>
        <time>2010-05-14T10:06:41Z</time>
      </trkpt>
      <trkpt lat="48.67078" lon="1.71333">
        <ele>153</ele>
        <time>2010-05-14T10:06:42Z</time>
      </trkpt>
      <trkpt lat="48.67079" lon="1.71334">
        <ele>152</ele>
        <time>2010-05-14T10:06:45Z</time>
      </trkpt>
      <trkpt lat="48.6708" lon="1.71337">
        <ele>152</ele>
        <time>2010-05-14T10:06:46Z</time>
      </trkpt>
      <trkpt lat="48.67082" lon="1.71341">
        <ele>151</ele>
        <time>2010-05-14T10:06:47Z</time>
      </trkpt>
      <trkpt lat="48.67083" lon="1.71344">
        <ele>150</ele>
        <time>2010-05-14T10:06:48Z</time>
      </trkpt>
      <trkpt lat="48.67085" lon="1.71347">
        <ele>150</ele>
        <time>2010-05-14T10:06:49Z</time>
      </trkpt>
      <trkpt lat="48.67086" lon="1.7135">
        <ele>150</ele>
        <time>2010-05-14T10:06:50Z</time>
      </trkpt>
      <trkpt lat="48.67087" lon="1.71353">
        <ele>150</ele>
        <time>2010-05-14T10:06:51Z</time>
      </trkpt>
      <trkpt lat="48.67088" lon="1.71357">
        <ele>149</ele>
        <time>2010-05-14T10:06:53Z</time>
      </trkpt>
      <trkpt lat="48.6709" lon="1.71359">
        <ele>149</ele>
        <time>2010-05-14T10:06:54Z</time>
      </trkpt>
      <trkpt lat="48.67093" lon="1.71363">
        <ele>149</ele>
        <time>2010-05-14T10:06:55Z</time>
      </trkpt>
      <trkpt lat="48.67095" lon="1.71366">
        <ele>149</ele>
        <time>2010-05-14T10:06:56Z</time>
      </trkpt>
      <trkpt lat="48.67098" lon="1.71369">
        <ele>149</ele>
        <time>2010-05-14T10:06:57Z</time>
      </trkpt>
      <trkpt lat="48.67101" lon="1.71372">
        <ele>149</ele>
        <time>2010-05-14T10:06:58Z</time>
      </trkpt>
      <trkpt lat="48.67104" lon="1.71375">
        <ele>149</ele>
        <time>2010-05-14T10:06:59Z</time>
      </trkpt>
      <trkpt lat="48.67107" lon="1.71377">
        <ele>149</ele>
        <time>2010-05-14T10:07:00Z</time>
      </trkpt>
      <trkpt lat="48.6711" lon="1.71379">
        <ele>148</ele>
        <time>2010-05-14T10:07:01Z</time>
      </trkpt>
      <trkpt lat="48.67113" lon="1.71381">
        <ele>147</ele>
        <time>2010-05-14T10:07:02Z</time>
      </trkpt>
      <trkpt lat="48.67117" lon="1.71385">
        <ele>146</ele>
        <time>2010-05-14T10:07:03Z</time>
      </trkpt>
      <trkpt lat="48.67119" lon="1.71388">
        <ele>146</ele>
        <time>2010-05-14T10:07:04Z</time>
      </trkpt>
      <trkpt lat="48.67121" lon="1.71391">
        <ele>146</ele>
        <time>2010-05-14T10:07:05Z</time>
      </trkpt>
      <trkpt lat="48.67123" lon="1.71395">
        <ele>146</ele>
        <time>2010-05-14T10:07:06Z</time>
      </trkpt>
      <trkpt lat="48.67126" lon="1.71398">
        <ele>145</ele>
        <time>2010-05-14T10:07:07Z</time>
      </trkpt>
      <trkpt lat="48.67128" lon="1.714">
        <ele>145</ele>
        <time>2010-05-14T10:07:08Z</time>
      </trkpt>
      <trkpt lat="48.67131" lon="1.71402">
        <ele>145</ele>
        <time>2010-05-14T10:07:09Z</time>
      </trkpt>
      <trkpt lat="48.67133" lon="1.71406">
        <ele>145</ele>
        <time>2010-05-14T10:07:10Z</time>
      </trkpt>
      <trkpt lat="48.67135" lon="1.71409">
        <ele>145</ele>
        <time>2010-05-14T10:07:11Z</time>
      </trkpt>
      <trkpt lat="48.67136" lon="1.71412">
        <ele>145</ele>
        <time>2010-05-14T10:07:12Z</time>
      </trkpt>
      <trkpt lat="48.67136" lon="1.71414">
        <ele>145</ele>
        <time>2010-05-14T10:07:13Z</time>
      </trkpt>
      <trkpt lat="48.67136" lon="1.71416">
        <ele>145</ele>
        <time>2010-05-14T10:07:15Z</time>
      </trkpt>
      <trkpt lat="48.67134" lon="1.71417">
        <ele>145</ele>
        <time>2010-05-14T10:07:17Z</time>
      </trkpt>
      <trkpt lat="48.67133" lon="1.71418">
        <ele>145</ele>
        <time>2010-05-14T10:07:19Z</time>
      </trkpt>
      <trkpt lat="48.67131" lon="1.7142">
        <ele>144</ele>
        <time>2010-05-14T10:07:21Z</time>
      </trkpt>
      <trkpt lat="48.6713" lon="1.71421">
        <ele>144</ele>
        <time>2010-05-14T10:07:22Z</time>
      </trkpt>
      <trkpt lat="48.67129" lon="1.7142">
        <ele>143</ele>
        <time>2010-05-14T10:07:23Z</time>
      </trkpt>
      <trkpt lat="48.67127" lon="1.71421">
        <ele>143</ele>
        <time>2010-05-14T10:07:24Z</time>
      </trkpt>
      <trkpt lat="48.67126" lon="1.71422">
        <ele>143</ele>
        <time>2010-05-14T10:07:25Z</time>
      </trkpt>
      <trkpt lat="48.67124" lon="1.71422">
        <ele>142</ele>
        <time>2010-05-14T10:07:26Z</time>
      </trkpt>
      <trkpt lat="48.67123" lon="1.71423">
        <ele>142</ele>
        <time>2010-05-14T10:07:27Z</time>
      </trkpt>
      <trkpt lat="48.67122" lon="1.71423">
        <ele>142</ele>
        <time>2010-05-14T10:07:28Z</time>
      </trkpt>
      <trkpt lat="48.6712" lon="1.71424">
        <ele>141</ele>
        <time>2010-05-14T10:07:29Z</time>
      </trkpt>
      <trkpt lat="48.67118" lon="1.71426">
        <ele>140</ele>
        <time>2010-05-14T10:07:30Z</time>
      </trkpt>
      <trkpt lat="48.67116" lon="1.71428">
        <ele>140</ele>
        <time>2010-05-14T10:07:31Z</time>
      </trkpt>
      <trkpt lat="48.67114" lon="1.71429">
        <ele>140</ele>
        <time>2010-05-14T10:07:32Z</time>
      </trkpt>
      <trkpt lat="48.67111" lon="1.71429">
        <ele>139</ele>
        <time>2010-05-14T10:07:33Z</time>
      </trkpt>
      <trkpt lat="48.67109" lon="1.7143">
        <ele>139</ele>
        <time>2010-05-14T10:07:34Z</time>
      </trkpt>
      <trkpt lat="48.67105" lon="1.71432">
        <ele>139</ele>
        <time>2010-05-14T10:07:35Z</time>
      </trkpt>
      <trkpt lat="48.67102" lon="1.71434">
        <ele>139</ele>
        <time>2010-05-14T10:07:36Z</time>
      </trkpt>
      <trkpt lat="48.67098" lon="1.71437">
        <ele>139</ele>
        <time>2010-05-14T10:07:37Z</time>
      </trkpt>
      <trkpt lat="48.67094" lon="1.7144">
        <ele>139</ele>
        <time>2010-05-14T10:07:38Z</time>
      </trkpt>
      <trkpt lat="48.67091" lon="1.71443">
        <ele>139</ele>
        <time>2010-05-14T10:07:39Z</time>
      </trkpt>
      <trkpt lat="48.67087" lon="1.71445">
        <ele>139</ele>
        <time>2010-05-14T10:07:40Z</time>
      </trkpt>
      <trkpt lat="48.67082" lon="1.71447">
        <ele>139</ele>
        <time>2010-05-14T10:07:41Z</time>
      </trkpt>
      <trkpt lat="48.67077" lon="1.7145">
        <ele>139</ele>
        <time>2010-05-14T10:07:42Z</time>
      </trkpt>
      <trkpt lat="48.67073" lon="1.71453">
        <ele>139</ele>
        <time>2010-05-14T10:07:43Z</time>
      </trkpt>
      <trkpt lat="48.67069" lon="1.71457">
        <ele>139</ele>
        <time>2010-05-14T10:07:44Z</time>
      </trkpt>
      <trkpt lat="48.67064" lon="1.71461">
        <ele>139</ele>
        <time>2010-05-14T10:07:45Z</time>
      </trkpt>
      <trkpt lat="48.67058" lon="1.71465">
        <ele>139</ele>
        <time>2010-05-14T10:07:46Z</time>
      </trkpt>
      <trkpt lat="48.67052" lon="1.71469">
        <ele>139</ele>
        <time>2010-05-14T10:07:47Z</time>
      </trkpt>
      <trkpt lat="48.67046" lon="1.71472">
        <ele>139</ele>
        <time>2010-05-14T10:07:48Z</time>
      </trkpt>
      <trkpt lat="48.67039" lon="1.71476">
        <ele>139</ele>
        <time>2010-05-14T10:07:49Z</time>
      </trkpt>
      <trkpt lat="48.67033" lon="1.7148">
        <ele>139</ele>
        <time>2010-05-14T10:07:50Z</time>
      </trkpt>
      <trkpt lat="48.67027" lon="1.71485">
        <ele>139</ele>
        <time>2010-05-14T10:07:51Z</time>
      </trkpt>
      <trkpt lat="48.67021" lon="1.7149">
        <ele>139</ele>
        <time>2010-05-14T10:07:52Z</time>
      </trkpt>
      <trkpt lat="48.67014" lon="1.71496">
        <ele>139</ele>
        <time>2010-05-14T10:07:53Z</time>
      </trkpt>
      <trkpt lat="48.67008" lon="1.71501">
        <ele>139</ele>
        <time>2010-05-14T10:07:54Z</time>
      </trkpt>
      <trkpt lat="48.67" lon="1.71507">
        <ele>139</ele>
        <time>2010-05-14T10:07:55Z</time>
      </trkpt>
      <trkpt lat="48.66993" lon="1.71512">
        <ele>140</ele>
        <time>2010-05-14T10:07:56Z</time>
      </trkpt>
      <trkpt lat="48.66987" lon="1.71514">
        <ele>141</ele>
        <time>2010-05-14T10:07:57Z</time>
      </trkpt>
      <trkpt lat="48.66982" lon="1.71516">
        <ele>142</ele>
        <time>2010-05-14T10:07:58Z</time>
      </trkpt>
      <trkpt lat="48.66976" lon="1.71518">
        <ele>143</ele>
        <time>2010-05-14T10:07:59Z</time>
      </trkpt>
      <trkpt lat="48.6697" lon="1.7152">
        <ele>143</ele>
        <time>2010-05-14T10:08:00Z</time>
      </trkpt>
      <trkpt lat="48.66964" lon="1.71524">
        <ele>144</ele>
        <time>2010-05-14T10:08:01Z</time>
      </trkpt>
      <trkpt lat="48.66958" lon="1.71528">
        <ele>144</ele>
        <time>2010-05-14T10:08:02Z</time>
      </trkpt>
      <trkpt lat="48.66952" lon="1.71532">
        <ele>145</ele>
        <time>2010-05-14T10:08:03Z</time>
      </trkpt>
      <trkpt lat="48.66946" lon="1.71536">
        <ele>146</ele>
        <time>2010-05-14T10:08:04Z</time>
      </trkpt>
      <trkpt lat="48.66941" lon="1.71542">
        <ele>146</ele>
        <time>2010-05-14T10:08:05Z</time>
      </trkpt>
      <trkpt lat="48.66936" lon="1.71546">
        <ele>146</ele>
        <time>2010-05-14T10:08:06Z</time>
      </trkpt>
      <trkpt lat="48.66931" lon="1.71549">
        <ele>146</ele>
        <time>2010-05-14T10:08:07Z</time>
      </trkpt>
      <trkpt lat="48.66925" lon="1.71551">
        <ele>146</ele>
        <time>2010-05-14T10:08:08Z</time>
      </trkpt>
      <trkpt lat="48.66919" lon="1.71555">
        <ele>146</ele>
        <time>2010-05-14T10:08:09Z</time>
      </trkpt>
      <trkpt lat="48.66912" lon="1.7156">
        <ele>146</ele>
        <time>2010-05-14T10:08:10Z</time>
      </trkpt>
      <trkpt lat="48.66906" lon="1.71563">
        <ele>146</ele>
        <time>2010-05-14T10:08:11Z</time>
      </trkpt>
      <trkpt lat="48.669" lon="1.71565">
        <ele>146</ele>
        <time>2010-05-14T10:08:12Z</time>
      </trkpt>
      <trkpt lat="48.66893" lon="1.71569">
        <ele>146</ele>
        <time>2010-05-14T10:08:13Z</time>
      </trkpt>
      <trkpt lat="48.66886" lon="1.71572">
        <ele>146</ele>
        <time>2010-05-14T10:08:14Z</time>
      </trkpt>
      <trkpt lat="48.66879" lon="1.71576">
        <ele>146</ele>
        <time>2010-05-14T10:08:15Z</time>
      </trkpt>
      <trkpt lat="48.66873" lon="1.7158">
        <ele>146</ele>
        <time>2010-05-14T10:08:16Z</time>
      </trkpt>
      <trkpt lat="48.66867" lon="1.71584">
        <ele>146</ele>
        <time>2010-05-14T10:08:17Z</time>
      </trkpt>
      <trkpt lat="48.6686" lon="1.7159">
        <ele>146</ele>
        <time>2010-05-14T10:08:18Z</time>
      </trkpt>
      <trkpt lat="48.66853" lon="1.71595">
        <ele>146</ele>
        <time>2010-05-14T10:08:19Z</time>
      </trkpt>
      <trkpt lat="48.66846" lon="1.71599">
        <ele>146</ele>
        <time>2010-05-14T10:08:20Z</time>
      </trkpt>
      <trkpt lat="48.66839" lon="1.71604">
        <ele>146</ele>
        <time>2010-05-14T10:08:21Z</time>
      </trkpt>
      <trkpt lat="48.66832" lon="1.71608">
        <ele>146</ele>
        <time>2010-05-14T10:08:22Z</time>
      </trkpt>
      <trkpt lat="48.66825" lon="1.71614">
        <ele>146</ele>
        <time>2010-05-14T10:08:23Z</time>
      </trkpt>
      <trkpt lat="48.66821" lon="1.71617">
        <ele>146</ele>
        <time>2010-05-14T10:08:24Z</time>
      </trkpt>
      <trkpt lat="48.66816" lon="1.71621">
        <ele>146</ele>
        <time>2010-05-14T10:08:25Z</time>
      </trkpt>
      <trkpt lat="48.66813" lon="1.71624">
        <ele>146</ele>
        <time>2010-05-14T10:08:26Z</time>
      </trkpt>
      <trkpt lat="48.6681" lon="1.71627">
        <ele>147</ele>
        <time>2010-05-14T10:08:27Z</time>
      </trkpt>
      <trkpt lat="48.66807" lon="1.71629">
        <ele>148</ele>
        <time>2010-05-14T10:08:28Z</time>
      </trkpt>
      <trkpt lat="48.66805" lon="1.7163">
        <ele>148</ele>
        <time>2010-05-14T10:08:29Z</time>
      </trkpt>
      <trkpt lat="48.66803" lon="1.71631">
        <ele>148</ele>
        <time>2010-05-14T10:08:30Z</time>
      </trkpt>
      <trkpt lat="48.66801" lon="1.71632">
        <ele>148</ele>
        <time>2010-05-14T10:08:31Z</time>
      </trkpt>
      <trkpt lat="48.668" lon="1.71632">
        <ele>148</ele>
        <time>2010-05-14T10:08:32Z</time>
      </trkpt>
      <trkpt lat="48.66798" lon="1.71633">
        <ele>148</ele>
        <time>2010-05-14T10:08:33Z</time>
      </trkpt>
      <trkpt lat="48.66796" lon="1.71634">
        <ele>148</ele>
        <time>2010-05-14T10:08:34Z</time>
      </trkpt>
      <trkpt lat="48.66794" lon="1.71635">
        <ele>148</ele>
        <time>2010-05-14T10:08:35Z</time>
      </trkpt>
      <trkpt lat="48.66792" lon="1.71636">
        <ele>148</ele>
        <time>2010-05-14T10:08:36Z</time>
      </trkpt>
      <trkpt lat="48.6679" lon="1.71637">
        <ele>148</ele>
        <time>2010-05-14T10:08:37Z</time>
      </trkpt>
      <trkpt lat="48.66789" lon="1.71637">
        <ele>148</ele>
        <time>2010-05-14T10:08:38Z</time>
      </trkpt>
      <trkpt lat="48.66787" lon="1.71638">
        <ele>148</ele>
        <time>2010-05-14T10:08:39Z</time>
      </trkpt>
      <trkpt lat="48.66786" lon="1.71639">
        <ele>148</ele>
        <time>2010-05-14T10:08:40Z</time>
      </trkpt>
      <trkpt lat="48.66784" lon="1.71641">
        <ele>148</ele>
        <time>2010-05-14T10:08:41Z</time>
      </trkpt>
      <trkpt lat="48.66783" lon="1.71642">
        <ele>148</ele>
        <time>2010-05-14T10:08:42Z</time>
      </trkpt>
      <trkpt lat="48.66781" lon="1.71643">
        <ele>148</ele>
        <time>2010-05-14T10:08:43Z</time>
      </trkpt>
      <trkpt lat="48.66779" lon="1.71645">
        <ele>148</ele>
        <time>2010-05-14T10:08:45Z</time>
      </trkpt>
      <trkpt lat="48.66778" lon="1.71646">
        <ele>148</ele>
        <time>2010-05-14T10:08:47Z</time>
      </trkpt>
      <trkpt lat="48.66776" lon="1.71646">
        <ele>148</ele>
        <time>2010-05-14T10:08:48Z</time>
      </trkpt>
      <trkpt lat="48.66774" lon="1.71646">
        <ele>148</ele>
        <time>2010-05-14T10:08:50Z</time>
      </trkpt>
      <trkpt lat="48.66773" lon="1.71646">
        <ele>148</ele>
        <time>2010-05-14T10:08:51Z</time>
      </trkpt>
      <trkpt lat="48.66771" lon="1.71647">
        <ele>148</ele>
        <time>2010-05-14T10:08:53Z</time>
      </trkpt>
      <trkpt lat="48.66769" lon="1.71648">
        <ele>148</ele>
        <time>2010-05-14T10:08:54Z</time>
      </trkpt>
      <trkpt lat="48.66767" lon="1.71649">
        <ele>148</ele>
        <time>2010-05-14T10:08:56Z</time>
      </trkpt>
      <trkpt lat="48.66765" lon="1.71651">
        <ele>148</ele>
        <time>2010-05-14T10:08:58Z</time>
      </trkpt>
      <trkpt lat="48.66763" lon="1.71651">
        <ele>148</ele>
        <time>2010-05-14T10:09:00Z</time>
      </trkpt>
      <trkpt lat="48.66761" lon="1.71651">
        <ele>148</ele>
        <time>2010-05-14T10:09:01Z</time>
      </trkpt>
      <trkpt lat="48.6676" lon="1.71651">
        <ele>148</ele>
        <time>2010-05-14T10:09:03Z</time>
      </trkpt>
      <trkpt lat="48.66758" lon="1.71651">
        <ele>148</ele>
        <time>2010-05-14T10:09:05Z</time>
      </trkpt>
      <trkpt lat="48.66756" lon="1.71652">
        <ele>148</ele>
        <time>2010-05-14T10:09:07Z</time>
      </trkpt>
      <trkpt lat="48.66755" lon="1.71653">
        <ele>148</ele>
        <time>2010-05-14T10:09:08Z</time>
      </trkpt>
      <trkpt lat="48.66754" lon="1.71653">
        <ele>148</ele>
        <time>2010-05-14T10:09:09Z</time>
      </trkpt>
      <trkpt lat="48.66752" lon="1.71654">
        <ele>148</ele>
        <time>2010-05-14T10:09:11Z</time>
      </trkpt>
      <trkpt lat="48.66751" lon="1.71655">
        <ele>148</ele>
        <time>2010-05-14T10:09:12Z</time>
      </trkpt>
      <trkpt lat="48.6675" lon="1.71655">
        <ele>148</ele>
        <time>2010-05-14T10:09:13Z</time>
      </trkpt>
      <trkpt lat="48.66748" lon="1.71655">
        <ele>148</ele>
        <time>2010-05-14T10:09:14Z</time>
      </trkpt>
      <trkpt lat="48.66746" lon="1.71656">
        <ele>148</ele>
        <time>2010-05-14T10:09:16Z</time>
      </trkpt>
      <trkpt lat="48.66745" lon="1.71657">
        <ele>148</ele>
        <time>2010-05-14T10:09:17Z</time>
      </trkpt>
      <trkpt lat="48.66743" lon="1.71657">
        <ele>148</ele>
        <time>2010-05-14T10:09:18Z</time>
      </trkpt>
      <trkpt lat="48.66741" lon="1.71657">
        <ele>148</ele>
        <time>2010-05-14T10:09:19Z</time>
      </trkpt>
      <trkpt lat="48.6674" lon="1.71658">
        <ele>148</ele>
        <time>2010-05-14T10:09:20Z</time>
      </trkpt>
      <trkpt lat="48.66739" lon="1.7166">
        <ele>148</ele>
        <time>2010-05-14T10:09:21Z</time>
      </trkpt>
      <trkpt lat="48.66737" lon="1.71661">
        <ele>147</ele>
        <time>2010-05-14T10:09:22Z</time>
      </trkpt>
      <trkpt lat="48.66736" lon="1.71662">
        <ele>147</ele>
        <time>2010-05-14T10:09:23Z</time>
      </trkpt>
      <trkpt lat="48.66735" lon="1.71662">
        <ele>146</ele>
        <time>2010-05-14T10:09:24Z</time>
      </trkpt>
      <trkpt lat="48.66733" lon="1.71663">
        <ele>146</ele>
        <time>2010-05-14T10:09:25Z</time>
      </trkpt>
      <trkpt lat="48.66731" lon="1.71664">
        <ele>145</ele>
        <time>2010-05-14T10:09:26Z</time>
      </trkpt>
      <trkpt lat="48.6673" lon="1.71665">
        <ele>145</ele>
        <time>2010-05-14T10:09:27Z</time>
      </trkpt>
      <trkpt lat="48.66728" lon="1.71666">
        <ele>145</ele>
        <time>2010-05-14T10:09:29Z</time>
      </trkpt>
      <trkpt lat="48.66726" lon="1.71667">
        <ele>145</ele>
        <time>2010-05-14T10:09:30Z</time>
      </trkpt>
      <trkpt lat="48.66725" lon="1.71667">
        <ele>145</ele>
        <time>2010-05-14T10:09:31Z</time>
      </trkpt>
      <trkpt lat="48.66723" lon="1.71669">
        <ele>145</ele>
        <time>2010-05-14T10:09:33Z</time>
      </trkpt>
      <trkpt lat="48.66721" lon="1.7167">
        <ele>145</ele>
        <time>2010-05-14T10:09:34Z</time>
      </trkpt>
      <trkpt lat="48.6672" lon="1.7167">
        <ele>145</ele>
        <time>2010-05-14T10:09:35Z</time>
      </trkpt>
      <trkpt lat="48.66717" lon="1.71671">
        <ele>145</ele>
        <time>2010-05-14T10:09:37Z</time>
      </trkpt>
      <trkpt lat="48.66716" lon="1.71672">
        <ele>145</ele>
        <time>2010-05-14T10:09:38Z</time>
      </trkpt>
      <trkpt lat="48.66714" lon="1.71673">
        <ele>145</ele>
        <time>2010-05-14T10:09:39Z</time>
      </trkpt>
      <trkpt lat="48.66713" lon="1.71674">
        <ele>145</ele>
        <time>2010-05-14T10:09:40Z</time>
      </trkpt>
      <trkpt lat="48.66712" lon="1.71674">
        <ele>144</ele>
        <time>2010-05-14T10:09:41Z</time>
      </trkpt>
      <trkpt lat="48.6671" lon="1.71675">
        <ele>143</ele>
        <time>2010-05-14T10:09:42Z</time>
      </trkpt>
      <trkpt lat="48.66709" lon="1.71677">
        <ele>143</ele>
        <time>2010-05-14T10:09:43Z</time>
      </trkpt>
      <trkpt lat="48.66708" lon="1.71678">
        <ele>143</ele>
        <time>2010-05-14T10:09:44Z</time>
      </trkpt>
      <trkpt lat="48.66706" lon="1.71679">
        <ele>142</ele>
        <time>2010-05-14T10:09:45Z</time>
      </trkpt>
      <trkpt lat="48.66705" lon="1.7168">
        <ele>142</ele>
        <time>2010-05-14T10:09:46Z</time>
      </trkpt>
      <trkpt lat="48.66703" lon="1.7168">
        <ele>142</ele>
        <time>2010-05-14T10:09:47Z</time>
      </trkpt>
      <trkpt lat="48.66702" lon="1.71681">
        <ele>141</ele>
        <time>2010-05-14T10:09:48Z</time>
      </trkpt>
      <trkpt lat="48.66701" lon="1.71682">
        <ele>141</ele>
        <time>2010-05-14T10:09:49Z</time>
      </trkpt>
      <trkpt lat="48.66699" lon="1.71683">
        <ele>141</ele>
        <time>2010-05-14T10:09:50Z</time>
      </trkpt>
      <trkpt lat="48.66698" lon="1.71684">
        <ele>140</ele>
        <time>2010-05-14T10:09:51Z</time>
      </trkpt>
      <trkpt lat="48.66696" lon="1.71685">
        <ele>140</ele>
        <time>2010-05-14T10:09:52Z</time>
      </trkpt>
      <trkpt lat="48.66694" lon="1.71685">
        <ele>140</ele>
        <time>2010-05-14T10:09:53Z</time>
      </trkpt>
      <trkpt lat="48.66692" lon="1.71686">
        <ele>139</ele>
        <time>2010-05-14T10:09:54Z</time>
      </trkpt>
      <trkpt lat="48.66691" lon="1.71686">
        <ele>139</ele>
        <time>2010-05-14T10:09:55Z</time>
      </trkpt>
      <trkpt lat="48.66689" lon="1.71687">
        <ele>139</ele>
        <time>2010-05-14T10:09:56Z</time>
      </trkpt>
      <trkpt lat="48.66687" lon="1.71689">
        <ele>139</ele>
        <time>2010-05-14T10:09:57Z</time>
      </trkpt>
      <trkpt lat="48.66686" lon="1.7169">
        <ele>139</ele>
        <time>2010-05-14T10:09:58Z</time>
      </trkpt>
      <trkpt lat="48.66684" lon="1.71691">
        <ele>138</ele>
        <time>2010-05-14T10:09:59Z</time>
      </trkpt>
      <trkpt lat="48.66682" lon="1.71692">
        <ele>138</ele>
        <time>2010-05-14T10:10:00Z</time>
      </trkpt>
      <trkpt lat="48.6668" lon="1.71693">
        <ele>138</ele>
        <time>2010-05-14T10:10:01Z</time>
      </trkpt>
      <trkpt lat="48.66679" lon="1.71694">
        <ele>138</ele>
        <time>2010-05-14T10:10:02Z</time>
      </trkpt>
      <trkpt lat="48.66677" lon="1.71695">
        <ele>138</ele>
        <time>2010-05-14T10:10:03Z</time>
      </trkpt>
      <trkpt lat="48.66676" lon="1.71695">
        <ele>138</ele>
        <time>2010-05-14T10:10:04Z</time>
      </trkpt>
      <trkpt lat="48.66674" lon="1.71695">
        <ele>138</ele>
        <time>2010-05-14T10:10:05Z</time>
      </trkpt>
      <trkpt lat="48.66672" lon="1.71696">
        <ele>138</ele>
        <time>2010-05-14T10:10:06Z</time>
      </trkpt>
      <trkpt lat="48.66671" lon="1.71697">
        <ele>138</ele>
        <time>2010-05-14T10:10:07Z</time>
      </trkpt>
      <trkpt lat="48.66669" lon="1.71698">
        <ele>138</ele>
        <time>2010-05-14T10:10:08Z</time>
      </trkpt>
      <trkpt lat="48.66667" lon="1.71698">
        <ele>138</ele>
        <time>2010-05-14T10:10:09Z</time>
      </trkpt>
      <trkpt lat="48.66666" lon="1.71699">
        <ele>138</ele>
        <time>2010-05-14T10:10:10Z</time>
      </trkpt>
      <trkpt lat="48.66664" lon="1.71699">
        <ele>138</ele>
        <time>2010-05-14T10:10:11Z</time>
      </trkpt>
      <trkpt lat="48.66663" lon="1.717">
        <ele>138</ele>
        <time>2010-05-14T10:10:12Z</time>
      </trkpt>
      <trkpt lat="48.66661" lon="1.717">
        <ele>138</ele>
        <time>2010-05-14T10:10:13Z</time>
      </trkpt>
      <trkpt lat="48.66659" lon="1.71701">
        <ele>138</ele>
        <time>2010-05-14T10:10:14Z</time>
      </trkpt>
      <trkpt lat="48.66658" lon="1.71701">
        <ele>138</ele>
        <time>2010-05-14T10:10:15Z</time>
      </trkpt>
      <trkpt lat="48.66656" lon="1.71701">
        <ele>138</ele>
        <time>2010-05-14T10:10:16Z</time>
      </trkpt>
      <trkpt lat="48.66655" lon="1.71701">
        <ele>138</ele>
        <time>2010-05-14T10:10:17Z</time>
      </trkpt>
      <trkpt lat="48.66653" lon="1.71702">
        <ele>138</ele>
        <time>2010-05-14T10:10:18Z</time>
      </trkpt>
      <trkpt lat="48.66652" lon="1.71702">
        <ele>138</ele>
        <time>2010-05-14T10:10:19Z</time>
      </trkpt>
      <trkpt lat="48.66651" lon="1.71702">
        <ele>138</ele>
        <time>2010-05-14T10:10:20Z</time>
      </trkpt>
      <trkpt lat="48.66649" lon="1.71702">
        <ele>138</ele>
        <time>2010-05-14T10:10:22Z</time>
      </trkpt>
      <trkpt lat="48.66648" lon="1.71702">
        <ele>137</ele>
        <time>2010-05-14T10:10:26Z</time>
      </trkpt>
      <trkpt lat="48.66646" lon="1.71702">
        <ele>137</ele>
        <time>2010-05-14T10:10:27Z</time>
      </trkpt>
      <trkpt lat="48.66645" lon="1.71703">
        <ele>137</ele>
        <time>2010-05-14T10:10:28Z</time>
      </trkpt>
      <trkpt lat="48.66644" lon="1.71704">
        <ele>137</ele>
        <time>2010-05-14T10:10:29Z</time>
      </trkpt>
      <trkpt lat="48.66642" lon="1.71706">
        <ele>137</ele>
        <time>2010-05-14T10:10:30Z</time>
      </trkpt>
      <trkpt lat="48.66641" lon="1.71707">
        <ele>137</ele>
        <time>2010-05-14T10:10:31Z</time>
      </trkpt>
      <trkpt lat="48.6664" lon="1.71708">
        <ele>137</ele>
        <time>2010-05-14T10:10:32Z</time>
      </trkpt>
      <trkpt lat="48.66638" lon="1.71709">
        <ele>137</ele>
        <time>2010-05-14T10:10:33Z</time>
      </trkpt>
      <trkpt lat="48.66637" lon="1.71711">
        <ele>137</ele>
        <time>2010-05-14T10:10:34Z</time>
      </trkpt>
      <trkpt lat="48.66636" lon="1.71712">
        <ele>137</ele>
        <time>2010-05-14T10:10:35Z</time>
      </trkpt>
      <trkpt lat="48.66634" lon="1.71713">
        <ele>137</ele>
        <time>2010-05-14T10:10:37Z</time>
      </trkpt>
      <trkpt lat="48.66633" lon="1.71714">
        <ele>137</ele>
        <time>2010-05-14T10:10:38Z</time>
      </trkpt>
      <trkpt lat="48.66631" lon="1.71714">
        <ele>137</ele>
        <time>2010-05-14T10:10:39Z</time>
      </trkpt>
      <trkpt lat="48.6663" lon="1.71714">
        <ele>137</ele>
        <time>2010-05-14T10:10:40Z</time>
      </trkpt>
      <trkpt lat="48.66628" lon="1.71714">
        <ele>137</ele>
        <time>2010-05-14T10:10:41Z</time>
      </trkpt>
      <trkpt lat="48.66627" lon="1.71715">
        <ele>137</ele>
        <time>2010-05-14T10:10:42Z</time>
      </trkpt>
      <trkpt lat="48.66625" lon="1.71715">
        <ele>137</ele>
        <time>2010-05-14T10:10:43Z</time>
      </trkpt>
      <trkpt lat="48.66623" lon="1.71715">
        <ele>137</ele>
        <time>2010-05-14T10:10:44Z</time>
      </trkpt>
      <trkpt lat="48.66622" lon="1.71715">
        <ele>137</ele>
        <time>2010-05-14T10:10:45Z</time>
      </trkpt>
      <trkpt lat="48.6662" lon="1.71716">
        <ele>137</ele>
        <time>2010-05-14T10:10:46Z</time>
      </trkpt>
      <trkpt lat="48.66618" lon="1.71716">
        <ele>137</ele>
        <time>2010-05-14T10:10:47Z</time>
      </trkpt>
      <trkpt lat="48.66617" lon="1.71717">
        <ele>137</ele>
        <time>2010-05-14T10:10:48Z</time>
      </trkpt>
      <trkpt lat="48.66615" lon="1.71718">
        <ele>137</ele>
        <time>2010-05-14T10:10:49Z</time>
      </trkpt>
      <trkpt lat="48.66613" lon="1.71718">
        <ele>137</ele>
        <time>2010-05-14T10:10:50Z</time>
      </trkpt>
      <trkpt lat="48.66612" lon="1.71719">
        <ele>137</ele>
        <time>2010-05-14T10:10:51Z</time>
      </trkpt>
      <trkpt lat="48.6661" lon="1.71719">
        <ele>137</ele>
        <time>2010-05-14T10:10:52Z</time>
      </trkpt>
      <trkpt lat="48.66608" lon="1.71719">
        <ele>137</ele>
        <time>2010-05-14T10:10:53Z</time>
      </trkpt>
      <trkpt lat="48.66607" lon="1.71719">
        <ele>137</ele>
        <time>2010-05-14T10:10:54Z</time>
      </trkpt>
      <trkpt lat="48.66605" lon="1.7172">
        <ele>137</ele>
        <time>2010-05-14T10:10:55Z</time>
      </trkpt>
      <trkpt lat="48.66603" lon="1.7172">
        <ele>137</ele>
        <time>2010-05-14T10:10:56Z</time>
      </trkpt>
      <trkpt lat="48.66602" lon="1.71721">
        <ele>137</ele>
        <time>2010-05-14T10:10:57Z</time>
      </trkpt>
      <trkpt lat="48.666" lon="1.71722">
        <ele>137</ele>
        <time>2010-05-14T10:10:58Z</time>
      </trkpt>
      <trkpt lat="48.66599" lon="1.71722">
        <ele>137</ele>
        <time>2010-05-14T10:10:59Z</time>
      </trkpt>
      <trkpt lat="48.66597" lon="1.71723">
        <ele>137</ele>
        <time>2010-05-14T10:11:00Z</time>
      </trkpt>
      <trkpt lat="48.66596" lon="1.71724">
        <ele>137</ele>
        <time>2010-05-14T10:11:01Z</time>
      </trkpt>
      <trkpt lat="48.66594" lon="1.71725">
        <ele>137</ele>
        <time>2010-05-14T10:11:02Z</time>
      </trkpt>
      <trkpt lat="48.66592" lon="1.71725">
        <ele>137</ele>
        <time>2010-05-14T10:11:03Z</time>
      </trkpt>
      <trkpt lat="48.66591" lon="1.71726">
        <ele>137</ele>
        <time>2010-05-14T10:11:04Z</time>
      </trkpt>
      <trkpt lat="48.6659" lon="1.71727">
        <ele>137</ele>
        <time>2010-05-14T10:11:05Z</time>
      </trkpt>
      <trkpt lat="48.66588" lon="1.71728">
        <ele>137</ele>
        <time>2010-05-14T10:11:06Z</time>
      </trkpt>
      <trkpt lat="48.66587" lon="1.71729">
        <ele>137</ele>
        <time>2010-05-14T10:11:07Z</time>
      </trkpt>
      <trkpt lat="48.66585" lon="1.7173">
        <ele>137</ele>
        <time>2010-05-14T10:11:08Z</time>
      </trkpt>
      <trkpt lat="48.66584" lon="1.71731">
        <ele>137</ele>
        <time>2010-05-14T10:11:09Z</time>
      </trkpt>
      <trkpt lat="48.66582" lon="1.71732">
        <ele>137</ele>
        <time>2010-05-14T10:11:10Z</time>
      </trkpt>
      <trkpt lat="48.66581" lon="1.71733">
        <ele>137</ele>
        <time>2010-05-14T10:11:11Z</time>
      </trkpt>
      <trkpt lat="48.66579" lon="1.71733">
        <ele>136</ele>
        <time>2010-05-14T10:11:12Z</time>
      </trkpt>
      <trkpt lat="48.66577" lon="1.71735">
        <ele>136</ele>
        <time>2010-05-14T10:11:13Z</time>
      </trkpt>
      <trkpt lat="48.66576" lon="1.71736">
        <ele>136</ele>
        <time>2010-05-14T10:11:14Z</time>
      </trkpt>
      <trkpt lat="48.66574" lon="1.71736">
        <ele>136</ele>
        <time>2010-05-14T10:11:15Z</time>
      </trkpt>
      <trkpt lat="48.66572" lon="1.71737">
        <ele>136</ele>
        <time>2010-05-14T10:11:16Z</time>
      </trkpt>
      <trkpt lat="48.66571" lon="1.71738">
        <ele>136</ele>
        <time>2010-05-14T10:11:17Z</time>
      </trkpt>
      <trkpt lat="48.66569" lon="1.71739">
        <ele>136</ele>
        <time>2010-05-14T10:11:18Z</time>
      </trkpt>
      <trkpt lat="48.66567" lon="1.7174">
        <ele>136</ele>
        <time>2010-05-14T10:11:19Z</time>
      </trkpt>
      <trkpt lat="48.66566" lon="1.7174">
        <ele>136</ele>
        <time>2010-05-14T10:11:20Z</time>
      </trkpt>
      <trkpt lat="48.66564" lon="1.71741">
        <ele>136</ele>
        <time>2010-05-14T10:11:21Z</time>
      </trkpt>
      <trkpt lat="48.66563" lon="1.71741">
        <ele>136</ele>
        <time>2010-05-14T10:11:22Z</time>
      </trkpt>
      <trkpt lat="48.66561" lon="1.71742">
        <ele>136</ele>
        <time>2010-05-14T10:11:23Z</time>
      </trkpt>
      <trkpt lat="48.6656" lon="1.71743">
        <ele>136</ele>
        <time>2010-05-14T10:11:24Z</time>
      </trkpt>
      <trkpt lat="48.66558" lon="1.71743">
        <ele>136</ele>
        <time>2010-05-14T10:11:25Z</time>
      </trkpt>
      <trkpt lat="48.66556" lon="1.71744">
        <ele>136</ele>
        <time>2010-05-14T10:11:26Z</time>
      </trkpt>
      <trkpt lat="48.66554" lon="1.71745">
        <ele>136</ele>
        <time>2010-05-14T10:11:27Z</time>
      </trkpt>
      <trkpt lat="48.66552" lon="1.71745">
        <ele>135</ele>
        <time>2010-05-14T10:11:28Z</time>
      </trkpt>
      <trkpt lat="48.6655" lon="1.71746">
        <ele>135</ele>
        <time>2010-05-14T10:11:29Z</time>
      </trkpt>
      <trkpt lat="48.66549" lon="1.71747">
        <ele>135</ele>
        <time>2010-05-14T10:11:30Z</time>
      </trkpt>
      <trkpt lat="48.66547" lon="1.71748">
        <ele>135</ele>
        <time>2010-05-14T10:11:31Z</time>
      </trkpt>
      <trkpt lat="48.66545" lon="1.71749">
        <ele>135</ele>
        <time>2010-05-14T10:11:32Z</time>
      </trkpt>
      <trkpt lat="48.66544" lon="1.71749">
        <ele>135</ele>
        <time>2010-05-14T10:11:33Z</time>
      </trkpt>
      <trkpt lat="48.66543" lon="1.71749">
        <ele>135</ele>
        <time>2010-05-14T10:11:34Z</time>
      </trkpt>
      <trkpt lat="48.66541" lon="1.71749">
        <ele>135</ele>
        <time>2010-05-14T10:11:35Z</time>
      </trkpt>
      <trkpt lat="48.6654" lon="1.7175">
        <ele>135</ele>
        <time>2010-05-14T10:11:36Z</time>
      </trkpt>
      <trkpt lat="48.66538" lon="1.7175">
        <ele>135</ele>
        <time>2010-05-14T10:11:37Z</time>
      </trkpt>
      <trkpt lat="48.66536" lon="1.71751">
        <ele>135</ele>
        <time>2010-05-14T10:11:38Z</time>
      </trkpt>
      <trkpt lat="48.66535" lon="1.71752">
        <ele>135</ele>
        <time>2010-05-14T10:11:39Z</time>
      </trkpt>
      <trkpt lat="48.66533" lon="1.71753">
        <ele>135</ele>
        <time>2010-05-14T10:11:40Z</time>
      </trkpt>
      <trkpt lat="48.66531" lon="1.71753">
        <ele>135</ele>
        <time>2010-05-14T10:11:41Z</time>
      </trkpt>
      <trkpt lat="48.6653" lon="1.71754">
        <ele>135</ele>
        <time>2010-05-14T10:11:42Z</time>
      </trkpt>
      <trkpt lat="48.66528" lon="1.71755">
        <ele>135</ele>
        <time>2010-05-14T10:11:43Z</time>
      </trkpt>
      <trkpt lat="48.66526" lon="1.71756">
        <ele>135</ele>
        <time>2010-05-14T10:11:44Z</time>
      </trkpt>
      <trkpt lat="48.66524" lon="1.71757">
        <ele>135</ele>
        <time>2010-05-14T10:11:45Z</time>
      </trkpt>
      <trkpt lat="48.66523" lon="1.71759">
        <ele>135</ele>
        <time>2010-05-14T10:11:46Z</time>
      </trkpt>
      <trkpt lat="48.66521" lon="1.7176">
        <ele>135</ele>
        <time>2010-05-14T10:11:47Z</time>
      </trkpt>
      <trkpt lat="48.66519" lon="1.71761">
        <ele>135</ele>
        <time>2010-05-14T10:11:48Z</time>
      </trkpt>
      <trkpt lat="48.66517" lon="1.71761">
        <ele>135</ele>
        <time>2010-05-14T10:11:49Z</time>
      </trkpt>
      <trkpt lat="48.66516" lon="1.71762">
        <ele>136</ele>
        <time>2010-05-14T10:11:50Z</time>
      </trkpt>
      <trkpt lat="48.66515" lon="1.71763">
        <ele>136</ele>
        <time>2010-05-14T10:11:51Z</time>
      </trkpt>
      <trkpt lat="48.66514" lon="1.71764">
        <ele>137</ele>
        <time>2010-05-14T10:11:52Z</time>
      </trkpt>
      <trkpt lat="48.66512" lon="1.71765">
        <ele>137</ele>
        <time>2010-05-14T10:11:53Z</time>
      </trkpt>
      <trkpt lat="48.6651" lon="1.71766">
        <ele>137</ele>
        <time>2010-05-14T10:11:54Z</time>
      </trkpt>
      <trkpt lat="48.66508" lon="1.71767">
        <ele>137</ele>
        <time>2010-05-14T10:11:55Z</time>
      </trkpt>
      <trkpt lat="48.66507" lon="1.71768">
        <ele>137</ele>
        <time>2010-05-14T10:11:56Z</time>
      </trkpt>
      <trkpt lat="48.66506" lon="1.71768">
        <ele>137</ele>
        <time>2010-05-14T10:11:57Z</time>
      </trkpt>
      <trkpt lat="48.66503" lon="1.71768">
        <ele>137</ele>
        <time>2010-05-14T10:11:58Z</time>
      </trkpt>
      <trkpt lat="48.66501" lon="1.71768">
        <ele>137</ele>
        <time>2010-05-14T10:11:59Z</time>
      </trkpt>
      <trkpt lat="48.66499" lon="1.71768">
        <ele>137</ele>
        <time>2010-05-14T10:12:00Z</time>
      </trkpt>
      <trkpt lat="48.66497" lon="1.71768">
        <ele>137</ele>
        <time>2010-05-14T10:12:01Z</time>
      </trkpt>
      <trkpt lat="48.66495" lon="1.71769">
        <ele>137</ele>
        <time>2010-05-14T10:12:02Z</time>
      </trkpt>
      <trkpt lat="48.66493" lon="1.7177">
        <ele>137</ele>
        <time>2010-05-14T10:12:03Z</time>
      </trkpt>
      <trkpt lat="48.6649" lon="1.7177">
        <ele>137</ele>
        <time>2010-05-14T10:12:04Z</time>
      </trkpt>
      <trkpt lat="48.66488" lon="1.71771">
        <ele>137</ele>
        <time>2010-05-14T10:12:05Z</time>
      </trkpt>
      <trkpt lat="48.66485" lon="1.71772">
        <ele>137</ele>
        <time>2010-05-14T10:12:06Z</time>
      </trkpt>
      <trkpt lat="48.66483" lon="1.71772">
        <ele>137</ele>
        <time>2010-05-14T10:12:07Z</time>
      </trkpt>
      <trkpt lat="48.66481" lon="1.71773">
        <ele>137</ele>
        <time>2010-05-14T10:12:08Z</time>
      </trkpt>
      <trkpt lat="48.6648" lon="1.71774">
        <ele>137</ele>
        <time>2010-05-14T10:12:09Z</time>
      </trkpt>
      <trkpt lat="48.66478" lon="1.71774">
        <ele>137</ele>
        <time>2010-05-14T10:12:10Z</time>
      </trkpt>
      <trkpt lat="48.66476" lon="1.71775">
        <ele>137</ele>
        <time>2010-05-14T10:12:11Z</time>
      </trkpt>
      <trkpt lat="48.66475" lon="1.71776">
        <ele>137</ele>
        <time>2010-05-14T10:12:12Z</time>
      </trkpt>
      <trkpt lat="48.66474" lon="1.71776">
        <ele>137</ele>
        <time>2010-05-14T10:12:13Z</time>
      </trkpt>
      <trkpt lat="48.66472" lon="1.71777">
        <ele>137</ele>
        <time>2010-05-14T10:12:14Z</time>
      </trkpt>
      <trkpt lat="48.6647" lon="1.71779">
        <ele>137</ele>
        <time>2010-05-14T10:12:15Z</time>
      </trkpt>
      <trkpt lat="48.66469" lon="1.7178">
        <ele>137</ele>
        <time>2010-05-14T10:12:16Z</time>
      </trkpt>
      <trkpt lat="48.66467" lon="1.7178">
        <ele>137</ele>
        <time>2010-05-14T10:12:17Z</time>
      </trkpt>
      <trkpt lat="48.66466" lon="1.71781">
        <ele>137</ele>
        <time>2010-05-14T10:12:18Z</time>
      </trkpt>
      <trkpt lat="48.66465" lon="1.71782">
        <ele>137</ele>
        <time>2010-05-14T10:12:19Z</time>
      </trkpt>
      <trkpt lat="48.66463" lon="1.71783">
        <ele>137</ele>
        <time>2010-05-14T10:12:20Z</time>
      </trkpt>
      <trkpt lat="48.66461" lon="1.71784">
        <ele>137</ele>
        <time>2010-05-14T10:12:21Z</time>
      </trkpt>
      <trkpt lat="48.6646" lon="1.71785">
        <ele>137</ele>
        <time>2010-05-14T10:12:22Z</time>
      </trkpt>
      <trkpt lat="48.66458" lon="1.71785">
        <ele>137</ele>
        <time>2010-05-14T10:12:23Z</time>
      </trkpt>
      <trkpt lat="48.66457" lon="1.71786">
        <ele>137</ele>
        <time>2010-05-14T10:12:24Z</time>
      </trkpt>
      <trkpt lat="48.66455" lon="1.71786">
        <ele>137</ele>
        <time>2010-05-14T10:12:25Z</time>
      </trkpt>
      <trkpt lat="48.66453" lon="1.71786">
        <ele>137</ele>
        <time>2010-05-14T10:12:26Z</time>
      </trkpt>
      <trkpt lat="48.66451" lon="1.71787">
        <ele>137</ele>
        <time>2010-05-14T10:12:27Z</time>
      </trkpt>
      <trkpt lat="48.6645" lon="1.71787">
        <ele>137</ele>
        <time>2010-05-14T10:12:28Z</time>
      </trkpt>
      <trkpt lat="48.66448" lon="1.71788">
        <ele>137</ele>
        <time>2010-05-14T10:12:29Z</time>
      </trkpt>
      <trkpt lat="48.66447" lon="1.71788">
        <ele>137</ele>
        <time>2010-05-14T10:12:30Z</time>
      </trkpt>
      <trkpt lat="48.66445" lon="1.71789">
        <ele>137</ele>
        <time>2010-05-14T10:12:31Z</time>
      </trkpt>
      <trkpt lat="48.66443" lon="1.7179">
        <ele>137</ele>
        <time>2010-05-14T10:12:32Z</time>
      </trkpt>
      <trkpt lat="48.66441" lon="1.71791">
        <ele>137</ele>
        <time>2010-05-14T10:12:33Z</time>
      </trkpt>
      <trkpt lat="48.66438" lon="1.71791">
        <ele>137</ele>
        <time>2010-05-14T10:12:34Z</time>
      </trkpt>
      <trkpt lat="48.66436" lon="1.71791">
        <ele>137</ele>
        <time>2010-05-14T10:12:35Z</time>
      </trkpt>
      <trkpt lat="48.66435" lon="1.71792">
        <ele>137</ele>
        <time>2010-05-14T10:12:36Z</time>
      </trkpt>
      <trkpt lat="48.66433" lon="1.71794">
        <ele>137</ele>
        <time>2010-05-14T10:12:37Z</time>
      </trkpt>
      <trkpt lat="48.66431" lon="1.71793">
        <ele>137</ele>
        <time>2010-05-14T10:12:38Z</time>
      </trkpt>
      <trkpt lat="48.6643" lon="1.71794">
        <ele>137</ele>
        <time>2010-05-14T10:12:39Z</time>
      </trkpt>
      <trkpt lat="48.66428" lon="1.71795">
        <ele>137</ele>
        <time>2010-05-14T10:12:40Z</time>
      </trkpt>
      <trkpt lat="48.66426" lon="1.71797">
        <ele>137</ele>
        <time>2010-05-14T10:12:41Z</time>
      </trkpt>
      <trkpt lat="48.66425" lon="1.71798">
        <ele>137</ele>
        <time>2010-05-14T10:12:42Z</time>
      </trkpt>
      <trkpt lat="48.66423" lon="1.71799">
        <ele>137</ele>
        <time>2010-05-14T10:12:43Z</time>
      </trkpt>
      <trkpt lat="48.66421" lon="1.71801">
        <ele>137</ele>
        <time>2010-05-14T10:12:44Z</time>
      </trkpt>
      <trkpt lat="48.66419" lon="1.71802">
        <ele>137</ele>
        <time>2010-05-14T10:12:45Z</time>
      </trkpt>
      <trkpt lat="48.66417" lon="1.71802">
        <ele>137</ele>
        <time>2010-05-14T10:12:46Z</time>
      </trkpt>
      <trkpt lat="48.66416" lon="1.71803">
        <ele>137</ele>
        <time>2010-05-14T10:12:47Z</time>
      </trkpt>
      <trkpt lat="48.66414" lon="1.71804">
        <ele>137</ele>
        <time>2010-05-14T10:12:48Z</time>
      </trkpt>
      <trkpt lat="48.66412" lon="1.71804">
        <ele>137</ele>
        <time>2010-05-14T10:12:49Z</time>
      </trkpt>
      <trkpt lat="48.6641" lon="1.71805">
        <ele>137</ele>
        <time>2010-05-14T10:12:50Z</time>
      </trkpt>
      <trkpt lat="48.66408" lon="1.71806">
        <ele>136</ele>
        <time>2010-05-14T10:12:51Z</time>
      </trkpt>
      <trkpt lat="48.66406" lon="1.71807">
        <ele>136</ele>
        <time>2010-05-14T10:12:52Z</time>
      </trkpt>
      <trkpt lat="48.66404" lon="1.71809">
        <ele>135</ele>
        <time>2010-05-14T10:12:53Z</time>
      </trkpt>
      <trkpt lat="48.66403" lon="1.7181">
        <ele>135</ele>
        <time>2010-05-14T10:12:54Z</time>
      </trkpt>
      <trkpt lat="48.66401" lon="1.71812">
        <ele>135</ele>
        <time>2010-05-14T10:12:55Z</time>
      </trkpt>
      <trkpt lat="48.66399" lon="1.71813">
        <ele>135</ele>
        <time>2010-05-14T10:12:56Z</time>
      </trkpt>
      <trkpt lat="48.66397" lon="1.71814">
        <ele>135</ele>
        <time>2010-05-14T10:12:57Z</time>
      </trkpt>
      <trkpt lat="48.66395" lon="1.71815">
        <ele>135</ele>
        <time>2010-05-14T10:12:58Z</time>
      </trkpt>
      <trkpt lat="48.66394" lon="1.71816">
        <ele>135</ele>
        <time>2010-05-14T10:12:59Z</time>
      </trkpt>
      <trkpt lat="48.66393" lon="1.71817">
        <ele>135</ele>
        <time>2010-05-14T10:13:00Z</time>
      </trkpt>
      <trkpt lat="48.66391" lon="1.71818">
        <ele>135</ele>
        <time>2010-05-14T10:13:01Z</time>
      </trkpt>
      <trkpt lat="48.66389" lon="1.71819">
        <ele>135</ele>
        <time>2010-05-14T10:13:02Z</time>
      </trkpt>
      <trkpt lat="48.66387" lon="1.71821">
        <ele>135</ele>
        <time>2010-05-14T10:13:03Z</time>
      </trkpt>
      <trkpt lat="48.66385" lon="1.71822">
        <ele>135</ele>
        <time>2010-05-14T10:13:04Z</time>
      </trkpt>
      <trkpt lat="48.66382" lon="1.71823">
        <ele>135</ele>
        <time>2010-05-14T10:13:05Z</time>
      </trkpt>
      <trkpt lat="48.6638" lon="1.71824">
        <ele>135</ele>
        <time>2010-05-14T10:13:06Z</time>
      </trkpt>
      <trkpt lat="48.66377" lon="1.71825">
        <ele>135</ele>
        <time>2010-05-14T10:13:07Z</time>
      </trkpt>
      <trkpt lat="48.66376" lon="1.71825">
        <ele>135</ele>
        <time>2010-05-14T10:13:08Z</time>
      </trkpt>
      <trkpt lat="48.66375" lon="1.71827">
        <ele>135</ele>
        <time>2010-05-14T10:13:09Z</time>
      </trkpt>
      <trkpt lat="48.66373" lon="1.71827">
        <ele>135</ele>
        <time>2010-05-14T10:13:10Z</time>
      </trkpt>
      <trkpt lat="48.66372" lon="1.71827">
        <ele>135</ele>
        <time>2010-05-14T10:13:11Z</time>
      </trkpt>
      <trkpt lat="48.6637" lon="1.71827">
        <ele>135</ele>
        <time>2010-05-14T10:13:12Z</time>
      </trkpt>
      <trkpt lat="48.66369" lon="1.71828">
        <ele>135</ele>
        <time>2010-05-14T10:13:13Z</time>
      </trkpt>
      <trkpt lat="48.66367" lon="1.71829">
        <ele>135</ele>
        <time>2010-05-14T10:13:14Z</time>
      </trkpt>
      <trkpt lat="48.66365" lon="1.7183">
        <ele>135</ele>
        <time>2010-05-14T10:13:15Z</time>
      </trkpt>
      <trkpt lat="48.66363" lon="1.7183">
        <ele>135</ele>
        <time>2010-05-14T10:13:16Z</time>
      </trkpt>
      <trkpt lat="48.66361" lon="1.71832">
        <ele>135</ele>
        <time>2010-05-14T10:13:18Z</time>
      </trkpt>
      <trkpt lat="48.6636" lon="1.71832">
        <ele>135</ele>
        <time>2010-05-14T10:13:19Z</time>
      </trkpt>
      <trkpt lat="48.66358" lon="1.71833">
        <ele>135</ele>
        <time>2010-05-14T10:13:20Z</time>
      </trkpt>
      <trkpt lat="48.66357" lon="1.71834">
        <ele>135</ele>
        <time>2010-05-14T10:13:21Z</time>
      </trkpt>
      <trkpt lat="48.66355" lon="1.71835">
        <ele>135</ele>
        <time>2010-05-14T10:13:22Z</time>
      </trkpt>
      <trkpt lat="48.66353" lon="1.71836">
        <ele>135</ele>
        <time>2010-05-14T10:13:23Z</time>
      </trkpt>
      <trkpt lat="48.66352" lon="1.71837">
        <ele>135</ele>
        <time>2010-05-14T10:13:24Z</time>
      </trkpt>
      <trkpt lat="48.6635" lon="1.71838">
        <ele>135</ele>
        <time>2010-05-14T10:13:25Z</time>
      </trkpt>
      <trkpt lat="48.66349" lon="1.71838">
        <ele>135</ele>
        <time>2010-05-14T10:13:26Z</time>
      </trkpt>
      <trkpt lat="48.66348" lon="1.71839">
        <ele>135</ele>
        <time>2010-05-14T10:13:27Z</time>
      </trkpt>
      <trkpt lat="48.66346" lon="1.71839">
        <ele>135</ele>
        <time>2010-05-14T10:13:28Z</time>
      </trkpt>
      <trkpt lat="48.66344" lon="1.71841">
        <ele>135</ele>
        <time>2010-05-14T10:13:29Z</time>
      </trkpt>
      <trkpt lat="48.66342" lon="1.71842">
        <ele>135</ele>
        <time>2010-05-14T10:13:30Z</time>
      </trkpt>
      <trkpt lat="48.66341" lon="1.71842">
        <ele>135</ele>
        <time>2010-05-14T10:13:31Z</time>
      </trkpt>
      <trkpt lat="48.66339" lon="1.71842">
        <ele>135</ele>
        <time>2010-05-14T10:13:32Z</time>
      </trkpt>
      <trkpt lat="48.66337" lon="1.71843">
        <ele>135</ele>
        <time>2010-05-14T10:13:33Z</time>
      </trkpt>
      <trkpt lat="48.66336" lon="1.71843">
        <ele>135</ele>
        <time>2010-05-14T10:13:34Z</time>
      </trkpt>
      <trkpt lat="48.66334" lon="1.71843">
        <ele>135</ele>
        <time>2010-05-14T10:13:35Z</time>
      </trkpt>
      <trkpt lat="48.66333" lon="1.71844">
        <ele>135</ele>
        <time>2010-05-14T10:13:36Z</time>
      </trkpt>
      <trkpt lat="48.66331" lon="1.71845">
        <ele>135</ele>
        <time>2010-05-14T10:13:37Z</time>
      </trkpt>
      <trkpt lat="48.6633" lon="1.71846">
        <ele>135</ele>
        <time>2010-05-14T10:13:38Z</time>
      </trkpt>
      <trkpt lat="48.66328" lon="1.71847">
        <ele>135</ele>
        <time>2010-05-14T10:13:39Z</time>
      </trkpt>
      <trkpt lat="48.66327" lon="1.71848">
        <ele>136</ele>
        <time>2010-05-14T10:13:40Z</time>
      </trkpt>
      <trkpt lat="48.66325" lon="1.71848">
        <ele>136</ele>
        <time>2010-05-14T10:13:41Z</time>
      </trkpt>
      <trkpt lat="48.66323" lon="1.71849">
        <ele>137</ele>
        <time>2010-05-14T10:13:42Z</time>
      </trkpt>
      <trkpt lat="48.66321" lon="1.71849">
        <ele>137</ele>
        <time>2010-05-14T10:13:43Z</time>
      </trkpt>
      <trkpt lat="48.66319" lon="1.71849">
        <ele>137</ele>
        <time>2010-05-14T10:13:44Z</time>
      </trkpt>
      <trkpt lat="48.66318" lon="1.7185">
        <ele>137</ele>
        <time>2010-05-14T10:13:45Z</time>
      </trkpt>
      <trkpt lat="48.66316" lon="1.71851">
        <ele>137</ele>
        <time>2010-05-14T10:13:46Z</time>
      </trkpt>
      <trkpt lat="48.66315" lon="1.71852">
        <ele>137</ele>
        <time>2010-05-14T10:13:47Z</time>
      </trkpt>
      <trkpt lat="48.66313" lon="1.71853">
        <ele>138</ele>
        <time>2010-05-14T10:13:49Z</time>
      </trkpt>
      <trkpt lat="48.66311" lon="1.71854">
        <ele>138</ele>
        <time>2010-05-14T10:13:50Z</time>
      </trkpt>
      <trkpt lat="48.6631" lon="1.71854">
        <ele>138</ele>
        <time>2010-05-14T10:13:51Z</time>
      </trkpt>
      <trkpt lat="48.66308" lon="1.71854">
        <ele>139</ele>
        <time>2010-05-14T10:13:52Z</time>
      </trkpt>
      <trkpt lat="48.66307" lon="1.71855">
        <ele>139</ele>
        <time>2010-05-14T10:13:53Z</time>
      </trkpt>
      <trkpt lat="48.66305" lon="1.71856">
        <ele>139</ele>
        <time>2010-05-14T10:13:54Z</time>
      </trkpt>
      <trkpt lat="48.66304" lon="1.71857">
        <ele>139</ele>
        <time>2010-05-14T10:13:55Z</time>
      </trkpt>
      <trkpt lat="48.66303" lon="1.71858">
        <ele>139</ele>
        <time>2010-05-14T10:13:56Z</time>
      </trkpt>
      <trkpt lat="48.66301" lon="1.71859">
        <ele>139</ele>
        <time>2010-05-14T10:13:57Z</time>
      </trkpt>
      <trkpt lat="48.663" lon="1.71859">
        <ele>139</ele>
        <time>2010-05-14T10:13:58Z</time>
      </trkpt>
      <trkpt lat="48.66299" lon="1.71859">
        <ele>139</ele>
        <time>2010-05-14T10:13:59Z</time>
      </trkpt>
      <trkpt lat="48.66297" lon="1.7186">
        <ele>139</ele>
        <time>2010-05-14T10:14:00Z</time>
      </trkpt>
      <trkpt lat="48.66295" lon="1.7186">
        <ele>139</ele>
        <time>2010-05-14T10:14:01Z</time>
      </trkpt>
      <trkpt lat="48.66292" lon="1.71859">
        <ele>139</ele>
        <time>2010-05-14T10:14:02Z</time>
      </trkpt>
      <trkpt lat="48.6629" lon="1.71859">
        <ele>138</ele>
        <time>2010-05-14T10:14:03Z</time>
      </trkpt>
      <trkpt lat="48.66286" lon="1.7186">
        <ele>137</ele>
        <time>2010-05-14T10:14:04Z</time>
      </trkpt>
      <trkpt lat="48.66282" lon="1.71862">
        <ele>136</ele>
        <time>2010-05-14T10:14:05Z</time>
      </trkpt>
      <trkpt lat="48.66278" lon="1.71864">
        <ele>136</ele>
        <time>2010-05-14T10:14:06Z</time>
      </trkpt>
      <trkpt lat="48.66274" lon="1.71865">
        <ele>135</ele>
        <time>2010-05-14T10:14:07Z</time>
      </trkpt>
      <trkpt lat="48.6627" lon="1.71867">
        <ele>135</ele>
        <time>2010-05-14T10:14:08Z</time>
      </trkpt>
      <trkpt lat="48.66267" lon="1.71868">
        <ele>135</ele>
        <time>2010-05-14T10:14:09Z</time>
      </trkpt>
      <trkpt lat="48.66264" lon="1.7187">
        <ele>135</ele>
        <time>2010-05-14T10:14:10Z</time>
      </trkpt>
      <trkpt lat="48.66261" lon="1.71872">
        <ele>135</ele>
        <time>2010-05-14T10:14:11Z</time>
      </trkpt>
      <trkpt lat="48.66259" lon="1.71874">
        <ele>135</ele>
        <time>2010-05-14T10:14:12Z</time>
      </trkpt>
      <trkpt lat="48.66258" lon="1.71876">
        <ele>135</ele>
        <time>2010-05-14T10:14:13Z</time>
      </trkpt>
      <trkpt lat="48.66259" lon="1.71874">
        <ele>135</ele>
        <time>2010-05-14T10:14:15Z</time>
      </trkpt>
      <trkpt lat="48.6626" lon="1.71872">
        <ele>135</ele>
        <time>2010-05-14T10:14:17Z</time>
      </trkpt>
      <trkpt lat="48.66262" lon="1.71871">
        <ele>135</ele>
        <time>2010-05-14T10:14:20Z</time>
      </trkpt>
      <trkpt lat="48.66263" lon="1.71868">
        <ele>137</ele>
        <time>2010-05-14T10:14:22Z</time>
      </trkpt>
      <trkpt lat="48.66264" lon="1.71868">
        <ele>137</ele>
        <time>2010-05-14T10:14:23Z</time>
      </trkpt>
      <trkpt lat="48.66268" lon="1.71868">
        <ele>138</ele>
        <time>2010-05-14T10:14:25Z</time>
      </trkpt>
      <trkpt lat="48.66269" lon="1.71868">
        <ele>138</ele>
        <time>2010-05-14T10:14:26Z</time>
      </trkpt>
      <trkpt lat="48.66271" lon="1.71866">
        <ele>138</ele>
        <time>2010-05-14T10:14:27Z</time>
      </trkpt>
      <trkpt lat="48.66272" lon="1.71863">
        <ele>138</ele>
        <time>2010-05-14T10:14:29Z</time>
      </trkpt>
      <trkpt lat="48.66272" lon="1.71861">
        <ele>138</ele>
        <time>2010-05-14T10:14:30Z</time>
      </trkpt>
      <trkpt lat="48.66273" lon="1.71859">
        <ele>137</ele>
        <time>2010-05-14T10:14:31Z</time>
      </trkpt>
      <trkpt lat="48.66275" lon="1.71856">
        <ele>135</ele>
        <time>2010-05-14T10:14:33Z</time>
      </trkpt>
      <trkpt lat="48.66277" lon="1.71855">
        <ele>133</ele>
        <time>2010-05-14T10:14:35Z</time>
      </trkpt>
      <trkpt lat="48.66281" lon="1.71856">
        <ele>131</ele>
        <time>2010-05-14T10:14:37Z</time>
      </trkpt>
      <trkpt lat="48.66284" lon="1.71857">
        <ele>130</ele>
        <time>2010-05-14T10:14:38Z</time>
      </trkpt>
      <trkpt lat="48.66286" lon="1.71859">
        <ele>129</ele>
        <time>2010-05-14T10:14:40Z</time>
      </trkpt>
      <trkpt lat="48.66287" lon="1.7186">
        <ele>128</ele>
        <time>2010-05-14T10:14:41Z</time>
      </trkpt>
      <trkpt lat="48.66289" lon="1.7186">
        <ele>127</ele>
        <time>2010-05-14T10:14:42Z</time>
      </trkpt>
      <trkpt lat="48.66291" lon="1.7186">
        <ele>126</ele>
        <time>2010-05-14T10:14:46Z</time>
      </trkpt>
      <trkpt lat="48.66292" lon="1.7186">
        <ele>126</ele>
        <time>2010-05-14T10:14:49Z</time>
      </trkpt>
      <trkpt lat="48.66293" lon="1.71858">
        <ele>126</ele>
        <time>2010-05-14T10:14:52Z</time>
      </trkpt>
      <trkpt lat="48.66294" lon="1.71857">
        <ele>126</ele>
        <time>2010-05-14T10:14:54Z</time>
      </trkpt>
      <trkpt lat="48.66296" lon="1.71855">
        <ele>126</ele>
        <time>2010-05-14T10:14:56Z</time>
      </trkpt>
      <trkpt lat="48.66298" lon="1.71852">
        <ele>126</ele>
        <time>2010-05-14T10:14:58Z</time>
      </trkpt>
      <trkpt lat="48.66299" lon="1.7185">
        <ele>126</ele>
        <time>2010-05-14T10:14:59Z</time>
      </trkpt>
      <trkpt lat="48.66302" lon="1.7185">
        <ele>126</ele>
        <time>2010-05-14T10:15:01Z</time>
      </trkpt>
      <trkpt lat="48.66305" lon="1.7185">
        <ele>126</ele>
        <time>2010-05-14T10:15:02Z</time>
      </trkpt>
      <trkpt lat="48.66307" lon="1.71851">
        <ele>126</ele>
        <time>2010-05-14T10:15:03Z</time>
      </trkpt>
      <trkpt lat="48.66305" lon="1.71851">
        <ele>126</ele>
        <time>2010-05-14T10:15:06Z</time>
      </trkpt>
      <trkpt lat="48.66303" lon="1.71851">
        <ele>126</ele>
        <time>2010-05-14T10:15:08Z</time>
      </trkpt>
      <trkpt lat="48.66301" lon="1.71851">
        <ele>126</ele>
        <time>2010-05-14T10:15:09Z</time>
      </trkpt>
      <trkpt lat="48.663" lon="1.71852">
        <ele>126</ele>
        <time>2010-05-14T10:15:11Z</time>
      </trkpt>
      <trkpt lat="48.66298" lon="1.71854">
        <ele>126</ele>
        <time>2010-05-14T10:15:12Z</time>
      </trkpt>
      <trkpt lat="48.66297" lon="1.71855">
        <ele>126</ele>
        <time>2010-05-14T10:15:14Z</time>
      </trkpt>
      <trkpt lat="48.66294" lon="1.71857">
        <ele>126</ele>
        <time>2010-05-14T10:15:16Z</time>
      </trkpt>
      <trkpt lat="48.66293" lon="1.71858">
        <ele>126</ele>
        <time>2010-05-14T10:15:17Z</time>
      </trkpt>
      <trkpt lat="48.66292" lon="1.71857">
        <ele>126</ele>
        <time>2010-05-14T10:15:18Z</time>
      </trkpt>
      <trkpt lat="48.66291" lon="1.71858">
        <ele>126</ele>
        <time>2010-05-14T10:15:19Z</time>
      </trkpt>
      <trkpt lat="48.66288" lon="1.71858">
        <ele>126</ele>
        <time>2010-05-14T10:15:21Z</time>
      </trkpt>
      <trkpt lat="48.66287" lon="1.71859">
        <ele>126</ele>
        <time>2010-05-14T10:15:22Z</time>
      </trkpt>
      <trkpt lat="48.66286" lon="1.71861">
        <ele>126</ele>
        <time>2010-05-14T10:15:24Z</time>
      </trkpt>
      <trkpt lat="48.66285" lon="1.71863">
        <ele>126</ele>
        <time>2010-05-14T10:15:27Z</time>
      </trkpt>
      <trkpt lat="48.66285" lon="1.71865">
        <ele>127</ele>
        <time>2010-05-14T10:15:29Z</time>
      </trkpt>
      <trkpt lat="48.66285" lon="1.71867">
        <ele>128</ele>
        <time>2010-05-14T10:15:31Z</time>
      </trkpt>
      <trkpt lat="48.66284" lon="1.71869">
        <ele>129</ele>
        <time>2010-05-14T10:15:33Z</time>
      </trkpt>
      <trkpt lat="48.66284" lon="1.71871">
        <ele>130</ele>
        <time>2010-05-14T10:15:35Z</time>
      </trkpt>
      <trkpt lat="48.66282" lon="1.71872">
        <ele>130</ele>
        <time>2010-05-14T10:15:40Z</time>
      </trkpt>
      <trkpt lat="48.66281" lon="1.71871">
        <ele>130</ele>
        <time>2010-05-14T10:15:42Z</time>
      </trkpt>
      <trkpt lat="48.66279" lon="1.7187">
        <ele>132</ele>
        <time>2010-05-14T10:15:44Z</time>
      </trkpt>
      <trkpt lat="48.66278" lon="1.7187">
        <ele>134</ele>
        <time>2010-05-14T10:15:46Z</time>
      </trkpt>
      <trkpt lat="48.66278" lon="1.71872">
        <ele>134</ele>
        <time>2010-05-14T10:15:49Z</time>
      </trkpt>
      <trkpt lat="48.66278" lon="1.71874">
        <ele>135</ele>
        <time>2010-05-14T10:15:51Z</time>
      </trkpt>
      <trkpt lat="48.66277" lon="1.71876">
        <ele>135</ele>
        <time>2010-05-14T10:15:54Z</time>
      </trkpt>
      <trkpt lat="48.66277" lon="1.71878">
        <ele>135</ele>
        <time>2010-05-14T10:15:57Z</time>
      </trkpt>
      <trkpt lat="48.66276" lon="1.7188">
        <ele>135</ele>
        <time>2010-05-14T10:16:07Z</time>
      </trkpt>
      <trkpt lat="48.66275" lon="1.71881">
        <ele>135</ele>
        <time>2010-05-14T10:16:09Z</time>
      </trkpt>
      <trkpt lat="48.66274" lon="1.71883">
        <ele>135</ele>
        <time>2010-05-14T10:16:11Z</time>
      </trkpt>
      <trkpt lat="48.66274" lon="1.71885">
        <ele>135</ele>
        <time>2010-05-14T10:16:14Z</time>
      </trkpt>
      <trkpt lat="48.66273" lon="1.71887">
        <ele>135</ele>
        <time>2010-05-14T10:16:18Z</time>
      </trkpt>
      <trkpt lat="48.66273" lon="1.7189">
        <ele>135</ele>
        <time>2010-05-14T10:16:21Z</time>
      </trkpt>
      <trkpt lat="48.66274" lon="1.7189">
        <ele>135</ele>
        <time>2010-05-14T10:16:23Z</time>
      </trkpt>
      <trkpt lat="48.66276" lon="1.7189">
        <ele>134</ele>
        <time>2010-05-14T10:16:25Z</time>
      </trkpt>
      <trkpt lat="48.66277" lon="1.7189">
        <ele>133</ele>
        <time>2010-05-14T10:16:27Z</time>
      </trkpt>
      <trkpt lat="48.66278" lon="1.71891">
        <ele>133</ele>
        <time>2010-05-14T10:16:30Z</time>
      </trkpt>
      <trkpt lat="48.66279" lon="1.71893">
        <ele>131</ele>
        <time>2010-05-14T10:16:36Z</time>
      </trkpt>
      <trkpt lat="48.6628" lon="1.71893">
        <ele>131</ele>
        <time>2010-05-14T10:16:39Z</time>
      </trkpt>
      <trkpt lat="48.6628" lon="1.71891">
        <ele>131</ele>
        <time>2010-05-14T10:16:41Z</time>
      </trkpt>
      <trkpt lat="48.66279" lon="1.71891">
        <ele>131</ele>
        <time>2010-05-14T10:16:45Z</time>
      </trkpt>
      <trkpt lat="48.66278" lon="1.71893">
        <ele>133</ele>
        <time>2010-05-14T10:16:49Z</time>
      </trkpt>
      <trkpt lat="48.66277" lon="1.71895">
        <ele>135</ele>
        <time>2010-05-14T10:16:53Z</time>
      </trkpt>
      <trkpt lat="48.66278" lon="1.71895">
        <ele>139</ele>
        <time>2010-05-14T10:17:00Z</time>
      </trkpt>
      <trkpt lat="48.66279" lon="1.71892">
        <ele>140</ele>
        <time>2010-05-14T10:17:02Z</time>
      </trkpt>
      <trkpt lat="48.66281" lon="1.71889">
        <ele>140</ele>
        <time>2010-05-14T10:17:04Z</time>
      </trkpt>
      <trkpt lat="48.6628" lon="1.71887">
        <ele>141</ele>
        <time>2010-05-14T10:17:07Z</time>
      </trkpt>
      <trkpt lat="48.6628" lon="1.71886">
        <ele>141</ele>
        <time>2010-05-14T10:17:09Z</time>
      </trkpt>
      <trkpt lat="48.66281" lon="1.71884">
        <ele>142</ele>
        <time>2010-05-14T10:17:13Z</time>
      </trkpt>
      <trkpt lat="48.66281" lon="1.71882">
        <ele>145</ele>
        <time>2010-05-14T10:17:19Z</time>
      </trkpt>
      <trkpt lat="48.6628" lon="1.71882">
        <ele>150</ele>
        <time>2010-05-14T10:17:24Z</time>
      </trkpt>
      <trkpt lat="48.66279" lon="1.71882">
        <ele>153</ele>
        <time>2010-05-14T10:17:28Z</time>
      </trkpt>
      <trkpt lat="48.66278" lon="1.71882">
        <ele>154</ele>
        <time>2010-05-14T10:17:32Z</time>
      </trkpt>
      <trkpt lat="48.66276" lon="1.71884">
        <ele>154</ele>
        <time>2010-05-14T10:17:35Z</time>
      </trkpt>
      <trkpt lat="48.66275" lon="1.71885">
        <ele>154</ele>
        <time>2010-05-14T10:17:40Z</time>
      </trkpt>
      <trkpt lat="48.66274" lon="1.71888">
        <ele>154</ele>
        <time>2010-05-14T10:17:44Z</time>
      </trkpt>
      <trkpt lat="48.66274" lon="1.7189">
        <ele>154</ele>
        <time>2010-05-14T10:17:46Z</time>
      </trkpt>
      <trkpt lat="48.66275" lon="1.71888">
        <ele>154</ele>
        <time>2010-05-14T10:17:53Z</time>
      </trkpt>
      <trkpt lat="48.66275" lon="1.71886">
        <ele>154</ele>
        <time>2010-05-14T10:17:56Z</time>
      </trkpt>
      <trkpt lat="48.66276" lon="1.71884">
        <ele>154</ele>
        <time>2010-05-14T10:17:58Z</time>
      </trkpt>
      <trkpt lat="48.66277" lon="1.71882">
        <ele>154</ele>
        <time>2010-05-14T10:18:01Z</time>
      </trkpt>
      <trkpt lat="48.66279" lon="1.7188">
        <ele>154</ele>
        <time>2010-05-14T10:18:03Z</time>
      </trkpt>
      <trkpt lat="48.66277" lon="1.7188">
        <ele>152</ele>
        <time>2010-05-14T10:18:08Z</time>
      </trkpt>
      <trkpt lat="48.66275" lon="1.7188">
        <ele>151</ele>
        <time>2010-05-14T10:18:09Z</time>
      </trkpt>
      <trkpt lat="48.66275" lon="1.71878">
        <ele>148</ele>
        <time>2010-05-14T10:18:12Z</time>
      </trkpt>
      <trkpt lat="48.66276" lon="1.71874">
        <ele>146</ele>
        <time>2010-05-14T10:18:14Z</time>
      </trkpt>
      <trkpt lat="48.66276" lon="1.71872">
        <ele>143</ele>
        <time>2010-05-14T10:18:17Z</time>
      </trkpt>
      <trkpt lat="48.66278" lon="1.71871">
        <ele>143</ele>
        <time>2010-05-14T10:18:20Z</time>
      </trkpt>
      <trkpt lat="48.66277" lon="1.71869">
        <ele>143</ele>
        <time>2010-05-14T10:18:22Z</time>
      </trkpt>
      <trkpt lat="48.66276" lon="1.71867">
        <ele>142</ele>
        <time>2010-05-14T10:18:24Z</time>
      </trkpt>
      <trkpt lat="48.66274" lon="1.71867">
        <ele>140</ele>
        <time>2010-05-14T10:18:26Z</time>
      </trkpt>
      <trkpt lat="48.66273" lon="1.71868">
        <ele>139</ele>
        <time>2010-05-14T10:18:27Z</time>
      </trkpt>
      <trkpt lat="48.66272" lon="1.71871">
        <ele>138</ele>
        <time>2010-05-14T10:18:29Z</time>
      </trkpt>
      <trkpt lat="48.66271" lon="1.71867">
        <ele>137</ele>
        <time>2010-05-14T10:18:34Z</time>
      </trkpt>
      <trkpt lat="48.6627" lon="1.71867">
        <ele>137</ele>
        <time>2010-05-14T10:18:36Z</time>
      </trkpt>
      <trkpt lat="48.66268" lon="1.71868">
        <ele>137</ele>
        <time>2010-05-14T10:18:38Z</time>
      </trkpt>
      <trkpt lat="48.66267" lon="1.71868">
        <ele>137</ele>
        <time>2010-05-14T10:18:40Z</time>
      </trkpt>
      <trkpt lat="48.66266" lon="1.71868">
        <ele>137</ele>
        <time>2010-05-14T10:18:44Z</time>
      </trkpt>
      <trkpt lat="48.66266" lon="1.71865">
        <ele>135</ele>
        <time>2010-05-14T10:18:49Z</time>
      </trkpt>
      <trkpt lat="48.66268" lon="1.71864">
        <ele>134</ele>
        <time>2010-05-14T10:18:51Z</time>
      </trkpt>
      <trkpt lat="48.66269" lon="1.71867">
        <ele>134</ele>
        <time>2010-05-14T10:18:53Z</time>
      </trkpt>
      <trkpt lat="48.6627" lon="1.71868">
        <ele>134</ele>
        <time>2010-05-14T10:18:55Z</time>
      </trkpt>
      <trkpt lat="48.66271" lon="1.71867">
        <ele>134</ele>
        <time>2010-05-14T10:18:56Z</time>
      </trkpt>
      <trkpt lat="48.66273" lon="1.71868">
        <ele>134</ele>
        <time>2010-05-14T10:18:59Z</time>
      </trkpt>
      <trkpt lat="48.66275" lon="1.71867">
        <ele>134</ele>
        <time>2010-05-14T10:19:01Z</time>
      </trkpt>
      <trkpt lat="48.66276" lon="1.71867">
        <ele>134</ele>
        <time>2010-05-14T10:19:03Z</time>
      </trkpt>
      <trkpt lat="48.66277" lon="1.71867">
        <ele>134</ele>
        <time>2010-05-14T10:19:04Z</time>
      </trkpt>
      <trkpt lat="48.66279" lon="1.71867">
        <ele>134</ele>
        <time>2010-05-14T10:19:07Z</time>
      </trkpt>
      <trkpt lat="48.66277" lon="1.71869">
        <ele>134</ele>
        <time>2010-05-14T10:19:10Z</time>
      </trkpt>
      <trkpt lat="48.66278" lon="1.71866">
        <ele>134</ele>
        <time>2010-05-14T10:19:16Z</time>
      </trkpt>
      <trkpt lat="48.66279" lon="1.71865">
        <ele>134</ele>
        <time>2010-05-14T10:19:19Z</time>
      </trkpt>
      <trkpt lat="48.6628" lon="1.71863">
        <ele>134</ele>
        <time>2010-05-14T10:19:23Z</time>
      </trkpt>
      <trkpt lat="48.66281" lon="1.71863">
        <ele>134</ele>
        <time>2010-05-14T10:19:24Z</time>
      </trkpt>
      <trkpt lat="48.66283" lon="1.71862">
        <ele>134</ele>
        <time>2010-05-14T10:19:26Z</time>
      </trkpt>
      <trkpt lat="48.66283" lon="1.7186">
        <ele>135</ele>
        <time>2010-05-14T10:19:28Z</time>
      </trkpt>
      <trkpt lat="48.66281" lon="1.71859">
        <ele>136</ele>
        <time>2010-05-14T10:19:30Z</time>
      </trkpt>
      <trkpt lat="48.6628" lon="1.71859">
        <ele>136</ele>
        <time>2010-05-14T10:19:37Z</time>
      </trkpt>
      <trkpt lat="48.66279" lon="1.7186">
        <ele>136</ele>
        <time>2010-05-14T10:19:39Z</time>
      </trkpt>
      <trkpt lat="48.66278" lon="1.71861">
        <ele>136</ele>
        <time>2010-05-14T10:19:41Z</time>
      </trkpt>
      <trkpt lat="48.66276" lon="1.71861">
        <ele>135</ele>
        <time>2010-05-14T10:19:43Z</time>
      </trkpt>
      <trkpt lat="48.66277" lon="1.71861">
        <ele>134</ele>
        <time>2010-05-14T10:19:47Z</time>
      </trkpt>
      <trkpt lat="48.66278" lon="1.71861">
        <ele>134</ele>
        <time>2010-05-14T10:19:51Z</time>
      </trkpt>
      <trkpt lat="48.6628" lon="1.71863">
        <ele>134</ele>
        <time>2010-05-14T10:19:54Z</time>
      </trkpt>
      <trkpt lat="48.66281" lon="1.71864">
        <ele>134</ele>
        <time>2010-05-14T10:19:56Z</time>
      </trkpt>
      <trkpt lat="48.66282" lon="1.71866">
        <ele>134</ele>
        <time>2010-05-14T10:19:57Z</time>
      </trkpt>
      <trkpt lat="48.66282" lon="1.71869">
        <ele>134</ele>
        <time>2010-05-14T10:20:00Z</time>
      </trkpt>
      <trkpt lat="48.66281" lon="1.7187">
        <ele>134</ele>
        <time>2010-05-14T10:20:02Z</time>
      </trkpt>
      <trkpt lat="48.66281" lon="1.71872">
        <ele>134</ele>
        <time>2010-05-14T10:20:06Z</time>
      </trkpt>
      <trkpt lat="48.66281" lon="1.71875">
        <ele>134</ele>
        <time>2010-05-14T10:20:14Z</time>
      </trkpt>
      <trkpt lat="48.6628" lon="1.71877">
        <ele>134</ele>
        <time>2010-05-14T10:20:16Z</time>
      </trkpt>
      <trkpt lat="48.66279" lon="1.71875">
        <ele>133</ele>
        <time>2010-05-14T10:20:22Z</time>
      </trkpt>
      <trkpt lat="48.66277" lon="1.71876">
        <ele>132</ele>
        <time>2010-05-14T10:20:26Z</time>
      </trkpt>
      <trkpt lat="48.66276" lon="1.71874">
        <ele>132</ele>
        <time>2010-05-14T10:20:28Z</time>
      </trkpt>
      <trkpt lat="48.66274" lon="1.71874">
        <ele>131</ele>
        <time>2010-05-14T10:20:30Z</time>
      </trkpt>
      <trkpt lat="48.66272" lon="1.71874">
        <ele>129</ele>
        <time>2010-05-14T10:20:32Z</time>
      </trkpt>
      <trkpt lat="48.6627" lon="1.71877">
        <ele>129</ele>
        <time>2010-05-14T10:20:35Z</time>
      </trkpt>
      <trkpt lat="48.66272" lon="1.71879">
        <ele>129</ele>
        <time>2010-05-14T10:20:38Z</time>
      </trkpt>
      <trkpt lat="48.66273" lon="1.71881">
        <ele>129</ele>
        <time>2010-05-14T10:20:40Z</time>
      </trkpt>
      <trkpt lat="48.66274" lon="1.71882">
        <ele>129</ele>
        <time>2010-05-14T10:20:42Z</time>
      </trkpt>
      <trkpt lat="48.66275" lon="1.71884">
        <ele>129</ele>
        <time>2010-05-14T10:20:46Z</time>
      </trkpt>
      <trkpt lat="48.66276" lon="1.71885">
        <ele>129</ele>
        <time>2010-05-14T10:20:48Z</time>
      </trkpt>
      <trkpt lat="48.66275" lon="1.71886">
        <ele>129</ele>
        <time>2010-05-14T10:20:51Z</time>
      </trkpt>
      <trkpt lat="48.66275" lon="1.71884">
        <ele>129</ele>
        <time>2010-05-14T10:20:54Z</time>
      </trkpt>
      <trkpt lat="48.66276" lon="1.71882">
        <ele>130</ele>
        <time>2010-05-14T10:20:56Z</time>
      </trkpt>
      <trkpt lat="48.66277" lon="1.7188">
        <ele>135</ele>
        <time>2010-05-14T10:21:01Z</time>
      </trkpt>
      <trkpt lat="48.66278" lon="1.71878">
        <ele>140</ele>
        <time>2010-05-14T10:21:06Z</time>
      </trkpt>
      <trkpt lat="48.66278" lon="1.71876">
        <ele>141</ele>
        <time>2010-05-14T10:21:12Z</time>
      </trkpt>
      <trkpt lat="48.66277" lon="1.71873">
        <ele>141</ele>
        <time>2010-05-14T10:21:14Z</time>
      </trkpt>
      <trkpt lat="48.66275" lon="1.7187">
        <ele>141</ele>
        <time>2010-05-14T10:21:16Z</time>
      </trkpt>
      <trkpt lat="48.66274" lon="1.71869">
        <ele>141</ele>
        <time>2010-05-14T10:21:18Z</time>
      </trkpt>
      <trkpt lat="48.66272" lon="1.71868">
        <ele>141</ele>
        <time>2010-05-14T10:21:19Z</time>
      </trkpt>
      <trkpt lat="48.66271" lon="1.71869">
        <ele>141</ele>
        <time>2010-05-14T10:21:20Z</time>
      </trkpt>
      <trkpt lat="48.6627" lon="1.7187">
        <ele>141</ele>
        <time>2010-05-14T10:21:21Z</time>
      </trkpt>
      <trkpt lat="48.66268" lon="1.71868">
        <ele>141</ele>
        <time>2010-05-14T10:21:23Z</time>
      </trkpt>
      <trkpt lat="48.66266" lon="1.71869">
        <ele>141</ele>
        <time>2010-05-14T10:21:25Z</time>
      </trkpt>
      <trkpt lat="48.66265" lon="1.71869">
        <ele>141</ele>
        <time>2010-05-14T10:21:26Z</time>
      </trkpt>
      <trkpt lat="48.66263" lon="1.7187">
        <ele>141</ele>
        <time>2010-05-14T10:21:28Z</time>
      </trkpt>
      <trkpt lat="48.66261" lon="1.7187">
        <ele>141</ele>
        <time>2010-05-14T10:21:29Z</time>
      </trkpt>
      <trkpt lat="48.6626" lon="1.7187">
        <ele>141</ele>
        <time>2010-05-14T10:21:30Z</time>
      </trkpt>
      <trkpt lat="48.66258" lon="1.7187">
        <ele>140</ele>
        <time>2010-05-14T10:21:31Z</time>
      </trkpt>
      <trkpt lat="48.66256" lon="1.71871">
        <ele>139</ele>
        <time>2010-05-14T10:21:32Z</time>
      </trkpt>
      <trkpt lat="48.66255" lon="1.71872">
        <ele>138</ele>
        <time>2010-05-14T10:21:33Z</time>
      </trkpt>
      <trkpt lat="48.66253" lon="1.71874">
        <ele>137</ele>
        <time>2010-05-14T10:21:35Z</time>
      </trkpt>
      <trkpt lat="48.66252" lon="1.71875">
        <ele>137</ele>
        <time>2010-05-14T10:21:36Z</time>
      </trkpt>
      <trkpt lat="48.66252" lon="1.71878">
        <ele>136</ele>
        <time>2010-05-14T10:21:37Z</time>
      </trkpt>
      <trkpt lat="48.66251" lon="1.71879">
        <ele>136</ele>
        <time>2010-05-14T10:21:38Z</time>
      </trkpt>
      <trkpt lat="48.66249" lon="1.71881">
        <ele>135</ele>
        <time>2010-05-14T10:21:40Z</time>
      </trkpt>
      <trkpt lat="48.66248" lon="1.71882">
        <ele>134</ele>
        <time>2010-05-14T10:21:42Z</time>
      </trkpt>
      <trkpt lat="48.66247" lon="1.71882">
        <ele>134</ele>
        <time>2010-05-14T10:21:43Z</time>
      </trkpt>
      <trkpt lat="48.66245" lon="1.71883">
        <ele>134</ele>
        <time>2010-05-14T10:21:44Z</time>
      </trkpt>
      <trkpt lat="48.66243" lon="1.71884">
        <ele>134</ele>
        <time>2010-05-14T10:21:46Z</time>
      </trkpt>
      <trkpt lat="48.66241" lon="1.71884">
        <ele>134</ele>
        <time>2010-05-14T10:21:47Z</time>
      </trkpt>
      <trkpt lat="48.66239" lon="1.71885">
        <ele>134</ele>
        <time>2010-05-14T10:21:48Z</time>
      </trkpt>
      <trkpt lat="48.66238" lon="1.71885">
        <ele>134</ele>
        <time>2010-05-14T10:21:49Z</time>
      </trkpt>
      <trkpt lat="48.66237" lon="1.71886">
        <ele>134</ele>
        <time>2010-05-14T10:21:50Z</time>
      </trkpt>
      <trkpt lat="48.66235" lon="1.71887">
        <ele>134</ele>
        <time>2010-05-14T10:21:51Z</time>
      </trkpt>
      <trkpt lat="48.66234" lon="1.71889">
        <ele>134</ele>
        <time>2010-05-14T10:21:52Z</time>
      </trkpt>
      <trkpt lat="48.66232" lon="1.7189">
        <ele>134</ele>
        <time>2010-05-14T10:21:53Z</time>
      </trkpt>
      <trkpt lat="48.66231" lon="1.71891">
        <ele>134</ele>
        <time>2010-05-14T10:21:54Z</time>
      </trkpt>
      <trkpt lat="48.66229" lon="1.71891">
        <ele>134</ele>
        <time>2010-05-14T10:21:55Z</time>
      </trkpt>
      <trkpt lat="48.66228" lon="1.71892">
        <ele>134</ele>
        <time>2010-05-14T10:21:56Z</time>
      </trkpt>
      <trkpt lat="48.66227" lon="1.71893">
        <ele>134</ele>
        <time>2010-05-14T10:21:57Z</time>
      </trkpt>
      <trkpt lat="48.66225" lon="1.71894">
        <ele>134</ele>
        <time>2010-05-14T10:21:58Z</time>
      </trkpt>
      <trkpt lat="48.66223" lon="1.71896">
        <ele>134</ele>
        <time>2010-05-14T10:22:00Z</time>
      </trkpt>
      <trkpt lat="48.66222" lon="1.71896">
        <ele>134</ele>
        <time>2010-05-14T10:22:01Z</time>
      </trkpt>
      <trkpt lat="48.6622" lon="1.71897">
        <ele>134</ele>
        <time>2010-05-14T10:22:02Z</time>
      </trkpt>
      <trkpt lat="48.66219" lon="1.71898">
        <ele>134</ele>
        <time>2010-05-14T10:22:03Z</time>
      </trkpt>
      <trkpt lat="48.66218" lon="1.71898">
        <ele>134</ele>
        <time>2010-05-14T10:22:04Z</time>
      </trkpt>
      <trkpt lat="48.66216" lon="1.71898">
        <ele>134</ele>
        <time>2010-05-14T10:22:05Z</time>
      </trkpt>
      <trkpt lat="48.66215" lon="1.71898">
        <ele>134</ele>
        <time>2010-05-14T10:22:06Z</time>
      </trkpt>
      <trkpt lat="48.66213" lon="1.71899">
        <ele>134</ele>
        <time>2010-05-14T10:22:07Z</time>
      </trkpt>
      <trkpt lat="48.66211" lon="1.719">
        <ele>134</ele>
        <time>2010-05-14T10:22:08Z</time>
      </trkpt>
      <trkpt lat="48.66208" lon="1.71901">
        <ele>134</ele>
        <time>2010-05-14T10:22:09Z</time>
      </trkpt>
      <trkpt lat="48.66207" lon="1.71901">
        <ele>133</ele>
        <time>2010-05-14T10:22:10Z</time>
      </trkpt>
      <trkpt lat="48.66205" lon="1.719">
        <ele>132</ele>
        <time>2010-05-14T10:22:11Z</time>
      </trkpt>
      <trkpt lat="48.66203" lon="1.71901">
        <ele>131</ele>
        <time>2010-05-14T10:22:12Z</time>
      </trkpt>
      <trkpt lat="48.66201" lon="1.71902">
        <ele>130</ele>
        <time>2010-05-14T10:22:13Z</time>
      </trkpt>
      <trkpt lat="48.66199" lon="1.71903">
        <ele>129</ele>
        <time>2010-05-14T10:22:14Z</time>
      </trkpt>
      <trkpt lat="48.66198" lon="1.71904">
        <ele>128</ele>
        <time>2010-05-14T10:22:15Z</time>
      </trkpt>
      <trkpt lat="48.66196" lon="1.71905">
        <ele>127</ele>
        <time>2010-05-14T10:22:16Z</time>
      </trkpt>
      <trkpt lat="48.66195" lon="1.71905">
        <ele>127</ele>
        <time>2010-05-14T10:22:17Z</time>
      </trkpt>
      <trkpt lat="48.66194" lon="1.71906">
        <ele>127</ele>
        <time>2010-05-14T10:22:18Z</time>
      </trkpt>
      <trkpt lat="48.66192" lon="1.71907">
        <ele>127</ele>
        <time>2010-05-14T10:22:19Z</time>
      </trkpt>
      <trkpt lat="48.66191" lon="1.71907">
        <ele>127</ele>
        <time>2010-05-14T10:22:20Z</time>
      </trkpt>
      <trkpt lat="48.6619" lon="1.71908">
        <ele>127</ele>
        <time>2010-05-14T10:22:21Z</time>
      </trkpt>
      <trkpt lat="48.66189" lon="1.71908">
        <ele>127</ele>
        <time>2010-05-14T10:22:22Z</time>
      </trkpt>
      <trkpt lat="48.66186" lon="1.71909">
        <ele>127</ele>
        <time>2010-05-14T10:22:24Z</time>
      </trkpt>
      <trkpt lat="48.66184" lon="1.7191">
        <ele>127</ele>
        <time>2010-05-14T10:22:25Z</time>
      </trkpt>
      <trkpt lat="48.66182" lon="1.71911">
        <ele>127</ele>
        <time>2010-05-14T10:22:26Z</time>
      </trkpt>
      <trkpt lat="48.66181" lon="1.71911">
        <ele>127</ele>
        <time>2010-05-14T10:22:27Z</time>
      </trkpt>
      <trkpt lat="48.66179" lon="1.71912">
        <ele>127</ele>
        <time>2010-05-14T10:22:28Z</time>
      </trkpt>
      <trkpt lat="48.66178" lon="1.71913">
        <ele>127</ele>
        <time>2010-05-14T10:22:29Z</time>
      </trkpt>
      <trkpt lat="48.66176" lon="1.71914">
        <ele>127</ele>
        <time>2010-05-14T10:22:30Z</time>
      </trkpt>
      <trkpt lat="48.66175" lon="1.71915">
        <ele>127</ele>
        <time>2010-05-14T10:22:31Z</time>
      </trkpt>
      <trkpt lat="48.66173" lon="1.71916">
        <ele>127</ele>
        <time>2010-05-14T10:22:32Z</time>
      </trkpt>
      <trkpt lat="48.66172" lon="1.71917">
        <ele>127</ele>
        <time>2010-05-14T10:22:33Z</time>
      </trkpt>
      <trkpt lat="48.6617" lon="1.71917">
        <ele>127</ele>
        <time>2010-05-14T10:22:34Z</time>
      </trkpt>
      <trkpt lat="48.66168" lon="1.71917">
        <ele>127</ele>
        <time>2010-05-14T10:22:35Z</time>
      </trkpt>
      <trkpt lat="48.66166" lon="1.71919">
        <ele>127</ele>
        <time>2010-05-14T10:22:36Z</time>
      </trkpt>
      <trkpt lat="48.66165" lon="1.71918">
        <ele>127</ele>
        <time>2010-05-14T10:22:37Z</time>
      </trkpt>
      <trkpt lat="48.66163" lon="1.71918">
        <ele>127</ele>
        <time>2010-05-14T10:22:39Z</time>
      </trkpt>
      <trkpt lat="48.66161" lon="1.71915">
        <ele>126</ele>
        <time>2010-05-14T10:22:41Z</time>
      </trkpt>
      <trkpt lat="48.6616" lon="1.71913">
        <ele>125</ele>
        <time>2010-05-14T10:22:42Z</time>
      </trkpt>
      <trkpt lat="48.66159" lon="1.71912">
        <ele>125</ele>
        <time>2010-05-14T10:22:43Z</time>
      </trkpt>
      <trkpt lat="48.66157" lon="1.71909">
        <ele>124</ele>
        <time>2010-05-14T10:22:45Z</time>
      </trkpt>
      <trkpt lat="48.66156" lon="1.71907">
        <ele>123</ele>
        <time>2010-05-14T10:22:46Z</time>
      </trkpt>
      <trkpt lat="48.66154" lon="1.71905">
        <ele>123</ele>
        <time>2010-05-14T10:22:48Z</time>
      </trkpt>
      <trkpt lat="48.66153" lon="1.71903">
        <ele>123</ele>
        <time>2010-05-14T10:22:50Z</time>
      </trkpt>
      <trkpt lat="48.66152" lon="1.719">
        <ele>123</ele>
        <time>2010-05-14T10:22:52Z</time>
      </trkpt>
      <trkpt lat="48.66152" lon="1.71898">
        <ele>123</ele>
        <time>2010-05-14T10:22:53Z</time>
      </trkpt>
      <trkpt lat="48.66151" lon="1.71896">
        <ele>123</ele>
        <time>2010-05-14T10:22:54Z</time>
      </trkpt>
      <trkpt lat="48.6615" lon="1.71894">
        <ele>124</ele>
        <time>2010-05-14T10:22:56Z</time>
      </trkpt>
      <trkpt lat="48.66149" lon="1.71892">
        <ele>124</ele>
        <time>2010-05-14T10:22:58Z</time>
      </trkpt>
      <trkpt lat="48.66149" lon="1.71889">
        <ele>124</ele>
        <time>2010-05-14T10:23:00Z</time>
      </trkpt>
      <trkpt lat="48.66147" lon="1.71886">
        <ele>124</ele>
        <time>2010-05-14T10:23:02Z</time>
      </trkpt>
      <trkpt lat="48.66146" lon="1.71883">
        <ele>124</ele>
        <time>2010-05-14T10:23:04Z</time>
      </trkpt>
      <trkpt lat="48.66145" lon="1.7188">
        <ele>124</ele>
        <time>2010-05-14T10:23:06Z</time>
      </trkpt>
      <trkpt lat="48.66144" lon="1.71877">
        <ele>124</ele>
        <time>2010-05-14T10:23:09Z</time>
      </trkpt>
      <trkpt lat="48.66144" lon="1.71875">
        <ele>124</ele>
        <time>2010-05-14T10:23:10Z</time>
      </trkpt>
      <trkpt lat="48.66143" lon="1.71873">
        <ele>124</ele>
        <time>2010-05-14T10:23:11Z</time>
      </trkpt>
      <trkpt lat="48.66142" lon="1.71871">
        <ele>124</ele>
        <time>2010-05-14T10:23:12Z</time>
      </trkpt>
      <trkpt lat="48.66141" lon="1.71869">
        <ele>124</ele>
        <time>2010-05-14T10:23:13Z</time>
      </trkpt>
      <trkpt lat="48.6614" lon="1.71866">
        <ele>124</ele>
        <time>2010-05-14T10:23:15Z</time>
      </trkpt>
      <trkpt lat="48.66139" lon="1.71864">
        <ele>124</ele>
        <time>2010-05-14T10:23:16Z</time>
      </trkpt>
      <trkpt lat="48.66138" lon="1.71863">
        <ele>124</ele>
        <time>2010-05-14T10:23:17Z</time>
      </trkpt>
      <trkpt lat="48.66137" lon="1.71861">
        <ele>124</ele>
        <time>2010-05-14T10:23:18Z</time>
      </trkpt>
      <trkpt lat="48.66136" lon="1.71859">
        <ele>124</ele>
        <time>2010-05-14T10:23:19Z</time>
      </trkpt>
      <trkpt lat="48.66134" lon="1.71859">
        <ele>124</ele>
        <time>2010-05-14T10:23:20Z</time>
      </trkpt>
      <trkpt lat="48.66133" lon="1.71858">
        <ele>124</ele>
        <time>2010-05-14T10:23:21Z</time>
      </trkpt>
      <trkpt lat="48.66131" lon="1.71857">
        <ele>125</ele>
        <time>2010-05-14T10:23:22Z</time>
      </trkpt>
      <trkpt lat="48.66129" lon="1.71857">
        <ele>126</ele>
        <time>2010-05-14T10:23:24Z</time>
      </trkpt>
      <trkpt lat="48.66127" lon="1.71856">
        <ele>126</ele>
        <time>2010-05-14T10:23:26Z</time>
      </trkpt>
      <trkpt lat="48.66125" lon="1.71854">
        <ele>126</ele>
        <time>2010-05-14T10:23:28Z</time>
      </trkpt>
      <trkpt lat="48.66124" lon="1.71852">
        <ele>126</ele>
        <time>2010-05-14T10:23:30Z</time>
      </trkpt>
      <trkpt lat="48.66122" lon="1.7185">
        <ele>126</ele>
        <time>2010-05-14T10:23:31Z</time>
      </trkpt>
      <trkpt lat="48.6612" lon="1.71847">
        <ele>126</ele>
        <time>2010-05-14T10:23:32Z</time>
      </trkpt>
      <trkpt lat="48.66117" lon="1.71844">
        <ele>127</ele>
        <time>2010-05-14T10:23:34Z</time>
      </trkpt>
      <trkpt lat="48.66115" lon="1.71842">
        <ele>127</ele>
        <time>2010-05-14T10:23:35Z</time>
      </trkpt>
      <trkpt lat="48.66113" lon="1.7184">
        <ele>127</ele>
        <time>2010-05-14T10:23:36Z</time>
      </trkpt>
      <trkpt lat="48.66111" lon="1.71838">
        <ele>127</ele>
        <time>2010-05-14T10:23:38Z</time>
      </trkpt>
      <trkpt lat="48.66109" lon="1.71837">
        <ele>127</ele>
        <time>2010-05-14T10:23:39Z</time>
      </trkpt>
      <trkpt lat="48.66108" lon="1.71836">
        <ele>127</ele>
        <time>2010-05-14T10:23:40Z</time>
      </trkpt>
      <trkpt lat="48.66106" lon="1.71834">
        <ele>127</ele>
        <time>2010-05-14T10:23:41Z</time>
      </trkpt>
      <trkpt lat="48.66105" lon="1.71834">
        <ele>127</ele>
        <time>2010-05-14T10:23:42Z</time>
      </trkpt>
      <trkpt lat="48.66104" lon="1.71834">
        <ele>127</ele>
        <time>2010-05-14T10:23:43Z</time>
      </trkpt>
      <trkpt lat="48.66102" lon="1.71833">
        <ele>127</ele>
        <time>2010-05-14T10:23:44Z</time>
      </trkpt>
      <trkpt lat="48.661" lon="1.71833">
        <ele>128</ele>
        <time>2010-05-14T10:23:45Z</time>
      </trkpt>
      <trkpt lat="48.66099" lon="1.71832">
        <ele>129</ele>
        <time>2010-05-14T10:23:46Z</time>
      </trkpt>
      <trkpt lat="48.66097" lon="1.71832">
        <ele>129</ele>
        <time>2010-05-14T10:23:47Z</time>
      </trkpt>
      <trkpt lat="48.66095" lon="1.71832">
        <ele>130</ele>
        <time>2010-05-14T10:23:48Z</time>
      </trkpt>
      <trkpt lat="48.66092" lon="1.71832">
        <ele>131</ele>
        <time>2010-05-14T10:23:50Z</time>
      </trkpt>
      <trkpt lat="48.66091" lon="1.71832">
        <ele>131</ele>
        <time>2010-05-14T10:23:51Z</time>
      </trkpt>
      <trkpt lat="48.6609" lon="1.71831">
        <ele>131</ele>
        <time>2010-05-14T10:23:52Z</time>
      </trkpt>
      <trkpt lat="48.66089" lon="1.71831">
        <ele>131</ele>
        <time>2010-05-14T10:23:53Z</time>
      </trkpt>
      <trkpt lat="48.66087" lon="1.71831">
        <ele>131</ele>
        <time>2010-05-14T10:23:54Z</time>
      </trkpt>
      <trkpt lat="48.66085" lon="1.71831">
        <ele>131</ele>
        <time>2010-05-14T10:23:55Z</time>
      </trkpt>
      <trkpt lat="48.66083" lon="1.7183">
        <ele>132</ele>
        <time>2010-05-14T10:23:56Z</time>
      </trkpt>
      <trkpt lat="48.66081" lon="1.7183">
        <ele>132</ele>
        <time>2010-05-14T10:23:57Z</time>
      </trkpt>
      <trkpt lat="48.6608" lon="1.7183">
        <ele>133</ele>
        <time>2010-05-14T10:23:58Z</time>
      </trkpt>
      <trkpt lat="48.66079" lon="1.71829">
        <ele>134</ele>
        <time>2010-05-14T10:23:59Z</time>
      </trkpt>
      <trkpt lat="48.66077" lon="1.71829">
        <ele>135</ele>
        <time>2010-05-14T10:24:00Z</time>
      </trkpt>
      <trkpt lat="48.66075" lon="1.71829">
        <ele>136</ele>
        <time>2010-05-14T10:24:01Z</time>
      </trkpt>
      <trkpt lat="48.66073" lon="1.71829">
        <ele>137</ele>
        <time>2010-05-14T10:24:02Z</time>
      </trkpt>
      <trkpt lat="48.66071" lon="1.71829">
        <ele>138</ele>
        <time>2010-05-14T10:24:03Z</time>
      </trkpt>
      <trkpt lat="48.66069" lon="1.71829">
        <ele>138</ele>
        <time>2010-05-14T10:24:04Z</time>
      </trkpt>
      <trkpt lat="48.66068" lon="1.71829">
        <ele>138</ele>
        <time>2010-05-14T10:24:05Z</time>
      </trkpt>
      <trkpt lat="48.66066" lon="1.71829">
        <ele>138</ele>
        <time>2010-05-14T10:24:06Z</time>
      </trkpt>
      <trkpt lat="48.66064" lon="1.71829">
        <ele>138</ele>
        <time>2010-05-14T10:24:07Z</time>
      </trkpt>
      <trkpt lat="48.66062" lon="1.71829">
        <ele>138</ele>
        <time>2010-05-14T10:24:08Z</time>
      </trkpt>
      <trkpt lat="48.66061" lon="1.71829">
        <ele>138</ele>
        <time>2010-05-14T10:24:09Z</time>
      </trkpt>
      <trkpt lat="48.6606" lon="1.71829">
        <ele>138</ele>
        <time>2010-05-14T10:24:10Z</time>
      </trkpt>
      <trkpt lat="48.66058" lon="1.71829">
        <ele>138</ele>
        <time>2010-05-14T10:24:12Z</time>
      </trkpt>
      <trkpt lat="48.66056" lon="1.71829">
        <ele>138</ele>
        <time>2010-05-14T10:24:13Z</time>
      </trkpt>
      <trkpt lat="48.66055" lon="1.7183">
        <ele>138</ele>
        <time>2010-05-14T10:24:14Z</time>
      </trkpt>
      <trkpt lat="48.66054" lon="1.71831">
        <ele>138</ele>
        <time>2010-05-14T10:24:15Z</time>
      </trkpt>
      <trkpt lat="48.66052" lon="1.71831">
        <ele>137</ele>
        <time>2010-05-14T10:24:16Z</time>
      </trkpt>
      <trkpt lat="48.6605" lon="1.71831">
        <ele>136</ele>
        <time>2010-05-14T10:24:17Z</time>
      </trkpt>
      <trkpt lat="48.66049" lon="1.71832">
        <ele>135</ele>
        <time>2010-05-14T10:24:18Z</time>
      </trkpt>
      <trkpt lat="48.66047" lon="1.71832">
        <ele>135</ele>
        <time>2010-05-14T10:24:19Z</time>
      </trkpt>
      <trkpt lat="48.66045" lon="1.71832">
        <ele>134</ele>
        <time>2010-05-14T10:24:20Z</time>
      </trkpt>
      <trkpt lat="48.66044" lon="1.71831">
        <ele>134</ele>
        <time>2010-05-14T10:24:21Z</time>
      </trkpt>
      <trkpt lat="48.66042" lon="1.71832">
        <ele>134</ele>
        <time>2010-05-14T10:24:22Z</time>
      </trkpt>
      <trkpt lat="48.66041" lon="1.71831">
        <ele>134</ele>
        <time>2010-05-14T10:24:23Z</time>
      </trkpt>
      <trkpt lat="48.66038" lon="1.71831">
        <ele>134</ele>
        <time>2010-05-14T10:24:25Z</time>
      </trkpt>
      <trkpt lat="48.66036" lon="1.71831">
        <ele>134</ele>
        <time>2010-05-14T10:24:26Z</time>
      </trkpt>
      <trkpt lat="48.66033" lon="1.71832">
        <ele>134</ele>
        <time>2010-05-14T10:24:27Z</time>
      </trkpt>
      <trkpt lat="48.66031" lon="1.71831">
        <ele>133</ele>
        <time>2010-05-14T10:24:28Z</time>
      </trkpt>
      <trkpt lat="48.66029" lon="1.71831">
        <ele>132</ele>
        <time>2010-05-14T10:24:29Z</time>
      </trkpt>
      <trkpt lat="48.66026" lon="1.71831">
        <ele>132</ele>
        <time>2010-05-14T10:24:30Z</time>
      </trkpt>
      <trkpt lat="48.66025" lon="1.71832">
        <ele>132</ele>
        <time>2010-05-14T10:24:31Z</time>
      </trkpt>
      <trkpt lat="48.66023" lon="1.71832">
        <ele>132</ele>
        <time>2010-05-14T10:24:32Z</time>
      </trkpt>
      <trkpt lat="48.66022" lon="1.71831">
        <ele>132</ele>
        <time>2010-05-14T10:24:33Z</time>
      </trkpt>
      <trkpt lat="48.66021" lon="1.71831">
        <ele>132</ele>
        <time>2010-05-14T10:24:34Z</time>
      </trkpt>
      <trkpt lat="48.66019" lon="1.7183">
        <ele>132</ele>
        <time>2010-05-14T10:24:35Z</time>
      </trkpt>
      <trkpt lat="48.66018" lon="1.7183">
        <ele>132</ele>
        <time>2010-05-14T10:24:36Z</time>
      </trkpt>
      <trkpt lat="48.66016" lon="1.7183">
        <ele>132</ele>
        <time>2010-05-14T10:24:37Z</time>
      </trkpt>
      <trkpt lat="48.66014" lon="1.71831">
        <ele>132</ele>
        <time>2010-05-14T10:24:38Z</time>
      </trkpt>
      <trkpt lat="48.66013" lon="1.71831">
        <ele>132</ele>
        <time>2010-05-14T10:24:39Z</time>
      </trkpt>
      <trkpt lat="48.66011" lon="1.71831">
        <ele>132</ele>
        <time>2010-05-14T10:24:40Z</time>
      </trkpt>
      <trkpt lat="48.6601" lon="1.7183">
        <ele>132</ele>
        <time>2010-05-14T10:24:41Z</time>
      </trkpt>
      <trkpt lat="48.66008" lon="1.71831">
        <ele>132</ele>
        <time>2010-05-14T10:24:42Z</time>
      </trkpt>
      <trkpt lat="48.66007" lon="1.71831">
        <ele>132</ele>
        <time>2010-05-14T10:24:43Z</time>
      </trkpt>
      <trkpt lat="48.66005" lon="1.71831">
        <ele>132</ele>
        <time>2010-05-14T10:24:44Z</time>
      </trkpt>
      <trkpt lat="48.66003" lon="1.71831">
        <ele>132</ele>
        <time>2010-05-14T10:24:45Z</time>
      </trkpt>
      <trkpt lat="48.66002" lon="1.71831">
        <ele>132</ele>
        <time>2010-05-14T10:24:46Z</time>
      </trkpt>
      <trkpt lat="48.66" lon="1.71832">
        <ele>132</ele>
        <time>2010-05-14T10:24:47Z</time>
      </trkpt>
      <trkpt lat="48.65999" lon="1.71832">
        <ele>133</ele>
        <time>2010-05-14T10:24:48Z</time>
      </trkpt>
      <trkpt lat="48.65997" lon="1.71832">
        <ele>133</ele>
        <time>2010-05-14T10:24:49Z</time>
      </trkpt>
      <trkpt lat="48.65996" lon="1.71833">
        <ele>133</ele>
        <time>2010-05-14T10:24:50Z</time>
      </trkpt>
      <trkpt lat="48.65994" lon="1.71832">
        <ele>133</ele>
        <time>2010-05-14T10:24:51Z</time>
      </trkpt>
      <trkpt lat="48.65993" lon="1.71832">
        <ele>133</ele>
        <time>2010-05-14T10:24:52Z</time>
      </trkpt>
      <trkpt lat="48.65991" lon="1.71832">
        <ele>133</ele>
        <time>2010-05-14T10:24:53Z</time>
      </trkpt>
      <trkpt lat="48.6599" lon="1.71832">
        <ele>133</ele>
        <time>2010-05-14T10:24:54Z</time>
      </trkpt>
      <trkpt lat="48.65989" lon="1.71833">
        <ele>133</ele>
        <time>2010-05-14T10:24:55Z</time>
      </trkpt>
      <trkpt lat="48.65987" lon="1.71834">
        <ele>133</ele>
        <time>2010-05-14T10:24:56Z</time>
      </trkpt>
      <trkpt lat="48.65986" lon="1.71834">
        <ele>133</ele>
        <time>2010-05-14T10:24:57Z</time>
      </trkpt>
      <trkpt lat="48.65984" lon="1.71834">
        <ele>133</ele>
        <time>2010-05-14T10:24:58Z</time>
      </trkpt>
      <trkpt lat="48.65983" lon="1.71834">
        <ele>133</ele>
        <time>2010-05-14T10:24:59Z</time>
      </trkpt>
      <trkpt lat="48.65982" lon="1.71835">
        <ele>133</ele>
        <time>2010-05-14T10:25:00Z</time>
      </trkpt>
      <trkpt lat="48.6598" lon="1.71834">
        <ele>133</ele>
        <time>2010-05-14T10:25:01Z</time>
      </trkpt>
      <trkpt lat="48.65978" lon="1.71834">
        <ele>133</ele>
        <time>2010-05-14T10:25:02Z</time>
      </trkpt>
      <trkpt lat="48.65977" lon="1.71834">
        <ele>133</ele>
        <time>2010-05-14T10:25:03Z</time>
      </trkpt>
      <trkpt lat="48.65976" lon="1.71834">
        <ele>133</ele>
        <time>2010-05-14T10:25:04Z</time>
      </trkpt>
      <trkpt lat="48.65974" lon="1.71834">
        <ele>133</ele>
        <time>2010-05-14T10:25:05Z</time>
      </trkpt>
      <trkpt lat="48.65972" lon="1.71834">
        <ele>133</ele>
        <time>2010-05-14T10:25:06Z</time>
      </trkpt>
      <trkpt lat="48.65971" lon="1.71835">
        <ele>134</ele>
        <time>2010-05-14T10:25:07Z</time>
      </trkpt>
      <trkpt lat="48.65969" lon="1.71835">
        <ele>134</ele>
        <time>2010-05-14T10:25:08Z</time>
      </trkpt>
      <trkpt lat="48.65967" lon="1.71836">
        <ele>135</ele>
        <time>2010-05-14T10:25:09Z</time>
      </trkpt>
      <trkpt lat="48.65965" lon="1.71836">
        <ele>136</ele>
        <time>2010-05-14T10:25:10Z</time>
      </trkpt>
      <trkpt lat="48.65963" lon="1.71836">
        <ele>136</ele>
        <time>2010-05-14T10:25:11Z</time>
      </trkpt>
      <trkpt lat="48.65961" lon="1.71837">
        <ele>136</ele>
        <time>2010-05-14T10:25:12Z</time>
      </trkpt>
      <trkpt lat="48.65959" lon="1.71836">
        <ele>136</ele>
        <time>2010-05-14T10:25:13Z</time>
      </trkpt>
      <trkpt lat="48.65958" lon="1.71836">
        <ele>137</ele>
        <time>2010-05-14T10:25:14Z</time>
      </trkpt>
      <trkpt lat="48.65956" lon="1.71836">
        <ele>137</ele>
        <time>2010-05-14T10:25:15Z</time>
      </trkpt>
      <trkpt lat="48.65955" lon="1.71837">
        <ele>138</ele>
        <time>2010-05-14T10:25:16Z</time>
      </trkpt>
      <trkpt lat="48.65954" lon="1.71839">
        <ele>139</ele>
        <time>2010-05-14T10:25:17Z</time>
      </trkpt>
      <trkpt lat="48.65952" lon="1.71838">
        <ele>140</ele>
        <time>2010-05-14T10:25:18Z</time>
      </trkpt>
      <trkpt lat="48.65951" lon="1.71838">
        <ele>141</ele>
        <time>2010-05-14T10:25:19Z</time>
      </trkpt>
      <trkpt lat="48.65949" lon="1.71839">
        <ele>142</ele>
        <time>2010-05-14T10:25:20Z</time>
      </trkpt>
      <trkpt lat="48.65948" lon="1.7184">
        <ele>143</ele>
        <time>2010-05-14T10:25:21Z</time>
      </trkpt>
      <trkpt lat="48.65946" lon="1.71841">
        <ele>144</ele>
        <time>2010-05-14T10:25:22Z</time>
      </trkpt>
      <trkpt lat="48.65945" lon="1.71842">
        <ele>145</ele>
        <time>2010-05-14T10:25:23Z</time>
      </trkpt>
      <trkpt lat="48.65943" lon="1.71843">
        <ele>146</ele>
        <time>2010-05-14T10:25:24Z</time>
      </trkpt>
      <trkpt lat="48.65942" lon="1.71844">
        <ele>147</ele>
        <time>2010-05-14T10:25:25Z</time>
      </trkpt>
      <trkpt lat="48.6594" lon="1.71844">
        <ele>147</ele>
        <time>2010-05-14T10:25:26Z</time>
      </trkpt>
      <trkpt lat="48.65939" lon="1.71845">
        <ele>147</ele>
        <time>2010-05-14T10:25:27Z</time>
      </trkpt>
      <trkpt lat="48.65937" lon="1.71846">
        <ele>147</ele>
        <time>2010-05-14T10:25:28Z</time>
      </trkpt>
      <trkpt lat="48.65935" lon="1.71847">
        <ele>147</ele>
        <time>2010-05-14T10:25:29Z</time>
      </trkpt>
      <trkpt lat="48.65933" lon="1.71848">
        <ele>147</ele>
        <time>2010-05-14T10:25:30Z</time>
      </trkpt>
      <trkpt lat="48.65931" lon="1.71849">
        <ele>147</ele>
        <time>2010-05-14T10:25:31Z</time>
      </trkpt>
      <trkpt lat="48.65928" lon="1.71851">
        <ele>147</ele>
        <time>2010-05-14T10:25:33Z</time>
      </trkpt>
      <trkpt lat="48.65926" lon="1.71851">
        <ele>147</ele>
        <time>2010-05-14T10:25:34Z</time>
      </trkpt>
      <trkpt lat="48.65923" lon="1.71852">
        <ele>147</ele>
        <time>2010-05-14T10:25:35Z</time>
      </trkpt>
      <trkpt lat="48.65921" lon="1.71853">
        <ele>147</ele>
        <time>2010-05-14T10:25:36Z</time>
      </trkpt>
      <trkpt lat="48.65919" lon="1.71854">
        <ele>147</ele>
        <time>2010-05-14T10:25:37Z</time>
      </trkpt>
      <trkpt lat="48.65917" lon="1.71855">
        <ele>147</ele>
        <time>2010-05-14T10:25:38Z</time>
      </trkpt>
      <trkpt lat="48.65915" lon="1.71855">
        <ele>147</ele>
        <time>2010-05-14T10:25:39Z</time>
      </trkpt>
      <trkpt lat="48.65914" lon="1.71855">
        <ele>147</ele>
        <time>2010-05-14T10:25:40Z</time>
      </trkpt>
      <trkpt lat="48.65913" lon="1.71856">
        <ele>147</ele>
        <time>2010-05-14T10:25:41Z</time>
      </trkpt>
      <trkpt lat="48.65912" lon="1.71857">
        <ele>147</ele>
        <time>2010-05-14T10:25:42Z</time>
      </trkpt>
      <trkpt lat="48.6591" lon="1.71858">
        <ele>147</ele>
        <time>2010-05-14T10:25:43Z</time>
      </trkpt>
      <trkpt lat="48.65909" lon="1.71858">
        <ele>147</ele>
        <time>2010-05-14T10:25:44Z</time>
      </trkpt>
      <trkpt lat="48.65905" lon="1.71858">
        <ele>147</ele>
        <time>2010-05-14T10:25:47Z</time>
      </trkpt>
      <trkpt lat="48.65903" lon="1.7186">
        <ele>147</ele>
        <time>2010-05-14T10:25:48Z</time>
      </trkpt>
      <trkpt lat="48.65902" lon="1.71861">
        <ele>147</ele>
        <time>2010-05-14T10:25:49Z</time>
      </trkpt>
      <trkpt lat="48.65901" lon="1.71863">
        <ele>147</ele>
        <time>2010-05-14T10:25:50Z</time>
      </trkpt>
      <trkpt lat="48.65899" lon="1.71862">
        <ele>147</ele>
        <time>2010-05-14T10:25:51Z</time>
      </trkpt>
      <trkpt lat="48.65897" lon="1.71862">
        <ele>147</ele>
        <time>2010-05-14T10:25:52Z</time>
      </trkpt>
      <trkpt lat="48.65894" lon="1.71862">
        <ele>147</ele>
        <time>2010-05-14T10:25:53Z</time>
      </trkpt>
      <trkpt lat="48.65891" lon="1.71861">
        <ele>147</ele>
        <time>2010-05-14T10:25:54Z</time>
      </trkpt>
      <trkpt lat="48.65889" lon="1.71862">
        <ele>147</ele>
        <time>2010-05-14T10:25:55Z</time>
      </trkpt>
      <trkpt lat="48.65887" lon="1.71862">
        <ele>147</ele>
        <time>2010-05-14T10:25:56Z</time>
      </trkpt>
      <trkpt lat="48.65885" lon="1.71862">
        <ele>147</ele>
        <time>2010-05-14T10:25:57Z</time>
      </trkpt>
      <trkpt lat="48.65884" lon="1.71863">
        <ele>146</ele>
        <time>2010-05-14T10:25:58Z</time>
      </trkpt>
      <trkpt lat="48.65882" lon="1.71862">
        <ele>145</ele>
        <time>2010-05-14T10:25:59Z</time>
      </trkpt>
      <trkpt lat="48.6588" lon="1.71861">
        <ele>145</ele>
        <time>2010-05-14T10:26:00Z</time>
      </trkpt>
      <trkpt lat="48.65879" lon="1.71861">
        <ele>144</ele>
        <time>2010-05-14T10:26:01Z</time>
      </trkpt>
      <trkpt lat="48.65878" lon="1.71862">
        <ele>144</ele>
        <time>2010-05-14T10:26:02Z</time>
      </trkpt>
      <trkpt lat="48.65876" lon="1.71862">
        <ele>144</ele>
        <time>2010-05-14T10:26:03Z</time>
      </trkpt>
      <trkpt lat="48.65874" lon="1.71862">
        <ele>144</ele>
        <time>2010-05-14T10:26:04Z</time>
      </trkpt>
      <trkpt lat="48.65873" lon="1.71863">
        <ele>144</ele>
        <time>2010-05-14T10:26:05Z</time>
      </trkpt>
      <trkpt lat="48.65871" lon="1.71864">
        <ele>144</ele>
        <time>2010-05-14T10:26:06Z</time>
      </trkpt>
      <trkpt lat="48.65869" lon="1.71864">
        <ele>144</ele>
        <time>2010-05-14T10:26:07Z</time>
      </trkpt>
      <trkpt lat="48.65867" lon="1.71865">
        <ele>144</ele>
        <time>2010-05-14T10:26:08Z</time>
      </trkpt>
      <trkpt lat="48.65866" lon="1.71866">
        <ele>144</ele>
        <time>2010-05-14T10:26:09Z</time>
      </trkpt>
      <trkpt lat="48.65864" lon="1.71867">
        <ele>144</ele>
        <time>2010-05-14T10:26:10Z</time>
      </trkpt>
      <trkpt lat="48.65862" lon="1.71868">
        <ele>144</ele>
        <time>2010-05-14T10:26:11Z</time>
      </trkpt>
      <trkpt lat="48.6586" lon="1.71868">
        <ele>144</ele>
        <time>2010-05-14T10:26:12Z</time>
      </trkpt>
      <trkpt lat="48.65859" lon="1.71868">
        <ele>144</ele>
        <time>2010-05-14T10:26:13Z</time>
      </trkpt>
      <trkpt lat="48.65857" lon="1.71868">
        <ele>144</ele>
        <time>2010-05-14T10:26:14Z</time>
      </trkpt>
      <trkpt lat="48.65856" lon="1.71868">
        <ele>144</ele>
        <time>2010-05-14T10:26:15Z</time>
      </trkpt>
      <trkpt lat="48.65854" lon="1.71868">
        <ele>144</ele>
        <time>2010-05-14T10:26:16Z</time>
      </trkpt>
      <trkpt lat="48.65852" lon="1.71868">
        <ele>144</ele>
        <time>2010-05-14T10:26:17Z</time>
      </trkpt>
      <trkpt lat="48.65851" lon="1.71868">
        <ele>144</ele>
        <time>2010-05-14T10:26:18Z</time>
      </trkpt>
      <trkpt lat="48.65848" lon="1.71869">
        <ele>144</ele>
        <time>2010-05-14T10:26:20Z</time>
      </trkpt>
      <trkpt lat="48.65847" lon="1.71869">
        <ele>143</ele>
        <time>2010-05-14T10:26:21Z</time>
      </trkpt>
      <trkpt lat="48.65846" lon="1.71869">
        <ele>143</ele>
        <time>2010-05-14T10:26:22Z</time>
      </trkpt>
      <trkpt lat="48.65844" lon="1.71868">
        <ele>143</ele>
        <time>2010-05-14T10:26:23Z</time>
      </trkpt>
      <trkpt lat="48.65843" lon="1.71868">
        <ele>142</ele>
        <time>2010-05-14T10:26:24Z</time>
      </trkpt>
      <trkpt lat="48.65842" lon="1.71868">
        <ele>142</ele>
        <time>2010-05-14T10:26:25Z</time>
      </trkpt>
      <trkpt lat="48.6584" lon="1.71867">
        <ele>142</ele>
        <time>2010-05-14T10:26:26Z</time>
      </trkpt>
      <trkpt lat="48.65839" lon="1.71867">
        <ele>142</ele>
        <time>2010-05-14T10:26:27Z</time>
      </trkpt>
      <trkpt lat="48.65837" lon="1.71866">
        <ele>142</ele>
        <time>2010-05-14T10:26:28Z</time>
      </trkpt>
      <trkpt lat="48.65835" lon="1.71867">
        <ele>142</ele>
        <time>2010-05-14T10:26:29Z</time>
      </trkpt>
      <trkpt lat="48.65833" lon="1.71867">
        <ele>142</ele>
        <time>2010-05-14T10:26:30Z</time>
      </trkpt>
      <trkpt lat="48.65831" lon="1.71868">
        <ele>142</ele>
        <time>2010-05-14T10:26:31Z</time>
      </trkpt>
      <trkpt lat="48.6583" lon="1.71869">
        <ele>142</ele>
        <time>2010-05-14T10:26:32Z</time>
      </trkpt>
      <trkpt lat="48.65829" lon="1.71869">
        <ele>142</ele>
        <time>2010-05-14T10:26:33Z</time>
      </trkpt>
      <trkpt lat="48.65827" lon="1.71869">
        <ele>142</ele>
        <time>2010-05-14T10:26:34Z</time>
      </trkpt>
      <trkpt lat="48.65826" lon="1.71869">
        <ele>142</ele>
        <time>2010-05-14T10:26:35Z</time>
      </trkpt>
      <trkpt lat="48.65825" lon="1.71869">
        <ele>142</ele>
        <time>2010-05-14T10:26:36Z</time>
      </trkpt>
      <trkpt lat="48.65823" lon="1.71869">
        <ele>142</ele>
        <time>2010-05-14T10:26:37Z</time>
      </trkpt>
      <trkpt lat="48.65822" lon="1.71868">
        <ele>142</ele>
        <time>2010-05-14T10:26:38Z</time>
      </trkpt>
      <trkpt lat="48.6582" lon="1.71868">
        <ele>142</ele>
        <time>2010-05-14T10:26:39Z</time>
      </trkpt>
      <trkpt lat="48.65819" lon="1.71869">
        <ele>142</ele>
        <time>2010-05-14T10:26:40Z</time>
      </trkpt>
      <trkpt lat="48.65818" lon="1.71869">
        <ele>142</ele>
        <time>2010-05-14T10:26:41Z</time>
      </trkpt>
      <trkpt lat="48.65816" lon="1.71869">
        <ele>142</ele>
        <time>2010-05-14T10:26:42Z</time>
      </trkpt>
      <trkpt lat="48.65814" lon="1.71868">
        <ele>142</ele>
        <time>2010-05-14T10:26:43Z</time>
      </trkpt>
      <trkpt lat="48.65813" lon="1.71868">
        <ele>143</ele>
        <time>2010-05-14T10:26:44Z</time>
      </trkpt>
      <trkpt lat="48.65811" lon="1.71867">
        <ele>143</ele>
        <time>2010-05-14T10:26:45Z</time>
      </trkpt>
      <trkpt lat="48.65808" lon="1.71869">
        <ele>143</ele>
        <time>2010-05-14T10:26:47Z</time>
      </trkpt>
      <trkpt lat="48.65806" lon="1.7187">
        <ele>143</ele>
        <time>2010-05-14T10:26:48Z</time>
      </trkpt>
      <trkpt lat="48.65804" lon="1.7187">
        <ele>143</ele>
        <time>2010-05-14T10:26:50Z</time>
      </trkpt>
      <trkpt lat="48.65802" lon="1.7187">
        <ele>143</ele>
        <time>2010-05-14T10:26:51Z</time>
      </trkpt>
      <trkpt lat="48.65801" lon="1.7187">
        <ele>143</ele>
        <time>2010-05-14T10:26:52Z</time>
      </trkpt>
      <trkpt lat="48.658" lon="1.71871">
        <ele>143</ele>
        <time>2010-05-14T10:26:53Z</time>
      </trkpt>
      <trkpt lat="48.65798" lon="1.7187">
        <ele>143</ele>
        <time>2010-05-14T10:26:54Z</time>
      </trkpt>
      <trkpt lat="48.65796" lon="1.7187">
        <ele>143</ele>
        <time>2010-05-14T10:26:55Z</time>
      </trkpt>
      <trkpt lat="48.65793" lon="1.71869">
        <ele>142</ele>
        <time>2010-05-14T10:26:56Z</time>
      </trkpt>
      <trkpt lat="48.65791" lon="1.7187">
        <ele>142</ele>
        <time>2010-05-14T10:26:57Z</time>
      </trkpt>
      <trkpt lat="48.65788" lon="1.71871">
        <ele>141</ele>
        <time>2010-05-14T10:26:58Z</time>
      </trkpt>
      <trkpt lat="48.65786" lon="1.71871">
        <ele>141</ele>
        <time>2010-05-14T10:26:59Z</time>
      </trkpt>
      <trkpt lat="48.65785" lon="1.71872">
        <ele>140</ele>
        <time>2010-05-14T10:27:00Z</time>
      </trkpt>
      <trkpt lat="48.65783" lon="1.71873">
        <ele>140</ele>
        <time>2010-05-14T10:27:01Z</time>
      </trkpt>
      <trkpt lat="48.65782" lon="1.71874">
        <ele>140</ele>
        <time>2010-05-14T10:27:03Z</time>
      </trkpt>
      <trkpt lat="48.6578" lon="1.71875">
        <ele>140</ele>
        <time>2010-05-14T10:27:04Z</time>
      </trkpt>
      <trkpt lat="48.65779" lon="1.71877">
        <ele>140</ele>
        <time>2010-05-14T10:27:06Z</time>
      </trkpt>
      <trkpt lat="48.65777" lon="1.71878">
        <ele>140</ele>
        <time>2010-05-14T10:27:07Z</time>
      </trkpt>
      <trkpt lat="48.65776" lon="1.71879">
        <ele>140</ele>
        <time>2010-05-14T10:27:08Z</time>
      </trkpt>
      <trkpt lat="48.65774" lon="1.71879">
        <ele>140</ele>
        <time>2010-05-14T10:27:09Z</time>
      </trkpt>
      <trkpt lat="48.65773" lon="1.7188">
        <ele>140</ele>
        <time>2010-05-14T10:27:10Z</time>
      </trkpt>
      <trkpt lat="48.65772" lon="1.71881">
        <ele>140</ele>
        <time>2010-05-14T10:27:11Z</time>
      </trkpt>
      <trkpt lat="48.6577" lon="1.71883">
        <ele>140</ele>
        <time>2010-05-14T10:27:12Z</time>
      </trkpt>
      <trkpt lat="48.65768" lon="1.71884">
        <ele>140</ele>
        <time>2010-05-14T10:27:13Z</time>
      </trkpt>
      <trkpt lat="48.65766" lon="1.71885">
        <ele>140</ele>
        <time>2010-05-14T10:27:14Z</time>
      </trkpt>
      <trkpt lat="48.65765" lon="1.71887">
        <ele>140</ele>
        <time>2010-05-14T10:27:15Z</time>
      </trkpt>
      <trkpt lat="48.65763" lon="1.71889">
        <ele>141</ele>
        <time>2010-05-14T10:27:16Z</time>
      </trkpt>
      <trkpt lat="48.65761" lon="1.7189">
        <ele>142</ele>
        <time>2010-05-14T10:27:18Z</time>
      </trkpt>
      <trkpt lat="48.65759" lon="1.71891">
        <ele>143</ele>
        <time>2010-05-14T10:27:19Z</time>
      </trkpt>
      <trkpt lat="48.65758" lon="1.71892">
        <ele>143</ele>
        <time>2010-05-14T10:27:20Z</time>
      </trkpt>
      <trkpt lat="48.65756" lon="1.71892">
        <ele>143</ele>
        <time>2010-05-14T10:27:21Z</time>
      </trkpt>
      <trkpt lat="48.65754" lon="1.71894">
        <ele>143</ele>
        <time>2010-05-14T10:27:23Z</time>
      </trkpt>
      <trkpt lat="48.65753" lon="1.71894">
        <ele>143</ele>
        <time>2010-05-14T10:27:24Z</time>
      </trkpt>
      <trkpt lat="48.65752" lon="1.71894">
        <ele>143</ele>
        <time>2010-05-14T10:27:25Z</time>
      </trkpt>
      <trkpt lat="48.65749" lon="1.71894">
        <ele>143</ele>
        <time>2010-05-14T10:27:28Z</time>
      </trkpt>
      <trkpt lat="48.65746" lon="1.71896">
        <ele>143</ele>
        <time>2010-05-14T10:27:29Z</time>
      </trkpt>
      <trkpt lat="48.65744" lon="1.71897">
        <ele>143</ele>
        <time>2010-05-14T10:27:30Z</time>
      </trkpt>
      <trkpt lat="48.65742" lon="1.71898">
        <ele>143</ele>
        <time>2010-05-14T10:27:31Z</time>
      </trkpt>
      <trkpt lat="48.6574" lon="1.71898">
        <ele>143</ele>
        <time>2010-05-14T10:27:32Z</time>
      </trkpt>
      <trkpt lat="48.65738" lon="1.71898">
        <ele>144</ele>
        <time>2010-05-14T10:27:33Z</time>
      </trkpt>
      <trkpt lat="48.65736" lon="1.71899">
        <ele>145</ele>
        <time>2010-05-14T10:27:34Z</time>
      </trkpt>
      <trkpt lat="48.65734" lon="1.719">
        <ele>145</ele>
        <time>2010-05-14T10:27:35Z</time>
      </trkpt>
      <trkpt lat="48.65733" lon="1.71901">
        <ele>146</ele>
        <time>2010-05-14T10:27:36Z</time>
      </trkpt>
      <trkpt lat="48.65732" lon="1.71901">
        <ele>147</ele>
        <time>2010-05-14T10:27:37Z</time>
      </trkpt>
      <trkpt lat="48.65729" lon="1.71901">
        <ele>149</ele>
        <time>2010-05-14T10:27:39Z</time>
      </trkpt>
      <trkpt lat="48.65728" lon="1.71902">
        <ele>150</ele>
        <time>2010-05-14T10:27:40Z</time>
      </trkpt>
      <trkpt lat="48.65726" lon="1.71902">
        <ele>151</ele>
        <time>2010-05-14T10:27:41Z</time>
      </trkpt>
      <trkpt lat="48.65725" lon="1.71903">
        <ele>151</ele>
        <time>2010-05-14T10:27:42Z</time>
      </trkpt>
      <trkpt lat="48.65723" lon="1.71903">
        <ele>152</ele>
        <time>2010-05-14T10:27:43Z</time>
      </trkpt>
      <trkpt lat="48.65722" lon="1.71904">
        <ele>153</ele>
        <time>2010-05-14T10:27:44Z</time>
      </trkpt>
      <trkpt lat="48.65721" lon="1.71905">
        <ele>154</ele>
        <time>2010-05-14T10:27:45Z</time>
      </trkpt>
      <trkpt lat="48.65719" lon="1.71907">
        <ele>154</ele>
        <time>2010-05-14T10:27:46Z</time>
      </trkpt>
      <trkpt lat="48.65717" lon="1.71907">
        <ele>155</ele>
        <time>2010-05-14T10:27:47Z</time>
      </trkpt>
      <trkpt lat="48.65715" lon="1.71908">
        <ele>156</ele>
        <time>2010-05-14T10:27:48Z</time>
      </trkpt>
      <trkpt lat="48.65714" lon="1.71909">
        <ele>157</ele>
        <time>2010-05-14T10:27:49Z</time>
      </trkpt>
      <trkpt lat="48.65712" lon="1.7191">
        <ele>157</ele>
        <time>2010-05-14T10:27:50Z</time>
      </trkpt>
      <trkpt lat="48.65709" lon="1.71912">
        <ele>158</ele>
        <time>2010-05-14T10:27:52Z</time>
      </trkpt>
      <trkpt lat="48.65707" lon="1.71913">
        <ele>158</ele>
        <time>2010-05-14T10:27:53Z</time>
      </trkpt>
      <trkpt lat="48.65705" lon="1.71915">
        <ele>158</ele>
        <time>2010-05-14T10:27:55Z</time>
      </trkpt>
      <trkpt lat="48.65703" lon="1.71915">
        <ele>158</ele>
        <time>2010-05-14T10:27:56Z</time>
      </trkpt>
      <trkpt lat="48.65702" lon="1.71915">
        <ele>158</ele>
        <time>2010-05-14T10:27:57Z</time>
      </trkpt>
      <trkpt lat="48.65701" lon="1.71915">
        <ele>158</ele>
        <time>2010-05-14T10:27:58Z</time>
      </trkpt>
      <trkpt lat="48.657" lon="1.71917">
        <ele>158</ele>
        <time>2010-05-14T10:27:59Z</time>
      </trkpt>
      <trkpt lat="48.65697" lon="1.71917">
        <ele>157</ele>
        <time>2010-05-14T10:28:01Z</time>
      </trkpt>
      <trkpt lat="48.65696" lon="1.71916">
        <ele>156</ele>
        <time>2010-05-14T10:28:02Z</time>
      </trkpt>
      <trkpt lat="48.65694" lon="1.71916">
        <ele>156</ele>
        <time>2010-05-14T10:28:04Z</time>
      </trkpt>
      <trkpt lat="48.65693" lon="1.71915">
        <ele>156</ele>
        <time>2010-05-14T10:28:05Z</time>
      </trkpt>
      <trkpt lat="48.65691" lon="1.71914">
        <ele>156</ele>
        <time>2010-05-14T10:28:06Z</time>
      </trkpt>
      <trkpt lat="48.6569" lon="1.71914">
        <ele>156</ele>
        <time>2010-05-14T10:28:07Z</time>
      </trkpt>
      <trkpt lat="48.65688" lon="1.71914">
        <ele>156</ele>
        <time>2010-05-14T10:28:08Z</time>
      </trkpt>
      <trkpt lat="48.65686" lon="1.71914">
        <ele>156</ele>
        <time>2010-05-14T10:28:09Z</time>
      </trkpt>
      <trkpt lat="48.65685" lon="1.71913">
        <ele>156</ele>
        <time>2010-05-14T10:28:10Z</time>
      </trkpt>
      <trkpt lat="48.65684" lon="1.71912">
        <ele>156</ele>
        <time>2010-05-14T10:28:11Z</time>
      </trkpt>
      <trkpt lat="48.65682" lon="1.71911">
        <ele>156</ele>
        <time>2010-05-14T10:28:12Z</time>
      </trkpt>
      <trkpt lat="48.65681" lon="1.7191">
        <ele>156</ele>
        <time>2010-05-14T10:28:13Z</time>
      </trkpt>
      <trkpt lat="48.6568" lon="1.71909">
        <ele>156</ele>
        <time>2010-05-14T10:28:14Z</time>
      </trkpt>
      <trkpt lat="48.65678" lon="1.71909">
        <ele>156</ele>
        <time>2010-05-14T10:28:15Z</time>
      </trkpt>
      <trkpt lat="48.65677" lon="1.7191">
        <ele>156</ele>
        <time>2010-05-14T10:28:16Z</time>
      </trkpt>
      <trkpt lat="48.65674" lon="1.7191">
        <ele>156</ele>
        <time>2010-05-14T10:28:18Z</time>
      </trkpt>
      <trkpt lat="48.65672" lon="1.7191">
        <ele>156</ele>
        <time>2010-05-14T10:28:20Z</time>
      </trkpt>
      <trkpt lat="48.6567" lon="1.71909">
        <ele>156</ele>
        <time>2010-05-14T10:28:22Z</time>
      </trkpt>
      <trkpt lat="48.65668" lon="1.71908">
        <ele>156</ele>
        <time>2010-05-14T10:28:23Z</time>
      </trkpt>
      <trkpt lat="48.65666" lon="1.71907">
        <ele>156</ele>
        <time>2010-05-14T10:28:24Z</time>
      </trkpt>
      <trkpt lat="48.65664" lon="1.71905">
        <ele>156</ele>
        <time>2010-05-14T10:28:25Z</time>
      </trkpt>
      <trkpt lat="48.65662" lon="1.71903">
        <ele>156</ele>
        <time>2010-05-14T10:28:26Z</time>
      </trkpt>
      <trkpt lat="48.65661" lon="1.71903">
        <ele>156</ele>
        <time>2010-05-14T10:28:27Z</time>
      </trkpt>
      <trkpt lat="48.65659" lon="1.71902">
        <ele>156</ele>
        <time>2010-05-14T10:28:28Z</time>
      </trkpt>
      <trkpt lat="48.65658" lon="1.71901">
        <ele>156</ele>
        <time>2010-05-14T10:28:29Z</time>
      </trkpt>
      <trkpt lat="48.65657" lon="1.71902">
        <ele>156</ele>
        <time>2010-05-14T10:28:30Z</time>
      </trkpt>
      <trkpt lat="48.65655" lon="1.71902">
        <ele>156</ele>
        <time>2010-05-14T10:28:32Z</time>
      </trkpt>
      <trkpt lat="48.65654" lon="1.71903">
        <ele>156</ele>
        <time>2010-05-14T10:28:33Z</time>
      </trkpt>
      <trkpt lat="48.65652" lon="1.71903">
        <ele>156</ele>
        <time>2010-05-14T10:28:35Z</time>
      </trkpt>
      <trkpt lat="48.6565" lon="1.71901">
        <ele>156</ele>
        <time>2010-05-14T10:28:37Z</time>
      </trkpt>
      <trkpt lat="48.65649" lon="1.719">
        <ele>156</ele>
        <time>2010-05-14T10:28:38Z</time>
      </trkpt>
      <trkpt lat="48.65648" lon="1.71899">
        <ele>156</ele>
        <time>2010-05-14T10:28:39Z</time>
      </trkpt>
      <trkpt lat="48.65647" lon="1.71898">
        <ele>156</ele>
        <time>2010-05-14T10:28:40Z</time>
      </trkpt>
      <trkpt lat="48.65645" lon="1.71898">
        <ele>156</ele>
        <time>2010-05-14T10:28:41Z</time>
      </trkpt>
      <trkpt lat="48.65644" lon="1.71898">
        <ele>156</ele>
        <time>2010-05-14T10:28:42Z</time>
      </trkpt>
      <trkpt lat="48.65643" lon="1.71896">
        <ele>156</ele>
        <time>2010-05-14T10:28:43Z</time>
      </trkpt>
      <trkpt lat="48.65641" lon="1.71894">
        <ele>156</ele>
        <time>2010-05-14T10:28:45Z</time>
      </trkpt>
      <trkpt lat="48.65639" lon="1.71893">
        <ele>156</ele>
        <time>2010-05-14T10:28:46Z</time>
      </trkpt>
      <trkpt lat="48.65638" lon="1.71892">
        <ele>156</ele>
        <time>2010-05-14T10:28:48Z</time>
      </trkpt>
      <trkpt lat="48.65637" lon="1.71891">
        <ele>156</ele>
        <time>2010-05-14T10:28:49Z</time>
      </trkpt>
      <trkpt lat="48.65635" lon="1.71891">
        <ele>156</ele>
        <time>2010-05-14T10:28:50Z</time>
      </trkpt>
      <trkpt lat="48.65634" lon="1.71889">
        <ele>156</ele>
        <time>2010-05-14T10:28:51Z</time>
      </trkpt>
      <trkpt lat="48.65633" lon="1.71887">
        <ele>156</ele>
        <time>2010-05-14T10:28:52Z</time>
      </trkpt>
      <trkpt lat="48.65632" lon="1.71886">
        <ele>156</ele>
        <time>2010-05-14T10:28:53Z</time>
      </trkpt>
      <trkpt lat="48.6563" lon="1.71884">
        <ele>156</ele>
        <time>2010-05-14T10:28:54Z</time>
      </trkpt>
      <trkpt lat="48.65629" lon="1.71883">
        <ele>156</ele>
        <time>2010-05-14T10:28:55Z</time>
      </trkpt>
      <trkpt lat="48.65627" lon="1.71882">
        <ele>156</ele>
        <time>2010-05-14T10:28:56Z</time>
      </trkpt>
      <trkpt lat="48.65625" lon="1.71881">
        <ele>155</ele>
        <time>2010-05-14T10:28:57Z</time>
      </trkpt>
      <trkpt lat="48.65624" lon="1.7188">
        <ele>154</ele>
        <time>2010-05-14T10:28:58Z</time>
      </trkpt>
      <trkpt lat="48.65623" lon="1.71879">
        <ele>154</ele>
        <time>2010-05-14T10:28:59Z</time>
      </trkpt>
      <trkpt lat="48.65622" lon="1.71878">
        <ele>153</ele>
        <time>2010-05-14T10:29:00Z</time>
      </trkpt>
      <trkpt lat="48.65621" lon="1.71875">
        <ele>152</ele>
        <time>2010-05-14T10:29:01Z</time>
      </trkpt>
      <trkpt lat="48.6562" lon="1.71874">
        <ele>151</ele>
        <time>2010-05-14T10:29:02Z</time>
      </trkpt>
      <trkpt lat="48.65619" lon="1.71873">
        <ele>151</ele>
        <time>2010-05-14T10:29:03Z</time>
      </trkpt>
      <trkpt lat="48.65617" lon="1.71871">
        <ele>150</ele>
        <time>2010-05-14T10:29:05Z</time>
      </trkpt>
      <trkpt lat="48.65615" lon="1.71869">
        <ele>149</ele>
        <time>2010-05-14T10:29:06Z</time>
      </trkpt>
      <trkpt lat="48.65614" lon="1.71869">
        <ele>149</ele>
        <time>2010-05-14T10:29:07Z</time>
      </trkpt>
      <trkpt lat="48.65612" lon="1.71867">
        <ele>149</ele>
        <time>2010-05-14T10:29:08Z</time>
      </trkpt>
      <trkpt lat="48.65611" lon="1.71866">
        <ele>149</ele>
        <time>2010-05-14T10:29:09Z</time>
      </trkpt>
      <trkpt lat="48.65609" lon="1.71865">
        <ele>149</ele>
        <time>2010-05-14T10:29:10Z</time>
      </trkpt>
      <trkpt lat="48.65605" lon="1.71862">
        <ele>149</ele>
        <time>2010-05-14T10:29:12Z</time>
      </trkpt>
      <trkpt lat="48.65603" lon="1.71861">
        <ele>149</ele>
        <time>2010-05-14T10:29:13Z</time>
      </trkpt>
      <trkpt lat="48.65601" lon="1.71861">
        <ele>149</ele>
        <time>2010-05-14T10:29:14Z</time>
      </trkpt>
      <trkpt lat="48.65599" lon="1.7186">
        <ele>149</ele>
        <time>2010-05-14T10:29:16Z</time>
      </trkpt>
      <trkpt lat="48.65598" lon="1.71859">
        <ele>150</ele>
        <time>2010-05-14T10:29:19Z</time>
      </trkpt>
      <trkpt lat="48.65596" lon="1.71858">
        <ele>150</ele>
        <time>2010-05-14T10:29:21Z</time>
      </trkpt>
      <trkpt lat="48.65596" lon="1.71856">
        <ele>150</ele>
        <time>2010-05-14T10:29:23Z</time>
      </trkpt>
      <trkpt lat="48.65596" lon="1.71854">
        <ele>151</ele>
        <time>2010-05-14T10:29:24Z</time>
      </trkpt>
      <trkpt lat="48.65595" lon="1.71851">
        <ele>153</ele>
        <time>2010-05-14T10:29:27Z</time>
      </trkpt>
      <trkpt lat="48.65594" lon="1.71849">
        <ele>154</ele>
        <time>2010-05-14T10:29:28Z</time>
      </trkpt>
      <trkpt lat="48.65595" lon="1.71847">
        <ele>154</ele>
        <time>2010-05-14T10:29:29Z</time>
      </trkpt>
      <trkpt lat="48.65593" lon="1.71847">
        <ele>154</ele>
        <time>2010-05-14T10:29:32Z</time>
      </trkpt>
      <trkpt lat="48.65592" lon="1.71847">
        <ele>154</ele>
        <time>2010-05-14T10:29:33Z</time>
      </trkpt>
      <trkpt lat="48.65591" lon="1.71847">
        <ele>154</ele>
        <time>2010-05-14T10:29:34Z</time>
      </trkpt>
      <trkpt lat="48.65589" lon="1.71848">
        <ele>154</ele>
        <time>2010-05-14T10:29:35Z</time>
      </trkpt>
      <trkpt lat="48.65587" lon="1.71848">
        <ele>154</ele>
        <time>2010-05-14T10:29:36Z</time>
      </trkpt>
      <trkpt lat="48.65585" lon="1.71847">
        <ele>154</ele>
        <time>2010-05-14T10:29:37Z</time>
      </trkpt>
      <trkpt lat="48.65584" lon="1.71847">
        <ele>154</ele>
        <time>2010-05-14T10:29:38Z</time>
      </trkpt>
      <trkpt lat="48.65583" lon="1.71846">
        <ele>154</ele>
        <time>2010-05-14T10:29:39Z</time>
      </trkpt>
      <trkpt lat="48.65582" lon="1.71846">
        <ele>154</ele>
        <time>2010-05-14T10:29:40Z</time>
      </trkpt>
      <trkpt lat="48.6558" lon="1.71845">
        <ele>154</ele>
        <time>2010-05-14T10:29:41Z</time>
      </trkpt>
      <trkpt lat="48.65579" lon="1.71845">
        <ele>154</ele>
        <time>2010-05-14T10:29:42Z</time>
      </trkpt>
      <trkpt lat="48.65577" lon="1.71844">
        <ele>154</ele>
        <time>2010-05-14T10:29:44Z</time>
      </trkpt>
      <trkpt lat="48.65575" lon="1.71845">
        <ele>154</ele>
        <time>2010-05-14T10:29:47Z</time>
      </trkpt>
      <trkpt lat="48.65574" lon="1.71847">
        <ele>155</ele>
        <time>2010-05-14T10:29:50Z</time>
      </trkpt>
      <trkpt lat="48.65574" lon="1.71845">
        <ele>157</ele>
        <time>2010-05-14T10:29:54Z</time>
      </trkpt>
      <trkpt lat="48.65573" lon="1.71845">
        <ele>161</ele>
        <time>2010-05-14T10:30:04Z</time>
      </trkpt>
      <trkpt lat="48.65573" lon="1.71843">
        <ele>162</ele>
        <time>2010-05-14T10:30:06Z</time>
      </trkpt>
      <trkpt lat="48.65574" lon="1.71842">
        <ele>163</ele>
        <time>2010-05-14T10:30:09Z</time>
      </trkpt>
      <trkpt lat="48.65573" lon="1.71845">
        <ele>164</ele>
        <time>2010-05-14T10:30:11Z</time>
      </trkpt>
      <trkpt lat="48.65575" lon="1.71847">
        <ele>164</ele>
        <time>2010-05-14T10:30:15Z</time>
      </trkpt>
      <trkpt lat="48.65576" lon="1.71849">
        <ele>167</ele>
        <time>2010-05-14T10:30:19Z</time>
      </trkpt>
      <trkpt lat="48.65575" lon="1.71851">
        <ele>169</ele>
        <time>2010-05-14T10:30:28Z</time>
      </trkpt>
      <trkpt lat="48.65574" lon="1.71853">
        <ele>169</ele>
        <time>2010-05-14T10:30:32Z</time>
      </trkpt>
      <trkpt lat="48.65575" lon="1.71851">
        <ele>169</ele>
        <time>2010-05-14T10:30:41Z</time>
      </trkpt>
      <trkpt lat="48.65574" lon="1.71852">
        <ele>169</ele>
        <time>2010-05-14T10:30:50Z</time>
      </trkpt>
      <trkpt lat="48.65572" lon="1.71853">
        <ele>169</ele>
        <time>2010-05-14T10:30:54Z</time>
      </trkpt>
      <trkpt lat="48.65574" lon="1.71854">
        <ele>169</ele>
        <time>2010-05-14T10:31:04Z</time>
      </trkpt>
      <trkpt lat="48.65575" lon="1.71852">
        <ele>168</ele>
        <time>2010-05-14T10:31:06Z</time>
      </trkpt>
      <trkpt lat="48.65574" lon="1.7185">
        <ele>166</ele>
        <time>2010-05-14T10:31:08Z</time>
      </trkpt>
      <trkpt lat="48.65576" lon="1.71849">
        <ele>166</ele>
        <time>2010-05-14T10:31:11Z</time>
      </trkpt>
      <trkpt lat="48.65578" lon="1.71848">
        <ele>166</ele>
        <time>2010-05-14T10:31:18Z</time>
      </trkpt>
      <trkpt lat="48.65577" lon="1.71851">
        <ele>166</ele>
        <time>2010-05-14T10:31:21Z</time>
      </trkpt>
      <trkpt lat="48.65578" lon="1.71851">
        <ele>166</ele>
        <time>2010-05-14T10:31:25Z</time>
      </trkpt>
      <trkpt lat="48.6558" lon="1.7185">
        <ele>166</ele>
        <time>2010-05-14T10:31:36Z</time>
      </trkpt>
      <trkpt lat="48.65582" lon="1.7185">
        <ele>166</ele>
        <time>2010-05-14T10:31:39Z</time>
      </trkpt>
      <trkpt lat="48.65584" lon="1.71849">
        <ele>166</ele>
        <time>2010-05-14T10:31:41Z</time>
      </trkpt>
      <trkpt lat="48.65585" lon="1.71849">
        <ele>166</ele>
        <time>2010-05-14T10:31:43Z</time>
      </trkpt>
      <trkpt lat="48.65587" lon="1.71848">
        <ele>166</ele>
        <time>2010-05-14T10:31:45Z</time>
      </trkpt>
      <trkpt lat="48.65589" lon="1.71848">
        <ele>166</ele>
        <time>2010-05-14T10:31:46Z</time>
      </trkpt>
      <trkpt lat="48.6559" lon="1.71846">
        <ele>166</ele>
        <time>2010-05-14T10:31:48Z</time>
      </trkpt>
      <trkpt lat="48.65592" lon="1.71845">
        <ele>166</ele>
        <time>2010-05-14T10:31:49Z</time>
      </trkpt>
      <trkpt lat="48.65594" lon="1.71845">
        <ele>166</ele>
        <time>2010-05-14T10:31:51Z</time>
      </trkpt>
      <trkpt lat="48.65595" lon="1.71844">
        <ele>167</ele>
        <time>2010-05-14T10:31:54Z</time>
      </trkpt>
      <trkpt lat="48.65597" lon="1.71844">
        <ele>167</ele>
        <time>2010-05-14T10:31:56Z</time>
      </trkpt>
      <trkpt lat="48.65595" lon="1.71843">
        <ele>167</ele>
        <time>2010-05-14T10:31:59Z</time>
      </trkpt>
      <trkpt lat="48.65593" lon="1.71843">
        <ele>167</ele>
        <time>2010-05-14T10:32:01Z</time>
      </trkpt>
      <trkpt lat="48.65591" lon="1.71842">
        <ele>167</ele>
        <time>2010-05-14T10:32:04Z</time>
      </trkpt>
      <trkpt lat="48.6559" lon="1.71842">
        <ele>167</ele>
        <time>2010-05-14T10:32:07Z</time>
      </trkpt>
      <trkpt lat="48.65589" lon="1.71841">
        <ele>167</ele>
        <time>2010-05-14T10:32:12Z</time>
      </trkpt>
      <trkpt lat="48.65587" lon="1.7184">
        <ele>167</ele>
        <time>2010-05-14T10:32:15Z</time>
      </trkpt>
      <trkpt lat="48.65586" lon="1.7184">
        <ele>167</ele>
        <time>2010-05-14T10:32:16Z</time>
      </trkpt>
      <trkpt lat="48.65584" lon="1.7184">
        <ele>167</ele>
        <time>2010-05-14T10:32:18Z</time>
      </trkpt>
      <trkpt lat="48.65583" lon="1.71839">
        <ele>167</ele>
        <time>2010-05-14T10:32:20Z</time>
      </trkpt>
      <trkpt lat="48.65582" lon="1.71839">
        <ele>167</ele>
        <time>2010-05-14T10:32:23Z</time>
      </trkpt>
      <trkpt lat="48.65583" lon="1.71837">
        <ele>170</ele>
        <time>2010-05-14T10:32:30Z</time>
      </trkpt>
      <trkpt lat="48.65584" lon="1.71836">
        <ele>170</ele>
        <time>2010-05-14T10:32:34Z</time>
      </trkpt>
      <trkpt lat="48.65585" lon="1.71834">
        <ele>170</ele>
        <time>2010-05-14T10:32:38Z</time>
      </trkpt>
      <trkpt lat="48.65585" lon="1.71832">
        <ele>170</ele>
        <time>2010-05-14T10:32:42Z</time>
      </trkpt>
      <trkpt lat="48.65585" lon="1.71834">
        <ele>170</ele>
        <time>2010-05-14T10:32:45Z</time>
      </trkpt>
      <trkpt lat="48.65583" lon="1.71835">
        <ele>170</ele>
        <time>2010-05-14T10:32:48Z</time>
      </trkpt>
      <trkpt lat="48.65582" lon="1.71835">
        <ele>170</ele>
        <time>2010-05-14T10:32:52Z</time>
      </trkpt>
      <trkpt lat="48.65581" lon="1.71834">
        <ele>174</ele>
        <time>2010-05-14T10:32:56Z</time>
      </trkpt>
      <trkpt lat="48.65579" lon="1.71834">
        <ele>175</ele>
        <time>2010-05-14T10:32:59Z</time>
      </trkpt>
      <trkpt lat="48.65578" lon="1.71837">
        <ele>175</ele>
        <time>2010-05-14T10:33:03Z</time>
      </trkpt>
      <trkpt lat="48.65578" lon="1.71835">
        <ele>175</ele>
        <time>2010-05-14T10:33:06Z</time>
      </trkpt>
      <trkpt lat="48.65579" lon="1.71832">
        <ele>175</ele>
        <time>2010-05-14T10:33:08Z</time>
      </trkpt>
      <trkpt lat="48.65579" lon="1.71831">
        <ele>175</ele>
        <time>2010-05-14T10:33:13Z</time>
      </trkpt>
      <trkpt lat="48.65578" lon="1.71833">
        <ele>172</ele>
        <time>2010-05-14T10:33:23Z</time>
      </trkpt>
      <trkpt lat="48.65577" lon="1.71835">
        <ele>172</ele>
        <time>2010-05-14T10:33:25Z</time>
      </trkpt>
      <trkpt lat="48.65576" lon="1.71837">
        <ele>172</ele>
        <time>2010-05-14T10:33:27Z</time>
      </trkpt>
      <trkpt lat="48.65575" lon="1.71838">
        <ele>172</ele>
        <time>2010-05-14T10:33:30Z</time>
      </trkpt>
      <trkpt lat="48.65573" lon="1.71838">
        <ele>172</ele>
        <time>2010-05-14T10:33:32Z</time>
      </trkpt>
      <trkpt lat="48.65571" lon="1.7184">
        <ele>172</ele>
        <time>2010-05-14T10:33:35Z</time>
      </trkpt>
      <trkpt lat="48.65573" lon="1.71841">
        <ele>172</ele>
        <time>2010-05-14T10:33:40Z</time>
      </trkpt>
      <trkpt lat="48.65574" lon="1.71841">
        <ele>171</ele>
        <time>2010-05-14T10:33:41Z</time>
      </trkpt>
      <trkpt lat="48.65576" lon="1.71841">
        <ele>170</ele>
        <time>2010-05-14T10:33:42Z</time>
      </trkpt>
      <trkpt lat="48.65577" lon="1.71841">
        <ele>169</ele>
        <time>2010-05-14T10:33:44Z</time>
      </trkpt>
      <trkpt lat="48.65578" lon="1.71841">
        <ele>169</ele>
        <time>2010-05-14T10:33:49Z</time>
      </trkpt>
      <trkpt lat="48.65579" lon="1.71841">
        <ele>168</ele>
        <time>2010-05-14T10:33:51Z</time>
      </trkpt>
      <trkpt lat="48.65581" lon="1.71841">
        <ele>167</ele>
        <time>2010-05-14T10:33:53Z</time>
      </trkpt>
      <trkpt lat="48.65582" lon="1.71841">
        <ele>167</ele>
        <time>2010-05-14T10:33:54Z</time>
      </trkpt>
      <trkpt lat="48.65584" lon="1.71841">
        <ele>167</ele>
        <time>2010-05-14T10:33:58Z</time>
      </trkpt>
      <trkpt lat="48.65585" lon="1.71839">
        <ele>167</ele>
        <time>2010-05-14T10:34:00Z</time>
      </trkpt>
      <trkpt lat="48.65586" lon="1.71838">
        <ele>167</ele>
        <time>2010-05-14T10:34:02Z</time>
      </trkpt>
      <trkpt lat="48.65588" lon="1.71838">
        <ele>167</ele>
        <time>2010-05-14T10:34:04Z</time>
      </trkpt>
      <trkpt lat="48.65587" lon="1.71837">
        <ele>167</ele>
        <time>2010-05-14T10:34:06Z</time>
      </trkpt>
      <trkpt lat="48.65584" lon="1.71838">
        <ele>167</ele>
        <time>2010-05-14T10:34:08Z</time>
      </trkpt>
      <trkpt lat="48.65582" lon="1.71838">
        <ele>167</ele>
        <time>2010-05-14T10:34:10Z</time>
      </trkpt>
      <trkpt lat="48.65581" lon="1.71838">
        <ele>167</ele>
        <time>2010-05-14T10:34:11Z</time>
      </trkpt>
      <trkpt lat="48.6558" lon="1.71838">
        <ele>167</ele>
        <time>2010-05-14T10:34:12Z</time>
      </trkpt>
      <trkpt lat="48.65578" lon="1.7184">
        <ele>167</ele>
        <time>2010-05-14T10:34:14Z</time>
      </trkpt>
      <trkpt lat="48.65577" lon="1.71841">
        <ele>167</ele>
        <time>2010-05-14T10:34:15Z</time>
      </trkpt>
      <trkpt lat="48.65575" lon="1.71841">
        <ele>167</ele>
        <time>2010-05-14T10:34:16Z</time>
      </trkpt>
      <trkpt lat="48.65574" lon="1.71841">
        <ele>167</ele>
        <time>2010-05-14T10:34:17Z</time>
      </trkpt>
      <trkpt lat="48.65573" lon="1.71841">
        <ele>167</ele>
        <time>2010-05-14T10:34:18Z</time>
      </trkpt>
      <trkpt lat="48.65571" lon="1.71841">
        <ele>167</ele>
        <time>2010-05-14T10:34:20Z</time>
      </trkpt>
      <trkpt lat="48.6557" lon="1.71841">
        <ele>167</ele>
        <time>2010-05-14T10:34:21Z</time>
      </trkpt>
      <trkpt lat="48.65568" lon="1.71839">
        <ele>167</ele>
        <time>2010-05-14T10:34:23Z</time>
      </trkpt>
      <trkpt lat="48.65566" lon="1.71837">
        <ele>167</ele>
        <time>2010-05-14T10:34:25Z</time>
      </trkpt>
      <trkpt lat="48.65565" lon="1.71836">
        <ele>167</ele>
        <time>2010-05-14T10:34:26Z</time>
      </trkpt>
      <trkpt lat="48.65563" lon="1.71834">
        <ele>167</ele>
        <time>2010-05-14T10:34:27Z</time>
      </trkpt>
      <trkpt lat="48.65562" lon="1.71833">
        <ele>167</ele>
        <time>2010-05-14T10:34:28Z</time>
      </trkpt>
      <trkpt lat="48.65561" lon="1.71832">
        <ele>167</ele>
        <time>2010-05-14T10:34:29Z</time>
      </trkpt>
      <trkpt lat="48.65559" lon="1.7183">
        <ele>167</ele>
        <time>2010-05-14T10:34:30Z</time>
      </trkpt>
      <trkpt lat="48.65558" lon="1.71828">
        <ele>168</ele>
        <time>2010-05-14T10:34:31Z</time>
      </trkpt>
      <trkpt lat="48.65557" lon="1.71827">
        <ele>168</ele>
        <time>2010-05-14T10:34:32Z</time>
      </trkpt>
      <trkpt lat="48.65555" lon="1.71826">
        <ele>169</ele>
        <time>2010-05-14T10:34:33Z</time>
      </trkpt>
      <trkpt lat="48.65554" lon="1.71824">
        <ele>170</ele>
        <time>2010-05-14T10:34:35Z</time>
      </trkpt>
      <trkpt lat="48.65552" lon="1.71821">
        <ele>171</ele>
        <time>2010-05-14T10:34:37Z</time>
      </trkpt>
      <trkpt lat="48.65552" lon="1.71819">
        <ele>171</ele>
        <time>2010-05-14T10:34:40Z</time>
      </trkpt>
      <trkpt lat="48.65553" lon="1.7182">
        <ele>171</ele>
        <time>2010-05-14T10:34:45Z</time>
      </trkpt>
      <trkpt lat="48.65555" lon="1.71821">
        <ele>171</ele>
        <time>2010-05-14T10:34:47Z</time>
      </trkpt>
      <trkpt lat="48.65557" lon="1.7182">
        <ele>171</ele>
        <time>2010-05-14T10:34:49Z</time>
      </trkpt>
      <trkpt lat="48.65559" lon="1.71819">
        <ele>171</ele>
        <time>2010-05-14T10:34:51Z</time>
      </trkpt>
      <trkpt lat="48.65561" lon="1.71819">
        <ele>170</ele>
        <time>2010-05-14T10:34:53Z</time>
      </trkpt>
      <trkpt lat="48.65559" lon="1.7182">
        <ele>166</ele>
        <time>2010-05-14T10:34:59Z</time>
      </trkpt>
      <trkpt lat="48.65558" lon="1.7182">
        <ele>165</ele>
        <time>2010-05-14T10:35:03Z</time>
      </trkpt>
      <trkpt lat="48.65556" lon="1.7182">
        <ele>165</ele>
        <time>2010-05-14T10:35:05Z</time>
      </trkpt>
      <trkpt lat="48.65557" lon="1.71823">
        <ele>164</ele>
        <time>2010-05-14T10:35:08Z</time>
      </trkpt>
      <trkpt lat="48.65557" lon="1.71821">
        <ele>164</ele>
        <time>2010-05-14T10:35:11Z</time>
      </trkpt>
      <trkpt lat="48.65557" lon="1.71819">
        <ele>162</ele>
        <time>2010-05-14T10:35:23Z</time>
      </trkpt>
      <trkpt lat="48.65558" lon="1.71819">
        <ele>162</ele>
        <time>2010-05-14T10:35:41Z</time>
      </trkpt>
      <trkpt lat="48.65559" lon="1.71819">
        <ele>162</ele>
        <time>2010-05-14T10:35:43Z</time>
      </trkpt>
      <trkpt lat="48.65561" lon="1.71818">
        <ele>163</ele>
        <time>2010-05-14T10:35:46Z</time>
      </trkpt>
      <trkpt lat="48.65562" lon="1.71817">
        <ele>163</ele>
        <time>2010-05-14T10:35:49Z</time>
      </trkpt>
      <trkpt lat="48.65561" lon="1.71819">
        <ele>164</ele>
        <time>2010-05-14T10:35:54Z</time>
      </trkpt>
      <trkpt lat="48.65559" lon="1.71819">
        <ele>165</ele>
        <time>2010-05-14T10:35:57Z</time>
      </trkpt>
      <trkpt lat="48.65558" lon="1.71818">
        <ele>165</ele>
        <time>2010-05-14T10:36:00Z</time>
      </trkpt>
      <trkpt lat="48.65557" lon="1.71818">
        <ele>165</ele>
        <time>2010-05-14T10:36:02Z</time>
      </trkpt>
      <trkpt lat="48.65556" lon="1.71816">
        <ele>165</ele>
        <time>2010-05-14T10:36:07Z</time>
      </trkpt>
      <trkpt lat="48.65556" lon="1.71818">
        <ele>163</ele>
        <time>2010-05-14T10:36:10Z</time>
      </trkpt>
      <trkpt lat="48.65556" lon="1.71819">
        <ele>163</ele>
        <time>2010-05-14T10:36:12Z</time>
      </trkpt>
      <trkpt lat="48.65554" lon="1.7182">
        <ele>163</ele>
        <time>2010-05-14T10:36:14Z</time>
      </trkpt>
      <trkpt lat="48.65555" lon="1.7182">
        <ele>163</ele>
        <time>2010-05-14T10:36:20Z</time>
      </trkpt>
      <trkpt lat="48.65555" lon="1.71821">
        <ele>163</ele>
        <time>2010-05-14T10:36:24Z</time>
      </trkpt>
      <trkpt lat="48.65556" lon="1.71823">
        <ele>163</ele>
        <time>2010-05-14T10:36:38Z</time>
      </trkpt>
      <trkpt lat="48.65557" lon="1.71821">
        <ele>163</ele>
        <time>2010-05-14T10:36:46Z</time>
      </trkpt>
      <trkpt lat="48.65556" lon="1.71823">
        <ele>163</ele>
        <time>2010-05-14T10:36:48Z</time>
      </trkpt>
      <trkpt lat="48.65554" lon="1.71824">
        <ele>163</ele>
        <time>2010-05-14T10:36:50Z</time>
      </trkpt>
      <trkpt lat="48.65553" lon="1.71825">
        <ele>163</ele>
        <time>2010-05-14T10:36:57Z</time>
      </trkpt>
      <trkpt lat="48.65554" lon="1.71827">
        <ele>163</ele>
        <time>2010-05-14T10:36:59Z</time>
      </trkpt>
      <trkpt lat="48.65555" lon="1.71826">
        <ele>163</ele>
        <time>2010-05-14T10:37:01Z</time>
      </trkpt>
      <trkpt lat="48.65554" lon="1.71825">
        <ele>165</ele>
        <time>2010-05-14T10:37:11Z</time>
      </trkpt>
      <trkpt lat="48.65554" lon="1.71823">
        <ele>165</ele>
        <time>2010-05-14T10:37:14Z</time>
      </trkpt>
      <trkpt lat="48.65554" lon="1.71821">
        <ele>165</ele>
        <time>2010-05-14T10:37:17Z</time>
      </trkpt>
      <trkpt lat="48.65553" lon="1.71823">
        <ele>163</ele>
        <time>2010-05-14T10:37:21Z</time>
      </trkpt>
      <trkpt lat="48.65554" lon="1.71825">
        <ele>163</ele>
        <time>2010-05-14T10:37:27Z</time>
      </trkpt>
      <trkpt lat="48.65555" lon="1.71827">
        <ele>163</ele>
        <time>2010-05-14T10:37:29Z</time>
      </trkpt>
      <trkpt lat="48.65557" lon="1.7183">
        <ele>163</ele>
        <time>2010-05-14T10:37:31Z</time>
      </trkpt>
      <trkpt lat="48.65557" lon="1.71832">
        <ele>163</ele>
        <time>2010-05-14T10:37:32Z</time>
      </trkpt>
      <trkpt lat="48.65558" lon="1.71834">
        <ele>163</ele>
        <time>2010-05-14T10:37:33Z</time>
      </trkpt>
      <trkpt lat="48.6556" lon="1.71835">
        <ele>164</ele>
        <time>2010-05-14T10:37:35Z</time>
      </trkpt>
      <trkpt lat="48.6556" lon="1.71836">
        <ele>165</ele>
        <time>2010-05-14T10:37:42Z</time>
      </trkpt>
      <trkpt lat="48.65562" lon="1.71836">
        <ele>165</ele>
        <time>2010-05-14T10:37:45Z</time>
      </trkpt>
      <trkpt lat="48.65563" lon="1.71835">
        <ele>165</ele>
        <time>2010-05-14T10:37:54Z</time>
      </trkpt>
      <trkpt lat="48.65562" lon="1.71833">
        <ele>162</ele>
        <time>2010-05-14T10:38:19Z</time>
      </trkpt>
      <trkpt lat="48.65562" lon="1.71835">
        <ele>162</ele>
        <time>2010-05-14T10:38:25Z</time>
      </trkpt>
      <trkpt lat="48.65725" lon="1.71906">
        <ele>172</ele>
        <time>2010-05-14T10:38:28Z</time>
      </trkpt>
      <trkpt lat="48.65726" lon="1.71904">
        <ele>172</ele>
        <time>2010-05-14T10:38:29Z</time>
      </trkpt>
      <trkpt lat="48.65729" lon="1.71901">
        <ele>172</ele>
        <time>2010-05-14T10:38:31Z</time>
      </trkpt>
      <trkpt lat="48.65731" lon="1.71902">
        <ele>171</ele>
        <time>2010-05-14T10:38:32Z</time>
      </trkpt>
      <trkpt lat="48.65733" lon="1.71901">
        <ele>170</ele>
        <time>2010-05-14T10:38:34Z</time>
      </trkpt>
      <trkpt lat="48.65735" lon="1.719">
        <ele>169</ele>
        <time>2010-05-14T10:38:36Z</time>
      </trkpt>
      <trkpt lat="48.65737" lon="1.719">
        <ele>167</ele>
        <time>2010-05-14T10:38:38Z</time>
      </trkpt>
      <trkpt lat="48.65738" lon="1.71901">
        <ele>166</ele>
        <time>2010-05-14T10:38:39Z</time>
      </trkpt>
      <trkpt lat="48.6574" lon="1.71902">
        <ele>166</ele>
        <time>2010-05-14T10:38:40Z</time>
      </trkpt>
      <trkpt lat="48.65741" lon="1.71901">
        <ele>166</ele>
        <time>2010-05-14T10:38:41Z</time>
      </trkpt>
      <trkpt lat="48.65742" lon="1.719">
        <ele>165</ele>
        <time>2010-05-14T10:38:42Z</time>
      </trkpt>
      <trkpt lat="48.65743" lon="1.719">
        <ele>165</ele>
        <time>2010-05-14T10:38:43Z</time>
      </trkpt>
      <trkpt lat="48.65745" lon="1.71899">
        <ele>165</ele>
        <time>2010-05-14T10:38:44Z</time>
      </trkpt>
      <trkpt lat="48.65747" lon="1.71898">
        <ele>164</ele>
        <time>2010-05-14T10:38:46Z</time>
      </trkpt>
      <trkpt lat="48.65748" lon="1.71898">
        <ele>163</ele>
        <time>2010-05-14T10:38:47Z</time>
      </trkpt>
      <trkpt lat="48.65749" lon="1.71897">
        <ele>163</ele>
        <time>2010-05-14T10:38:49Z</time>
      </trkpt>
      <trkpt lat="48.65752" lon="1.71897">
        <ele>162</ele>
        <time>2010-05-14T10:38:50Z</time>
      </trkpt>
      <trkpt lat="48.65754" lon="1.71897">
        <ele>162</ele>
        <time>2010-05-14T10:38:51Z</time>
      </trkpt>
      <trkpt lat="48.65756" lon="1.71898">
        <ele>162</ele>
        <time>2010-05-14T10:38:53Z</time>
      </trkpt>
      <trkpt lat="48.65757" lon="1.71898">
        <ele>162</ele>
        <time>2010-05-14T10:38:54Z</time>
      </trkpt>
      <trkpt lat="48.65759" lon="1.71896">
        <ele>162</ele>
        <time>2010-05-14T10:38:56Z</time>
      </trkpt>
      <trkpt lat="48.65762" lon="1.71895">
        <ele>162</ele>
        <time>2010-05-14T10:38:57Z</time>
      </trkpt>
      <trkpt lat="48.65765" lon="1.71893">
        <ele>162</ele>
        <time>2010-05-14T10:38:58Z</time>
      </trkpt>
      <trkpt lat="48.65766" lon="1.71893">
        <ele>162</ele>
        <time>2010-05-14T10:38:59Z</time>
      </trkpt>
      <trkpt lat="48.65768" lon="1.71894">
        <ele>162</ele>
        <time>2010-05-14T10:39:01Z</time>
      </trkpt>
      <trkpt lat="48.6577" lon="1.71893">
        <ele>162</ele>
        <time>2010-05-14T10:39:02Z</time>
      </trkpt>
      <trkpt lat="48.65771" lon="1.71893">
        <ele>162</ele>
        <time>2010-05-14T10:39:03Z</time>
      </trkpt>
      <trkpt lat="48.65774" lon="1.71893">
        <ele>162</ele>
        <time>2010-05-14T10:39:05Z</time>
      </trkpt>
      <trkpt lat="48.65774" lon="1.71891">
        <ele>164</ele>
        <time>2010-05-14T10:39:07Z</time>
      </trkpt>
      <trkpt lat="48.65776" lon="1.71891">
        <ele>164</ele>
        <time>2010-05-14T10:39:08Z</time>
      </trkpt>
      <trkpt lat="48.65777" lon="1.7189">
        <ele>165</ele>
        <time>2010-05-14T10:39:09Z</time>
      </trkpt>
      <trkpt lat="48.6578" lon="1.71889">
        <ele>165</ele>
        <time>2010-05-14T10:39:12Z</time>
      </trkpt>
      <trkpt lat="48.65783" lon="1.71889">
        <ele>165</ele>
        <time>2010-05-14T10:39:13Z</time>
      </trkpt>
      <trkpt lat="48.65785" lon="1.71888">
        <ele>166</ele>
        <time>2010-05-14T10:39:14Z</time>
      </trkpt>
      <trkpt lat="48.65785" lon="1.71886">
        <ele>166</ele>
        <time>2010-05-14T10:39:15Z</time>
      </trkpt>
      <trkpt lat="48.65787" lon="1.71884">
        <ele>166</ele>
        <time>2010-05-14T10:39:17Z</time>
      </trkpt>
      <trkpt lat="48.65789" lon="1.71884">
        <ele>166</ele>
        <time>2010-05-14T10:39:18Z</time>
      </trkpt>
      <trkpt lat="48.65791" lon="1.71882">
        <ele>166</ele>
        <time>2010-05-14T10:39:19Z</time>
      </trkpt>
      <trkpt lat="48.65793" lon="1.71881">
        <ele>166</ele>
        <time>2010-05-14T10:39:21Z</time>
      </trkpt>
      <trkpt lat="48.65794" lon="1.71879">
        <ele>166</ele>
        <time>2010-05-14T10:39:22Z</time>
      </trkpt>
      <trkpt lat="48.65796" lon="1.71877">
        <ele>166</ele>
        <time>2010-05-14T10:39:24Z</time>
      </trkpt>
      <trkpt lat="48.65797" lon="1.71876">
        <ele>166</ele>
        <time>2010-05-14T10:39:25Z</time>
      </trkpt>
      <trkpt lat="48.65799" lon="1.71875">
        <ele>165</ele>
        <time>2010-05-14T10:39:26Z</time>
      </trkpt>
      <trkpt lat="48.658" lon="1.71875">
        <ele>165</ele>
        <time>2010-05-14T10:39:27Z</time>
      </trkpt>
      <trkpt lat="48.65803" lon="1.71875">
        <ele>164</ele>
        <time>2010-05-14T10:39:28Z</time>
      </trkpt>
      <trkpt lat="48.65804" lon="1.71875">
        <ele>164</ele>
        <time>2010-05-14T10:39:29Z</time>
      </trkpt>
      <trkpt lat="48.65805" lon="1.71874">
        <ele>164</ele>
        <time>2010-05-14T10:39:30Z</time>
      </trkpt>
      <trkpt lat="48.65808" lon="1.71874">
        <ele>164</ele>
        <time>2010-05-14T10:39:31Z</time>
      </trkpt>
      <trkpt lat="48.6581" lon="1.71875">
        <ele>164</ele>
        <time>2010-05-14T10:39:33Z</time>
      </trkpt>
      <trkpt lat="48.65812" lon="1.71876">
        <ele>164</ele>
        <time>2010-05-14T10:39:35Z</time>
      </trkpt>
      <trkpt lat="48.65813" lon="1.71877">
        <ele>164</ele>
        <time>2010-05-14T10:39:36Z</time>
      </trkpt>
      <trkpt lat="48.65814" lon="1.7188">
        <ele>164</ele>
        <time>2010-05-14T10:39:37Z</time>
      </trkpt>
      <trkpt lat="48.65816" lon="1.7188">
        <ele>164</ele>
        <time>2010-05-14T10:39:39Z</time>
      </trkpt>
      <trkpt lat="48.65818" lon="1.71881">
        <ele>164</ele>
        <time>2010-05-14T10:39:40Z</time>
      </trkpt>
      <trkpt lat="48.6582" lon="1.71881">
        <ele>164</ele>
        <time>2010-05-14T10:39:41Z</time>
      </trkpt>
      <trkpt lat="48.65821" lon="1.71881">
        <ele>164</ele>
        <time>2010-05-14T10:39:42Z</time>
      </trkpt>
      <trkpt lat="48.65823" lon="1.71882">
        <ele>164</ele>
        <time>2010-05-14T10:39:43Z</time>
      </trkpt>
      <trkpt lat="48.65825" lon="1.71882">
        <ele>164</ele>
        <time>2010-05-14T10:39:44Z</time>
      </trkpt>
      <trkpt lat="48.65827" lon="1.71882">
        <ele>164</ele>
        <time>2010-05-14T10:39:45Z</time>
      </trkpt>
      <trkpt lat="48.65829" lon="1.71884">
        <ele>164</ele>
        <time>2010-05-14T10:39:46Z</time>
      </trkpt>
      <trkpt lat="48.65832" lon="1.71884">
        <ele>164</ele>
        <time>2010-05-14T10:39:47Z</time>
      </trkpt>
      <trkpt lat="48.65832" lon="1.71887">
        <ele>164</ele>
        <time>2010-05-14T10:39:49Z</time>
      </trkpt>
      <trkpt lat="48.65834" lon="1.71885">
        <ele>164</ele>
        <time>2010-05-14T10:39:53Z</time>
      </trkpt>
      <trkpt lat="48.65836" lon="1.71885">
        <ele>164</ele>
        <time>2010-05-14T10:39:54Z</time>
      </trkpt>
      <trkpt lat="48.65837" lon="1.71885">
        <ele>164</ele>
        <time>2010-05-14T10:39:55Z</time>
      </trkpt>
      <trkpt lat="48.65838" lon="1.71886">
        <ele>164</ele>
        <time>2010-05-14T10:39:56Z</time>
      </trkpt>
      <trkpt lat="48.6584" lon="1.71886">
        <ele>164</ele>
        <time>2010-05-14T10:39:57Z</time>
      </trkpt>
      <trkpt lat="48.65842" lon="1.71885">
        <ele>164</ele>
        <time>2010-05-14T10:39:58Z</time>
      </trkpt>
      <trkpt lat="48.65845" lon="1.71884">
        <ele>164</ele>
        <time>2010-05-14T10:39:59Z</time>
      </trkpt>
      <trkpt lat="48.65847" lon="1.71883">
        <ele>164</ele>
        <time>2010-05-14T10:40:00Z</time>
      </trkpt>
      <trkpt lat="48.65848" lon="1.71884">
        <ele>164</ele>
        <time>2010-05-14T10:40:01Z</time>
      </trkpt>
      <trkpt lat="48.6585" lon="1.71882">
        <ele>164</ele>
        <time>2010-05-14T10:40:02Z</time>
      </trkpt>
      <trkpt lat="48.65853" lon="1.71882">
        <ele>163</ele>
        <time>2010-05-14T10:40:03Z</time>
      </trkpt>
      <trkpt lat="48.65856" lon="1.7188">
        <ele>163</ele>
        <time>2010-05-14T10:40:05Z</time>
      </trkpt>
      <trkpt lat="48.65859" lon="1.71878">
        <ele>163</ele>
        <time>2010-05-14T10:40:06Z</time>
      </trkpt>
      <trkpt lat="48.65861" lon="1.71876">
        <ele>162</ele>
        <time>2010-05-14T10:40:07Z</time>
      </trkpt>
      <trkpt lat="48.65864" lon="1.71876">
        <ele>161</ele>
        <time>2010-05-14T10:40:09Z</time>
      </trkpt>
      <trkpt lat="48.65866" lon="1.71876">
        <ele>161</ele>
        <time>2010-05-14T10:40:10Z</time>
      </trkpt>
      <trkpt lat="48.65869" lon="1.71876">
        <ele>160</ele>
        <time>2010-05-14T10:40:11Z</time>
      </trkpt>
      <trkpt lat="48.65871" lon="1.71875">
        <ele>160</ele>
        <time>2010-05-14T10:40:12Z</time>
      </trkpt>
      <trkpt lat="48.65873" lon="1.71874">
        <ele>160</ele>
        <time>2010-05-14T10:40:13Z</time>
      </trkpt>
      <trkpt lat="48.65874" lon="1.71873">
        <ele>160</ele>
        <time>2010-05-14T10:40:14Z</time>
      </trkpt>
      <trkpt lat="48.65876" lon="1.71872">
        <ele>160</ele>
        <time>2010-05-14T10:40:15Z</time>
      </trkpt>
      <trkpt lat="48.65878" lon="1.7187">
        <ele>160</ele>
        <time>2010-05-14T10:40:16Z</time>
      </trkpt>
      <trkpt lat="48.6588" lon="1.71869">
        <ele>159</ele>
        <time>2010-05-14T10:40:17Z</time>
      </trkpt>
      <trkpt lat="48.65881" lon="1.71869">
        <ele>158</ele>
        <time>2010-05-14T10:40:18Z</time>
      </trkpt>
      <trkpt lat="48.65883" lon="1.71867">
        <ele>157</ele>
        <time>2010-05-14T10:40:19Z</time>
      </trkpt>
      <trkpt lat="48.65884" lon="1.71865">
        <ele>156</ele>
        <time>2010-05-14T10:40:20Z</time>
      </trkpt>
      <trkpt lat="48.65886" lon="1.71865">
        <ele>155</ele>
        <time>2010-05-14T10:40:21Z</time>
      </trkpt>
      <trkpt lat="48.65887" lon="1.71864">
        <ele>154</ele>
        <time>2010-05-14T10:40:22Z</time>
      </trkpt>
      <trkpt lat="48.65889" lon="1.71862">
        <ele>152</ele>
        <time>2010-05-14T10:40:24Z</time>
      </trkpt>
      <trkpt lat="48.65891" lon="1.71861">
        <ele>151</ele>
        <time>2010-05-14T10:40:25Z</time>
      </trkpt>
      <trkpt lat="48.65892" lon="1.7186">
        <ele>150</ele>
        <time>2010-05-14T10:40:26Z</time>
      </trkpt>
      <trkpt lat="48.65893" lon="1.71859">
        <ele>149</ele>
        <time>2010-05-14T10:40:27Z</time>
      </trkpt>
      <trkpt lat="48.65895" lon="1.71859">
        <ele>148</ele>
        <time>2010-05-14T10:40:28Z</time>
      </trkpt>
      <trkpt lat="48.65896" lon="1.71859">
        <ele>147</ele>
        <time>2010-05-14T10:40:29Z</time>
      </trkpt>
      <trkpt lat="48.65898" lon="1.71858">
        <ele>146</ele>
        <time>2010-05-14T10:40:31Z</time>
      </trkpt>
      <trkpt lat="48.65901" lon="1.71856">
        <ele>145</ele>
        <time>2010-05-14T10:40:33Z</time>
      </trkpt>
      <trkpt lat="48.65902" lon="1.71856">
        <ele>144</ele>
        <time>2010-05-14T10:40:34Z</time>
      </trkpt>
      <trkpt lat="48.65905" lon="1.71855">
        <ele>143</ele>
        <time>2010-05-14T10:40:36Z</time>
      </trkpt>
      <trkpt lat="48.65907" lon="1.71853">
        <ele>143</ele>
        <time>2010-05-14T10:40:38Z</time>
      </trkpt>
      <trkpt lat="48.65908" lon="1.71852">
        <ele>143</ele>
        <time>2010-05-14T10:40:39Z</time>
      </trkpt>
      <trkpt lat="48.65909" lon="1.71851">
        <ele>143</ele>
        <time>2010-05-14T10:40:40Z</time>
      </trkpt>
      <trkpt lat="48.65911" lon="1.71851">
        <ele>143</ele>
        <time>2010-05-14T10:40:41Z</time>
      </trkpt>
      <trkpt lat="48.65912" lon="1.71851">
        <ele>143</ele>
        <time>2010-05-14T10:40:42Z</time>
      </trkpt>
      <trkpt lat="48.65914" lon="1.7185">
        <ele>142</ele>
        <time>2010-05-14T10:40:43Z</time>
      </trkpt>
      <trkpt lat="48.65916" lon="1.71849">
        <ele>142</ele>
        <time>2010-05-14T10:40:44Z</time>
      </trkpt>
      <trkpt lat="48.65917" lon="1.71849">
        <ele>142</ele>
        <time>2010-05-14T10:40:45Z</time>
      </trkpt>
      <trkpt lat="48.65919" lon="1.71848">
        <ele>142</ele>
        <time>2010-05-14T10:40:46Z</time>
      </trkpt>
      <trkpt lat="48.6592" lon="1.71848">
        <ele>142</ele>
        <time>2010-05-14T10:40:47Z</time>
      </trkpt>
      <trkpt lat="48.65922" lon="1.71849">
        <ele>142</ele>
        <time>2010-05-14T10:40:49Z</time>
      </trkpt>
      <trkpt lat="48.65925" lon="1.71847">
        <ele>142</ele>
        <time>2010-05-14T10:40:51Z</time>
      </trkpt>
      <trkpt lat="48.65926" lon="1.71846">
        <ele>142</ele>
        <time>2010-05-14T10:40:52Z</time>
      </trkpt>
      <trkpt lat="48.65928" lon="1.71845">
        <ele>142</ele>
        <time>2010-05-14T10:40:53Z</time>
      </trkpt>
      <trkpt lat="48.65929" lon="1.71845">
        <ele>142</ele>
        <time>2010-05-14T10:40:55Z</time>
      </trkpt>
      <trkpt lat="48.6593" lon="1.71844">
        <ele>142</ele>
        <time>2010-05-14T10:40:57Z</time>
      </trkpt>
      <trkpt lat="48.65932" lon="1.71845">
        <ele>142</ele>
        <time>2010-05-14T10:40:59Z</time>
      </trkpt>
      <trkpt lat="48.65935" lon="1.71842">
        <ele>142</ele>
        <time>2010-05-14T10:41:01Z</time>
      </trkpt>
      <trkpt lat="48.65936" lon="1.7184">
        <ele>142</ele>
        <time>2010-05-14T10:41:02Z</time>
      </trkpt>
      <trkpt lat="48.65939" lon="1.71838">
        <ele>140</ele>
        <time>2010-05-14T10:41:04Z</time>
      </trkpt>
      <trkpt lat="48.65941" lon="1.71838">
        <ele>137</ele>
        <time>2010-05-14T10:41:07Z</time>
      </trkpt>
      <trkpt lat="48.65943" lon="1.71837">
        <ele>135</ele>
        <time>2010-05-14T10:41:09Z</time>
      </trkpt>
      <trkpt lat="48.65944" lon="1.71837">
        <ele>135</ele>
        <time>2010-05-14T10:41:11Z</time>
      </trkpt>
      <trkpt lat="48.65945" lon="1.71836">
        <ele>134</ele>
        <time>2010-05-14T10:41:12Z</time>
      </trkpt>
      <trkpt lat="48.65947" lon="1.71836">
        <ele>134</ele>
        <time>2010-05-14T10:41:13Z</time>
      </trkpt>
      <trkpt lat="48.65948" lon="1.71835">
        <ele>133</ele>
        <time>2010-05-14T10:41:14Z</time>
      </trkpt>
      <trkpt lat="48.6595" lon="1.71836">
        <ele>132</ele>
        <time>2010-05-14T10:41:16Z</time>
      </trkpt>
      <trkpt lat="48.65951" lon="1.71834">
        <ele>131</ele>
        <time>2010-05-14T10:41:17Z</time>
      </trkpt>
      <trkpt lat="48.65953" lon="1.71833">
        <ele>130</ele>
        <time>2010-05-14T10:41:19Z</time>
      </trkpt>
      <trkpt lat="48.65954" lon="1.71834">
        <ele>128</ele>
        <time>2010-05-14T10:41:22Z</time>
      </trkpt>
      <trkpt lat="48.65955" lon="1.71834">
        <ele>128</ele>
        <time>2010-05-14T10:41:23Z</time>
      </trkpt>
      <trkpt lat="48.65957" lon="1.71834">
        <ele>128</ele>
        <time>2010-05-14T10:41:25Z</time>
      </trkpt>
      <trkpt lat="48.6596" lon="1.71833">
        <ele>127</ele>
        <time>2010-05-14T10:41:26Z</time>
      </trkpt>
      <trkpt lat="48.65962" lon="1.71831">
        <ele>127</ele>
        <time>2010-05-14T10:41:27Z</time>
      </trkpt>
      <trkpt lat="48.65964" lon="1.7183">
        <ele>126</ele>
        <time>2010-05-14T10:41:28Z</time>
      </trkpt>
      <trkpt lat="48.65965" lon="1.71831">
        <ele>125</ele>
        <time>2010-05-14T10:41:29Z</time>
      </trkpt>
      <trkpt lat="48.65967" lon="1.7183">
        <ele>124</ele>
        <time>2010-05-14T10:41:30Z</time>
      </trkpt>
      <trkpt lat="48.65968" lon="1.7183">
        <ele>124</ele>
        <time>2010-05-14T10:41:31Z</time>
      </trkpt>
      <trkpt lat="48.6597" lon="1.71831">
        <ele>124</ele>
        <time>2010-05-14T10:41:33Z</time>
      </trkpt>
      <trkpt lat="48.65971" lon="1.71831">
        <ele>124</ele>
        <time>2010-05-14T10:41:34Z</time>
      </trkpt>
      <trkpt lat="48.65973" lon="1.71831">
        <ele>124</ele>
        <time>2010-05-14T10:41:35Z</time>
      </trkpt>
      <trkpt lat="48.65975" lon="1.7183">
        <ele>124</ele>
        <time>2010-05-14T10:41:36Z</time>
      </trkpt>
      <trkpt lat="48.65976" lon="1.7183">
        <ele>124</ele>
        <time>2010-05-14T10:41:37Z</time>
      </trkpt>
      <trkpt lat="48.65977" lon="1.71831">
        <ele>124</ele>
        <time>2010-05-14T10:41:39Z</time>
      </trkpt>
      <trkpt lat="48.65979" lon="1.71832">
        <ele>124</ele>
        <time>2010-05-14T10:41:40Z</time>
      </trkpt>
      <trkpt lat="48.6598" lon="1.71831">
        <ele>124</ele>
        <time>2010-05-14T10:41:41Z</time>
      </trkpt>
      <trkpt lat="48.65982" lon="1.71831">
        <ele>124</ele>
        <time>2010-05-14T10:41:42Z</time>
      </trkpt>
      <trkpt lat="48.65983" lon="1.71831">
        <ele>124</ele>
        <time>2010-05-14T10:41:43Z</time>
      </trkpt>
      <trkpt lat="48.65985" lon="1.71831">
        <ele>124</ele>
        <time>2010-05-14T10:41:44Z</time>
      </trkpt>
      <trkpt lat="48.65987" lon="1.71831">
        <ele>124</ele>
        <time>2010-05-14T10:41:45Z</time>
      </trkpt>
      <trkpt lat="48.65988" lon="1.71831">
        <ele>124</ele>
        <time>2010-05-14T10:41:46Z</time>
      </trkpt>
      <trkpt lat="48.65989" lon="1.7183">
        <ele>124</ele>
        <time>2010-05-14T10:41:47Z</time>
      </trkpt>
      <trkpt lat="48.65991" lon="1.7183">
        <ele>124</ele>
        <time>2010-05-14T10:41:49Z</time>
      </trkpt>
      <trkpt lat="48.65993" lon="1.71829">
        <ele>124</ele>
        <time>2010-05-14T10:41:50Z</time>
      </trkpt>
      <trkpt lat="48.65995" lon="1.71829">
        <ele>124</ele>
        <time>2010-05-14T10:41:51Z</time>
      </trkpt>
      <trkpt lat="48.65997" lon="1.71829">
        <ele>124</ele>
        <time>2010-05-14T10:41:53Z</time>
      </trkpt>
      <trkpt lat="48.65999" lon="1.7183">
        <ele>124</ele>
        <time>2010-05-14T10:41:55Z</time>
      </trkpt>
      <trkpt lat="48.66" lon="1.71831">
        <ele>124</ele>
        <time>2010-05-14T10:41:57Z</time>
      </trkpt>
      <trkpt lat="48.66001" lon="1.71833">
        <ele>124</ele>
        <time>2010-05-14T10:41:59Z</time>
      </trkpt>
      <trkpt lat="48.66003" lon="1.71833">
        <ele>124</ele>
        <time>2010-05-14T10:42:00Z</time>
      </trkpt>
      <trkpt lat="48.66005" lon="1.71833">
        <ele>124</ele>
        <time>2010-05-14T10:42:01Z</time>
      </trkpt>
      <trkpt lat="48.66006" lon="1.71835">
        <ele>124</ele>
        <time>2010-05-14T10:42:02Z</time>
      </trkpt>
      <trkpt lat="48.66009" lon="1.71833">
        <ele>124</ele>
        <time>2010-05-14T10:42:03Z</time>
      </trkpt>
      <trkpt lat="48.66012" lon="1.71834">
        <ele>124</ele>
        <time>2010-05-14T10:42:04Z</time>
      </trkpt>
      <trkpt lat="48.66013" lon="1.71834">
        <ele>125</ele>
        <time>2010-05-14T10:42:05Z</time>
      </trkpt>
      <trkpt lat="48.66016" lon="1.71834">
        <ele>126</ele>
        <time>2010-05-14T10:42:06Z</time>
      </trkpt>
      <trkpt lat="48.66017" lon="1.71833">
        <ele>127</ele>
        <time>2010-05-14T10:42:07Z</time>
      </trkpt>
      <trkpt lat="48.66019" lon="1.71834">
        <ele>128</ele>
        <time>2010-05-14T10:42:08Z</time>
      </trkpt>
      <trkpt lat="48.66021" lon="1.71834">
        <ele>129</ele>
        <time>2010-05-14T10:42:09Z</time>
      </trkpt>
      <trkpt lat="48.66022" lon="1.71834">
        <ele>130</ele>
        <time>2010-05-14T10:42:10Z</time>
      </trkpt>
      <trkpt lat="48.66024" lon="1.71834">
        <ele>131</ele>
        <time>2010-05-14T10:42:11Z</time>
      </trkpt>
      <trkpt lat="48.66026" lon="1.71834">
        <ele>131</ele>
        <time>2010-05-14T10:42:12Z</time>
      </trkpt>
      <trkpt lat="48.66028" lon="1.71834">
        <ele>131</ele>
        <time>2010-05-14T10:42:13Z</time>
      </trkpt>
      <trkpt lat="48.6603" lon="1.71833">
        <ele>131</ele>
        <time>2010-05-14T10:42:14Z</time>
      </trkpt>
      <trkpt lat="48.66032" lon="1.71833">
        <ele>131</ele>
        <time>2010-05-14T10:42:16Z</time>
      </trkpt>
      <trkpt lat="48.66035" lon="1.71831">
        <ele>131</ele>
        <time>2010-05-14T10:42:17Z</time>
      </trkpt>
      <trkpt lat="48.66037" lon="1.71832">
        <ele>131</ele>
        <time>2010-05-14T10:42:18Z</time>
      </trkpt>
      <trkpt lat="48.66038" lon="1.71834">
        <ele>131</ele>
        <time>2010-05-14T10:42:19Z</time>
      </trkpt>
      <trkpt lat="48.66041" lon="1.71833">
        <ele>131</ele>
        <time>2010-05-14T10:42:20Z</time>
      </trkpt>
      <trkpt lat="48.66043" lon="1.71833">
        <ele>131</ele>
        <time>2010-05-14T10:42:21Z</time>
      </trkpt>
      <trkpt lat="48.66046" lon="1.71833">
        <ele>131</ele>
        <time>2010-05-14T10:42:22Z</time>
      </trkpt>
      <trkpt lat="48.66048" lon="1.71833">
        <ele>131</ele>
        <time>2010-05-14T10:42:23Z</time>
      </trkpt>
      <trkpt lat="48.66051" lon="1.71833">
        <ele>131</ele>
        <time>2010-05-14T10:42:24Z</time>
      </trkpt>
      <trkpt lat="48.66052" lon="1.71833">
        <ele>131</ele>
        <time>2010-05-14T10:42:25Z</time>
      </trkpt>
      <trkpt lat="48.66054" lon="1.71831">
        <ele>131</ele>
        <time>2010-05-14T10:42:26Z</time>
      </trkpt>
      <trkpt lat="48.66056" lon="1.71832">
        <ele>131</ele>
        <time>2010-05-14T10:42:27Z</time>
      </trkpt>
      <trkpt lat="48.66058" lon="1.71833">
        <ele>131</ele>
        <time>2010-05-14T10:42:28Z</time>
      </trkpt>
      <trkpt lat="48.66059" lon="1.71833">
        <ele>131</ele>
        <time>2010-05-14T10:42:29Z</time>
      </trkpt>
      <trkpt lat="48.66062" lon="1.71833">
        <ele>131</ele>
        <time>2010-05-14T10:42:30Z</time>
      </trkpt>
      <trkpt lat="48.66064" lon="1.71835">
        <ele>131</ele>
        <time>2010-05-14T10:42:31Z</time>
      </trkpt>
      <trkpt lat="48.66066" lon="1.71833">
        <ele>131</ele>
        <time>2010-05-14T10:42:32Z</time>
      </trkpt>
      <trkpt lat="48.66069" lon="1.71833">
        <ele>130</ele>
        <time>2010-05-14T10:42:33Z</time>
      </trkpt>
      <trkpt lat="48.66071" lon="1.71832">
        <ele>129</ele>
        <time>2010-05-14T10:42:34Z</time>
      </trkpt>
      <trkpt lat="48.66073" lon="1.71832">
        <ele>129</ele>
        <time>2010-05-14T10:42:35Z</time>
      </trkpt>
      <trkpt lat="48.66075" lon="1.71831">
        <ele>128</ele>
        <time>2010-05-14T10:42:36Z</time>
      </trkpt>
      <trkpt lat="48.66078" lon="1.7183">
        <ele>127</ele>
        <time>2010-05-14T10:42:37Z</time>
      </trkpt>
      <trkpt lat="48.6608" lon="1.71828">
        <ele>126</ele>
        <time>2010-05-14T10:42:38Z</time>
      </trkpt>
      <trkpt lat="48.66083" lon="1.71827">
        <ele>125</ele>
        <time>2010-05-14T10:42:39Z</time>
      </trkpt>
      <trkpt lat="48.66085" lon="1.71827">
        <ele>124</ele>
        <time>2010-05-14T10:42:40Z</time>
      </trkpt>
      <trkpt lat="48.66087" lon="1.71827">
        <ele>123</ele>
        <time>2010-05-14T10:42:41Z</time>
      </trkpt>
      <trkpt lat="48.66087" lon="1.71829">
        <ele>121</ele>
        <time>2010-05-14T10:42:43Z</time>
      </trkpt>
      <trkpt lat="48.66087" lon="1.71831">
        <ele>120</ele>
        <time>2010-05-14T10:42:44Z</time>
      </trkpt>
      <trkpt lat="48.66088" lon="1.71833">
        <ele>119</ele>
        <time>2010-05-14T10:42:45Z</time>
      </trkpt>
      <trkpt lat="48.66089" lon="1.71834">
        <ele>118</ele>
        <time>2010-05-14T10:42:46Z</time>
      </trkpt>
      <trkpt lat="48.66092" lon="1.71836">
        <ele>118</ele>
        <time>2010-05-14T10:42:48Z</time>
      </trkpt>
      <trkpt lat="48.66093" lon="1.71839">
        <ele>118</ele>
        <time>2010-05-14T10:42:49Z</time>
      </trkpt>
      <trkpt lat="48.66095" lon="1.7184">
        <ele>118</ele>
        <time>2010-05-14T10:42:50Z</time>
      </trkpt>
      <trkpt lat="48.66095" lon="1.71842">
        <ele>118</ele>
        <time>2010-05-14T10:42:51Z</time>
      </trkpt>
      <trkpt lat="48.66097" lon="1.71842">
        <ele>118</ele>
        <time>2010-05-14T10:42:52Z</time>
      </trkpt>
      <trkpt lat="48.66099" lon="1.71842">
        <ele>118</ele>
        <time>2010-05-14T10:42:53Z</time>
      </trkpt>
      <trkpt lat="48.661" lon="1.71843">
        <ele>118</ele>
        <time>2010-05-14T10:42:54Z</time>
      </trkpt>
      <trkpt lat="48.66103" lon="1.71844">
        <ele>118</ele>
        <time>2010-05-14T10:42:56Z</time>
      </trkpt>
      <trkpt lat="48.66105" lon="1.71843">
        <ele>117</ele>
        <time>2010-05-14T10:42:57Z</time>
      </trkpt>
      <trkpt lat="48.66106" lon="1.71843">
        <ele>117</ele>
        <time>2010-05-14T10:42:58Z</time>
      </trkpt>
      <trkpt lat="48.66107" lon="1.71846">
        <ele>117</ele>
        <time>2010-05-14T10:42:59Z</time>
      </trkpt>
      <trkpt lat="48.66107" lon="1.71848">
        <ele>117</ele>
        <time>2010-05-14T10:43:00Z</time>
      </trkpt>
      <trkpt lat="48.66108" lon="1.71849">
        <ele>117</ele>
        <time>2010-05-14T10:43:01Z</time>
      </trkpt>
      <trkpt lat="48.66111" lon="1.71851">
        <ele>117</ele>
        <time>2010-05-14T10:43:03Z</time>
      </trkpt>
      <trkpt lat="48.66112" lon="1.71851">
        <ele>117</ele>
        <time>2010-05-14T10:43:04Z</time>
      </trkpt>
      <trkpt lat="48.66114" lon="1.71853">
        <ele>117</ele>
        <time>2010-05-14T10:43:05Z</time>
      </trkpt>
      <trkpt lat="48.66115" lon="1.71855">
        <ele>117</ele>
        <time>2010-05-14T10:43:06Z</time>
      </trkpt>
      <trkpt lat="48.66117" lon="1.71859">
        <ele>117</ele>
        <time>2010-05-14T10:43:08Z</time>
      </trkpt>
      <trkpt lat="48.66118" lon="1.71861">
        <ele>117</ele>
        <time>2010-05-14T10:43:09Z</time>
      </trkpt>
      <trkpt lat="48.6612" lon="1.71862">
        <ele>117</ele>
        <time>2010-05-14T10:43:10Z</time>
      </trkpt>
      <trkpt lat="48.66121" lon="1.71863">
        <ele>117</ele>
        <time>2010-05-14T10:43:11Z</time>
      </trkpt>
      <trkpt lat="48.66122" lon="1.71866">
        <ele>117</ele>
        <time>2010-05-14T10:43:13Z</time>
      </trkpt>
      <trkpt lat="48.66123" lon="1.71867">
        <ele>117</ele>
        <time>2010-05-14T10:43:14Z</time>
      </trkpt>
      <trkpt lat="48.66125" lon="1.71868">
        <ele>117</ele>
        <time>2010-05-14T10:43:15Z</time>
      </trkpt>
      <trkpt lat="48.66127" lon="1.7187">
        <ele>117</ele>
        <time>2010-05-14T10:43:16Z</time>
      </trkpt>
      <trkpt lat="48.66127" lon="1.71875">
        <ele>117</ele>
        <time>2010-05-14T10:43:17Z</time>
      </trkpt>
      <trkpt lat="48.66127" lon="1.71878">
        <ele>118</ele>
        <time>2010-05-14T10:43:18Z</time>
      </trkpt>
      <trkpt lat="48.66128" lon="1.71881">
        <ele>120</ele>
        <time>2010-05-14T10:43:20Z</time>
      </trkpt>
      <trkpt lat="48.66129" lon="1.71883">
        <ele>121</ele>
        <time>2010-05-14T10:43:21Z</time>
      </trkpt>
      <trkpt lat="48.6613" lon="1.71886">
        <ele>122</ele>
        <time>2010-05-14T10:43:22Z</time>
      </trkpt>
      <trkpt lat="48.66131" lon="1.71888">
        <ele>123</ele>
        <time>2010-05-14T10:43:23Z</time>
      </trkpt>
      <trkpt lat="48.66132" lon="1.7189">
        <ele>124</ele>
        <time>2010-05-14T10:43:24Z</time>
      </trkpt>
      <trkpt lat="48.66133" lon="1.71891">
        <ele>125</ele>
        <time>2010-05-14T10:43:25Z</time>
      </trkpt>
      <trkpt lat="48.66133" lon="1.71895">
        <ele>126</ele>
        <time>2010-05-14T10:43:26Z</time>
      </trkpt>
      <trkpt lat="48.66133" lon="1.71898">
        <ele>127</ele>
        <time>2010-05-14T10:43:27Z</time>
      </trkpt>
      <trkpt lat="48.66133" lon="1.71902">
        <ele>128</ele>
        <time>2010-05-14T10:43:28Z</time>
      </trkpt>
      <trkpt lat="48.66135" lon="1.71904">
        <ele>129</ele>
        <time>2010-05-14T10:43:29Z</time>
      </trkpt>
      <trkpt lat="48.66136" lon="1.71908">
        <ele>130</ele>
        <time>2010-05-14T10:43:30Z</time>
      </trkpt>
      <trkpt lat="48.66138" lon="1.71911">
        <ele>131</ele>
        <time>2010-05-14T10:43:31Z</time>
      </trkpt>
      <trkpt lat="48.66139" lon="1.71913">
        <ele>132</ele>
        <time>2010-05-14T10:43:32Z</time>
      </trkpt>
      <trkpt lat="48.66141" lon="1.71914">
        <ele>133</ele>
        <time>2010-05-14T10:43:33Z</time>
      </trkpt>
      <trkpt lat="48.66141" lon="1.71916">
        <ele>134</ele>
        <time>2010-05-14T10:43:34Z</time>
      </trkpt>
      <trkpt lat="48.66141" lon="1.71918">
        <ele>135</ele>
        <time>2010-05-14T10:43:35Z</time>
      </trkpt>
      <trkpt lat="48.66143" lon="1.71921">
        <ele>136</ele>
        <time>2010-05-14T10:43:36Z</time>
      </trkpt>
      <trkpt lat="48.66144" lon="1.71926">
        <ele>137</ele>
        <time>2010-05-14T10:43:37Z</time>
      </trkpt>
      <trkpt lat="48.66145" lon="1.71929">
        <ele>138</ele>
        <time>2010-05-14T10:43:38Z</time>
      </trkpt>
      <trkpt lat="48.66146" lon="1.71931">
        <ele>139</ele>
        <time>2010-05-14T10:43:39Z</time>
      </trkpt>
      <trkpt lat="48.66148" lon="1.71934">
        <ele>140</ele>
        <time>2010-05-14T10:43:40Z</time>
      </trkpt>
      <trkpt lat="48.66148" lon="1.71938">
        <ele>142</ele>
        <time>2010-05-14T10:43:41Z</time>
      </trkpt>
      <trkpt lat="48.66148" lon="1.71942">
        <ele>143</ele>
        <time>2010-05-14T10:43:42Z</time>
      </trkpt>
      <trkpt lat="48.66148" lon="1.71946">
        <ele>144</ele>
        <time>2010-05-14T10:43:43Z</time>
      </trkpt>
      <trkpt lat="48.66149" lon="1.7195">
        <ele>145</ele>
        <time>2010-05-14T10:43:44Z</time>
      </trkpt>
      <trkpt lat="48.66149" lon="1.71953">
        <ele>146</ele>
        <time>2010-05-14T10:43:45Z</time>
      </trkpt>
      <trkpt lat="48.66149" lon="1.71957">
        <ele>147</ele>
        <time>2010-05-14T10:43:46Z</time>
      </trkpt>
      <trkpt lat="48.66149" lon="1.71962">
        <ele>148</ele>
        <time>2010-05-14T10:43:47Z</time>
      </trkpt>
      <trkpt lat="48.66151" lon="1.71965">
        <ele>149</ele>
        <time>2010-05-14T10:43:48Z</time>
      </trkpt>
      <trkpt lat="48.66154" lon="1.71967">
        <ele>151</ele>
        <time>2010-05-14T10:43:50Z</time>
      </trkpt>
      <trkpt lat="48.66155" lon="1.71969">
        <ele>152</ele>
        <time>2010-05-14T10:43:51Z</time>
      </trkpt>
      <trkpt lat="48.66155" lon="1.71972">
        <ele>153</ele>
        <time>2010-05-14T10:43:52Z</time>
      </trkpt>
      <trkpt lat="48.66155" lon="1.71975">
        <ele>154</ele>
        <time>2010-05-14T10:43:53Z</time>
      </trkpt>
      <trkpt lat="48.66155" lon="1.7198">
        <ele>154</ele>
        <time>2010-05-14T10:43:54Z</time>
      </trkpt>
      <trkpt lat="48.66155" lon="1.71984">
        <ele>155</ele>
        <time>2010-05-14T10:43:55Z</time>
      </trkpt>
      <trkpt lat="48.66155" lon="1.71986">
        <ele>155</ele>
        <time>2010-05-14T10:43:56Z</time>
      </trkpt>
      <trkpt lat="48.66156" lon="1.71989">
        <ele>155</ele>
        <time>2010-05-14T10:43:57Z</time>
      </trkpt>
      <trkpt lat="48.66157" lon="1.71991">
        <ele>155</ele>
        <time>2010-05-14T10:43:58Z</time>
      </trkpt>
      <trkpt lat="48.66159" lon="1.71992">
        <ele>155</ele>
        <time>2010-05-14T10:43:59Z</time>
      </trkpt>
      <trkpt lat="48.66159" lon="1.71994">
        <ele>155</ele>
        <time>2010-05-14T10:44:00Z</time>
      </trkpt>
      <trkpt lat="48.6616" lon="1.71997">
        <ele>155</ele>
        <time>2010-05-14T10:44:01Z</time>
      </trkpt>
      <trkpt lat="48.6616" lon="1.72">
        <ele>155</ele>
        <time>2010-05-14T10:44:02Z</time>
      </trkpt>
      <trkpt lat="48.6616" lon="1.72002">
        <ele>155</ele>
        <time>2010-05-14T10:44:03Z</time>
      </trkpt>
      <trkpt lat="48.66161" lon="1.72003">
        <ele>155</ele>
        <time>2010-05-14T10:44:04Z</time>
      </trkpt>
      <trkpt lat="48.66162" lon="1.72005">
        <ele>154</ele>
        <time>2010-05-14T10:44:05Z</time>
      </trkpt>
      <trkpt lat="48.66162" lon="1.72008">
        <ele>153</ele>
        <time>2010-05-14T10:44:06Z</time>
      </trkpt>
      <trkpt lat="48.66164" lon="1.72008">
        <ele>152</ele>
        <time>2010-05-14T10:44:07Z</time>
      </trkpt>
      <trkpt lat="48.66164" lon="1.72011">
        <ele>151</ele>
        <time>2010-05-14T10:44:08Z</time>
      </trkpt>
      <trkpt lat="48.66165" lon="1.72014">
        <ele>151</ele>
        <time>2010-05-14T10:44:10Z</time>
      </trkpt>
      <trkpt lat="48.66166" lon="1.72017">
        <ele>150</ele>
        <time>2010-05-14T10:44:11Z</time>
      </trkpt>
      <trkpt lat="48.66166" lon="1.72019">
        <ele>150</ele>
        <time>2010-05-14T10:44:12Z</time>
      </trkpt>
      <trkpt lat="48.66167" lon="1.72021">
        <ele>150</ele>
        <time>2010-05-14T10:44:14Z</time>
      </trkpt>
      <trkpt lat="48.66167" lon="1.72023">
        <ele>150</ele>
        <time>2010-05-14T10:44:15Z</time>
      </trkpt>
      <trkpt lat="48.66166" lon="1.72026">
        <ele>148</ele>
        <time>2010-05-14T10:44:18Z</time>
      </trkpt>
      <trkpt lat="48.66166" lon="1.72029">
        <ele>147</ele>
        <time>2010-05-14T10:44:20Z</time>
      </trkpt>
      <trkpt lat="48.66166" lon="1.7203">
        <ele>146</ele>
        <time>2010-05-14T10:44:21Z</time>
      </trkpt>
      <trkpt lat="48.66165" lon="1.72033">
        <ele>146</ele>
        <time>2010-05-14T10:44:22Z</time>
      </trkpt>
      <trkpt lat="48.66166" lon="1.72036">
        <ele>146</ele>
        <time>2010-05-14T10:44:23Z</time>
      </trkpt>
      <trkpt lat="48.66166" lon="1.72039">
        <ele>146</ele>
        <time>2010-05-14T10:44:24Z</time>
      </trkpt>
      <trkpt lat="48.66167" lon="1.72042">
        <ele>146</ele>
        <time>2010-05-14T10:44:25Z</time>
      </trkpt>
      <trkpt lat="48.66167" lon="1.72047">
        <ele>146</ele>
        <time>2010-05-14T10:44:26Z</time>
      </trkpt>
      <trkpt lat="48.66167" lon="1.72053">
        <ele>146</ele>
        <time>2010-05-14T10:44:27Z</time>
      </trkpt>
      <trkpt lat="48.66167" lon="1.72061">
        <ele>146</ele>
        <time>2010-05-14T10:44:28Z</time>
      </trkpt>
      <trkpt lat="48.66168" lon="1.72067">
        <ele>146</ele>
        <time>2010-05-14T10:44:29Z</time>
      </trkpt>
      <trkpt lat="48.66169" lon="1.7207">
        <ele>146</ele>
        <time>2010-05-14T10:44:30Z</time>
      </trkpt>
      <trkpt lat="48.66171" lon="1.72073">
        <ele>146</ele>
        <time>2010-05-14T10:44:31Z</time>
      </trkpt>
      <trkpt lat="48.66172" lon="1.72075">
        <ele>146</ele>
        <time>2010-05-14T10:44:32Z</time>
      </trkpt>
      <trkpt lat="48.66173" lon="1.72076">
        <ele>146</ele>
        <time>2010-05-14T10:44:33Z</time>
      </trkpt>
      <trkpt lat="48.66173" lon="1.72078">
        <ele>147</ele>
        <time>2010-05-14T10:44:34Z</time>
      </trkpt>
      <trkpt lat="48.66174" lon="1.72081">
        <ele>147</ele>
        <time>2010-05-14T10:44:35Z</time>
      </trkpt>
      <trkpt lat="48.66173" lon="1.72084">
        <ele>147</ele>
        <time>2010-05-14T10:44:36Z</time>
      </trkpt>
      <trkpt lat="48.66173" lon="1.72088">
        <ele>148</ele>
        <time>2010-05-14T10:44:37Z</time>
      </trkpt>
      <trkpt lat="48.66172" lon="1.72091">
        <ele>150</ele>
        <time>2010-05-14T10:44:39Z</time>
      </trkpt>
      <trkpt lat="48.66173" lon="1.72093">
        <ele>151</ele>
        <time>2010-05-14T10:44:40Z</time>
      </trkpt>
      <trkpt lat="48.66172" lon="1.72096">
        <ele>152</ele>
        <time>2010-05-14T10:44:42Z</time>
      </trkpt>
      <trkpt lat="48.66174" lon="1.72098">
        <ele>152</ele>
        <time>2010-05-14T10:44:43Z</time>
      </trkpt>
      <trkpt lat="48.66173" lon="1.72102">
        <ele>152</ele>
        <time>2010-05-14T10:44:45Z</time>
      </trkpt>
      <trkpt lat="48.66173" lon="1.72104">
        <ele>152</ele>
        <time>2010-05-14T10:44:46Z</time>
      </trkpt>
      <trkpt lat="48.66174" lon="1.72104">
        <ele>152</ele>
        <time>2010-05-14T10:44:47Z</time>
      </trkpt>
      <trkpt lat="48.66175" lon="1.72107">
        <ele>152</ele>
        <time>2010-05-14T10:44:48Z</time>
      </trkpt>
      <trkpt lat="48.66176" lon="1.72109">
        <ele>152</ele>
        <time>2010-05-14T10:44:49Z</time>
      </trkpt>
      <trkpt lat="48.66176" lon="1.72111">
        <ele>152</ele>
        <time>2010-05-14T10:44:50Z</time>
      </trkpt>
      <trkpt lat="48.66176" lon="1.72113">
        <ele>152</ele>
        <time>2010-05-14T10:44:51Z</time>
      </trkpt>
      <trkpt lat="48.66176" lon="1.72116">
        <ele>152</ele>
        <time>2010-05-14T10:44:52Z</time>
      </trkpt>
      <trkpt lat="48.66176" lon="1.72118">
        <ele>152</ele>
        <time>2010-05-14T10:44:53Z</time>
      </trkpt>
      <trkpt lat="48.66177" lon="1.72121">
        <ele>152</ele>
        <time>2010-05-14T10:44:56Z</time>
      </trkpt>
      <trkpt lat="48.66177" lon="1.72124">
        <ele>152</ele>
        <time>2010-05-14T10:44:57Z</time>
      </trkpt>
      <trkpt lat="48.66177" lon="1.72126">
        <ele>152</ele>
        <time>2010-05-14T10:44:58Z</time>
      </trkpt>
      <trkpt lat="48.66178" lon="1.72129">
        <ele>151</ele>
        <time>2010-05-14T10:44:59Z</time>
      </trkpt>
      <trkpt lat="48.66178" lon="1.72131">
        <ele>151</ele>
        <time>2010-05-14T10:45:00Z</time>
      </trkpt>
      <trkpt lat="48.66179" lon="1.72133">
        <ele>151</ele>
        <time>2010-05-14T10:45:01Z</time>
      </trkpt>
      <trkpt lat="48.6618" lon="1.72134">
        <ele>151</ele>
        <time>2010-05-14T10:45:02Z</time>
      </trkpt>
      <trkpt lat="48.66181" lon="1.72138">
        <ele>151</ele>
        <time>2010-05-14T10:45:04Z</time>
      </trkpt>
      <trkpt lat="48.66181" lon="1.7214">
        <ele>151</ele>
        <time>2010-05-14T10:45:05Z</time>
      </trkpt>
      <trkpt lat="48.66181" lon="1.72142">
        <ele>151</ele>
        <time>2010-05-14T10:45:06Z</time>
      </trkpt>
      <trkpt lat="48.66182" lon="1.72144">
        <ele>151</ele>
        <time>2010-05-14T10:45:07Z</time>
      </trkpt>
      <trkpt lat="48.66182" lon="1.72145">
        <ele>151</ele>
        <time>2010-05-14T10:45:08Z</time>
      </trkpt>
      <trkpt lat="48.66182" lon="1.72148">
        <ele>151</ele>
        <time>2010-05-14T10:45:09Z</time>
      </trkpt>
      <trkpt lat="48.66184" lon="1.72149">
        <ele>151</ele>
        <time>2010-05-14T10:45:10Z</time>
      </trkpt>
      <trkpt lat="48.66185" lon="1.72152">
        <ele>151</ele>
        <time>2010-05-14T10:45:11Z</time>
      </trkpt>
      <trkpt lat="48.66184" lon="1.72155">
        <ele>151</ele>
        <time>2010-05-14T10:45:12Z</time>
      </trkpt>
      <trkpt lat="48.66184" lon="1.72157">
        <ele>151</ele>
        <time>2010-05-14T10:45:13Z</time>
      </trkpt>
      <trkpt lat="48.66185" lon="1.7216">
        <ele>151</ele>
        <time>2010-05-14T10:45:15Z</time>
      </trkpt>
      <trkpt lat="48.66187" lon="1.72163">
        <ele>151</ele>
        <time>2010-05-14T10:45:17Z</time>
      </trkpt>
      <trkpt lat="48.66187" lon="1.72165">
        <ele>150</ele>
        <time>2010-05-14T10:45:18Z</time>
      </trkpt>
      <trkpt lat="48.66186" lon="1.7217">
        <ele>149</ele>
        <time>2010-05-14T10:45:20Z</time>
      </trkpt>
      <trkpt lat="48.66185" lon="1.72174">
        <ele>149</ele>
        <time>2010-05-14T10:45:21Z</time>
      </trkpt>
      <trkpt lat="48.66185" lon="1.72177">
        <ele>148</ele>
        <time>2010-05-14T10:45:22Z</time>
      </trkpt>
      <trkpt lat="48.66186" lon="1.7218">
        <ele>148</ele>
        <time>2010-05-14T10:45:23Z</time>
      </trkpt>
      <trkpt lat="48.66186" lon="1.72182">
        <ele>148</ele>
        <time>2010-05-14T10:45:24Z</time>
      </trkpt>
      <trkpt lat="48.66185" lon="1.72185">
        <ele>148</ele>
        <time>2010-05-14T10:45:25Z</time>
      </trkpt>
      <trkpt lat="48.66186" lon="1.72186">
        <ele>148</ele>
        <time>2010-05-14T10:45:26Z</time>
      </trkpt>
      <trkpt lat="48.66188" lon="1.72187">
        <ele>147</ele>
        <time>2010-05-14T10:45:27Z</time>
      </trkpt>
      <trkpt lat="48.66187" lon="1.72191">
        <ele>147</ele>
        <time>2010-05-14T10:45:28Z</time>
      </trkpt>
      <trkpt lat="48.66187" lon="1.72193">
        <ele>147</ele>
        <time>2010-05-14T10:45:29Z</time>
      </trkpt>
      <trkpt lat="48.66187" lon="1.72196">
        <ele>147</ele>
        <time>2010-05-14T10:45:31Z</time>
      </trkpt>
      <trkpt lat="48.66187" lon="1.72199">
        <ele>147</ele>
        <time>2010-05-14T10:45:32Z</time>
      </trkpt>
      <trkpt lat="48.66189" lon="1.72201">
        <ele>147</ele>
        <time>2010-05-14T10:45:34Z</time>
      </trkpt>
      <trkpt lat="48.66189" lon="1.72204">
        <ele>147</ele>
        <time>2010-05-14T10:45:35Z</time>
      </trkpt>
      <trkpt lat="48.66188" lon="1.72207">
        <ele>147</ele>
        <time>2010-05-14T10:45:36Z</time>
      </trkpt>
      <trkpt lat="48.66189" lon="1.72211">
        <ele>147</ele>
        <time>2010-05-14T10:45:38Z</time>
      </trkpt>
      <trkpt lat="48.6619" lon="1.72217">
        <ele>147</ele>
        <time>2010-05-14T10:45:42Z</time>
      </trkpt>
      <trkpt lat="48.6619" lon="1.72222">
        <ele>147</ele>
        <time>2010-05-14T10:45:44Z</time>
      </trkpt>
      <trkpt lat="48.6619" lon="1.72226">
        <ele>147</ele>
        <time>2010-05-14T10:45:45Z</time>
      </trkpt>
      <trkpt lat="48.6619" lon="1.7223">
        <ele>147</ele>
        <time>2010-05-14T10:45:46Z</time>
      </trkpt>
      <trkpt lat="48.6619" lon="1.72233">
        <ele>147</ele>
        <time>2010-05-14T10:45:47Z</time>
      </trkpt>
      <trkpt lat="48.66191" lon="1.72236">
        <ele>147</ele>
        <time>2010-05-14T10:45:49Z</time>
      </trkpt>
      <trkpt lat="48.66192" lon="1.72238">
        <ele>147</ele>
        <time>2010-05-14T10:45:50Z</time>
      </trkpt>
      <trkpt lat="48.66193" lon="1.72241">
        <ele>147</ele>
        <time>2010-05-14T10:45:51Z</time>
      </trkpt>
      <trkpt lat="48.66193" lon="1.72245">
        <ele>147</ele>
        <time>2010-05-14T10:45:52Z</time>
      </trkpt>
      <trkpt lat="48.66195" lon="1.72248">
        <ele>147</ele>
        <time>2010-05-14T10:45:53Z</time>
      </trkpt>
      <trkpt lat="48.66195" lon="1.72251">
        <ele>147</ele>
        <time>2010-05-14T10:45:54Z</time>
      </trkpt>
      <trkpt lat="48.66196" lon="1.72252">
        <ele>147</ele>
        <time>2010-05-14T10:45:55Z</time>
      </trkpt>
      <trkpt lat="48.66197" lon="1.72255">
        <ele>147</ele>
        <time>2010-05-14T10:45:57Z</time>
      </trkpt>
      <trkpt lat="48.66199" lon="1.72257">
        <ele>147</ele>
        <time>2010-05-14T10:45:58Z</time>
      </trkpt>
      <trkpt lat="48.662" lon="1.72257">
        <ele>147</ele>
        <time>2010-05-14T10:45:59Z</time>
      </trkpt>
      <trkpt lat="48.66201" lon="1.72258">
        <ele>147</ele>
        <time>2010-05-14T10:46:00Z</time>
      </trkpt>
      <trkpt lat="48.66202" lon="1.72261">
        <ele>147</ele>
        <time>2010-05-14T10:46:02Z</time>
      </trkpt>
      <trkpt lat="48.66202" lon="1.72263">
        <ele>147</ele>
        <time>2010-05-14T10:46:03Z</time>
      </trkpt>
      <trkpt lat="48.66203" lon="1.72265">
        <ele>147</ele>
        <time>2010-05-14T10:46:04Z</time>
      </trkpt>
      <trkpt lat="48.66204" lon="1.72268">
        <ele>146</ele>
        <time>2010-05-14T10:46:06Z</time>
      </trkpt>
      <trkpt lat="48.66204" lon="1.7227">
        <ele>146</ele>
        <time>2010-05-14T10:46:07Z</time>
      </trkpt>
      <trkpt lat="48.66204" lon="1.72272">
        <ele>146</ele>
        <time>2010-05-14T10:46:08Z</time>
      </trkpt>
      <trkpt lat="48.66203" lon="1.72275">
        <ele>146</ele>
        <time>2010-05-14T10:46:09Z</time>
      </trkpt>
      <trkpt lat="48.66203" lon="1.72278">
        <ele>146</ele>
        <time>2010-05-14T10:46:10Z</time>
      </trkpt>
      <trkpt lat="48.66202" lon="1.72281">
        <ele>146</ele>
        <time>2010-05-14T10:46:11Z</time>
      </trkpt>
      <trkpt lat="48.66202" lon="1.72283">
        <ele>146</ele>
        <time>2010-05-14T10:46:12Z</time>
      </trkpt>
      <trkpt lat="48.66201" lon="1.72287">
        <ele>146</ele>
        <time>2010-05-14T10:46:13Z</time>
      </trkpt>
      <trkpt lat="48.662" lon="1.72289">
        <ele>146</ele>
        <time>2010-05-14T10:46:14Z</time>
      </trkpt>
      <trkpt lat="48.662" lon="1.72291">
        <ele>146</ele>
        <time>2010-05-14T10:46:15Z</time>
      </trkpt>
      <trkpt lat="48.66201" lon="1.72292">
        <ele>146</ele>
        <time>2010-05-14T10:46:16Z</time>
      </trkpt>
      <trkpt lat="48.66201" lon="1.72295">
        <ele>146</ele>
        <time>2010-05-14T10:46:17Z</time>
      </trkpt>
      <trkpt lat="48.66201" lon="1.72296">
        <ele>146</ele>
        <time>2010-05-14T10:46:18Z</time>
      </trkpt>
      <trkpt lat="48.662" lon="1.72298">
        <ele>146</ele>
        <time>2010-05-14T10:46:19Z</time>
      </trkpt>
      <trkpt lat="48.66201" lon="1.723">
        <ele>146</ele>
        <time>2010-05-14T10:46:20Z</time>
      </trkpt>
      <trkpt lat="48.66201" lon="1.72302">
        <ele>146</ele>
        <time>2010-05-14T10:46:22Z</time>
      </trkpt>
      <trkpt lat="48.66203" lon="1.72305">
        <ele>146</ele>
        <time>2010-05-14T10:46:24Z</time>
      </trkpt>
      <trkpt lat="48.66201" lon="1.72307">
        <ele>146</ele>
        <time>2010-05-14T10:46:25Z</time>
      </trkpt>
      <trkpt lat="48.66201" lon="1.7231">
        <ele>146</ele>
        <time>2010-05-14T10:46:26Z</time>
      </trkpt>
      <trkpt lat="48.66202" lon="1.72313">
        <ele>146</ele>
        <time>2010-05-14T10:46:27Z</time>
      </trkpt>
      <trkpt lat="48.66203" lon="1.72315">
        <ele>146</ele>
        <time>2010-05-14T10:46:29Z</time>
      </trkpt>
      <trkpt lat="48.66202" lon="1.72319">
        <ele>147</ele>
        <time>2010-05-14T10:46:31Z</time>
      </trkpt>
      <trkpt lat="48.66202" lon="1.72323">
        <ele>148</ele>
        <time>2010-05-14T10:46:32Z</time>
      </trkpt>
      <trkpt lat="48.66203" lon="1.72328">
        <ele>148</ele>
        <time>2010-05-14T10:46:33Z</time>
      </trkpt>
      <trkpt lat="48.66203" lon="1.72333">
        <ele>149</ele>
        <time>2010-05-14T10:46:34Z</time>
      </trkpt>
      <trkpt lat="48.66203" lon="1.72337">
        <ele>149</ele>
        <time>2010-05-14T10:46:35Z</time>
      </trkpt>
      <trkpt lat="48.66203" lon="1.72342">
        <ele>150</ele>
        <time>2010-05-14T10:46:36Z</time>
      </trkpt>
      <trkpt lat="48.66204" lon="1.72348">
        <ele>150</ele>
        <time>2010-05-14T10:46:37Z</time>
      </trkpt>
      <trkpt lat="48.66203" lon="1.72355">
        <ele>150</ele>
        <time>2010-05-14T10:46:38Z</time>
      </trkpt>
      <trkpt lat="48.66203" lon="1.72362">
        <ele>151</ele>
        <time>2010-05-14T10:46:39Z</time>
      </trkpt>
      <trkpt lat="48.66203" lon="1.72368">
        <ele>152</ele>
        <time>2010-05-14T10:46:40Z</time>
      </trkpt>
      <trkpt lat="48.66205" lon="1.72376">
        <ele>153</ele>
        <time>2010-05-14T10:46:43Z</time>
      </trkpt>
      <trkpt lat="48.66206" lon="1.72384">
        <ele>154</ele>
        <time>2010-05-14T10:46:44Z</time>
      </trkpt>
      <trkpt lat="48.66208" lon="1.72386">
        <ele>155</ele>
        <time>2010-05-14T10:46:45Z</time>
      </trkpt>
      <trkpt lat="48.66208" lon="1.72389">
        <ele>156</ele>
        <time>2010-05-14T10:46:46Z</time>
      </trkpt>
      <trkpt lat="48.66208" lon="1.72392">
        <ele>157</ele>
        <time>2010-05-14T10:46:47Z</time>
      </trkpt>
      <trkpt lat="48.66208" lon="1.72395">
        <ele>157</ele>
        <time>2010-05-14T10:46:48Z</time>
      </trkpt>
      <trkpt lat="48.66209" lon="1.72396">
        <ele>157</ele>
        <time>2010-05-14T10:46:49Z</time>
      </trkpt>
      <trkpt lat="48.66209" lon="1.724">
        <ele>157</ele>
        <time>2010-05-14T10:46:50Z</time>
      </trkpt>
      <trkpt lat="48.66213" lon="1.72409">
        <ele>157</ele>
        <time>2010-05-14T10:46:55Z</time>
      </trkpt>
      <trkpt lat="48.66211" lon="1.72417">
        <ele>158</ele>
        <time>2010-05-14T10:46:57Z</time>
      </trkpt>
      <trkpt lat="48.66216" lon="1.72425">
        <ele>158</ele>
        <time>2010-05-14T10:46:58Z</time>
      </trkpt>
      <trkpt lat="48.66216" lon="1.7243">
        <ele>158</ele>
        <time>2010-05-14T10:47:00Z</time>
      </trkpt>
      <trkpt lat="48.66216" lon="1.72435">
        <ele>158</ele>
        <time>2010-05-14T10:47:01Z</time>
      </trkpt>
      <trkpt lat="48.66214" lon="1.7244">
        <ele>158</ele>
        <time>2010-05-14T10:47:02Z</time>
      </trkpt>
      <trkpt lat="48.66213" lon="1.72443">
        <ele>158</ele>
        <time>2010-05-14T10:47:04Z</time>
      </trkpt>
      <trkpt lat="48.66213" lon="1.72446">
        <ele>158</ele>
        <time>2010-05-14T10:47:05Z</time>
      </trkpt>
      <trkpt lat="48.66214" lon="1.72448">
        <ele>156</ele>
        <time>2010-05-14T10:47:07Z</time>
      </trkpt>
      <trkpt lat="48.66216" lon="1.7245">
        <ele>154</ele>
        <time>2010-05-14T10:47:09Z</time>
      </trkpt>
      <trkpt lat="48.66217" lon="1.72452">
        <ele>153</ele>
        <time>2010-05-14T10:47:10Z</time>
      </trkpt>
      <trkpt lat="48.66218" lon="1.72453">
        <ele>152</ele>
        <time>2010-05-14T10:47:11Z</time>
      </trkpt>
      <trkpt lat="48.66219" lon="1.72456">
        <ele>151</ele>
        <time>2010-05-14T10:47:12Z</time>
      </trkpt>
      <trkpt lat="48.66219" lon="1.72458">
        <ele>151</ele>
        <time>2010-05-14T10:47:13Z</time>
      </trkpt>
      <trkpt lat="48.66219" lon="1.7246">
        <ele>150</ele>
        <time>2010-05-14T10:47:14Z</time>
      </trkpt>
      <trkpt lat="48.66219" lon="1.72462">
        <ele>150</ele>
        <time>2010-05-14T10:47:15Z</time>
      </trkpt>
      <trkpt lat="48.66219" lon="1.72464">
        <ele>150</ele>
        <time>2010-05-14T10:47:16Z</time>
      </trkpt>
      <trkpt lat="48.66218" lon="1.72468">
        <ele>150</ele>
        <time>2010-05-14T10:47:18Z</time>
      </trkpt>
      <trkpt lat="48.66219" lon="1.7247">
        <ele>150</ele>
        <time>2010-05-14T10:47:20Z</time>
      </trkpt>
      <trkpt lat="48.66219" lon="1.72472">
        <ele>150</ele>
        <time>2010-05-14T10:47:21Z</time>
      </trkpt>
      <trkpt lat="48.66218" lon="1.72474">
        <ele>150</ele>
        <time>2010-05-14T10:47:22Z</time>
      </trkpt>
      <trkpt lat="48.66217" lon="1.72479">
        <ele>150</ele>
        <time>2010-05-14T10:47:24Z</time>
      </trkpt>
      <trkpt lat="48.66218" lon="1.72482">
        <ele>150</ele>
        <time>2010-05-14T10:47:25Z</time>
      </trkpt>
      <trkpt lat="48.66219" lon="1.72484">
        <ele>150</ele>
        <time>2010-05-14T10:47:26Z</time>
      </trkpt>
      <trkpt lat="48.66221" lon="1.72486">
        <ele>150</ele>
        <time>2010-05-14T10:47:27Z</time>
      </trkpt>
      <trkpt lat="48.66223" lon="1.72488">
        <ele>150</ele>
        <time>2010-05-14T10:47:28Z</time>
      </trkpt>
      <trkpt lat="48.66223" lon="1.72491">
        <ele>151</ele>
        <time>2010-05-14T10:47:29Z</time>
      </trkpt>
      <trkpt lat="48.66224" lon="1.72494">
        <ele>151</ele>
        <time>2010-05-14T10:47:30Z</time>
      </trkpt>
      <trkpt lat="48.66226" lon="1.72496">
        <ele>152</ele>
        <time>2010-05-14T10:47:31Z</time>
      </trkpt>
      <trkpt lat="48.66226" lon="1.725">
        <ele>152</ele>
        <time>2010-05-14T10:47:32Z</time>
      </trkpt>
      <trkpt lat="48.66227" lon="1.72502">
        <ele>153</ele>
        <time>2010-05-14T10:47:33Z</time>
      </trkpt>
      <trkpt lat="48.66228" lon="1.72504">
        <ele>154</ele>
        <time>2010-05-14T10:47:34Z</time>
      </trkpt>
      <trkpt lat="48.66227" lon="1.72507">
        <ele>155</ele>
        <time>2010-05-14T10:47:36Z</time>
      </trkpt>
      <trkpt lat="48.66227" lon="1.7251">
        <ele>156</ele>
        <time>2010-05-14T10:47:37Z</time>
      </trkpt>
      <trkpt lat="48.66226" lon="1.72512">
        <ele>157</ele>
        <time>2010-05-14T10:47:38Z</time>
      </trkpt>
      <trkpt lat="48.66225" lon="1.72514">
        <ele>158</ele>
        <time>2010-05-14T10:47:39Z</time>
      </trkpt>
      <trkpt lat="48.66224" lon="1.72516">
        <ele>159</ele>
        <time>2010-05-14T10:47:40Z</time>
      </trkpt>
      <trkpt lat="48.66224" lon="1.72518">
        <ele>160</ele>
        <time>2010-05-14T10:47:41Z</time>
      </trkpt>
      <trkpt lat="48.66224" lon="1.72522">
        <ele>162</ele>
        <time>2010-05-14T10:47:43Z</time>
      </trkpt>
      <trkpt lat="48.66226" lon="1.72523">
        <ele>164</ele>
        <time>2010-05-14T10:47:46Z</time>
      </trkpt>
      <trkpt lat="48.66227" lon="1.72526">
        <ele>165</ele>
        <time>2010-05-14T10:47:47Z</time>
      </trkpt>
      <trkpt lat="48.66228" lon="1.72526">
        <ele>165</ele>
        <time>2010-05-14T10:47:48Z</time>
      </trkpt>
      <trkpt lat="48.66229" lon="1.72529">
        <ele>165</ele>
        <time>2010-05-14T10:47:49Z</time>
      </trkpt>
      <trkpt lat="48.66229" lon="1.72532">
        <ele>166</ele>
        <time>2010-05-14T10:47:50Z</time>
      </trkpt>
      <trkpt lat="48.66229" lon="1.72536">
        <ele>166</ele>
        <time>2010-05-14T10:47:51Z</time>
      </trkpt>
      <trkpt lat="48.6623" lon="1.72538">
        <ele>167</ele>
        <time>2010-05-14T10:47:52Z</time>
      </trkpt>
      <trkpt lat="48.66231" lon="1.72539">
        <ele>167</ele>
        <time>2010-05-14T10:47:53Z</time>
      </trkpt>
      <trkpt lat="48.66233" lon="1.72543">
        <ele>168</ele>
        <time>2010-05-14T10:47:56Z</time>
      </trkpt>
      <trkpt lat="48.66236" lon="1.72546">
        <ele>168</ele>
        <time>2010-05-14T10:47:57Z</time>
      </trkpt>
      <trkpt lat="48.66238" lon="1.72547">
        <ele>168</ele>
        <time>2010-05-14T10:47:58Z</time>
      </trkpt>
      <trkpt lat="48.66238" lon="1.7255">
        <ele>168</ele>
        <time>2010-05-14T10:48:00Z</time>
      </trkpt>
      <trkpt lat="48.66237" lon="1.72554">
        <ele>168</ele>
        <time>2010-05-14T10:48:01Z</time>
      </trkpt>
      <trkpt lat="48.66238" lon="1.72557">
        <ele>168</ele>
        <time>2010-05-14T10:48:02Z</time>
      </trkpt>
      <trkpt lat="48.66239" lon="1.72559">
        <ele>168</ele>
        <time>2010-05-14T10:48:04Z</time>
      </trkpt>
      <trkpt lat="48.6624" lon="1.72564">
        <ele>168</ele>
        <time>2010-05-14T10:48:05Z</time>
      </trkpt>
      <trkpt lat="48.66243" lon="1.72567">
        <ele>168</ele>
        <time>2010-05-14T10:48:08Z</time>
      </trkpt>
      <trkpt lat="48.66244" lon="1.72569">
        <ele>168</ele>
        <time>2010-05-14T10:48:09Z</time>
      </trkpt>
      <trkpt lat="48.66244" lon="1.72572">
        <ele>168</ele>
        <time>2010-05-14T10:48:10Z</time>
      </trkpt>
      <trkpt lat="48.66245" lon="1.72574">
        <ele>168</ele>
        <time>2010-05-14T10:48:12Z</time>
      </trkpt>
      <trkpt lat="48.66247" lon="1.72576">
        <ele>168</ele>
        <time>2010-05-14T10:48:14Z</time>
      </trkpt>
      <trkpt lat="48.66249" lon="1.72579">
        <ele>168</ele>
        <time>2010-05-14T10:48:15Z</time>
      </trkpt>
      <trkpt lat="48.66251" lon="1.72579">
        <ele>168</ele>
        <time>2010-05-14T10:48:16Z</time>
      </trkpt>
      <trkpt lat="48.66253" lon="1.72582">
        <ele>168</ele>
        <time>2010-05-14T10:48:17Z</time>
      </trkpt>
      <trkpt lat="48.66253" lon="1.72584">
        <ele>168</ele>
        <time>2010-05-14T10:48:18Z</time>
      </trkpt>
      <trkpt lat="48.66254" lon="1.72586">
        <ele>168</ele>
        <time>2010-05-14T10:48:19Z</time>
      </trkpt>
      <trkpt lat="48.66256" lon="1.72587">
        <ele>168</ele>
        <time>2010-05-14T10:48:20Z</time>
      </trkpt>
      <trkpt lat="48.66258" lon="1.72588">
        <ele>168</ele>
        <time>2010-05-14T10:48:21Z</time>
      </trkpt>
      <trkpt lat="48.66258" lon="1.72591">
        <ele>168</ele>
        <time>2010-05-14T10:48:23Z</time>
      </trkpt>
      <trkpt lat="48.66259" lon="1.72593">
        <ele>168</ele>
        <time>2010-05-14T10:48:24Z</time>
      </trkpt>
      <trkpt lat="48.6626" lon="1.72596">
        <ele>168</ele>
        <time>2010-05-14T10:48:26Z</time>
      </trkpt>
      <trkpt lat="48.66261" lon="1.72598">
        <ele>168</ele>
        <time>2010-05-14T10:48:27Z</time>
      </trkpt>
      <trkpt lat="48.66263" lon="1.72599">
        <ele>168</ele>
        <time>2010-05-14T10:48:29Z</time>
      </trkpt>
      <trkpt lat="48.66264" lon="1.72601">
        <ele>168</ele>
        <time>2010-05-14T10:48:30Z</time>
      </trkpt>
      <trkpt lat="48.66264" lon="1.72604">
        <ele>168</ele>
        <time>2010-05-14T10:48:31Z</time>
      </trkpt>
      <trkpt lat="48.66266" lon="1.72606">
        <ele>168</ele>
        <time>2010-05-14T10:48:32Z</time>
      </trkpt>
      <trkpt lat="48.66266" lon="1.72609">
        <ele>168</ele>
        <time>2010-05-14T10:48:33Z</time>
      </trkpt>
      <trkpt lat="48.66268" lon="1.72611">
        <ele>168</ele>
        <time>2010-05-14T10:48:35Z</time>
      </trkpt>
      <trkpt lat="48.66267" lon="1.72614">
        <ele>167</ele>
        <time>2010-05-14T10:48:36Z</time>
      </trkpt>
      <trkpt lat="48.66268" lon="1.72617">
        <ele>167</ele>
        <time>2010-05-14T10:48:39Z</time>
      </trkpt>
      <trkpt lat="48.66269" lon="1.7262">
        <ele>167</ele>
        <time>2010-05-14T10:48:40Z</time>
      </trkpt>
      <trkpt lat="48.66269" lon="1.72622">
        <ele>167</ele>
        <time>2010-05-14T10:48:41Z</time>
      </trkpt>
      <trkpt lat="48.66272" lon="1.72625">
        <ele>167</ele>
        <time>2010-05-14T10:48:44Z</time>
      </trkpt>
      <trkpt lat="48.66273" lon="1.72628">
        <ele>167</ele>
        <time>2010-05-14T10:48:45Z</time>
      </trkpt>
      <trkpt lat="48.66272" lon="1.7263">
        <ele>167</ele>
        <time>2010-05-14T10:48:46Z</time>
      </trkpt>
      <trkpt lat="48.66273" lon="1.72632">
        <ele>167</ele>
        <time>2010-05-14T10:48:47Z</time>
      </trkpt>
      <trkpt lat="48.66273" lon="1.72635">
        <ele>167</ele>
        <time>2010-05-14T10:48:48Z</time>
      </trkpt>
      <trkpt lat="48.66274" lon="1.72637">
        <ele>167</ele>
        <time>2010-05-14T10:48:49Z</time>
      </trkpt>
      <trkpt lat="48.66278" lon="1.72638">
        <ele>167</ele>
        <time>2010-05-14T10:48:50Z</time>
      </trkpt>
      <trkpt lat="48.66279" lon="1.72639">
        <ele>167</ele>
        <time>2010-05-14T10:48:51Z</time>
      </trkpt>
      <trkpt lat="48.6628" lon="1.72641">
        <ele>167</ele>
        <time>2010-05-14T10:48:53Z</time>
      </trkpt>
      <trkpt lat="48.6628" lon="1.72645">
        <ele>167</ele>
        <time>2010-05-14T10:48:55Z</time>
      </trkpt>
      <trkpt lat="48.66281" lon="1.72648">
        <ele>167</ele>
        <time>2010-05-14T10:48:56Z</time>
      </trkpt>
      <trkpt lat="48.66282" lon="1.72651">
        <ele>167</ele>
        <time>2010-05-14T10:48:57Z</time>
      </trkpt>
      <trkpt lat="48.66281" lon="1.72654">
        <ele>167</ele>
        <time>2010-05-14T10:48:58Z</time>
      </trkpt>
      <trkpt lat="48.66281" lon="1.72658">
        <ele>167</ele>
        <time>2010-05-14T10:48:59Z</time>
      </trkpt>
      <trkpt lat="48.66281" lon="1.72661">
        <ele>168</ele>
        <time>2010-05-14T10:49:00Z</time>
      </trkpt>
      <trkpt lat="48.66282" lon="1.72664">
        <ele>169</ele>
        <time>2010-05-14T10:49:01Z</time>
      </trkpt>
      <trkpt lat="48.66282" lon="1.72665">
        <ele>170</ele>
        <time>2010-05-14T10:49:02Z</time>
      </trkpt>
      <trkpt lat="48.66284" lon="1.72667">
        <ele>173</ele>
        <time>2010-05-14T10:49:05Z</time>
      </trkpt>
      <trkpt lat="48.66287" lon="1.72673">
        <ele>174</ele>
        <time>2010-05-14T10:49:08Z</time>
      </trkpt>
      <trkpt lat="48.66288" lon="1.72676">
        <ele>175</ele>
        <time>2010-05-14T10:49:09Z</time>
      </trkpt>
      <trkpt lat="48.66289" lon="1.72678">
        <ele>175</ele>
        <time>2010-05-14T10:49:12Z</time>
      </trkpt>
      <trkpt lat="48.66291" lon="1.7268">
        <ele>175</ele>
        <time>2010-05-14T10:49:14Z</time>
      </trkpt>
      <trkpt lat="48.66292" lon="1.72682">
        <ele>175</ele>
        <time>2010-05-14T10:49:15Z</time>
      </trkpt>
      <trkpt lat="48.66293" lon="1.72684">
        <ele>175</ele>
        <time>2010-05-14T10:49:16Z</time>
      </trkpt>
      <trkpt lat="48.66294" lon="1.72686">
        <ele>174</ele>
        <time>2010-05-14T10:49:18Z</time>
      </trkpt>
      <trkpt lat="48.66296" lon="1.72687">
        <ele>174</ele>
        <time>2010-05-14T10:49:19Z</time>
      </trkpt>
      <trkpt lat="48.66296" lon="1.7269">
        <ele>174</ele>
        <time>2010-05-14T10:49:21Z</time>
      </trkpt>
      <trkpt lat="48.66297" lon="1.72692">
        <ele>173</ele>
        <time>2010-05-14T10:49:22Z</time>
      </trkpt>
      <trkpt lat="48.66297" lon="1.72694">
        <ele>173</ele>
        <time>2010-05-14T10:49:23Z</time>
      </trkpt>
      <trkpt lat="48.66298" lon="1.72695">
        <ele>173</ele>
        <time>2010-05-14T10:49:24Z</time>
      </trkpt>
      <trkpt lat="48.663" lon="1.72697">
        <ele>172</ele>
        <time>2010-05-14T10:49:26Z</time>
      </trkpt>
      <trkpt lat="48.66299" lon="1.727">
        <ele>172</ele>
        <time>2010-05-14T10:49:27Z</time>
      </trkpt>
      <trkpt lat="48.66301" lon="1.72702">
        <ele>171</ele>
        <time>2010-05-14T10:49:28Z</time>
      </trkpt>
      <trkpt lat="48.66302" lon="1.72703">
        <ele>170</ele>
        <time>2010-05-14T10:49:29Z</time>
      </trkpt>
      <trkpt lat="48.66303" lon="1.72706">
        <ele>169</ele>
        <time>2010-05-14T10:49:30Z</time>
      </trkpt>
      <trkpt lat="48.66303" lon="1.72708">
        <ele>168</ele>
        <time>2010-05-14T10:49:31Z</time>
      </trkpt>
      <trkpt lat="48.66302" lon="1.72711">
        <ele>168</ele>
        <time>2010-05-14T10:49:33Z</time>
      </trkpt>
      <trkpt lat="48.66303" lon="1.72714">
        <ele>168</ele>
        <time>2010-05-14T10:49:36Z</time>
      </trkpt>
      <trkpt lat="48.66303" lon="1.72717">
        <ele>168</ele>
        <time>2010-05-14T10:49:37Z</time>
      </trkpt>
      <trkpt lat="48.66305" lon="1.72722">
        <ele>168</ele>
        <time>2010-05-14T10:49:38Z</time>
      </trkpt>
      <trkpt lat="48.66304" lon="1.72725">
        <ele>168</ele>
        <time>2010-05-14T10:49:39Z</time>
      </trkpt>
      <trkpt lat="48.66304" lon="1.7273">
        <ele>168</ele>
        <time>2010-05-14T10:49:40Z</time>
      </trkpt>
      <trkpt lat="48.66306" lon="1.72731">
        <ele>169</ele>
        <time>2010-05-14T10:49:41Z</time>
      </trkpt>
      <trkpt lat="48.66306" lon="1.72734">
        <ele>170</ele>
        <time>2010-05-14T10:49:42Z</time>
      </trkpt>
      <trkpt lat="48.66306" lon="1.72737">
        <ele>170</ele>
        <time>2010-05-14T10:49:43Z</time>
      </trkpt>
      <trkpt lat="48.66308" lon="1.72738">
        <ele>171</ele>
        <time>2010-05-14T10:49:44Z</time>
      </trkpt>
      <trkpt lat="48.66309" lon="1.7274">
        <ele>171</ele>
        <time>2010-05-14T10:49:45Z</time>
      </trkpt>
      <trkpt lat="48.66309" lon="1.72744">
        <ele>171</ele>
        <time>2010-05-14T10:49:48Z</time>
      </trkpt>
      <trkpt lat="48.66311" lon="1.72746">
        <ele>171</ele>
        <time>2010-05-14T10:49:49Z</time>
      </trkpt>
      <trkpt lat="48.66314" lon="1.72748">
        <ele>171</ele>
        <time>2010-05-14T10:49:51Z</time>
      </trkpt>
      <trkpt lat="48.66317" lon="1.72748">
        <ele>171</ele>
        <time>2010-05-14T10:49:52Z</time>
      </trkpt>
      <trkpt lat="48.66319" lon="1.72752">
        <ele>171</ele>
        <time>2010-05-14T10:49:55Z</time>
      </trkpt>
      <trkpt lat="48.66317" lon="1.72757">
        <ele>170</ele>
        <time>2010-05-14T10:49:56Z</time>
      </trkpt>
      <trkpt lat="48.66317" lon="1.72761">
        <ele>169</ele>
        <time>2010-05-14T10:49:57Z</time>
      </trkpt>
      <trkpt lat="48.66317" lon="1.72763">
        <ele>169</ele>
        <time>2010-05-14T10:49:58Z</time>
      </trkpt>
      <trkpt lat="48.66319" lon="1.72766">
        <ele>168</ele>
        <time>2010-05-14T10:50:01Z</time>
      </trkpt>
      <trkpt lat="48.66321" lon="1.72769">
        <ele>168</ele>
        <time>2010-05-14T10:50:02Z</time>
      </trkpt>
      <trkpt lat="48.66323" lon="1.72769">
        <ele>168</ele>
        <time>2010-05-14T10:50:03Z</time>
      </trkpt>
      <trkpt lat="48.66321" lon="1.72773">
        <ele>168</ele>
        <time>2010-05-14T10:50:04Z</time>
      </trkpt>
      <trkpt lat="48.66322" lon="1.72775">
        <ele>168</ele>
        <time>2010-05-14T10:50:05Z</time>
      </trkpt>
      <trkpt lat="48.66322" lon="1.72778">
        <ele>168</ele>
        <time>2010-05-14T10:50:06Z</time>
      </trkpt>
      <trkpt lat="48.66322" lon="1.72781">
        <ele>168</ele>
        <time>2010-05-14T10:50:07Z</time>
      </trkpt>
      <trkpt lat="48.66322" lon="1.72784">
        <ele>168</ele>
        <time>2010-05-14T10:50:08Z</time>
      </trkpt>
      <trkpt lat="48.66322" lon="1.72787">
        <ele>168</ele>
        <time>2010-05-14T10:50:09Z</time>
      </trkpt>
      <trkpt lat="48.66321" lon="1.72789">
        <ele>168</ele>
        <time>2010-05-14T10:50:10Z</time>
      </trkpt>
      <trkpt lat="48.66324" lon="1.72791">
        <ele>168</ele>
        <time>2010-05-14T10:50:12Z</time>
      </trkpt>
      <trkpt lat="48.66325" lon="1.72793">
        <ele>168</ele>
        <time>2010-05-14T10:50:13Z</time>
      </trkpt>
      <trkpt lat="48.66326" lon="1.72795">
        <ele>167</ele>
        <time>2010-05-14T10:50:14Z</time>
      </trkpt>
      <trkpt lat="48.66328" lon="1.72797">
        <ele>166</ele>
        <time>2010-05-14T10:50:15Z</time>
      </trkpt>
      <trkpt lat="48.66328" lon="1.72801">
        <ele>166</ele>
        <time>2010-05-14T10:50:16Z</time>
      </trkpt>
      <trkpt lat="48.66329" lon="1.72804">
        <ele>166</ele>
        <time>2010-05-14T10:50:17Z</time>
      </trkpt>
      <trkpt lat="48.6633" lon="1.72806">
        <ele>166</ele>
        <time>2010-05-14T10:50:18Z</time>
      </trkpt>
      <trkpt lat="48.66332" lon="1.72809">
        <ele>166</ele>
        <time>2010-05-14T10:50:21Z</time>
      </trkpt>
      <trkpt lat="48.66333" lon="1.72811">
        <ele>166</ele>
        <time>2010-05-14T10:50:22Z</time>
      </trkpt>
      <trkpt lat="48.66333" lon="1.72813">
        <ele>166</ele>
        <time>2010-05-14T10:50:23Z</time>
      </trkpt>
      <trkpt lat="48.66334" lon="1.72815">
        <ele>166</ele>
        <time>2010-05-14T10:50:24Z</time>
      </trkpt>
      <trkpt lat="48.66337" lon="1.72815">
        <ele>166</ele>
        <time>2010-05-14T10:50:25Z</time>
      </trkpt>
      <trkpt lat="48.66337" lon="1.72817">
        <ele>166</ele>
        <time>2010-05-14T10:50:26Z</time>
      </trkpt>
      <trkpt lat="48.66339" lon="1.72815">
        <ele>166</ele>
        <time>2010-05-14T10:50:27Z</time>
      </trkpt>
      <trkpt lat="48.66341" lon="1.72814">
        <ele>166</ele>
        <time>2010-05-14T10:50:28Z</time>
      </trkpt>
      <trkpt lat="48.66342" lon="1.72815">
        <ele>165</ele>
        <time>2010-05-14T10:50:29Z</time>
      </trkpt>
      <trkpt lat="48.66346" lon="1.72814">
        <ele>163</ele>
        <time>2010-05-14T10:50:31Z</time>
      </trkpt>
      <trkpt lat="48.66347" lon="1.72815">
        <ele>162</ele>
        <time>2010-05-14T10:50:32Z</time>
      </trkpt>
      <trkpt lat="48.66347" lon="1.7282">
        <ele>160</ele>
        <time>2010-05-14T10:50:34Z</time>
      </trkpt>
      <trkpt lat="48.66348" lon="1.72822">
        <ele>159</ele>
        <time>2010-05-14T10:50:35Z</time>
      </trkpt>
      <trkpt lat="48.66349" lon="1.72823">
        <ele>159</ele>
        <time>2010-05-14T10:50:36Z</time>
      </trkpt>
      <trkpt lat="48.66347" lon="1.72826">
        <ele>158</ele>
        <time>2010-05-14T10:50:37Z</time>
      </trkpt>
      <trkpt lat="48.66347" lon="1.72828">
        <ele>158</ele>
        <time>2010-05-14T10:50:38Z</time>
      </trkpt>
      <trkpt lat="48.66347" lon="1.72833">
        <ele>158</ele>
        <time>2010-05-14T10:50:40Z</time>
      </trkpt>
      <trkpt lat="48.66346" lon="1.72836">
        <ele>158</ele>
        <time>2010-05-14T10:50:41Z</time>
      </trkpt>
      <trkpt lat="48.66346" lon="1.72839">
        <ele>158</ele>
        <time>2010-05-14T10:50:42Z</time>
      </trkpt>
      <trkpt lat="48.66347" lon="1.7284">
        <ele>158</ele>
        <time>2010-05-14T10:50:44Z</time>
      </trkpt>
      <trkpt lat="48.66348" lon="1.72842">
        <ele>158</ele>
        <time>2010-05-14T10:50:45Z</time>
      </trkpt>
      <trkpt lat="48.66349" lon="1.72844">
        <ele>158</ele>
        <time>2010-05-14T10:50:47Z</time>
      </trkpt>
      <trkpt lat="48.66349" lon="1.72847">
        <ele>158</ele>
        <time>2010-05-14T10:50:48Z</time>
      </trkpt>
      <trkpt lat="48.66348" lon="1.72849">
        <ele>158</ele>
        <time>2010-05-14T10:50:49Z</time>
      </trkpt>
      <trkpt lat="48.66349" lon="1.72847">
        <ele>158</ele>
        <time>2010-05-14T10:50:54Z</time>
      </trkpt>
      <trkpt lat="48.6635" lon="1.72845">
        <ele>158</ele>
        <time>2010-05-14T10:50:55Z</time>
      </trkpt>
      <trkpt lat="48.66351" lon="1.72845">
        <ele>159</ele>
        <time>2010-05-14T10:50:57Z</time>
      </trkpt>
      <trkpt lat="48.66351" lon="1.72843">
        <ele>159</ele>
        <time>2010-05-14T10:50:59Z</time>
      </trkpt>
      <trkpt lat="48.6635" lon="1.72841">
        <ele>159</ele>
        <time>2010-05-14T10:51:01Z</time>
      </trkpt>
      <trkpt lat="48.66352" lon="1.72839">
        <ele>159</ele>
        <time>2010-05-14T10:51:02Z</time>
      </trkpt>
      <trkpt lat="48.66354" lon="1.7284">
        <ele>159</ele>
        <time>2010-05-14T10:51:03Z</time>
      </trkpt>
      <trkpt lat="48.66355" lon="1.72841">
        <ele>159</ele>
        <time>2010-05-14T10:51:06Z</time>
      </trkpt>
      <trkpt lat="48.66353" lon="1.7284">
        <ele>159</ele>
        <time>2010-05-14T10:51:07Z</time>
      </trkpt>
      <trkpt lat="48.66352" lon="1.72839">
        <ele>159</ele>
        <time>2010-05-14T10:51:08Z</time>
      </trkpt>
      <trkpt lat="48.6635" lon="1.72841">
        <ele>158</ele>
        <time>2010-05-14T10:51:09Z</time>
      </trkpt>
      <trkpt lat="48.66351" lon="1.72841">
        <ele>158</ele>
        <time>2010-05-14T10:51:11Z</time>
      </trkpt>
      <trkpt lat="48.66353" lon="1.7284">
        <ele>158</ele>
        <time>2010-05-14T10:51:12Z</time>
      </trkpt>
      <trkpt lat="48.66355" lon="1.72841">
        <ele>155</ele>
        <time>2010-05-14T10:51:15Z</time>
      </trkpt>
      <trkpt lat="48.66356" lon="1.72842">
        <ele>153</ele>
        <time>2010-05-14T10:51:17Z</time>
      </trkpt>
      <trkpt lat="48.66356" lon="1.72845">
        <ele>152</ele>
        <time>2010-05-14T10:51:19Z</time>
      </trkpt>
      <trkpt lat="48.66357" lon="1.72845">
        <ele>152</ele>
        <time>2010-05-14T10:51:20Z</time>
      </trkpt>
      <trkpt lat="48.6636" lon="1.72847">
        <ele>151</ele>
        <time>2010-05-14T10:51:22Z</time>
      </trkpt>
      <trkpt lat="48.6636" lon="1.72848">
        <ele>151</ele>
        <time>2010-05-14T10:51:25Z</time>
      </trkpt>
      <trkpt lat="48.66363" lon="1.72849">
        <ele>151</ele>
        <time>2010-05-14T10:51:26Z</time>
      </trkpt>
      <trkpt lat="48.66365" lon="1.72846">
        <ele>150</ele>
        <time>2010-05-14T10:51:27Z</time>
      </trkpt>
      <trkpt lat="48.66372" lon="1.72828">
        <ele>149</ele>
        <time>2010-05-14T10:51:32Z</time>
      </trkpt>
      <trkpt lat="48.66372" lon="1.72827">
        <ele>148</ele>
        <time>2010-05-14T10:51:35Z</time>
      </trkpt>
      <trkpt lat="48.6637" lon="1.72829">
        <ele>148</ele>
        <time>2010-05-14T10:51:36Z</time>
      </trkpt>
      <trkpt lat="48.66369" lon="1.72827">
        <ele>147</ele>
        <time>2010-05-14T10:51:37Z</time>
      </trkpt>
      <trkpt lat="48.6637" lon="1.72827">
        <ele>146</ele>
        <time>2010-05-14T10:51:39Z</time>
      </trkpt>
      <trkpt lat="48.66369" lon="1.72829">
        <ele>146</ele>
        <time>2010-05-14T10:51:41Z</time>
      </trkpt>
      <trkpt lat="48.66366" lon="1.72829">
        <ele>145</ele>
        <time>2010-05-14T10:51:43Z</time>
      </trkpt>
      <trkpt lat="48.66364" lon="1.72827">
        <ele>145</ele>
        <time>2010-05-14T10:51:44Z</time>
      </trkpt>
      <trkpt lat="48.66364" lon="1.72825">
        <ele>145</ele>
        <time>2010-05-14T10:51:45Z</time>
      </trkpt>
      <trkpt lat="48.66365" lon="1.72823">
        <ele>143</ele>
        <time>2010-05-14T10:51:50Z</time>
      </trkpt>
      <trkpt lat="48.66366" lon="1.72822">
        <ele>142</ele>
        <time>2010-05-14T10:51:52Z</time>
      </trkpt>
      <trkpt lat="48.66367" lon="1.72822">
        <ele>142</ele>
        <time>2010-05-14T10:51:53Z</time>
      </trkpt>
      <trkpt lat="48.6637" lon="1.72822">
        <ele>142</ele>
        <time>2010-05-14T10:51:54Z</time>
      </trkpt>
      <trkpt lat="48.66371" lon="1.72821">
        <ele>142</ele>
        <time>2010-05-14T10:51:55Z</time>
      </trkpt>
      <trkpt lat="48.66368" lon="1.72823">
        <ele>142</ele>
        <time>2010-05-14T10:51:57Z</time>
      </trkpt>
      <trkpt lat="48.66367" lon="1.72824">
        <ele>142</ele>
        <time>2010-05-14T10:51:58Z</time>
      </trkpt>
      <trkpt lat="48.66366" lon="1.72825">
        <ele>144</ele>
        <time>2010-05-14T10:52:05Z</time>
      </trkpt>
      <trkpt lat="48.66364" lon="1.72824">
        <ele>144</ele>
        <time>2010-05-14T10:52:07Z</time>
      </trkpt>
      <trkpt lat="48.66362" lon="1.72823">
        <ele>145</ele>
        <time>2010-05-14T10:52:11Z</time>
      </trkpt>
      <trkpt lat="48.66363" lon="1.72825">
        <ele>145</ele>
        <time>2010-05-14T10:52:18Z</time>
      </trkpt>
      <trkpt lat="48.66366" lon="1.72828">
        <ele>145</ele>
        <time>2010-05-14T10:52:22Z</time>
      </trkpt>
      <trkpt lat="48.66367" lon="1.72828">
        <ele>145</ele>
        <time>2010-05-14T10:52:23Z</time>
      </trkpt>
      <trkpt lat="48.66369" lon="1.72825">
        <ele>145</ele>
        <time>2010-05-14T10:52:24Z</time>
      </trkpt>
      <trkpt lat="48.6637" lon="1.72823">
        <ele>145</ele>
        <time>2010-05-14T10:52:25Z</time>
      </trkpt>
      <trkpt lat="48.66368" lon="1.72821">
        <ele>145</ele>
        <time>2010-05-14T10:52:26Z</time>
      </trkpt>
      <trkpt lat="48.66366" lon="1.72819">
        <ele>145</ele>
        <time>2010-05-14T10:52:27Z</time>
      </trkpt>
      <trkpt lat="48.66365" lon="1.7282">
        <ele>145</ele>
        <time>2010-05-14T10:52:28Z</time>
      </trkpt>
      <trkpt lat="48.66364" lon="1.72823">
        <ele>145</ele>
        <time>2010-05-14T10:52:30Z</time>
      </trkpt>
      <trkpt lat="48.66362" lon="1.72825">
        <ele>145</ele>
        <time>2010-05-14T10:52:31Z</time>
      </trkpt>
      <trkpt lat="48.66362" lon="1.72823">
        <ele>145</ele>
        <time>2010-05-14T10:52:33Z</time>
      </trkpt>
      <trkpt lat="48.66363" lon="1.72821">
        <ele>145</ele>
        <time>2010-05-14T10:52:34Z</time>
      </trkpt>
      <trkpt lat="48.6636" lon="1.72824">
        <ele>146</ele>
        <time>2010-05-14T10:52:38Z</time>
      </trkpt>
      <trkpt lat="48.66359" lon="1.72826">
        <ele>146</ele>
        <time>2010-05-14T10:52:39Z</time>
      </trkpt>
      <trkpt lat="48.66358" lon="1.72828">
        <ele>146</ele>
        <time>2010-05-14T10:52:40Z</time>
      </trkpt>
      <trkpt lat="48.66357" lon="1.72829">
        <ele>146</ele>
        <time>2010-05-14T10:52:41Z</time>
      </trkpt>
      <trkpt lat="48.66354" lon="1.72829">
        <ele>147</ele>
        <time>2010-05-14T10:52:42Z</time>
      </trkpt>
      <trkpt lat="48.66353" lon="1.72829">
        <ele>148</ele>
        <time>2010-05-14T10:52:43Z</time>
      </trkpt>
      <trkpt lat="48.66355" lon="1.72827">
        <ele>150</ele>
        <time>2010-05-14T10:52:45Z</time>
      </trkpt>
      <trkpt lat="48.66357" lon="1.72825">
        <ele>152</ele>
        <time>2010-05-14T10:52:47Z</time>
      </trkpt>
      <trkpt lat="48.6636" lon="1.72825">
        <ele>153</ele>
        <time>2010-05-14T10:52:48Z</time>
      </trkpt>
      <trkpt lat="48.66363" lon="1.72825">
        <ele>154</ele>
        <time>2010-05-14T10:52:49Z</time>
      </trkpt>
      <trkpt lat="48.66366" lon="1.72825">
        <ele>155</ele>
        <time>2010-05-14T10:52:50Z</time>
      </trkpt>
      <trkpt lat="48.66369" lon="1.72824">
        <ele>156</ele>
        <time>2010-05-14T10:52:51Z</time>
      </trkpt>
      <trkpt lat="48.66373" lon="1.72823">
        <ele>157</ele>
        <time>2010-05-14T10:52:52Z</time>
      </trkpt>
      <trkpt lat="48.66376" lon="1.72823">
        <ele>157</ele>
        <time>2010-05-14T10:52:53Z</time>
      </trkpt>
      <trkpt lat="48.66374" lon="1.72829">
        <ele>157</ele>
        <time>2010-05-14T10:52:56Z</time>
      </trkpt>
      <trkpt lat="48.66373" lon="1.7283">
        <ele>157</ele>
        <time>2010-05-14T10:52:57Z</time>
      </trkpt>
      <trkpt lat="48.66373" lon="1.72833">
        <ele>157</ele>
        <time>2010-05-14T10:53:00Z</time>
      </trkpt>
      <trkpt lat="48.66375" lon="1.72835">
        <ele>157</ele>
        <time>2010-05-14T10:53:01Z</time>
      </trkpt>
      <trkpt lat="48.66374" lon="1.72831">
        <ele>159</ele>
        <time>2010-05-14T10:53:07Z</time>
      </trkpt>
      <trkpt lat="48.66374" lon="1.72826">
        <ele>159</ele>
        <time>2010-05-14T10:53:12Z</time>
      </trkpt>
      <trkpt lat="48.66374" lon="1.72825">
        <ele>158</ele>
        <time>2010-05-14T10:53:13Z</time>
      </trkpt>
      <trkpt lat="48.66373" lon="1.72825">
        <ele>155</ele>
        <time>2010-05-14T10:53:16Z</time>
      </trkpt>
      <trkpt lat="48.66374" lon="1.72824">
        <ele>154</ele>
        <time>2010-05-14T10:53:17Z</time>
      </trkpt>
      <trkpt lat="48.6637" lon="1.72816">
        <ele>151</ele>
        <time>2010-05-14T10:53:22Z</time>
      </trkpt>
      <trkpt lat="48.6637" lon="1.72818">
        <ele>151</ele>
        <time>2010-05-14T10:53:23Z</time>
      </trkpt>
      <trkpt lat="48.66371" lon="1.7282">
        <ele>151</ele>
        <time>2010-05-14T10:53:24Z</time>
      </trkpt>
      <trkpt lat="48.66372" lon="1.7282">
        <ele>150</ele>
        <time>2010-05-14T10:53:25Z</time>
      </trkpt>
      <trkpt lat="48.6637" lon="1.7282">
        <ele>149</ele>
        <time>2010-05-14T10:53:26Z</time>
      </trkpt>
      <trkpt lat="48.66369" lon="1.72822">
        <ele>148</ele>
        <time>2010-05-14T10:53:27Z</time>
      </trkpt>
      <trkpt lat="48.66369" lon="1.72824">
        <ele>146</ele>
        <time>2010-05-14T10:53:29Z</time>
      </trkpt>
      <trkpt lat="48.66369" lon="1.72826">
        <ele>144</ele>
        <time>2010-05-14T10:53:31Z</time>
      </trkpt>
      <trkpt lat="48.6637" lon="1.72825">
        <ele>143</ele>
        <time>2010-05-14T10:53:32Z</time>
      </trkpt>
      <trkpt lat="48.66366" lon="1.72827">
        <ele>141</ele>
        <time>2010-05-14T10:53:38Z</time>
      </trkpt>
      <trkpt lat="48.66365" lon="1.72828">
        <ele>141</ele>
        <time>2010-05-14T10:53:39Z</time>
      </trkpt>
      <trkpt lat="48.66364" lon="1.7283">
        <ele>141</ele>
        <time>2010-05-14T10:53:40Z</time>
      </trkpt>
      <trkpt lat="48.66366" lon="1.72832">
        <ele>141</ele>
        <time>2010-05-14T10:53:42Z</time>
      </trkpt>
      <trkpt lat="48.66368" lon="1.72834">
        <ele>141</ele>
        <time>2010-05-14T10:53:45Z</time>
      </trkpt>
      <trkpt lat="48.66369" lon="1.72837">
        <ele>141</ele>
        <time>2010-05-14T10:53:46Z</time>
      </trkpt>
      <trkpt lat="48.66369" lon="1.7284">
        <ele>141</ele>
        <time>2010-05-14T10:53:47Z</time>
      </trkpt>
      <trkpt lat="48.66366" lon="1.72844">
        <ele>141</ele>
        <time>2010-05-14T10:53:48Z</time>
      </trkpt>
      <trkpt lat="48.66364" lon="1.72843">
        <ele>141</ele>
        <time>2010-05-14T10:53:49Z</time>
      </trkpt>
      <trkpt lat="48.66361" lon="1.72844">
        <ele>141</ele>
        <time>2010-05-14T10:53:50Z</time>
      </trkpt>
      <trkpt lat="48.66356" lon="1.72843">
        <ele>142</ele>
        <time>2010-05-14T10:53:56Z</time>
      </trkpt>
      <trkpt lat="48.66349" lon="1.72844">
        <ele>142</ele>
        <time>2010-05-14T10:54:00Z</time>
      </trkpt>
      <trkpt lat="48.66349" lon="1.72838">
        <ele>142</ele>
        <time>2010-05-14T10:54:01Z</time>
      </trkpt>
      <trkpt lat="48.66352" lon="1.72833">
        <ele>142</ele>
        <time>2010-05-14T10:54:02Z</time>
      </trkpt>
      <trkpt lat="48.66352" lon="1.72831">
        <ele>142</ele>
        <time>2010-05-14T10:54:03Z</time>
      </trkpt>
      <trkpt lat="48.6635" lon="1.72833">
        <ele>142</ele>
        <time>2010-05-14T10:54:04Z</time>
      </trkpt>
      <trkpt lat="48.66347" lon="1.72835">
        <ele>142</ele>
        <time>2010-05-14T10:54:09Z</time>
      </trkpt>
      <trkpt lat="48.66344" lon="1.72838">
        <ele>142</ele>
        <time>2010-05-14T10:54:10Z</time>
      </trkpt>
      <trkpt lat="48.66343" lon="1.72841">
        <ele>142</ele>
        <time>2010-05-14T10:54:11Z</time>
      </trkpt>
      <trkpt lat="48.66341" lon="1.72844">
        <ele>142</ele>
        <time>2010-05-14T10:54:12Z</time>
      </trkpt>
      <trkpt lat="48.66338" lon="1.72848">
        <ele>142</ele>
        <time>2010-05-14T10:54:13Z</time>
      </trkpt>
      <trkpt lat="48.66336" lon="1.7285">
        <ele>142</ele>
        <time>2010-05-14T10:54:14Z</time>
      </trkpt>
      <trkpt lat="48.66334" lon="1.7285">
        <ele>142</ele>
        <time>2010-05-14T10:54:15Z</time>
      </trkpt>
      <trkpt lat="48.66332" lon="1.7285">
        <ele>142</ele>
        <time>2010-05-14T10:54:16Z</time>
      </trkpt>
      <trkpt lat="48.6633" lon="1.72849">
        <ele>142</ele>
        <time>2010-05-14T10:54:17Z</time>
      </trkpt>
      <trkpt lat="48.66329" lon="1.72848">
        <ele>142</ele>
        <time>2010-05-14T10:54:18Z</time>
      </trkpt>
      <trkpt lat="48.66327" lon="1.72849">
        <ele>142</ele>
        <time>2010-05-14T10:54:19Z</time>
      </trkpt>
      <trkpt lat="48.66325" lon="1.7285">
        <ele>142</ele>
        <time>2010-05-14T10:54:20Z</time>
      </trkpt>
      <trkpt lat="48.66324" lon="1.72851">
        <ele>142</ele>
        <time>2010-05-14T10:54:21Z</time>
      </trkpt>
      <trkpt lat="48.66322" lon="1.72853">
        <ele>142</ele>
        <time>2010-05-14T10:54:22Z</time>
      </trkpt>
      <trkpt lat="48.66321" lon="1.72855">
        <ele>142</ele>
        <time>2010-05-14T10:54:23Z</time>
      </trkpt>
      <trkpt lat="48.6632" lon="1.72856">
        <ele>142</ele>
        <time>2010-05-14T10:54:24Z</time>
      </trkpt>
      <trkpt lat="48.66318" lon="1.7286">
        <ele>142</ele>
        <time>2010-05-14T10:54:25Z</time>
      </trkpt>
      <trkpt lat="48.66318" lon="1.72861">
        <ele>142</ele>
        <time>2010-05-14T10:54:26Z</time>
      </trkpt>
      <trkpt lat="48.66317" lon="1.72863">
        <ele>142</ele>
        <time>2010-05-14T10:54:27Z</time>
      </trkpt>
      <trkpt lat="48.66316" lon="1.72865">
        <ele>142</ele>
        <time>2010-05-14T10:54:29Z</time>
      </trkpt>
      <trkpt lat="48.66315" lon="1.72867">
        <ele>142</ele>
        <time>2010-05-14T10:54:30Z</time>
      </trkpt>
      <trkpt lat="48.66313" lon="1.72869">
        <ele>142</ele>
        <time>2010-05-14T10:54:32Z</time>
      </trkpt>
      <trkpt lat="48.66311" lon="1.72872">
        <ele>142</ele>
        <time>2010-05-14T10:54:33Z</time>
      </trkpt>
      <trkpt lat="48.6631" lon="1.72874">
        <ele>142</ele>
        <time>2010-05-14T10:54:34Z</time>
      </trkpt>
      <trkpt lat="48.66309" lon="1.72877">
        <ele>142</ele>
        <time>2010-05-14T10:54:35Z</time>
      </trkpt>
      <trkpt lat="48.66308" lon="1.72879">
        <ele>142</ele>
        <time>2010-05-14T10:54:36Z</time>
      </trkpt>
      <trkpt lat="48.66305" lon="1.72881">
        <ele>142</ele>
        <time>2010-05-14T10:54:38Z</time>
      </trkpt>
      <trkpt lat="48.66304" lon="1.72883">
        <ele>142</ele>
        <time>2010-05-14T10:54:39Z</time>
      </trkpt>
      <trkpt lat="48.66301" lon="1.72885">
        <ele>142</ele>
        <time>2010-05-14T10:54:40Z</time>
      </trkpt>
      <trkpt lat="48.663" lon="1.72889">
        <ele>142</ele>
        <time>2010-05-14T10:54:41Z</time>
      </trkpt>
      <trkpt lat="48.66298" lon="1.72892">
        <ele>142</ele>
        <time>2010-05-14T10:54:44Z</time>
      </trkpt>
      <trkpt lat="48.66299" lon="1.72893">
        <ele>143</ele>
        <time>2010-05-14T10:54:46Z</time>
      </trkpt>
      <trkpt lat="48.663" lon="1.72895">
        <ele>144</ele>
        <time>2010-05-14T10:54:48Z</time>
      </trkpt>
      <trkpt lat="48.66301" lon="1.72893">
        <ele>145</ele>
        <time>2010-05-14T10:54:49Z</time>
      </trkpt>
      <trkpt lat="48.66302" lon="1.72889">
        <ele>145</ele>
        <time>2010-05-14T10:54:52Z</time>
      </trkpt>
      <trkpt lat="48.66303" lon="1.72884">
        <ele>145</ele>
        <time>2010-05-14T10:54:53Z</time>
      </trkpt>
      <trkpt lat="48.66305" lon="1.72878">
        <ele>145</ele>
        <time>2010-05-14T10:54:54Z</time>
      </trkpt>
      <trkpt lat="48.66306" lon="1.72874">
        <ele>145</ele>
        <time>2010-05-14T10:54:55Z</time>
      </trkpt>
      <trkpt lat="48.66308" lon="1.72872">
        <ele>145</ele>
        <time>2010-05-14T10:54:56Z</time>
      </trkpt>
      <trkpt lat="48.66311" lon="1.7287">
        <ele>145</ele>
        <time>2010-05-14T10:54:57Z</time>
      </trkpt>
      <trkpt lat="48.66313" lon="1.72869">
        <ele>144</ele>
        <time>2010-05-14T10:54:59Z</time>
      </trkpt>
      <trkpt lat="48.66315" lon="1.72867">
        <ele>143</ele>
        <time>2010-05-14T10:55:00Z</time>
      </trkpt>
      <trkpt lat="48.66317" lon="1.72867">
        <ele>142</ele>
        <time>2010-05-14T10:55:01Z</time>
      </trkpt>
      <trkpt lat="48.6632" lon="1.72865">
        <ele>141</ele>
        <time>2010-05-14T10:55:02Z</time>
      </trkpt>
      <trkpt lat="48.66322" lon="1.72863">
        <ele>141</ele>
        <time>2010-05-14T10:55:04Z</time>
      </trkpt>
      <trkpt lat="48.66325" lon="1.72861">
        <ele>141</ele>
        <time>2010-05-14T10:55:05Z</time>
      </trkpt>
      <trkpt lat="48.66328" lon="1.72858">
        <ele>141</ele>
        <time>2010-05-14T10:55:06Z</time>
      </trkpt>
      <trkpt lat="48.66329" lon="1.72857">
        <ele>141</ele>
        <time>2010-05-14T10:55:07Z</time>
      </trkpt>
      <trkpt lat="48.6633" lon="1.72856">
        <ele>141</ele>
        <time>2010-05-14T10:55:08Z</time>
      </trkpt>
      <trkpt lat="48.66331" lon="1.72853">
        <ele>141</ele>
        <time>2010-05-14T10:55:09Z</time>
      </trkpt>
      <trkpt lat="48.66334" lon="1.72849">
        <ele>141</ele>
        <time>2010-05-14T10:55:12Z</time>
      </trkpt>
      <trkpt lat="48.66335" lon="1.72844">
        <ele>140</ele>
        <time>2010-05-14T10:55:13Z</time>
      </trkpt>
      <trkpt lat="48.66338" lon="1.72842">
        <ele>139</ele>
        <time>2010-05-14T10:55:14Z</time>
      </trkpt>
      <trkpt lat="48.6634" lon="1.72842">
        <ele>138</ele>
        <time>2010-05-14T10:55:15Z</time>
      </trkpt>
      <trkpt lat="48.66342" lon="1.72844">
        <ele>138</ele>
        <time>2010-05-14T10:55:16Z</time>
      </trkpt>
      <trkpt lat="48.66342" lon="1.72848">
        <ele>138</ele>
        <time>2010-05-14T10:55:18Z</time>
      </trkpt>
      <trkpt lat="48.66343" lon="1.72847">
        <ele>139</ele>
        <time>2010-05-14T10:55:20Z</time>
      </trkpt>
      <trkpt lat="48.66344" lon="1.72844">
        <ele>142</ele>
        <time>2010-05-14T10:55:23Z</time>
      </trkpt>
      <trkpt lat="48.66343" lon="1.72843">
        <ele>143</ele>
        <time>2010-05-14T10:55:24Z</time>
      </trkpt>
      <trkpt lat="48.66343" lon="1.72841">
        <ele>143</ele>
        <time>2010-05-14T10:55:25Z</time>
      </trkpt>
      <trkpt lat="48.66345" lon="1.72841">
        <ele>146</ele>
        <time>2010-05-14T10:55:30Z</time>
      </trkpt>
      <trkpt lat="48.66346" lon="1.72842">
        <ele>149</ele>
        <time>2010-05-14T10:55:33Z</time>
      </trkpt>
      <trkpt lat="48.66347" lon="1.7284">
        <ele>151</ele>
        <time>2010-05-14T10:55:35Z</time>
      </trkpt>
      <trkpt lat="48.66349" lon="1.72842">
        <ele>156</ele>
        <time>2010-05-14T10:55:40Z</time>
      </trkpt>
      <trkpt lat="48.66348" lon="1.72841">
        <ele>158</ele>
        <time>2010-05-14T10:55:43Z</time>
      </trkpt>
      <trkpt lat="48.66346" lon="1.7284">
        <ele>158</ele>
        <time>2010-05-14T10:55:46Z</time>
      </trkpt>
      <trkpt lat="48.66345" lon="1.72843">
        <ele>159</ele>
        <time>2010-05-14T10:55:48Z</time>
      </trkpt>
      <trkpt lat="48.66346" lon="1.72845">
        <ele>161</ele>
        <time>2010-05-14T10:55:50Z</time>
      </trkpt>
      <trkpt lat="48.66345" lon="1.72848">
        <ele>162</ele>
        <time>2010-05-14T10:55:51Z</time>
      </trkpt>
      <trkpt lat="48.66344" lon="1.72851">
        <ele>163</ele>
        <time>2010-05-14T10:55:54Z</time>
      </trkpt>
      <trkpt lat="48.66345" lon="1.72854">
        <ele>164</ele>
        <time>2010-05-14T10:55:57Z</time>
      </trkpt>
      <trkpt lat="48.66342" lon="1.72853">
        <ele>164</ele>
        <time>2010-05-14T10:56:01Z</time>
      </trkpt>
      <trkpt lat="48.66341" lon="1.72852">
        <ele>164</ele>
        <time>2010-05-14T10:56:02Z</time>
      </trkpt>
      <trkpt lat="48.66339" lon="1.72855">
        <ele>164</ele>
        <time>2010-05-14T10:56:03Z</time>
      </trkpt>
      <trkpt lat="48.66342" lon="1.72855">
        <ele>164</ele>
        <time>2010-05-14T10:56:05Z</time>
      </trkpt>
      <trkpt lat="48.66344" lon="1.72855">
        <ele>164</ele>
        <time>2010-05-14T10:56:06Z</time>
      </trkpt>
      <trkpt lat="48.66348" lon="1.72854">
        <ele>163</ele>
        <time>2010-05-14T10:56:07Z</time>
      </trkpt>
      <trkpt lat="48.6635" lon="1.72855">
        <ele>162</ele>
        <time>2010-05-14T10:56:09Z</time>
      </trkpt>
      <trkpt lat="48.66353" lon="1.72856">
        <ele>161</ele>
        <time>2010-05-14T10:56:10Z</time>
      </trkpt>
      <trkpt lat="48.66356" lon="1.72858">
        <ele>160</ele>
        <time>2010-05-14T10:56:11Z</time>
      </trkpt>
      <trkpt lat="48.66359" lon="1.72859">
        <ele>159</ele>
        <time>2010-05-14T10:56:12Z</time>
      </trkpt>
      <trkpt lat="48.66363" lon="1.7286">
        <ele>158</ele>
        <time>2010-05-14T10:56:13Z</time>
      </trkpt>
      <trkpt lat="48.66365" lon="1.72861">
        <ele>157</ele>
        <time>2010-05-14T10:56:14Z</time>
      </trkpt>
      <trkpt lat="48.66367" lon="1.72863">
        <ele>156</ele>
        <time>2010-05-14T10:56:15Z</time>
      </trkpt>
      <trkpt lat="48.66368" lon="1.72867">
        <ele>154</ele>
        <time>2010-05-14T10:56:16Z</time>
      </trkpt>
      <trkpt lat="48.6637" lon="1.72868">
        <ele>152</ele>
        <time>2010-05-14T10:56:17Z</time>
      </trkpt>
      <trkpt lat="48.66371" lon="1.72871">
        <ele>151</ele>
        <time>2010-05-14T10:56:18Z</time>
      </trkpt>
      <trkpt lat="48.66373" lon="1.72872">
        <ele>149</ele>
        <time>2010-05-14T10:56:19Z</time>
      </trkpt>
      <trkpt lat="48.66375" lon="1.72874">
        <ele>147</ele>
        <time>2010-05-14T10:56:20Z</time>
      </trkpt>
      <trkpt lat="48.66377" lon="1.72876">
        <ele>145</ele>
        <time>2010-05-14T10:56:21Z</time>
      </trkpt>
      <trkpt lat="48.66379" lon="1.72879">
        <ele>143</ele>
        <time>2010-05-14T10:56:22Z</time>
      </trkpt>
      <trkpt lat="48.66381" lon="1.72881">
        <ele>141</ele>
        <time>2010-05-14T10:56:23Z</time>
      </trkpt>
      <trkpt lat="48.66384" lon="1.72891">
        <ele>139</ele>
        <time>2010-05-14T10:56:26Z</time>
      </trkpt>
      <trkpt lat="48.66384" lon="1.72901">
        <ele>137</ele>
        <time>2010-05-14T10:56:27Z</time>
      </trkpt>
      <trkpt lat="48.66385" lon="1.72909">
        <ele>135</ele>
        <time>2010-05-14T10:56:28Z</time>
      </trkpt>
      <trkpt lat="48.66385" lon="1.72916">
        <ele>134</ele>
        <time>2010-05-14T10:56:29Z</time>
      </trkpt>
      <trkpt lat="48.66385" lon="1.72919">
        <ele>133</ele>
        <time>2010-05-14T10:56:30Z</time>
      </trkpt>
      <trkpt lat="48.66385" lon="1.72922">
        <ele>133</ele>
        <time>2010-05-14T10:56:31Z</time>
      </trkpt>
      <trkpt lat="48.66385" lon="1.72927">
        <ele>133</ele>
        <time>2010-05-14T10:56:32Z</time>
      </trkpt>
      <trkpt lat="48.66384" lon="1.72931">
        <ele>133</ele>
        <time>2010-05-14T10:56:33Z</time>
      </trkpt>
      <trkpt lat="48.66384" lon="1.72934">
        <ele>133</ele>
        <time>2010-05-14T10:56:34Z</time>
      </trkpt>
      <trkpt lat="48.66384" lon="1.72937">
        <ele>133</ele>
        <time>2010-05-14T10:56:35Z</time>
      </trkpt>
      <trkpt lat="48.66384" lon="1.7294">
        <ele>133</ele>
        <time>2010-05-14T10:56:36Z</time>
      </trkpt>
      <trkpt lat="48.66383" lon="1.72942">
        <ele>133</ele>
        <time>2010-05-14T10:56:37Z</time>
      </trkpt>
      <trkpt lat="48.66383" lon="1.72944">
        <ele>133</ele>
        <time>2010-05-14T10:56:38Z</time>
      </trkpt>
      <trkpt lat="48.66384" lon="1.72947">
        <ele>133</ele>
        <time>2010-05-14T10:56:39Z</time>
      </trkpt>
      <trkpt lat="48.66384" lon="1.72951">
        <ele>133</ele>
        <time>2010-05-14T10:56:41Z</time>
      </trkpt>
      <trkpt lat="48.66384" lon="1.72957">
        <ele>134</ele>
        <time>2010-05-14T10:56:43Z</time>
      </trkpt>
      <trkpt lat="48.66383" lon="1.7296">
        <ele>135</ele>
        <time>2010-05-14T10:56:44Z</time>
      </trkpt>
      <trkpt lat="48.66383" lon="1.72962">
        <ele>136</ele>
        <time>2010-05-14T10:56:45Z</time>
      </trkpt>
      <trkpt lat="48.66385" lon="1.72964">
        <ele>137</ele>
        <time>2010-05-14T10:56:46Z</time>
      </trkpt>
      <trkpt lat="48.66386" lon="1.72966">
        <ele>138</ele>
        <time>2010-05-14T10:56:47Z</time>
      </trkpt>
      <trkpt lat="48.66387" lon="1.72969">
        <ele>138</ele>
        <time>2010-05-14T10:56:48Z</time>
      </trkpt>
      <trkpt lat="48.66388" lon="1.72971">
        <ele>138</ele>
        <time>2010-05-14T10:56:49Z</time>
      </trkpt>
      <trkpt lat="48.66389" lon="1.72973">
        <ele>138</ele>
        <time>2010-05-14T10:56:50Z</time>
      </trkpt>
      <trkpt lat="48.6639" lon="1.72977">
        <ele>138</ele>
        <time>2010-05-14T10:56:52Z</time>
      </trkpt>
      <trkpt lat="48.66392" lon="1.72979">
        <ele>138</ele>
        <time>2010-05-14T10:56:54Z</time>
      </trkpt>
      <trkpt lat="48.66394" lon="1.7298">
        <ele>138</ele>
        <time>2010-05-14T10:56:55Z</time>
      </trkpt>
      <trkpt lat="48.66394" lon="1.72983">
        <ele>138</ele>
        <time>2010-05-14T10:56:56Z</time>
      </trkpt>
      <trkpt lat="48.66394" lon="1.72987">
        <ele>138</ele>
        <time>2010-05-14T10:56:57Z</time>
      </trkpt>
      <trkpt lat="48.66394" lon="1.7299">
        <ele>138</ele>
        <time>2010-05-14T10:56:58Z</time>
      </trkpt>
      <trkpt lat="48.66394" lon="1.72993">
        <ele>139</ele>
        <time>2010-05-14T10:56:59Z</time>
      </trkpt>
      <trkpt lat="48.66396" lon="1.72993">
        <ele>140</ele>
        <time>2010-05-14T10:57:00Z</time>
      </trkpt>
      <trkpt lat="48.66398" lon="1.72993">
        <ele>141</ele>
        <time>2010-05-14T10:57:01Z</time>
      </trkpt>
      <trkpt lat="48.66398" lon="1.72995">
        <ele>142</ele>
        <time>2010-05-14T10:57:03Z</time>
      </trkpt>
      <trkpt lat="48.66398" lon="1.72997">
        <ele>142</ele>
        <time>2010-05-14T10:57:04Z</time>
      </trkpt>
      <trkpt lat="48.66398" lon="1.73">
        <ele>143</ele>
        <time>2010-05-14T10:57:06Z</time>
      </trkpt>
      <trkpt lat="48.66399" lon="1.73002">
        <ele>143</ele>
        <time>2010-05-14T10:57:08Z</time>
      </trkpt>
      <trkpt lat="48.66401" lon="1.73005">
        <ele>144</ele>
        <time>2010-05-14T10:57:11Z</time>
      </trkpt>
      <trkpt lat="48.66403" lon="1.73006">
        <ele>144</ele>
        <time>2010-05-14T10:57:12Z</time>
      </trkpt>
      <trkpt lat="48.66404" lon="1.73008">
        <ele>144</ele>
        <time>2010-05-14T10:57:13Z</time>
      </trkpt>
      <trkpt lat="48.66405" lon="1.73009">
        <ele>145</ele>
        <time>2010-05-14T10:57:14Z</time>
      </trkpt>
      <trkpt lat="48.66407" lon="1.73011">
        <ele>145</ele>
        <time>2010-05-14T10:57:15Z</time>
      </trkpt>
      <trkpt lat="48.66408" lon="1.73012">
        <ele>145</ele>
        <time>2010-05-14T10:57:16Z</time>
      </trkpt>
      <trkpt lat="48.66409" lon="1.73015">
        <ele>146</ele>
        <time>2010-05-14T10:57:18Z</time>
      </trkpt>
      <trkpt lat="48.66408" lon="1.73017">
        <ele>146</ele>
        <time>2010-05-14T10:57:19Z</time>
      </trkpt>
      <trkpt lat="48.6641" lon="1.7302">
        <ele>148</ele>
        <time>2010-05-14T10:57:21Z</time>
      </trkpt>
      <trkpt lat="48.66412" lon="1.73023">
        <ele>148</ele>
        <time>2010-05-14T10:57:22Z</time>
      </trkpt>
      <trkpt lat="48.66413" lon="1.73025">
        <ele>148</ele>
        <time>2010-05-14T10:57:23Z</time>
      </trkpt>
      <trkpt lat="48.66415" lon="1.73027">
        <ele>148</ele>
        <time>2010-05-14T10:57:24Z</time>
      </trkpt>
      <trkpt lat="48.66416" lon="1.73029">
        <ele>148</ele>
        <time>2010-05-14T10:57:25Z</time>
      </trkpt>
      <trkpt lat="48.66417" lon="1.7303">
        <ele>148</ele>
        <time>2010-05-14T10:57:26Z</time>
      </trkpt>
      <trkpt lat="48.66419" lon="1.73033">
        <ele>148</ele>
        <time>2010-05-14T10:57:28Z</time>
      </trkpt>
      <trkpt lat="48.6642" lon="1.73034">
        <ele>148</ele>
        <time>2010-05-14T10:57:29Z</time>
      </trkpt>
      <trkpt lat="48.6642" lon="1.73036">
        <ele>148</ele>
        <time>2010-05-14T10:57:30Z</time>
      </trkpt>
      <trkpt lat="48.6642" lon="1.73039">
        <ele>148</ele>
        <time>2010-05-14T10:57:31Z</time>
      </trkpt>
      <trkpt lat="48.6642" lon="1.73041">
        <ele>148</ele>
        <time>2010-05-14T10:57:32Z</time>
      </trkpt>
      <trkpt lat="48.66419" lon="1.73044">
        <ele>148</ele>
        <time>2010-05-14T10:57:33Z</time>
      </trkpt>
      <trkpt lat="48.6642" lon="1.73046">
        <ele>148</ele>
        <time>2010-05-14T10:57:34Z</time>
      </trkpt>
      <trkpt lat="48.66421" lon="1.73049">
        <ele>148</ele>
        <time>2010-05-14T10:57:36Z</time>
      </trkpt>
      <trkpt lat="48.66422" lon="1.7305">
        <ele>148</ele>
        <time>2010-05-14T10:57:37Z</time>
      </trkpt>
      <trkpt lat="48.66423" lon="1.73051">
        <ele>148</ele>
        <time>2010-05-14T10:57:38Z</time>
      </trkpt>
      <trkpt lat="48.66424" lon="1.73053">
        <ele>148</ele>
        <time>2010-05-14T10:57:39Z</time>
      </trkpt>
      <trkpt lat="48.66425" lon="1.73054">
        <ele>148</ele>
        <time>2010-05-14T10:57:40Z</time>
      </trkpt>
      <trkpt lat="48.66426" lon="1.73056">
        <ele>148</ele>
        <time>2010-05-14T10:57:41Z</time>
      </trkpt>
      <trkpt lat="48.66426" lon="1.73058">
        <ele>148</ele>
        <time>2010-05-14T10:57:42Z</time>
      </trkpt>
      <trkpt lat="48.66426" lon="1.7306">
        <ele>148</ele>
        <time>2010-05-14T10:57:43Z</time>
      </trkpt>
      <trkpt lat="48.66426" lon="1.73063">
        <ele>148</ele>
        <time>2010-05-14T10:57:44Z</time>
      </trkpt>
      <trkpt lat="48.66426" lon="1.73065">
        <ele>148</ele>
        <time>2010-05-14T10:57:45Z</time>
      </trkpt>
      <trkpt lat="48.66427" lon="1.73067">
        <ele>148</ele>
        <time>2010-05-14T10:57:46Z</time>
      </trkpt>
      <trkpt lat="48.66428" lon="1.73069">
        <ele>148</ele>
        <time>2010-05-14T10:57:47Z</time>
      </trkpt>
      <trkpt lat="48.66428" lon="1.73071">
        <ele>148</ele>
        <time>2010-05-14T10:57:48Z</time>
      </trkpt>
      <trkpt lat="48.6643" lon="1.73072">
        <ele>148</ele>
        <time>2010-05-14T10:57:49Z</time>
      </trkpt>
      <trkpt lat="48.66432" lon="1.73074">
        <ele>148</ele>
        <time>2010-05-14T10:57:51Z</time>
      </trkpt>
      <trkpt lat="48.66434" lon="1.73076">
        <ele>148</ele>
        <time>2010-05-14T10:57:53Z</time>
      </trkpt>
      <trkpt lat="48.66436" lon="1.73082">
        <ele>148</ele>
        <time>2010-05-14T10:57:56Z</time>
      </trkpt>
      <trkpt lat="48.66435" lon="1.73088">
        <ele>148</ele>
        <time>2010-05-14T10:57:57Z</time>
      </trkpt>
      <trkpt lat="48.66436" lon="1.73091">
        <ele>148</ele>
        <time>2010-05-14T10:57:58Z</time>
      </trkpt>
      <trkpt lat="48.66438" lon="1.73094">
        <ele>149</ele>
        <time>2010-05-14T10:57:59Z</time>
      </trkpt>
      <trkpt lat="48.66439" lon="1.73097">
        <ele>149</ele>
        <time>2010-05-14T10:58:00Z</time>
      </trkpt>
      <trkpt lat="48.66439" lon="1.73099">
        <ele>149</ele>
        <time>2010-05-14T10:58:01Z</time>
      </trkpt>
      <trkpt lat="48.66442" lon="1.731">
        <ele>149</ele>
        <time>2010-05-14T10:58:02Z</time>
      </trkpt>
      <trkpt lat="48.66443" lon="1.73103">
        <ele>149</ele>
        <time>2010-05-14T10:58:03Z</time>
      </trkpt>
      <trkpt lat="48.66444" lon="1.73106">
        <ele>149</ele>
        <time>2010-05-14T10:58:04Z</time>
      </trkpt>
      <trkpt lat="48.66445" lon="1.73108">
        <ele>149</ele>
        <time>2010-05-14T10:58:05Z</time>
      </trkpt>
      <trkpt lat="48.66447" lon="1.73109">
        <ele>149</ele>
        <time>2010-05-14T10:58:07Z</time>
      </trkpt>
      <trkpt lat="48.66449" lon="1.73111">
        <ele>149</ele>
        <time>2010-05-14T10:58:08Z</time>
      </trkpt>
      <trkpt lat="48.6645" lon="1.73113">
        <ele>149</ele>
        <time>2010-05-14T10:58:09Z</time>
      </trkpt>
      <trkpt lat="48.6645" lon="1.73116">
        <ele>149</ele>
        <time>2010-05-14T10:58:10Z</time>
      </trkpt>
      <trkpt lat="48.6645" lon="1.73118">
        <ele>149</ele>
        <time>2010-05-14T10:58:11Z</time>
      </trkpt>
      <trkpt lat="48.6645" lon="1.73121">
        <ele>149</ele>
        <time>2010-05-14T10:58:12Z</time>
      </trkpt>
      <trkpt lat="48.66449" lon="1.73123">
        <ele>149</ele>
        <time>2010-05-14T10:58:13Z</time>
      </trkpt>
      <trkpt lat="48.66449" lon="1.73125">
        <ele>149</ele>
        <time>2010-05-14T10:58:14Z</time>
      </trkpt>
      <trkpt lat="48.66449" lon="1.73128">
        <ele>149</ele>
        <time>2010-05-14T10:58:15Z</time>
      </trkpt>
      <trkpt lat="48.66449" lon="1.7313">
        <ele>149</ele>
        <time>2010-05-14T10:58:16Z</time>
      </trkpt>
      <trkpt lat="48.66451" lon="1.73133">
        <ele>149</ele>
        <time>2010-05-14T10:58:18Z</time>
      </trkpt>
      <trkpt lat="48.66451" lon="1.73136">
        <ele>149</ele>
        <time>2010-05-14T10:58:20Z</time>
      </trkpt>
      <trkpt lat="48.66451" lon="1.73139">
        <ele>149</ele>
        <time>2010-05-14T10:58:21Z</time>
      </trkpt>
      <trkpt lat="48.66451" lon="1.73142">
        <ele>149</ele>
        <time>2010-05-14T10:58:22Z</time>
      </trkpt>
      <trkpt lat="48.6645" lon="1.73144">
        <ele>149</ele>
        <time>2010-05-14T10:58:23Z</time>
      </trkpt>
      <trkpt lat="48.66449" lon="1.73148">
        <ele>149</ele>
        <time>2010-05-14T10:58:24Z</time>
      </trkpt>
      <trkpt lat="48.66449" lon="1.73151">
        <ele>149</ele>
        <time>2010-05-14T10:58:25Z</time>
      </trkpt>
      <trkpt lat="48.66449" lon="1.73154">
        <ele>149</ele>
        <time>2010-05-14T10:58:26Z</time>
      </trkpt>
      <trkpt lat="48.66451" lon="1.73155">
        <ele>149</ele>
        <time>2010-05-14T10:58:27Z</time>
      </trkpt>
      <trkpt lat="48.66453" lon="1.73156">
        <ele>149</ele>
        <time>2010-05-14T10:58:28Z</time>
      </trkpt>
      <trkpt lat="48.66454" lon="1.73158">
        <ele>149</ele>
        <time>2010-05-14T10:58:29Z</time>
      </trkpt>
      <trkpt lat="48.66455" lon="1.7316">
        <ele>149</ele>
        <time>2010-05-14T10:58:30Z</time>
      </trkpt>
      <trkpt lat="48.66456" lon="1.73163">
        <ele>149</ele>
        <time>2010-05-14T10:58:31Z</time>
      </trkpt>
      <trkpt lat="48.66456" lon="1.73166">
        <ele>149</ele>
        <time>2010-05-14T10:58:32Z</time>
      </trkpt>
      <trkpt lat="48.66458" lon="1.73167">
        <ele>149</ele>
        <time>2010-05-14T10:58:33Z</time>
      </trkpt>
      <trkpt lat="48.66459" lon="1.7317">
        <ele>149</ele>
        <time>2010-05-14T10:58:34Z</time>
      </trkpt>
      <trkpt lat="48.6646" lon="1.73171">
        <ele>149</ele>
        <time>2010-05-14T10:58:35Z</time>
      </trkpt>
      <trkpt lat="48.66462" lon="1.73172">
        <ele>149</ele>
        <time>2010-05-14T10:58:36Z</time>
      </trkpt>
      <trkpt lat="48.66463" lon="1.73174">
        <ele>149</ele>
        <time>2010-05-14T10:58:37Z</time>
      </trkpt>
      <trkpt lat="48.66464" lon="1.73175">
        <ele>149</ele>
        <time>2010-05-14T10:58:38Z</time>
      </trkpt>
      <trkpt lat="48.66465" lon="1.73177">
        <ele>149</ele>
        <time>2010-05-14T10:58:39Z</time>
      </trkpt>
      <trkpt lat="48.66467" lon="1.73177">
        <ele>149</ele>
        <time>2010-05-14T10:58:40Z</time>
      </trkpt>
      <trkpt lat="48.66467" lon="1.7318">
        <ele>149</ele>
        <time>2010-05-14T10:58:41Z</time>
      </trkpt>
      <trkpt lat="48.66467" lon="1.73183">
        <ele>149</ele>
        <time>2010-05-14T10:58:42Z</time>
      </trkpt>
      <trkpt lat="48.66468" lon="1.73185">
        <ele>149</ele>
        <time>2010-05-14T10:58:43Z</time>
      </trkpt>
      <trkpt lat="48.66469" lon="1.73185">
        <ele>149</ele>
        <time>2010-05-14T10:58:44Z</time>
      </trkpt>
      <trkpt lat="48.6647" lon="1.73187">
        <ele>148</ele>
        <time>2010-05-14T10:58:45Z</time>
      </trkpt>
      <trkpt lat="48.66471" lon="1.73189">
        <ele>148</ele>
        <time>2010-05-14T10:58:46Z</time>
      </trkpt>
      <trkpt lat="48.66473" lon="1.73189">
        <ele>147</ele>
        <time>2010-05-14T10:58:47Z</time>
      </trkpt>
      <trkpt lat="48.66475" lon="1.73191">
        <ele>146</ele>
        <time>2010-05-14T10:58:48Z</time>
      </trkpt>
      <trkpt lat="48.66477" lon="1.73192">
        <ele>145</ele>
        <time>2010-05-14T10:58:49Z</time>
      </trkpt>
      <trkpt lat="48.66479" lon="1.73194">
        <ele>144</ele>
        <time>2010-05-14T10:58:50Z</time>
      </trkpt>
      <trkpt lat="48.66479" lon="1.73196">
        <ele>143</ele>
        <time>2010-05-14T10:58:51Z</time>
      </trkpt>
      <trkpt lat="48.66479" lon="1.73198">
        <ele>142</ele>
        <time>2010-05-14T10:58:52Z</time>
      </trkpt>
      <trkpt lat="48.66481" lon="1.73202">
        <ele>141</ele>
        <time>2010-05-14T10:58:55Z</time>
      </trkpt>
      <trkpt lat="48.6648" lon="1.73206">
        <ele>140</ele>
        <time>2010-05-14T10:58:56Z</time>
      </trkpt>
      <trkpt lat="48.66481" lon="1.7321">
        <ele>139</ele>
        <time>2010-05-14T10:58:57Z</time>
      </trkpt>
      <trkpt lat="48.66479" lon="1.73215">
        <ele>138</ele>
        <time>2010-05-14T10:58:58Z</time>
      </trkpt>
      <trkpt lat="48.66481" lon="1.73217">
        <ele>136</ele>
        <time>2010-05-14T10:59:00Z</time>
      </trkpt>
      <trkpt lat="48.66481" lon="1.7322">
        <ele>136</ele>
        <time>2010-05-14T10:59:01Z</time>
      </trkpt>
      <trkpt lat="48.66482" lon="1.73222">
        <ele>136</ele>
        <time>2010-05-14T10:59:02Z</time>
      </trkpt>
      <trkpt lat="48.66483" lon="1.73226">
        <ele>135</ele>
        <time>2010-05-14T10:59:03Z</time>
      </trkpt>
      <trkpt lat="48.66483" lon="1.73229">
        <ele>134</ele>
        <time>2010-05-14T10:59:04Z</time>
      </trkpt>
      <trkpt lat="48.66484" lon="1.73229">
        <ele>134</ele>
        <time>2010-05-14T10:59:05Z</time>
      </trkpt>
      <trkpt lat="48.66484" lon="1.73232">
        <ele>134</ele>
        <time>2010-05-14T10:59:06Z</time>
      </trkpt>
      <trkpt lat="48.66485" lon="1.73235">
        <ele>134</ele>
        <time>2010-05-14T10:59:08Z</time>
      </trkpt>
      <trkpt lat="48.66485" lon="1.73237">
        <ele>134</ele>
        <time>2010-05-14T10:59:09Z</time>
      </trkpt>
      <trkpt lat="48.66486" lon="1.7324">
        <ele>134</ele>
        <time>2010-05-14T10:59:11Z</time>
      </trkpt>
      <trkpt lat="48.66489" lon="1.73243">
        <ele>134</ele>
        <time>2010-05-14T10:59:14Z</time>
      </trkpt>
      <trkpt lat="48.66489" lon="1.73247">
        <ele>134</ele>
        <time>2010-05-14T10:59:15Z</time>
      </trkpt>
      <trkpt lat="48.6649" lon="1.73248">
        <ele>134</ele>
        <time>2010-05-14T10:59:16Z</time>
      </trkpt>
      <trkpt lat="48.66492" lon="1.73247">
        <ele>134</ele>
        <time>2010-05-14T10:59:17Z</time>
      </trkpt>
      <trkpt lat="48.66492" lon="1.73252">
        <ele>134</ele>
        <time>2010-05-14T10:59:18Z</time>
      </trkpt>
      <trkpt lat="48.66492" lon="1.73256">
        <ele>134</ele>
        <time>2010-05-14T10:59:19Z</time>
      </trkpt>
      <trkpt lat="48.66493" lon="1.73258">
        <ele>134</ele>
        <time>2010-05-14T10:59:20Z</time>
      </trkpt>
      <trkpt lat="48.66494" lon="1.73264">
        <ele>134</ele>
        <time>2010-05-14T10:59:23Z</time>
      </trkpt>
      <trkpt lat="48.66494" lon="1.73267">
        <ele>134</ele>
        <time>2010-05-14T10:59:24Z</time>
      </trkpt>
      <trkpt lat="48.66495" lon="1.7327">
        <ele>134</ele>
        <time>2010-05-14T10:59:25Z</time>
      </trkpt>
      <trkpt lat="48.66495" lon="1.73274">
        <ele>134</ele>
        <time>2010-05-14T10:59:26Z</time>
      </trkpt>
      <trkpt lat="48.66495" lon="1.73277">
        <ele>135</ele>
        <time>2010-05-14T10:59:27Z</time>
      </trkpt>
      <trkpt lat="48.66497" lon="1.73278">
        <ele>136</ele>
        <time>2010-05-14T10:59:29Z</time>
      </trkpt>
      <trkpt lat="48.665" lon="1.73282">
        <ele>136</ele>
        <time>2010-05-14T10:59:32Z</time>
      </trkpt>
      <trkpt lat="48.66502" lon="1.73286">
        <ele>136</ele>
        <time>2010-05-14T10:59:33Z</time>
      </trkpt>
      <trkpt lat="48.66505" lon="1.73289">
        <ele>136</ele>
        <time>2010-05-14T10:59:34Z</time>
      </trkpt>
      <trkpt lat="48.66505" lon="1.73293">
        <ele>136</ele>
        <time>2010-05-14T10:59:35Z</time>
      </trkpt>
      <trkpt lat="48.66506" lon="1.73296">
        <ele>137</ele>
        <time>2010-05-14T10:59:36Z</time>
      </trkpt>
      <trkpt lat="48.66507" lon="1.73298">
        <ele>138</ele>
        <time>2010-05-14T10:59:37Z</time>
      </trkpt>
      <trkpt lat="48.66508" lon="1.733">
        <ele>139</ele>
        <time>2010-05-14T10:59:38Z</time>
      </trkpt>
      <trkpt lat="48.66506" lon="1.73305">
        <ele>140</ele>
        <time>2010-05-14T10:59:39Z</time>
      </trkpt>
      <trkpt lat="48.66506" lon="1.73308">
        <ele>141</ele>
        <time>2010-05-14T10:59:40Z</time>
      </trkpt>
      <trkpt lat="48.66507" lon="1.73311">
        <ele>142</ele>
        <time>2010-05-14T10:59:41Z</time>
      </trkpt>
      <trkpt lat="48.66508" lon="1.73313">
        <ele>143</ele>
        <time>2010-05-14T10:59:42Z</time>
      </trkpt>
      <trkpt lat="48.6651" lon="1.73314">
        <ele>144</ele>
        <time>2010-05-14T10:59:43Z</time>
      </trkpt>
      <trkpt lat="48.66511" lon="1.73316">
        <ele>144</ele>
        <time>2010-05-14T10:59:44Z</time>
      </trkpt>
      <trkpt lat="48.66512" lon="1.73319">
        <ele>144</ele>
        <time>2010-05-14T10:59:45Z</time>
      </trkpt>
      <trkpt lat="48.66512" lon="1.73321">
        <ele>144</ele>
        <time>2010-05-14T10:59:46Z</time>
      </trkpt>
      <trkpt lat="48.66512" lon="1.73324">
        <ele>144</ele>
        <time>2010-05-14T10:59:47Z</time>
      </trkpt>
      <trkpt lat="48.66512" lon="1.73327">
        <ele>144</ele>
        <time>2010-05-14T10:59:49Z</time>
      </trkpt>
      <trkpt lat="48.66511" lon="1.7333">
        <ele>144</ele>
        <time>2010-05-14T10:59:50Z</time>
      </trkpt>
      <trkpt lat="48.6651" lon="1.73335">
        <ele>144</ele>
        <time>2010-05-14T10:59:52Z</time>
      </trkpt>
      <trkpt lat="48.6651" lon="1.73337">
        <ele>144</ele>
        <time>2010-05-14T10:59:53Z</time>
      </trkpt>
      <trkpt lat="48.6651" lon="1.73339">
        <ele>144</ele>
        <time>2010-05-14T10:59:54Z</time>
      </trkpt>
      <trkpt lat="48.6651" lon="1.73342">
        <ele>144</ele>
        <time>2010-05-14T10:59:55Z</time>
      </trkpt>
      <trkpt lat="48.66511" lon="1.73344">
        <ele>144</ele>
        <time>2010-05-14T10:59:57Z</time>
      </trkpt>
      <trkpt lat="48.66512" lon="1.73346">
        <ele>144</ele>
        <time>2010-05-14T10:59:58Z</time>
      </trkpt>
      <trkpt lat="48.66513" lon="1.73346">
        <ele>144</ele>
        <time>2010-05-14T10:59:59Z</time>
      </trkpt>
      <trkpt lat="48.66515" lon="1.73346">
        <ele>144</ele>
        <time>2010-05-14T11:00:00Z</time>
      </trkpt>
      <trkpt lat="48.66517" lon="1.73346">
        <ele>144</ele>
        <time>2010-05-14T11:00:01Z</time>
      </trkpt>
      <trkpt lat="48.66518" lon="1.73347">
        <ele>144</ele>
        <time>2010-05-14T11:00:02Z</time>
      </trkpt>
      <trkpt lat="48.66519" lon="1.73348">
        <ele>144</ele>
        <time>2010-05-14T11:00:03Z</time>
      </trkpt>
      <trkpt lat="48.6652" lon="1.73351">
        <ele>144</ele>
        <time>2010-05-14T11:00:05Z</time>
      </trkpt>
      <trkpt lat="48.66522" lon="1.73351">
        <ele>144</ele>
        <time>2010-05-14T11:00:06Z</time>
      </trkpt>
      <trkpt lat="48.66522" lon="1.73354">
        <ele>144</ele>
        <time>2010-05-14T11:00:08Z</time>
      </trkpt>
      <trkpt lat="48.66523" lon="1.73356">
        <ele>144</ele>
        <time>2010-05-14T11:00:09Z</time>
      </trkpt>
      <trkpt lat="48.66524" lon="1.73357">
        <ele>143</ele>
        <time>2010-05-14T11:00:10Z</time>
      </trkpt>
      <trkpt lat="48.66525" lon="1.73358">
        <ele>143</ele>
        <time>2010-05-14T11:00:11Z</time>
      </trkpt>
      <trkpt lat="48.66527" lon="1.73361">
        <ele>141</ele>
        <time>2010-05-14T11:00:13Z</time>
      </trkpt>
      <trkpt lat="48.66529" lon="1.73363">
        <ele>140</ele>
        <time>2010-05-14T11:00:14Z</time>
      </trkpt>
      <trkpt lat="48.6653" lon="1.73363">
        <ele>139</ele>
        <time>2010-05-14T11:00:15Z</time>
      </trkpt>
      <trkpt lat="48.66531" lon="1.73366">
        <ele>139</ele>
        <time>2010-05-14T11:00:16Z</time>
      </trkpt>
      <trkpt lat="48.66532" lon="1.73368">
        <ele>138</ele>
        <time>2010-05-14T11:00:17Z</time>
      </trkpt>
      <trkpt lat="48.66533" lon="1.73369">
        <ele>138</ele>
        <time>2010-05-14T11:00:18Z</time>
      </trkpt>
      <trkpt lat="48.66534" lon="1.73371">
        <ele>137</ele>
        <time>2010-05-14T11:00:19Z</time>
      </trkpt>
      <trkpt lat="48.66534" lon="1.73374">
        <ele>137</ele>
        <time>2010-05-14T11:00:20Z</time>
      </trkpt>
      <trkpt lat="48.66536" lon="1.73374">
        <ele>137</ele>
        <time>2010-05-14T11:00:21Z</time>
      </trkpt>
      <trkpt lat="48.66536" lon="1.73376">
        <ele>137</ele>
        <time>2010-05-14T11:00:22Z</time>
      </trkpt>
      <trkpt lat="48.66537" lon="1.73377">
        <ele>137</ele>
        <time>2010-05-14T11:00:23Z</time>
      </trkpt>
      <trkpt lat="48.66539" lon="1.73379">
        <ele>136</ele>
        <time>2010-05-14T11:00:24Z</time>
      </trkpt>
      <trkpt lat="48.6654" lon="1.73382">
        <ele>136</ele>
        <time>2010-05-14T11:00:25Z</time>
      </trkpt>
      <trkpt lat="48.66539" lon="1.73385">
        <ele>136</ele>
        <time>2010-05-14T11:00:26Z</time>
      </trkpt>
      <trkpt lat="48.66539" lon="1.73388">
        <ele>136</ele>
        <time>2010-05-14T11:00:27Z</time>
      </trkpt>
      <trkpt lat="48.6654" lon="1.73389">
        <ele>136</ele>
        <time>2010-05-14T11:00:28Z</time>
      </trkpt>
      <trkpt lat="48.6654" lon="1.73392">
        <ele>136</ele>
        <time>2010-05-14T11:00:29Z</time>
      </trkpt>
      <trkpt lat="48.66541" lon="1.73393">
        <ele>136</ele>
        <time>2010-05-14T11:00:30Z</time>
      </trkpt>
      <trkpt lat="48.66541" lon="1.73396">
        <ele>136</ele>
        <time>2010-05-14T11:00:31Z</time>
      </trkpt>
      <trkpt lat="48.66542" lon="1.73398">
        <ele>136</ele>
        <time>2010-05-14T11:00:32Z</time>
      </trkpt>
      <trkpt lat="48.66543" lon="1.73399">
        <ele>136</ele>
        <time>2010-05-14T11:00:33Z</time>
      </trkpt>
      <trkpt lat="48.66545" lon="1.73402">
        <ele>136</ele>
        <time>2010-05-14T11:00:35Z</time>
      </trkpt>
      <trkpt lat="48.66545" lon="1.73405">
        <ele>136</ele>
        <time>2010-05-14T11:00:36Z</time>
      </trkpt>
      <trkpt lat="48.66545" lon="1.73408">
        <ele>136</ele>
        <time>2010-05-14T11:00:37Z</time>
      </trkpt>
      <trkpt lat="48.66546" lon="1.7341">
        <ele>136</ele>
        <time>2010-05-14T11:00:38Z</time>
      </trkpt>
      <trkpt lat="48.66547" lon="1.73412">
        <ele>136</ele>
        <time>2010-05-14T11:00:39Z</time>
      </trkpt>
      <trkpt lat="48.66549" lon="1.73415">
        <ele>136</ele>
        <time>2010-05-14T11:00:41Z</time>
      </trkpt>
      <trkpt lat="48.66549" lon="1.73417">
        <ele>136</ele>
        <time>2010-05-14T11:00:42Z</time>
      </trkpt>
      <trkpt lat="48.66549" lon="1.7342">
        <ele>136</ele>
        <time>2010-05-14T11:00:43Z</time>
      </trkpt>
      <trkpt lat="48.66549" lon="1.73422">
        <ele>136</ele>
        <time>2010-05-14T11:00:44Z</time>
      </trkpt>
      <trkpt lat="48.6655" lon="1.73424">
        <ele>136</ele>
        <time>2010-05-14T11:00:45Z</time>
      </trkpt>
      <trkpt lat="48.66551" lon="1.73426">
        <ele>136</ele>
        <time>2010-05-14T11:00:46Z</time>
      </trkpt>
      <trkpt lat="48.66552" lon="1.73429">
        <ele>136</ele>
        <time>2010-05-14T11:00:47Z</time>
      </trkpt>
      <trkpt lat="48.66552" lon="1.73431">
        <ele>136</ele>
        <time>2010-05-14T11:00:48Z</time>
      </trkpt>
      <trkpt lat="48.66553" lon="1.73433">
        <ele>136</ele>
        <time>2010-05-14T11:00:49Z</time>
      </trkpt>
      <trkpt lat="48.66555" lon="1.73435">
        <ele>136</ele>
        <time>2010-05-14T11:00:50Z</time>
      </trkpt>
      <trkpt lat="48.66555" lon="1.73436">
        <ele>136</ele>
        <time>2010-05-14T11:00:51Z</time>
      </trkpt>
      <trkpt lat="48.66557" lon="1.73439">
        <ele>136</ele>
        <time>2010-05-14T11:00:53Z</time>
      </trkpt>
      <trkpt lat="48.66558" lon="1.7344">
        <ele>136</ele>
        <time>2010-05-14T11:00:54Z</time>
      </trkpt>
      <trkpt lat="48.66559" lon="1.73441">
        <ele>136</ele>
        <time>2010-05-14T11:00:55Z</time>
      </trkpt>
      <trkpt lat="48.6656" lon="1.73442">
        <ele>135</ele>
        <time>2010-05-14T11:00:56Z</time>
      </trkpt>
      <trkpt lat="48.66561" lon="1.73444">
        <ele>135</ele>
        <time>2010-05-14T11:00:57Z</time>
      </trkpt>
      <trkpt lat="48.66562" lon="1.73447">
        <ele>133</ele>
        <time>2010-05-14T11:00:59Z</time>
      </trkpt>
      <trkpt lat="48.66564" lon="1.73449">
        <ele>132</ele>
        <time>2010-05-14T11:01:00Z</time>
      </trkpt>
      <trkpt lat="48.66564" lon="1.73451">
        <ele>132</ele>
        <time>2010-05-14T11:01:01Z</time>
      </trkpt>
      <trkpt lat="48.66565" lon="1.73453">
        <ele>132</ele>
        <time>2010-05-14T11:01:02Z</time>
      </trkpt>
      <trkpt lat="48.66566" lon="1.73455">
        <ele>131</ele>
        <time>2010-05-14T11:01:03Z</time>
      </trkpt>
      <trkpt lat="48.66566" lon="1.73458">
        <ele>131</ele>
        <time>2010-05-14T11:01:04Z</time>
      </trkpt>
      <trkpt lat="48.66567" lon="1.73461">
        <ele>131</ele>
        <time>2010-05-14T11:01:05Z</time>
      </trkpt>
      <trkpt lat="48.66567" lon="1.73463">
        <ele>131</ele>
        <time>2010-05-14T11:01:06Z</time>
      </trkpt>
      <trkpt lat="48.66568" lon="1.73465">
        <ele>131</ele>
        <time>2010-05-14T11:01:07Z</time>
      </trkpt>
      <trkpt lat="48.66569" lon="1.73467">
        <ele>131</ele>
        <time>2010-05-14T11:01:08Z</time>
      </trkpt>
      <trkpt lat="48.66569" lon="1.7347">
        <ele>131</ele>
        <time>2010-05-14T11:01:09Z</time>
      </trkpt>
      <trkpt lat="48.6657" lon="1.73471">
        <ele>131</ele>
        <time>2010-05-14T11:01:10Z</time>
      </trkpt>
      <trkpt lat="48.66571" lon="1.73474">
        <ele>131</ele>
        <time>2010-05-14T11:01:11Z</time>
      </trkpt>
      <trkpt lat="48.66571" lon="1.73476">
        <ele>131</ele>
        <time>2010-05-14T11:01:12Z</time>
      </trkpt>
      <trkpt lat="48.66571" lon="1.73479">
        <ele>131</ele>
        <time>2010-05-14T11:01:13Z</time>
      </trkpt>
      <trkpt lat="48.66572" lon="1.73481">
        <ele>131</ele>
        <time>2010-05-14T11:01:14Z</time>
      </trkpt>
      <trkpt lat="48.66573" lon="1.73483">
        <ele>131</ele>
        <time>2010-05-14T11:01:15Z</time>
      </trkpt>
      <trkpt lat="48.66573" lon="1.73486">
        <ele>131</ele>
        <time>2010-05-14T11:01:16Z</time>
      </trkpt>
      <trkpt lat="48.66574" lon="1.73489">
        <ele>131</ele>
        <time>2010-05-14T11:01:17Z</time>
      </trkpt>
      <trkpt lat="48.66576" lon="1.73497">
        <ele>131</ele>
        <time>2010-05-14T11:01:20Z</time>
      </trkpt>
      <trkpt lat="48.66575" lon="1.73508">
        <ele>131</ele>
        <time>2010-05-14T11:01:21Z</time>
      </trkpt>
      <trkpt lat="48.66575" lon="1.73515">
        <ele>131</ele>
        <time>2010-05-14T11:01:22Z</time>
      </trkpt>
      <trkpt lat="48.66572" lon="1.73522">
        <ele>131</ele>
        <time>2010-05-14T11:01:23Z</time>
      </trkpt>
      <trkpt lat="48.6657" lon="1.73527">
        <ele>132</ele>
        <time>2010-05-14T11:01:24Z</time>
      </trkpt>
      <trkpt lat="48.66569" lon="1.73533">
        <ele>133</ele>
        <time>2010-05-14T11:01:25Z</time>
      </trkpt>
      <trkpt lat="48.66568" lon="1.73538">
        <ele>134</ele>
        <time>2010-05-14T11:01:26Z</time>
      </trkpt>
      <trkpt lat="48.66565" lon="1.73544">
        <ele>135</ele>
        <time>2010-05-14T11:01:29Z</time>
      </trkpt>
      <trkpt lat="48.66564" lon="1.73551">
        <ele>136</ele>
        <time>2010-05-14T11:01:30Z</time>
      </trkpt>
      <trkpt lat="48.66564" lon="1.73553">
        <ele>137</ele>
        <time>2010-05-14T11:01:31Z</time>
      </trkpt>
      <trkpt lat="48.66563" lon="1.73551">
        <ele>139</ele>
        <time>2010-05-14T11:01:33Z</time>
      </trkpt>
      <trkpt lat="48.6656" lon="1.73552">
        <ele>139</ele>
        <time>2010-05-14T11:01:34Z</time>
      </trkpt>
      <trkpt lat="48.66559" lon="1.73554">
        <ele>139</ele>
        <time>2010-05-14T11:01:35Z</time>
      </trkpt>
      <trkpt lat="48.66557" lon="1.73555">
        <ele>139</ele>
        <time>2010-05-14T11:01:36Z</time>
      </trkpt>
      <trkpt lat="48.66555" lon="1.73558">
        <ele>139</ele>
        <time>2010-05-14T11:01:37Z</time>
      </trkpt>
      <trkpt lat="48.66554" lon="1.73561">
        <ele>139</ele>
        <time>2010-05-14T11:01:38Z</time>
      </trkpt>
      <trkpt lat="48.66552" lon="1.73565">
        <ele>139</ele>
        <time>2010-05-14T11:01:40Z</time>
      </trkpt>
      <trkpt lat="48.6655" lon="1.73567">
        <ele>139</ele>
        <time>2010-05-14T11:01:41Z</time>
      </trkpt>
      <trkpt lat="48.66548" lon="1.73569">
        <ele>139</ele>
        <time>2010-05-14T11:01:42Z</time>
      </trkpt>
      <trkpt lat="48.66548" lon="1.73571">
        <ele>139</ele>
        <time>2010-05-14T11:01:43Z</time>
      </trkpt>
      <trkpt lat="48.66546" lon="1.73573">
        <ele>139</ele>
        <time>2010-05-14T11:01:45Z</time>
      </trkpt>
      <trkpt lat="48.66544" lon="1.73574">
        <ele>139</ele>
        <time>2010-05-14T11:01:46Z</time>
      </trkpt>
      <trkpt lat="48.66543" lon="1.73575">
        <ele>139</ele>
        <time>2010-05-14T11:01:47Z</time>
      </trkpt>
      <trkpt lat="48.66542" lon="1.73577">
        <ele>139</ele>
        <time>2010-05-14T11:01:48Z</time>
      </trkpt>
      <trkpt lat="48.6654" lon="1.73579">
        <ele>139</ele>
        <time>2010-05-14T11:01:49Z</time>
      </trkpt>
      <trkpt lat="48.66539" lon="1.7358">
        <ele>140</ele>
        <time>2010-05-14T11:01:50Z</time>
      </trkpt>
      <trkpt lat="48.66538" lon="1.73582">
        <ele>140</ele>
        <time>2010-05-14T11:01:52Z</time>
      </trkpt>
      <trkpt lat="48.66537" lon="1.73586">
        <ele>140</ele>
        <time>2010-05-14T11:01:54Z</time>
      </trkpt>
      <trkpt lat="48.66536" lon="1.73588">
        <ele>140</ele>
        <time>2010-05-14T11:01:55Z</time>
      </trkpt>
      <trkpt lat="48.66536" lon="1.73591">
        <ele>140</ele>
        <time>2010-05-14T11:01:57Z</time>
      </trkpt>
      <trkpt lat="48.66535" lon="1.73594">
        <ele>140</ele>
        <time>2010-05-14T11:01:58Z</time>
      </trkpt>
      <trkpt lat="48.66534" lon="1.73597">
        <ele>140</ele>
        <time>2010-05-14T11:02:00Z</time>
      </trkpt>
      <trkpt lat="48.66533" lon="1.73599">
        <ele>140</ele>
        <time>2010-05-14T11:02:01Z</time>
      </trkpt>
      <trkpt lat="48.66533" lon="1.73601">
        <ele>140</ele>
        <time>2010-05-14T11:02:02Z</time>
      </trkpt>
      <trkpt lat="48.6653" lon="1.73605">
        <ele>140</ele>
        <time>2010-05-14T11:02:04Z</time>
      </trkpt>
      <trkpt lat="48.66529" lon="1.73607">
        <ele>140</ele>
        <time>2010-05-14T11:02:05Z</time>
      </trkpt>
      <trkpt lat="48.66528" lon="1.73609">
        <ele>140</ele>
        <time>2010-05-14T11:02:07Z</time>
      </trkpt>
      <trkpt lat="48.66527" lon="1.73613">
        <ele>140</ele>
        <time>2010-05-14T11:02:09Z</time>
      </trkpt>
      <trkpt lat="48.66526" lon="1.73615">
        <ele>140</ele>
        <time>2010-05-14T11:02:10Z</time>
      </trkpt>
      <trkpt lat="48.66525" lon="1.73618">
        <ele>140</ele>
        <time>2010-05-14T11:02:12Z</time>
      </trkpt>
      <trkpt lat="48.66525" lon="1.7362">
        <ele>140</ele>
        <time>2010-05-14T11:02:13Z</time>
      </trkpt>
      <trkpt lat="48.66524" lon="1.73622">
        <ele>140</ele>
        <time>2010-05-14T11:02:14Z</time>
      </trkpt>
      <trkpt lat="48.66522" lon="1.73625">
        <ele>140</ele>
        <time>2010-05-14T11:02:15Z</time>
      </trkpt>
      <trkpt lat="48.66521" lon="1.73626">
        <ele>140</ele>
        <time>2010-05-14T11:02:16Z</time>
      </trkpt>
      <trkpt lat="48.6652" lon="1.73629">
        <ele>140</ele>
        <time>2010-05-14T11:02:18Z</time>
      </trkpt>
      <trkpt lat="48.66518" lon="1.73632">
        <ele>140</ele>
        <time>2010-05-14T11:02:20Z</time>
      </trkpt>
      <trkpt lat="48.66517" lon="1.73634">
        <ele>140</ele>
        <time>2010-05-14T11:02:22Z</time>
      </trkpt>
      <trkpt lat="48.66516" lon="1.73636">
        <ele>140</ele>
        <time>2010-05-14T11:02:25Z</time>
      </trkpt>
      <trkpt lat="48.66515" lon="1.73639">
        <ele>140</ele>
        <time>2010-05-14T11:02:26Z</time>
      </trkpt>
      <trkpt lat="48.66513" lon="1.73642">
        <ele>140</ele>
        <time>2010-05-14T11:02:28Z</time>
      </trkpt>
      <trkpt lat="48.66513" lon="1.73644">
        <ele>140</ele>
        <time>2010-05-14T11:02:29Z</time>
      </trkpt>
      <trkpt lat="48.66511" lon="1.73646">
        <ele>140</ele>
        <time>2010-05-14T11:02:30Z</time>
      </trkpt>
      <trkpt lat="48.6651" lon="1.73648">
        <ele>140</ele>
        <time>2010-05-14T11:02:32Z</time>
      </trkpt>
      <trkpt lat="48.66508" lon="1.7365">
        <ele>140</ele>
        <time>2010-05-14T11:02:33Z</time>
      </trkpt>
      <trkpt lat="48.66505" lon="1.73653">
        <ele>140</ele>
        <time>2010-05-14T11:02:34Z</time>
      </trkpt>
      <trkpt lat="48.66504" lon="1.73654">
        <ele>140</ele>
        <time>2010-05-14T11:02:35Z</time>
      </trkpt>
      <trkpt lat="48.66502" lon="1.73656">
        <ele>140</ele>
        <time>2010-05-14T11:02:36Z</time>
      </trkpt>
      <trkpt lat="48.66501" lon="1.73659">
        <ele>140</ele>
        <time>2010-05-14T11:02:37Z</time>
      </trkpt>
      <trkpt lat="48.665" lon="1.73661">
        <ele>140</ele>
        <time>2010-05-14T11:02:38Z</time>
      </trkpt>
      <trkpt lat="48.66499" lon="1.73663">
        <ele>140</ele>
        <time>2010-05-14T11:02:39Z</time>
      </trkpt>
      <trkpt lat="48.66497" lon="1.73667">
        <ele>140</ele>
        <time>2010-05-14T11:02:40Z</time>
      </trkpt>
      <trkpt lat="48.66495" lon="1.73669">
        <ele>140</ele>
        <time>2010-05-14T11:02:41Z</time>
      </trkpt>
      <trkpt lat="48.66494" lon="1.73673">
        <ele>141</ele>
        <time>2010-05-14T11:02:43Z</time>
      </trkpt>
      <trkpt lat="48.66493" lon="1.73677">
        <ele>142</ele>
        <time>2010-05-14T11:02:44Z</time>
      </trkpt>
      <trkpt lat="48.66491" lon="1.73679">
        <ele>143</ele>
        <time>2010-05-14T11:02:45Z</time>
      </trkpt>
      <trkpt lat="48.66489" lon="1.73683">
        <ele>144</ele>
        <time>2010-05-14T11:02:47Z</time>
      </trkpt>
      <trkpt lat="48.66489" lon="1.73685">
        <ele>145</ele>
        <time>2010-05-14T11:02:48Z</time>
      </trkpt>
      <trkpt lat="48.66488" lon="1.73687">
        <ele>145</ele>
        <time>2010-05-14T11:02:49Z</time>
      </trkpt>
      <trkpt lat="48.66487" lon="1.7369">
        <ele>146</ele>
        <time>2010-05-14T11:02:50Z</time>
      </trkpt>
      <trkpt lat="48.66486" lon="1.73691">
        <ele>147</ele>
        <time>2010-05-14T11:02:51Z</time>
      </trkpt>
      <trkpt lat="48.66485" lon="1.73693">
        <ele>148</ele>
        <time>2010-05-14T11:02:52Z</time>
      </trkpt>
      <trkpt lat="48.66484" lon="1.73695">
        <ele>149</ele>
        <time>2010-05-14T11:02:54Z</time>
      </trkpt>
      <trkpt lat="48.66482" lon="1.73697">
        <ele>149</ele>
        <time>2010-05-14T11:02:56Z</time>
      </trkpt>
      <trkpt lat="48.6648" lon="1.73699">
        <ele>149</ele>
        <time>2010-05-14T11:02:58Z</time>
      </trkpt>
      <trkpt lat="48.66479" lon="1.73701">
        <ele>149</ele>
        <time>2010-05-14T11:02:59Z</time>
      </trkpt>
      <trkpt lat="48.66478" lon="1.73703">
        <ele>149</ele>
        <time>2010-05-14T11:03:00Z</time>
      </trkpt>
      <trkpt lat="48.66477" lon="1.73705">
        <ele>149</ele>
        <time>2010-05-14T11:03:01Z</time>
      </trkpt>
      <trkpt lat="48.66476" lon="1.73708">
        <ele>149</ele>
        <time>2010-05-14T11:03:03Z</time>
      </trkpt>
      <trkpt lat="48.66475" lon="1.7371">
        <ele>149</ele>
        <time>2010-05-14T11:03:04Z</time>
      </trkpt>
      <trkpt lat="48.66474" lon="1.73711">
        <ele>149</ele>
        <time>2010-05-14T11:03:05Z</time>
      </trkpt>
      <trkpt lat="48.66473" lon="1.73715">
        <ele>149</ele>
        <time>2010-05-14T11:03:07Z</time>
      </trkpt>
      <trkpt lat="48.66473" lon="1.73717">
        <ele>149</ele>
        <time>2010-05-14T11:03:08Z</time>
      </trkpt>
      <trkpt lat="48.66471" lon="1.7372">
        <ele>149</ele>
        <time>2010-05-14T11:03:10Z</time>
      </trkpt>
      <trkpt lat="48.6647" lon="1.73722">
        <ele>149</ele>
        <time>2010-05-14T11:03:11Z</time>
      </trkpt>
      <trkpt lat="48.66468" lon="1.73725">
        <ele>149</ele>
        <time>2010-05-14T11:03:12Z</time>
      </trkpt>
      <trkpt lat="48.66466" lon="1.73727">
        <ele>149</ele>
        <time>2010-05-14T11:03:14Z</time>
      </trkpt>
      <trkpt lat="48.66465" lon="1.7373">
        <ele>149</ele>
        <time>2010-05-14T11:03:16Z</time>
      </trkpt>
      <trkpt lat="48.66464" lon="1.73732">
        <ele>149</ele>
        <time>2010-05-14T11:03:17Z</time>
      </trkpt>
      <trkpt lat="48.66463" lon="1.73734">
        <ele>149</ele>
        <time>2010-05-14T11:03:19Z</time>
      </trkpt>
      <trkpt lat="48.66462" lon="1.73735">
        <ele>149</ele>
        <time>2010-05-14T11:03:21Z</time>
      </trkpt>
      <trkpt lat="48.66461" lon="1.73738">
        <ele>149</ele>
        <time>2010-05-14T11:03:24Z</time>
      </trkpt>
      <trkpt lat="48.6646" lon="1.7374">
        <ele>149</ele>
        <time>2010-05-14T11:03:25Z</time>
      </trkpt>
      <trkpt lat="48.66458" lon="1.73743">
        <ele>149</ele>
        <time>2010-05-14T11:03:27Z</time>
      </trkpt>
      <trkpt lat="48.66456" lon="1.73747">
        <ele>149</ele>
        <time>2010-05-14T11:03:29Z</time>
      </trkpt>
      <trkpt lat="48.66456" lon="1.73749">
        <ele>149</ele>
        <time>2010-05-14T11:03:30Z</time>
      </trkpt>
      <trkpt lat="48.66455" lon="1.73751">
        <ele>149</ele>
        <time>2010-05-14T11:03:31Z</time>
      </trkpt>
      <trkpt lat="48.66454" lon="1.73753">
        <ele>149</ele>
        <time>2010-05-14T11:03:32Z</time>
      </trkpt>
      <trkpt lat="48.66453" lon="1.73755">
        <ele>149</ele>
        <time>2010-05-14T11:03:33Z</time>
      </trkpt>
      <trkpt lat="48.66453" lon="1.73757">
        <ele>149</ele>
        <time>2010-05-14T11:03:34Z</time>
      </trkpt>
      <trkpt lat="48.66451" lon="1.73759">
        <ele>149</ele>
        <time>2010-05-14T11:03:35Z</time>
      </trkpt>
      <trkpt lat="48.6645" lon="1.73761">
        <ele>149</ele>
        <time>2010-05-14T11:03:36Z</time>
      </trkpt>
      <trkpt lat="48.66449" lon="1.73763">
        <ele>149</ele>
        <time>2010-05-14T11:03:37Z</time>
      </trkpt>
      <trkpt lat="48.66448" lon="1.73766">
        <ele>149</ele>
        <time>2010-05-14T11:03:38Z</time>
      </trkpt>
      <trkpt lat="48.66447" lon="1.73768">
        <ele>149</ele>
        <time>2010-05-14T11:03:39Z</time>
      </trkpt>
      <trkpt lat="48.66446" lon="1.73771">
        <ele>149</ele>
        <time>2010-05-14T11:03:40Z</time>
      </trkpt>
      <trkpt lat="48.66444" lon="1.73774">
        <ele>149</ele>
        <time>2010-05-14T11:03:41Z</time>
      </trkpt>
      <trkpt lat="48.66443" lon="1.73776">
        <ele>149</ele>
        <time>2010-05-14T11:03:42Z</time>
      </trkpt>
      <trkpt lat="48.66441" lon="1.73778">
        <ele>149</ele>
        <time>2010-05-14T11:03:43Z</time>
      </trkpt>
      <trkpt lat="48.6644" lon="1.7378">
        <ele>149</ele>
        <time>2010-05-14T11:03:44Z</time>
      </trkpt>
      <trkpt lat="48.66438" lon="1.73783">
        <ele>150</ele>
        <time>2010-05-14T11:03:46Z</time>
      </trkpt>
      <trkpt lat="48.66438" lon="1.73785">
        <ele>150</ele>
        <time>2010-05-14T11:03:47Z</time>
      </trkpt>
      <trkpt lat="48.66438" lon="1.73788">
        <ele>150</ele>
        <time>2010-05-14T11:03:49Z</time>
      </trkpt>
      <trkpt lat="48.66436" lon="1.73791">
        <ele>150</ele>
        <time>2010-05-14T11:03:51Z</time>
      </trkpt>
      <trkpt lat="48.66435" lon="1.73794">
        <ele>150</ele>
        <time>2010-05-14T11:03:52Z</time>
      </trkpt>
      <trkpt lat="48.66434" lon="1.73796">
        <ele>150</ele>
        <time>2010-05-14T11:03:53Z</time>
      </trkpt>
      <trkpt lat="48.66433" lon="1.73798">
        <ele>150</ele>
        <time>2010-05-14T11:03:54Z</time>
      </trkpt>
      <trkpt lat="48.66433" lon="1.738">
        <ele>150</ele>
        <time>2010-05-14T11:03:55Z</time>
      </trkpt>
      <trkpt lat="48.66432" lon="1.73802">
        <ele>150</ele>
        <time>2010-05-14T11:03:56Z</time>
      </trkpt>
      <trkpt lat="48.66431" lon="1.73805">
        <ele>150</ele>
        <time>2010-05-14T11:03:57Z</time>
      </trkpt>
      <trkpt lat="48.66431" lon="1.73806">
        <ele>150</ele>
        <time>2010-05-14T11:03:59Z</time>
      </trkpt>
      <trkpt lat="48.6643" lon="1.73809">
        <ele>150</ele>
        <time>2010-05-14T11:04:01Z</time>
      </trkpt>
      <trkpt lat="48.66428" lon="1.7381">
        <ele>150</ele>
        <time>2010-05-14T11:04:03Z</time>
      </trkpt>
      <trkpt lat="48.66427" lon="1.73811">
        <ele>150</ele>
        <time>2010-05-14T11:04:04Z</time>
      </trkpt>
      <trkpt lat="48.66425" lon="1.73813">
        <ele>150</ele>
        <time>2010-05-14T11:04:05Z</time>
      </trkpt>
      <trkpt lat="48.66423" lon="1.73816">
        <ele>150</ele>
        <time>2010-05-14T11:04:08Z</time>
      </trkpt>
      <trkpt lat="48.66423" lon="1.73818">
        <ele>148</ele>
        <time>2010-05-14T11:04:10Z</time>
      </trkpt>
      <trkpt lat="48.66423" lon="1.7382">
        <ele>148</ele>
        <time>2010-05-14T11:04:11Z</time>
      </trkpt>
      <trkpt lat="48.66422" lon="1.73823">
        <ele>148</ele>
        <time>2010-05-14T11:04:12Z</time>
      </trkpt>
      <trkpt lat="48.66422" lon="1.73825">
        <ele>147</ele>
        <time>2010-05-14T11:04:13Z</time>
      </trkpt>
      <trkpt lat="48.66422" lon="1.73827">
        <ele>142</ele>
        <time>2010-05-14T11:04:18Z</time>
      </trkpt>
      <trkpt lat="48.6642" lon="1.73831">
        <ele>140</ele>
        <time>2010-05-14T11:04:20Z</time>
      </trkpt>
      <trkpt lat="48.66418" lon="1.73833">
        <ele>139</ele>
        <time>2010-05-14T11:04:21Z</time>
      </trkpt>
      <trkpt lat="48.66417" lon="1.73835">
        <ele>138</ele>
        <time>2010-05-14T11:04:22Z</time>
      </trkpt>
      <trkpt lat="48.66416" lon="1.73837">
        <ele>138</ele>
        <time>2010-05-14T11:04:23Z</time>
      </trkpt>
      <trkpt lat="48.66416" lon="1.7384">
        <ele>138</ele>
        <time>2010-05-14T11:04:24Z</time>
      </trkpt>
      <trkpt lat="48.66414" lon="1.73842">
        <ele>138</ele>
        <time>2010-05-14T11:04:25Z</time>
      </trkpt>
      <trkpt lat="48.66414" lon="1.73844">
        <ele>138</ele>
        <time>2010-05-14T11:04:26Z</time>
      </trkpt>
      <trkpt lat="48.66413" lon="1.73847">
        <ele>138</ele>
        <time>2010-05-14T11:04:27Z</time>
      </trkpt>
      <trkpt lat="48.66412" lon="1.73849">
        <ele>138</ele>
        <time>2010-05-14T11:04:28Z</time>
      </trkpt>
      <trkpt lat="48.66411" lon="1.7385">
        <ele>138</ele>
        <time>2010-05-14T11:04:29Z</time>
      </trkpt>
      <trkpt lat="48.66409" lon="1.73853">
        <ele>138</ele>
        <time>2010-05-14T11:04:30Z</time>
      </trkpt>
      <trkpt lat="48.66408" lon="1.73854">
        <ele>138</ele>
        <time>2010-05-14T11:04:31Z</time>
      </trkpt>
      <trkpt lat="48.66406" lon="1.73857">
        <ele>138</ele>
        <time>2010-05-14T11:04:33Z</time>
      </trkpt>
      <trkpt lat="48.66405" lon="1.73859">
        <ele>138</ele>
        <time>2010-05-14T11:04:34Z</time>
      </trkpt>
      <trkpt lat="48.66403" lon="1.73861">
        <ele>138</ele>
        <time>2010-05-14T11:04:35Z</time>
      </trkpt>
      <trkpt lat="48.66402" lon="1.73863">
        <ele>138</ele>
        <time>2010-05-14T11:04:36Z</time>
      </trkpt>
      <trkpt lat="48.66401" lon="1.73865">
        <ele>138</ele>
        <time>2010-05-14T11:04:37Z</time>
      </trkpt>
      <trkpt lat="48.664" lon="1.73868">
        <ele>139</ele>
        <time>2010-05-14T11:04:38Z</time>
      </trkpt>
      <trkpt lat="48.66399" lon="1.73869">
        <ele>140</ele>
        <time>2010-05-14T11:04:39Z</time>
      </trkpt>
      <trkpt lat="48.66398" lon="1.73871">
        <ele>140</ele>
        <time>2010-05-14T11:04:40Z</time>
      </trkpt>
      <trkpt lat="48.66396" lon="1.73874">
        <ele>141</ele>
        <time>2010-05-14T11:04:42Z</time>
      </trkpt>
      <trkpt lat="48.66396" lon="1.73876">
        <ele>141</ele>
        <time>2010-05-14T11:04:43Z</time>
      </trkpt>
      <trkpt lat="48.66395" lon="1.73878">
        <ele>141</ele>
        <time>2010-05-14T11:04:44Z</time>
      </trkpt>
      <trkpt lat="48.66394" lon="1.73881">
        <ele>141</ele>
        <time>2010-05-14T11:04:45Z</time>
      </trkpt>
      <trkpt lat="48.66393" lon="1.73884">
        <ele>141</ele>
        <time>2010-05-14T11:04:47Z</time>
      </trkpt>
      <trkpt lat="48.66391" lon="1.73886">
        <ele>141</ele>
        <time>2010-05-14T11:04:49Z</time>
      </trkpt>
      <trkpt lat="48.66391" lon="1.73888">
        <ele>141</ele>
        <time>2010-05-14T11:04:50Z</time>
      </trkpt>
      <trkpt lat="48.6639" lon="1.7389">
        <ele>141</ele>
        <time>2010-05-14T11:04:51Z</time>
      </trkpt>
      <trkpt lat="48.66388" lon="1.73893">
        <ele>141</ele>
        <time>2010-05-14T11:04:53Z</time>
      </trkpt>
      <trkpt lat="48.66387" lon="1.73894">
        <ele>141</ele>
        <time>2010-05-14T11:04:54Z</time>
      </trkpt>
      <trkpt lat="48.66385" lon="1.73896">
        <ele>141</ele>
        <time>2010-05-14T11:04:55Z</time>
      </trkpt>
      <trkpt lat="48.66384" lon="1.73899">
        <ele>141</ele>
        <time>2010-05-14T11:04:57Z</time>
      </trkpt>
      <trkpt lat="48.66382" lon="1.73902">
        <ele>141</ele>
        <time>2010-05-14T11:05:00Z</time>
      </trkpt>
      <trkpt lat="48.66379" lon="1.73907">
        <ele>141</ele>
        <time>2010-05-14T11:05:02Z</time>
      </trkpt>
      <trkpt lat="48.66376" lon="1.73912">
        <ele>141</ele>
        <time>2010-05-14T11:05:03Z</time>
      </trkpt>
      <trkpt lat="48.66374" lon="1.73919">
        <ele>141</ele>
        <time>2010-05-14T11:05:05Z</time>
      </trkpt>
      <trkpt lat="48.66372" lon="1.73923">
        <ele>141</ele>
        <time>2010-05-14T11:05:06Z</time>
      </trkpt>
      <trkpt lat="48.66372" lon="1.73927">
        <ele>141</ele>
        <time>2010-05-14T11:05:07Z</time>
      </trkpt>
      <trkpt lat="48.66371" lon="1.7393">
        <ele>141</ele>
        <time>2010-05-14T11:05:08Z</time>
      </trkpt>
      <trkpt lat="48.66369" lon="1.73936">
        <ele>141</ele>
        <time>2010-05-14T11:05:09Z</time>
      </trkpt>
      <trkpt lat="48.66368" lon="1.7394">
        <ele>141</ele>
        <time>2010-05-14T11:05:10Z</time>
      </trkpt>
      <trkpt lat="48.66366" lon="1.73944">
        <ele>142</ele>
        <time>2010-05-14T11:05:12Z</time>
      </trkpt>
      <trkpt lat="48.66365" lon="1.73947">
        <ele>143</ele>
        <time>2010-05-14T11:05:13Z</time>
      </trkpt>
      <trkpt lat="48.66362" lon="1.73952">
        <ele>144</ele>
        <time>2010-05-14T11:05:14Z</time>
      </trkpt>
      <trkpt lat="48.66362" lon="1.73955">
        <ele>145</ele>
        <time>2010-05-14T11:05:15Z</time>
      </trkpt>
      <trkpt lat="48.66353" lon="1.73972">
        <ele>150</ele>
        <time>2010-05-14T11:05:21Z</time>
      </trkpt>
      <trkpt lat="48.66349" lon="1.73976">
        <ele>151</ele>
        <time>2010-05-14T11:05:22Z</time>
      </trkpt>
      <trkpt lat="48.66345" lon="1.7398">
        <ele>154</ele>
        <time>2010-05-14T11:05:25Z</time>
      </trkpt>
      <trkpt lat="48.66342" lon="1.73984">
        <ele>156</ele>
        <time>2010-05-14T11:05:29Z</time>
      </trkpt>
      <trkpt lat="48.6634" lon="1.73984">
        <ele>157</ele>
        <time>2010-05-14T11:05:30Z</time>
      </trkpt>
      <trkpt lat="48.66339" lon="1.73987">
        <ele>158</ele>
        <time>2010-05-14T11:05:33Z</time>
      </trkpt>
      <trkpt lat="48.66337" lon="1.73993">
        <ele>158</ele>
        <time>2010-05-14T11:05:34Z</time>
      </trkpt>
      <trkpt lat="48.66336" lon="1.73997">
        <ele>159</ele>
        <time>2010-05-14T11:05:35Z</time>
      </trkpt>
      <trkpt lat="48.66333" lon="1.74">
        <ele>159</ele>
        <time>2010-05-14T11:05:36Z</time>
      </trkpt>
      <trkpt lat="48.66331" lon="1.74003">
        <ele>159</ele>
        <time>2010-05-14T11:05:37Z</time>
      </trkpt>
      <trkpt lat="48.66329" lon="1.74005">
        <ele>159</ele>
        <time>2010-05-14T11:05:38Z</time>
      </trkpt>
      <trkpt lat="48.66328" lon="1.74008">
        <ele>159</ele>
        <time>2010-05-14T11:05:39Z</time>
      </trkpt>
      <trkpt lat="48.66327" lon="1.7401">
        <ele>159</ele>
        <time>2010-05-14T11:05:40Z</time>
      </trkpt>
      <trkpt lat="48.66326" lon="1.74012">
        <ele>159</ele>
        <time>2010-05-14T11:05:41Z</time>
      </trkpt>
      <trkpt lat="48.66324" lon="1.74015">
        <ele>159</ele>
        <time>2010-05-14T11:05:44Z</time>
      </trkpt>
      <trkpt lat="48.66323" lon="1.74017">
        <ele>158</ele>
        <time>2010-05-14T11:05:45Z</time>
      </trkpt>
      <trkpt lat="48.66321" lon="1.74019">
        <ele>158</ele>
        <time>2010-05-14T11:05:46Z</time>
      </trkpt>
      <trkpt lat="48.6632" lon="1.74021">
        <ele>157</ele>
        <time>2010-05-14T11:05:47Z</time>
      </trkpt>
      <trkpt lat="48.6632" lon="1.74024">
        <ele>156</ele>
        <time>2010-05-14T11:05:48Z</time>
      </trkpt>
      <trkpt lat="48.66319" lon="1.74025">
        <ele>153</ele>
        <time>2010-05-14T11:05:52Z</time>
      </trkpt>
      <trkpt lat="48.66318" lon="1.74027">
        <ele>151</ele>
        <time>2010-05-14T11:05:54Z</time>
      </trkpt>
      <trkpt lat="48.6632" lon="1.74027">
        <ele>148</ele>
        <time>2010-05-14T11:05:57Z</time>
      </trkpt>
      <trkpt lat="48.6631" lon="1.74029">
        <ele>144</ele>
        <time>2010-05-14T11:06:05Z</time>
      </trkpt>
      <trkpt lat="48.66307" lon="1.7403">
        <ele>144</ele>
        <time>2010-05-14T11:06:06Z</time>
      </trkpt>
      <trkpt lat="48.66305" lon="1.7403">
        <ele>144</ele>
        <time>2010-05-14T11:06:07Z</time>
      </trkpt>
      <trkpt lat="48.66287" lon="1.74039">
        <ele>148</ele>
        <time>2010-05-14T11:06:16Z</time>
      </trkpt>
      <trkpt lat="48.66288" lon="1.74036">
        <ele>148</ele>
        <time>2010-05-14T11:06:16Z</time>
      </trkpt>
      <trkpt lat="48.66288" lon="1.74035">
        <ele>149</ele>
        <time>2010-05-14T11:06:18Z</time>
      </trkpt>
      <trkpt lat="48.66287" lon="1.74033">
        <ele>150</ele>
        <time>2010-05-14T11:06:19Z</time>
      </trkpt>
      <trkpt lat="48.66285" lon="1.74034">
        <ele>150</ele>
        <time>2010-05-14T11:06:20Z</time>
      </trkpt>
      <trkpt lat="48.66268" lon="1.74026">
        <ele>152</ele>
        <time>2010-05-14T11:06:32Z</time>
      </trkpt>
      <trkpt lat="48.66264" lon="1.74022">
        <ele>153</ele>
        <time>2010-05-14T11:06:33Z</time>
      </trkpt>
      <trkpt lat="48.66259" lon="1.74021">
        <ele>153</ele>
        <time>2010-05-14T11:06:33Z</time>
      </trkpt>
      <trkpt lat="48.66258" lon="1.7402">
        <ele>154</ele>
        <time>2010-05-14T11:06:35Z</time>
      </trkpt>
      <trkpt lat="48.66256" lon="1.74019">
        <ele>154</ele>
        <time>2010-05-14T11:06:38Z</time>
      </trkpt>
      <trkpt lat="48.66255" lon="1.74016">
        <ele>154</ele>
        <time>2010-05-14T11:06:39Z</time>
      </trkpt>
      <trkpt lat="48.66254" lon="1.74013">
        <ele>154</ele>
        <time>2010-05-14T11:06:40Z</time>
      </trkpt>
      <trkpt lat="48.66253" lon="1.7401">
        <ele>154</ele>
        <time>2010-05-14T11:06:40Z</time>
      </trkpt>
      <trkpt lat="48.66251" lon="1.74008">
        <ele>154</ele>
        <time>2010-05-14T11:06:41Z</time>
      </trkpt>
      <trkpt lat="48.6625" lon="1.74009">
        <ele>154</ele>
        <time>2010-05-14T11:06:43Z</time>
      </trkpt>
      <trkpt lat="48.66248" lon="1.74008">
        <ele>154</ele>
        <time>2010-05-14T11:06:44Z</time>
      </trkpt>
      <trkpt lat="48.66245" lon="1.74007">
        <ele>153</ele>
        <time>2010-05-14T11:06:47Z</time>
      </trkpt>
      <trkpt lat="48.66243" lon="1.74007">
        <ele>153</ele>
        <time>2010-05-14T11:06:48Z</time>
      </trkpt>
      <trkpt lat="48.66241" lon="1.74007">
        <ele>153</ele>
        <time>2010-05-14T11:06:49Z</time>
      </trkpt>
      <trkpt lat="48.66239" lon="1.74007">
        <ele>153</ele>
        <time>2010-05-14T11:06:50Z</time>
      </trkpt>
      <trkpt lat="48.66238" lon="1.74006">
        <ele>153</ele>
        <time>2010-05-14T11:06:51Z</time>
      </trkpt>
      <trkpt lat="48.66237" lon="1.74004">
        <ele>153</ele>
        <time>2010-05-14T11:06:52Z</time>
      </trkpt>
      <trkpt lat="48.66235" lon="1.74003">
        <ele>153</ele>
        <time>2010-05-14T11:06:53Z</time>
      </trkpt>
      <trkpt lat="48.66233" lon="1.74003">
        <ele>153</ele>
        <time>2010-05-14T11:06:54Z</time>
      </trkpt>
      <trkpt lat="48.66231" lon="1.74004">
        <ele>153</ele>
        <time>2010-05-14T11:06:55Z</time>
      </trkpt>
      <trkpt lat="48.66228" lon="1.74002">
        <ele>153</ele>
        <time>2010-05-14T11:06:56Z</time>
      </trkpt>
      <trkpt lat="48.66226" lon="1.74002">
        <ele>153</ele>
        <time>2010-05-14T11:06:57Z</time>
      </trkpt>
      <trkpt lat="48.66224" lon="1.74001">
        <ele>153</ele>
        <time>2010-05-14T11:06:58Z</time>
      </trkpt>
      <trkpt lat="48.66223" lon="1.74">
        <ele>153</ele>
        <time>2010-05-14T11:06:59Z</time>
      </trkpt>
      <trkpt lat="48.66221" lon="1.74">
        <ele>153</ele>
        <time>2010-05-14T11:07:00Z</time>
      </trkpt>
      <trkpt lat="48.6622" lon="1.73999">
        <ele>153</ele>
        <time>2010-05-14T11:07:01Z</time>
      </trkpt>
      <trkpt lat="48.66212" lon="1.73994">
        <ele>153</ele>
        <time>2010-05-14T11:07:06Z</time>
      </trkpt>
      <trkpt lat="48.66178" lon="1.74014">
        <ele>161</ele>
        <time>2010-05-14T11:07:24Z</time>
      </trkpt>
      <trkpt lat="48.66178" lon="1.74017">
        <ele>161</ele>
        <time>2010-05-14T11:07:25Z</time>
      </trkpt>
      <trkpt lat="48.66173" lon="1.74027">
        <ele>161</ele>
        <time>2010-05-14T11:07:30Z</time>
      </trkpt>
      <trkpt lat="48.66173" lon="1.74029">
        <ele>161</ele>
        <time>2010-05-14T11:07:31Z</time>
      </trkpt>
      <trkpt lat="48.66172" lon="1.74031">
        <ele>161</ele>
        <time>2010-05-14T11:07:32Z</time>
      </trkpt>
      <trkpt lat="48.66171" lon="1.74033">
        <ele>161</ele>
        <time>2010-05-14T11:07:33Z</time>
      </trkpt>
      <trkpt lat="48.66169" lon="1.74036">
        <ele>161</ele>
        <time>2010-05-14T11:07:34Z</time>
      </trkpt>
      <trkpt lat="48.66167" lon="1.74038">
        <ele>161</ele>
        <time>2010-05-14T11:07:35Z</time>
      </trkpt>
      <trkpt lat="48.66166" lon="1.7404">
        <ele>161</ele>
        <time>2010-05-14T11:07:37Z</time>
      </trkpt>
      <trkpt lat="48.66165" lon="1.74043">
        <ele>161</ele>
        <time>2010-05-14T11:07:39Z</time>
      </trkpt>
      <trkpt lat="48.66165" lon="1.74046">
        <ele>161</ele>
        <time>2010-05-14T11:07:40Z</time>
      </trkpt>
      <trkpt lat="48.66165" lon="1.74048">
        <ele>161</ele>
        <time>2010-05-14T11:07:41Z</time>
      </trkpt>
      <trkpt lat="48.66165" lon="1.74054">
        <ele>161</ele>
        <time>2010-05-14T11:07:45Z</time>
      </trkpt>
      <trkpt lat="48.66164" lon="1.74056">
        <ele>161</ele>
        <time>2010-05-14T11:07:46Z</time>
      </trkpt>
      <trkpt lat="48.66162" lon="1.74058">
        <ele>160</ele>
        <time>2010-05-14T11:07:48Z</time>
      </trkpt>
      <trkpt lat="48.6616" lon="1.74068">
        <ele>155</ele>
        <time>2010-05-14T11:07:53Z</time>
      </trkpt>
      <trkpt lat="48.66159" lon="1.7407">
        <ele>154</ele>
        <time>2010-05-14T11:07:54Z</time>
      </trkpt>
      <trkpt lat="48.66158" lon="1.74072">
        <ele>153</ele>
        <time>2010-05-14T11:07:55Z</time>
      </trkpt>
      <trkpt lat="48.66157" lon="1.74074">
        <ele>153</ele>
        <time>2010-05-14T11:07:56Z</time>
      </trkpt>
      <trkpt lat="48.66155" lon="1.74076">
        <ele>153</ele>
        <time>2010-05-14T11:07:57Z</time>
      </trkpt>
      <trkpt lat="48.66153" lon="1.74079">
        <ele>153</ele>
        <time>2010-05-14T11:07:58Z</time>
      </trkpt>
      <trkpt lat="48.66151" lon="1.74082">
        <ele>153</ele>
        <time>2010-05-14T11:07:59Z</time>
      </trkpt>
      <trkpt lat="48.66149" lon="1.74087">
        <ele>153</ele>
        <time>2010-05-14T11:08:02Z</time>
      </trkpt>
      <trkpt lat="48.66146" lon="1.74089">
        <ele>153</ele>
        <time>2010-05-14T11:08:04Z</time>
      </trkpt>
      <trkpt lat="48.6614" lon="1.741">
        <ele>153</ele>
        <time>2010-05-14T11:08:12Z</time>
      </trkpt>
      <trkpt lat="48.66138" lon="1.74104">
        <ele>153</ele>
        <time>2010-05-14T11:08:13Z</time>
      </trkpt>
      <trkpt lat="48.66136" lon="1.74106">
        <ele>153</ele>
        <time>2010-05-14T11:08:14Z</time>
      </trkpt>
      <trkpt lat="48.66135" lon="1.74112">
        <ele>154</ele>
        <time>2010-05-14T11:08:17Z</time>
      </trkpt>
      <trkpt lat="48.66134" lon="1.74114">
        <ele>154</ele>
        <time>2010-05-14T11:08:18Z</time>
      </trkpt>
      <trkpt lat="48.66133" lon="1.74116">
        <ele>154</ele>
        <time>2010-05-14T11:08:19Z</time>
      </trkpt>
      <trkpt lat="48.66132" lon="1.7412">
        <ele>154</ele>
        <time>2010-05-14T11:08:20Z</time>
      </trkpt>
      <trkpt lat="48.66119" lon="1.74136">
        <ele>154</ele>
        <time>2010-05-14T11:08:29Z</time>
      </trkpt>
      <trkpt lat="48.66114" lon="1.74142">
        <ele>154</ele>
        <time>2010-05-14T11:08:35Z</time>
      </trkpt>
      <trkpt lat="48.66112" lon="1.74143">
        <ele>154</ele>
        <time>2010-05-14T11:08:36Z</time>
      </trkpt>
      <trkpt lat="48.6611" lon="1.7415">
        <ele>154</ele>
        <time>2010-05-14T11:08:41Z</time>
      </trkpt>
      <trkpt lat="48.66111" lon="1.74152">
        <ele>154</ele>
        <time>2010-05-14T11:08:42Z</time>
      </trkpt>
      <trkpt lat="48.66108" lon="1.7416">
        <ele>154</ele>
        <time>2010-05-14T11:08:45Z</time>
      </trkpt>
      <trkpt lat="48.66107" lon="1.7417">
        <ele>154</ele>
        <time>2010-05-14T11:08:47Z</time>
      </trkpt>
      <trkpt lat="48.66102" lon="1.74178">
        <ele>154</ele>
        <time>2010-05-14T11:08:48Z</time>
      </trkpt>
      <trkpt lat="48.66099" lon="1.74185">
        <ele>154</ele>
        <time>2010-05-14T11:08:49Z</time>
      </trkpt>
      <trkpt lat="48.66097" lon="1.74187">
        <ele>154</ele>
        <time>2010-05-14T11:08:50Z</time>
      </trkpt>
      <trkpt lat="48.66095" lon="1.74188">
        <ele>154</ele>
        <time>2010-05-14T11:08:51Z</time>
      </trkpt>
      <trkpt lat="48.66092" lon="1.74191">
        <ele>154</ele>
        <time>2010-05-14T11:08:53Z</time>
      </trkpt>
      <trkpt lat="48.6609" lon="1.74193">
        <ele>154</ele>
        <time>2010-05-14T11:08:54Z</time>
      </trkpt>
      <trkpt lat="48.66088" lon="1.74196">
        <ele>154</ele>
        <time>2010-05-14T11:08:56Z</time>
      </trkpt>
      <trkpt lat="48.66087" lon="1.74196">
        <ele>154</ele>
        <time>2010-05-14T11:08:57Z</time>
      </trkpt>
      <trkpt lat="48.66085" lon="1.74197">
        <ele>154</ele>
        <time>2010-05-14T11:09:01Z</time>
      </trkpt>
      <trkpt lat="48.66087" lon="1.74199">
        <ele>153</ele>
        <time>2010-05-14T11:09:03Z</time>
      </trkpt>
      <trkpt lat="48.66085" lon="1.74201">
        <ele>153</ele>
        <time>2010-05-14T11:09:05Z</time>
      </trkpt>
      <trkpt lat="48.66084" lon="1.74199">
        <ele>153</ele>
        <time>2010-05-14T11:09:11Z</time>
      </trkpt>
      <trkpt lat="48.66082" lon="1.74203">
        <ele>153</ele>
        <time>2010-05-14T11:09:13Z</time>
      </trkpt>
      <trkpt lat="48.66081" lon="1.74209">
        <ele>153</ele>
        <time>2010-05-14T11:09:17Z</time>
      </trkpt>
      <trkpt lat="48.6608" lon="1.74213">
        <ele>153</ele>
        <time>2010-05-14T11:09:18Z</time>
      </trkpt>
      <trkpt lat="48.66078" lon="1.74215">
        <ele>153</ele>
        <time>2010-05-14T11:09:18Z</time>
      </trkpt>
      <trkpt lat="48.66077" lon="1.74218">
        <ele>153</ele>
        <time>2010-05-14T11:09:20Z</time>
      </trkpt>
      <trkpt lat="48.66075" lon="1.74225">
        <ele>154</ele>
        <time>2010-05-14T11:09:22Z</time>
      </trkpt>
      <trkpt lat="48.66072" lon="1.74227">
        <ele>155</ele>
        <time>2010-05-14T11:09:23Z</time>
      </trkpt>
      <trkpt lat="48.66071" lon="1.74229">
        <ele>155</ele>
        <time>2010-05-14T11:09:24Z</time>
      </trkpt>
      <trkpt lat="48.66069" lon="1.74233">
        <ele>155</ele>
        <time>2010-05-14T11:09:25Z</time>
      </trkpt>
      <trkpt lat="48.66067" lon="1.74236">
        <ele>156</ele>
        <time>2010-05-14T11:09:25Z</time>
      </trkpt>
      <trkpt lat="48.66064" lon="1.74237">
        <ele>157</ele>
        <time>2010-05-14T11:09:27Z</time>
      </trkpt>
      <trkpt lat="48.66062" lon="1.74239">
        <ele>158</ele>
        <time>2010-05-14T11:09:28Z</time>
      </trkpt>
      <trkpt lat="48.66061" lon="1.74243">
        <ele>161</ele>
        <time>2010-05-14T11:09:32Z</time>
      </trkpt>
      <trkpt lat="48.6606" lon="1.74244">
        <ele>161</ele>
        <time>2010-05-14T11:09:33Z</time>
      </trkpt>
      <trkpt lat="48.66059" lon="1.74247">
        <ele>161</ele>
        <time>2010-05-14T11:09:34Z</time>
      </trkpt>
      <trkpt lat="48.66059" lon="1.74249">
        <ele>161</ele>
        <time>2010-05-14T11:09:35Z</time>
      </trkpt>
      <trkpt lat="48.66058" lon="1.74252">
        <ele>161</ele>
        <time>2010-05-14T11:09:37Z</time>
      </trkpt>
      <trkpt lat="48.66057" lon="1.74255">
        <ele>161</ele>
        <time>2010-05-14T11:09:40Z</time>
      </trkpt>
      <trkpt lat="48.66057" lon="1.74257">
        <ele>161</ele>
        <time>2010-05-14T11:09:42Z</time>
      </trkpt>
      <trkpt lat="48.66057" lon="1.7426">
        <ele>161</ele>
        <time>2010-05-14T11:09:44Z</time>
      </trkpt>
      <trkpt lat="48.66057" lon="1.74262">
        <ele>161</ele>
        <time>2010-05-14T11:09:45Z</time>
      </trkpt>
      <trkpt lat="48.66056" lon="1.74265">
        <ele>161</ele>
        <time>2010-05-14T11:09:46Z</time>
      </trkpt>
      <trkpt lat="48.66056" lon="1.7427">
        <ele>161</ele>
        <time>2010-05-14T11:09:48Z</time>
      </trkpt>
      <trkpt lat="48.66054" lon="1.74272">
        <ele>161</ele>
        <time>2010-05-14T11:09:49Z</time>
      </trkpt>
      <trkpt lat="48.66054" lon="1.74274">
        <ele>161</ele>
        <time>2010-05-14T11:09:50Z</time>
      </trkpt>
      <trkpt lat="48.66053" lon="1.74276">
        <ele>160</ele>
        <time>2010-05-14T11:09:51Z</time>
      </trkpt>
      <trkpt lat="48.66052" lon="1.74278">
        <ele>159</ele>
        <time>2010-05-14T11:09:52Z</time>
      </trkpt>
      <trkpt lat="48.66048" lon="1.74283">
        <ele>158</ele>
        <time>2010-05-14T11:09:56Z</time>
      </trkpt>
      <trkpt lat="48.66045" lon="1.74284">
        <ele>157</ele>
        <time>2010-05-14T11:09:57Z</time>
      </trkpt>
      <trkpt lat="48.66043" lon="1.74285">
        <ele>157</ele>
        <time>2010-05-14T11:09:58Z</time>
      </trkpt>
      <trkpt lat="48.6604" lon="1.74289">
        <ele>157</ele>
        <time>2010-05-14T11:10:01Z</time>
      </trkpt>
      <trkpt lat="48.66039" lon="1.7429">
        <ele>157</ele>
        <time>2010-05-14T11:10:02Z</time>
      </trkpt>
      <trkpt lat="48.66039" lon="1.74292">
        <ele>157</ele>
        <time>2010-05-14T11:10:03Z</time>
      </trkpt>
      <trkpt lat="48.66038" lon="1.74295">
        <ele>157</ele>
        <time>2010-05-14T11:10:04Z</time>
      </trkpt>
      <trkpt lat="48.66038" lon="1.74297">
        <ele>157</ele>
        <time>2010-05-14T11:10:04Z</time>
      </trkpt>
      <trkpt lat="48.66037" lon="1.743">
        <ele>157</ele>
        <time>2010-05-14T11:10:06Z</time>
      </trkpt>
      <trkpt lat="48.66036" lon="1.74301">
        <ele>157</ele>
        <time>2010-05-14T11:10:07Z</time>
      </trkpt>
      <trkpt lat="48.66036" lon="1.74305">
        <ele>157</ele>
        <time>2010-05-14T11:10:07Z</time>
      </trkpt>
      <trkpt lat="48.66035" lon="1.74307">
        <ele>157</ele>
        <time>2010-05-14T11:10:09Z</time>
      </trkpt>
      <trkpt lat="48.66033" lon="1.7431">
        <ele>157</ele>
        <time>2010-05-14T11:10:10Z</time>
      </trkpt>
      <trkpt lat="48.66032" lon="1.74312">
        <ele>157</ele>
        <time>2010-05-14T11:10:11Z</time>
      </trkpt>
      <trkpt lat="48.66029" lon="1.74316">
        <ele>157</ele>
        <time>2010-05-14T11:10:15Z</time>
      </trkpt>
      <trkpt lat="48.66028" lon="1.74317">
        <ele>156</ele>
        <time>2010-05-14T11:10:19Z</time>
      </trkpt>
      <trkpt lat="48.66027" lon="1.74321">
        <ele>155</ele>
        <time>2010-05-14T11:10:20Z</time>
      </trkpt>
      <trkpt lat="48.66027" lon="1.74323">
        <ele>154</ele>
        <time>2010-05-14T11:10:21Z</time>
      </trkpt>
      <trkpt lat="48.66027" lon="1.74325">
        <ele>154</ele>
        <time>2010-05-14T11:10:22Z</time>
      </trkpt>
      <trkpt lat="48.66024" lon="1.74328">
        <ele>154</ele>
        <time>2010-05-14T11:10:23Z</time>
      </trkpt>
      <trkpt lat="48.66025" lon="1.74331">
        <ele>154</ele>
        <time>2010-05-14T11:10:24Z</time>
      </trkpt>
      <trkpt lat="48.66023" lon="1.74333">
        <ele>154</ele>
        <time>2010-05-14T11:10:25Z</time>
      </trkpt>
      <trkpt lat="48.66024" lon="1.74334">
        <ele>154</ele>
        <time>2010-05-14T11:10:26Z</time>
      </trkpt>
      <trkpt lat="48.66026" lon="1.74335">
        <ele>154</ele>
        <time>2010-05-14T11:10:27Z</time>
      </trkpt>
      <trkpt lat="48.66025" lon="1.74336">
        <ele>154</ele>
        <time>2010-05-14T11:10:28Z</time>
      </trkpt>
      <trkpt lat="48.66024" lon="1.74338">
        <ele>154</ele>
        <time>2010-05-14T11:10:30Z</time>
      </trkpt>
      <trkpt lat="48.66024" lon="1.74336">
        <ele>154</ele>
        <time>2010-05-14T11:10:34Z</time>
      </trkpt>
      <trkpt lat="48.66022" lon="1.74339">
        <ele>154</ele>
        <time>2010-05-14T11:10:36Z</time>
      </trkpt>
      <trkpt lat="48.66022" lon="1.74341">
        <ele>154</ele>
        <time>2010-05-14T11:10:38Z</time>
      </trkpt>
      <trkpt lat="48.6602" lon="1.74344">
        <ele>154</ele>
        <time>2010-05-14T11:10:39Z</time>
      </trkpt>
      <trkpt lat="48.66017" lon="1.74346">
        <ele>154</ele>
        <time>2010-05-14T11:10:40Z</time>
      </trkpt>
      <trkpt lat="48.66015" lon="1.74348">
        <ele>154</ele>
        <time>2010-05-14T11:10:41Z</time>
      </trkpt>
      <trkpt lat="48.66012" lon="1.7435">
        <ele>154</ele>
        <time>2010-05-14T11:10:42Z</time>
      </trkpt>
      <trkpt lat="48.6601" lon="1.74353">
        <ele>154</ele>
        <time>2010-05-14T11:10:43Z</time>
      </trkpt>
      <trkpt lat="48.66009" lon="1.74355">
        <ele>154</ele>
        <time>2010-05-14T11:10:44Z</time>
      </trkpt>
      <trkpt lat="48.66008" lon="1.74357">
        <ele>154</ele>
        <time>2010-05-14T11:10:45Z</time>
      </trkpt>
      <trkpt lat="48.66005" lon="1.74361">
        <ele>155</ele>
        <time>2010-05-14T11:10:48Z</time>
      </trkpt>
      <trkpt lat="48.66003" lon="1.74365">
        <ele>156</ele>
        <time>2010-05-14T11:10:49Z</time>
      </trkpt>
      <trkpt lat="48.66002" lon="1.74367">
        <ele>157</ele>
        <time>2010-05-14T11:10:49Z</time>
      </trkpt>
      <trkpt lat="48.66" lon="1.7437">
        <ele>157</ele>
        <time>2010-05-14T11:10:51Z</time>
      </trkpt>
      <trkpt lat="48.66001" lon="1.74373">
        <ele>157</ele>
        <time>2010-05-14T11:10:52Z</time>
      </trkpt>
      <trkpt lat="48.66" lon="1.74377">
        <ele>157</ele>
        <time>2010-05-14T11:10:53Z</time>
      </trkpt>
      <trkpt lat="48.66" lon="1.74379">
        <ele>157</ele>
        <time>2010-05-14T11:10:55Z</time>
      </trkpt>
      <trkpt lat="48.66" lon="1.74383">
        <ele>157</ele>
        <time>2010-05-14T11:10:57Z</time>
      </trkpt>
      <trkpt lat="48.65998" lon="1.74384">
        <ele>157</ele>
        <time>2010-05-14T11:10:59Z</time>
      </trkpt>
      <trkpt lat="48.65997" lon="1.74385">
        <ele>157</ele>
        <time>2010-05-14T11:11:00Z</time>
      </trkpt>
      <trkpt lat="48.65994" lon="1.74385">
        <ele>157</ele>
        <time>2010-05-14T11:11:03Z</time>
      </trkpt>
      <trkpt lat="48.65993" lon="1.74385">
        <ele>157</ele>
        <time>2010-05-14T11:11:05Z</time>
      </trkpt>
      <trkpt lat="48.65991" lon="1.74383">
        <ele>157</ele>
        <time>2010-05-14T11:11:07Z</time>
      </trkpt>
      <trkpt lat="48.65991" lon="1.74381">
        <ele>157</ele>
        <time>2010-05-14T11:11:08Z</time>
      </trkpt>
      <trkpt lat="48.65988" lon="1.74379">
        <ele>157</ele>
        <time>2010-05-14T11:11:11Z</time>
      </trkpt>
      <trkpt lat="48.65986" lon="1.74377">
        <ele>157</ele>
        <time>2010-05-14T11:11:12Z</time>
      </trkpt>
      <trkpt lat="48.65985" lon="1.7438">
        <ele>157</ele>
        <time>2010-05-14T11:11:13Z</time>
      </trkpt>
      <trkpt lat="48.65983" lon="1.7438">
        <ele>157</ele>
        <time>2010-05-14T11:11:14Z</time>
      </trkpt>
      <trkpt lat="48.65982" lon="1.74382">
        <ele>157</ele>
        <time>2010-05-14T11:11:16Z</time>
      </trkpt>
      <trkpt lat="48.6598" lon="1.74382">
        <ele>156</ele>
        <time>2010-05-14T11:11:17Z</time>
      </trkpt>
      <trkpt lat="48.65978" lon="1.74383">
        <ele>155</ele>
        <time>2010-05-14T11:11:18Z</time>
      </trkpt>
      <trkpt lat="48.65976" lon="1.74386">
        <ele>154</ele>
        <time>2010-05-14T11:11:23Z</time>
      </trkpt>
      <trkpt lat="48.65974" lon="1.74386">
        <ele>153</ele>
        <time>2010-05-14T11:11:24Z</time>
      </trkpt>
      <trkpt lat="48.65972" lon="1.74386">
        <ele>153</ele>
        <time>2010-05-14T11:11:24Z</time>
      </trkpt>
      <trkpt lat="48.65972" lon="1.74389">
        <ele>152</ele>
        <time>2010-05-14T11:11:27Z</time>
      </trkpt>
      <trkpt lat="48.6597" lon="1.74391">
        <ele>151</ele>
        <time>2010-05-14T11:11:27Z</time>
      </trkpt>
      <trkpt lat="48.65969" lon="1.74392">
        <ele>151</ele>
        <time>2010-05-14T11:11:29Z</time>
      </trkpt>
      <trkpt lat="48.65965" lon="1.74393">
        <ele>150</ele>
        <time>2010-05-14T11:11:31Z</time>
      </trkpt>
      <trkpt lat="48.65959" lon="1.74393">
        <ele>150</ele>
        <time>2010-05-14T11:11:32Z</time>
      </trkpt>
      <trkpt lat="48.65956" lon="1.74395">
        <ele>150</ele>
        <time>2010-05-14T11:11:34Z</time>
      </trkpt>
      <trkpt lat="48.65953" lon="1.74395">
        <ele>150</ele>
        <time>2010-05-14T11:11:35Z</time>
      </trkpt>
      <trkpt lat="48.65951" lon="1.74397">
        <ele>150</ele>
        <time>2010-05-14T11:11:35Z</time>
      </trkpt>
      <trkpt lat="48.65947" lon="1.74398">
        <ele>150</ele>
        <time>2010-05-14T11:11:39Z</time>
      </trkpt>
      <trkpt lat="48.65944" lon="1.74402">
        <ele>150</ele>
        <time>2010-05-14T11:11:41Z</time>
      </trkpt>
      <trkpt lat="48.65941" lon="1.74401">
        <ele>152</ele>
        <time>2010-05-14T11:11:44Z</time>
      </trkpt>
      <trkpt lat="48.65939" lon="1.744">
        <ele>153</ele>
        <time>2010-05-14T11:11:44Z</time>
      </trkpt>
      <trkpt lat="48.65937" lon="1.74401">
        <ele>154</ele>
        <time>2010-05-14T11:11:47Z</time>
      </trkpt>
      <trkpt lat="48.65924" lon="1.74408">
        <ele>154</ele>
        <time>2010-05-14T11:11:58Z</time>
      </trkpt>
      <trkpt lat="48.65922" lon="1.74407">
        <ele>154</ele>
        <time>2010-05-14T11:11:59Z</time>
      </trkpt>
      <trkpt lat="48.6592" lon="1.74409">
        <ele>154</ele>
        <time>2010-05-14T11:11:59Z</time>
      </trkpt>
      <trkpt lat="48.65919" lon="1.7441">
        <ele>154</ele>
        <time>2010-05-14T11:12:01Z</time>
      </trkpt>
      <trkpt lat="48.65917" lon="1.74411">
        <ele>154</ele>
        <time>2010-05-14T11:12:02Z</time>
      </trkpt>
      <trkpt lat="48.65914" lon="1.74412">
        <ele>153</ele>
        <time>2010-05-14T11:12:06Z</time>
      </trkpt>
      <trkpt lat="48.65913" lon="1.74412">
        <ele>153</ele>
        <time>2010-05-14T11:12:06Z</time>
      </trkpt>
      <trkpt lat="48.65911" lon="1.74412">
        <ele>153</ele>
        <time>2010-05-14T11:12:08Z</time>
      </trkpt>
      <trkpt lat="48.65908" lon="1.74413">
        <ele>152</ele>
        <time>2010-05-14T11:12:11Z</time>
      </trkpt>
      <trkpt lat="48.65906" lon="1.74412">
        <ele>152</ele>
        <time>2010-05-14T11:12:11Z</time>
      </trkpt>
      <trkpt lat="48.65901" lon="1.74412">
        <ele>152</ele>
        <time>2010-05-14T11:12:12Z</time>
      </trkpt>
      <trkpt lat="48.65899" lon="1.74412">
        <ele>152</ele>
        <time>2010-05-14T11:12:14Z</time>
      </trkpt>
      <trkpt lat="48.65897" lon="1.74412">
        <ele>152</ele>
        <time>2010-05-14T11:12:15Z</time>
      </trkpt>
      <trkpt lat="48.65895" lon="1.74411">
        <ele>152</ele>
        <time>2010-05-14T11:12:17Z</time>
      </trkpt>
      <trkpt lat="48.65894" lon="1.74413">
        <ele>152</ele>
        <time>2010-05-14T11:12:18Z</time>
      </trkpt>
      <trkpt lat="48.65892" lon="1.74414">
        <ele>152</ele>
        <time>2010-05-14T11:12:19Z</time>
      </trkpt>
      <trkpt lat="48.65892" lon="1.74416">
        <ele>152</ele>
        <time>2010-05-14T11:12:22Z</time>
      </trkpt>
      <trkpt lat="48.65891" lon="1.74417">
        <ele>152</ele>
        <time>2010-05-14T11:12:23Z</time>
      </trkpt>
      <trkpt lat="48.6589" lon="1.74418">
        <ele>152</ele>
        <time>2010-05-14T11:12:24Z</time>
      </trkpt>
      <trkpt lat="48.65887" lon="1.74418">
        <ele>152</ele>
        <time>2010-05-14T11:12:24Z</time>
      </trkpt>
      <trkpt lat="48.65886" lon="1.74419">
        <ele>152</ele>
        <time>2010-05-14T11:12:26Z</time>
      </trkpt>
      <trkpt lat="48.65883" lon="1.74421">
        <ele>152</ele>
        <time>2010-05-14T11:12:27Z</time>
      </trkpt>
      <trkpt lat="48.65881" lon="1.74422">
        <ele>152</ele>
        <time>2010-05-14T11:12:28Z</time>
      </trkpt>
      <trkpt lat="48.65879" lon="1.74424">
        <ele>152</ele>
        <time>2010-05-14T11:12:28Z</time>
      </trkpt>
      <trkpt lat="48.65877" lon="1.74424">
        <ele>152</ele>
        <time>2010-05-14T11:12:31Z</time>
      </trkpt>
      <trkpt lat="48.65875" lon="1.74426">
        <ele>152</ele>
        <time>2010-05-14T11:12:33Z</time>
      </trkpt>
      <trkpt lat="48.65873" lon="1.74426">
        <ele>152</ele>
        <time>2010-05-14T11:12:33Z</time>
      </trkpt>
      <trkpt lat="48.65871" lon="1.74428">
        <ele>152</ele>
        <time>2010-05-14T11:12:34Z</time>
      </trkpt>
      <trkpt lat="48.6587" lon="1.74428">
        <ele>152</ele>
        <time>2010-05-14T11:12:35Z</time>
      </trkpt>
      <trkpt lat="48.6587" lon="1.74426">
        <ele>152</ele>
        <time>2010-05-14T11:12:36Z</time>
      </trkpt>
      <trkpt lat="48.65868" lon="1.74427">
        <ele>152</ele>
        <time>2010-05-14T11:12:38Z</time>
      </trkpt>
      <trkpt lat="48.65867" lon="1.74427">
        <ele>152</ele>
        <time>2010-05-14T11:12:38Z</time>
      </trkpt>
      <trkpt lat="48.65865" lon="1.74427">
        <ele>152</ele>
        <time>2010-05-14T11:12:40Z</time>
      </trkpt>
      <trkpt lat="48.65864" lon="1.74428">
        <ele>152</ele>
        <time>2010-05-14T11:12:41Z</time>
      </trkpt>
      <trkpt lat="48.65862" lon="1.74428">
        <ele>152</ele>
        <time>2010-05-14T11:12:44Z</time>
      </trkpt>
      <trkpt lat="48.65861" lon="1.74429">
        <ele>152</ele>
        <time>2010-05-14T11:12:45Z</time>
      </trkpt>
      <trkpt lat="48.65859" lon="1.7443">
        <ele>152</ele>
        <time>2010-05-14T11:12:46Z</time>
      </trkpt>
      <trkpt lat="48.65857" lon="1.7443">
        <ele>153</ele>
        <time>2010-05-14T11:12:47Z</time>
      </trkpt>
      <trkpt lat="48.65855" lon="1.74431">
        <ele>153</ele>
        <time>2010-05-14T11:12:48Z</time>
      </trkpt>
      <trkpt lat="48.65855" lon="1.74433">
        <ele>153</ele>
        <time>2010-05-14T11:12:50Z</time>
      </trkpt>
      <trkpt lat="48.65853" lon="1.74435">
        <ele>153</ele>
        <time>2010-05-14T11:12:52Z</time>
      </trkpt>
      <trkpt lat="48.65852" lon="1.74436">
        <ele>153</ele>
        <time>2010-05-14T11:12:53Z</time>
      </trkpt>
      <trkpt lat="48.65853" lon="1.74433">
        <ele>153</ele>
        <time>2010-05-14T11:12:54Z</time>
      </trkpt>
      <trkpt lat="48.65854" lon="1.74432">
        <ele>153</ele>
        <time>2010-05-14T11:12:56Z</time>
      </trkpt>
      <trkpt lat="48.65853" lon="1.74436">
        <ele>153</ele>
        <time>2010-05-14T11:12:58Z</time>
      </trkpt>
      <trkpt lat="48.65852" lon="1.74438">
        <ele>153</ele>
        <time>2010-05-14T11:12:59Z</time>
      </trkpt>
      <trkpt lat="48.65849" lon="1.7444">
        <ele>153</ele>
        <time>2010-05-14T11:13:00Z</time>
      </trkpt>
      <trkpt lat="48.65848" lon="1.74441">
        <ele>153</ele>
        <time>2010-05-14T11:13:01Z</time>
      </trkpt>
      <trkpt lat="48.65848" lon="1.74443">
        <ele>153</ele>
        <time>2010-05-14T11:13:03Z</time>
      </trkpt>
      <trkpt lat="48.6585" lon="1.7444">
        <ele>153</ele>
        <time>2010-05-14T11:13:04Z</time>
      </trkpt>
      <trkpt lat="48.65849" lon="1.74438">
        <ele>153</ele>
        <time>2010-05-14T11:13:07Z</time>
      </trkpt>
      <trkpt lat="48.65848" lon="1.74437">
        <ele>153</ele>
        <time>2010-05-14T11:13:08Z</time>
      </trkpt>
      <trkpt lat="48.65846" lon="1.74438">
        <ele>153</ele>
        <time>2010-05-14T11:13:09Z</time>
      </trkpt>
      <trkpt lat="48.65844" lon="1.7444">
        <ele>153</ele>
        <time>2010-05-14T11:13:10Z</time>
      </trkpt>
      <trkpt lat="48.65843" lon="1.74443">
        <ele>153</ele>
        <time>2010-05-14T11:13:11Z</time>
      </trkpt>
      <trkpt lat="48.6584" lon="1.74449">
        <ele>153</ele>
        <time>2010-05-14T11:13:15Z</time>
      </trkpt>
      <trkpt lat="48.65836" lon="1.74453">
        <ele>153</ele>
        <time>2010-05-14T11:13:15Z</time>
      </trkpt>
      <trkpt lat="48.65833" lon="1.74456">
        <ele>153</ele>
        <time>2010-05-14T11:13:16Z</time>
      </trkpt>
      <trkpt lat="48.65832" lon="1.74458">
        <ele>153</ele>
        <time>2010-05-14T11:13:18Z</time>
      </trkpt>
      <trkpt lat="48.65832" lon="1.7446">
        <ele>153</ele>
        <time>2010-05-14T11:13:20Z</time>
      </trkpt>
      <trkpt lat="48.6583" lon="1.74461">
        <ele>153</ele>
        <time>2010-05-14T11:13:21Z</time>
      </trkpt>
      <trkpt lat="48.65829" lon="1.74464">
        <ele>153</ele>
        <time>2010-05-14T11:13:24Z</time>
      </trkpt>
      <trkpt lat="48.65828" lon="1.74466">
        <ele>154</ele>
        <time>2010-05-14T11:13:26Z</time>
      </trkpt>
      <trkpt lat="48.65827" lon="1.74467">
        <ele>154</ele>
        <time>2010-05-14T11:13:26Z</time>
      </trkpt>
      <trkpt lat="48.65824" lon="1.7447">
        <ele>156</ele>
        <time>2010-05-14T11:13:31Z</time>
      </trkpt>
      <trkpt lat="48.65817" lon="1.74472">
        <ele>159</ele>
        <time>2010-05-14T11:13:36Z</time>
      </trkpt>
      <trkpt lat="48.65816" lon="1.74474">
        <ele>160</ele>
        <time>2010-05-14T11:13:36Z</time>
      </trkpt>
      <trkpt lat="48.65811" lon="1.74474">
        <ele>161</ele>
        <time>2010-05-14T11:13:39Z</time>
      </trkpt>
      <trkpt lat="48.65812" lon="1.74476">
        <ele>161</ele>
        <time>2010-05-14T11:13:41Z</time>
      </trkpt>
      <trkpt lat="48.65813" lon="1.74473">
        <ele>161</ele>
        <time>2010-05-14T11:13:41Z</time>
      </trkpt>
      <trkpt lat="48.6581" lon="1.74473">
        <ele>161</ele>
        <time>2010-05-14T11:13:47Z</time>
      </trkpt>
      <trkpt lat="48.65804" lon="1.74476">
        <ele>161</ele>
        <time>2010-05-14T11:13:47Z</time>
      </trkpt>
      <trkpt lat="48.65801" lon="1.74478">
        <ele>161</ele>
        <time>2010-05-14T11:13:48Z</time>
      </trkpt>
      <trkpt lat="48.65798" lon="1.74479">
        <ele>161</ele>
        <time>2010-05-14T11:13:49Z</time>
      </trkpt>
      <trkpt lat="48.65797" lon="1.7448">
        <ele>161</ele>
        <time>2010-05-14T11:13:50Z</time>
      </trkpt>
      <trkpt lat="48.65796" lon="1.7448">
        <ele>161</ele>
        <time>2010-05-14T11:13:53Z</time>
      </trkpt>
      <trkpt lat="48.65797" lon="1.74478">
        <ele>161</ele>
        <time>2010-05-14T11:13:53Z</time>
      </trkpt>
      <trkpt lat="48.65795" lon="1.7448">
        <ele>161</ele>
        <time>2010-05-14T11:13:54Z</time>
      </trkpt>
      <trkpt lat="48.65793" lon="1.74479">
        <ele>160</ele>
        <time>2010-05-14T11:13:58Z</time>
      </trkpt>
      <trkpt lat="48.65788" lon="1.74479">
        <ele>160</ele>
        <time>2010-05-14T11:13:58Z</time>
      </trkpt>
      <trkpt lat="48.65785" lon="1.74481">
        <ele>160</ele>
        <time>2010-05-14T11:13:59Z</time>
      </trkpt>
      <trkpt lat="48.65785" lon="1.74484">
        <ele>160</ele>
        <time>2010-05-14T11:14:01Z</time>
      </trkpt>
      <trkpt lat="48.65783" lon="1.74488">
        <ele>160</ele>
        <time>2010-05-14T11:14:03Z</time>
      </trkpt>
      <trkpt lat="48.65783" lon="1.74491">
        <ele>160</ele>
        <time>2010-05-14T11:14:03Z</time>
      </trkpt>
      <trkpt lat="48.65784" lon="1.74498">
        <ele>160</ele>
        <time>2010-05-14T11:14:06Z</time>
      </trkpt>
      <trkpt lat="48.65784" lon="1.74508">
        <ele>160</ele>
        <time>2010-05-14T11:14:10Z</time>
      </trkpt>
      <trkpt lat="48.65784" lon="1.74516">
        <ele>160</ele>
        <time>2010-05-14T11:14:10Z</time>
      </trkpt>
      <trkpt lat="48.65782" lon="1.74521">
        <ele>160</ele>
        <time>2010-05-14T11:14:13Z</time>
      </trkpt>
      <trkpt lat="48.65777" lon="1.74526">
        <ele>160</ele>
        <time>2010-05-14T11:14:15Z</time>
      </trkpt>
      <trkpt lat="48.65776" lon="1.7453">
        <ele>160</ele>
        <time>2010-05-14T11:14:15Z</time>
      </trkpt>
      <trkpt lat="48.65772" lon="1.74533">
        <ele>160</ele>
        <time>2010-05-14T11:14:16Z</time>
      </trkpt>
      <trkpt lat="48.65767" lon="1.74545">
        <ele>160</ele>
        <time>2010-05-14T11:14:22Z</time>
      </trkpt>
      <trkpt lat="48.65765" lon="1.74547">
        <ele>160</ele>
        <time>2010-05-14T11:14:22Z</time>
      </trkpt>
      <trkpt lat="48.65764" lon="1.74549">
        <ele>160</ele>
        <time>2010-05-14T11:14:24Z</time>
      </trkpt>
      <trkpt lat="48.65762" lon="1.74551">
        <ele>160</ele>
        <time>2010-05-14T11:14:27Z</time>
      </trkpt>
      <trkpt lat="48.6576" lon="1.74553">
        <ele>160</ele>
        <time>2010-05-14T11:14:27Z</time>
      </trkpt>
      <trkpt lat="48.65759" lon="1.74556">
        <ele>160</ele>
        <time>2010-05-14T11:14:28Z</time>
      </trkpt>
      <trkpt lat="48.65758" lon="1.74558">
        <ele>160</ele>
        <time>2010-05-14T11:14:29Z</time>
      </trkpt>
      <trkpt lat="48.65759" lon="1.74563">
        <ele>160</ele>
        <time>2010-05-14T11:14:33Z</time>
      </trkpt>
      <trkpt lat="48.6576" lon="1.74566">
        <ele>160</ele>
        <time>2010-05-14T11:14:34Z</time>
      </trkpt>
      <trkpt lat="48.65757" lon="1.74571">
        <ele>160</ele>
        <time>2010-05-14T11:14:38Z</time>
      </trkpt>
      <trkpt lat="48.65754" lon="1.74573">
        <ele>160</ele>
        <time>2010-05-14T11:14:39Z</time>
      </trkpt>
      <trkpt lat="48.65752" lon="1.74576">
        <ele>160</ele>
        <time>2010-05-14T11:14:40Z</time>
      </trkpt>
      <trkpt lat="48.65752" lon="1.74579">
        <ele>158</ele>
        <time>2010-05-14T11:14:44Z</time>
      </trkpt>
      <trkpt lat="48.6575" lon="1.74582">
        <ele>157</ele>
        <time>2010-05-14T11:14:45Z</time>
      </trkpt>
      <trkpt lat="48.65748" lon="1.74584">
        <ele>157</ele>
        <time>2010-05-14T11:14:46Z</time>
      </trkpt>
      <trkpt lat="48.65747" lon="1.74584">
        <ele>157</ele>
        <time>2010-05-14T11:14:47Z</time>
      </trkpt>
      <trkpt lat="48.65745" lon="1.74587">
        <ele>157</ele>
        <time>2010-05-14T11:14:48Z</time>
      </trkpt>
      <trkpt lat="48.65745" lon="1.74589">
        <ele>157</ele>
        <time>2010-05-14T11:14:49Z</time>
      </trkpt>
      <trkpt lat="48.65741" lon="1.74594">
        <ele>157</ele>
        <time>2010-05-14T11:14:51Z</time>
      </trkpt>
      <trkpt lat="48.65741" lon="1.74596">
        <ele>157</ele>
        <time>2010-05-14T11:14:52Z</time>
      </trkpt>
      <trkpt lat="48.65742" lon="1.74596">
        <ele>157</ele>
        <time>2010-05-14T11:14:52Z</time>
      </trkpt>
      <trkpt lat="48.65742" lon="1.74599">
        <ele>157</ele>
        <time>2010-05-14T11:14:56Z</time>
      </trkpt>
      <trkpt lat="48.65741" lon="1.74601">
        <ele>157</ele>
        <time>2010-05-14T11:14:57Z</time>
      </trkpt>
      <trkpt lat="48.6574" lon="1.74604">
        <ele>157</ele>
        <time>2010-05-14T11:14:58Z</time>
      </trkpt>
      <trkpt lat="48.6574" lon="1.74606">
        <ele>157</ele>
        <time>2010-05-14T11:14:59Z</time>
      </trkpt>
      <trkpt lat="48.65739" lon="1.74609">
        <ele>157</ele>
        <time>2010-05-14T11:15:00Z</time>
      </trkpt>
      <trkpt lat="48.65738" lon="1.74612">
        <ele>157</ele>
        <time>2010-05-14T11:15:01Z</time>
      </trkpt>
      <trkpt lat="48.65737" lon="1.74615">
        <ele>157</ele>
        <time>2010-05-14T11:15:02Z</time>
      </trkpt>
      <trkpt lat="48.65737" lon="1.74617">
        <ele>156</ele>
        <time>2010-05-14T11:15:04Z</time>
      </trkpt>
      <trkpt lat="48.65736" lon="1.74619">
        <ele>155</ele>
        <time>2010-05-14T11:15:05Z</time>
      </trkpt>
      <trkpt lat="48.65734" lon="1.74622">
        <ele>155</ele>
        <time>2010-05-14T11:15:06Z</time>
      </trkpt>
      <trkpt lat="48.65734" lon="1.74624">
        <ele>154</ele>
        <time>2010-05-14T11:15:07Z</time>
      </trkpt>
      <trkpt lat="48.65732" lon="1.74628">
        <ele>154</ele>
        <time>2010-05-14T11:15:12Z</time>
      </trkpt>
      <trkpt lat="48.65731" lon="1.74631">
        <ele>154</ele>
        <time>2010-05-14T11:15:12Z</time>
      </trkpt>
      <trkpt lat="48.65728" lon="1.74634">
        <ele>154</ele>
        <time>2010-05-14T11:15:14Z</time>
      </trkpt>
      <trkpt lat="48.65725" lon="1.74638">
        <ele>154</ele>
        <time>2010-05-14T11:15:15Z</time>
      </trkpt>
      <trkpt lat="48.65724" lon="1.74639">
        <ele>154</ele>
        <time>2010-05-14T11:15:15Z</time>
      </trkpt>
      <trkpt lat="48.65722" lon="1.74642">
        <ele>155</ele>
        <time>2010-05-14T11:15:17Z</time>
      </trkpt>
      <trkpt lat="48.65721" lon="1.74646">
        <ele>155</ele>
        <time>2010-05-14T11:15:17Z</time>
      </trkpt>
      <trkpt lat="48.65719" lon="1.7465">
        <ele>155</ele>
        <time>2010-05-14T11:15:18Z</time>
      </trkpt>
      <trkpt lat="48.65717" lon="1.74652">
        <ele>156</ele>
        <time>2010-05-14T11:15:20Z</time>
      </trkpt>
      <trkpt lat="48.65717" lon="1.74657">
        <ele>157</ele>
        <time>2010-05-14T11:15:22Z</time>
      </trkpt>
      <trkpt lat="48.65717" lon="1.7466">
        <ele>158</ele>
        <time>2010-05-14T11:15:23Z</time>
      </trkpt>
      <trkpt lat="48.65715" lon="1.74664">
        <ele>159</ele>
        <time>2010-05-14T11:15:23Z</time>
      </trkpt>
      <trkpt lat="48.65715" lon="1.74666">
        <ele>160</ele>
        <time>2010-05-14T11:15:25Z</time>
      </trkpt>
      <trkpt lat="48.65714" lon="1.74668">
        <ele>161</ele>
        <time>2010-05-14T11:15:26Z</time>
      </trkpt>
      <trkpt lat="48.65713" lon="1.74672">
        <ele>161</ele>
        <time>2010-05-14T11:15:28Z</time>
      </trkpt>
      <trkpt lat="48.65711" lon="1.74674">
        <ele>161</ele>
        <time>2010-05-14T11:15:28Z</time>
      </trkpt>
      <trkpt lat="48.65708" lon="1.74679">
        <ele>162</ele>
        <time>2010-05-14T11:15:31Z</time>
      </trkpt>
      <trkpt lat="48.65705" lon="1.7468">
        <ele>163</ele>
        <time>2010-05-14T11:15:32Z</time>
      </trkpt>
      <trkpt lat="48.65703" lon="1.74682">
        <ele>164</ele>
        <time>2010-05-14T11:15:34Z</time>
      </trkpt>
      <trkpt lat="48.65702" lon="1.74685">
        <ele>165</ele>
        <time>2010-05-14T11:15:35Z</time>
      </trkpt>
      <trkpt lat="48.65702" lon="1.74687">
        <ele>165</ele>
        <time>2010-05-14T11:15:35Z</time>
      </trkpt>
      <trkpt lat="48.65701" lon="1.74691">
        <ele>165</ele>
        <time>2010-05-14T11:15:37Z</time>
      </trkpt>
      <trkpt lat="48.657" lon="1.74693">
        <ele>165</ele>
        <time>2010-05-14T11:15:39Z</time>
      </trkpt>
      <trkpt lat="48.65699" lon="1.74696">
        <ele>165</ele>
        <time>2010-05-14T11:15:39Z</time>
      </trkpt>
      <trkpt lat="48.65698" lon="1.74698">
        <ele>165</ele>
        <time>2010-05-14T11:15:41Z</time>
      </trkpt>
      <trkpt lat="48.65697" lon="1.74701">
        <ele>165</ele>
        <time>2010-05-14T11:15:42Z</time>
      </trkpt>
      <trkpt lat="48.65698" lon="1.74703">
        <ele>165</ele>
        <time>2010-05-14T11:15:45Z</time>
      </trkpt>
      <trkpt lat="48.65694" lon="1.74714">
        <ele>166</ele>
        <time>2010-05-14T11:15:50Z</time>
      </trkpt>
      <trkpt lat="48.65692" lon="1.74718">
        <ele>167</ele>
        <time>2010-05-14T11:15:50Z</time>
      </trkpt>
      <trkpt lat="48.6569" lon="1.74719">
        <ele>167</ele>
        <time>2010-05-14T11:15:51Z</time>
      </trkpt>
      <trkpt lat="48.65687" lon="1.74723">
        <ele>167</ele>
        <time>2010-05-14T11:15:52Z</time>
      </trkpt>
      <trkpt lat="48.65687" lon="1.7472">
        <ele>167</ele>
        <time>2010-05-14T11:15:55Z</time>
      </trkpt>
      <trkpt lat="48.65685" lon="1.74722">
        <ele>167</ele>
        <time>2010-05-14T11:15:56Z</time>
      </trkpt>
      <trkpt lat="48.65653" lon="1.74785">
        <ele>162</ele>
        <time>2010-05-14T11:16:33Z</time>
      </trkpt>
      <trkpt lat="48.65643" lon="1.74784">
        <ele>161</ele>
        <time>2010-05-14T11:16:43Z</time>
      </trkpt>
      <trkpt lat="48.65641" lon="1.74784">
        <ele>161</ele>
        <time>2010-05-14T11:16:43Z</time>
      </trkpt>
      <trkpt lat="48.65638" lon="1.74784">
        <ele>161</ele>
        <time>2010-05-14T11:16:44Z</time>
      </trkpt>
      <trkpt lat="48.65635" lon="1.74782">
        <ele>161</ele>
        <time>2010-05-14T11:16:45Z</time>
      </trkpt>
      <trkpt lat="48.65633" lon="1.74779">
        <ele>161</ele>
        <time>2010-05-14T11:16:46Z</time>
      </trkpt>
      <trkpt lat="48.65631" lon="1.74777">
        <ele>161</ele>
        <time>2010-05-14T11:16:48Z</time>
      </trkpt>
      <trkpt lat="48.6563" lon="1.74771">
        <ele>161</ele>
        <time>2010-05-14T11:16:49Z</time>
      </trkpt>
      <trkpt lat="48.65627" lon="1.74766">
        <ele>162</ele>
        <time>2010-05-14T11:16:53Z</time>
      </trkpt>
      <trkpt lat="48.65625" lon="1.74764">
        <ele>163</ele>
        <time>2010-05-14T11:16:53Z</time>
      </trkpt>
      <trkpt lat="48.65623" lon="1.74762">
        <ele>164</ele>
        <time>2010-05-14T11:16:54Z</time>
      </trkpt>
      <trkpt lat="48.65621" lon="1.74759">
        <ele>165</ele>
        <time>2010-05-14T11:16:55Z</time>
      </trkpt>
      <trkpt lat="48.65609" lon="1.74728">
        <ele>177</ele>
        <time>2010-05-14T11:17:11Z</time>
      </trkpt>
      <trkpt lat="48.65608" lon="1.74726">
        <ele>177</ele>
        <time>2010-05-14T11:17:11Z</time>
      </trkpt>
      <trkpt lat="48.65608" lon="1.74724">
        <ele>178</ele>
        <time>2010-05-14T11:17:12Z</time>
      </trkpt>
      <trkpt lat="48.65606" lon="1.74712">
        <ele>183</ele>
        <time>2010-05-14T11:17:18Z</time>
      </trkpt>
      <trkpt lat="48.65599" lon="1.74707">
        <ele>184</ele>
        <time>2010-05-14T11:17:23Z</time>
      </trkpt>
      <trkpt lat="48.65598" lon="1.747">
        <ele>184</ele>
        <time>2010-05-14T11:17:24Z</time>
      </trkpt>
      <trkpt lat="48.65586" lon="1.7469">
        <ele>185</ele>
        <time>2010-05-14T11:17:30Z</time>
      </trkpt>
      <trkpt lat="48.65588" lon="1.74685">
        <ele>185</ele>
        <time>2010-05-14T11:17:33Z</time>
      </trkpt>
      <trkpt lat="48.65588" lon="1.74683">
        <ele>185</ele>
        <time>2010-05-14T11:17:34Z</time>
      </trkpt>
      <trkpt lat="48.65587" lon="1.7468">
        <ele>185</ele>
        <time>2010-05-14T11:17:36Z</time>
      </trkpt>
      <trkpt lat="48.65586" lon="1.74678">
        <ele>185</ele>
        <time>2010-05-14T11:17:36Z</time>
      </trkpt>
      <trkpt lat="48.65586" lon="1.74676">
        <ele>184</ele>
        <time>2010-05-14T11:17:37Z</time>
      </trkpt>
      <trkpt lat="48.65588" lon="1.74673">
        <ele>182</ele>
        <time>2010-05-14T11:17:39Z</time>
      </trkpt>
      <trkpt lat="48.65588" lon="1.74669">
        <ele>181</ele>
        <time>2010-05-14T11:17:41Z</time>
      </trkpt>
      <trkpt lat="48.65587" lon="1.74666">
        <ele>180</ele>
        <time>2010-05-14T11:17:42Z</time>
      </trkpt>
      <trkpt lat="48.6559" lon="1.74645">
        <ele>174</ele>
        <time>2010-05-14T11:17:53Z</time>
      </trkpt>
      <trkpt lat="48.65587" lon="1.74644">
        <ele>174</ele>
        <time>2010-05-14T11:17:54Z</time>
      </trkpt>
      <trkpt lat="48.65584" lon="1.74641">
        <ele>174</ele>
        <time>2010-05-14T11:17:55Z</time>
      </trkpt>
      <trkpt lat="48.65567" lon="1.74618">
        <ele>176</ele>
        <time>2010-05-14T11:18:06Z</time>
      </trkpt>
      <trkpt lat="48.65565" lon="1.74616">
        <ele>176</ele>
        <time>2010-05-14T11:18:07Z</time>
      </trkpt>
      <trkpt lat="48.65562" lon="1.74615">
        <ele>176</ele>
        <time>2010-05-14T11:18:08Z</time>
      </trkpt>
      <trkpt lat="48.65558" lon="1.74613">
        <ele>176</ele>
        <time>2010-05-14T11:18:09Z</time>
      </trkpt>
      <trkpt lat="48.65558" lon="1.7461">
        <ele>176</ele>
        <time>2010-05-14T11:18:10Z</time>
      </trkpt>
      <trkpt lat="48.65554" lon="1.74608">
        <ele>176</ele>
        <time>2010-05-14T11:18:12Z</time>
      </trkpt>
      <trkpt lat="48.65553" lon="1.74605">
        <ele>176</ele>
        <time>2010-05-14T11:18:13Z</time>
      </trkpt>
      <trkpt lat="48.65551" lon="1.74604">
        <ele>176</ele>
        <time>2010-05-14T11:18:14Z</time>
      </trkpt>
      <trkpt lat="48.65551" lon="1.74601">
        <ele>176</ele>
        <time>2010-05-14T11:18:18Z</time>
      </trkpt>
      <trkpt lat="48.65547" lon="1.74599">
        <ele>169</ele>
        <time>2010-05-14T11:18:27Z</time>
      </trkpt>
      <trkpt lat="48.65535" lon="1.74594">
        <ele>165</ele>
        <time>2010-05-14T11:18:31Z</time>
      </trkpt>
      <trkpt lat="48.65533" lon="1.74594">
        <ele>164</ele>
        <time>2010-05-14T11:18:32Z</time>
      </trkpt>
      <trkpt lat="48.65526" lon="1.74593">
        <ele>163</ele>
        <time>2010-05-14T11:18:37Z</time>
      </trkpt>
      <trkpt lat="48.65524" lon="1.74593">
        <ele>163</ele>
        <time>2010-05-14T11:18:38Z</time>
      </trkpt>
      <trkpt lat="48.6552" lon="1.74593">
        <ele>163</ele>
        <time>2010-05-14T11:18:41Z</time>
      </trkpt>
      <trkpt lat="48.65518" lon="1.74594">
        <ele>163</ele>
        <time>2010-05-14T11:18:42Z</time>
      </trkpt>
      <trkpt lat="48.65517" lon="1.74596">
        <ele>163</ele>
        <time>2010-05-14T11:18:43Z</time>
      </trkpt>
      <trkpt lat="48.65516" lon="1.74593">
        <ele>163</ele>
        <time>2010-05-14T11:18:44Z</time>
      </trkpt>
      <trkpt lat="48.65514" lon="1.7459">
        <ele>164</ele>
        <time>2010-05-14T11:18:45Z</time>
      </trkpt>
      <trkpt lat="48.65513" lon="1.7459">
        <ele>165</ele>
        <time>2010-05-14T11:18:46Z</time>
      </trkpt>
      <trkpt lat="48.65511" lon="1.7459">
        <ele>165</ele>
        <time>2010-05-14T11:18:48Z</time>
      </trkpt>
      <trkpt lat="48.65509" lon="1.7459">
        <ele>165</ele>
        <time>2010-05-14T11:18:48Z</time>
      </trkpt>
      <trkpt lat="48.65504" lon="1.7459">
        <ele>165</ele>
        <time>2010-05-14T11:18:52Z</time>
      </trkpt>
      <trkpt lat="48.65501" lon="1.74588">
        <ele>165</ele>
        <time>2010-05-14T11:18:54Z</time>
      </trkpt>
      <trkpt lat="48.655" lon="1.74586">
        <ele>165</ele>
        <time>2010-05-14T11:18:56Z</time>
      </trkpt>
      <trkpt lat="48.655" lon="1.74585">
        <ele>165</ele>
        <time>2010-05-14T11:18:58Z</time>
      </trkpt>
      <trkpt lat="48.65502" lon="1.74583">
        <ele>165</ele>
        <time>2010-05-14T11:18:59Z</time>
      </trkpt>
      <trkpt lat="48.65504" lon="1.7458">
        <ele>166</ele>
        <time>2010-05-14T11:19:01Z</time>
      </trkpt>
      <trkpt lat="48.65506" lon="1.74574">
        <ele>166</ele>
        <time>2010-05-14T11:19:04Z</time>
      </trkpt>
      <trkpt lat="48.65509" lon="1.74572">
        <ele>167</ele>
        <time>2010-05-14T11:19:05Z</time>
      </trkpt>
      <trkpt lat="48.65512" lon="1.7457">
        <ele>167</ele>
        <time>2010-05-14T11:19:06Z</time>
      </trkpt>
      <trkpt lat="48.65514" lon="1.7457">
        <ele>167</ele>
        <time>2010-05-14T11:19:07Z</time>
      </trkpt>
      <trkpt lat="48.65513" lon="1.7457">
        <ele>168</ele>
        <time>2010-05-14T11:19:08Z</time>
      </trkpt>
      <trkpt lat="48.65514" lon="1.74568">
        <ele>168</ele>
        <time>2010-05-14T11:19:09Z</time>
      </trkpt>
      <trkpt lat="48.65517" lon="1.74568">
        <ele>169</ele>
        <time>2010-05-14T11:19:11Z</time>
      </trkpt>
      <trkpt lat="48.65518" lon="1.74566">
        <ele>169</ele>
        <time>2010-05-14T11:19:12Z</time>
      </trkpt>
      <trkpt lat="48.65517" lon="1.74563">
        <ele>170</ele>
        <time>2010-05-14T11:19:13Z</time>
      </trkpt>
      <trkpt lat="48.65517" lon="1.74561">
        <ele>171</ele>
        <time>2010-05-14T11:19:15Z</time>
      </trkpt>
      <trkpt lat="48.65517" lon="1.74559">
        <ele>172</ele>
        <time>2010-05-14T11:19:15Z</time>
      </trkpt>
      <trkpt lat="48.65516" lon="1.74556">
        <ele>173</ele>
        <time>2010-05-14T11:19:16Z</time>
      </trkpt>
      <trkpt lat="48.65515" lon="1.74554">
        <ele>174</ele>
        <time>2010-05-14T11:19:17Z</time>
      </trkpt>
      <trkpt lat="48.65512" lon="1.74554">
        <ele>175</ele>
        <time>2010-05-14T11:19:18Z</time>
      </trkpt>
      <trkpt lat="48.65508" lon="1.74549">
        <ele>179</ele>
        <time>2010-05-14T11:19:22Z</time>
      </trkpt>
      <trkpt lat="48.65497" lon="1.74523">
        <ele>180</ele>
        <time>2010-05-14T11:19:36Z</time>
      </trkpt>
      <trkpt lat="48.65496" lon="1.7452">
        <ele>180</ele>
        <time>2010-05-14T11:19:37Z</time>
      </trkpt>
      <trkpt lat="48.65495" lon="1.74518">
        <ele>180</ele>
        <time>2010-05-14T11:19:38Z</time>
      </trkpt>
      <trkpt lat="48.65494" lon="1.74517">
        <ele>181</ele>
        <time>2010-05-14T11:19:39Z</time>
      </trkpt>
      <trkpt lat="48.65492" lon="1.74516">
        <ele>181</ele>
        <time>2010-05-14T11:19:40Z</time>
      </trkpt>
      <trkpt lat="48.65491" lon="1.74514">
        <ele>182</ele>
        <time>2010-05-14T11:19:41Z</time>
      </trkpt>
      <trkpt lat="48.65492" lon="1.74512">
        <ele>183</ele>
        <time>2010-05-14T11:19:43Z</time>
      </trkpt>
      <trkpt lat="48.65491" lon="1.74511">
        <ele>183</ele>
        <time>2010-05-14T11:19:44Z</time>
      </trkpt>
      <trkpt lat="48.65489" lon="1.7451">
        <ele>183</ele>
        <time>2010-05-14T11:19:45Z</time>
      </trkpt>
      <trkpt lat="48.65488" lon="1.7451">
        <ele>183</ele>
        <time>2010-05-14T11:19:46Z</time>
      </trkpt>
      <trkpt lat="48.65484" lon="1.745">
        <ele>183</ele>
        <time>2010-05-14T11:19:51Z</time>
      </trkpt>
      <trkpt lat="48.65483" lon="1.74499">
        <ele>183</ele>
        <time>2010-05-14T11:19:52Z</time>
      </trkpt>
      <trkpt lat="48.65481" lon="1.74498">
        <ele>183</ele>
        <time>2010-05-14T11:19:54Z</time>
      </trkpt>
      <trkpt lat="48.65478" lon="1.74492">
        <ele>182</ele>
        <time>2010-05-14T11:19:59Z</time>
      </trkpt>
      <trkpt lat="48.65474" lon="1.74489">
        <ele>182</ele>
        <time>2010-05-14T11:20:01Z</time>
      </trkpt>
      <trkpt lat="48.65468" lon="1.74473">
        <ele>182</ele>
        <time>2010-05-14T11:20:05Z</time>
      </trkpt>
      <trkpt lat="48.65466" lon="1.74469">
        <ele>183</ele>
        <time>2010-05-14T11:20:06Z</time>
      </trkpt>
      <trkpt lat="48.65465" lon="1.74465">
        <ele>183</ele>
        <time>2010-05-14T11:20:07Z</time>
      </trkpt>
      <trkpt lat="48.65464" lon="1.74464">
        <ele>183</ele>
        <time>2010-05-14T11:20:09Z</time>
      </trkpt>
      <trkpt lat="48.65463" lon="1.74461">
        <ele>183</ele>
        <time>2010-05-14T11:20:10Z</time>
      </trkpt>
      <trkpt lat="48.65463" lon="1.7446">
        <ele>183</ele>
        <time>2010-05-14T11:20:11Z</time>
      </trkpt>
      <trkpt lat="48.65452" lon="1.7445">
        <ele>181</ele>
        <time>2010-05-14T11:20:18Z</time>
      </trkpt>
      <trkpt lat="48.65451" lon="1.7445">
        <ele>181</ele>
        <time>2010-05-14T11:20:19Z</time>
      </trkpt>
      <trkpt lat="48.65451" lon="1.74448">
        <ele>181</ele>
        <time>2010-05-14T11:20:20Z</time>
      </trkpt>
      <trkpt lat="48.65449" lon="1.74447">
        <ele>181</ele>
        <time>2010-05-14T11:20:21Z</time>
      </trkpt>
      <trkpt lat="48.65447" lon="1.74438">
        <ele>181</ele>
        <time>2010-05-14T11:20:26Z</time>
      </trkpt>
      <trkpt lat="48.65449" lon="1.74431">
        <ele>180</ele>
        <time>2010-05-14T11:20:27Z</time>
      </trkpt>
      <trkpt lat="48.65445" lon="1.74429">
        <ele>179</ele>
        <time>2010-05-14T11:20:28Z</time>
      </trkpt>
      <trkpt lat="48.65443" lon="1.74429">
        <ele>178</ele>
        <time>2010-05-14T11:20:29Z</time>
      </trkpt>
      <trkpt lat="48.65435" lon="1.74423">
        <ele>176</ele>
        <time>2010-05-14T11:20:34Z</time>
      </trkpt>
      <trkpt lat="48.65437" lon="1.74421">
        <ele>176</ele>
        <time>2010-05-14T11:20:35Z</time>
      </trkpt>
      <trkpt lat="48.65437" lon="1.74419">
        <ele>175</ele>
        <time>2010-05-14T11:20:36Z</time>
      </trkpt>
      <trkpt lat="48.65438" lon="1.74409">
        <ele>172</ele>
        <time>2010-05-14T11:20:39Z</time>
      </trkpt>
      <trkpt lat="48.65436" lon="1.74408">
        <ele>170</ele>
        <time>2010-05-14T11:20:41Z</time>
      </trkpt>
      <trkpt lat="48.65435" lon="1.74407">
        <ele>170</ele>
        <time>2010-05-14T11:20:42Z</time>
      </trkpt>
      <trkpt lat="48.65434" lon="1.74404">
        <ele>170</ele>
        <time>2010-05-14T11:20:45Z</time>
      </trkpt>
      <trkpt lat="48.65432" lon="1.74403">
        <ele>170</ele>
        <time>2010-05-14T11:20:45Z</time>
      </trkpt>
      <trkpt lat="48.6543" lon="1.74404">
        <ele>170</ele>
        <time>2010-05-14T11:20:47Z</time>
      </trkpt>
      <trkpt lat="48.65429" lon="1.74406">
        <ele>170</ele>
        <time>2010-05-14T11:20:48Z</time>
      </trkpt>
      <trkpt lat="48.65425" lon="1.74403">
        <ele>170</ele>
        <time>2010-05-14T11:20:53Z</time>
      </trkpt>
      <trkpt lat="48.65421" lon="1.74398">
        <ele>170</ele>
        <time>2010-05-14T11:20:55Z</time>
      </trkpt>
      <trkpt lat="48.65418" lon="1.74398">
        <ele>170</ele>
        <time>2010-05-14T11:20:56Z</time>
      </trkpt>
      <trkpt lat="48.65415" lon="1.74397">
        <ele>171</ele>
        <time>2010-05-14T11:20:57Z</time>
      </trkpt>
      <trkpt lat="48.65412" lon="1.74394">
        <ele>172</ele>
        <time>2010-05-14T11:20:58Z</time>
      </trkpt>
      <trkpt lat="48.65411" lon="1.7439">
        <ele>173</ele>
        <time>2010-05-14T11:20:59Z</time>
      </trkpt>
      <trkpt lat="48.65411" lon="1.74387">
        <ele>174</ele>
        <time>2010-05-14T11:21:00Z</time>
      </trkpt>
      <trkpt lat="48.6541" lon="1.74386">
        <ele>175</ele>
        <time>2010-05-14T11:21:01Z</time>
      </trkpt>
      <trkpt lat="48.65409" lon="1.74383">
        <ele>176</ele>
        <time>2010-05-14T11:21:02Z</time>
      </trkpt>
      <trkpt lat="48.65409" lon="1.7438">
        <ele>177</ele>
        <time>2010-05-14T11:21:03Z</time>
      </trkpt>
      <trkpt lat="48.65406" lon="1.74379">
        <ele>179</ele>
        <time>2010-05-14T11:21:05Z</time>
      </trkpt>
      <trkpt lat="48.65404" lon="1.74377">
        <ele>180</ele>
        <time>2010-05-14T11:21:06Z</time>
      </trkpt>
      <trkpt lat="48.65403" lon="1.74375">
        <ele>180</ele>
        <time>2010-05-14T11:21:07Z</time>
      </trkpt>
      <trkpt lat="48.654" lon="1.74366">
        <ele>180</ele>
        <time>2010-05-14T11:21:12Z</time>
      </trkpt>
      <trkpt lat="48.65398" lon="1.74366">
        <ele>180</ele>
        <time>2010-05-14T11:21:13Z</time>
      </trkpt>
      <trkpt lat="48.65396" lon="1.74363">
        <ele>180</ele>
        <time>2010-05-14T11:21:14Z</time>
      </trkpt>
      <trkpt lat="48.65397" lon="1.74361">
        <ele>180</ele>
        <time>2010-05-14T11:21:15Z</time>
      </trkpt>
      <trkpt lat="48.65396" lon="1.74358">
        <ele>180</ele>
        <time>2010-05-14T11:21:16Z</time>
      </trkpt>
      <trkpt lat="48.65395" lon="1.74356">
        <ele>180</ele>
        <time>2010-05-14T11:21:17Z</time>
      </trkpt>
      <trkpt lat="48.65393" lon="1.74355">
        <ele>179</ele>
        <time>2010-05-14T11:21:18Z</time>
      </trkpt>
      <trkpt lat="48.65392" lon="1.74353">
        <ele>179</ele>
        <time>2010-05-14T11:21:19Z</time>
      </trkpt>
      <trkpt lat="48.65391" lon="1.74352">
        <ele>178</ele>
        <time>2010-05-14T11:21:20Z</time>
      </trkpt>
      <trkpt lat="48.6539" lon="1.74349">
        <ele>178</ele>
        <time>2010-05-14T11:21:21Z</time>
      </trkpt>
      <trkpt lat="48.65388" lon="1.74346">
        <ele>178</ele>
        <time>2010-05-14T11:21:22Z</time>
      </trkpt>
      <trkpt lat="48.65386" lon="1.74345">
        <ele>178</ele>
        <time>2010-05-14T11:21:23Z</time>
      </trkpt>
      <trkpt lat="48.65383" lon="1.74344">
        <ele>178</ele>
        <time>2010-05-14T11:21:24Z</time>
      </trkpt>
      <trkpt lat="48.65381" lon="1.74343">
        <ele>178</ele>
        <time>2010-05-14T11:21:25Z</time>
      </trkpt>
      <trkpt lat="48.65378" lon="1.74342">
        <ele>178</ele>
        <time>2010-05-14T11:21:26Z</time>
      </trkpt>
      <trkpt lat="48.65377" lon="1.74341">
        <ele>178</ele>
        <time>2010-05-14T11:21:28Z</time>
      </trkpt>
      <trkpt lat="48.65376" lon="1.7434">
        <ele>178</ele>
        <time>2010-05-14T11:21:28Z</time>
      </trkpt>
      <trkpt lat="48.65375" lon="1.74338">
        <ele>178</ele>
        <time>2010-05-14T11:21:31Z</time>
      </trkpt>
      <trkpt lat="48.65375" lon="1.74335">
        <ele>178</ele>
        <time>2010-05-14T11:21:32Z</time>
      </trkpt>
      <trkpt lat="48.65376" lon="1.74331">
        <ele>177</ele>
        <time>2010-05-14T11:21:33Z</time>
      </trkpt>
      <trkpt lat="48.65376" lon="1.74328">
        <ele>176</ele>
        <time>2010-05-14T11:21:34Z</time>
      </trkpt>
      <trkpt lat="48.65371" lon="1.74321">
        <ele>173</ele>
        <time>2010-05-14T11:21:37Z</time>
      </trkpt>
      <trkpt lat="48.6537" lon="1.74318">
        <ele>172</ele>
        <time>2010-05-14T11:21:38Z</time>
      </trkpt>
      <trkpt lat="48.65368" lon="1.74316">
        <ele>172</ele>
        <time>2010-05-14T11:21:40Z</time>
      </trkpt>
      <trkpt lat="48.65367" lon="1.74313">
        <ele>172</ele>
        <time>2010-05-14T11:21:42Z</time>
      </trkpt>
      <trkpt lat="48.65366" lon="1.74311">
        <ele>172</ele>
        <time>2010-05-14T11:21:43Z</time>
      </trkpt>
      <trkpt lat="48.65365" lon="1.74309">
        <ele>172</ele>
        <time>2010-05-14T11:21:44Z</time>
      </trkpt>
      <trkpt lat="48.65362" lon="1.74305">
        <ele>172</ele>
        <time>2010-05-14T11:21:47Z</time>
      </trkpt>
      <trkpt lat="48.65358" lon="1.74304">
        <ele>173</ele>
        <time>2010-05-14T11:21:48Z</time>
      </trkpt>
      <trkpt lat="48.65355" lon="1.74305">
        <ele>174</ele>
        <time>2010-05-14T11:21:49Z</time>
      </trkpt>
      <trkpt lat="48.65356" lon="1.743">
        <ele>176</ele>
        <time>2010-05-14T11:21:52Z</time>
      </trkpt>
      <trkpt lat="48.65356" lon="1.74291">
        <ele>176</ele>
        <time>2010-05-14T11:21:59Z</time>
      </trkpt>
      <trkpt lat="48.65358" lon="1.74279">
        <ele>176</ele>
        <time>2010-05-14T11:22:02Z</time>
      </trkpt>
      <trkpt lat="48.65357" lon="1.74274">
        <ele>176</ele>
        <time>2010-05-14T11:22:05Z</time>
      </trkpt>
      <trkpt lat="48.65353" lon="1.74269">
        <ele>176</ele>
        <time>2010-05-14T11:22:06Z</time>
      </trkpt>
      <trkpt lat="48.65347" lon="1.74268">
        <ele>176</ele>
        <time>2010-05-14T11:22:07Z</time>
      </trkpt>
      <trkpt lat="48.65341" lon="1.7427">
        <ele>176</ele>
        <time>2010-05-14T11:22:08Z</time>
      </trkpt>
      <trkpt lat="48.65337" lon="1.7427">
        <ele>176</ele>
        <time>2010-05-14T11:22:09Z</time>
      </trkpt>
      <trkpt lat="48.65335" lon="1.74268">
        <ele>177</ele>
        <time>2010-05-14T11:22:10Z</time>
      </trkpt>
      <trkpt lat="48.65332" lon="1.74266">
        <ele>178</ele>
        <time>2010-05-14T11:22:11Z</time>
      </trkpt>
      <trkpt lat="48.65328" lon="1.74258">
        <ele>178</ele>
        <time>2010-05-14T11:22:15Z</time>
      </trkpt>
      <trkpt lat="48.65327" lon="1.74255">
        <ele>178</ele>
        <time>2010-05-14T11:22:16Z</time>
      </trkpt>
      <trkpt lat="48.65324" lon="1.74253">
        <ele>178</ele>
        <time>2010-05-14T11:22:19Z</time>
      </trkpt>
      <trkpt lat="48.6532" lon="1.74252">
        <ele>179</ele>
        <time>2010-05-14T11:22:20Z</time>
      </trkpt>
      <trkpt lat="48.65321" lon="1.74252">
        <ele>180</ele>
        <time>2010-05-14T11:22:21Z</time>
      </trkpt>
      <trkpt lat="48.65319" lon="1.74251">
        <ele>180</ele>
        <time>2010-05-14T11:22:22Z</time>
      </trkpt>
      <trkpt lat="48.65318" lon="1.7425">
        <ele>180</ele>
        <time>2010-05-14T11:22:24Z</time>
      </trkpt>
      <trkpt lat="48.65316" lon="1.74249">
        <ele>180</ele>
        <time>2010-05-14T11:22:25Z</time>
      </trkpt>
      <trkpt lat="48.65314" lon="1.74249">
        <ele>181</ele>
        <time>2010-05-14T11:22:26Z</time>
      </trkpt>
      <trkpt lat="48.65313" lon="1.74249">
        <ele>182</ele>
        <time>2010-05-14T11:22:28Z</time>
      </trkpt>
      <trkpt lat="48.65311" lon="1.74249">
        <ele>182</ele>
        <time>2010-05-14T11:22:29Z</time>
      </trkpt>
      <trkpt lat="48.65313" lon="1.74248">
        <ele>182</ele>
        <time>2010-05-14T11:22:33Z</time>
      </trkpt>
      <trkpt lat="48.65313" lon="1.74246">
        <ele>182</ele>
        <time>2010-05-14T11:22:34Z</time>
      </trkpt>
      <trkpt lat="48.65314" lon="1.74244">
        <ele>182</ele>
        <time>2010-05-14T11:22:35Z</time>
      </trkpt>
      <trkpt lat="48.65313" lon="1.7424">
        <ele>182</ele>
        <time>2010-05-14T11:22:36Z</time>
      </trkpt>
      <trkpt lat="48.65313" lon="1.74238">
        <ele>182</ele>
        <time>2010-05-14T11:22:37Z</time>
      </trkpt>
      <trkpt lat="48.65313" lon="1.74235">
        <ele>182</ele>
        <time>2010-05-14T11:22:38Z</time>
      </trkpt>
      <trkpt lat="48.65313" lon="1.74233">
        <ele>182</ele>
        <time>2010-05-14T11:22:39Z</time>
      </trkpt>
      <trkpt lat="48.65313" lon="1.74231">
        <ele>182</ele>
        <time>2010-05-14T11:22:40Z</time>
      </trkpt>
      <trkpt lat="48.6531" lon="1.74227">
        <ele>182</ele>
        <time>2010-05-14T11:22:43Z</time>
      </trkpt>
      <trkpt lat="48.6531" lon="1.74225">
        <ele>182</ele>
        <time>2010-05-14T11:22:44Z</time>
      </trkpt>
      <trkpt lat="48.65309" lon="1.74223">
        <ele>182</ele>
        <time>2010-05-14T11:22:45Z</time>
      </trkpt>
      <trkpt lat="48.653" lon="1.74202">
        <ele>181</ele>
        <time>2010-05-14T11:22:53Z</time>
      </trkpt>
      <trkpt lat="48.65298" lon="1.74201">
        <ele>179</ele>
        <time>2010-05-14T11:22:55Z</time>
      </trkpt>
      <trkpt lat="48.65297" lon="1.742">
        <ele>179</ele>
        <time>2010-05-14T11:22:56Z</time>
      </trkpt>
      <trkpt lat="48.65295" lon="1.74198">
        <ele>178</ele>
        <time>2010-05-14T11:22:57Z</time>
      </trkpt>
      <trkpt lat="48.65294" lon="1.74196">
        <ele>178</ele>
        <time>2010-05-14T11:22:58Z</time>
      </trkpt>
      <trkpt lat="48.65293" lon="1.74194">
        <ele>178</ele>
        <time>2010-05-14T11:22:59Z</time>
      </trkpt>
      <trkpt lat="48.65293" lon="1.74192">
        <ele>178</ele>
        <time>2010-05-14T11:23:00Z</time>
      </trkpt>
      <trkpt lat="48.65292" lon="1.74191">
        <ele>178</ele>
        <time>2010-05-14T11:23:01Z</time>
      </trkpt>
      <trkpt lat="48.6529" lon="1.74189">
        <ele>178</ele>
        <time>2010-05-14T11:23:02Z</time>
      </trkpt>
      <trkpt lat="48.65289" lon="1.74187">
        <ele>177</ele>
        <time>2010-05-14T11:23:03Z</time>
      </trkpt>
      <trkpt lat="48.65288" lon="1.74184">
        <ele>177</ele>
        <time>2010-05-14T11:23:04Z</time>
      </trkpt>
      <trkpt lat="48.65288" lon="1.74181">
        <ele>177</ele>
        <time>2010-05-14T11:23:06Z</time>
      </trkpt>
      <trkpt lat="48.65286" lon="1.74179">
        <ele>177</ele>
        <time>2010-05-14T11:23:07Z</time>
      </trkpt>
      <trkpt lat="48.65285" lon="1.74171">
        <ele>177</ele>
        <time>2010-05-14T11:23:11Z</time>
      </trkpt>
      <trkpt lat="48.65285" lon="1.74169">
        <ele>176</ele>
        <time>2010-05-14T11:23:12Z</time>
      </trkpt>
      <trkpt lat="48.65284" lon="1.74168">
        <ele>175</ele>
        <time>2010-05-14T11:23:13Z</time>
      </trkpt>
      <trkpt lat="48.65282" lon="1.74167">
        <ele>174</ele>
        <time>2010-05-14T11:23:14Z</time>
      </trkpt>
      <trkpt lat="48.6528" lon="1.74167">
        <ele>174</ele>
        <time>2010-05-14T11:23:15Z</time>
      </trkpt>
      <trkpt lat="48.65278" lon="1.74166">
        <ele>174</ele>
        <time>2010-05-14T11:23:16Z</time>
      </trkpt>
      <trkpt lat="48.65277" lon="1.74166">
        <ele>174</ele>
        <time>2010-05-14T11:23:17Z</time>
      </trkpt>
      <trkpt lat="48.65275" lon="1.74167">
        <ele>174</ele>
        <time>2010-05-14T11:23:19Z</time>
      </trkpt>
      <trkpt lat="48.65274" lon="1.74166">
        <ele>174</ele>
        <time>2010-05-14T11:23:21Z</time>
      </trkpt>
      <trkpt lat="48.65275" lon="1.74163">
        <ele>173</ele>
        <time>2010-05-14T11:23:22Z</time>
      </trkpt>
      <trkpt lat="48.65271" lon="1.74161">
        <ele>173</ele>
        <time>2010-05-14T11:23:24Z</time>
      </trkpt>
      <trkpt lat="48.65269" lon="1.74161">
        <ele>173</ele>
        <time>2010-05-14T11:23:25Z</time>
      </trkpt>
      <trkpt lat="48.65267" lon="1.74159">
        <ele>173</ele>
        <time>2010-05-14T11:23:26Z</time>
      </trkpt>
      <trkpt lat="48.65266" lon="1.74156">
        <ele>173</ele>
        <time>2010-05-14T11:23:27Z</time>
      </trkpt>
      <trkpt lat="48.65265" lon="1.74154">
        <ele>173</ele>
        <time>2010-05-14T11:23:28Z</time>
      </trkpt>
      <trkpt lat="48.65263" lon="1.74153">
        <ele>174</ele>
        <time>2010-05-14T11:23:29Z</time>
      </trkpt>
      <trkpt lat="48.65262" lon="1.74148">
        <ele>175</ele>
        <time>2010-05-14T11:23:32Z</time>
      </trkpt>
      <trkpt lat="48.65261" lon="1.74144">
        <ele>176</ele>
        <time>2010-05-14T11:23:33Z</time>
      </trkpt>
      <trkpt lat="48.6526" lon="1.74143">
        <ele>177</ele>
        <time>2010-05-14T11:23:34Z</time>
      </trkpt>
      <trkpt lat="48.65258" lon="1.74142">
        <ele>178</ele>
        <time>2010-05-14T11:23:35Z</time>
      </trkpt>
      <trkpt lat="48.65256" lon="1.74142">
        <ele>179</ele>
        <time>2010-05-14T11:23:37Z</time>
      </trkpt>
      <trkpt lat="48.65252" lon="1.74141">
        <ele>181</ele>
        <time>2010-05-14T11:23:39Z</time>
      </trkpt>
      <trkpt lat="48.6525" lon="1.74141">
        <ele>181</ele>
        <time>2010-05-14T11:23:40Z</time>
      </trkpt>
      <trkpt lat="48.65251" lon="1.74139">
        <ele>181</ele>
        <time>2010-05-14T11:23:41Z</time>
      </trkpt>
      <trkpt lat="48.6525" lon="1.74137">
        <ele>181</ele>
        <time>2010-05-14T11:23:42Z</time>
      </trkpt>
      <trkpt lat="48.6525" lon="1.74134">
        <ele>181</ele>
        <time>2010-05-14T11:23:43Z</time>
      </trkpt>
      <trkpt lat="48.65249" lon="1.74131">
        <ele>181</ele>
        <time>2010-05-14T11:23:44Z</time>
      </trkpt>
      <trkpt lat="48.65248" lon="1.74129">
        <ele>182</ele>
        <time>2010-05-14T11:23:46Z</time>
      </trkpt>
      <trkpt lat="48.65246" lon="1.74126">
        <ele>183</ele>
        <time>2010-05-14T11:23:47Z</time>
      </trkpt>
      <trkpt lat="48.65245" lon="1.74124">
        <ele>184</ele>
        <time>2010-05-14T11:23:48Z</time>
      </trkpt>
      <trkpt lat="48.65243" lon="1.74122">
        <ele>185</ele>
        <time>2010-05-14T11:23:50Z</time>
      </trkpt>
      <trkpt lat="48.65241" lon="1.7412">
        <ele>186</ele>
        <time>2010-05-14T11:23:52Z</time>
      </trkpt>
      <trkpt lat="48.65239" lon="1.74114">
        <ele>187</ele>
        <time>2010-05-14T11:23:55Z</time>
      </trkpt>
      <trkpt lat="48.65238" lon="1.74109">
        <ele>188</ele>
        <time>2010-05-14T11:23:56Z</time>
      </trkpt>
      <trkpt lat="48.65237" lon="1.74106">
        <ele>189</ele>
        <time>2010-05-14T11:23:57Z</time>
      </trkpt>
      <trkpt lat="48.65238" lon="1.74104">
        <ele>190</ele>
        <time>2010-05-14T11:23:59Z</time>
      </trkpt>
      <trkpt lat="48.65236" lon="1.741">
        <ele>190</ele>
        <time>2010-05-14T11:24:00Z</time>
      </trkpt>
      <trkpt lat="48.65235" lon="1.74099">
        <ele>190</ele>
        <time>2010-05-14T11:24:01Z</time>
      </trkpt>
      <trkpt lat="48.65233" lon="1.74099">
        <ele>190</ele>
        <time>2010-05-14T11:24:02Z</time>
      </trkpt>
      <trkpt lat="48.65232" lon="1.74096">
        <ele>190</ele>
        <time>2010-05-14T11:24:03Z</time>
      </trkpt>
      <trkpt lat="48.65231" lon="1.74096">
        <ele>190</ele>
        <time>2010-05-14T11:24:04Z</time>
      </trkpt>
      <trkpt lat="48.65229" lon="1.74096">
        <ele>190</ele>
        <time>2010-05-14T11:24:05Z</time>
      </trkpt>
      <trkpt lat="48.65227" lon="1.74096">
        <ele>190</ele>
        <time>2010-05-14T11:24:06Z</time>
      </trkpt>
      <trkpt lat="48.65225" lon="1.74096">
        <ele>190</ele>
        <time>2010-05-14T11:24:07Z</time>
      </trkpt>
      <trkpt lat="48.65223" lon="1.74096">
        <ele>190</ele>
        <time>2010-05-14T11:24:08Z</time>
      </trkpt>
      <trkpt lat="48.65222" lon="1.74092">
        <ele>190</ele>
        <time>2010-05-14T11:24:10Z</time>
      </trkpt>
      <trkpt lat="48.65222" lon="1.74088">
        <ele>190</ele>
        <time>2010-05-14T11:24:11Z</time>
      </trkpt>
      <trkpt lat="48.65222" lon="1.74086">
        <ele>190</ele>
        <time>2010-05-14T11:24:12Z</time>
      </trkpt>
      <trkpt lat="48.6522" lon="1.74085">
        <ele>189</ele>
        <time>2010-05-14T11:24:13Z</time>
      </trkpt>
      <trkpt lat="48.65219" lon="1.74083">
        <ele>189</ele>
        <time>2010-05-14T11:24:14Z</time>
      </trkpt>
      <trkpt lat="48.65209" lon="1.7407">
        <ele>189</ele>
        <time>2010-05-14T11:24:21Z</time>
      </trkpt>
      <trkpt lat="48.65206" lon="1.74062">
        <ele>189</ele>
        <time>2010-05-14T11:24:24Z</time>
      </trkpt>
      <trkpt lat="48.65207" lon="1.74054">
        <ele>189</ele>
        <time>2010-05-14T11:24:25Z</time>
      </trkpt>
      <trkpt lat="48.65203" lon="1.74048">
        <ele>189</ele>
        <time>2010-05-14T11:24:26Z</time>
      </trkpt>
      <trkpt lat="48.65201" lon="1.74046">
        <ele>189</ele>
        <time>2010-05-14T11:24:27Z</time>
      </trkpt>
      <trkpt lat="48.65201" lon="1.74043">
        <ele>189</ele>
        <time>2010-05-14T11:24:28Z</time>
      </trkpt>
      <trkpt lat="48.65199" lon="1.74046">
        <ele>189</ele>
        <time>2010-05-14T11:24:30Z</time>
      </trkpt>
      <trkpt lat="48.65198" lon="1.74043">
        <ele>189</ele>
        <time>2010-05-14T11:24:33Z</time>
      </trkpt>
      <trkpt lat="48.65196" lon="1.74042">
        <ele>188</ele>
        <time>2010-05-14T11:24:35Z</time>
      </trkpt>
      <trkpt lat="48.65193" lon="1.74041">
        <ele>187</ele>
        <time>2010-05-14T11:24:36Z</time>
      </trkpt>
      <trkpt lat="48.6519" lon="1.74036">
        <ele>186</ele>
        <time>2010-05-14T11:24:39Z</time>
      </trkpt>
      <trkpt lat="48.65192" lon="1.74032">
        <ele>185</ele>
        <time>2010-05-14T11:24:40Z</time>
      </trkpt>
      <trkpt lat="48.65193" lon="1.7403">
        <ele>184</ele>
        <time>2010-05-14T11:24:41Z</time>
      </trkpt>
      <trkpt lat="48.65194" lon="1.74026">
        <ele>184</ele>
        <time>2010-05-14T11:24:42Z</time>
      </trkpt>
      <trkpt lat="48.65193" lon="1.74025">
        <ele>184</ele>
        <time>2010-05-14T11:24:43Z</time>
      </trkpt>
      <trkpt lat="48.65191" lon="1.74025">
        <ele>184</ele>
        <time>2010-05-14T11:24:44Z</time>
      </trkpt>
      <trkpt lat="48.65189" lon="1.74025">
        <ele>184</ele>
        <time>2010-05-14T11:24:45Z</time>
      </trkpt>
      <trkpt lat="48.65186" lon="1.74024">
        <ele>184</ele>
        <time>2010-05-14T11:24:46Z</time>
      </trkpt>
      <trkpt lat="48.65184" lon="1.74022">
        <ele>184</ele>
        <time>2010-05-14T11:24:47Z</time>
      </trkpt>
      <trkpt lat="48.65182" lon="1.74022">
        <ele>184</ele>
        <time>2010-05-14T11:24:48Z</time>
      </trkpt>
      <trkpt lat="48.65181" lon="1.74022">
        <ele>184</ele>
        <time>2010-05-14T11:24:49Z</time>
      </trkpt>
      <trkpt lat="48.65179" lon="1.74023">
        <ele>184</ele>
        <time>2010-05-14T11:24:50Z</time>
      </trkpt>
      <trkpt lat="48.65178" lon="1.74022">
        <ele>184</ele>
        <time>2010-05-14T11:24:51Z</time>
      </trkpt>
      <trkpt lat="48.65175" lon="1.74017">
        <ele>184</ele>
        <time>2010-05-14T11:24:55Z</time>
      </trkpt>
      <trkpt lat="48.65174" lon="1.74011">
        <ele>184</ele>
        <time>2010-05-14T11:24:56Z</time>
      </trkpt>
      <trkpt lat="48.65174" lon="1.74009">
        <ele>184</ele>
        <time>2010-05-14T11:24:57Z</time>
      </trkpt>
      <trkpt lat="48.65173" lon="1.74006">
        <ele>184</ele>
        <time>2010-05-14T11:24:58Z</time>
      </trkpt>
      <trkpt lat="48.65171" lon="1.74005">
        <ele>184</ele>
        <time>2010-05-14T11:24:59Z</time>
      </trkpt>
      <trkpt lat="48.6516" lon="1.73985">
        <ele>185</ele>
        <time>2010-05-14T11:25:10Z</time>
      </trkpt>
      <trkpt lat="48.65158" lon="1.73982">
        <ele>184</ele>
        <time>2010-05-14T11:25:11Z</time>
      </trkpt>
      <trkpt lat="48.65159" lon="1.7398">
        <ele>183</ele>
        <time>2010-05-14T11:25:12Z</time>
      </trkpt>
      <trkpt lat="48.65157" lon="1.73979">
        <ele>182</ele>
        <time>2010-05-14T11:25:13Z</time>
      </trkpt>
      <trkpt lat="48.65157" lon="1.73976">
        <ele>181</ele>
        <time>2010-05-14T11:25:14Z</time>
      </trkpt>
      <trkpt lat="48.65156" lon="1.73974">
        <ele>180</ele>
        <time>2010-05-14T11:25:15Z</time>
      </trkpt>
      <trkpt lat="48.65155" lon="1.73973">
        <ele>179</ele>
        <time>2010-05-14T11:25:16Z</time>
      </trkpt>
      <trkpt lat="48.65154" lon="1.73971">
        <ele>178</ele>
        <time>2010-05-14T11:25:17Z</time>
      </trkpt>
      <trkpt lat="48.65154" lon="1.73969">
        <ele>178</ele>
        <time>2010-05-14T11:25:18Z</time>
      </trkpt>
      <trkpt lat="48.65152" lon="1.73968">
        <ele>178</ele>
        <time>2010-05-14T11:25:19Z</time>
      </trkpt>
      <trkpt lat="48.65151" lon="1.73967">
        <ele>178</ele>
        <time>2010-05-14T11:25:20Z</time>
      </trkpt>
      <trkpt lat="48.6515" lon="1.73965">
        <ele>178</ele>
        <time>2010-05-14T11:25:21Z</time>
      </trkpt>
      <trkpt lat="48.65149" lon="1.73964">
        <ele>178</ele>
        <time>2010-05-14T11:25:23Z</time>
      </trkpt>
      <trkpt lat="48.65146" lon="1.73964">
        <ele>178</ele>
        <time>2010-05-14T11:25:24Z</time>
      </trkpt>
      <trkpt lat="48.65143" lon="1.73963">
        <ele>178</ele>
        <time>2010-05-14T11:25:25Z</time>
      </trkpt>
      <trkpt lat="48.65135" lon="1.73961">
        <ele>179</ele>
        <time>2010-05-14T11:25:30Z</time>
      </trkpt>
      <trkpt lat="48.65131" lon="1.73952">
        <ele>180</ele>
        <time>2010-05-14T11:25:31Z</time>
      </trkpt>
      <trkpt lat="48.6513" lon="1.73949">
        <ele>181</ele>
        <time>2010-05-14T11:25:32Z</time>
      </trkpt>
      <trkpt lat="48.65129" lon="1.73945">
        <ele>182</ele>
        <time>2010-05-14T11:25:33Z</time>
      </trkpt>
      <trkpt lat="48.65129" lon="1.73941">
        <ele>183</ele>
        <time>2010-05-14T11:25:34Z</time>
      </trkpt>
      <trkpt lat="48.65126" lon="1.73941">
        <ele>184</ele>
        <time>2010-05-14T11:25:35Z</time>
      </trkpt>
      <trkpt lat="48.65124" lon="1.73938">
        <ele>185</ele>
        <time>2010-05-14T11:25:36Z</time>
      </trkpt>
      <trkpt lat="48.65122" lon="1.73937">
        <ele>186</ele>
        <time>2010-05-14T11:25:37Z</time>
      </trkpt>
      <trkpt lat="48.65119" lon="1.73937">
        <ele>187</ele>
        <time>2010-05-14T11:25:38Z</time>
      </trkpt>
      <trkpt lat="48.65119" lon="1.73935">
        <ele>189</ele>
        <time>2010-05-14T11:25:40Z</time>
      </trkpt>
      <trkpt lat="48.65118" lon="1.73933">
        <ele>190</ele>
        <time>2010-05-14T11:25:41Z</time>
      </trkpt>
      <trkpt lat="48.65117" lon="1.7393">
        <ele>190</ele>
        <time>2010-05-14T11:25:42Z</time>
      </trkpt>
      <trkpt lat="48.65117" lon="1.73928">
        <ele>190</ele>
        <time>2010-05-14T11:25:43Z</time>
      </trkpt>
      <trkpt lat="48.65115" lon="1.73927">
        <ele>190</ele>
        <time>2010-05-14T11:25:44Z</time>
      </trkpt>
      <trkpt lat="48.65113" lon="1.73927">
        <ele>190</ele>
        <time>2010-05-14T11:25:45Z</time>
      </trkpt>
      <trkpt lat="48.65111" lon="1.73927">
        <ele>190</ele>
        <time>2010-05-14T11:25:46Z</time>
      </trkpt>
      <trkpt lat="48.6511" lon="1.73926">
        <ele>190</ele>
        <time>2010-05-14T11:25:47Z</time>
      </trkpt>
      <trkpt lat="48.65111" lon="1.73922">
        <ele>190</ele>
        <time>2010-05-14T11:25:48Z</time>
      </trkpt>
      <trkpt lat="48.65108" lon="1.73921">
        <ele>190</ele>
        <time>2010-05-14T11:25:51Z</time>
      </trkpt>
      <trkpt lat="48.65108" lon="1.73916">
        <ele>190</ele>
        <time>2010-05-14T11:25:52Z</time>
      </trkpt>
      <trkpt lat="48.65106" lon="1.73913">
        <ele>190</ele>
        <time>2010-05-14T11:25:53Z</time>
      </trkpt>
      <trkpt lat="48.65105" lon="1.73909">
        <ele>190</ele>
        <time>2010-05-14T11:25:54Z</time>
      </trkpt>
      <trkpt lat="48.65102" lon="1.73906">
        <ele>190</ele>
        <time>2010-05-14T11:25:55Z</time>
      </trkpt>
      <trkpt lat="48.651" lon="1.73903">
        <ele>190</ele>
        <time>2010-05-14T11:25:56Z</time>
      </trkpt>
      <trkpt lat="48.65099" lon="1.73901">
        <ele>190</ele>
        <time>2010-05-14T11:25:57Z</time>
      </trkpt>
      <trkpt lat="48.65097" lon="1.73899">
        <ele>190</ele>
        <time>2010-05-14T11:25:58Z</time>
      </trkpt>
      <trkpt lat="48.65096" lon="1.73898">
        <ele>190</ele>
        <time>2010-05-14T11:25:59Z</time>
      </trkpt>
      <trkpt lat="48.65095" lon="1.73897">
        <ele>190</ele>
        <time>2010-05-14T11:26:00Z</time>
      </trkpt>
      <trkpt lat="48.65093" lon="1.73894">
        <ele>189</ele>
        <time>2010-05-14T11:26:02Z</time>
      </trkpt>
      <trkpt lat="48.65091" lon="1.73891">
        <ele>189</ele>
        <time>2010-05-14T11:26:05Z</time>
      </trkpt>
      <trkpt lat="48.65089" lon="1.73889">
        <ele>189</ele>
        <time>2010-05-14T11:26:06Z</time>
      </trkpt>
      <trkpt lat="48.65087" lon="1.73888">
        <ele>189</ele>
        <time>2010-05-14T11:26:07Z</time>
      </trkpt>
      <trkpt lat="48.65087" lon="1.73884">
        <ele>189</ele>
        <time>2010-05-14T11:26:08Z</time>
      </trkpt>
      <trkpt lat="48.65084" lon="1.73882">
        <ele>189</ele>
        <time>2010-05-14T11:26:09Z</time>
      </trkpt>
      <trkpt lat="48.65081" lon="1.73881">
        <ele>189</ele>
        <time>2010-05-14T11:26:10Z</time>
      </trkpt>
      <trkpt lat="48.65078" lon="1.7388">
        <ele>189</ele>
        <time>2010-05-14T11:26:11Z</time>
      </trkpt>
      <trkpt lat="48.65076" lon="1.7388">
        <ele>189</ele>
        <time>2010-05-14T11:26:12Z</time>
      </trkpt>
      <trkpt lat="48.65076" lon="1.73878">
        <ele>190</ele>
        <time>2010-05-14T11:26:16Z</time>
      </trkpt>
      <trkpt lat="48.65074" lon="1.73877">
        <ele>191</ele>
        <time>2010-05-14T11:26:17Z</time>
      </trkpt>
      <trkpt lat="48.65064" lon="1.73861">
        <ele>191</ele>
        <time>2010-05-14T11:26:28Z</time>
      </trkpt>
      <trkpt lat="48.65062" lon="1.73857">
        <ele>191</ele>
        <time>2010-05-14T11:26:29Z</time>
      </trkpt>
      <trkpt lat="48.6506" lon="1.73853">
        <ele>191</ele>
        <time>2010-05-14T11:26:30Z</time>
      </trkpt>
      <trkpt lat="48.65059" lon="1.73848">
        <ele>191</ele>
        <time>2010-05-14T11:26:31Z</time>
      </trkpt>
      <trkpt lat="48.6506" lon="1.73842">
        <ele>191</ele>
        <time>2010-05-14T11:26:32Z</time>
      </trkpt>
      <trkpt lat="48.65059" lon="1.73838">
        <ele>191</ele>
        <time>2010-05-14T11:26:36Z</time>
      </trkpt>
      <trkpt lat="48.65056" lon="1.73837">
        <ele>190</ele>
        <time>2010-05-14T11:26:37Z</time>
      </trkpt>
      <trkpt lat="48.65053" lon="1.73835">
        <ele>188</ele>
        <time>2010-05-14T11:26:39Z</time>
      </trkpt>
      <trkpt lat="48.65053" lon="1.73833">
        <ele>187</ele>
        <time>2010-05-14T11:26:40Z</time>
      </trkpt>
      <trkpt lat="48.65052" lon="1.73831">
        <ele>186</ele>
        <time>2010-05-14T11:26:41Z</time>
      </trkpt>
      <trkpt lat="48.6505" lon="1.73828">
        <ele>185</ele>
        <time>2010-05-14T11:26:42Z</time>
      </trkpt>
      <trkpt lat="48.65049" lon="1.73824">
        <ele>184</ele>
        <time>2010-05-14T11:26:43Z</time>
      </trkpt>
      <trkpt lat="48.65048" lon="1.73822">
        <ele>183</ele>
        <time>2010-05-14T11:26:44Z</time>
      </trkpt>
      <trkpt lat="48.65047" lon="1.7382">
        <ele>183</ele>
        <time>2010-05-14T11:26:45Z</time>
      </trkpt>
      <trkpt lat="48.65044" lon="1.73818">
        <ele>183</ele>
        <time>2010-05-14T11:26:49Z</time>
      </trkpt>
      <trkpt lat="48.65042" lon="1.73816">
        <ele>183</ele>
        <time>2010-05-14T11:26:50Z</time>
      </trkpt>
      <trkpt lat="48.65042" lon="1.73813">
        <ele>183</ele>
        <time>2010-05-14T11:26:51Z</time>
      </trkpt>
      <trkpt lat="48.65036" lon="1.73807">
        <ele>183</ele>
        <time>2010-05-14T11:26:56Z</time>
      </trkpt>
      <trkpt lat="48.65031" lon="1.73805">
        <ele>183</ele>
        <time>2010-05-14T11:26:57Z</time>
      </trkpt>
      <trkpt lat="48.65029" lon="1.73803">
        <ele>183</ele>
        <time>2010-05-14T11:26:58Z</time>
      </trkpt>
      <trkpt lat="48.65027" lon="1.738">
        <ele>183</ele>
        <time>2010-05-14T11:26:59Z</time>
      </trkpt>
      <trkpt lat="48.65025" lon="1.73799">
        <ele>183</ele>
        <time>2010-05-14T11:27:00Z</time>
      </trkpt>
      <trkpt lat="48.65026" lon="1.73796">
        <ele>186</ele>
        <time>2010-05-14T11:27:03Z</time>
      </trkpt>
      <trkpt lat="48.65025" lon="1.73795">
        <ele>187</ele>
        <time>2010-05-14T11:27:04Z</time>
      </trkpt>
      <trkpt lat="48.65022" lon="1.73794">
        <ele>188</ele>
        <time>2010-05-14T11:27:05Z</time>
      </trkpt>
      <trkpt lat="48.65021" lon="1.73792">
        <ele>188</ele>
        <time>2010-05-14T11:27:06Z</time>
      </trkpt>
      <trkpt lat="48.65021" lon="1.73787">
        <ele>188</ele>
        <time>2010-05-14T11:27:09Z</time>
      </trkpt>
      <trkpt lat="48.65018" lon="1.73782">
        <ele>188</ele>
        <time>2010-05-14T11:27:12Z</time>
      </trkpt>
      <trkpt lat="48.65016" lon="1.73782">
        <ele>188</ele>
        <time>2010-05-14T11:27:14Z</time>
      </trkpt>
      <trkpt lat="48.65016" lon="1.7378">
        <ele>188</ele>
        <time>2010-05-14T11:27:15Z</time>
      </trkpt>
      <trkpt lat="48.65016" lon="1.73778">
        <ele>188</ele>
        <time>2010-05-14T11:27:16Z</time>
      </trkpt>
      <trkpt lat="48.65016" lon="1.73775">
        <ele>188</ele>
        <time>2010-05-14T11:27:17Z</time>
      </trkpt>
      <trkpt lat="48.65016" lon="1.73772">
        <ele>188</ele>
        <time>2010-05-14T11:27:18Z</time>
      </trkpt>
      <trkpt lat="48.65013" lon="1.73772">
        <ele>188</ele>
        <time>2010-05-14T11:27:21Z</time>
      </trkpt>
      <trkpt lat="48.65011" lon="1.73772">
        <ele>188</ele>
        <time>2010-05-14T11:27:22Z</time>
      </trkpt>
      <trkpt lat="48.65009" lon="1.73772">
        <ele>188</ele>
        <time>2010-05-14T11:27:24Z</time>
      </trkpt>
      <trkpt lat="48.65007" lon="1.73766">
        <ele>188</ele>
        <time>2010-05-14T11:27:27Z</time>
      </trkpt>
      <trkpt lat="48.65004" lon="1.73766">
        <ele>188</ele>
        <time>2010-05-14T11:27:28Z</time>
      </trkpt>
      <trkpt lat="48.65001" lon="1.73766">
        <ele>188</ele>
        <time>2010-05-14T11:27:29Z</time>
      </trkpt>
      <trkpt lat="48.65" lon="1.73764">
        <ele>189</ele>
        <time>2010-05-14T11:27:31Z</time>
      </trkpt>
      <trkpt lat="48.64997" lon="1.73763">
        <ele>191</ele>
        <time>2010-05-14T11:27:33Z</time>
      </trkpt>
      <trkpt lat="48.64995" lon="1.73761">
        <ele>191</ele>
        <time>2010-05-14T11:27:34Z</time>
      </trkpt>
      <trkpt lat="48.64994" lon="1.73759">
        <ele>192</ele>
        <time>2010-05-14T11:27:35Z</time>
      </trkpt>
      <trkpt lat="48.64992" lon="1.73757">
        <ele>192</ele>
        <time>2010-05-14T11:27:36Z</time>
      </trkpt>
      <trkpt lat="48.6499" lon="1.73755">
        <ele>192</ele>
        <time>2010-05-14T11:27:37Z</time>
      </trkpt>
      <trkpt lat="48.6499" lon="1.73752">
        <ele>192</ele>
        <time>2010-05-14T11:27:38Z</time>
      </trkpt>
      <trkpt lat="48.6499" lon="1.73749">
        <ele>192</ele>
        <time>2010-05-14T11:27:39Z</time>
      </trkpt>
      <trkpt lat="48.64992" lon="1.73746">
        <ele>192</ele>
        <time>2010-05-14T11:27:41Z</time>
      </trkpt>
      <trkpt lat="48.64992" lon="1.73744">
        <ele>192</ele>
        <time>2010-05-14T11:27:42Z</time>
      </trkpt>
      <trkpt lat="48.64988" lon="1.73737">
        <ele>192</ele>
        <time>2010-05-14T11:27:46Z</time>
      </trkpt>
      <trkpt lat="48.64982" lon="1.73739">
        <ele>192</ele>
        <time>2010-05-14T11:27:47Z</time>
      </trkpt>
      <trkpt lat="48.6498" lon="1.73734">
        <ele>192</ele>
        <time>2010-05-14T11:27:48Z</time>
      </trkpt>
      <trkpt lat="48.64973" lon="1.73719">
        <ele>192</ele>
        <time>2010-05-14T11:27:58Z</time>
      </trkpt>
      <trkpt lat="48.64971" lon="1.73719">
        <ele>192</ele>
        <time>2010-05-14T11:27:59Z</time>
      </trkpt>
      <trkpt lat="48.64968" lon="1.73719">
        <ele>192</ele>
        <time>2010-05-14T11:28:00Z</time>
      </trkpt>
      <trkpt lat="48.64966" lon="1.7372">
        <ele>192</ele>
        <time>2010-05-14T11:28:01Z</time>
      </trkpt>
      <trkpt lat="48.64964" lon="1.73719">
        <ele>192</ele>
        <time>2010-05-14T11:28:02Z</time>
      </trkpt>
      <trkpt lat="48.64962" lon="1.73719">
        <ele>192</ele>
        <time>2010-05-14T11:28:03Z</time>
      </trkpt>
      <trkpt lat="48.64959" lon="1.73717">
        <ele>190</ele>
        <time>2010-05-14T11:28:08Z</time>
      </trkpt>
      <trkpt lat="48.64956" lon="1.73717">
        <ele>189</ele>
        <time>2010-05-14T11:28:09Z</time>
      </trkpt>
      <trkpt lat="48.64958" lon="1.73709">
        <ele>187</ele>
        <time>2010-05-14T11:28:11Z</time>
      </trkpt>
      <trkpt lat="48.64961" lon="1.73706">
        <ele>187</ele>
        <time>2010-05-14T11:28:12Z</time>
      </trkpt>
      <trkpt lat="48.64962" lon="1.73704">
        <ele>187</ele>
        <time>2010-05-14T11:28:13Z</time>
      </trkpt>
      <trkpt lat="48.64963" lon="1.73706">
        <ele>186</ele>
        <time>2010-05-14T11:28:14Z</time>
      </trkpt>
      <trkpt lat="48.64965" lon="1.73707">
        <ele>185</ele>
        <time>2010-05-14T11:28:15Z</time>
      </trkpt>
      <trkpt lat="48.64966" lon="1.73706">
        <ele>183</ele>
        <time>2010-05-14T11:28:17Z</time>
      </trkpt>
      <trkpt lat="48.64966" lon="1.73703">
        <ele>180</ele>
        <time>2010-05-14T11:28:19Z</time>
      </trkpt>
      <trkpt lat="48.64968" lon="1.737">
        <ele>168</ele>
        <time>2010-05-14T11:28:25Z</time>
      </trkpt>
      <trkpt lat="48.64969" lon="1.73698">
        <ele>166</ele>
        <time>2010-05-14T11:28:26Z</time>
      </trkpt>
      <trkpt lat="48.64972" lon="1.73697">
        <ele>164</ele>
        <time>2010-05-14T11:28:27Z</time>
      </trkpt>
      <trkpt lat="48.64972" lon="1.73695">
        <ele>158</ele>
        <time>2010-05-14T11:28:29Z</time>
      </trkpt>
      <trkpt lat="48.64971" lon="1.73693">
        <ele>153</ele>
        <time>2010-05-14T11:28:31Z</time>
      </trkpt>
      <trkpt lat="48.64972" lon="1.73691">
        <ele>149</ele>
        <time>2010-05-14T11:28:33Z</time>
      </trkpt>
      <trkpt lat="48.64973" lon="1.73689">
        <ele>145</ele>
        <time>2010-05-14T11:28:35Z</time>
      </trkpt>
      <trkpt lat="48.64973" lon="1.73691">
        <ele>141</ele>
        <time>2010-05-14T11:28:37Z</time>
      </trkpt>
      <trkpt lat="48.64972" lon="1.73692">
        <ele>139</ele>
        <time>2010-05-14T11:28:38Z</time>
      </trkpt>
      <trkpt lat="48.64971" lon="1.73692">
        <ele>138</ele>
        <time>2010-05-14T11:28:39Z</time>
      </trkpt>
      <trkpt lat="48.64969" lon="1.73693">
        <ele>137</ele>
        <time>2010-05-14T11:28:40Z</time>
      </trkpt>
      <trkpt lat="48.64968" lon="1.73694">
        <ele>137</ele>
        <time>2010-05-14T11:28:41Z</time>
      </trkpt>
      <trkpt lat="48.64966" lon="1.73694">
        <ele>137</ele>
        <time>2010-05-14T11:28:42Z</time>
      </trkpt>
      <trkpt lat="48.64962" lon="1.73693">
        <ele>137</ele>
        <time>2010-05-14T11:28:43Z</time>
      </trkpt>
      <trkpt lat="48.64962" lon="1.73692">
        <ele>137</ele>
        <time>2010-05-14T11:28:46Z</time>
      </trkpt>
      <trkpt lat="48.64963" lon="1.73689">
        <ele>139</ele>
        <time>2010-05-14T11:28:48Z</time>
      </trkpt>
      <trkpt lat="48.64965" lon="1.73688">
        <ele>140</ele>
        <time>2010-05-14T11:28:49Z</time>
      </trkpt>
      <trkpt lat="48.64967" lon="1.73687">
        <ele>140</ele>
        <time>2010-05-14T11:28:50Z</time>
      </trkpt>
      <trkpt lat="48.64967" lon="1.73685">
        <ele>140</ele>
        <time>2010-05-14T11:28:52Z</time>
      </trkpt>
      <trkpt lat="48.64968" lon="1.73682">
        <ele>140</ele>
        <time>2010-05-14T11:28:54Z</time>
      </trkpt>
      <trkpt lat="48.64969" lon="1.7368">
        <ele>140</ele>
        <time>2010-05-14T11:28:56Z</time>
      </trkpt>
      <trkpt lat="48.64971" lon="1.73681">
        <ele>142</ele>
        <time>2010-05-14T11:28:58Z</time>
      </trkpt>
      <trkpt lat="48.64972" lon="1.73682">
        <ele>143</ele>
        <time>2010-05-14T11:28:59Z</time>
      </trkpt>
      <trkpt lat="48.64973" lon="1.73684">
        <ele>144</ele>
        <time>2010-05-14T11:29:00Z</time>
      </trkpt>
      <trkpt lat="48.64973" lon="1.73686">
        <ele>145</ele>
        <time>2010-05-14T11:29:01Z</time>
      </trkpt>
      <trkpt lat="48.64974" lon="1.73689">
        <ele>146</ele>
        <time>2010-05-14T11:29:02Z</time>
      </trkpt>
      <trkpt lat="48.64974" lon="1.73691">
        <ele>147</ele>
        <time>2010-05-14T11:29:03Z</time>
      </trkpt>
      <trkpt lat="48.64973" lon="1.73694">
        <ele>148</ele>
        <time>2010-05-14T11:29:04Z</time>
      </trkpt>
      <trkpt lat="48.64974" lon="1.73696">
        <ele>149</ele>
        <time>2010-05-14T11:29:05Z</time>
      </trkpt>
      <trkpt lat="48.64974" lon="1.73699">
        <ele>151</ele>
        <time>2010-05-14T11:29:07Z</time>
      </trkpt>
      <trkpt lat="48.64973" lon="1.737">
        <ele>152</ele>
        <time>2010-05-14T11:29:08Z</time>
      </trkpt>
      <trkpt lat="48.64971" lon="1.73704">
        <ele>156</ele>
        <time>2010-05-14T11:29:10Z</time>
      </trkpt>
      <trkpt lat="48.6497" lon="1.73706">
        <ele>158</ele>
        <time>2010-05-14T11:29:11Z</time>
      </trkpt>
      <trkpt lat="48.64968" lon="1.73708">
        <ele>162</ele>
        <time>2010-05-14T11:29:13Z</time>
      </trkpt>
      <trkpt lat="48.64968" lon="1.7371">
        <ele>167</ele>
        <time>2010-05-14T11:29:16Z</time>
      </trkpt>
      <trkpt lat="48.64966" lon="1.73712">
        <ele>171</ele>
        <time>2010-05-14T11:29:18Z</time>
      </trkpt>
      <trkpt lat="48.64965" lon="1.73714">
        <ele>175</ele>
        <time>2010-05-14T11:29:20Z</time>
      </trkpt>
      <trkpt lat="48.64967" lon="1.73714">
        <ele>182</ele>
        <time>2010-05-14T11:29:24Z</time>
      </trkpt>
      <trkpt lat="48.64969" lon="1.73714">
        <ele>183</ele>
        <time>2010-05-14T11:29:25Z</time>
      </trkpt>
      <trkpt lat="48.64967" lon="1.73715">
        <ele>187</ele>
        <time>2010-05-14T11:29:29Z</time>
      </trkpt>
      <trkpt lat="48.64965" lon="1.73715">
        <ele>189</ele>
        <time>2010-05-14T11:29:31Z</time>
      </trkpt>
      <trkpt lat="48.64963" lon="1.73715">
        <ele>191</ele>
        <time>2010-05-14T11:29:33Z</time>
      </trkpt>
      <trkpt lat="48.64963" lon="1.73712">
        <ele>192</ele>
        <time>2010-05-14T11:29:35Z</time>
      </trkpt>
      <trkpt lat="48.64962" lon="1.7371">
        <ele>192</ele>
        <time>2010-05-14T11:29:36Z</time>
      </trkpt>
      <trkpt lat="48.6496" lon="1.73707">
        <ele>192</ele>
        <time>2010-05-14T11:29:38Z</time>
      </trkpt>
      <trkpt lat="48.64958" lon="1.73704">
        <ele>190</ele>
        <time>2010-05-14T11:29:40Z</time>
      </trkpt>
      <trkpt lat="48.64957" lon="1.73704">
        <ele>189</ele>
        <time>2010-05-14T11:29:41Z</time>
      </trkpt>
      <trkpt lat="48.64955" lon="1.73705">
        <ele>187</ele>
        <time>2010-05-14T11:29:42Z</time>
      </trkpt>
      <trkpt lat="48.6495" lon="1.73703">
        <ele>183</ele>
        <time>2010-05-14T11:29:48Z</time>
      </trkpt>
      <trkpt lat="48.64939" lon="1.737">
        <ele>175</ele>
        <time>2010-05-14T11:29:54Z</time>
      </trkpt>
      <trkpt lat="48.64928" lon="1.73695">
        <ele>165</ele>
        <time>2010-05-14T11:30:02Z</time>
      </trkpt>
      <trkpt lat="48.64927" lon="1.73695">
        <ele>165</ele>
        <time>2010-05-14T11:30:03Z</time>
      </trkpt>
      <trkpt lat="48.64925" lon="1.73695">
        <ele>164</ele>
        <time>2010-05-14T11:30:04Z</time>
      </trkpt>
      <trkpt lat="48.64923" lon="1.73694">
        <ele>164</ele>
        <time>2010-05-14T11:30:06Z</time>
      </trkpt>
      <trkpt lat="48.64921" lon="1.73694">
        <ele>164</ele>
        <time>2010-05-14T11:30:07Z</time>
      </trkpt>
      <trkpt lat="48.6492" lon="1.73693">
        <ele>164</ele>
        <time>2010-05-14T11:30:08Z</time>
      </trkpt>
      <trkpt lat="48.64918" lon="1.73691">
        <ele>164</ele>
        <time>2010-05-14T11:30:10Z</time>
      </trkpt>
      <trkpt lat="48.64916" lon="1.73691">
        <ele>164</ele>
        <time>2010-05-14T11:30:11Z</time>
      </trkpt>
      <trkpt lat="48.64915" lon="1.73691">
        <ele>164</ele>
        <time>2010-05-14T11:30:13Z</time>
      </trkpt>
      <trkpt lat="48.6491" lon="1.73688">
        <ele>164</ele>
        <time>2010-05-14T11:30:18Z</time>
      </trkpt>
      <trkpt lat="48.64906" lon="1.7369">
        <ele>164</ele>
        <time>2010-05-14T11:30:19Z</time>
      </trkpt>
      <trkpt lat="48.64904" lon="1.73691">
        <ele>164</ele>
        <time>2010-05-14T11:30:20Z</time>
      </trkpt>
      <trkpt lat="48.64902" lon="1.7369">
        <ele>164</ele>
        <time>2010-05-14T11:30:21Z</time>
      </trkpt>
      <trkpt lat="48.64901" lon="1.7369">
        <ele>164</ele>
        <time>2010-05-14T11:30:22Z</time>
      </trkpt>
      <trkpt lat="48.64899" lon="1.73688">
        <ele>163</ele>
        <time>2010-05-14T11:30:25Z</time>
      </trkpt>
      <trkpt lat="48.64898" lon="1.73686">
        <ele>163</ele>
        <time>2010-05-14T11:30:26Z</time>
      </trkpt>
      <trkpt lat="48.64897" lon="1.73686">
        <ele>163</ele>
        <time>2010-05-14T11:30:27Z</time>
      </trkpt>
      <trkpt lat="48.64895" lon="1.73686">
        <ele>162</ele>
        <time>2010-05-14T11:30:28Z</time>
      </trkpt>
      <trkpt lat="48.64892" lon="1.73686">
        <ele>162</ele>
        <time>2010-05-14T11:30:32Z</time>
      </trkpt>
      <trkpt lat="48.6489" lon="1.73688">
        <ele>162</ele>
        <time>2010-05-14T11:30:33Z</time>
      </trkpt>
      <trkpt lat="48.64886" lon="1.73691">
        <ele>162</ele>
        <time>2010-05-14T11:30:34Z</time>
      </trkpt>
      <trkpt lat="48.64883" lon="1.73691">
        <ele>162</ele>
        <time>2010-05-14T11:30:35Z</time>
      </trkpt>
      <trkpt lat="48.64882" lon="1.7369">
        <ele>162</ele>
        <time>2010-05-14T11:30:36Z</time>
      </trkpt>
      <trkpt lat="48.6488" lon="1.73689">
        <ele>162</ele>
        <time>2010-05-14T11:30:38Z</time>
      </trkpt>
      <trkpt lat="48.64878" lon="1.73689">
        <ele>162</ele>
        <time>2010-05-14T11:30:40Z</time>
      </trkpt>
      <trkpt lat="48.64868" lon="1.73685">
        <ele>165</ele>
        <time>2010-05-14T11:30:47Z</time>
      </trkpt>
      <trkpt lat="48.64865" lon="1.73682">
        <ele>166</ele>
        <time>2010-05-14T11:30:48Z</time>
      </trkpt>
      <trkpt lat="48.64864" lon="1.73679">
        <ele>167</ele>
        <time>2010-05-14T11:30:49Z</time>
      </trkpt>
      <trkpt lat="48.64861" lon="1.7368">
        <ele>168</ele>
        <time>2010-05-14T11:30:52Z</time>
      </trkpt>
      <trkpt lat="48.64856" lon="1.7368">
        <ele>169</ele>
        <time>2010-05-14T11:30:53Z</time>
      </trkpt>
      <trkpt lat="48.64855" lon="1.7368">
        <ele>170</ele>
        <time>2010-05-14T11:30:54Z</time>
      </trkpt>
      <trkpt lat="48.64852" lon="1.73679">
        <ele>170</ele>
        <time>2010-05-14T11:30:55Z</time>
      </trkpt>
      <trkpt lat="48.6485" lon="1.73679">
        <ele>170</ele>
        <time>2010-05-14T11:30:56Z</time>
      </trkpt>
      <trkpt lat="48.64848" lon="1.7368">
        <ele>170</ele>
        <time>2010-05-14T11:30:57Z</time>
      </trkpt>
      <trkpt lat="48.64847" lon="1.7368">
        <ele>170</ele>
        <time>2010-05-14T11:30:58Z</time>
      </trkpt>
      <trkpt lat="48.64844" lon="1.7368">
        <ele>170</ele>
        <time>2010-05-14T11:31:04Z</time>
      </trkpt>
      <trkpt lat="48.64842" lon="1.7368">
        <ele>169</ele>
        <time>2010-05-14T11:31:06Z</time>
      </trkpt>
      <trkpt lat="48.64841" lon="1.73681">
        <ele>168</ele>
        <time>2010-05-14T11:31:07Z</time>
      </trkpt>
      <trkpt lat="48.64839" lon="1.73679">
        <ele>166</ele>
        <time>2010-05-14T11:31:09Z</time>
      </trkpt>
      <trkpt lat="48.64838" lon="1.73679">
        <ele>165</ele>
        <time>2010-05-14T11:31:10Z</time>
      </trkpt>
      <trkpt lat="48.64837" lon="1.73678">
        <ele>164</ele>
        <time>2010-05-14T11:31:11Z</time>
      </trkpt>
      <trkpt lat="48.64835" lon="1.73678">
        <ele>164</ele>
        <time>2010-05-14T11:31:12Z</time>
      </trkpt>
      <trkpt lat="48.64834" lon="1.73678">
        <ele>164</ele>
        <time>2010-05-14T11:31:13Z</time>
      </trkpt>
      <trkpt lat="48.64827" lon="1.73677">
        <ele>164</ele>
        <time>2010-05-14T11:31:17Z</time>
      </trkpt>
      <trkpt lat="48.64826" lon="1.73678">
        <ele>164</ele>
        <time>2010-05-14T11:31:18Z</time>
      </trkpt>
      <trkpt lat="48.64825" lon="1.73679">
        <ele>164</ele>
        <time>2010-05-14T11:31:19Z</time>
      </trkpt>
      <trkpt lat="48.64823" lon="1.73679">
        <ele>164</ele>
        <time>2010-05-14T11:31:20Z</time>
      </trkpt>
      <trkpt lat="48.64821" lon="1.7368">
        <ele>164</ele>
        <time>2010-05-14T11:31:21Z</time>
      </trkpt>
      <trkpt lat="48.64819" lon="1.73679">
        <ele>164</ele>
        <time>2010-05-14T11:31:22Z</time>
      </trkpt>
      <trkpt lat="48.64817" lon="1.73679">
        <ele>164</ele>
        <time>2010-05-14T11:31:23Z</time>
      </trkpt>
      <trkpt lat="48.64815" lon="1.73679">
        <ele>164</ele>
        <time>2010-05-14T11:31:24Z</time>
      </trkpt>
      <trkpt lat="48.64813" lon="1.7368">
        <ele>164</ele>
        <time>2010-05-14T11:31:26Z</time>
      </trkpt>
      <trkpt lat="48.64812" lon="1.73681">
        <ele>164</ele>
        <time>2010-05-14T11:31:27Z</time>
      </trkpt>
      <trkpt lat="48.6481" lon="1.73682">
        <ele>164</ele>
        <time>2010-05-14T11:31:28Z</time>
      </trkpt>
      <trkpt lat="48.64809" lon="1.73682">
        <ele>164</ele>
        <time>2010-05-14T11:31:29Z</time>
      </trkpt>
      <trkpt lat="48.64808" lon="1.73682">
        <ele>164</ele>
        <time>2010-05-14T11:31:30Z</time>
      </trkpt>
      <trkpt lat="48.64806" lon="1.73682">
        <ele>164</ele>
        <time>2010-05-14T11:31:31Z</time>
      </trkpt>
      <trkpt lat="48.64804" lon="1.73683">
        <ele>164</ele>
        <time>2010-05-14T11:31:33Z</time>
      </trkpt>
      <trkpt lat="48.64801" lon="1.73684">
        <ele>164</ele>
        <time>2010-05-14T11:31:34Z</time>
      </trkpt>
      <trkpt lat="48.64799" lon="1.73684">
        <ele>165</ele>
        <time>2010-05-14T11:31:35Z</time>
      </trkpt>
      <trkpt lat="48.64796" lon="1.73685">
        <ele>166</ele>
        <time>2010-05-14T11:31:39Z</time>
      </trkpt>
      <trkpt lat="48.64792" lon="1.73688">
        <ele>166</ele>
        <time>2010-05-14T11:31:40Z</time>
      </trkpt>
      <trkpt lat="48.6479" lon="1.73687">
        <ele>166</ele>
        <time>2010-05-14T11:31:42Z</time>
      </trkpt>
      <trkpt lat="48.64787" lon="1.73687">
        <ele>166</ele>
        <time>2010-05-14T11:31:43Z</time>
      </trkpt>
      <trkpt lat="48.64785" lon="1.73686">
        <ele>166</ele>
        <time>2010-05-14T11:31:44Z</time>
      </trkpt>
      <trkpt lat="48.64784" lon="1.73686">
        <ele>166</ele>
        <time>2010-05-14T11:31:45Z</time>
      </trkpt>
      <trkpt lat="48.64781" lon="1.73687">
        <ele>166</ele>
        <time>2010-05-14T11:31:46Z</time>
      </trkpt>
      <trkpt lat="48.64779" lon="1.73685">
        <ele>166</ele>
        <time>2010-05-14T11:31:47Z</time>
      </trkpt>
      <trkpt lat="48.64776" lon="1.73685">
        <ele>166</ele>
        <time>2010-05-14T11:31:50Z</time>
      </trkpt>
      <trkpt lat="48.64773" lon="1.73686">
        <ele>166</ele>
        <time>2010-05-14T11:31:51Z</time>
      </trkpt>
      <trkpt lat="48.64769" lon="1.73688">
        <ele>166</ele>
        <time>2010-05-14T11:31:54Z</time>
      </trkpt>
      <trkpt lat="48.64766" lon="1.73686">
        <ele>166</ele>
        <time>2010-05-14T11:31:55Z</time>
      </trkpt>
      <trkpt lat="48.64764" lon="1.73683">
        <ele>166</ele>
        <time>2010-05-14T11:31:56Z</time>
      </trkpt>
      <trkpt lat="48.64761" lon="1.73683">
        <ele>166</ele>
        <time>2010-05-14T11:31:57Z</time>
      </trkpt>
      <trkpt lat="48.6476" lon="1.73684">
        <ele>166</ele>
        <time>2010-05-14T11:32:00Z</time>
      </trkpt>
      <trkpt lat="48.64758" lon="1.73684">
        <ele>166</ele>
        <time>2010-05-14T11:32:02Z</time>
      </trkpt>
      <trkpt lat="48.64752" lon="1.73687">
        <ele>166</ele>
        <time>2010-05-14T11:32:05Z</time>
      </trkpt>
      <trkpt lat="48.64749" lon="1.7369">
        <ele>166</ele>
        <time>2010-05-14T11:32:06Z</time>
      </trkpt>
      <trkpt lat="48.64747" lon="1.73691">
        <ele>166</ele>
        <time>2010-05-14T11:32:07Z</time>
      </trkpt>
      <trkpt lat="48.6474" lon="1.73693">
        <ele>166</ele>
        <time>2010-05-14T11:32:11Z</time>
      </trkpt>
      <trkpt lat="48.64737" lon="1.73695">
        <ele>166</ele>
        <time>2010-05-14T11:32:12Z</time>
      </trkpt>
      <trkpt lat="48.64734" lon="1.73695">
        <ele>166</ele>
        <time>2010-05-14T11:32:13Z</time>
      </trkpt>
      <trkpt lat="48.64733" lon="1.73695">
        <ele>166</ele>
        <time>2010-05-14T11:32:14Z</time>
      </trkpt>
      <trkpt lat="48.64728" lon="1.73697">
        <ele>166</ele>
        <time>2010-05-14T11:32:16Z</time>
      </trkpt>
      <trkpt lat="48.64727" lon="1.73695">
        <ele>166</ele>
        <time>2010-05-14T11:32:17Z</time>
      </trkpt>
      <trkpt lat="48.64728" lon="1.73692">
        <ele>166</ele>
        <time>2010-05-14T11:32:18Z</time>
      </trkpt>
      <trkpt lat="48.64725" lon="1.73689">
        <ele>165</ele>
        <time>2010-05-14T11:32:21Z</time>
      </trkpt>
      <trkpt lat="48.64721" lon="1.73687">
        <ele>164</ele>
        <time>2010-05-14T11:32:25Z</time>
      </trkpt>
      <trkpt lat="48.64717" lon="1.73688">
        <ele>164</ele>
        <time>2010-05-14T11:32:26Z</time>
      </trkpt>
      <trkpt lat="48.64714" lon="1.73688">
        <ele>164</ele>
        <time>2010-05-14T11:32:27Z</time>
      </trkpt>
      <trkpt lat="48.64712" lon="1.73688">
        <ele>164</ele>
        <time>2010-05-14T11:32:29Z</time>
      </trkpt>
      <trkpt lat="48.64711" lon="1.7369">
        <ele>164</ele>
        <time>2010-05-14T11:32:30Z</time>
      </trkpt>
      <trkpt lat="48.64708" lon="1.73692">
        <ele>164</ele>
        <time>2010-05-14T11:32:31Z</time>
      </trkpt>
      <trkpt lat="48.64707" lon="1.73693">
        <ele>164</ele>
        <time>2010-05-14T11:32:32Z</time>
      </trkpt>
      <trkpt lat="48.64705" lon="1.73692">
        <ele>164</ele>
        <time>2010-05-14T11:32:35Z</time>
      </trkpt>
      <trkpt lat="48.64704" lon="1.73694">
        <ele>164</ele>
        <time>2010-05-14T11:32:36Z</time>
      </trkpt>
      <trkpt lat="48.64702" lon="1.73695">
        <ele>164</ele>
        <time>2010-05-14T11:32:37Z</time>
      </trkpt>
      <trkpt lat="48.64701" lon="1.73694">
        <ele>163</ele>
        <time>2010-05-14T11:32:38Z</time>
      </trkpt>
      <trkpt lat="48.64698" lon="1.73693">
        <ele>163</ele>
        <time>2010-05-14T11:32:41Z</time>
      </trkpt>
      <trkpt lat="48.64695" lon="1.73694">
        <ele>163</ele>
        <time>2010-05-14T11:32:42Z</time>
      </trkpt>
      <trkpt lat="48.64695" lon="1.73692">
        <ele>163</ele>
        <time>2010-05-14T11:32:43Z</time>
      </trkpt>
      <trkpt lat="48.64694" lon="1.7369">
        <ele>163</ele>
        <time>2010-05-14T11:32:44Z</time>
      </trkpt>
      <trkpt lat="48.64692" lon="1.73691">
        <ele>163</ele>
        <time>2010-05-14T11:32:45Z</time>
      </trkpt>
      <trkpt lat="48.64689" lon="1.73693">
        <ele>163</ele>
        <time>2010-05-14T11:32:46Z</time>
      </trkpt>
      <trkpt lat="48.64687" lon="1.73693">
        <ele>163</ele>
        <time>2010-05-14T11:32:47Z</time>
      </trkpt>
      <trkpt lat="48.64684" lon="1.73694">
        <ele>163</ele>
        <time>2010-05-14T11:32:48Z</time>
      </trkpt>
      <trkpt lat="48.64682" lon="1.73695">
        <ele>163</ele>
        <time>2010-05-14T11:32:50Z</time>
      </trkpt>
      <trkpt lat="48.6468" lon="1.73694">
        <ele>163</ele>
        <time>2010-05-14T11:32:51Z</time>
      </trkpt>
      <trkpt lat="48.64679" lon="1.73695">
        <ele>163</ele>
        <time>2010-05-14T11:32:53Z</time>
      </trkpt>
      <trkpt lat="48.64677" lon="1.73696">
        <ele>163</ele>
        <time>2010-05-14T11:32:55Z</time>
      </trkpt>
      <trkpt lat="48.64675" lon="1.73697">
        <ele>163</ele>
        <time>2010-05-14T11:32:56Z</time>
      </trkpt>
      <trkpt lat="48.64674" lon="1.73698">
        <ele>163</ele>
        <time>2010-05-14T11:32:57Z</time>
      </trkpt>
      <trkpt lat="48.64673" lon="1.73699">
        <ele>163</ele>
        <time>2010-05-14T11:32:58Z</time>
      </trkpt>
      <trkpt lat="48.64671" lon="1.73699">
        <ele>163</ele>
        <time>2010-05-14T11:32:59Z</time>
      </trkpt>
      <trkpt lat="48.6467" lon="1.73699">
        <ele>162</ele>
        <time>2010-05-14T11:33:00Z</time>
      </trkpt>
      <trkpt lat="48.64668" lon="1.737">
        <ele>162</ele>
        <time>2010-05-14T11:33:01Z</time>
      </trkpt>
      <trkpt lat="48.64666" lon="1.737">
        <ele>162</ele>
        <time>2010-05-14T11:33:02Z</time>
      </trkpt>
      <trkpt lat="48.64664" lon="1.73701">
        <ele>162</ele>
        <time>2010-05-14T11:33:03Z</time>
      </trkpt>
      <trkpt lat="48.64662" lon="1.73702">
        <ele>162</ele>
        <time>2010-05-14T11:33:04Z</time>
      </trkpt>
      <trkpt lat="48.64659" lon="1.73701">
        <ele>162</ele>
        <time>2010-05-14T11:33:05Z</time>
      </trkpt>
      <trkpt lat="48.64658" lon="1.73701">
        <ele>162</ele>
        <time>2010-05-14T11:33:06Z</time>
      </trkpt>
      <trkpt lat="48.64656" lon="1.73701">
        <ele>162</ele>
        <time>2010-05-14T11:33:08Z</time>
      </trkpt>
      <trkpt lat="48.64655" lon="1.73701">
        <ele>162</ele>
        <time>2010-05-14T11:33:09Z</time>
      </trkpt>
      <trkpt lat="48.64653" lon="1.73701">
        <ele>162</ele>
        <time>2010-05-14T11:33:10Z</time>
      </trkpt>
      <trkpt lat="48.64651" lon="1.73701">
        <ele>162</ele>
        <time>2010-05-14T11:33:11Z</time>
      </trkpt>
      <trkpt lat="48.6465" lon="1.73701">
        <ele>162</ele>
        <time>2010-05-14T11:33:12Z</time>
      </trkpt>
      <trkpt lat="48.64648" lon="1.73701">
        <ele>162</ele>
        <time>2010-05-14T11:33:13Z</time>
      </trkpt>
      <trkpt lat="48.64647" lon="1.73701">
        <ele>161</ele>
        <time>2010-05-14T11:33:14Z</time>
      </trkpt>
      <trkpt lat="48.64645" lon="1.73701">
        <ele>161</ele>
        <time>2010-05-14T11:33:15Z</time>
      </trkpt>
      <trkpt lat="48.64644" lon="1.73702">
        <ele>161</ele>
        <time>2010-05-14T11:33:16Z</time>
      </trkpt>
      <trkpt lat="48.64643" lon="1.73702">
        <ele>160</ele>
        <time>2010-05-14T11:33:17Z</time>
      </trkpt>
      <trkpt lat="48.64641" lon="1.73702">
        <ele>160</ele>
        <time>2010-05-14T11:33:18Z</time>
      </trkpt>
      <trkpt lat="48.6464" lon="1.73702">
        <ele>160</ele>
        <time>2010-05-14T11:33:19Z</time>
      </trkpt>
      <trkpt lat="48.64638" lon="1.73703">
        <ele>160</ele>
        <time>2010-05-14T11:33:20Z</time>
      </trkpt>
      <trkpt lat="48.64636" lon="1.73704">
        <ele>159</ele>
        <time>2010-05-14T11:33:21Z</time>
      </trkpt>
      <trkpt lat="48.64634" lon="1.73704">
        <ele>159</ele>
        <time>2010-05-14T11:33:22Z</time>
      </trkpt>
      <trkpt lat="48.64633" lon="1.73705">
        <ele>159</ele>
        <time>2010-05-14T11:33:23Z</time>
      </trkpt>
      <trkpt lat="48.64631" lon="1.73705">
        <ele>159</ele>
        <time>2010-05-14T11:33:24Z</time>
      </trkpt>
      <trkpt lat="48.64629" lon="1.73705">
        <ele>158</ele>
        <time>2010-05-14T11:33:25Z</time>
      </trkpt>
      <trkpt lat="48.64627" lon="1.73706">
        <ele>158</ele>
        <time>2010-05-14T11:33:26Z</time>
      </trkpt>
      <trkpt lat="48.64625" lon="1.73708">
        <ele>158</ele>
        <time>2010-05-14T11:33:27Z</time>
      </trkpt>
      <trkpt lat="48.64623" lon="1.73709">
        <ele>158</ele>
        <time>2010-05-14T11:33:28Z</time>
      </trkpt>
      <trkpt lat="48.64622" lon="1.73709">
        <ele>158</ele>
        <time>2010-05-14T11:33:29Z</time>
      </trkpt>
      <trkpt lat="48.6462" lon="1.7371">
        <ele>158</ele>
        <time>2010-05-14T11:33:30Z</time>
      </trkpt>
      <trkpt lat="48.64619" lon="1.7371">
        <ele>158</ele>
        <time>2010-05-14T11:33:31Z</time>
      </trkpt>
      <trkpt lat="48.64617" lon="1.7371">
        <ele>158</ele>
        <time>2010-05-14T11:33:32Z</time>
      </trkpt>
      <trkpt lat="48.64615" lon="1.7371">
        <ele>158</ele>
        <time>2010-05-14T11:33:33Z</time>
      </trkpt>
      <trkpt lat="48.64614" lon="1.73711">
        <ele>158</ele>
        <time>2010-05-14T11:33:34Z</time>
      </trkpt>
      <trkpt lat="48.64612" lon="1.73711">
        <ele>158</ele>
        <time>2010-05-14T11:33:35Z</time>
      </trkpt>
      <trkpt lat="48.64611" lon="1.73711">
        <ele>158</ele>
        <time>2010-05-14T11:33:36Z</time>
      </trkpt>
      <trkpt lat="48.64609" lon="1.73712">
        <ele>158</ele>
        <time>2010-05-14T11:33:37Z</time>
      </trkpt>
      <trkpt lat="48.64608" lon="1.73712">
        <ele>158</ele>
        <time>2010-05-14T11:33:38Z</time>
      </trkpt>
      <trkpt lat="48.64606" lon="1.73712">
        <ele>158</ele>
        <time>2010-05-14T11:33:39Z</time>
      </trkpt>
      <trkpt lat="48.64604" lon="1.73712">
        <ele>158</ele>
        <time>2010-05-14T11:33:40Z</time>
      </trkpt>
      <trkpt lat="48.64603" lon="1.73712">
        <ele>158</ele>
        <time>2010-05-14T11:33:41Z</time>
      </trkpt>
      <trkpt lat="48.64601" lon="1.73712">
        <ele>158</ele>
        <time>2010-05-14T11:33:42Z</time>
      </trkpt>
      <trkpt lat="48.646" lon="1.73713">
        <ele>158</ele>
        <time>2010-05-14T11:33:43Z</time>
      </trkpt>
      <trkpt lat="48.64598" lon="1.73713">
        <ele>158</ele>
        <time>2010-05-14T11:33:44Z</time>
      </trkpt>
      <trkpt lat="48.64596" lon="1.73713">
        <ele>158</ele>
        <time>2010-05-14T11:33:45Z</time>
      </trkpt>
      <trkpt lat="48.64595" lon="1.73714">
        <ele>158</ele>
        <time>2010-05-14T11:33:46Z</time>
      </trkpt>
      <trkpt lat="48.64593" lon="1.73714">
        <ele>158</ele>
        <time>2010-05-14T11:33:47Z</time>
      </trkpt>
      <trkpt lat="48.64592" lon="1.73714">
        <ele>158</ele>
        <time>2010-05-14T11:33:48Z</time>
      </trkpt>
      <trkpt lat="48.6459" lon="1.73715">
        <ele>158</ele>
        <time>2010-05-14T11:33:50Z</time>
      </trkpt>
      <trkpt lat="48.64588" lon="1.73715">
        <ele>158</ele>
        <time>2010-05-14T11:33:51Z</time>
      </trkpt>
      <trkpt lat="48.64586" lon="1.73715">
        <ele>158</ele>
        <time>2010-05-14T11:33:52Z</time>
      </trkpt>
      <trkpt lat="48.64584" lon="1.73715">
        <ele>158</ele>
        <time>2010-05-14T11:33:53Z</time>
      </trkpt>
      <trkpt lat="48.64583" lon="1.73716">
        <ele>158</ele>
        <time>2010-05-14T11:33:54Z</time>
      </trkpt>
      <trkpt lat="48.64581" lon="1.73716">
        <ele>158</ele>
        <time>2010-05-14T11:33:55Z</time>
      </trkpt>
      <trkpt lat="48.6458" lon="1.73717">
        <ele>158</ele>
        <time>2010-05-14T11:33:56Z</time>
      </trkpt>
      <trkpt lat="48.64578" lon="1.73718">
        <ele>158</ele>
        <time>2010-05-14T11:33:57Z</time>
      </trkpt>
      <trkpt lat="48.64576" lon="1.73718">
        <ele>158</ele>
        <time>2010-05-14T11:33:58Z</time>
      </trkpt>
      <trkpt lat="48.64575" lon="1.73718">
        <ele>158</ele>
        <time>2010-05-14T11:33:59Z</time>
      </trkpt>
      <trkpt lat="48.64573" lon="1.73718">
        <ele>158</ele>
        <time>2010-05-14T11:34:00Z</time>
      </trkpt>
      <trkpt lat="48.64571" lon="1.73718">
        <ele>158</ele>
        <time>2010-05-14T11:34:01Z</time>
      </trkpt>
      <trkpt lat="48.6457" lon="1.73718">
        <ele>158</ele>
        <time>2010-05-14T11:34:02Z</time>
      </trkpt>
      <trkpt lat="48.64568" lon="1.73718">
        <ele>158</ele>
        <time>2010-05-14T11:34:03Z</time>
      </trkpt>
      <trkpt lat="48.64567" lon="1.73718">
        <ele>158</ele>
        <time>2010-05-14T11:34:04Z</time>
      </trkpt>
      <trkpt lat="48.64565" lon="1.73718">
        <ele>158</ele>
        <time>2010-05-14T11:34:05Z</time>
      </trkpt>
      <trkpt lat="48.64564" lon="1.73718">
        <ele>158</ele>
        <time>2010-05-14T11:34:06Z</time>
      </trkpt>
      <trkpt lat="48.64562" lon="1.73718">
        <ele>158</ele>
        <time>2010-05-14T11:34:07Z</time>
      </trkpt>
      <trkpt lat="48.64561" lon="1.73719">
        <ele>158</ele>
        <time>2010-05-14T11:34:08Z</time>
      </trkpt>
      <trkpt lat="48.64559" lon="1.73719">
        <ele>158</ele>
        <time>2010-05-14T11:34:09Z</time>
      </trkpt>
      <trkpt lat="48.64557" lon="1.73719">
        <ele>158</ele>
        <time>2010-05-14T11:34:10Z</time>
      </trkpt>
      <trkpt lat="48.64556" lon="1.73719">
        <ele>158</ele>
        <time>2010-05-14T11:34:11Z</time>
      </trkpt>
      <trkpt lat="48.64555" lon="1.7372">
        <ele>158</ele>
        <time>2010-05-14T11:34:12Z</time>
      </trkpt>
      <trkpt lat="48.64553" lon="1.7372">
        <ele>158</ele>
        <time>2010-05-14T11:34:13Z</time>
      </trkpt>
      <trkpt lat="48.64551" lon="1.7372">
        <ele>158</ele>
        <time>2010-05-14T11:34:14Z</time>
      </trkpt>
      <trkpt lat="48.6455" lon="1.7372">
        <ele>158</ele>
        <time>2010-05-14T11:34:15Z</time>
      </trkpt>
      <trkpt lat="48.64548" lon="1.73721">
        <ele>158</ele>
        <time>2010-05-14T11:34:16Z</time>
      </trkpt>
      <trkpt lat="48.64547" lon="1.73721">
        <ele>158</ele>
        <time>2010-05-14T11:34:17Z</time>
      </trkpt>
      <trkpt lat="48.64546" lon="1.73722">
        <ele>158</ele>
        <time>2010-05-14T11:34:18Z</time>
      </trkpt>
      <trkpt lat="48.64545" lon="1.73722">
        <ele>158</ele>
        <time>2010-05-14T11:34:19Z</time>
      </trkpt>
      <trkpt lat="48.64544" lon="1.73722">
        <ele>158</ele>
        <time>2010-05-14T11:34:20Z</time>
      </trkpt>
      <trkpt lat="48.64543" lon="1.73723">
        <ele>158</ele>
        <time>2010-05-14T11:34:21Z</time>
      </trkpt>
      <trkpt lat="48.6454" lon="1.73724">
        <ele>158</ele>
        <time>2010-05-14T11:34:23Z</time>
      </trkpt>
      <trkpt lat="48.64539" lon="1.73724">
        <ele>158</ele>
        <time>2010-05-14T11:34:24Z</time>
      </trkpt>
      <trkpt lat="48.64537" lon="1.73724">
        <ele>158</ele>
        <time>2010-05-14T11:34:25Z</time>
      </trkpt>
      <trkpt lat="48.64536" lon="1.73724">
        <ele>158</ele>
        <time>2010-05-14T11:34:26Z</time>
      </trkpt>
      <trkpt lat="48.64535" lon="1.73723">
        <ele>158</ele>
        <time>2010-05-14T11:34:27Z</time>
      </trkpt>
      <trkpt lat="48.64533" lon="1.73724">
        <ele>158</ele>
        <time>2010-05-14T11:34:29Z</time>
      </trkpt>
      <trkpt lat="48.64532" lon="1.73724">
        <ele>158</ele>
        <time>2010-05-14T11:34:32Z</time>
      </trkpt>
      <trkpt lat="48.6453" lon="1.73724">
        <ele>158</ele>
        <time>2010-05-14T11:34:33Z</time>
      </trkpt>
      <trkpt lat="48.64529" lon="1.73725">
        <ele>158</ele>
        <time>2010-05-14T11:34:34Z</time>
      </trkpt>
      <trkpt lat="48.64527" lon="1.73724">
        <ele>158</ele>
        <time>2010-05-14T11:34:35Z</time>
      </trkpt>
      <trkpt lat="48.64525" lon="1.73724">
        <ele>158</ele>
        <time>2010-05-14T11:34:36Z</time>
      </trkpt>
      <trkpt lat="48.64523" lon="1.73724">
        <ele>158</ele>
        <time>2010-05-14T11:34:37Z</time>
      </trkpt>
      <trkpt lat="48.64521" lon="1.73724">
        <ele>158</ele>
        <time>2010-05-14T11:34:38Z</time>
      </trkpt>
      <trkpt lat="48.64519" lon="1.73724">
        <ele>158</ele>
        <time>2010-05-14T11:34:39Z</time>
      </trkpt>
      <trkpt lat="48.64518" lon="1.73724">
        <ele>158</ele>
        <time>2010-05-14T11:34:40Z</time>
      </trkpt>
      <trkpt lat="48.64517" lon="1.73725">
        <ele>158</ele>
        <time>2010-05-14T11:34:41Z</time>
      </trkpt>
      <trkpt lat="48.64515" lon="1.73725">
        <ele>158</ele>
        <time>2010-05-14T11:34:42Z</time>
      </trkpt>
      <trkpt lat="48.64514" lon="1.73725">
        <ele>158</ele>
        <time>2010-05-14T11:34:43Z</time>
      </trkpt>
      <trkpt lat="48.64512" lon="1.73724">
        <ele>158</ele>
        <time>2010-05-14T11:34:44Z</time>
      </trkpt>
      <trkpt lat="48.64511" lon="1.73725">
        <ele>158</ele>
        <time>2010-05-14T11:34:45Z</time>
      </trkpt>
      <trkpt lat="48.64509" lon="1.73725">
        <ele>158</ele>
        <time>2010-05-14T11:34:46Z</time>
      </trkpt>
      <trkpt lat="48.64508" lon="1.73725">
        <ele>158</ele>
        <time>2010-05-14T11:34:47Z</time>
      </trkpt>
      <trkpt lat="48.64506" lon="1.73726">
        <ele>158</ele>
        <time>2010-05-14T11:34:48Z</time>
      </trkpt>
      <trkpt lat="48.64505" lon="1.73726">
        <ele>158</ele>
        <time>2010-05-14T11:34:49Z</time>
      </trkpt>
      <trkpt lat="48.64503" lon="1.73726">
        <ele>158</ele>
        <time>2010-05-14T11:34:51Z</time>
      </trkpt>
      <trkpt lat="48.64502" lon="1.73727">
        <ele>158</ele>
        <time>2010-05-14T11:34:56Z</time>
      </trkpt>
      <trkpt lat="48.64501" lon="1.73729">
        <ele>158</ele>
        <time>2010-05-14T11:34:59Z</time>
      </trkpt>
      <trkpt lat="48.64502" lon="1.73728">
        <ele>158</ele>
        <time>2010-05-14T11:35:05Z</time>
      </trkpt>
      <trkpt lat="48.64502" lon="1.73731">
        <ele>158</ele>
        <time>2010-05-14T11:35:12Z</time>
      </trkpt>
      <trkpt lat="48.64504" lon="1.7373">
        <ele>158</ele>
        <time>2010-05-14T11:35:14Z</time>
      </trkpt>
      <trkpt lat="48.64505" lon="1.73729">
        <ele>158</ele>
        <time>2010-05-14T11:35:15Z</time>
      </trkpt>
      <trkpt lat="48.64507" lon="1.73728">
        <ele>158</ele>
        <time>2010-05-14T11:35:16Z</time>
      </trkpt>
      <trkpt lat="48.64509" lon="1.73727">
        <ele>158</ele>
        <time>2010-05-14T11:35:17Z</time>
      </trkpt>
      <trkpt lat="48.64511" lon="1.73726">
        <ele>158</ele>
        <time>2010-05-14T11:35:18Z</time>
      </trkpt>
      <trkpt lat="48.64513" lon="1.73725">
        <ele>158</ele>
        <time>2010-05-14T11:35:19Z</time>
      </trkpt>
      <trkpt lat="48.64515" lon="1.73725">
        <ele>158</ele>
        <time>2010-05-14T11:35:20Z</time>
      </trkpt>
      <trkpt lat="48.64517" lon="1.73724">
        <ele>158</ele>
        <time>2010-05-14T11:35:21Z</time>
      </trkpt>
      <trkpt lat="48.64519" lon="1.73724">
        <ele>158</ele>
        <time>2010-05-14T11:35:22Z</time>
      </trkpt>
      <trkpt lat="48.64521" lon="1.73723">
        <ele>158</ele>
        <time>2010-05-14T11:35:23Z</time>
      </trkpt>
      <trkpt lat="48.64522" lon="1.73723">
        <ele>158</ele>
        <time>2010-05-14T11:35:24Z</time>
      </trkpt>
      <trkpt lat="48.64524" lon="1.73722">
        <ele>158</ele>
        <time>2010-05-14T11:35:25Z</time>
      </trkpt>
      <trkpt lat="48.64526" lon="1.73722">
        <ele>158</ele>
        <time>2010-05-14T11:35:26Z</time>
      </trkpt>
      <trkpt lat="48.64528" lon="1.73722">
        <ele>158</ele>
        <time>2010-05-14T11:35:27Z</time>
      </trkpt>
      <trkpt lat="48.6453" lon="1.73722">
        <ele>158</ele>
        <time>2010-05-14T11:35:28Z</time>
      </trkpt>
      <trkpt lat="48.64532" lon="1.73722">
        <ele>158</ele>
        <time>2010-05-14T11:35:29Z</time>
      </trkpt>
      <trkpt lat="48.64534" lon="1.73721">
        <ele>158</ele>
        <time>2010-05-14T11:35:30Z</time>
      </trkpt>
      <trkpt lat="48.64536" lon="1.73721">
        <ele>158</ele>
        <time>2010-05-14T11:35:31Z</time>
      </trkpt>
      <trkpt lat="48.64538" lon="1.73721">
        <ele>158</ele>
        <time>2010-05-14T11:35:32Z</time>
      </trkpt>
      <trkpt lat="48.6454" lon="1.73721">
        <ele>158</ele>
        <time>2010-05-14T11:35:33Z</time>
      </trkpt>
      <trkpt lat="48.64541" lon="1.73721">
        <ele>158</ele>
        <time>2010-05-14T11:35:34Z</time>
      </trkpt>
      <trkpt lat="48.64543" lon="1.7372">
        <ele>158</ele>
        <time>2010-05-14T11:35:35Z</time>
      </trkpt>
      <trkpt lat="48.64545" lon="1.7372">
        <ele>159</ele>
        <time>2010-05-14T11:35:36Z</time>
      </trkpt>
      <trkpt lat="48.64547" lon="1.7372">
        <ele>160</ele>
        <time>2010-05-14T11:35:37Z</time>
      </trkpt>
      <trkpt lat="48.64548" lon="1.73719">
        <ele>160</ele>
        <time>2010-05-14T11:35:38Z</time>
      </trkpt>
      <trkpt lat="48.6455" lon="1.73719">
        <ele>161</ele>
        <time>2010-05-14T11:35:39Z</time>
      </trkpt>
      <trkpt lat="48.64552" lon="1.73719">
        <ele>162</ele>
        <time>2010-05-14T11:35:40Z</time>
      </trkpt>
      <trkpt lat="48.64553" lon="1.73718">
        <ele>162</ele>
        <time>2010-05-14T11:35:41Z</time>
      </trkpt>
      <trkpt lat="48.64555" lon="1.73718">
        <ele>162</ele>
        <time>2010-05-14T11:35:42Z</time>
      </trkpt>
      <trkpt lat="48.64557" lon="1.73718">
        <ele>163</ele>
        <time>2010-05-14T11:35:43Z</time>
      </trkpt>
      <trkpt lat="48.64559" lon="1.73718">
        <ele>163</ele>
        <time>2010-05-14T11:35:44Z</time>
      </trkpt>
      <trkpt lat="48.6456" lon="1.73718">
        <ele>163</ele>
        <time>2010-05-14T11:35:45Z</time>
      </trkpt>
      <trkpt lat="48.64562" lon="1.73717">
        <ele>163</ele>
        <time>2010-05-14T11:35:46Z</time>
      </trkpt>
      <trkpt lat="48.64564" lon="1.73717">
        <ele>163</ele>
        <time>2010-05-14T11:35:47Z</time>
      </trkpt>
      <trkpt lat="48.64565" lon="1.73717">
        <ele>163</ele>
        <time>2010-05-14T11:35:48Z</time>
      </trkpt>
      <trkpt lat="48.64567" lon="1.73717">
        <ele>164</ele>
        <time>2010-05-14T11:35:49Z</time>
      </trkpt>
      <trkpt lat="48.64569" lon="1.73717">
        <ele>164</ele>
        <time>2010-05-14T11:35:50Z</time>
      </trkpt>
      <trkpt lat="48.6457" lon="1.73716">
        <ele>164</ele>
        <time>2010-05-14T11:35:51Z</time>
      </trkpt>
      <trkpt lat="48.64572" lon="1.73716">
        <ele>164</ele>
        <time>2010-05-14T11:35:52Z</time>
      </trkpt>
      <trkpt lat="48.64574" lon="1.73716">
        <ele>164</ele>
        <time>2010-05-14T11:35:53Z</time>
      </trkpt>
      <trkpt lat="48.64575" lon="1.73716">
        <ele>164</ele>
        <time>2010-05-14T11:35:54Z</time>
      </trkpt>
      <trkpt lat="48.64577" lon="1.73716">
        <ele>164</ele>
        <time>2010-05-14T11:35:55Z</time>
      </trkpt>
      <trkpt lat="48.64578" lon="1.73716">
        <ele>164</ele>
        <time>2010-05-14T11:35:56Z</time>
      </trkpt>
      <trkpt lat="48.6458" lon="1.73716">
        <ele>164</ele>
        <time>2010-05-14T11:35:57Z</time>
      </trkpt>
      <trkpt lat="48.64582" lon="1.73715">
        <ele>164</ele>
        <time>2010-05-14T11:35:58Z</time>
      </trkpt>
      <trkpt lat="48.64584" lon="1.73715">
        <ele>164</ele>
        <time>2010-05-14T11:35:59Z</time>
      </trkpt>
      <trkpt lat="48.64586" lon="1.73716">
        <ele>164</ele>
        <time>2010-05-14T11:36:00Z</time>
      </trkpt>
      <trkpt lat="48.64587" lon="1.73715">
        <ele>164</ele>
        <time>2010-05-14T11:36:01Z</time>
      </trkpt>
      <trkpt lat="48.64589" lon="1.73715">
        <ele>164</ele>
        <time>2010-05-14T11:36:02Z</time>
      </trkpt>
      <trkpt lat="48.64591" lon="1.73715">
        <ele>164</ele>
        <time>2010-05-14T11:36:03Z</time>
      </trkpt>
      <trkpt lat="48.64592" lon="1.73715">
        <ele>164</ele>
        <time>2010-05-14T11:36:04Z</time>
      </trkpt>
      <trkpt lat="48.64594" lon="1.73715">
        <ele>164</ele>
        <time>2010-05-14T11:36:05Z</time>
      </trkpt>
      <trkpt lat="48.64595" lon="1.73715">
        <ele>164</ele>
        <time>2010-05-14T11:36:06Z</time>
      </trkpt>
      <trkpt lat="48.64597" lon="1.73715">
        <ele>164</ele>
        <time>2010-05-14T11:36:07Z</time>
      </trkpt>
      <trkpt lat="48.64599" lon="1.73714">
        <ele>163</ele>
        <time>2010-05-14T11:36:08Z</time>
      </trkpt>
      <trkpt lat="48.646" lon="1.73714">
        <ele>162</ele>
        <time>2010-05-14T11:36:09Z</time>
      </trkpt>
      <trkpt lat="48.64602" lon="1.73714">
        <ele>161</ele>
        <time>2010-05-14T11:36:10Z</time>
      </trkpt>
      <trkpt lat="48.64603" lon="1.73714">
        <ele>160</ele>
        <time>2010-05-14T11:36:11Z</time>
      </trkpt>
      <trkpt lat="48.64605" lon="1.73714">
        <ele>159</ele>
        <time>2010-05-14T11:36:12Z</time>
      </trkpt>
      <trkpt lat="48.64607" lon="1.73714">
        <ele>158</ele>
        <time>2010-05-14T11:36:13Z</time>
      </trkpt>
      <trkpt lat="48.64609" lon="1.73714">
        <ele>157</ele>
        <time>2010-05-14T11:36:14Z</time>
      </trkpt>
      <trkpt lat="48.6461" lon="1.73714">
        <ele>156</ele>
        <time>2010-05-14T11:36:15Z</time>
      </trkpt>
      <trkpt lat="48.64612" lon="1.73714">
        <ele>155</ele>
        <time>2010-05-14T11:36:16Z</time>
      </trkpt>
      <trkpt lat="48.64613" lon="1.73714">
        <ele>154</ele>
        <time>2010-05-14T11:36:17Z</time>
      </trkpt>
      <trkpt lat="48.64615" lon="1.73714">
        <ele>154</ele>
        <time>2010-05-14T11:36:18Z</time>
      </trkpt>
      <trkpt lat="48.64617" lon="1.73714">
        <ele>153</ele>
        <time>2010-05-14T11:36:19Z</time>
      </trkpt>
      <trkpt lat="48.64619" lon="1.73714">
        <ele>153</ele>
        <time>2010-05-14T11:36:20Z</time>
      </trkpt>
      <trkpt lat="48.64621" lon="1.73714">
        <ele>152</ele>
        <time>2010-05-14T11:36:21Z</time>
      </trkpt>
      <trkpt lat="48.64622" lon="1.73714">
        <ele>152</ele>
        <time>2010-05-14T11:36:22Z</time>
      </trkpt>
      <trkpt lat="48.64624" lon="1.73713">
        <ele>151</ele>
        <time>2010-05-14T11:36:23Z</time>
      </trkpt>
      <trkpt lat="48.64626" lon="1.73713">
        <ele>150</ele>
        <time>2010-05-14T11:36:24Z</time>
      </trkpt>
      <trkpt lat="48.64627" lon="1.73713">
        <ele>150</ele>
        <time>2010-05-14T11:36:25Z</time>
      </trkpt>
      <trkpt lat="48.64629" lon="1.73712">
        <ele>149</ele>
        <time>2010-05-14T11:36:26Z</time>
      </trkpt>
      <trkpt lat="48.6463" lon="1.73712">
        <ele>149</ele>
        <time>2010-05-14T11:36:27Z</time>
      </trkpt>
      <trkpt lat="48.64632" lon="1.73712">
        <ele>149</ele>
        <time>2010-05-14T11:36:28Z</time>
      </trkpt>
      <trkpt lat="48.64634" lon="1.73712">
        <ele>149</ele>
        <time>2010-05-14T11:36:29Z</time>
      </trkpt>
      <trkpt lat="48.64635" lon="1.73711">
        <ele>149</ele>
        <time>2010-05-14T11:36:30Z</time>
      </trkpt>
      <trkpt lat="48.64637" lon="1.73711">
        <ele>149</ele>
        <time>2010-05-14T11:36:31Z</time>
      </trkpt>
      <trkpt lat="48.64639" lon="1.73711">
        <ele>149</ele>
        <time>2010-05-14T11:36:32Z</time>
      </trkpt>
      <trkpt lat="48.6464" lon="1.73711">
        <ele>149</ele>
        <time>2010-05-14T11:36:33Z</time>
      </trkpt>
      <trkpt lat="48.64641" lon="1.7371">
        <ele>149</ele>
        <time>2010-05-14T11:36:34Z</time>
      </trkpt>
      <trkpt lat="48.64643" lon="1.73709">
        <ele>149</ele>
        <time>2010-05-14T11:36:35Z</time>
      </trkpt>
      <trkpt lat="48.64644" lon="1.73709">
        <ele>149</ele>
        <time>2010-05-14T11:36:36Z</time>
      </trkpt>
      <trkpt lat="48.64646" lon="1.73708">
        <ele>149</ele>
        <time>2010-05-14T11:36:37Z</time>
      </trkpt>
      <trkpt lat="48.64648" lon="1.73708">
        <ele>149</ele>
        <time>2010-05-14T11:36:38Z</time>
      </trkpt>
      <trkpt lat="48.64649" lon="1.73707">
        <ele>150</ele>
        <time>2010-05-14T11:36:39Z</time>
      </trkpt>
      <trkpt lat="48.64651" lon="1.73707">
        <ele>151</ele>
        <time>2010-05-14T11:36:40Z</time>
      </trkpt>
      <trkpt lat="48.64652" lon="1.73707">
        <ele>152</ele>
        <time>2010-05-14T11:36:41Z</time>
      </trkpt>
      <trkpt lat="48.64654" lon="1.73706">
        <ele>152</ele>
        <time>2010-05-14T11:36:42Z</time>
      </trkpt>
      <trkpt lat="48.64656" lon="1.73706">
        <ele>152</ele>
        <time>2010-05-14T11:36:43Z</time>
      </trkpt>
      <trkpt lat="48.64658" lon="1.73706">
        <ele>152</ele>
        <time>2010-05-14T11:36:44Z</time>
      </trkpt>
      <trkpt lat="48.64659" lon="1.73706">
        <ele>153</ele>
        <time>2010-05-14T11:36:45Z</time>
      </trkpt>
      <trkpt lat="48.64661" lon="1.73706">
        <ele>153</ele>
        <time>2010-05-14T11:36:46Z</time>
      </trkpt>
      <trkpt lat="48.64662" lon="1.73706">
        <ele>153</ele>
        <time>2010-05-14T11:36:47Z</time>
      </trkpt>
      <trkpt lat="48.64664" lon="1.73706">
        <ele>154</ele>
        <time>2010-05-14T11:36:48Z</time>
      </trkpt>
      <trkpt lat="48.64665" lon="1.73706">
        <ele>154</ele>
        <time>2010-05-14T11:36:49Z</time>
      </trkpt>
      <trkpt lat="48.64668" lon="1.73706">
        <ele>154</ele>
        <time>2010-05-14T11:36:50Z</time>
      </trkpt>
      <trkpt lat="48.64669" lon="1.73706">
        <ele>154</ele>
        <time>2010-05-14T11:36:51Z</time>
      </trkpt>
      <trkpt lat="48.64671" lon="1.73706">
        <ele>154</ele>
        <time>2010-05-14T11:36:53Z</time>
      </trkpt>
      <trkpt lat="48.64673" lon="1.73706">
        <ele>154</ele>
        <time>2010-05-14T11:36:55Z</time>
      </trkpt>
      <trkpt lat="48.64675" lon="1.73704">
        <ele>154</ele>
        <time>2010-05-14T11:36:57Z</time>
      </trkpt>
      <trkpt lat="48.64677" lon="1.73704">
        <ele>154</ele>
        <time>2010-05-14T11:36:59Z</time>
      </trkpt>
      <trkpt lat="48.64679" lon="1.73704">
        <ele>154</ele>
        <time>2010-05-14T11:37:00Z</time>
      </trkpt>
      <trkpt lat="48.64681" lon="1.73705">
        <ele>154</ele>
        <time>2010-05-14T11:37:01Z</time>
      </trkpt>
      <trkpt lat="48.64691" lon="1.73702">
        <ele>154</ele>
        <time>2010-05-14T11:37:10Z</time>
      </trkpt>
      <trkpt lat="48.64693" lon="1.73702">
        <ele>154</ele>
        <time>2010-05-14T11:37:12Z</time>
      </trkpt>
      <trkpt lat="48.64694" lon="1.73703">
        <ele>154</ele>
        <time>2010-05-14T11:37:13Z</time>
      </trkpt>
      <trkpt lat="48.64699" lon="1.73699">
        <ele>154</ele>
        <time>2010-05-14T11:37:17Z</time>
      </trkpt>
      <trkpt lat="48.64701" lon="1.73699">
        <ele>154</ele>
        <time>2010-05-14T11:37:18Z</time>
      </trkpt>
      <trkpt lat="48.64702" lon="1.73699">
        <ele>154</ele>
        <time>2010-05-14T11:37:19Z</time>
      </trkpt>
      <trkpt lat="48.64704" lon="1.73698">
        <ele>154</ele>
        <time>2010-05-14T11:37:20Z</time>
      </trkpt>
      <trkpt lat="48.64708" lon="1.73695">
        <ele>154</ele>
        <time>2010-05-14T11:37:23Z</time>
      </trkpt>
      <trkpt lat="48.6471" lon="1.73696">
        <ele>154</ele>
        <time>2010-05-14T11:37:24Z</time>
      </trkpt>
      <trkpt lat="48.64713" lon="1.73696">
        <ele>154</ele>
        <time>2010-05-14T11:37:25Z</time>
      </trkpt>
      <trkpt lat="48.64716" lon="1.73696">
        <ele>154</ele>
        <time>2010-05-14T11:37:26Z</time>
      </trkpt>
      <trkpt lat="48.64718" lon="1.73697">
        <ele>154</ele>
        <time>2010-05-14T11:37:27Z</time>
      </trkpt>
      <trkpt lat="48.64719" lon="1.73697">
        <ele>154</ele>
        <time>2010-05-14T11:37:28Z</time>
      </trkpt>
      <trkpt lat="48.64721" lon="1.73696">
        <ele>154</ele>
        <time>2010-05-14T11:37:29Z</time>
      </trkpt>
      <trkpt lat="48.64723" lon="1.73697">
        <ele>154</ele>
        <time>2010-05-14T11:37:30Z</time>
      </trkpt>
      <trkpt lat="48.64724" lon="1.73697">
        <ele>154</ele>
        <time>2010-05-14T11:37:31Z</time>
      </trkpt>
      <trkpt lat="48.64726" lon="1.73697">
        <ele>154</ele>
        <time>2010-05-14T11:37:32Z</time>
      </trkpt>
      <trkpt lat="48.64728" lon="1.737">
        <ele>154</ele>
        <time>2010-05-14T11:37:35Z</time>
      </trkpt>
      <trkpt lat="48.6473" lon="1.73699">
        <ele>154</ele>
        <time>2010-05-14T11:37:36Z</time>
      </trkpt>
      <trkpt lat="48.64733" lon="1.737">
        <ele>154</ele>
        <time>2010-05-14T11:37:37Z</time>
      </trkpt>
      <trkpt lat="48.64734" lon="1.737">
        <ele>154</ele>
        <time>2010-05-14T11:37:38Z</time>
      </trkpt>
      <trkpt lat="48.64737" lon="1.73698">
        <ele>154</ele>
        <time>2010-05-14T11:37:39Z</time>
      </trkpt>
      <trkpt lat="48.64739" lon="1.73697">
        <ele>154</ele>
        <time>2010-05-14T11:37:40Z</time>
      </trkpt>
      <trkpt lat="48.6474" lon="1.73695">
        <ele>154</ele>
        <time>2010-05-14T11:37:42Z</time>
      </trkpt>
      <trkpt lat="48.64742" lon="1.73695">
        <ele>154</ele>
        <time>2010-05-14T11:37:43Z</time>
      </trkpt>
      <trkpt lat="48.64744" lon="1.73694">
        <ele>154</ele>
        <time>2010-05-14T11:37:44Z</time>
      </trkpt>
      <trkpt lat="48.64745" lon="1.73693">
        <ele>154</ele>
        <time>2010-05-14T11:37:45Z</time>
      </trkpt>
      <trkpt lat="48.64748" lon="1.73693">
        <ele>155</ele>
        <time>2010-05-14T11:37:47Z</time>
      </trkpt>
      <trkpt lat="48.6475" lon="1.73693">
        <ele>156</ele>
        <time>2010-05-14T11:37:48Z</time>
      </trkpt>
      <trkpt lat="48.64753" lon="1.73692">
        <ele>157</ele>
        <time>2010-05-14T11:37:49Z</time>
      </trkpt>
      <trkpt lat="48.64754" lon="1.73692">
        <ele>157</ele>
        <time>2010-05-14T11:37:50Z</time>
      </trkpt>
      <trkpt lat="48.64755" lon="1.73691">
        <ele>157</ele>
        <time>2010-05-14T11:37:51Z</time>
      </trkpt>
      <trkpt lat="48.64757" lon="1.73691">
        <ele>157</ele>
        <time>2010-05-14T11:37:53Z</time>
      </trkpt>
      <trkpt lat="48.64758" lon="1.73691">
        <ele>157</ele>
        <time>2010-05-14T11:37:54Z</time>
      </trkpt>
      <trkpt lat="48.64761" lon="1.73691">
        <ele>157</ele>
        <time>2010-05-14T11:37:57Z</time>
      </trkpt>
      <trkpt lat="48.64763" lon="1.73691">
        <ele>157</ele>
        <time>2010-05-14T11:37:58Z</time>
      </trkpt>
      <trkpt lat="48.64765" lon="1.73691">
        <ele>157</ele>
        <time>2010-05-14T11:37:59Z</time>
      </trkpt>
      <trkpt lat="48.64766" lon="1.73691">
        <ele>157</ele>
        <time>2010-05-14T11:38:00Z</time>
      </trkpt>
      <trkpt lat="48.64768" lon="1.73691">
        <ele>157</ele>
        <time>2010-05-14T11:38:02Z</time>
      </trkpt>
      <trkpt lat="48.64769" lon="1.73691">
        <ele>157</ele>
        <time>2010-05-14T11:38:03Z</time>
      </trkpt>
      <trkpt lat="48.64771" lon="1.73691">
        <ele>157</ele>
        <time>2010-05-14T11:38:04Z</time>
      </trkpt>
      <trkpt lat="48.64772" lon="1.73692">
        <ele>157</ele>
        <time>2010-05-14T11:38:05Z</time>
      </trkpt>
      <trkpt lat="48.64774" lon="1.73693">
        <ele>157</ele>
        <time>2010-05-14T11:38:06Z</time>
      </trkpt>
      <trkpt lat="48.64776" lon="1.73692">
        <ele>157</ele>
        <time>2010-05-14T11:38:07Z</time>
      </trkpt>
      <trkpt lat="48.64777" lon="1.73692">
        <ele>157</ele>
        <time>2010-05-14T11:38:08Z</time>
      </trkpt>
      <trkpt lat="48.64778" lon="1.73692">
        <ele>157</ele>
        <time>2010-05-14T11:38:09Z</time>
      </trkpt>
      <trkpt lat="48.64781" lon="1.73692">
        <ele>157</ele>
        <time>2010-05-14T11:38:10Z</time>
      </trkpt>
      <trkpt lat="48.64782" lon="1.73692">
        <ele>158</ele>
        <time>2010-05-14T11:38:11Z</time>
      </trkpt>
      <trkpt lat="48.64784" lon="1.73691">
        <ele>159</ele>
        <time>2010-05-14T11:38:12Z</time>
      </trkpt>
      <trkpt lat="48.64786" lon="1.73691">
        <ele>159</ele>
        <time>2010-05-14T11:38:13Z</time>
      </trkpt>
      <trkpt lat="48.64788" lon="1.73692">
        <ele>159</ele>
        <time>2010-05-14T11:38:15Z</time>
      </trkpt>
      <trkpt lat="48.64789" lon="1.73692">
        <ele>159</ele>
        <time>2010-05-14T11:38:16Z</time>
      </trkpt>
      <trkpt lat="48.6479" lon="1.73693">
        <ele>159</ele>
        <time>2010-05-14T11:38:17Z</time>
      </trkpt>
      <trkpt lat="48.64792" lon="1.73693">
        <ele>159</ele>
        <time>2010-05-14T11:38:18Z</time>
      </trkpt>
      <trkpt lat="48.64794" lon="1.73692">
        <ele>159</ele>
        <time>2010-05-14T11:38:19Z</time>
      </trkpt>
      <trkpt lat="48.64796" lon="1.73692">
        <ele>159</ele>
        <time>2010-05-14T11:38:20Z</time>
      </trkpt>
      <trkpt lat="48.64798" lon="1.73691">
        <ele>159</ele>
        <time>2010-05-14T11:38:21Z</time>
      </trkpt>
      <trkpt lat="48.64801" lon="1.73691">
        <ele>159</ele>
        <time>2010-05-14T11:38:22Z</time>
      </trkpt>
      <trkpt lat="48.64803" lon="1.73691">
        <ele>159</ele>
        <time>2010-05-14T11:38:23Z</time>
      </trkpt>
      <trkpt lat="48.64806" lon="1.7369">
        <ele>159</ele>
        <time>2010-05-14T11:38:24Z</time>
      </trkpt>
      <trkpt lat="48.64807" lon="1.73691">
        <ele>159</ele>
        <time>2010-05-14T11:38:25Z</time>
      </trkpt>
      <trkpt lat="48.6481" lon="1.73691">
        <ele>159</ele>
        <time>2010-05-14T11:38:26Z</time>
      </trkpt>
      <trkpt lat="48.64813" lon="1.7369">
        <ele>159</ele>
        <time>2010-05-14T11:38:29Z</time>
      </trkpt>
      <trkpt lat="48.64817" lon="1.73689">
        <ele>159</ele>
        <time>2010-05-14T11:38:31Z</time>
      </trkpt>
      <trkpt lat="48.64818" lon="1.73689">
        <ele>159</ele>
        <time>2010-05-14T11:38:32Z</time>
      </trkpt>
      <trkpt lat="48.64821" lon="1.73688">
        <ele>159</ele>
        <time>2010-05-14T11:38:33Z</time>
      </trkpt>
      <trkpt lat="48.64823" lon="1.73687">
        <ele>159</ele>
        <time>2010-05-14T11:38:34Z</time>
      </trkpt>
      <trkpt lat="48.64825" lon="1.73687">
        <ele>159</ele>
        <time>2010-05-14T11:38:35Z</time>
      </trkpt>
      <trkpt lat="48.64829" lon="1.73687">
        <ele>159</ele>
        <time>2010-05-14T11:38:38Z</time>
      </trkpt>
      <trkpt lat="48.64831" lon="1.73687">
        <ele>159</ele>
        <time>2010-05-14T11:38:39Z</time>
      </trkpt>
      <trkpt lat="48.64834" lon="1.73685">
        <ele>159</ele>
        <time>2010-05-14T11:38:40Z</time>
      </trkpt>
      <trkpt lat="48.64835" lon="1.73684">
        <ele>159</ele>
        <time>2010-05-14T11:38:41Z</time>
      </trkpt>
      <trkpt lat="48.64838" lon="1.73684">
        <ele>159</ele>
        <time>2010-05-14T11:38:44Z</time>
      </trkpt>
      <trkpt lat="48.6484" lon="1.73686">
        <ele>159</ele>
        <time>2010-05-14T11:38:45Z</time>
      </trkpt>
      <trkpt lat="48.64843" lon="1.73687">
        <ele>159</ele>
        <time>2010-05-14T11:38:46Z</time>
      </trkpt>
      <trkpt lat="48.64845" lon="1.73689">
        <ele>159</ele>
        <time>2010-05-14T11:38:48Z</time>
      </trkpt>
      <trkpt lat="48.64847" lon="1.73688">
        <ele>159</ele>
        <time>2010-05-14T11:38:49Z</time>
      </trkpt>
      <trkpt lat="48.64848" lon="1.73687">
        <ele>159</ele>
        <time>2010-05-14T11:38:50Z</time>
      </trkpt>
      <trkpt lat="48.6485" lon="1.73687">
        <ele>159</ele>
        <time>2010-05-14T11:38:51Z</time>
      </trkpt>
      <trkpt lat="48.64852" lon="1.73687">
        <ele>159</ele>
        <time>2010-05-14T11:38:53Z</time>
      </trkpt>
      <trkpt lat="48.64853" lon="1.73687">
        <ele>158</ele>
        <time>2010-05-14T11:38:54Z</time>
      </trkpt>
      <trkpt lat="48.6486" lon="1.73684">
        <ele>156</ele>
        <time>2010-05-14T11:39:00Z</time>
      </trkpt>
      <trkpt lat="48.64865" lon="1.73684">
        <ele>155</ele>
        <time>2010-05-14T11:39:03Z</time>
      </trkpt>
      <trkpt lat="48.6487" lon="1.73685">
        <ele>154</ele>
        <time>2010-05-14T11:39:04Z</time>
      </trkpt>
      <trkpt lat="48.64873" lon="1.73684">
        <ele>153</ele>
        <time>2010-05-14T11:39:05Z</time>
      </trkpt>
      <trkpt lat="48.64876" lon="1.73685">
        <ele>152</ele>
        <time>2010-05-14T11:39:06Z</time>
      </trkpt>
      <trkpt lat="48.64879" lon="1.73685">
        <ele>151</ele>
        <time>2010-05-14T11:39:09Z</time>
      </trkpt>
      <trkpt lat="48.64882" lon="1.73687">
        <ele>150</ele>
        <time>2010-05-14T11:39:10Z</time>
      </trkpt>
      <trkpt lat="48.64883" lon="1.73689">
        <ele>150</ele>
        <time>2010-05-14T11:39:12Z</time>
      </trkpt>
      <trkpt lat="48.64884" lon="1.73688">
        <ele>150</ele>
        <time>2010-05-14T11:39:13Z</time>
      </trkpt>
      <trkpt lat="48.64886" lon="1.73689">
        <ele>150</ele>
        <time>2010-05-14T11:39:14Z</time>
      </trkpt>
      <trkpt lat="48.64885" lon="1.73691">
        <ele>150</ele>
        <time>2010-05-14T11:39:15Z</time>
      </trkpt>
      <trkpt lat="48.64887" lon="1.73692">
        <ele>150</ele>
        <time>2010-05-14T11:39:16Z</time>
      </trkpt>
      <trkpt lat="48.64889" lon="1.73691">
        <ele>150</ele>
        <time>2010-05-14T11:39:17Z</time>
      </trkpt>
      <trkpt lat="48.64891" lon="1.73691">
        <ele>151</ele>
        <time>2010-05-14T11:39:18Z</time>
      </trkpt>
      <trkpt lat="48.64894" lon="1.73691">
        <ele>152</ele>
        <time>2010-05-14T11:39:19Z</time>
      </trkpt>
      <trkpt lat="48.64895" lon="1.73691">
        <ele>153</ele>
        <time>2010-05-14T11:39:20Z</time>
      </trkpt>
      <trkpt lat="48.64898" lon="1.73693">
        <ele>154</ele>
        <time>2010-05-14T11:39:22Z</time>
      </trkpt>
      <trkpt lat="48.649" lon="1.73694">
        <ele>154</ele>
        <time>2010-05-14T11:39:23Z</time>
      </trkpt>
      <trkpt lat="48.64904" lon="1.73698">
        <ele>154</ele>
        <time>2010-05-14T11:39:27Z</time>
      </trkpt>
      <trkpt lat="48.64908" lon="1.73698">
        <ele>156</ele>
        <time>2010-05-14T11:39:29Z</time>
      </trkpt>
      <trkpt lat="48.64911" lon="1.73699">
        <ele>157</ele>
        <time>2010-05-14T11:39:30Z</time>
      </trkpt>
      <trkpt lat="48.64913" lon="1.73701">
        <ele>159</ele>
        <time>2010-05-14T11:39:32Z</time>
      </trkpt>
      <trkpt lat="48.64918" lon="1.73703">
        <ele>160</ele>
        <time>2010-05-14T11:39:37Z</time>
      </trkpt>
      <trkpt lat="48.64921" lon="1.73704">
        <ele>162</ele>
        <time>2010-05-14T11:39:39Z</time>
      </trkpt>
      <trkpt lat="48.64924" lon="1.73704">
        <ele>163</ele>
        <time>2010-05-14T11:39:40Z</time>
      </trkpt>
      <trkpt lat="48.64926" lon="1.73705">
        <ele>164</ele>
        <time>2010-05-14T11:39:41Z</time>
      </trkpt>
      <trkpt lat="48.64928" lon="1.73705">
        <ele>165</ele>
        <time>2010-05-14T11:39:42Z</time>
      </trkpt>
      <trkpt lat="48.6493" lon="1.73706">
        <ele>166</ele>
        <time>2010-05-14T11:39:43Z</time>
      </trkpt>
      <trkpt lat="48.64932" lon="1.73706">
        <ele>166</ele>
        <time>2010-05-14T11:39:44Z</time>
      </trkpt>
      <trkpt lat="48.64933" lon="1.73705">
        <ele>166</ele>
        <time>2010-05-14T11:39:45Z</time>
      </trkpt>
      <trkpt lat="48.64934" lon="1.73706">
        <ele>166</ele>
        <time>2010-05-14T11:39:46Z</time>
      </trkpt>
      <trkpt lat="48.6494" lon="1.73705">
        <ele>166</ele>
        <time>2010-05-14T11:39:50Z</time>
      </trkpt>
      <trkpt lat="48.64941" lon="1.73704">
        <ele>166</ele>
        <time>2010-05-14T11:39:51Z</time>
      </trkpt>
      <trkpt lat="48.64943" lon="1.73704">
        <ele>166</ele>
        <time>2010-05-14T11:39:52Z</time>
      </trkpt>
      <trkpt lat="48.64944" lon="1.73705">
        <ele>166</ele>
        <time>2010-05-14T11:39:54Z</time>
      </trkpt>
      <trkpt lat="48.64947" lon="1.73706">
        <ele>164</ele>
        <time>2010-05-14T11:39:57Z</time>
      </trkpt>
      <trkpt lat="48.64948" lon="1.73706">
        <ele>164</ele>
        <time>2010-05-14T11:39:59Z</time>
      </trkpt>
      <trkpt lat="48.64951" lon="1.73706">
        <ele>164</ele>
        <time>2010-05-14T11:40:00Z</time>
      </trkpt>
      <trkpt lat="48.64952" lon="1.73707">
        <ele>164</ele>
        <time>2010-05-14T11:40:01Z</time>
      </trkpt>
      <trkpt lat="48.64956" lon="1.73705">
        <ele>164</ele>
        <time>2010-05-14T11:40:04Z</time>
      </trkpt>
      <trkpt lat="48.64959" lon="1.73706">
        <ele>164</ele>
        <time>2010-05-14T11:40:05Z</time>
      </trkpt>
      <trkpt lat="48.64963" lon="1.73709">
        <ele>164</ele>
        <time>2010-05-14T11:40:08Z</time>
      </trkpt>
      <trkpt lat="48.64965" lon="1.73713">
        <ele>164</ele>
        <time>2010-05-14T11:40:09Z</time>
      </trkpt>
      <trkpt lat="48.64969" lon="1.7372">
        <ele>163</ele>
        <time>2010-05-14T11:40:10Z</time>
      </trkpt>
      <trkpt lat="48.64969" lon="1.73723">
        <ele>163</ele>
        <time>2010-05-14T11:40:11Z</time>
      </trkpt>
      <trkpt lat="48.6497" lon="1.73725">
        <ele>163</ele>
        <time>2010-05-14T11:40:12Z</time>
      </trkpt>
      <trkpt lat="48.64972" lon="1.73725">
        <ele>163</ele>
        <time>2010-05-14T11:40:13Z</time>
      </trkpt>
      <trkpt lat="48.64975" lon="1.73725">
        <ele>163</ele>
        <time>2010-05-14T11:40:15Z</time>
      </trkpt>
      <trkpt lat="48.64977" lon="1.73724">
        <ele>163</ele>
        <time>2010-05-14T11:40:16Z</time>
      </trkpt>
      <trkpt lat="48.64978" lon="1.73725">
        <ele>164</ele>
        <time>2010-05-14T11:40:17Z</time>
      </trkpt>
      <trkpt lat="48.6498" lon="1.73721">
        <ele>169</ele>
        <time>2010-05-14T11:40:24Z</time>
      </trkpt>
      <trkpt lat="48.6498" lon="1.73715">
        <ele>170</ele>
        <time>2010-05-14T11:40:25Z</time>
      </trkpt>
      <trkpt lat="48.6498" lon="1.73712">
        <ele>171</ele>
        <time>2010-05-14T11:40:26Z</time>
      </trkpt>
      <trkpt lat="48.64978" lon="1.73708">
        <ele>171</ele>
        <time>2010-05-14T11:40:27Z</time>
      </trkpt>
      <trkpt lat="48.64977" lon="1.73702">
        <ele>171</ele>
        <time>2010-05-14T11:40:30Z</time>
      </trkpt>
      <trkpt lat="48.64974" lon="1.73699">
        <ele>171</ele>
        <time>2010-05-14T11:40:31Z</time>
      </trkpt>
      <trkpt lat="48.64973" lon="1.73697">
        <ele>171</ele>
        <time>2010-05-14T11:40:32Z</time>
      </trkpt>
      <trkpt lat="48.6497" lon="1.73692">
        <ele>171</ele>
        <time>2010-05-14T11:40:33Z</time>
      </trkpt>
      <trkpt lat="48.64969" lon="1.73692">
        <ele>171</ele>
        <time>2010-05-14T11:40:34Z</time>
      </trkpt>
      <trkpt lat="48.64969" lon="1.73689">
        <ele>169</ele>
        <time>2010-05-14T11:40:36Z</time>
      </trkpt>
      <trkpt lat="48.6497" lon="1.73688">
        <ele>168</ele>
        <time>2010-05-14T11:40:37Z</time>
      </trkpt>
      <trkpt lat="48.64971" lon="1.73685">
        <ele>168</ele>
        <time>2010-05-14T11:40:39Z</time>
      </trkpt>
      <trkpt lat="48.6497" lon="1.73682">
        <ele>168</ele>
        <time>2010-05-14T11:40:41Z</time>
      </trkpt>
      <trkpt lat="48.64969" lon="1.73678">
        <ele>168</ele>
        <time>2010-05-14T11:40:43Z</time>
      </trkpt>
      <trkpt lat="48.64969" lon="1.73676">
        <ele>169</ele>
        <time>2010-05-14T11:40:45Z</time>
      </trkpt>
      <trkpt lat="48.64968" lon="1.73674">
        <ele>170</ele>
        <time>2010-05-14T11:40:47Z</time>
      </trkpt>
      <trkpt lat="48.64966" lon="1.73672">
        <ele>170</ele>
        <time>2010-05-14T11:40:48Z</time>
      </trkpt>
      <trkpt lat="48.64965" lon="1.7367">
        <ele>170</ele>
        <time>2010-05-14T11:40:50Z</time>
      </trkpt>
      <trkpt lat="48.64965" lon="1.73668">
        <ele>170</ele>
        <time>2010-05-14T11:40:51Z</time>
      </trkpt>
      <trkpt lat="48.64964" lon="1.73666">
        <ele>170</ele>
        <time>2010-05-14T11:40:53Z</time>
      </trkpt>
      <trkpt lat="48.64963" lon="1.73663">
        <ele>171</ele>
        <time>2010-05-14T11:40:54Z</time>
      </trkpt>
      <trkpt lat="48.64962" lon="1.7366">
        <ele>171</ele>
        <time>2010-05-14T11:40:56Z</time>
      </trkpt>
      <trkpt lat="48.64959" lon="1.73655">
        <ele>171</ele>
        <time>2010-05-14T11:40:58Z</time>
      </trkpt>
      <trkpt lat="48.64959" lon="1.73653">
        <ele>171</ele>
        <time>2010-05-14T11:40:59Z</time>
      </trkpt>
      <trkpt lat="48.64958" lon="1.73651">
        <ele>171</ele>
        <time>2010-05-14T11:41:00Z</time>
      </trkpt>
      <trkpt lat="48.64957" lon="1.73648">
        <ele>171</ele>
        <time>2010-05-14T11:41:02Z</time>
      </trkpt>
      <trkpt lat="48.64957" lon="1.73644">
        <ele>171</ele>
        <time>2010-05-14T11:41:04Z</time>
      </trkpt>
      <trkpt lat="48.64956" lon="1.7364">
        <ele>171</ele>
        <time>2010-05-14T11:41:06Z</time>
      </trkpt>
      <trkpt lat="48.64956" lon="1.73638">
        <ele>171</ele>
        <time>2010-05-14T11:41:07Z</time>
      </trkpt>
      <trkpt lat="48.64953" lon="1.73633">
        <ele>171</ele>
        <time>2010-05-14T11:41:10Z</time>
      </trkpt>
      <trkpt lat="48.64951" lon="1.73627">
        <ele>171</ele>
        <time>2010-05-14T11:41:11Z</time>
      </trkpt>
      <trkpt lat="48.64949" lon="1.73626">
        <ele>171</ele>
        <time>2010-05-14T11:41:12Z</time>
      </trkpt>
      <trkpt lat="48.64947" lon="1.73622">
        <ele>171</ele>
        <time>2010-05-14T11:41:14Z</time>
      </trkpt>
      <trkpt lat="48.64946" lon="1.73621">
        <ele>171</ele>
        <time>2010-05-14T11:41:15Z</time>
      </trkpt>
      <trkpt lat="48.64946" lon="1.73619">
        <ele>171</ele>
        <time>2010-05-14T11:41:16Z</time>
      </trkpt>
      <trkpt lat="48.64945" lon="1.73617">
        <ele>171</ele>
        <time>2010-05-14T11:41:17Z</time>
      </trkpt>
      <trkpt lat="48.64945" lon="1.73614">
        <ele>171</ele>
        <time>2010-05-14T11:41:18Z</time>
      </trkpt>
      <trkpt lat="48.64946" lon="1.73612">
        <ele>171</ele>
        <time>2010-05-14T11:41:19Z</time>
      </trkpt>
      <trkpt lat="48.64944" lon="1.7361">
        <ele>171</ele>
        <time>2010-05-14T11:41:20Z</time>
      </trkpt>
      <trkpt lat="48.64944" lon="1.73608">
        <ele>171</ele>
        <time>2010-05-14T11:41:21Z</time>
      </trkpt>
      <trkpt lat="48.64943" lon="1.73605">
        <ele>171</ele>
        <time>2010-05-14T11:41:23Z</time>
      </trkpt>
      <trkpt lat="48.64942" lon="1.73603">
        <ele>170</ele>
        <time>2010-05-14T11:41:24Z</time>
      </trkpt>
      <trkpt lat="48.64942" lon="1.73601">
        <ele>169</ele>
        <time>2010-05-14T11:41:25Z</time>
      </trkpt>
      <trkpt lat="48.6494" lon="1.73598">
        <ele>168</ele>
        <time>2010-05-14T11:41:26Z</time>
      </trkpt>
      <trkpt lat="48.64938" lon="1.73595">
        <ele>167</ele>
        <time>2010-05-14T11:41:27Z</time>
      </trkpt>
      <trkpt lat="48.64937" lon="1.73593">
        <ele>167</ele>
        <time>2010-05-14T11:41:28Z</time>
      </trkpt>
      <trkpt lat="48.64936" lon="1.73591">
        <ele>167</ele>
        <time>2010-05-14T11:41:29Z</time>
      </trkpt>
      <trkpt lat="48.64935" lon="1.73589">
        <ele>167</ele>
        <time>2010-05-14T11:41:31Z</time>
      </trkpt>
      <trkpt lat="48.64934" lon="1.73587">
        <ele>166</ele>
        <time>2010-05-14T11:41:32Z</time>
      </trkpt>
      <trkpt lat="48.64933" lon="1.73585">
        <ele>166</ele>
        <time>2010-05-14T11:41:33Z</time>
      </trkpt>
      <trkpt lat="48.64932" lon="1.73583">
        <ele>166</ele>
        <time>2010-05-14T11:41:34Z</time>
      </trkpt>
      <trkpt lat="48.64932" lon="1.73581">
        <ele>166</ele>
        <time>2010-05-14T11:41:35Z</time>
      </trkpt>
      <trkpt lat="48.64931" lon="1.73579">
        <ele>166</ele>
        <time>2010-05-14T11:41:36Z</time>
      </trkpt>
      <trkpt lat="48.6493" lon="1.73576">
        <ele>166</ele>
        <time>2010-05-14T11:41:37Z</time>
      </trkpt>
      <trkpt lat="48.64929" lon="1.73574">
        <ele>166</ele>
        <time>2010-05-14T11:41:38Z</time>
      </trkpt>
      <trkpt lat="48.64928" lon="1.73573">
        <ele>166</ele>
        <time>2010-05-14T11:41:39Z</time>
      </trkpt>
      <trkpt lat="48.64928" lon="1.73571">
        <ele>166</ele>
        <time>2010-05-14T11:41:40Z</time>
      </trkpt>
      <trkpt lat="48.64927" lon="1.73568">
        <ele>166</ele>
        <time>2010-05-14T11:41:42Z</time>
      </trkpt>
      <trkpt lat="48.64926" lon="1.73565">
        <ele>166</ele>
        <time>2010-05-14T11:41:43Z</time>
      </trkpt>
      <trkpt lat="48.64925" lon="1.73563">
        <ele>166</ele>
        <time>2010-05-14T11:41:44Z</time>
      </trkpt>
      <trkpt lat="48.64924" lon="1.73561">
        <ele>166</ele>
        <time>2010-05-14T11:41:45Z</time>
      </trkpt>
      <trkpt lat="48.64923" lon="1.73558">
        <ele>166</ele>
        <time>2010-05-14T11:41:46Z</time>
      </trkpt>
      <trkpt lat="48.64923" lon="1.73557">
        <ele>166</ele>
        <time>2010-05-14T11:41:47Z</time>
      </trkpt>
      <trkpt lat="48.64921" lon="1.73553">
        <ele>166</ele>
        <time>2010-05-14T11:41:48Z</time>
      </trkpt>
      <trkpt lat="48.64919" lon="1.7355">
        <ele>166</ele>
        <time>2010-05-14T11:41:49Z</time>
      </trkpt>
      <trkpt lat="48.64918" lon="1.73547">
        <ele>167</ele>
        <time>2010-05-14T11:41:50Z</time>
      </trkpt>
      <trkpt lat="48.64917" lon="1.73546">
        <ele>168</ele>
        <time>2010-05-14T11:41:51Z</time>
      </trkpt>
      <trkpt lat="48.64916" lon="1.73542">
        <ele>168</ele>
        <time>2010-05-14T11:41:53Z</time>
      </trkpt>
      <trkpt lat="48.64916" lon="1.7354">
        <ele>168</ele>
        <time>2010-05-14T11:41:54Z</time>
      </trkpt>
      <trkpt lat="48.64915" lon="1.73537">
        <ele>168</ele>
        <time>2010-05-14T11:41:56Z</time>
      </trkpt>
      <trkpt lat="48.64914" lon="1.73534">
        <ele>168</ele>
        <time>2010-05-14T11:41:58Z</time>
      </trkpt>
      <trkpt lat="48.64911" lon="1.7353">
        <ele>168</ele>
        <time>2010-05-14T11:42:01Z</time>
      </trkpt>
      <trkpt lat="48.6491" lon="1.73526">
        <ele>168</ele>
        <time>2010-05-14T11:42:03Z</time>
      </trkpt>
      <trkpt lat="48.64908" lon="1.7352">
        <ele>168</ele>
        <time>2010-05-14T11:42:06Z</time>
      </trkpt>
      <trkpt lat="48.64904" lon="1.73512">
        <ele>168</ele>
        <time>2010-05-14T11:42:07Z</time>
      </trkpt>
      <trkpt lat="48.64902" lon="1.73509">
        <ele>168</ele>
        <time>2010-05-14T11:42:09Z</time>
      </trkpt>
      <trkpt lat="48.649" lon="1.73507">
        <ele>168</ele>
        <time>2010-05-14T11:42:10Z</time>
      </trkpt>
      <trkpt lat="48.64897" lon="1.73502">
        <ele>168</ele>
        <time>2010-05-14T11:42:12Z</time>
      </trkpt>
      <trkpt lat="48.64896" lon="1.73499">
        <ele>168</ele>
        <time>2010-05-14T11:42:13Z</time>
      </trkpt>
      <trkpt lat="48.64896" lon="1.73496">
        <ele>168</ele>
        <time>2010-05-14T11:42:14Z</time>
      </trkpt>
      <trkpt lat="48.64896" lon="1.73494">
        <ele>168</ele>
        <time>2010-05-14T11:42:15Z</time>
      </trkpt>
      <trkpt lat="48.64896" lon="1.73492">
        <ele>169</ele>
        <time>2010-05-14T11:42:16Z</time>
      </trkpt>
      <trkpt lat="48.64895" lon="1.73489">
        <ele>170</ele>
        <time>2010-05-14T11:42:17Z</time>
      </trkpt>
      <trkpt lat="48.64893" lon="1.73486">
        <ele>171</ele>
        <time>2010-05-14T11:42:18Z</time>
      </trkpt>
      <trkpt lat="48.64892" lon="1.73483">
        <ele>172</ele>
        <time>2010-05-14T11:42:20Z</time>
      </trkpt>
      <trkpt lat="48.64891" lon="1.73477">
        <ele>172</ele>
        <time>2010-05-14T11:42:23Z</time>
      </trkpt>
      <trkpt lat="48.64891" lon="1.73475">
        <ele>172</ele>
        <time>2010-05-14T11:42:24Z</time>
      </trkpt>
      <trkpt lat="48.64889" lon="1.73473">
        <ele>172</ele>
        <time>2010-05-14T11:42:25Z</time>
      </trkpt>
      <trkpt lat="48.64888" lon="1.7347">
        <ele>172</ele>
        <time>2010-05-14T11:42:27Z</time>
      </trkpt>
      <trkpt lat="48.64884" lon="1.73466">
        <ele>172</ele>
        <time>2010-05-14T11:42:28Z</time>
      </trkpt>
      <trkpt lat="48.64885" lon="1.73463">
        <ele>172</ele>
        <time>2010-05-14T11:42:30Z</time>
      </trkpt>
      <trkpt lat="48.64885" lon="1.73462">
        <ele>172</ele>
        <time>2010-05-14T11:42:31Z</time>
      </trkpt>
      <trkpt lat="48.64886" lon="1.7346">
        <ele>172</ele>
        <time>2010-05-14T11:42:32Z</time>
      </trkpt>
      <trkpt lat="48.64885" lon="1.73456">
        <ele>172</ele>
        <time>2010-05-14T11:42:34Z</time>
      </trkpt>
      <trkpt lat="48.64884" lon="1.73454">
        <ele>172</ele>
        <time>2010-05-14T11:42:35Z</time>
      </trkpt>
      <trkpt lat="48.64882" lon="1.73453">
        <ele>172</ele>
        <time>2010-05-14T11:42:36Z</time>
      </trkpt>
      <trkpt lat="48.6488" lon="1.73449">
        <ele>172</ele>
        <time>2010-05-14T11:42:37Z</time>
      </trkpt>
      <trkpt lat="48.6488" lon="1.73447">
        <ele>172</ele>
        <time>2010-05-14T11:42:39Z</time>
      </trkpt>
      <trkpt lat="48.64879" lon="1.73445">
        <ele>172</ele>
        <time>2010-05-14T11:42:40Z</time>
      </trkpt>
      <trkpt lat="48.64879" lon="1.73443">
        <ele>172</ele>
        <time>2010-05-14T11:42:41Z</time>
      </trkpt>
      <trkpt lat="48.64878" lon="1.73441">
        <ele>172</ele>
        <time>2010-05-14T11:42:42Z</time>
      </trkpt>
      <trkpt lat="48.64877" lon="1.73439">
        <ele>172</ele>
        <time>2010-05-14T11:42:43Z</time>
      </trkpt>
      <trkpt lat="48.64877" lon="1.73437">
        <ele>172</ele>
        <time>2010-05-14T11:42:45Z</time>
      </trkpt>
      <trkpt lat="48.64876" lon="1.73433">
        <ele>172</ele>
        <time>2010-05-14T11:42:47Z</time>
      </trkpt>
      <trkpt lat="48.64876" lon="1.7343">
        <ele>172</ele>
        <time>2010-05-14T11:42:49Z</time>
      </trkpt>
      <trkpt lat="48.64875" lon="1.73428">
        <ele>172</ele>
        <time>2010-05-14T11:42:51Z</time>
      </trkpt>
      <trkpt lat="48.64873" lon="1.73426">
        <ele>172</ele>
        <time>2010-05-14T11:42:53Z</time>
      </trkpt>
      <trkpt lat="48.64872" lon="1.73424">
        <ele>172</ele>
        <time>2010-05-14T11:42:54Z</time>
      </trkpt>
      <trkpt lat="48.64872" lon="1.73423">
        <ele>171</ele>
        <time>2010-05-14T11:42:55Z</time>
      </trkpt>
      <trkpt lat="48.64872" lon="1.7342">
        <ele>171</ele>
        <time>2010-05-14T11:42:57Z</time>
      </trkpt>
      <trkpt lat="48.64872" lon="1.73417">
        <ele>171</ele>
        <time>2010-05-14T11:42:58Z</time>
      </trkpt>
      <trkpt lat="48.64872" lon="1.73415">
        <ele>171</ele>
        <time>2010-05-14T11:42:59Z</time>
      </trkpt>
      <trkpt lat="48.64872" lon="1.73413">
        <ele>171</ele>
        <time>2010-05-14T11:43:00Z</time>
      </trkpt>
      <trkpt lat="48.64871" lon="1.73412">
        <ele>171</ele>
        <time>2010-05-14T11:43:01Z</time>
      </trkpt>
      <trkpt lat="48.6487" lon="1.73411">
        <ele>171</ele>
        <time>2010-05-14T11:43:02Z</time>
      </trkpt>
      <trkpt lat="48.64871" lon="1.73408">
        <ele>171</ele>
        <time>2010-05-14T11:43:04Z</time>
      </trkpt>
      <trkpt lat="48.6487" lon="1.73405">
        <ele>171</ele>
        <time>2010-05-14T11:43:05Z</time>
      </trkpt>
      <trkpt lat="48.64868" lon="1.73402">
        <ele>170</ele>
        <time>2010-05-14T11:43:07Z</time>
      </trkpt>
      <trkpt lat="48.64866" lon="1.73399">
        <ele>169</ele>
        <time>2010-05-14T11:43:09Z</time>
      </trkpt>
      <trkpt lat="48.64864" lon="1.73396">
        <ele>168</ele>
        <time>2010-05-14T11:43:10Z</time>
      </trkpt>
      <trkpt lat="48.64863" lon="1.73394">
        <ele>168</ele>
        <time>2010-05-14T11:43:11Z</time>
      </trkpt>
      <trkpt lat="48.64862" lon="1.73392">
        <ele>168</ele>
        <time>2010-05-14T11:43:12Z</time>
      </trkpt>
      <trkpt lat="48.64861" lon="1.73389">
        <ele>168</ele>
        <time>2010-05-14T11:43:13Z</time>
      </trkpt>
      <trkpt lat="48.6486" lon="1.73387">
        <ele>168</ele>
        <time>2010-05-14T11:43:14Z</time>
      </trkpt>
      <trkpt lat="48.64859" lon="1.73384">
        <ele>168</ele>
        <time>2010-05-14T11:43:15Z</time>
      </trkpt>
      <trkpt lat="48.64858" lon="1.73382">
        <ele>168</ele>
        <time>2010-05-14T11:43:16Z</time>
      </trkpt>
      <trkpt lat="48.64858" lon="1.7338">
        <ele>168</ele>
        <time>2010-05-14T11:43:17Z</time>
      </trkpt>
      <trkpt lat="48.64857" lon="1.73377">
        <ele>168</ele>
        <time>2010-05-14T11:43:18Z</time>
      </trkpt>
      <trkpt lat="48.64855" lon="1.73375">
        <ele>168</ele>
        <time>2010-05-14T11:43:19Z</time>
      </trkpt>
      <trkpt lat="48.64854" lon="1.73374">
        <ele>168</ele>
        <time>2010-05-14T11:43:20Z</time>
      </trkpt>
      <trkpt lat="48.64853" lon="1.7337">
        <ele>168</ele>
        <time>2010-05-14T11:43:23Z</time>
      </trkpt>
      <trkpt lat="48.64851" lon="1.73367">
        <ele>168</ele>
        <time>2010-05-14T11:43:24Z</time>
      </trkpt>
      <trkpt lat="48.64849" lon="1.73365">
        <ele>168</ele>
        <time>2010-05-14T11:43:25Z</time>
      </trkpt>
      <trkpt lat="48.64847" lon="1.73364">
        <ele>168</ele>
        <time>2010-05-14T11:43:26Z</time>
      </trkpt>
      <trkpt lat="48.64846" lon="1.73361">
        <ele>168</ele>
        <time>2010-05-14T11:43:28Z</time>
      </trkpt>
      <trkpt lat="48.64844" lon="1.73358">
        <ele>168</ele>
        <time>2010-05-14T11:43:29Z</time>
      </trkpt>
      <trkpt lat="48.64843" lon="1.73356">
        <ele>168</ele>
        <time>2010-05-14T11:43:30Z</time>
      </trkpt>
      <trkpt lat="48.6484" lon="1.73353">
        <ele>168</ele>
        <time>2010-05-14T11:43:31Z</time>
      </trkpt>
      <trkpt lat="48.64841" lon="1.73354">
        <ele>168</ele>
        <time>2010-05-14T11:43:33Z</time>
      </trkpt>
      <trkpt lat="48.6484" lon="1.73351">
        <ele>168</ele>
        <time>2010-05-14T11:43:35Z</time>
      </trkpt>
      <trkpt lat="48.64838" lon="1.73351">
        <ele>168</ele>
        <time>2010-05-14T11:43:40Z</time>
      </trkpt>
      <trkpt lat="48.6484" lon="1.73348">
        <ele>168</ele>
        <time>2010-05-14T11:43:43Z</time>
      </trkpt>
      <trkpt lat="48.6484" lon="1.73346">
        <ele>168</ele>
        <time>2010-05-14T11:43:44Z</time>
      </trkpt>
      <trkpt lat="48.64839" lon="1.73344">
        <ele>168</ele>
        <time>2010-05-14T11:43:45Z</time>
      </trkpt>
      <trkpt lat="48.64838" lon="1.73343">
        <ele>169</ele>
        <time>2010-05-14T11:43:47Z</time>
      </trkpt>
      <trkpt lat="48.64836" lon="1.73342">
        <ele>169</ele>
        <time>2010-05-14T11:43:49Z</time>
      </trkpt>
      <trkpt lat="48.64834" lon="1.73342">
        <ele>170</ele>
        <time>2010-05-14T11:43:51Z</time>
      </trkpt>
      <trkpt lat="48.64833" lon="1.7334">
        <ele>170</ele>
        <time>2010-05-14T11:43:53Z</time>
      </trkpt>
      <trkpt lat="48.64833" lon="1.73344">
        <ele>170</ele>
        <time>2010-05-14T11:43:56Z</time>
      </trkpt>
      <trkpt lat="48.64832" lon="1.73346">
        <ele>170</ele>
        <time>2010-05-14T11:43:58Z</time>
      </trkpt>
      <trkpt lat="48.6483" lon="1.73347">
        <ele>170</ele>
        <time>2010-05-14T11:44:00Z</time>
      </trkpt>
      <trkpt lat="48.64831" lon="1.73347">
        <ele>171</ele>
        <time>2010-05-14T11:44:03Z</time>
      </trkpt>
      <trkpt lat="48.64831" lon="1.73345">
        <ele>171</ele>
        <time>2010-05-14T11:44:04Z</time>
      </trkpt>
      <trkpt lat="48.64832" lon="1.73344">
        <ele>171</ele>
        <time>2010-05-14T11:44:05Z</time>
      </trkpt>
      <trkpt lat="48.64834" lon="1.73343">
        <ele>172</ele>
        <time>2010-05-14T11:44:06Z</time>
      </trkpt>
      <trkpt lat="48.64835" lon="1.73342">
        <ele>172</ele>
        <time>2010-05-14T11:44:07Z</time>
      </trkpt>
      <trkpt lat="48.64836" lon="1.7334">
        <ele>172</ele>
        <time>2010-05-14T11:44:08Z</time>
      </trkpt>
      <trkpt lat="48.64838" lon="1.73338">
        <ele>172</ele>
        <time>2010-05-14T11:44:10Z</time>
      </trkpt>
      <trkpt lat="48.6484" lon="1.73335">
        <ele>172</ele>
        <time>2010-05-14T11:44:12Z</time>
      </trkpt>
      <trkpt lat="48.64841" lon="1.73332">
        <ele>172</ele>
        <time>2010-05-14T11:44:14Z</time>
      </trkpt>
      <trkpt lat="48.6484" lon="1.73329">
        <ele>171</ele>
        <time>2010-05-14T11:44:15Z</time>
      </trkpt>
      <trkpt lat="48.6484" lon="1.73328">
        <ele>170</ele>
        <time>2010-05-14T11:44:16Z</time>
      </trkpt>
      <trkpt lat="48.6484" lon="1.73326">
        <ele>170</ele>
        <time>2010-05-14T11:44:17Z</time>
      </trkpt>
      <trkpt lat="48.64838" lon="1.73321">
        <ele>170</ele>
        <time>2010-05-14T11:44:19Z</time>
      </trkpt>
      <trkpt lat="48.64837" lon="1.73318">
        <ele>170</ele>
        <time>2010-05-14T11:44:20Z</time>
      </trkpt>
      <trkpt lat="48.64836" lon="1.73316">
        <ele>170</ele>
        <time>2010-05-14T11:44:21Z</time>
      </trkpt>
      <trkpt lat="48.64836" lon="1.73314">
        <ele>170</ele>
        <time>2010-05-14T11:44:22Z</time>
      </trkpt>
      <trkpt lat="48.64835" lon="1.73311">
        <ele>170</ele>
        <time>2010-05-14T11:44:23Z</time>
      </trkpt>
      <trkpt lat="48.64833" lon="1.73309">
        <ele>170</ele>
        <time>2010-05-14T11:44:24Z</time>
      </trkpt>
      <trkpt lat="48.64832" lon="1.73307">
        <ele>170</ele>
        <time>2010-05-14T11:44:25Z</time>
      </trkpt>
      <trkpt lat="48.64832" lon="1.73305">
        <ele>170</ele>
        <time>2010-05-14T11:44:26Z</time>
      </trkpt>
      <trkpt lat="48.64832" lon="1.73303">
        <ele>170</ele>
        <time>2010-05-14T11:44:27Z</time>
      </trkpt>
      <trkpt lat="48.64831" lon="1.73301">
        <ele>170</ele>
        <time>2010-05-14T11:44:28Z</time>
      </trkpt>
      <trkpt lat="48.6483" lon="1.73299">
        <ele>170</ele>
        <time>2010-05-14T11:44:30Z</time>
      </trkpt>
      <trkpt lat="48.64829" lon="1.73297">
        <ele>170</ele>
        <time>2010-05-14T11:44:31Z</time>
      </trkpt>
      <trkpt lat="48.64828" lon="1.73294">
        <ele>170</ele>
        <time>2010-05-14T11:44:32Z</time>
      </trkpt>
      <trkpt lat="48.64827" lon="1.73292">
        <ele>170</ele>
        <time>2010-05-14T11:44:33Z</time>
      </trkpt>
      <trkpt lat="48.64825" lon="1.7329">
        <ele>170</ele>
        <time>2010-05-14T11:44:34Z</time>
      </trkpt>
      <trkpt lat="48.64823" lon="1.73287">
        <ele>170</ele>
        <time>2010-05-14T11:44:35Z</time>
      </trkpt>
      <trkpt lat="48.64822" lon="1.73286">
        <ele>169</ele>
        <time>2010-05-14T11:44:36Z</time>
      </trkpt>
      <trkpt lat="48.64821" lon="1.73283">
        <ele>167</ele>
        <time>2010-05-14T11:44:38Z</time>
      </trkpt>
      <trkpt lat="48.64821" lon="1.7328">
        <ele>165</ele>
        <time>2010-05-14T11:44:40Z</time>
      </trkpt>
      <trkpt lat="48.64819" lon="1.73278">
        <ele>165</ele>
        <time>2010-05-14T11:44:41Z</time>
      </trkpt>
      <trkpt lat="48.64818" lon="1.73275">
        <ele>165</ele>
        <time>2010-05-14T11:44:42Z</time>
      </trkpt>
      <trkpt lat="48.64817" lon="1.73273">
        <ele>165</ele>
        <time>2010-05-14T11:44:44Z</time>
      </trkpt>
      <trkpt lat="48.64815" lon="1.73271">
        <ele>165</ele>
        <time>2010-05-14T11:44:46Z</time>
      </trkpt>
      <trkpt lat="48.64814" lon="1.7327">
        <ele>165</ele>
        <time>2010-05-14T11:44:47Z</time>
      </trkpt>
      <trkpt lat="48.64814" lon="1.73268">
        <ele>165</ele>
        <time>2010-05-14T11:44:49Z</time>
      </trkpt>
      <trkpt lat="48.64812" lon="1.73265">
        <ele>163</ele>
        <time>2010-05-14T11:44:51Z</time>
      </trkpt>
      <trkpt lat="48.64811" lon="1.73263">
        <ele>162</ele>
        <time>2010-05-14T11:44:52Z</time>
      </trkpt>
      <trkpt lat="48.64811" lon="1.73261">
        <ele>161</ele>
        <time>2010-05-14T11:44:53Z</time>
      </trkpt>
      <trkpt lat="48.64809" lon="1.73258">
        <ele>161</ele>
        <time>2010-05-14T11:44:54Z</time>
      </trkpt>
      <trkpt lat="48.64808" lon="1.73256">
        <ele>161</ele>
        <time>2010-05-14T11:44:55Z</time>
      </trkpt>
      <trkpt lat="48.64807" lon="1.73254">
        <ele>161</ele>
        <time>2010-05-14T11:44:57Z</time>
      </trkpt>
      <trkpt lat="48.64807" lon="1.73252">
        <ele>161</ele>
        <time>2010-05-14T11:44:58Z</time>
      </trkpt>
      <trkpt lat="48.64806" lon="1.73249">
        <ele>161</ele>
        <time>2010-05-14T11:44:59Z</time>
      </trkpt>
      <trkpt lat="48.64805" lon="1.73247">
        <ele>161</ele>
        <time>2010-05-14T11:45:01Z</time>
      </trkpt>
      <trkpt lat="48.64805" lon="1.73244">
        <ele>161</ele>
        <time>2010-05-14T11:45:02Z</time>
      </trkpt>
      <trkpt lat="48.64805" lon="1.73241">
        <ele>161</ele>
        <time>2010-05-14T11:45:04Z</time>
      </trkpt>
      <trkpt lat="48.64803" lon="1.73239">
        <ele>161</ele>
        <time>2010-05-14T11:45:07Z</time>
      </trkpt>
      <trkpt lat="48.64802" lon="1.73238">
        <ele>161</ele>
        <time>2010-05-14T11:45:08Z</time>
      </trkpt>
      <trkpt lat="48.648" lon="1.73236">
        <ele>161</ele>
        <time>2010-05-14T11:45:09Z</time>
      </trkpt>
      <trkpt lat="48.648" lon="1.73233">
        <ele>161</ele>
        <time>2010-05-14T11:45:10Z</time>
      </trkpt>
      <trkpt lat="48.648" lon="1.73231">
        <ele>161</ele>
        <time>2010-05-14T11:45:11Z</time>
      </trkpt>
      <trkpt lat="48.648" lon="1.73229">
        <ele>161</ele>
        <time>2010-05-14T11:45:12Z</time>
      </trkpt>
      <trkpt lat="48.648" lon="1.73226">
        <ele>161</ele>
        <time>2010-05-14T11:45:13Z</time>
      </trkpt>
      <trkpt lat="48.64799" lon="1.73224">
        <ele>161</ele>
        <time>2010-05-14T11:45:14Z</time>
      </trkpt>
      <trkpt lat="48.64799" lon="1.73222">
        <ele>161</ele>
        <time>2010-05-14T11:45:15Z</time>
      </trkpt>
      <trkpt lat="48.64797" lon="1.73219">
        <ele>161</ele>
        <time>2010-05-14T11:45:17Z</time>
      </trkpt>
      <trkpt lat="48.64796" lon="1.73218">
        <ele>161</ele>
        <time>2010-05-14T11:45:18Z</time>
      </trkpt>
      <trkpt lat="48.64794" lon="1.73214">
        <ele>161</ele>
        <time>2010-05-14T11:45:19Z</time>
      </trkpt>
      <trkpt lat="48.64794" lon="1.73212">
        <ele>161</ele>
        <time>2010-05-14T11:45:20Z</time>
      </trkpt>
      <trkpt lat="48.64793" lon="1.7321">
        <ele>161</ele>
        <time>2010-05-14T11:45:21Z</time>
      </trkpt>
      <trkpt lat="48.64791" lon="1.73208">
        <ele>161</ele>
        <time>2010-05-14T11:45:23Z</time>
      </trkpt>
      <trkpt lat="48.6479" lon="1.73205">
        <ele>161</ele>
        <time>2010-05-14T11:45:25Z</time>
      </trkpt>
      <trkpt lat="48.64789" lon="1.73203">
        <ele>161</ele>
        <time>2010-05-14T11:45:26Z</time>
      </trkpt>
      <trkpt lat="48.64789" lon="1.732">
        <ele>161</ele>
        <time>2010-05-14T11:45:27Z</time>
      </trkpt>
      <trkpt lat="48.64788" lon="1.73198">
        <ele>161</ele>
        <time>2010-05-14T11:45:28Z</time>
      </trkpt>
      <trkpt lat="48.64787" lon="1.73195">
        <ele>161</ele>
        <time>2010-05-14T11:45:29Z</time>
      </trkpt>
      <trkpt lat="48.64786" lon="1.73193">
        <ele>161</ele>
        <time>2010-05-14T11:45:30Z</time>
      </trkpt>
      <trkpt lat="48.64784" lon="1.7319">
        <ele>161</ele>
        <time>2010-05-14T11:45:32Z</time>
      </trkpt>
      <trkpt lat="48.64784" lon="1.73188">
        <ele>161</ele>
        <time>2010-05-14T11:45:33Z</time>
      </trkpt>
      <trkpt lat="48.64783" lon="1.73185">
        <ele>161</ele>
        <time>2010-05-14T11:45:34Z</time>
      </trkpt>
      <trkpt lat="48.64782" lon="1.73182">
        <ele>161</ele>
        <time>2010-05-14T11:45:35Z</time>
      </trkpt>
      <trkpt lat="48.64782" lon="1.7318">
        <ele>161</ele>
        <time>2010-05-14T11:45:36Z</time>
      </trkpt>
      <trkpt lat="48.6478" lon="1.73176">
        <ele>161</ele>
        <time>2010-05-14T11:45:38Z</time>
      </trkpt>
      <trkpt lat="48.64779" lon="1.73173">
        <ele>161</ele>
        <time>2010-05-14T11:45:39Z</time>
      </trkpt>
      <trkpt lat="48.64778" lon="1.73171">
        <ele>161</ele>
        <time>2010-05-14T11:45:40Z</time>
      </trkpt>
      <trkpt lat="48.64778" lon="1.73167">
        <ele>161</ele>
        <time>2010-05-14T11:45:42Z</time>
      </trkpt>
      <trkpt lat="48.64777" lon="1.73165">
        <ele>161</ele>
        <time>2010-05-14T11:45:43Z</time>
      </trkpt>
      <trkpt lat="48.64776" lon="1.73163">
        <ele>161</ele>
        <time>2010-05-14T11:45:45Z</time>
      </trkpt>
      <trkpt lat="48.64774" lon="1.7316">
        <ele>161</ele>
        <time>2010-05-14T11:45:47Z</time>
      </trkpt>
      <trkpt lat="48.64773" lon="1.73158">
        <ele>161</ele>
        <time>2010-05-14T11:45:49Z</time>
      </trkpt>
      <trkpt lat="48.64772" lon="1.73156">
        <ele>161</ele>
        <time>2010-05-14T11:45:50Z</time>
      </trkpt>
      <trkpt lat="48.64772" lon="1.73153">
        <ele>161</ele>
        <time>2010-05-14T11:45:52Z</time>
      </trkpt>
      <trkpt lat="48.64771" lon="1.7315">
        <ele>161</ele>
        <time>2010-05-14T11:45:54Z</time>
      </trkpt>
      <trkpt lat="48.6477" lon="1.73149">
        <ele>161</ele>
        <time>2010-05-14T11:45:55Z</time>
      </trkpt>
      <trkpt lat="48.64768" lon="1.73147">
        <ele>161</ele>
        <time>2010-05-14T11:45:56Z</time>
      </trkpt>
      <trkpt lat="48.64767" lon="1.73145">
        <ele>161</ele>
        <time>2010-05-14T11:45:57Z</time>
      </trkpt>
      <trkpt lat="48.64767" lon="1.73143">
        <ele>161</ele>
        <time>2010-05-14T11:45:58Z</time>
      </trkpt>
      <trkpt lat="48.64766" lon="1.7314">
        <ele>161</ele>
        <time>2010-05-14T11:46:00Z</time>
      </trkpt>
      <trkpt lat="48.64766" lon="1.73139">
        <ele>161</ele>
        <time>2010-05-14T11:46:01Z</time>
      </trkpt>
      <trkpt lat="48.64765" lon="1.73136">
        <ele>161</ele>
        <time>2010-05-14T11:46:02Z</time>
      </trkpt>
      <trkpt lat="48.64764" lon="1.73135">
        <ele>161</ele>
        <time>2010-05-14T11:46:03Z</time>
      </trkpt>
      <trkpt lat="48.64763" lon="1.73133">
        <ele>161</ele>
        <time>2010-05-14T11:46:04Z</time>
      </trkpt>
      <trkpt lat="48.64762" lon="1.7313">
        <ele>161</ele>
        <time>2010-05-14T11:46:06Z</time>
      </trkpt>
      <trkpt lat="48.64761" lon="1.73128">
        <ele>161</ele>
        <time>2010-05-14T11:46:07Z</time>
      </trkpt>
      <trkpt lat="48.6476" lon="1.73127">
        <ele>161</ele>
        <time>2010-05-14T11:46:08Z</time>
      </trkpt>
      <trkpt lat="48.64759" lon="1.73125">
        <ele>161</ele>
        <time>2010-05-14T11:46:09Z</time>
      </trkpt>
      <trkpt lat="48.64758" lon="1.73123">
        <ele>161</ele>
        <time>2010-05-14T11:46:10Z</time>
      </trkpt>
      <trkpt lat="48.64757" lon="1.73121">
        <ele>161</ele>
        <time>2010-05-14T11:46:11Z</time>
      </trkpt>
      <trkpt lat="48.64756" lon="1.73119">
        <ele>161</ele>
        <time>2010-05-14T11:46:12Z</time>
      </trkpt>
      <trkpt lat="48.64755" lon="1.73117">
        <ele>161</ele>
        <time>2010-05-14T11:46:13Z</time>
      </trkpt>
      <trkpt lat="48.64753" lon="1.73115">
        <ele>161</ele>
        <time>2010-05-14T11:46:14Z</time>
      </trkpt>
      <trkpt lat="48.64752" lon="1.73114">
        <ele>161</ele>
        <time>2010-05-14T11:46:15Z</time>
      </trkpt>
      <trkpt lat="48.64751" lon="1.73112">
        <ele>161</ele>
        <time>2010-05-14T11:46:16Z</time>
      </trkpt>
      <trkpt lat="48.6475" lon="1.73109">
        <ele>160</ele>
        <time>2010-05-14T11:46:18Z</time>
      </trkpt>
      <trkpt lat="48.64748" lon="1.73106">
        <ele>160</ele>
        <time>2010-05-14T11:46:19Z</time>
      </trkpt>
      <trkpt lat="48.64747" lon="1.73104">
        <ele>159</ele>
        <time>2010-05-14T11:46:20Z</time>
      </trkpt>
      <trkpt lat="48.64746" lon="1.73102">
        <ele>159</ele>
        <time>2010-05-14T11:46:21Z</time>
      </trkpt>
      <trkpt lat="48.64745" lon="1.731">
        <ele>159</ele>
        <time>2010-05-14T11:46:22Z</time>
      </trkpt>
      <trkpt lat="48.64744" lon="1.73098">
        <ele>158</ele>
        <time>2010-05-14T11:46:23Z</time>
      </trkpt>
      <trkpt lat="48.64744" lon="1.73097">
        <ele>158</ele>
        <time>2010-05-14T11:46:24Z</time>
      </trkpt>
      <trkpt lat="48.64743" lon="1.73095">
        <ele>158</ele>
        <time>2010-05-14T11:46:25Z</time>
      </trkpt>
      <trkpt lat="48.64743" lon="1.73093">
        <ele>158</ele>
        <time>2010-05-14T11:46:26Z</time>
      </trkpt>
      <trkpt lat="48.64743" lon="1.73091">
        <ele>158</ele>
        <time>2010-05-14T11:46:27Z</time>
      </trkpt>
      <trkpt lat="48.64742" lon="1.73089">
        <ele>158</ele>
        <time>2010-05-14T11:46:28Z</time>
      </trkpt>
      <trkpt lat="48.64741" lon="1.73087">
        <ele>158</ele>
        <time>2010-05-14T11:46:29Z</time>
      </trkpt>
      <trkpt lat="48.64741" lon="1.73086">
        <ele>158</ele>
        <time>2010-05-14T11:46:30Z</time>
      </trkpt>
      <trkpt lat="48.64739" lon="1.73083">
        <ele>158</ele>
        <time>2010-05-14T11:46:32Z</time>
      </trkpt>
      <trkpt lat="48.64738" lon="1.73081">
        <ele>158</ele>
        <time>2010-05-14T11:46:33Z</time>
      </trkpt>
      <trkpt lat="48.64737" lon="1.73079">
        <ele>158</ele>
        <time>2010-05-14T11:46:34Z</time>
      </trkpt>
      <trkpt lat="48.64736" lon="1.73077">
        <ele>158</ele>
        <time>2010-05-14T11:46:35Z</time>
      </trkpt>
      <trkpt lat="48.64735" lon="1.73075">
        <ele>158</ele>
        <time>2010-05-14T11:46:36Z</time>
      </trkpt>
      <trkpt lat="48.64734" lon="1.73073">
        <ele>158</ele>
        <time>2010-05-14T11:46:37Z</time>
      </trkpt>
      <trkpt lat="48.64733" lon="1.73071">
        <ele>158</ele>
        <time>2010-05-14T11:46:38Z</time>
      </trkpt>
      <trkpt lat="48.64733" lon="1.7307">
        <ele>158</ele>
        <time>2010-05-14T11:46:39Z</time>
      </trkpt>
      <trkpt lat="48.64732" lon="1.73067">
        <ele>158</ele>
        <time>2010-05-14T11:46:40Z</time>
      </trkpt>
      <trkpt lat="48.6473" lon="1.73065">
        <ele>158</ele>
        <time>2010-05-14T11:46:42Z</time>
      </trkpt>
      <trkpt lat="48.64729" lon="1.73063">
        <ele>158</ele>
        <time>2010-05-14T11:46:43Z</time>
      </trkpt>
      <trkpt lat="48.64728" lon="1.73062">
        <ele>158</ele>
        <time>2010-05-14T11:46:44Z</time>
      </trkpt>
      <trkpt lat="48.64726" lon="1.7306">
        <ele>158</ele>
        <time>2010-05-14T11:46:45Z</time>
      </trkpt>
      <trkpt lat="48.64725" lon="1.73058">
        <ele>158</ele>
        <time>2010-05-14T11:46:46Z</time>
      </trkpt>
      <trkpt lat="48.64724" lon="1.73056">
        <ele>158</ele>
        <time>2010-05-14T11:46:47Z</time>
      </trkpt>
      <trkpt lat="48.64722" lon="1.73053">
        <ele>158</ele>
        <time>2010-05-14T11:46:48Z</time>
      </trkpt>
      <trkpt lat="48.64722" lon="1.73051">
        <ele>158</ele>
        <time>2010-05-14T11:46:49Z</time>
      </trkpt>
      <trkpt lat="48.6472" lon="1.73048">
        <ele>158</ele>
        <time>2010-05-14T11:46:51Z</time>
      </trkpt>
      <trkpt lat="48.64719" lon="1.73046">
        <ele>158</ele>
        <time>2010-05-14T11:46:52Z</time>
      </trkpt>
      <trkpt lat="48.64718" lon="1.73044">
        <ele>158</ele>
        <time>2010-05-14T11:46:53Z</time>
      </trkpt>
      <trkpt lat="48.64716" lon="1.73042">
        <ele>158</ele>
        <time>2010-05-14T11:46:55Z</time>
      </trkpt>
      <trkpt lat="48.64715" lon="1.7304">
        <ele>158</ele>
        <time>2010-05-14T11:46:56Z</time>
      </trkpt>
      <trkpt lat="48.64713" lon="1.73039">
        <ele>158</ele>
        <time>2010-05-14T11:46:57Z</time>
      </trkpt>
      <trkpt lat="48.64711" lon="1.73037">
        <ele>158</ele>
        <time>2010-05-14T11:46:59Z</time>
      </trkpt>
      <trkpt lat="48.64709" lon="1.73035">
        <ele>158</ele>
        <time>2010-05-14T11:47:00Z</time>
      </trkpt>
      <trkpt lat="48.64708" lon="1.73035">
        <ele>158</ele>
        <time>2010-05-14T11:47:01Z</time>
      </trkpt>
      <trkpt lat="48.64707" lon="1.73033">
        <ele>158</ele>
        <time>2010-05-14T11:47:02Z</time>
      </trkpt>
      <trkpt lat="48.64706" lon="1.73032">
        <ele>158</ele>
        <time>2010-05-14T11:47:03Z</time>
      </trkpt>
      <trkpt lat="48.64704" lon="1.7303">
        <ele>158</ele>
        <time>2010-05-14T11:47:04Z</time>
      </trkpt>
      <trkpt lat="48.64703" lon="1.73029">
        <ele>158</ele>
        <time>2010-05-14T11:47:05Z</time>
      </trkpt>
      <trkpt lat="48.64701" lon="1.73028">
        <ele>158</ele>
        <time>2010-05-14T11:47:06Z</time>
      </trkpt>
      <trkpt lat="48.64699" lon="1.73027">
        <ele>158</ele>
        <time>2010-05-14T11:47:08Z</time>
      </trkpt>
      <trkpt lat="48.64697" lon="1.73027">
        <ele>158</ele>
        <time>2010-05-14T11:47:09Z</time>
      </trkpt>
      <trkpt lat="48.64696" lon="1.73026">
        <ele>158</ele>
        <time>2010-05-14T11:47:10Z</time>
      </trkpt>
      <trkpt lat="48.64694" lon="1.73023">
        <ele>158</ele>
        <time>2010-05-14T11:47:11Z</time>
      </trkpt>
      <trkpt lat="48.64691" lon="1.73022">
        <ele>158</ele>
        <time>2010-05-14T11:47:12Z</time>
      </trkpt>
      <trkpt lat="48.64689" lon="1.7302">
        <ele>158</ele>
        <time>2010-05-14T11:47:13Z</time>
      </trkpt>
      <trkpt lat="48.64688" lon="1.73019">
        <ele>157</ele>
        <time>2010-05-14T11:47:14Z</time>
      </trkpt>
      <trkpt lat="48.64687" lon="1.73017">
        <ele>156</ele>
        <time>2010-05-14T11:47:15Z</time>
      </trkpt>
      <trkpt lat="48.64685" lon="1.73015">
        <ele>155</ele>
        <time>2010-05-14T11:47:17Z</time>
      </trkpt>
      <trkpt lat="48.64683" lon="1.73012">
        <ele>155</ele>
        <time>2010-05-14T11:47:19Z</time>
      </trkpt>
      <trkpt lat="48.64682" lon="1.7301">
        <ele>155</ele>
        <time>2010-05-14T11:47:20Z</time>
      </trkpt>
      <trkpt lat="48.6468" lon="1.73008">
        <ele>155</ele>
        <time>2010-05-14T11:47:21Z</time>
      </trkpt>
      <trkpt lat="48.64679" lon="1.73005">
        <ele>154</ele>
        <time>2010-05-14T11:47:22Z</time>
      </trkpt>
      <trkpt lat="48.64678" lon="1.73003">
        <ele>154</ele>
        <time>2010-05-14T11:47:23Z</time>
      </trkpt>
      <trkpt lat="48.64676" lon="1.73001">
        <ele>153</ele>
        <time>2010-05-14T11:47:25Z</time>
      </trkpt>
      <trkpt lat="48.64675" lon="1.73">
        <ele>153</ele>
        <time>2010-05-14T11:47:26Z</time>
      </trkpt>
      <trkpt lat="48.64673" lon="1.72998">
        <ele>153</ele>
        <time>2010-05-14T11:47:27Z</time>
      </trkpt>
      <trkpt lat="48.64672" lon="1.72997">
        <ele>152</ele>
        <time>2010-05-14T11:47:28Z</time>
      </trkpt>
      <trkpt lat="48.64671" lon="1.72995">
        <ele>152</ele>
        <time>2010-05-14T11:47:30Z</time>
      </trkpt>
      <trkpt lat="48.64672" lon="1.72993">
        <ele>152</ele>
        <time>2010-05-14T11:47:32Z</time>
      </trkpt>
      <trkpt lat="48.6467" lon="1.7299">
        <ele>152</ele>
        <time>2010-05-14T11:47:34Z</time>
      </trkpt>
      <trkpt lat="48.64668" lon="1.72989">
        <ele>152</ele>
        <time>2010-05-14T11:47:35Z</time>
      </trkpt>
      <trkpt lat="48.64666" lon="1.72986">
        <ele>153</ele>
        <time>2010-05-14T11:47:37Z</time>
      </trkpt>
      <trkpt lat="48.64665" lon="1.72984">
        <ele>153</ele>
        <time>2010-05-14T11:47:38Z</time>
      </trkpt>
      <trkpt lat="48.64664" lon="1.72983">
        <ele>153</ele>
        <time>2010-05-14T11:47:39Z</time>
      </trkpt>
      <trkpt lat="48.64663" lon="1.7298">
        <ele>153</ele>
        <time>2010-05-14T11:47:41Z</time>
      </trkpt>
      <trkpt lat="48.64662" lon="1.72978">
        <ele>153</ele>
        <time>2010-05-14T11:47:42Z</time>
      </trkpt>
      <trkpt lat="48.64661" lon="1.72976">
        <ele>153</ele>
        <time>2010-05-14T11:47:43Z</time>
      </trkpt>
      <trkpt lat="48.6466" lon="1.72974">
        <ele>153</ele>
        <time>2010-05-14T11:47:44Z</time>
      </trkpt>
      <trkpt lat="48.64658" lon="1.72971">
        <ele>153</ele>
        <time>2010-05-14T11:47:45Z</time>
      </trkpt>
      <trkpt lat="48.64657" lon="1.72969">
        <ele>153</ele>
        <time>2010-05-14T11:47:46Z</time>
      </trkpt>
      <trkpt lat="48.64655" lon="1.72967">
        <ele>153</ele>
        <time>2010-05-14T11:47:47Z</time>
      </trkpt>
      <trkpt lat="48.64654" lon="1.72966">
        <ele>153</ele>
        <time>2010-05-14T11:47:48Z</time>
      </trkpt>
      <trkpt lat="48.64653" lon="1.72964">
        <ele>153</ele>
        <time>2010-05-14T11:47:49Z</time>
      </trkpt>
      <trkpt lat="48.64652" lon="1.72962">
        <ele>153</ele>
        <time>2010-05-14T11:47:50Z</time>
      </trkpt>
      <trkpt lat="48.64651" lon="1.7296">
        <ele>153</ele>
        <time>2010-05-14T11:47:51Z</time>
      </trkpt>
      <trkpt lat="48.6465" lon="1.72958">
        <ele>153</ele>
        <time>2010-05-14T11:47:52Z</time>
      </trkpt>
      <trkpt lat="48.64648" lon="1.72957">
        <ele>153</ele>
        <time>2010-05-14T11:47:53Z</time>
      </trkpt>
      <trkpt lat="48.64647" lon="1.72955">
        <ele>153</ele>
        <time>2010-05-14T11:47:54Z</time>
      </trkpt>
      <trkpt lat="48.64645" lon="1.72952">
        <ele>153</ele>
        <time>2010-05-14T11:47:56Z</time>
      </trkpt>
      <trkpt lat="48.64644" lon="1.72951">
        <ele>153</ele>
        <time>2010-05-14T11:47:57Z</time>
      </trkpt>
      <trkpt lat="48.64642" lon="1.72949">
        <ele>153</ele>
        <time>2010-05-14T11:47:58Z</time>
      </trkpt>
      <trkpt lat="48.64641" lon="1.72947">
        <ele>153</ele>
        <time>2010-05-14T11:47:59Z</time>
      </trkpt>
      <trkpt lat="48.6464" lon="1.72946">
        <ele>153</ele>
        <time>2010-05-14T11:48:00Z</time>
      </trkpt>
      <trkpt lat="48.64638" lon="1.72944">
        <ele>153</ele>
        <time>2010-05-14T11:48:01Z</time>
      </trkpt>
      <trkpt lat="48.64636" lon="1.72942">
        <ele>153</ele>
        <time>2010-05-14T11:48:03Z</time>
      </trkpt>
      <trkpt lat="48.64635" lon="1.72941">
        <ele>153</ele>
        <time>2010-05-14T11:48:04Z</time>
      </trkpt>
      <trkpt lat="48.64635" lon="1.72939">
        <ele>153</ele>
        <time>2010-05-14T11:48:05Z</time>
      </trkpt>
      <trkpt lat="48.64634" lon="1.72937">
        <ele>153</ele>
        <time>2010-05-14T11:48:06Z</time>
      </trkpt>
      <trkpt lat="48.64633" lon="1.72935">
        <ele>153</ele>
        <time>2010-05-14T11:48:07Z</time>
      </trkpt>
      <trkpt lat="48.64632" lon="1.72934">
        <ele>153</ele>
        <time>2010-05-14T11:48:08Z</time>
      </trkpt>
      <trkpt lat="48.64631" lon="1.72932">
        <ele>153</ele>
        <time>2010-05-14T11:48:09Z</time>
      </trkpt>
      <trkpt lat="48.64629" lon="1.7293">
        <ele>153</ele>
        <time>2010-05-14T11:48:10Z</time>
      </trkpt>
      <trkpt lat="48.64628" lon="1.72928">
        <ele>153</ele>
        <time>2010-05-14T11:48:11Z</time>
      </trkpt>
      <trkpt lat="48.64626" lon="1.72925">
        <ele>153</ele>
        <time>2010-05-14T11:48:13Z</time>
      </trkpt>
      <trkpt lat="48.64624" lon="1.72922">
        <ele>153</ele>
        <time>2010-05-14T11:48:15Z</time>
      </trkpt>
      <trkpt lat="48.64623" lon="1.72919">
        <ele>153</ele>
        <time>2010-05-14T11:48:17Z</time>
      </trkpt>
      <trkpt lat="48.64622" lon="1.72918">
        <ele>153</ele>
        <time>2010-05-14T11:48:18Z</time>
      </trkpt>
      <trkpt lat="48.6462" lon="1.72915">
        <ele>153</ele>
        <time>2010-05-14T11:48:20Z</time>
      </trkpt>
      <trkpt lat="48.64619" lon="1.72914">
        <ele>153</ele>
        <time>2010-05-14T11:48:21Z</time>
      </trkpt>
      <trkpt lat="48.64616" lon="1.72911">
        <ele>153</ele>
        <time>2010-05-14T11:48:23Z</time>
      </trkpt>
      <trkpt lat="48.64615" lon="1.72909">
        <ele>153</ele>
        <time>2010-05-14T11:48:24Z</time>
      </trkpt>
      <trkpt lat="48.64614" lon="1.72907">
        <ele>153</ele>
        <time>2010-05-14T11:48:25Z</time>
      </trkpt>
      <trkpt lat="48.64612" lon="1.72905">
        <ele>153</ele>
        <time>2010-05-14T11:48:26Z</time>
      </trkpt>
      <trkpt lat="48.64611" lon="1.72902">
        <ele>153</ele>
        <time>2010-05-14T11:48:28Z</time>
      </trkpt>
      <trkpt lat="48.64609" lon="1.72901">
        <ele>153</ele>
        <time>2010-05-14T11:48:29Z</time>
      </trkpt>
      <trkpt lat="48.64608" lon="1.72899">
        <ele>153</ele>
        <time>2010-05-14T11:48:30Z</time>
      </trkpt>
      <trkpt lat="48.64607" lon="1.72897">
        <ele>153</ele>
        <time>2010-05-14T11:48:31Z</time>
      </trkpt>
      <trkpt lat="48.64606" lon="1.72896">
        <ele>153</ele>
        <time>2010-05-14T11:48:32Z</time>
      </trkpt>
      <trkpt lat="48.64605" lon="1.72894">
        <ele>153</ele>
        <time>2010-05-14T11:48:33Z</time>
      </trkpt>
      <trkpt lat="48.64603" lon="1.72891">
        <ele>154</ele>
        <time>2010-05-14T11:48:35Z</time>
      </trkpt>
      <trkpt lat="48.64601" lon="1.7289">
        <ele>154</ele>
        <time>2010-05-14T11:48:36Z</time>
      </trkpt>
      <trkpt lat="48.646" lon="1.72889">
        <ele>154</ele>
        <time>2010-05-14T11:48:37Z</time>
      </trkpt>
      <trkpt lat="48.64599" lon="1.72887">
        <ele>154</ele>
        <time>2010-05-14T11:48:38Z</time>
      </trkpt>
      <trkpt lat="48.64598" lon="1.72886">
        <ele>154</ele>
        <time>2010-05-14T11:48:39Z</time>
      </trkpt>
      <trkpt lat="48.64596" lon="1.72884">
        <ele>154</ele>
        <time>2010-05-14T11:48:40Z</time>
      </trkpt>
      <trkpt lat="48.64596" lon="1.72882">
        <ele>154</ele>
        <time>2010-05-14T11:48:41Z</time>
      </trkpt>
      <trkpt lat="48.64594" lon="1.72879">
        <ele>154</ele>
        <time>2010-05-14T11:48:43Z</time>
      </trkpt>
      <trkpt lat="48.64594" lon="1.72877">
        <ele>154</ele>
        <time>2010-05-14T11:48:44Z</time>
      </trkpt>
      <trkpt lat="48.64593" lon="1.72875">
        <ele>154</ele>
        <time>2010-05-14T11:48:45Z</time>
      </trkpt>
      <trkpt lat="48.64592" lon="1.72873">
        <ele>154</ele>
        <time>2010-05-14T11:48:47Z</time>
      </trkpt>
      <trkpt lat="48.6459" lon="1.72871">
        <ele>154</ele>
        <time>2010-05-14T11:48:49Z</time>
      </trkpt>
      <trkpt lat="48.64588" lon="1.72868">
        <ele>154</ele>
        <time>2010-05-14T11:48:51Z</time>
      </trkpt>
      <trkpt lat="48.64586" lon="1.72865">
        <ele>154</ele>
        <time>2010-05-14T11:48:53Z</time>
      </trkpt>
      <trkpt lat="48.64585" lon="1.72863">
        <ele>154</ele>
        <time>2010-05-14T11:48:54Z</time>
      </trkpt>
      <trkpt lat="48.64583" lon="1.72859">
        <ele>154</ele>
        <time>2010-05-14T11:48:56Z</time>
      </trkpt>
      <trkpt lat="48.64581" lon="1.72858">
        <ele>154</ele>
        <time>2010-05-14T11:48:57Z</time>
      </trkpt>
      <trkpt lat="48.6458" lon="1.72856">
        <ele>154</ele>
        <time>2010-05-14T11:48:59Z</time>
      </trkpt>
      <trkpt lat="48.64579" lon="1.72854">
        <ele>154</ele>
        <time>2010-05-14T11:49:00Z</time>
      </trkpt>
      <trkpt lat="48.64578" lon="1.7285">
        <ele>154</ele>
        <time>2010-05-14T11:49:02Z</time>
      </trkpt>
      <trkpt lat="48.64577" lon="1.72848">
        <ele>155</ele>
        <time>2010-05-14T11:49:03Z</time>
      </trkpt>
      <trkpt lat="48.64576" lon="1.72845">
        <ele>155</ele>
        <time>2010-05-14T11:49:05Z</time>
      </trkpt>
      <trkpt lat="48.64575" lon="1.72843">
        <ele>155</ele>
        <time>2010-05-14T11:49:06Z</time>
      </trkpt>
      <trkpt lat="48.64573" lon="1.7284">
        <ele>155</ele>
        <time>2010-05-14T11:49:07Z</time>
      </trkpt>
      <trkpt lat="48.64573" lon="1.72837">
        <ele>155</ele>
        <time>2010-05-14T11:49:08Z</time>
      </trkpt>
      <trkpt lat="48.64572" lon="1.72835">
        <ele>155</ele>
        <time>2010-05-14T11:49:09Z</time>
      </trkpt>
      <trkpt lat="48.64571" lon="1.72834">
        <ele>155</ele>
        <time>2010-05-14T11:49:10Z</time>
      </trkpt>
      <trkpt lat="48.64569" lon="1.72831">
        <ele>155</ele>
        <time>2010-05-14T11:49:12Z</time>
      </trkpt>
      <trkpt lat="48.64567" lon="1.72828">
        <ele>155</ele>
        <time>2010-05-14T11:49:14Z</time>
      </trkpt>
      <trkpt lat="48.64565" lon="1.72826">
        <ele>155</ele>
        <time>2010-05-14T11:49:15Z</time>
      </trkpt>
      <trkpt lat="48.64564" lon="1.72825">
        <ele>155</ele>
        <time>2010-05-14T11:49:16Z</time>
      </trkpt>
      <trkpt lat="48.64562" lon="1.72823">
        <ele>155</ele>
        <time>2010-05-14T11:49:17Z</time>
      </trkpt>
      <trkpt lat="48.64561" lon="1.72821">
        <ele>155</ele>
        <time>2010-05-14T11:49:18Z</time>
      </trkpt>
      <trkpt lat="48.6456" lon="1.72818">
        <ele>155</ele>
        <time>2010-05-14T11:49:19Z</time>
      </trkpt>
      <trkpt lat="48.64559" lon="1.72816">
        <ele>155</ele>
        <time>2010-05-14T11:49:20Z</time>
      </trkpt>
      <trkpt lat="48.64558" lon="1.72813">
        <ele>155</ele>
        <time>2010-05-14T11:49:22Z</time>
      </trkpt>
      <trkpt lat="48.64557" lon="1.72811">
        <ele>155</ele>
        <time>2010-05-14T11:49:23Z</time>
      </trkpt>
      <trkpt lat="48.64556" lon="1.7281">
        <ele>155</ele>
        <time>2010-05-14T11:49:24Z</time>
      </trkpt>
      <trkpt lat="48.64554" lon="1.72806">
        <ele>155</ele>
        <time>2010-05-14T11:49:26Z</time>
      </trkpt>
      <trkpt lat="48.64552" lon="1.72804">
        <ele>155</ele>
        <time>2010-05-14T11:49:27Z</time>
      </trkpt>
      <trkpt lat="48.64551" lon="1.72802">
        <ele>155</ele>
        <time>2010-05-14T11:49:28Z</time>
      </trkpt>
      <trkpt lat="48.64549" lon="1.728">
        <ele>155</ele>
        <time>2010-05-14T11:49:29Z</time>
      </trkpt>
      <trkpt lat="48.64547" lon="1.72797">
        <ele>155</ele>
        <time>2010-05-14T11:49:30Z</time>
      </trkpt>
      <trkpt lat="48.64544" lon="1.72792">
        <ele>155</ele>
        <time>2010-05-14T11:49:31Z</time>
      </trkpt>
      <trkpt lat="48.64542" lon="1.72789">
        <ele>154</ele>
        <time>2010-05-14T11:49:32Z</time>
      </trkpt>
      <trkpt lat="48.64539" lon="1.72786">
        <ele>154</ele>
        <time>2010-05-14T11:49:33Z</time>
      </trkpt>
      <trkpt lat="48.64538" lon="1.72784">
        <ele>154</ele>
        <time>2010-05-14T11:49:34Z</time>
      </trkpt>
      <trkpt lat="48.64536" lon="1.7278">
        <ele>154</ele>
        <time>2010-05-14T11:49:35Z</time>
      </trkpt>
      <trkpt lat="48.64534" lon="1.72778">
        <ele>154</ele>
        <time>2010-05-14T11:49:36Z</time>
      </trkpt>
      <trkpt lat="48.64533" lon="1.72775">
        <ele>154</ele>
        <time>2010-05-14T11:49:37Z</time>
      </trkpt>
      <trkpt lat="48.64532" lon="1.72773">
        <ele>154</ele>
        <time>2010-05-14T11:49:38Z</time>
      </trkpt>
      <trkpt lat="48.64531" lon="1.72771">
        <ele>154</ele>
        <time>2010-05-14T11:49:39Z</time>
      </trkpt>
      <trkpt lat="48.6453" lon="1.72769">
        <ele>153</ele>
        <time>2010-05-14T11:49:40Z</time>
      </trkpt>
      <trkpt lat="48.64528" lon="1.72766">
        <ele>153</ele>
        <time>2010-05-14T11:49:41Z</time>
      </trkpt>
      <trkpt lat="48.64528" lon="1.72764">
        <ele>152</ele>
        <time>2010-05-14T11:49:42Z</time>
      </trkpt>
      <trkpt lat="48.64526" lon="1.72762">
        <ele>151</ele>
        <time>2010-05-14T11:49:44Z</time>
      </trkpt>
      <trkpt lat="48.64525" lon="1.7276">
        <ele>151</ele>
        <time>2010-05-14T11:49:45Z</time>
      </trkpt>
      <trkpt lat="48.64524" lon="1.72757">
        <ele>151</ele>
        <time>2010-05-14T11:49:47Z</time>
      </trkpt>
      <trkpt lat="48.64522" lon="1.72754">
        <ele>151</ele>
        <time>2010-05-14T11:49:49Z</time>
      </trkpt>
      <trkpt lat="48.64521" lon="1.72751">
        <ele>151</ele>
        <time>2010-05-14T11:49:50Z</time>
      </trkpt>
      <trkpt lat="48.6452" lon="1.72749">
        <ele>151</ele>
        <time>2010-05-14T11:49:51Z</time>
      </trkpt>
      <trkpt lat="48.6452" lon="1.72746">
        <ele>151</ele>
        <time>2010-05-14T11:49:52Z</time>
      </trkpt>
      <trkpt lat="48.64519" lon="1.72744">
        <ele>151</ele>
        <time>2010-05-14T11:49:53Z</time>
      </trkpt>
      <trkpt lat="48.64518" lon="1.72742">
        <ele>151</ele>
        <time>2010-05-14T11:49:54Z</time>
      </trkpt>
      <trkpt lat="48.64518" lon="1.7274">
        <ele>151</ele>
        <time>2010-05-14T11:49:55Z</time>
      </trkpt>
      <trkpt lat="48.64517" lon="1.72739">
        <ele>151</ele>
        <time>2010-05-14T11:49:56Z</time>
      </trkpt>
      <trkpt lat="48.64515" lon="1.72735">
        <ele>153</ele>
        <time>2010-05-14T11:49:58Z</time>
      </trkpt>
      <trkpt lat="48.64514" lon="1.72734">
        <ele>153</ele>
        <time>2010-05-14T11:49:59Z</time>
      </trkpt>
      <trkpt lat="48.64512" lon="1.72732">
        <ele>153</ele>
        <time>2010-05-14T11:50:00Z</time>
      </trkpt>
      <trkpt lat="48.64511" lon="1.7273">
        <ele>153</ele>
        <time>2010-05-14T11:50:01Z</time>
      </trkpt>
      <trkpt lat="48.6451" lon="1.72728">
        <ele>154</ele>
        <time>2010-05-14T11:50:02Z</time>
      </trkpt>
      <trkpt lat="48.6451" lon="1.72726">
        <ele>154</ele>
        <time>2010-05-14T11:50:03Z</time>
      </trkpt>
      <trkpt lat="48.64509" lon="1.72724">
        <ele>154</ele>
        <time>2010-05-14T11:50:04Z</time>
      </trkpt>
      <trkpt lat="48.64509" lon="1.72722">
        <ele>155</ele>
        <time>2010-05-14T11:50:05Z</time>
      </trkpt>
      <trkpt lat="48.64508" lon="1.7272">
        <ele>155</ele>
        <time>2010-05-14T11:50:06Z</time>
      </trkpt>
      <trkpt lat="48.64508" lon="1.72718">
        <ele>156</ele>
        <time>2010-05-14T11:50:07Z</time>
      </trkpt>
      <trkpt lat="48.64507" lon="1.72717">
        <ele>156</ele>
        <time>2010-05-14T11:50:08Z</time>
      </trkpt>
      <trkpt lat="48.64507" lon="1.72715">
        <ele>156</ele>
        <time>2010-05-14T11:50:09Z</time>
      </trkpt>
      <trkpt lat="48.64506" lon="1.72713">
        <ele>157</ele>
        <time>2010-05-14T11:50:10Z</time>
      </trkpt>
      <trkpt lat="48.64505" lon="1.72711">
        <ele>157</ele>
        <time>2010-05-14T11:50:11Z</time>
      </trkpt>
      <trkpt lat="48.64504" lon="1.72709">
        <ele>157</ele>
        <time>2010-05-14T11:50:12Z</time>
      </trkpt>
      <trkpt lat="48.64503" lon="1.72707">
        <ele>157</ele>
        <time>2010-05-14T11:50:13Z</time>
      </trkpt>
      <trkpt lat="48.64501" lon="1.72704">
        <ele>157</ele>
        <time>2010-05-14T11:50:14Z</time>
      </trkpt>
      <trkpt lat="48.645" lon="1.72701">
        <ele>157</ele>
        <time>2010-05-14T11:50:15Z</time>
      </trkpt>
      <trkpt lat="48.64499" lon="1.72699">
        <ele>157</ele>
        <time>2010-05-14T11:50:16Z</time>
      </trkpt>
      <trkpt lat="48.64498" lon="1.72696">
        <ele>157</ele>
        <time>2010-05-14T11:50:17Z</time>
      </trkpt>
      <trkpt lat="48.64497" lon="1.72694">
        <ele>157</ele>
        <time>2010-05-14T11:50:18Z</time>
      </trkpt>
      <trkpt lat="48.64496" lon="1.72692">
        <ele>157</ele>
        <time>2010-05-14T11:50:19Z</time>
      </trkpt>
      <trkpt lat="48.64495" lon="1.7269">
        <ele>157</ele>
        <time>2010-05-14T11:50:20Z</time>
      </trkpt>
      <trkpt lat="48.64494" lon="1.72688">
        <ele>157</ele>
        <time>2010-05-14T11:50:21Z</time>
      </trkpt>
      <trkpt lat="48.64494" lon="1.72686">
        <ele>157</ele>
        <time>2010-05-14T11:50:22Z</time>
      </trkpt>
      <trkpt lat="48.64493" lon="1.72684">
        <ele>157</ele>
        <time>2010-05-14T11:50:23Z</time>
      </trkpt>
      <trkpt lat="48.64492" lon="1.72682">
        <ele>157</ele>
        <time>2010-05-14T11:50:24Z</time>
      </trkpt>
      <trkpt lat="48.64491" lon="1.7268">
        <ele>157</ele>
        <time>2010-05-14T11:50:25Z</time>
      </trkpt>
      <trkpt lat="48.64491" lon="1.72679">
        <ele>157</ele>
        <time>2010-05-14T11:50:26Z</time>
      </trkpt>
      <trkpt lat="48.6449" lon="1.72677">
        <ele>157</ele>
        <time>2010-05-14T11:50:27Z</time>
      </trkpt>
      <trkpt lat="48.6449" lon="1.72675">
        <ele>157</ele>
        <time>2010-05-14T11:50:28Z</time>
      </trkpt>
      <trkpt lat="48.64489" lon="1.72673">
        <ele>157</ele>
        <time>2010-05-14T11:50:29Z</time>
      </trkpt>
      <trkpt lat="48.64487" lon="1.7267">
        <ele>157</ele>
        <time>2010-05-14T11:50:30Z</time>
      </trkpt>
      <trkpt lat="48.64486" lon="1.72668">
        <ele>157</ele>
        <time>2010-05-14T11:50:31Z</time>
      </trkpt>
      <trkpt lat="48.64485" lon="1.72666">
        <ele>157</ele>
        <time>2010-05-14T11:50:32Z</time>
      </trkpt>
      <trkpt lat="48.64484" lon="1.72665">
        <ele>157</ele>
        <time>2010-05-14T11:50:34Z</time>
      </trkpt>
      <trkpt lat="48.64483" lon="1.72663">
        <ele>157</ele>
        <time>2010-05-14T11:50:36Z</time>
      </trkpt>
      <trkpt lat="48.64481" lon="1.7266">
        <ele>157</ele>
        <time>2010-05-14T11:50:38Z</time>
      </trkpt>
      <trkpt lat="48.6448" lon="1.72658">
        <ele>157</ele>
        <time>2010-05-14T11:50:40Z</time>
      </trkpt>
      <trkpt lat="48.64479" lon="1.72655">
        <ele>157</ele>
        <time>2010-05-14T11:50:42Z</time>
      </trkpt>
      <trkpt lat="48.64477" lon="1.72652">
        <ele>157</ele>
        <time>2010-05-14T11:50:44Z</time>
      </trkpt>
      <trkpt lat="48.64476" lon="1.72651">
        <ele>157</ele>
        <time>2010-05-14T11:50:45Z</time>
      </trkpt>
      <trkpt lat="48.64476" lon="1.72648">
        <ele>157</ele>
        <time>2010-05-14T11:50:46Z</time>
      </trkpt>
      <trkpt lat="48.64475" lon="1.72645">
        <ele>157</ele>
        <time>2010-05-14T11:50:47Z</time>
      </trkpt>
      <trkpt lat="48.64475" lon="1.72642">
        <ele>158</ele>
        <time>2010-05-14T11:50:48Z</time>
      </trkpt>
      <trkpt lat="48.64474" lon="1.72638">
        <ele>158</ele>
        <time>2010-05-14T11:50:49Z</time>
      </trkpt>
      <trkpt lat="48.64474" lon="1.72635">
        <ele>158</ele>
        <time>2010-05-14T11:50:50Z</time>
      </trkpt>
      <trkpt lat="48.64474" lon="1.72633">
        <ele>159</ele>
        <time>2010-05-14T11:50:51Z</time>
      </trkpt>
      <trkpt lat="48.64473" lon="1.7263">
        <ele>159</ele>
        <time>2010-05-14T11:50:52Z</time>
      </trkpt>
      <trkpt lat="48.64473" lon="1.72628">
        <ele>159</ele>
        <time>2010-05-14T11:50:53Z</time>
      </trkpt>
      <trkpt lat="48.64472" lon="1.72624">
        <ele>159</ele>
        <time>2010-05-14T11:50:55Z</time>
      </trkpt>
      <trkpt lat="48.64471" lon="1.72621">
        <ele>159</ele>
        <time>2010-05-14T11:50:57Z</time>
      </trkpt>
      <trkpt lat="48.6447" lon="1.72619">
        <ele>159</ele>
        <time>2010-05-14T11:50:58Z</time>
      </trkpt>
      <trkpt lat="48.64469" lon="1.72615">
        <ele>159</ele>
        <time>2010-05-14T11:50:59Z</time>
      </trkpt>
      <trkpt lat="48.64469" lon="1.72612">
        <ele>159</ele>
        <time>2010-05-14T11:51:00Z</time>
      </trkpt>
      <trkpt lat="48.64468" lon="1.7261">
        <ele>159</ele>
        <time>2010-05-14T11:51:01Z</time>
      </trkpt>
      <trkpt lat="48.64468" lon="1.72608">
        <ele>159</ele>
        <time>2010-05-14T11:51:02Z</time>
      </trkpt>
      <trkpt lat="48.64467" lon="1.72606">
        <ele>159</ele>
        <time>2010-05-14T11:51:03Z</time>
      </trkpt>
      <trkpt lat="48.64466" lon="1.72603">
        <ele>159</ele>
        <time>2010-05-14T11:51:04Z</time>
      </trkpt>
      <trkpt lat="48.64465" lon="1.72601">
        <ele>159</ele>
        <time>2010-05-14T11:51:05Z</time>
      </trkpt>
      <trkpt lat="48.64465" lon="1.72599">
        <ele>159</ele>
        <time>2010-05-14T11:51:06Z</time>
      </trkpt>
      <trkpt lat="48.64463" lon="1.72596">
        <ele>159</ele>
        <time>2010-05-14T11:51:07Z</time>
      </trkpt>
      <trkpt lat="48.64462" lon="1.72594">
        <ele>159</ele>
        <time>2010-05-14T11:51:08Z</time>
      </trkpt>
      <trkpt lat="48.64461" lon="1.72592">
        <ele>159</ele>
        <time>2010-05-14T11:51:09Z</time>
      </trkpt>
      <trkpt lat="48.64459" lon="1.72589">
        <ele>159</ele>
        <time>2010-05-14T11:51:11Z</time>
      </trkpt>
      <trkpt lat="48.64459" lon="1.72587">
        <ele>159</ele>
        <time>2010-05-14T11:51:12Z</time>
      </trkpt>
      <trkpt lat="48.64459" lon="1.72585">
        <ele>159</ele>
        <time>2010-05-14T11:51:13Z</time>
      </trkpt>
      <trkpt lat="48.64458" lon="1.72583">
        <ele>159</ele>
        <time>2010-05-14T11:51:14Z</time>
      </trkpt>
      <trkpt lat="48.64458" lon="1.72581">
        <ele>159</ele>
        <time>2010-05-14T11:51:15Z</time>
      </trkpt>
      <trkpt lat="48.64458" lon="1.72579">
        <ele>159</ele>
        <time>2010-05-14T11:51:16Z</time>
      </trkpt>
      <trkpt lat="48.64457" lon="1.72576">
        <ele>159</ele>
        <time>2010-05-14T11:51:18Z</time>
      </trkpt>
      <trkpt lat="48.64457" lon="1.72574">
        <ele>159</ele>
        <time>2010-05-14T11:51:19Z</time>
      </trkpt>
      <trkpt lat="48.64456" lon="1.72572">
        <ele>159</ele>
        <time>2010-05-14T11:51:20Z</time>
      </trkpt>
      <trkpt lat="48.64456" lon="1.7257">
        <ele>159</ele>
        <time>2010-05-14T11:51:21Z</time>
      </trkpt>
      <trkpt lat="48.64455" lon="1.72567">
        <ele>159</ele>
        <time>2010-05-14T11:51:22Z</time>
      </trkpt>
      <trkpt lat="48.64455" lon="1.72565">
        <ele>159</ele>
        <time>2010-05-14T11:51:23Z</time>
      </trkpt>
      <trkpt lat="48.64454" lon="1.72563">
        <ele>159</ele>
        <time>2010-05-14T11:51:24Z</time>
      </trkpt>
      <trkpt lat="48.64453" lon="1.72561">
        <ele>159</ele>
        <time>2010-05-14T11:51:25Z</time>
      </trkpt>
      <trkpt lat="48.64453" lon="1.72559">
        <ele>159</ele>
        <time>2010-05-14T11:51:26Z</time>
      </trkpt>
      <trkpt lat="48.64452" lon="1.72557">
        <ele>159</ele>
        <time>2010-05-14T11:51:27Z</time>
      </trkpt>
      <trkpt lat="48.64451" lon="1.72555">
        <ele>159</ele>
        <time>2010-05-14T11:51:28Z</time>
      </trkpt>
      <trkpt lat="48.64451" lon="1.72552">
        <ele>159</ele>
        <time>2010-05-14T11:51:29Z</time>
      </trkpt>
      <trkpt lat="48.6445" lon="1.7255">
        <ele>159</ele>
        <time>2010-05-14T11:51:30Z</time>
      </trkpt>
      <trkpt lat="48.64449" lon="1.72547">
        <ele>159</ele>
        <time>2010-05-14T11:51:32Z</time>
      </trkpt>
      <trkpt lat="48.64448" lon="1.72545">
        <ele>159</ele>
        <time>2010-05-14T11:51:33Z</time>
      </trkpt>
      <trkpt lat="48.64448" lon="1.72542">
        <ele>159</ele>
        <time>2010-05-14T11:51:34Z</time>
      </trkpt>
      <trkpt lat="48.64447" lon="1.7254">
        <ele>159</ele>
        <time>2010-05-14T11:51:35Z</time>
      </trkpt>
      <trkpt lat="48.64447" lon="1.72538">
        <ele>159</ele>
        <time>2010-05-14T11:51:36Z</time>
      </trkpt>
      <trkpt lat="48.64446" lon="1.72536">
        <ele>159</ele>
        <time>2010-05-14T11:51:37Z</time>
      </trkpt>
      <trkpt lat="48.64445" lon="1.72534">
        <ele>159</ele>
        <time>2010-05-14T11:51:38Z</time>
      </trkpt>
      <trkpt lat="48.64445" lon="1.72531">
        <ele>159</ele>
        <time>2010-05-14T11:51:39Z</time>
      </trkpt>
      <trkpt lat="48.64444" lon="1.72529">
        <ele>160</ele>
        <time>2010-05-14T11:51:40Z</time>
      </trkpt>
      <trkpt lat="48.64444" lon="1.72527">
        <ele>160</ele>
        <time>2010-05-14T11:51:41Z</time>
      </trkpt>
      <trkpt lat="48.64443" lon="1.72525">
        <ele>160</ele>
        <time>2010-05-14T11:51:42Z</time>
      </trkpt>
      <trkpt lat="48.64442" lon="1.72523">
        <ele>161</ele>
        <time>2010-05-14T11:51:43Z</time>
      </trkpt>
      <trkpt lat="48.64442" lon="1.72521">
        <ele>161</ele>
        <time>2010-05-14T11:51:44Z</time>
      </trkpt>
      <trkpt lat="48.64441" lon="1.72518">
        <ele>161</ele>
        <time>2010-05-14T11:51:45Z</time>
      </trkpt>
      <trkpt lat="48.64441" lon="1.72516">
        <ele>161</ele>
        <time>2010-05-14T11:51:46Z</time>
      </trkpt>
      <trkpt lat="48.6444" lon="1.72514">
        <ele>162</ele>
        <time>2010-05-14T11:51:47Z</time>
      </trkpt>
      <trkpt lat="48.6444" lon="1.72512">
        <ele>162</ele>
        <time>2010-05-14T11:51:48Z</time>
      </trkpt>
      <trkpt lat="48.64439" lon="1.7251">
        <ele>162</ele>
        <time>2010-05-14T11:51:49Z</time>
      </trkpt>
      <trkpt lat="48.64438" lon="1.72507">
        <ele>162</ele>
        <time>2010-05-14T11:51:50Z</time>
      </trkpt>
      <trkpt lat="48.64437" lon="1.72505">
        <ele>162</ele>
        <time>2010-05-14T11:51:51Z</time>
      </trkpt>
      <trkpt lat="48.64437" lon="1.72503">
        <ele>162</ele>
        <time>2010-05-14T11:51:52Z</time>
      </trkpt>
      <trkpt lat="48.64436" lon="1.72501">
        <ele>162</ele>
        <time>2010-05-14T11:51:53Z</time>
      </trkpt>
      <trkpt lat="48.64436" lon="1.72499">
        <ele>162</ele>
        <time>2010-05-14T11:51:54Z</time>
      </trkpt>
      <trkpt lat="48.64435" lon="1.72497">
        <ele>162</ele>
        <time>2010-05-14T11:51:55Z</time>
      </trkpt>
      <trkpt lat="48.64435" lon="1.72495">
        <ele>162</ele>
        <time>2010-05-14T11:51:56Z</time>
      </trkpt>
      <trkpt lat="48.64434" lon="1.72493">
        <ele>162</ele>
        <time>2010-05-14T11:51:57Z</time>
      </trkpt>
      <trkpt lat="48.64434" lon="1.72491">
        <ele>162</ele>
        <time>2010-05-14T11:51:58Z</time>
      </trkpt>
      <trkpt lat="48.64433" lon="1.72489">
        <ele>162</ele>
        <time>2010-05-14T11:51:59Z</time>
      </trkpt>
      <trkpt lat="48.64432" lon="1.72486">
        <ele>162</ele>
        <time>2010-05-14T11:52:01Z</time>
      </trkpt>
      <trkpt lat="48.64431" lon="1.72484">
        <ele>162</ele>
        <time>2010-05-14T11:52:02Z</time>
      </trkpt>
      <trkpt lat="48.6443" lon="1.72483">
        <ele>162</ele>
        <time>2010-05-14T11:52:03Z</time>
      </trkpt>
      <trkpt lat="48.64429" lon="1.72481">
        <ele>162</ele>
        <time>2010-05-14T11:52:04Z</time>
      </trkpt>
      <trkpt lat="48.64429" lon="1.72479">
        <ele>162</ele>
        <time>2010-05-14T11:52:05Z</time>
      </trkpt>
      <trkpt lat="48.64428" lon="1.72477">
        <ele>162</ele>
        <time>2010-05-14T11:52:06Z</time>
      </trkpt>
      <trkpt lat="48.64428" lon="1.72475">
        <ele>162</ele>
        <time>2010-05-14T11:52:07Z</time>
      </trkpt>
      <trkpt lat="48.64427" lon="1.72473">
        <ele>162</ele>
        <time>2010-05-14T11:52:08Z</time>
      </trkpt>
      <trkpt lat="48.64426" lon="1.72471">
        <ele>162</ele>
        <time>2010-05-14T11:52:09Z</time>
      </trkpt>
      <trkpt lat="48.64426" lon="1.72469">
        <ele>162</ele>
        <time>2010-05-14T11:52:10Z</time>
      </trkpt>
      <trkpt lat="48.64425" lon="1.72467">
        <ele>162</ele>
        <time>2010-05-14T11:52:11Z</time>
      </trkpt>
      <trkpt lat="48.64424" lon="1.72465">
        <ele>162</ele>
        <time>2010-05-14T11:52:12Z</time>
      </trkpt>
      <trkpt lat="48.64424" lon="1.72462">
        <ele>162</ele>
        <time>2010-05-14T11:52:13Z</time>
      </trkpt>
      <trkpt lat="48.64423" lon="1.7246">
        <ele>162</ele>
        <time>2010-05-14T11:52:14Z</time>
      </trkpt>
      <trkpt lat="48.64423" lon="1.72458">
        <ele>163</ele>
        <time>2010-05-14T11:52:15Z</time>
      </trkpt>
      <trkpt lat="48.64422" lon="1.72456">
        <ele>163</ele>
        <time>2010-05-14T11:52:16Z</time>
      </trkpt>
      <trkpt lat="48.6442" lon="1.72455">
        <ele>164</ele>
        <time>2010-05-14T11:52:17Z</time>
      </trkpt>
      <trkpt lat="48.64419" lon="1.72454">
        <ele>164</ele>
        <time>2010-05-14T11:52:18Z</time>
      </trkpt>
      <trkpt lat="48.64417" lon="1.72451">
        <ele>164</ele>
        <time>2010-05-14T11:52:20Z</time>
      </trkpt>
      <trkpt lat="48.64416" lon="1.7245">
        <ele>164</ele>
        <time>2010-05-14T11:52:21Z</time>
      </trkpt>
      <trkpt lat="48.64414" lon="1.72449">
        <ele>164</ele>
        <time>2010-05-14T11:52:22Z</time>
      </trkpt>
      <trkpt lat="48.64413" lon="1.72448">
        <ele>164</ele>
        <time>2010-05-14T11:52:24Z</time>
      </trkpt>
      <trkpt lat="48.64411" lon="1.72446">
        <ele>164</ele>
        <time>2010-05-14T11:52:26Z</time>
      </trkpt>
      <trkpt lat="48.64409" lon="1.72443">
        <ele>164</ele>
        <time>2010-05-14T11:52:28Z</time>
      </trkpt>
      <trkpt lat="48.64408" lon="1.72441">
        <ele>164</ele>
        <time>2010-05-14T11:52:29Z</time>
      </trkpt>
      <trkpt lat="48.64407" lon="1.7244">
        <ele>164</ele>
        <time>2010-05-14T11:52:30Z</time>
      </trkpt>
      <trkpt lat="48.64406" lon="1.72438">
        <ele>164</ele>
        <time>2010-05-14T11:52:31Z</time>
      </trkpt>
      <trkpt lat="48.64406" lon="1.72436">
        <ele>164</ele>
        <time>2010-05-14T11:52:32Z</time>
      </trkpt>
      <trkpt lat="48.64406" lon="1.72433">
        <ele>164</ele>
        <time>2010-05-14T11:52:33Z</time>
      </trkpt>
      <trkpt lat="48.64406" lon="1.7243">
        <ele>164</ele>
        <time>2010-05-14T11:52:35Z</time>
      </trkpt>
      <trkpt lat="48.64406" lon="1.72427">
        <ele>164</ele>
        <time>2010-05-14T11:52:37Z</time>
      </trkpt>
      <trkpt lat="48.64404" lon="1.72425">
        <ele>164</ele>
        <time>2010-05-14T11:52:39Z</time>
      </trkpt>
      <trkpt lat="48.64403" lon="1.72422">
        <ele>164</ele>
        <time>2010-05-14T11:52:41Z</time>
      </trkpt>
      <trkpt lat="48.64403" lon="1.7242">
        <ele>164</ele>
        <time>2010-05-14T11:52:42Z</time>
      </trkpt>
      <trkpt lat="48.64402" lon="1.72417">
        <ele>164</ele>
        <time>2010-05-14T11:52:43Z</time>
      </trkpt>
      <trkpt lat="48.64401" lon="1.72416">
        <ele>164</ele>
        <time>2010-05-14T11:52:44Z</time>
      </trkpt>
      <trkpt lat="48.644" lon="1.72413">
        <ele>164</ele>
        <time>2010-05-14T11:52:45Z</time>
      </trkpt>
      <trkpt lat="48.644" lon="1.72411">
        <ele>164</ele>
        <time>2010-05-14T11:52:46Z</time>
      </trkpt>
      <trkpt lat="48.64399" lon="1.72409">
        <ele>164</ele>
        <time>2010-05-14T11:52:47Z</time>
      </trkpt>
      <trkpt lat="48.64397" lon="1.72406">
        <ele>164</ele>
        <time>2010-05-14T11:52:49Z</time>
      </trkpt>
      <trkpt lat="48.64397" lon="1.72404">
        <ele>164</ele>
        <time>2010-05-14T11:52:50Z</time>
      </trkpt>
      <trkpt lat="48.64395" lon="1.72401">
        <ele>164</ele>
        <time>2010-05-14T11:52:51Z</time>
      </trkpt>
      <trkpt lat="48.64394" lon="1.72398">
        <ele>164</ele>
        <time>2010-05-14T11:52:53Z</time>
      </trkpt>
      <trkpt lat="48.64392" lon="1.72396">
        <ele>164</ele>
        <time>2010-05-14T11:52:55Z</time>
      </trkpt>
      <trkpt lat="48.64391" lon="1.72394">
        <ele>164</ele>
        <time>2010-05-14T11:52:56Z</time>
      </trkpt>
      <trkpt lat="48.6439" lon="1.72392">
        <ele>164</ele>
        <time>2010-05-14T11:52:58Z</time>
      </trkpt>
      <trkpt lat="48.64387" lon="1.72391">
        <ele>164</ele>
        <time>2010-05-14T11:53:00Z</time>
      </trkpt>
      <trkpt lat="48.64386" lon="1.7239">
        <ele>164</ele>
        <time>2010-05-14T11:53:01Z</time>
      </trkpt>
      <trkpt lat="48.64385" lon="1.72389">
        <ele>164</ele>
        <time>2010-05-14T11:53:02Z</time>
      </trkpt>
      <trkpt lat="48.64383" lon="1.72388">
        <ele>164</ele>
        <time>2010-05-14T11:53:03Z</time>
      </trkpt>
      <trkpt lat="48.64381" lon="1.72386">
        <ele>163</ele>
        <time>2010-05-14T11:53:04Z</time>
      </trkpt>
      <trkpt lat="48.6438" lon="1.72385">
        <ele>163</ele>
        <time>2010-05-14T11:53:05Z</time>
      </trkpt>
      <trkpt lat="48.64378" lon="1.72384">
        <ele>162</ele>
        <time>2010-05-14T11:53:06Z</time>
      </trkpt>
      <trkpt lat="48.64376" lon="1.72382">
        <ele>161</ele>
        <time>2010-05-14T11:53:07Z</time>
      </trkpt>
      <trkpt lat="48.64375" lon="1.72381">
        <ele>161</ele>
        <time>2010-05-14T11:53:09Z</time>
      </trkpt>
      <trkpt lat="48.64373" lon="1.72379">
        <ele>161</ele>
        <time>2010-05-14T11:53:10Z</time>
      </trkpt>
      <trkpt lat="48.64372" lon="1.72376">
        <ele>161</ele>
        <time>2010-05-14T11:53:12Z</time>
      </trkpt>
      <trkpt lat="48.6437" lon="1.72373">
        <ele>161</ele>
        <time>2010-05-14T11:53:14Z</time>
      </trkpt>
      <trkpt lat="48.64368" lon="1.7237">
        <ele>161</ele>
        <time>2010-05-14T11:53:16Z</time>
      </trkpt>
      <trkpt lat="48.64367" lon="1.72368">
        <ele>161</ele>
        <time>2010-05-14T11:53:17Z</time>
      </trkpt>
      <trkpt lat="48.64366" lon="1.72366">
        <ele>161</ele>
        <time>2010-05-14T11:53:18Z</time>
      </trkpt>
      <trkpt lat="48.64364" lon="1.72364">
        <ele>161</ele>
        <time>2010-05-14T11:53:19Z</time>
      </trkpt>
      <trkpt lat="48.64363" lon="1.72363">
        <ele>161</ele>
        <time>2010-05-14T11:53:20Z</time>
      </trkpt>
      <trkpt lat="48.64361" lon="1.7236">
        <ele>161</ele>
        <time>2010-05-14T11:53:22Z</time>
      </trkpt>
      <trkpt lat="48.64359" lon="1.72357">
        <ele>161</ele>
        <time>2010-05-14T11:53:24Z</time>
      </trkpt>
      <trkpt lat="48.64358" lon="1.72354">
        <ele>161</ele>
        <time>2010-05-14T11:53:26Z</time>
      </trkpt>
      <trkpt lat="48.64356" lon="1.72352">
        <ele>161</ele>
        <time>2010-05-14T11:53:28Z</time>
      </trkpt>
      <trkpt lat="48.64355" lon="1.7235">
        <ele>161</ele>
        <time>2010-05-14T11:53:29Z</time>
      </trkpt>
      <trkpt lat="48.64355" lon="1.72348">
        <ele>161</ele>
        <time>2010-05-14T11:53:30Z</time>
      </trkpt>
      <trkpt lat="48.64354" lon="1.72346">
        <ele>161</ele>
        <time>2010-05-14T11:53:31Z</time>
      </trkpt>
      <trkpt lat="48.64352" lon="1.72344">
        <ele>161</ele>
        <time>2010-05-14T11:53:32Z</time>
      </trkpt>
      <trkpt lat="48.6435" lon="1.72342">
        <ele>162</ele>
        <time>2010-05-14T11:53:33Z</time>
      </trkpt>
      <trkpt lat="48.64348" lon="1.72339">
        <ele>163</ele>
        <time>2010-05-14T11:53:35Z</time>
      </trkpt>
      <trkpt lat="48.64346" lon="1.72337">
        <ele>163</ele>
        <time>2010-05-14T11:53:37Z</time>
      </trkpt>
      <trkpt lat="48.64344" lon="1.72335">
        <ele>164</ele>
        <time>2010-05-14T11:53:39Z</time>
      </trkpt>
      <trkpt lat="48.64341" lon="1.72332">
        <ele>164</ele>
        <time>2010-05-14T11:53:41Z</time>
      </trkpt>
      <trkpt lat="48.6434" lon="1.72331">
        <ele>164</ele>
        <time>2010-05-14T11:53:42Z</time>
      </trkpt>
      <trkpt lat="48.64338" lon="1.72329">
        <ele>164</ele>
        <time>2010-05-14T11:53:43Z</time>
      </trkpt>
      <trkpt lat="48.64337" lon="1.72328">
        <ele>164</ele>
        <time>2010-05-14T11:53:44Z</time>
      </trkpt>
      <trkpt lat="48.64335" lon="1.72326">
        <ele>164</ele>
        <time>2010-05-14T11:53:45Z</time>
      </trkpt>
      <trkpt lat="48.64333" lon="1.72326">
        <ele>164</ele>
        <time>2010-05-14T11:53:46Z</time>
      </trkpt>
      <trkpt lat="48.64332" lon="1.72326">
        <ele>164</ele>
        <time>2010-05-14T11:53:47Z</time>
      </trkpt>
      <trkpt lat="48.6433" lon="1.72326">
        <ele>164</ele>
        <time>2010-05-14T11:53:49Z</time>
      </trkpt>
      <trkpt lat="48.64327" lon="1.72325">
        <ele>164</ele>
        <time>2010-05-14T11:53:51Z</time>
      </trkpt>
      <trkpt lat="48.64325" lon="1.72324">
        <ele>164</ele>
        <time>2010-05-14T11:53:52Z</time>
      </trkpt>
      <trkpt lat="48.64324" lon="1.72322">
        <ele>164</ele>
        <time>2010-05-14T11:53:53Z</time>
      </trkpt>
      <trkpt lat="48.64322" lon="1.72321">
        <ele>164</ele>
        <time>2010-05-14T11:53:54Z</time>
      </trkpt>
      <trkpt lat="48.6432" lon="1.72321">
        <ele>164</ele>
        <time>2010-05-14T11:53:55Z</time>
      </trkpt>
      <trkpt lat="48.64318" lon="1.7232">
        <ele>163</ele>
        <time>2010-05-14T11:53:56Z</time>
      </trkpt>
      <trkpt lat="48.64318" lon="1.72318">
        <ele>162</ele>
        <time>2010-05-14T11:53:57Z</time>
      </trkpt>
      <trkpt lat="48.64316" lon="1.72316">
        <ele>161</ele>
        <time>2010-05-14T11:53:58Z</time>
      </trkpt>
      <trkpt lat="48.64314" lon="1.72314">
        <ele>160</ele>
        <time>2010-05-14T11:53:59Z</time>
      </trkpt>
      <trkpt lat="48.64313" lon="1.72312">
        <ele>159</ele>
        <time>2010-05-14T11:54:00Z</time>
      </trkpt>
      <trkpt lat="48.64311" lon="1.72309">
        <ele>159</ele>
        <time>2010-05-14T11:54:01Z</time>
      </trkpt>
      <trkpt lat="48.6431" lon="1.72308">
        <ele>159</ele>
        <time>2010-05-14T11:54:02Z</time>
      </trkpt>
      <trkpt lat="48.64308" lon="1.72307">
        <ele>159</ele>
        <time>2010-05-14T11:54:06Z</time>
      </trkpt>
      <trkpt lat="48.64307" lon="1.72306">
        <ele>159</ele>
        <time>2010-05-14T11:54:07Z</time>
      </trkpt>
      <trkpt lat="48.64305" lon="1.72306">
        <ele>159</ele>
        <time>2010-05-14T11:54:08Z</time>
      </trkpt>
      <trkpt lat="48.64303" lon="1.72305">
        <ele>159</ele>
        <time>2010-05-14T11:54:09Z</time>
      </trkpt>
      <trkpt lat="48.64301" lon="1.72305">
        <ele>159</ele>
        <time>2010-05-14T11:54:11Z</time>
      </trkpt>
      <trkpt lat="48.64299" lon="1.72304">
        <ele>159</ele>
        <time>2010-05-14T11:54:12Z</time>
      </trkpt>
      <trkpt lat="48.64297" lon="1.72303">
        <ele>159</ele>
        <time>2010-05-14T11:54:14Z</time>
      </trkpt>
      <trkpt lat="48.64296" lon="1.72301">
        <ele>159</ele>
        <time>2010-05-14T11:54:15Z</time>
      </trkpt>
      <trkpt lat="48.64294" lon="1.72301">
        <ele>159</ele>
        <time>2010-05-14T11:54:16Z</time>
      </trkpt>
      <trkpt lat="48.64293" lon="1.723">
        <ele>159</ele>
        <time>2010-05-14T11:54:17Z</time>
      </trkpt>
      <trkpt lat="48.64291" lon="1.72299">
        <ele>159</ele>
        <time>2010-05-14T11:54:18Z</time>
      </trkpt>
      <trkpt lat="48.6429" lon="1.72299">
        <ele>159</ele>
        <time>2010-05-14T11:54:19Z</time>
      </trkpt>
      <trkpt lat="48.64288" lon="1.72298">
        <ele>159</ele>
        <time>2010-05-14T11:54:20Z</time>
      </trkpt>
      <trkpt lat="48.64286" lon="1.72298">
        <ele>159</ele>
        <time>2010-05-14T11:54:21Z</time>
      </trkpt>
      <trkpt lat="48.64284" lon="1.72297">
        <ele>159</ele>
        <time>2010-05-14T11:54:22Z</time>
      </trkpt>
      <trkpt lat="48.64283" lon="1.72297">
        <ele>159</ele>
        <time>2010-05-14T11:54:23Z</time>
      </trkpt>
      <trkpt lat="48.64282" lon="1.72297">
        <ele>159</ele>
        <time>2010-05-14T11:54:24Z</time>
      </trkpt>
      <trkpt lat="48.64281" lon="1.72296">
        <ele>159</ele>
        <time>2010-05-14T11:54:25Z</time>
      </trkpt>
      <trkpt lat="48.64279" lon="1.72296">
        <ele>159</ele>
        <time>2010-05-14T11:54:26Z</time>
      </trkpt>
      <trkpt lat="48.64277" lon="1.72296">
        <ele>159</ele>
        <time>2010-05-14T11:54:27Z</time>
      </trkpt>
      <trkpt lat="48.64276" lon="1.72295">
        <ele>159</ele>
        <time>2010-05-14T11:54:28Z</time>
      </trkpt>
      <trkpt lat="48.64274" lon="1.72295">
        <ele>159</ele>
        <time>2010-05-14T11:54:29Z</time>
      </trkpt>
      <trkpt lat="48.64272" lon="1.72293">
        <ele>159</ele>
        <time>2010-05-14T11:54:30Z</time>
      </trkpt>
      <trkpt lat="48.6427" lon="1.72292">
        <ele>159</ele>
        <time>2010-05-14T11:54:31Z</time>
      </trkpt>
      <trkpt lat="48.64268" lon="1.7229">
        <ele>159</ele>
        <time>2010-05-14T11:54:32Z</time>
      </trkpt>
      <trkpt lat="48.64266" lon="1.72289">
        <ele>159</ele>
        <time>2010-05-14T11:54:33Z</time>
      </trkpt>
      <trkpt lat="48.64265" lon="1.72288">
        <ele>159</ele>
        <time>2010-05-14T11:54:34Z</time>
      </trkpt>
      <trkpt lat="48.64263" lon="1.72286">
        <ele>159</ele>
        <time>2010-05-14T11:54:36Z</time>
      </trkpt>
      <trkpt lat="48.64261" lon="1.72285">
        <ele>159</ele>
        <time>2010-05-14T11:54:38Z</time>
      </trkpt>
      <trkpt lat="48.64259" lon="1.72284">
        <ele>159</ele>
        <time>2010-05-14T11:54:40Z</time>
      </trkpt>
      <trkpt lat="48.64257" lon="1.72283">
        <ele>159</ele>
        <time>2010-05-14T11:54:41Z</time>
      </trkpt>
      <trkpt lat="48.64256" lon="1.72281">
        <ele>159</ele>
        <time>2010-05-14T11:54:42Z</time>
      </trkpt>
      <trkpt lat="48.64254" lon="1.72279">
        <ele>159</ele>
        <time>2010-05-14T11:54:44Z</time>
      </trkpt>
      <trkpt lat="48.64253" lon="1.72277">
        <ele>159</ele>
        <time>2010-05-14T11:54:47Z</time>
      </trkpt>
      <trkpt lat="48.64255" lon="1.72276">
        <ele>159</ele>
        <time>2010-05-14T11:54:51Z</time>
      </trkpt>
      <trkpt lat="48.64252" lon="1.72274">
        <ele>159</ele>
        <time>2010-05-14T11:54:54Z</time>
      </trkpt>
      <trkpt lat="48.64251" lon="1.72275">
        <ele>157</ele>
        <time>2010-05-14T11:54:56Z</time>
      </trkpt>
      <trkpt lat="48.6425" lon="1.72272">
        <ele>157</ele>
        <time>2010-05-14T11:54:58Z</time>
      </trkpt>
      <trkpt lat="48.64251" lon="1.72273">
        <ele>157</ele>
        <time>2010-05-14T11:55:00Z</time>
      </trkpt>
      <trkpt lat="48.6425" lon="1.72271">
        <ele>158</ele>
        <time>2010-05-14T11:55:10Z</time>
      </trkpt>
      <trkpt lat="48.64248" lon="1.72269">
        <ele>159</ele>
        <time>2010-05-14T11:55:12Z</time>
      </trkpt>
      <trkpt lat="48.64247" lon="1.72268">
        <ele>159</ele>
        <time>2010-05-14T11:55:14Z</time>
      </trkpt>
      <trkpt lat="48.64247" lon="1.7227">
        <ele>159</ele>
        <time>2010-05-14T11:55:16Z</time>
      </trkpt>
      <trkpt lat="48.64246" lon="1.72269">
        <ele>159</ele>
        <time>2010-05-14T11:55:17Z</time>
      </trkpt>
      <trkpt lat="48.64244" lon="1.72268">
        <ele>159</ele>
        <time>2010-05-14T11:55:19Z</time>
      </trkpt>
      <trkpt lat="48.64243" lon="1.72268">
        <ele>159</ele>
        <time>2010-05-14T11:55:23Z</time>
      </trkpt>
      <trkpt lat="48.64243" lon="1.72267">
        <ele>159</ele>
        <time>2010-05-14T11:55:24Z</time>
      </trkpt>
      <trkpt lat="48.64242" lon="1.72264">
        <ele>159</ele>
        <time>2010-05-14T11:55:27Z</time>
      </trkpt>
      <trkpt lat="48.64244" lon="1.72266">
        <ele>159</ele>
        <time>2010-05-14T11:55:30Z</time>
      </trkpt>
      <trkpt lat="48.64244" lon="1.72268">
        <ele>159</ele>
        <time>2010-05-14T11:55:35Z</time>
      </trkpt>
      <trkpt lat="48.64246" lon="1.72268">
        <ele>159</ele>
        <time>2010-05-14T11:55:37Z</time>
      </trkpt>
      <trkpt lat="48.64247" lon="1.72268">
        <ele>159</ele>
        <time>2010-05-14T11:55:38Z</time>
      </trkpt>
      <trkpt lat="48.6425" lon="1.72266">
        <ele>159</ele>
        <time>2010-05-14T11:55:40Z</time>
      </trkpt>
      <trkpt lat="48.64251" lon="1.72263">
        <ele>159</ele>
        <time>2010-05-14T11:55:42Z</time>
      </trkpt>
      <trkpt lat="48.64252" lon="1.72261">
        <ele>159</ele>
        <time>2010-05-14T11:55:44Z</time>
      </trkpt>
      <trkpt lat="48.64254" lon="1.72259">
        <ele>159</ele>
        <time>2010-05-14T11:55:46Z</time>
      </trkpt>
      <trkpt lat="48.64255" lon="1.72257">
        <ele>159</ele>
        <time>2010-05-14T11:55:47Z</time>
      </trkpt>
      <trkpt lat="48.64255" lon="1.72256">
        <ele>159</ele>
        <time>2010-05-14T11:55:48Z</time>
      </trkpt>
      <trkpt lat="48.64257" lon="1.72253">
        <ele>159</ele>
        <time>2010-05-14T11:55:50Z</time>
      </trkpt>
      <trkpt lat="48.64258" lon="1.7225">
        <ele>159</ele>
        <time>2010-05-14T11:55:52Z</time>
      </trkpt>
      <trkpt lat="48.64259" lon="1.72247">
        <ele>159</ele>
        <time>2010-05-14T11:55:54Z</time>
      </trkpt>
      <trkpt lat="48.6426" lon="1.72246">
        <ele>159</ele>
        <time>2010-05-14T11:55:55Z</time>
      </trkpt>
      <trkpt lat="48.64262" lon="1.72244">
        <ele>159</ele>
        <time>2010-05-14T11:55:56Z</time>
      </trkpt>
      <trkpt lat="48.64263" lon="1.72242">
        <ele>159</ele>
        <time>2010-05-14T11:55:58Z</time>
      </trkpt>
      <trkpt lat="48.64263" lon="1.7224">
        <ele>159</ele>
        <time>2010-05-14T11:55:59Z</time>
      </trkpt>
      <trkpt lat="48.64263" lon="1.72237">
        <ele>159</ele>
        <time>2010-05-14T11:56:01Z</time>
      </trkpt>
      <trkpt lat="48.64263" lon="1.72234">
        <ele>159</ele>
        <time>2010-05-14T11:56:03Z</time>
      </trkpt>
      <trkpt lat="48.64262" lon="1.72232">
        <ele>159</ele>
        <time>2010-05-14T11:56:05Z</time>
      </trkpt>
      <trkpt lat="48.64263" lon="1.72232">
        <ele>159</ele>
        <time>2010-05-14T11:56:07Z</time>
      </trkpt>
      <trkpt lat="48.64265" lon="1.72231">
        <ele>159</ele>
        <time>2010-05-14T11:56:09Z</time>
      </trkpt>
      <trkpt lat="48.64263" lon="1.72231">
        <ele>159</ele>
        <time>2010-05-14T11:56:16Z</time>
      </trkpt>
      <trkpt lat="48.64263" lon="1.72229">
        <ele>159</ele>
        <time>2010-05-14T11:56:22Z</time>
      </trkpt>
      <trkpt lat="48.64261" lon="1.72229">
        <ele>159</ele>
        <time>2010-05-14T11:56:26Z</time>
      </trkpt>
      <trkpt lat="48.6426" lon="1.72228">
        <ele>157</ele>
        <time>2010-05-14T11:56:30Z</time>
      </trkpt>
      <trkpt lat="48.64261" lon="1.72226">
        <ele>155</ele>
        <time>2010-05-14T11:56:33Z</time>
      </trkpt>
      <trkpt lat="48.64262" lon="1.72227">
        <ele>159</ele>
        <time>2010-05-14T11:56:41Z</time>
      </trkpt>
      <trkpt lat="48.64264" lon="1.72228">
        <ele>162</ele>
        <time>2010-05-14T11:56:45Z</time>
      </trkpt>
      <trkpt lat="48.64265" lon="1.72227">
        <ele>163</ele>
        <time>2010-05-14T11:56:46Z</time>
      </trkpt>
      <trkpt lat="48.64263" lon="1.72227">
        <ele>167</ele>
        <time>2010-05-14T11:56:50Z</time>
      </trkpt>
      <trkpt lat="48.64262" lon="1.72229">
        <ele>169</ele>
        <time>2010-05-14T11:56:52Z</time>
      </trkpt>
      <trkpt lat="48.64261" lon="1.72231">
        <ele>169</ele>
        <time>2010-05-14T11:56:55Z</time>
      </trkpt>
      <trkpt lat="48.64262" lon="1.72229">
        <ele>169</ele>
        <time>2010-05-14T11:57:02Z</time>
      </trkpt>
      <trkpt lat="48.64262" lon="1.72231">
        <ele>166</ele>
        <time>2010-05-14T11:57:10Z</time>
      </trkpt>
      <trkpt lat="48.64262" lon="1.72233">
        <ele>165</ele>
        <time>2010-05-14T11:57:14Z</time>
      </trkpt>
      <trkpt lat="48.64262" lon="1.72235">
        <ele>165</ele>
        <time>2010-05-14T11:57:16Z</time>
      </trkpt>
      <trkpt lat="48.64264" lon="1.72234">
        <ele>163</ele>
        <time>2010-05-14T11:57:28Z</time>
      </trkpt>
      <trkpt lat="48.64265" lon="1.72236">
        <ele>163</ele>
        <time>2010-05-14T11:57:30Z</time>
      </trkpt>
      <trkpt lat="48.64265" lon="1.72239">
        <ele>163</ele>
        <time>2010-05-14T11:57:32Z</time>
      </trkpt>
      <trkpt lat="48.64264" lon="1.72241">
        <ele>163</ele>
        <time>2010-05-14T11:57:34Z</time>
      </trkpt>
      <trkpt lat="48.64263" lon="1.72243">
        <ele>163</ele>
        <time>2010-05-14T11:57:36Z</time>
      </trkpt>
      <trkpt lat="48.64262" lon="1.72246">
        <ele>163</ele>
        <time>2010-05-14T11:57:38Z</time>
      </trkpt>
      <trkpt lat="48.6426" lon="1.72248">
        <ele>163</ele>
        <time>2010-05-14T11:57:40Z</time>
      </trkpt>
      <trkpt lat="48.64259" lon="1.7225">
        <ele>163</ele>
        <time>2010-05-14T11:57:42Z</time>
      </trkpt>
      <trkpt lat="48.64258" lon="1.72252">
        <ele>163</ele>
        <time>2010-05-14T11:57:44Z</time>
      </trkpt>
      <trkpt lat="48.64257" lon="1.72254">
        <ele>163</ele>
        <time>2010-05-14T11:57:45Z</time>
      </trkpt>
      <trkpt lat="48.64255" lon="1.72257">
        <ele>163</ele>
        <time>2010-05-14T11:57:47Z</time>
      </trkpt>
      <trkpt lat="48.64254" lon="1.72259">
        <ele>163</ele>
        <time>2010-05-14T11:57:50Z</time>
      </trkpt>
      <trkpt lat="48.64254" lon="1.7226">
        <ele>163</ele>
        <time>2010-05-14T11:57:52Z</time>
      </trkpt>
      <trkpt lat="48.64253" lon="1.72263">
        <ele>163</ele>
        <time>2010-05-14T11:57:55Z</time>
      </trkpt>
      <trkpt lat="48.64253" lon="1.72261">
        <ele>163</ele>
        <time>2010-05-14T11:58:04Z</time>
      </trkpt>
      <trkpt lat="48.64254" lon="1.72259">
        <ele>164</ele>
        <time>2010-05-14T11:58:08Z</time>
      </trkpt>
      <trkpt lat="48.64255" lon="1.72257">
        <ele>167</ele>
        <time>2010-05-14T11:58:12Z</time>
      </trkpt>
      <trkpt lat="48.64254" lon="1.72258">
        <ele>169</ele>
        <time>2010-05-14T11:58:27Z</time>
      </trkpt>
      <trkpt lat="48.64254" lon="1.7226">
        <ele>169</ele>
        <time>2010-05-14T11:58:31Z</time>
      </trkpt>
      <trkpt lat="48.64253" lon="1.72258">
        <ele>169</ele>
        <time>2010-05-14T11:58:41Z</time>
      </trkpt>
      <trkpt lat="48.64253" lon="1.72256">
        <ele>169</ele>
        <time>2010-05-14T11:58:43Z</time>
      </trkpt>
      <trkpt lat="48.64252" lon="1.72256">
        <ele>169</ele>
        <time>2010-05-14T11:58:51Z</time>
      </trkpt>
      <trkpt lat="48.64251" lon="1.72254">
        <ele>169</ele>
        <time>2010-05-14T11:58:57Z</time>
      </trkpt>
      <trkpt lat="48.64252" lon="1.72253">
        <ele>169</ele>
        <time>2010-05-14T11:59:02Z</time>
      </trkpt>
      <trkpt lat="48.64253" lon="1.72255">
        <ele>169</ele>
        <time>2010-05-14T11:59:10Z</time>
      </trkpt>
      <trkpt lat="48.64252" lon="1.72253">
        <ele>165</ele>
        <time>2010-05-14T11:59:14Z</time>
      </trkpt>
      <trkpt lat="48.64253" lon="1.72251">
        <ele>164</ele>
        <time>2010-05-14T11:59:17Z</time>
      </trkpt>
      <trkpt lat="48.64252" lon="1.72253">
        <ele>164</ele>
        <time>2010-05-14T11:59:24Z</time>
      </trkpt>
      <trkpt lat="48.64251" lon="1.72255">
        <ele>163</ele>
        <time>2010-05-14T11:59:25Z</time>
      </trkpt>
      <trkpt lat="48.6425" lon="1.72257">
        <ele>161</ele>
        <time>2010-05-14T11:59:27Z</time>
      </trkpt>
      <trkpt lat="48.64249" lon="1.72259">
        <ele>158</ele>
        <time>2010-05-14T11:59:30Z</time>
      </trkpt>
      <trkpt lat="48.6425" lon="1.72261">
        <ele>155</ele>
        <time>2010-05-14T11:59:35Z</time>
      </trkpt>
      <trkpt lat="48.6425" lon="1.72263">
        <ele>155</ele>
        <time>2010-05-14T11:59:37Z</time>
      </trkpt>
      <trkpt lat="48.64251" lon="1.72263">
        <ele>155</ele>
        <time>2010-05-14T11:59:58Z</time>
      </trkpt>
      <trkpt lat="48.64251" lon="1.72262">
        <ele>155</ele>
        <time>2010-05-14T12:00:09Z</time>
      </trkpt>
      <trkpt lat="48.6425" lon="1.72263">
        <ele>156</ele>
        <time>2010-05-14T12:00:14Z</time>
      </trkpt>
      <trkpt lat="48.6425" lon="1.72265">
        <ele>156</ele>
        <time>2010-05-14T12:00:24Z</time>
      </trkpt>
      <trkpt lat="48.64249" lon="1.72266">
        <ele>156</ele>
        <time>2010-05-14T12:00:29Z</time>
      </trkpt>
      <trkpt lat="48.64248" lon="1.72264">
        <ele>156</ele>
        <time>2010-05-14T12:00:34Z</time>
      </trkpt>
      <trkpt lat="48.64249" lon="1.72263">
        <ele>156</ele>
        <time>2010-05-14T12:00:44Z</time>
      </trkpt>
      <trkpt lat="48.64249" lon="1.72265">
        <ele>157</ele>
        <time>2010-05-14T12:00:47Z</time>
      </trkpt>
      <trkpt lat="48.64249" lon="1.72267">
        <ele>158</ele>
        <time>2010-05-14T12:00:55Z</time>
      </trkpt>
      <trkpt lat="48.64249" lon="1.72265">
        <ele>158</ele>
        <time>2010-05-14T12:01:00Z</time>
      </trkpt>
      <trkpt lat="48.64251" lon="1.72265">
        <ele>158</ele>
        <time>2010-05-14T12:01:02Z</time>
      </trkpt>
      <trkpt lat="48.6425" lon="1.72263">
        <ele>158</ele>
        <time>2010-05-14T12:01:08Z</time>
      </trkpt>
      <trkpt lat="48.64252" lon="1.72267">
        <ele>158</ele>
        <time>2010-05-14T12:01:18Z</time>
      </trkpt>
      <trkpt lat="48.64252" lon="1.72269">
        <ele>158</ele>
        <time>2010-05-14T12:01:20Z</time>
      </trkpt>
      <trkpt lat="48.64253" lon="1.72267">
        <ele>158</ele>
        <time>2010-05-14T12:01:22Z</time>
      </trkpt>
      <trkpt lat="48.64251" lon="1.72265">
        <ele>158</ele>
        <time>2010-05-14T12:01:26Z</time>
      </trkpt>
      <trkpt lat="48.64249" lon="1.72264">
        <ele>158</ele>
        <time>2010-05-14T12:01:29Z</time>
      </trkpt>
      <trkpt lat="48.64248" lon="1.72263">
        <ele>158</ele>
        <time>2010-05-14T12:01:31Z</time>
      </trkpt>
      <trkpt lat="48.64245" lon="1.72263">
        <ele>158</ele>
        <time>2010-05-14T12:01:33Z</time>
      </trkpt>
      <trkpt lat="48.64244" lon="1.72263">
        <ele>159</ele>
        <time>2010-05-14T12:01:35Z</time>
      </trkpt>
      <trkpt lat="48.64242" lon="1.72264">
        <ele>159</ele>
        <time>2010-05-14T12:01:36Z</time>
      </trkpt>
      <trkpt lat="48.64241" lon="1.72264">
        <ele>160</ele>
        <time>2010-05-14T12:01:37Z</time>
      </trkpt>
      <trkpt lat="48.6424" lon="1.72263">
        <ele>162</ele>
        <time>2010-05-14T12:01:39Z</time>
      </trkpt>
      <trkpt lat="48.64238" lon="1.72263">
        <ele>162</ele>
        <time>2010-05-14T12:01:40Z</time>
      </trkpt>
      <trkpt lat="48.64237" lon="1.72261">
        <ele>164</ele>
        <time>2010-05-14T12:01:42Z</time>
      </trkpt>
      <trkpt lat="48.64235" lon="1.7226">
        <ele>164</ele>
        <time>2010-05-14T12:01:44Z</time>
      </trkpt>
      <trkpt lat="48.64233" lon="1.72257">
        <ele>164</ele>
        <time>2010-05-14T12:01:47Z</time>
      </trkpt>
      <trkpt lat="48.64231" lon="1.72257">
        <ele>165</ele>
        <time>2010-05-14T12:01:49Z</time>
      </trkpt>
      <trkpt lat="48.6423" lon="1.72255">
        <ele>165</ele>
        <time>2010-05-14T12:01:50Z</time>
      </trkpt>
      <trkpt lat="48.64227" lon="1.72253">
        <ele>165</ele>
        <time>2010-05-14T12:01:51Z</time>
      </trkpt>
      <trkpt lat="48.64225" lon="1.72251">
        <ele>165</ele>
        <time>2010-05-14T12:01:54Z</time>
      </trkpt>
      <trkpt lat="48.64223" lon="1.72251">
        <ele>165</ele>
        <time>2010-05-14T12:01:55Z</time>
      </trkpt>
      <trkpt lat="48.64221" lon="1.7225">
        <ele>165</ele>
        <time>2010-05-14T12:01:57Z</time>
      </trkpt>
      <trkpt lat="48.6422" lon="1.7225">
        <ele>165</ele>
        <time>2010-05-14T12:01:58Z</time>
      </trkpt>
      <trkpt lat="48.64218" lon="1.72249">
        <ele>165</ele>
        <time>2010-05-14T12:01:59Z</time>
      </trkpt>
      <trkpt lat="48.64216" lon="1.72248">
        <ele>165</ele>
        <time>2010-05-14T12:02:00Z</time>
      </trkpt>
      <trkpt lat="48.64215" lon="1.72247">
        <ele>165</ele>
        <time>2010-05-14T12:02:02Z</time>
      </trkpt>
      <trkpt lat="48.64213" lon="1.72246">
        <ele>165</ele>
        <time>2010-05-14T12:02:03Z</time>
      </trkpt>
      <trkpt lat="48.64212" lon="1.72244">
        <ele>165</ele>
        <time>2010-05-14T12:02:04Z</time>
      </trkpt>
      <trkpt lat="48.6421" lon="1.72243">
        <ele>165</ele>
        <time>2010-05-14T12:02:05Z</time>
      </trkpt>
      <trkpt lat="48.64209" lon="1.72242">
        <ele>165</ele>
        <time>2010-05-14T12:02:06Z</time>
      </trkpt>
      <trkpt lat="48.64208" lon="1.72242">
        <ele>165</ele>
        <time>2010-05-14T12:02:07Z</time>
      </trkpt>
      <trkpt lat="48.64206" lon="1.7224">
        <ele>165</ele>
        <time>2010-05-14T12:02:10Z</time>
      </trkpt>
      <trkpt lat="48.64205" lon="1.7224">
        <ele>165</ele>
        <time>2010-05-14T12:02:11Z</time>
      </trkpt>
      <trkpt lat="48.64204" lon="1.72239">
        <ele>165</ele>
        <time>2010-05-14T12:02:12Z</time>
      </trkpt>
      <trkpt lat="48.64202" lon="1.72238">
        <ele>165</ele>
        <time>2010-05-14T12:02:13Z</time>
      </trkpt>
      <trkpt lat="48.64201" lon="1.72237">
        <ele>165</ele>
        <time>2010-05-14T12:02:14Z</time>
      </trkpt>
      <trkpt lat="48.642" lon="1.72235">
        <ele>165</ele>
        <time>2010-05-14T12:02:16Z</time>
      </trkpt>
      <trkpt lat="48.64197" lon="1.72233">
        <ele>165</ele>
        <time>2010-05-14T12:02:18Z</time>
      </trkpt>
      <trkpt lat="48.64196" lon="1.72233">
        <ele>165</ele>
        <time>2010-05-14T12:02:19Z</time>
      </trkpt>
      <trkpt lat="48.64195" lon="1.72231">
        <ele>165</ele>
        <time>2010-05-14T12:02:20Z</time>
      </trkpt>
      <trkpt lat="48.64194" lon="1.7223">
        <ele>165</ele>
        <time>2010-05-14T12:02:21Z</time>
      </trkpt>
      <trkpt lat="48.64187" lon="1.72228">
        <ele>165</ele>
        <time>2010-05-14T12:02:26Z</time>
      </trkpt>
      <trkpt lat="48.64186" lon="1.72227">
        <ele>165</ele>
        <time>2010-05-14T12:02:27Z</time>
      </trkpt>
      <trkpt lat="48.64184" lon="1.72226">
        <ele>165</ele>
        <time>2010-05-14T12:02:28Z</time>
      </trkpt>
      <trkpt lat="48.64182" lon="1.72226">
        <ele>165</ele>
        <time>2010-05-14T12:02:29Z</time>
      </trkpt>
      <trkpt lat="48.6418" lon="1.72226">
        <ele>165</ele>
        <time>2010-05-14T12:02:30Z</time>
      </trkpt>
      <trkpt lat="48.64178" lon="1.72226">
        <ele>165</ele>
        <time>2010-05-14T12:02:31Z</time>
      </trkpt>
      <trkpt lat="48.64176" lon="1.72227">
        <ele>165</ele>
        <time>2010-05-14T12:02:33Z</time>
      </trkpt>
      <trkpt lat="48.64175" lon="1.72227">
        <ele>165</ele>
        <time>2010-05-14T12:02:34Z</time>
      </trkpt>
      <trkpt lat="48.64173" lon="1.72227">
        <ele>165</ele>
        <time>2010-05-14T12:02:35Z</time>
      </trkpt>
      <trkpt lat="48.64171" lon="1.72227">
        <ele>165</ele>
        <time>2010-05-14T12:02:36Z</time>
      </trkpt>
      <trkpt lat="48.6417" lon="1.72227">
        <ele>165</ele>
        <time>2010-05-14T12:02:37Z</time>
      </trkpt>
      <trkpt lat="48.64169" lon="1.72226">
        <ele>165</ele>
        <time>2010-05-14T12:02:38Z</time>
      </trkpt>
      <trkpt lat="48.64167" lon="1.72226">
        <ele>165</ele>
        <time>2010-05-14T12:02:39Z</time>
      </trkpt>
      <trkpt lat="48.64166" lon="1.72224">
        <ele>165</ele>
        <time>2010-05-14T12:02:40Z</time>
      </trkpt>
      <trkpt lat="48.64164" lon="1.72222">
        <ele>165</ele>
        <time>2010-05-14T12:02:41Z</time>
      </trkpt>
      <trkpt lat="48.64163" lon="1.72221">
        <ele>165</ele>
        <time>2010-05-14T12:02:42Z</time>
      </trkpt>
      <trkpt lat="48.64161" lon="1.72219">
        <ele>165</ele>
        <time>2010-05-14T12:02:43Z</time>
      </trkpt>
      <trkpt lat="48.64159" lon="1.72218">
        <ele>165</ele>
        <time>2010-05-14T12:02:44Z</time>
      </trkpt>
      <trkpt lat="48.64157" lon="1.72217">
        <ele>165</ele>
        <time>2010-05-14T12:02:45Z</time>
      </trkpt>
      <trkpt lat="48.64155" lon="1.72216">
        <ele>165</ele>
        <time>2010-05-14T12:02:47Z</time>
      </trkpt>
      <trkpt lat="48.64153" lon="1.72215">
        <ele>165</ele>
        <time>2010-05-14T12:02:48Z</time>
      </trkpt>
      <trkpt lat="48.64151" lon="1.72215">
        <ele>165</ele>
        <time>2010-05-14T12:02:49Z</time>
      </trkpt>
      <trkpt lat="48.6415" lon="1.72214">
        <ele>165</ele>
        <time>2010-05-14T12:02:50Z</time>
      </trkpt>
      <trkpt lat="48.64148" lon="1.72214">
        <ele>164</ele>
        <time>2010-05-14T12:02:52Z</time>
      </trkpt>
      <trkpt lat="48.64146" lon="1.72214">
        <ele>163</ele>
        <time>2010-05-14T12:02:53Z</time>
      </trkpt>
      <trkpt lat="48.64143" lon="1.72213">
        <ele>162</ele>
        <time>2010-05-14T12:02:55Z</time>
      </trkpt>
      <trkpt lat="48.64142" lon="1.72212">
        <ele>162</ele>
        <time>2010-05-14T12:02:56Z</time>
      </trkpt>
      <trkpt lat="48.64141" lon="1.72211">
        <ele>162</ele>
        <time>2010-05-14T12:02:57Z</time>
      </trkpt>
      <trkpt lat="48.64139" lon="1.72211">
        <ele>161</ele>
        <time>2010-05-14T12:02:58Z</time>
      </trkpt>
      <trkpt lat="48.64138" lon="1.72211">
        <ele>161</ele>
        <time>2010-05-14T12:02:59Z</time>
      </trkpt>
      <trkpt lat="48.64136" lon="1.7221">
        <ele>161</ele>
        <time>2010-05-14T12:03:00Z</time>
      </trkpt>
      <trkpt lat="48.64134" lon="1.72209">
        <ele>160</ele>
        <time>2010-05-14T12:03:01Z</time>
      </trkpt>
      <trkpt lat="48.64133" lon="1.72208">
        <ele>160</ele>
        <time>2010-05-14T12:03:02Z</time>
      </trkpt>
      <trkpt lat="48.64131" lon="1.72207">
        <ele>160</ele>
        <time>2010-05-14T12:03:03Z</time>
      </trkpt>
      <trkpt lat="48.6413" lon="1.72206">
        <ele>160</ele>
        <time>2010-05-14T12:03:04Z</time>
      </trkpt>
      <trkpt lat="48.64128" lon="1.72204">
        <ele>160</ele>
        <time>2010-05-14T12:03:05Z</time>
      </trkpt>
      <trkpt lat="48.64127" lon="1.72204">
        <ele>160</ele>
        <time>2010-05-14T12:03:06Z</time>
      </trkpt>
      <trkpt lat="48.64126" lon="1.72203">
        <ele>160</ele>
        <time>2010-05-14T12:03:07Z</time>
      </trkpt>
      <trkpt lat="48.64125" lon="1.72203">
        <ele>160</ele>
        <time>2010-05-14T12:03:08Z</time>
      </trkpt>
      <trkpt lat="48.64123" lon="1.72202">
        <ele>160</ele>
        <time>2010-05-14T12:03:09Z</time>
      </trkpt>
      <trkpt lat="48.64121" lon="1.72201">
        <ele>160</ele>
        <time>2010-05-14T12:03:11Z</time>
      </trkpt>
      <trkpt lat="48.64119" lon="1.722">
        <ele>160</ele>
        <time>2010-05-14T12:03:13Z</time>
      </trkpt>
      <trkpt lat="48.64118" lon="1.72199">
        <ele>160</ele>
        <time>2010-05-14T12:03:14Z</time>
      </trkpt>
      <trkpt lat="48.64115" lon="1.72198">
        <ele>160</ele>
        <time>2010-05-14T12:03:16Z</time>
      </trkpt>
      <trkpt lat="48.64114" lon="1.72198">
        <ele>160</ele>
        <time>2010-05-14T12:03:17Z</time>
      </trkpt>
      <trkpt lat="48.64113" lon="1.72197">
        <ele>160</ele>
        <time>2010-05-14T12:03:18Z</time>
      </trkpt>
      <trkpt lat="48.64111" lon="1.72197">
        <ele>160</ele>
        <time>2010-05-14T12:03:19Z</time>
      </trkpt>
      <trkpt lat="48.6411" lon="1.72197">
        <ele>160</ele>
        <time>2010-05-14T12:03:20Z</time>
      </trkpt>
      <trkpt lat="48.64108" lon="1.72196">
        <ele>160</ele>
        <time>2010-05-14T12:03:21Z</time>
      </trkpt>
      <trkpt lat="48.64107" lon="1.72194">
        <ele>160</ele>
        <time>2010-05-14T12:03:22Z</time>
      </trkpt>
      <trkpt lat="48.64105" lon="1.72193">
        <ele>160</ele>
        <time>2010-05-14T12:03:23Z</time>
      </trkpt>
      <trkpt lat="48.64103" lon="1.72193">
        <ele>160</ele>
        <time>2010-05-14T12:03:25Z</time>
      </trkpt>
      <trkpt lat="48.64101" lon="1.72192">
        <ele>160</ele>
        <time>2010-05-14T12:03:26Z</time>
      </trkpt>
      <trkpt lat="48.641" lon="1.72191">
        <ele>160</ele>
        <time>2010-05-14T12:03:27Z</time>
      </trkpt>
      <trkpt lat="48.64099" lon="1.72191">
        <ele>160</ele>
        <time>2010-05-14T12:03:28Z</time>
      </trkpt>
      <trkpt lat="48.64097" lon="1.7219">
        <ele>160</ele>
        <time>2010-05-14T12:03:29Z</time>
      </trkpt>
      <trkpt lat="48.64096" lon="1.72188">
        <ele>160</ele>
        <time>2010-05-14T12:03:30Z</time>
      </trkpt>
      <trkpt lat="48.64094" lon="1.72187">
        <ele>160</ele>
        <time>2010-05-14T12:03:31Z</time>
      </trkpt>
      <trkpt lat="48.64093" lon="1.72187">
        <ele>160</ele>
        <time>2010-05-14T12:03:32Z</time>
      </trkpt>
      <trkpt lat="48.64091" lon="1.72186">
        <ele>160</ele>
        <time>2010-05-14T12:03:33Z</time>
      </trkpt>
      <trkpt lat="48.6409" lon="1.72184">
        <ele>160</ele>
        <time>2010-05-14T12:03:34Z</time>
      </trkpt>
      <trkpt lat="48.64088" lon="1.72183">
        <ele>160</ele>
        <time>2010-05-14T12:03:35Z</time>
      </trkpt>
      <trkpt lat="48.64086" lon="1.72182">
        <ele>160</ele>
        <time>2010-05-14T12:03:36Z</time>
      </trkpt>
      <trkpt lat="48.64085" lon="1.72181">
        <ele>160</ele>
        <time>2010-05-14T12:03:37Z</time>
      </trkpt>
      <trkpt lat="48.64083" lon="1.72181">
        <ele>160</ele>
        <time>2010-05-14T12:03:38Z</time>
      </trkpt>
      <trkpt lat="48.64082" lon="1.72181">
        <ele>160</ele>
        <time>2010-05-14T12:03:39Z</time>
      </trkpt>
      <trkpt lat="48.64081" lon="1.7218">
        <ele>160</ele>
        <time>2010-05-14T12:03:40Z</time>
      </trkpt>
      <trkpt lat="48.64079" lon="1.72179">
        <ele>160</ele>
        <time>2010-05-14T12:03:41Z</time>
      </trkpt>
      <trkpt lat="48.64078" lon="1.72178">
        <ele>160</ele>
        <time>2010-05-14T12:03:42Z</time>
      </trkpt>
      <trkpt lat="48.64077" lon="1.72177">
        <ele>160</ele>
        <time>2010-05-14T12:03:43Z</time>
      </trkpt>
      <trkpt lat="48.64076" lon="1.72176">
        <ele>160</ele>
        <time>2010-05-14T12:03:44Z</time>
      </trkpt>
      <trkpt lat="48.64074" lon="1.72175">
        <ele>160</ele>
        <time>2010-05-14T12:03:45Z</time>
      </trkpt>
      <trkpt lat="48.64073" lon="1.72175">
        <ele>160</ele>
        <time>2010-05-14T12:03:46Z</time>
      </trkpt>
      <trkpt lat="48.64071" lon="1.72174">
        <ele>160</ele>
        <time>2010-05-14T12:03:47Z</time>
      </trkpt>
      <trkpt lat="48.6407" lon="1.72174">
        <ele>160</ele>
        <time>2010-05-14T12:03:48Z</time>
      </trkpt>
      <trkpt lat="48.64069" lon="1.72173">
        <ele>160</ele>
        <time>2010-05-14T12:03:49Z</time>
      </trkpt>
      <trkpt lat="48.64067" lon="1.72172">
        <ele>160</ele>
        <time>2010-05-14T12:03:50Z</time>
      </trkpt>
      <trkpt lat="48.64065" lon="1.7217">
        <ele>160</ele>
        <time>2010-05-14T12:03:52Z</time>
      </trkpt>
      <trkpt lat="48.64063" lon="1.7217">
        <ele>160</ele>
        <time>2010-05-14T12:03:53Z</time>
      </trkpt>
      <trkpt lat="48.64062" lon="1.7217">
        <ele>160</ele>
        <time>2010-05-14T12:03:54Z</time>
      </trkpt>
      <trkpt lat="48.6406" lon="1.72169">
        <ele>160</ele>
        <time>2010-05-14T12:03:56Z</time>
      </trkpt>
      <trkpt lat="48.64058" lon="1.72167">
        <ele>160</ele>
        <time>2010-05-14T12:03:57Z</time>
      </trkpt>
      <trkpt lat="48.64056" lon="1.72166">
        <ele>160</ele>
        <time>2010-05-14T12:03:58Z</time>
      </trkpt>
      <trkpt lat="48.64055" lon="1.72165">
        <ele>160</ele>
        <time>2010-05-14T12:03:59Z</time>
      </trkpt>
      <trkpt lat="48.64053" lon="1.72164">
        <ele>160</ele>
        <time>2010-05-14T12:04:00Z</time>
      </trkpt>
      <trkpt lat="48.64052" lon="1.72163">
        <ele>160</ele>
        <time>2010-05-14T12:04:01Z</time>
      </trkpt>
      <trkpt lat="48.6405" lon="1.72162">
        <ele>160</ele>
        <time>2010-05-14T12:04:02Z</time>
      </trkpt>
      <trkpt lat="48.64048" lon="1.7216">
        <ele>160</ele>
        <time>2010-05-14T12:04:03Z</time>
      </trkpt>
      <trkpt lat="48.64047" lon="1.72159">
        <ele>160</ele>
        <time>2010-05-14T12:04:04Z</time>
      </trkpt>
      <trkpt lat="48.64045" lon="1.72159">
        <ele>160</ele>
        <time>2010-05-14T12:04:05Z</time>
      </trkpt>
      <trkpt lat="48.64044" lon="1.72158">
        <ele>160</ele>
        <time>2010-05-14T12:04:06Z</time>
      </trkpt>
      <trkpt lat="48.64043" lon="1.72157">
        <ele>160</ele>
        <time>2010-05-14T12:04:07Z</time>
      </trkpt>
      <trkpt lat="48.64041" lon="1.72156">
        <ele>160</ele>
        <time>2010-05-14T12:04:08Z</time>
      </trkpt>
      <trkpt lat="48.6404" lon="1.72155">
        <ele>160</ele>
        <time>2010-05-14T12:04:09Z</time>
      </trkpt>
      <trkpt lat="48.64038" lon="1.72155">
        <ele>160</ele>
        <time>2010-05-14T12:04:10Z</time>
      </trkpt>
      <trkpt lat="48.64037" lon="1.72154">
        <ele>160</ele>
        <time>2010-05-14T12:04:11Z</time>
      </trkpt>
      <trkpt lat="48.64036" lon="1.72153">
        <ele>160</ele>
        <time>2010-05-14T12:04:12Z</time>
      </trkpt>
      <trkpt lat="48.64034" lon="1.72152">
        <ele>160</ele>
        <time>2010-05-14T12:04:13Z</time>
      </trkpt>
      <trkpt lat="48.64033" lon="1.72152">
        <ele>160</ele>
        <time>2010-05-14T12:04:14Z</time>
      </trkpt>
      <trkpt lat="48.64032" lon="1.72151">
        <ele>160</ele>
        <time>2010-05-14T12:04:15Z</time>
      </trkpt>
      <trkpt lat="48.64031" lon="1.72151">
        <ele>160</ele>
        <time>2010-05-14T12:04:16Z</time>
      </trkpt>
      <trkpt lat="48.64029" lon="1.7215">
        <ele>160</ele>
        <time>2010-05-14T12:04:17Z</time>
      </trkpt>
      <trkpt lat="48.64028" lon="1.7215">
        <ele>160</ele>
        <time>2010-05-14T12:04:18Z</time>
      </trkpt>
      <trkpt lat="48.64026" lon="1.72149">
        <ele>160</ele>
        <time>2010-05-14T12:04:19Z</time>
      </trkpt>
      <trkpt lat="48.64025" lon="1.72148">
        <ele>160</ele>
        <time>2010-05-14T12:04:20Z</time>
      </trkpt>
      <trkpt lat="48.64022" lon="1.72146">
        <ele>160</ele>
        <time>2010-05-14T12:04:22Z</time>
      </trkpt>
      <trkpt lat="48.64021" lon="1.72146">
        <ele>160</ele>
        <time>2010-05-14T12:04:23Z</time>
      </trkpt>
      <trkpt lat="48.6402" lon="1.72144">
        <ele>160</ele>
        <time>2010-05-14T12:04:24Z</time>
      </trkpt>
      <trkpt lat="48.64019" lon="1.72144">
        <ele>160</ele>
        <time>2010-05-14T12:04:25Z</time>
      </trkpt>
      <trkpt lat="48.64017" lon="1.72143">
        <ele>160</ele>
        <time>2010-05-14T12:04:26Z</time>
      </trkpt>
      <trkpt lat="48.64016" lon="1.72142">
        <ele>160</ele>
        <time>2010-05-14T12:04:27Z</time>
      </trkpt>
      <trkpt lat="48.64015" lon="1.72141">
        <ele>160</ele>
        <time>2010-05-14T12:04:28Z</time>
      </trkpt>
      <trkpt lat="48.64014" lon="1.7214">
        <ele>160</ele>
        <time>2010-05-14T12:04:29Z</time>
      </trkpt>
      <trkpt lat="48.64012" lon="1.72139">
        <ele>160</ele>
        <time>2010-05-14T12:04:30Z</time>
      </trkpt>
      <trkpt lat="48.6401" lon="1.72139">
        <ele>160</ele>
        <time>2010-05-14T12:04:31Z</time>
      </trkpt>
      <trkpt lat="48.64008" lon="1.72138">
        <ele>160</ele>
        <time>2010-05-14T12:04:32Z</time>
      </trkpt>
      <trkpt lat="48.64007" lon="1.72138">
        <ele>160</ele>
        <time>2010-05-14T12:04:33Z</time>
      </trkpt>
      <trkpt lat="48.64006" lon="1.72137">
        <ele>160</ele>
        <time>2010-05-14T12:04:34Z</time>
      </trkpt>
      <trkpt lat="48.64005" lon="1.72136">
        <ele>160</ele>
        <time>2010-05-14T12:04:35Z</time>
      </trkpt>
      <trkpt lat="48.64003" lon="1.72136">
        <ele>160</ele>
        <time>2010-05-14T12:04:36Z</time>
      </trkpt>
      <trkpt lat="48.64002" lon="1.72135">
        <ele>160</ele>
        <time>2010-05-14T12:04:37Z</time>
      </trkpt>
      <trkpt lat="48.64" lon="1.72134">
        <ele>160</ele>
        <time>2010-05-14T12:04:38Z</time>
      </trkpt>
      <trkpt lat="48.63999" lon="1.72133">
        <ele>160</ele>
        <time>2010-05-14T12:04:39Z</time>
      </trkpt>
      <trkpt lat="48.63998" lon="1.72131">
        <ele>160</ele>
        <time>2010-05-14T12:04:40Z</time>
      </trkpt>
      <trkpt lat="48.63996" lon="1.72131">
        <ele>160</ele>
        <time>2010-05-14T12:04:41Z</time>
      </trkpt>
      <trkpt lat="48.63995" lon="1.7213">
        <ele>160</ele>
        <time>2010-05-14T12:04:42Z</time>
      </trkpt>
      <trkpt lat="48.63993" lon="1.72129">
        <ele>160</ele>
        <time>2010-05-14T12:04:43Z</time>
      </trkpt>
      <trkpt lat="48.63991" lon="1.72128">
        <ele>160</ele>
        <time>2010-05-14T12:04:44Z</time>
      </trkpt>
      <trkpt lat="48.6399" lon="1.72127">
        <ele>160</ele>
        <time>2010-05-14T12:04:45Z</time>
      </trkpt>
      <trkpt lat="48.63989" lon="1.72126">
        <ele>160</ele>
        <time>2010-05-14T12:04:46Z</time>
      </trkpt>
      <trkpt lat="48.63987" lon="1.72126">
        <ele>160</ele>
        <time>2010-05-14T12:04:47Z</time>
      </trkpt>
      <trkpt lat="48.63985" lon="1.72125">
        <ele>160</ele>
        <time>2010-05-14T12:04:48Z</time>
      </trkpt>
      <trkpt lat="48.63983" lon="1.72124">
        <ele>160</ele>
        <time>2010-05-14T12:04:49Z</time>
      </trkpt>
      <trkpt lat="48.63982" lon="1.72122">
        <ele>160</ele>
        <time>2010-05-14T12:04:50Z</time>
      </trkpt>
      <trkpt lat="48.6398" lon="1.72122">
        <ele>159</ele>
        <time>2010-05-14T12:04:51Z</time>
      </trkpt>
      <trkpt lat="48.63979" lon="1.72122">
        <ele>159</ele>
        <time>2010-05-14T12:04:52Z</time>
      </trkpt>
      <trkpt lat="48.63977" lon="1.72121">
        <ele>159</ele>
        <time>2010-05-14T12:04:53Z</time>
      </trkpt>
      <trkpt lat="48.63975" lon="1.72121">
        <ele>159</ele>
        <time>2010-05-14T12:04:54Z</time>
      </trkpt>
      <trkpt lat="48.63974" lon="1.7212">
        <ele>159</ele>
        <time>2010-05-14T12:04:55Z</time>
      </trkpt>
      <trkpt lat="48.63972" lon="1.72119">
        <ele>159</ele>
        <time>2010-05-14T12:04:56Z</time>
      </trkpt>
      <trkpt lat="48.6397" lon="1.72119">
        <ele>159</ele>
        <time>2010-05-14T12:04:57Z</time>
      </trkpt>
      <trkpt lat="48.63969" lon="1.72118">
        <ele>159</ele>
        <time>2010-05-14T12:04:58Z</time>
      </trkpt>
      <trkpt lat="48.63968" lon="1.72116">
        <ele>159</ele>
        <time>2010-05-14T12:04:59Z</time>
      </trkpt>
      <trkpt lat="48.63967" lon="1.72115">
        <ele>159</ele>
        <time>2010-05-14T12:05:00Z</time>
      </trkpt>
      <trkpt lat="48.63965" lon="1.72114">
        <ele>159</ele>
        <time>2010-05-14T12:05:01Z</time>
      </trkpt>
      <trkpt lat="48.63964" lon="1.72113">
        <ele>159</ele>
        <time>2010-05-14T12:05:02Z</time>
      </trkpt>
      <trkpt lat="48.63961" lon="1.72112">
        <ele>159</ele>
        <time>2010-05-14T12:05:04Z</time>
      </trkpt>
      <trkpt lat="48.6396" lon="1.72111">
        <ele>159</ele>
        <time>2010-05-14T12:05:05Z</time>
      </trkpt>
      <trkpt lat="48.63958" lon="1.7211">
        <ele>159</ele>
        <time>2010-05-14T12:05:06Z</time>
      </trkpt>
      <trkpt lat="48.63957" lon="1.72109">
        <ele>158</ele>
        <time>2010-05-14T12:05:07Z</time>
      </trkpt>
      <trkpt lat="48.63956" lon="1.72107">
        <ele>158</ele>
        <time>2010-05-14T12:05:08Z</time>
      </trkpt>
      <trkpt lat="48.63954" lon="1.72106">
        <ele>158</ele>
        <time>2010-05-14T12:05:09Z</time>
      </trkpt>
      <trkpt lat="48.63953" lon="1.72105">
        <ele>158</ele>
        <time>2010-05-14T12:05:10Z</time>
      </trkpt>
      <trkpt lat="48.63951" lon="1.72104">
        <ele>158</ele>
        <time>2010-05-14T12:05:11Z</time>
      </trkpt>
      <trkpt lat="48.63949" lon="1.72103">
        <ele>158</ele>
        <time>2010-05-14T12:05:12Z</time>
      </trkpt>
      <trkpt lat="48.63948" lon="1.72103">
        <ele>158</ele>
        <time>2010-05-14T12:05:13Z</time>
      </trkpt>
      <trkpt lat="48.63946" lon="1.72102">
        <ele>158</ele>
        <time>2010-05-14T12:05:14Z</time>
      </trkpt>
      <trkpt lat="48.63945" lon="1.72102">
        <ele>158</ele>
        <time>2010-05-14T12:05:15Z</time>
      </trkpt>
      <trkpt lat="48.63942" lon="1.72099">
        <ele>158</ele>
        <time>2010-05-14T12:05:17Z</time>
      </trkpt>
      <trkpt lat="48.63941" lon="1.72097">
        <ele>158</ele>
        <time>2010-05-14T12:05:18Z</time>
      </trkpt>
      <trkpt lat="48.63939" lon="1.72096">
        <ele>158</ele>
        <time>2010-05-14T12:05:19Z</time>
      </trkpt>
      <trkpt lat="48.63938" lon="1.72095">
        <ele>158</ele>
        <time>2010-05-14T12:05:20Z</time>
      </trkpt>
      <trkpt lat="48.63937" lon="1.72094">
        <ele>158</ele>
        <time>2010-05-14T12:05:21Z</time>
      </trkpt>
      <trkpt lat="48.63935" lon="1.72093">
        <ele>158</ele>
        <time>2010-05-14T12:05:22Z</time>
      </trkpt>
      <trkpt lat="48.63934" lon="1.72093">
        <ele>158</ele>
        <time>2010-05-14T12:05:23Z</time>
      </trkpt>
      <trkpt lat="48.63933" lon="1.72093">
        <ele>158</ele>
        <time>2010-05-14T12:05:24Z</time>
      </trkpt>
      <trkpt lat="48.63931" lon="1.72092">
        <ele>158</ele>
        <time>2010-05-14T12:05:25Z</time>
      </trkpt>
      <trkpt lat="48.6393" lon="1.72091">
        <ele>158</ele>
        <time>2010-05-14T12:05:26Z</time>
      </trkpt>
      <trkpt lat="48.63929" lon="1.72091">
        <ele>158</ele>
        <time>2010-05-14T12:05:27Z</time>
      </trkpt>
      <trkpt lat="48.63927" lon="1.7209">
        <ele>158</ele>
        <time>2010-05-14T12:05:28Z</time>
      </trkpt>
      <trkpt lat="48.63926" lon="1.72089">
        <ele>158</ele>
        <time>2010-05-14T12:05:29Z</time>
      </trkpt>
      <trkpt lat="48.63925" lon="1.72089">
        <ele>158</ele>
        <time>2010-05-14T12:05:30Z</time>
      </trkpt>
      <trkpt lat="48.63923" lon="1.72089">
        <ele>158</ele>
        <time>2010-05-14T12:05:31Z</time>
      </trkpt>
      <trkpt lat="48.63922" lon="1.72089">
        <ele>158</ele>
        <time>2010-05-14T12:05:32Z</time>
      </trkpt>
      <trkpt lat="48.63921" lon="1.72088">
        <ele>158</ele>
        <time>2010-05-14T12:05:33Z</time>
      </trkpt>
      <trkpt lat="48.63919" lon="1.72087">
        <ele>158</ele>
        <time>2010-05-14T12:05:34Z</time>
      </trkpt>
      <trkpt lat="48.63918" lon="1.72087">
        <ele>158</ele>
        <time>2010-05-14T12:05:35Z</time>
      </trkpt>
      <trkpt lat="48.63917" lon="1.72087">
        <ele>158</ele>
        <time>2010-05-14T12:05:36Z</time>
      </trkpt>
      <trkpt lat="48.63915" lon="1.72087">
        <ele>158</ele>
        <time>2010-05-14T12:05:37Z</time>
      </trkpt>
      <trkpt lat="48.63913" lon="1.72086">
        <ele>158</ele>
        <time>2010-05-14T12:05:39Z</time>
      </trkpt>
      <trkpt lat="48.63911" lon="1.72085">
        <ele>158</ele>
        <time>2010-05-14T12:05:41Z</time>
      </trkpt>
      <trkpt lat="48.6391" lon="1.72085">
        <ele>158</ele>
        <time>2010-05-14T12:05:42Z</time>
      </trkpt>
      <trkpt lat="48.63908" lon="1.72083">
        <ele>158</ele>
        <time>2010-05-14T12:05:43Z</time>
      </trkpt>
      <trkpt lat="48.63907" lon="1.72082">
        <ele>158</ele>
        <time>2010-05-14T12:05:44Z</time>
      </trkpt>
      <trkpt lat="48.63906" lon="1.72082">
        <ele>158</ele>
        <time>2010-05-14T12:05:45Z</time>
      </trkpt>
      <trkpt lat="48.63904" lon="1.72081">
        <ele>158</ele>
        <time>2010-05-14T12:05:46Z</time>
      </trkpt>
      <trkpt lat="48.63903" lon="1.72081">
        <ele>158</ele>
        <time>2010-05-14T12:05:47Z</time>
      </trkpt>
      <trkpt lat="48.63901" lon="1.72081">
        <ele>158</ele>
        <time>2010-05-14T12:05:48Z</time>
      </trkpt>
      <trkpt lat="48.639" lon="1.72081">
        <ele>158</ele>
        <time>2010-05-14T12:05:49Z</time>
      </trkpt>
      <trkpt lat="48.63898" lon="1.7208">
        <ele>158</ele>
        <time>2010-05-14T12:05:50Z</time>
      </trkpt>
      <trkpt lat="48.63897" lon="1.72079">
        <ele>158</ele>
        <time>2010-05-14T12:05:51Z</time>
      </trkpt>
      <trkpt lat="48.63895" lon="1.72078">
        <ele>158</ele>
        <time>2010-05-14T12:05:52Z</time>
      </trkpt>
      <trkpt lat="48.63894" lon="1.72077">
        <ele>158</ele>
        <time>2010-05-14T12:05:53Z</time>
      </trkpt>
      <trkpt lat="48.63893" lon="1.72076">
        <ele>158</ele>
        <time>2010-05-14T12:05:54Z</time>
      </trkpt>
      <trkpt lat="48.63891" lon="1.72075">
        <ele>158</ele>
        <time>2010-05-14T12:05:55Z</time>
      </trkpt>
      <trkpt lat="48.6389" lon="1.72074">
        <ele>158</ele>
        <time>2010-05-14T12:05:56Z</time>
      </trkpt>
      <trkpt lat="48.63887" lon="1.72072">
        <ele>158</ele>
        <time>2010-05-14T12:05:57Z</time>
      </trkpt>
      <trkpt lat="48.63886" lon="1.72072">
        <ele>158</ele>
        <time>2010-05-14T12:05:58Z</time>
      </trkpt>
      <trkpt lat="48.63884" lon="1.72071">
        <ele>158</ele>
        <time>2010-05-14T12:05:59Z</time>
      </trkpt>
      <trkpt lat="48.63883" lon="1.7207">
        <ele>158</ele>
        <time>2010-05-14T12:06:00Z</time>
      </trkpt>
      <trkpt lat="48.63881" lon="1.72069">
        <ele>158</ele>
        <time>2010-05-14T12:06:01Z</time>
      </trkpt>
      <trkpt lat="48.63879" lon="1.72067">
        <ele>158</ele>
        <time>2010-05-14T12:06:02Z</time>
      </trkpt>
      <trkpt lat="48.63878" lon="1.72066">
        <ele>158</ele>
        <time>2010-05-14T12:06:03Z</time>
      </trkpt>
      <trkpt lat="48.63876" lon="1.72064">
        <ele>158</ele>
        <time>2010-05-14T12:06:04Z</time>
      </trkpt>
      <trkpt lat="48.63874" lon="1.72063">
        <ele>158</ele>
        <time>2010-05-14T12:06:05Z</time>
      </trkpt>
      <trkpt lat="48.63872" lon="1.72062">
        <ele>158</ele>
        <time>2010-05-14T12:06:06Z</time>
      </trkpt>
      <trkpt lat="48.63871" lon="1.72061">
        <ele>158</ele>
        <time>2010-05-14T12:06:07Z</time>
      </trkpt>
      <trkpt lat="48.63869" lon="1.7206">
        <ele>158</ele>
        <time>2010-05-14T12:06:08Z</time>
      </trkpt>
      <trkpt lat="48.63867" lon="1.72059">
        <ele>158</ele>
        <time>2010-05-14T12:06:09Z</time>
      </trkpt>
      <trkpt lat="48.63865" lon="1.72058">
        <ele>158</ele>
        <time>2010-05-14T12:06:10Z</time>
      </trkpt>
      <trkpt lat="48.63864" lon="1.72057">
        <ele>158</ele>
        <time>2010-05-14T12:06:11Z</time>
      </trkpt>
      <trkpt lat="48.63862" lon="1.72057">
        <ele>158</ele>
        <time>2010-05-14T12:06:12Z</time>
      </trkpt>
      <trkpt lat="48.6386" lon="1.72056">
        <ele>158</ele>
        <time>2010-05-14T12:06:13Z</time>
      </trkpt>
      <trkpt lat="48.63859" lon="1.72056">
        <ele>158</ele>
        <time>2010-05-14T12:06:14Z</time>
      </trkpt>
      <trkpt lat="48.63857" lon="1.72056">
        <ele>158</ele>
        <time>2010-05-14T12:06:15Z</time>
      </trkpt>
      <trkpt lat="48.63856" lon="1.72055">
        <ele>158</ele>
        <time>2010-05-14T12:06:16Z</time>
      </trkpt>
      <trkpt lat="48.63854" lon="1.72054">
        <ele>158</ele>
        <time>2010-05-14T12:06:17Z</time>
      </trkpt>
      <trkpt lat="48.63853" lon="1.72054">
        <ele>157</ele>
        <time>2010-05-14T12:06:18Z</time>
      </trkpt>
      <trkpt lat="48.63851" lon="1.72053">
        <ele>157</ele>
        <time>2010-05-14T12:06:19Z</time>
      </trkpt>
      <trkpt lat="48.6385" lon="1.72052">
        <ele>157</ele>
        <time>2010-05-14T12:06:20Z</time>
      </trkpt>
      <trkpt lat="48.63848" lon="1.72051">
        <ele>157</ele>
        <time>2010-05-14T12:06:21Z</time>
      </trkpt>
      <trkpt lat="48.63847" lon="1.7205">
        <ele>157</ele>
        <time>2010-05-14T12:06:22Z</time>
      </trkpt>
      <trkpt lat="48.63845" lon="1.72049">
        <ele>157</ele>
        <time>2010-05-14T12:06:23Z</time>
      </trkpt>
      <trkpt lat="48.63842" lon="1.72047">
        <ele>157</ele>
        <time>2010-05-14T12:06:24Z</time>
      </trkpt>
      <trkpt lat="48.63839" lon="1.72045">
        <ele>157</ele>
        <time>2010-05-14T12:06:25Z</time>
      </trkpt>
      <trkpt lat="48.63835" lon="1.72042">
        <ele>157</ele>
        <time>2010-05-14T12:06:26Z</time>
      </trkpt>
      <trkpt lat="48.63832" lon="1.7204">
        <ele>157</ele>
        <time>2010-05-14T12:06:27Z</time>
      </trkpt>
      <trkpt lat="48.63828" lon="1.72037">
        <ele>157</ele>
        <time>2010-05-14T12:06:28Z</time>
      </trkpt>
      <trkpt lat="48.63824" lon="1.72034">
        <ele>157</ele>
        <time>2010-05-14T12:06:29Z</time>
      </trkpt>
      <trkpt lat="48.6382" lon="1.72031">
        <ele>157</ele>
        <time>2010-05-14T12:06:30Z</time>
      </trkpt>
      <trkpt lat="48.63816" lon="1.72028">
        <ele>157</ele>
        <time>2010-05-14T12:06:31Z</time>
      </trkpt>
      <trkpt lat="48.63812" lon="1.72024">
        <ele>157</ele>
        <time>2010-05-14T12:06:32Z</time>
      </trkpt>
      <trkpt lat="48.63808" lon="1.72021">
        <ele>157</ele>
        <time>2010-05-14T12:06:33Z</time>
      </trkpt>
      <trkpt lat="48.63803" lon="1.72017">
        <ele>157</ele>
        <time>2010-05-14T12:06:34Z</time>
      </trkpt>
      <trkpt lat="48.63799" lon="1.72013">
        <ele>157</ele>
        <time>2010-05-14T12:06:35Z</time>
      </trkpt>
      <trkpt lat="48.63795" lon="1.72009">
        <ele>157</ele>
        <time>2010-05-14T12:06:36Z</time>
      </trkpt>
      <trkpt lat="48.6379" lon="1.72005">
        <ele>157</ele>
        <time>2010-05-14T12:06:37Z</time>
      </trkpt>
      <trkpt lat="48.63786" lon="1.72001">
        <ele>157</ele>
        <time>2010-05-14T12:06:38Z</time>
      </trkpt>
      <trkpt lat="48.63782" lon="1.71997">
        <ele>157</ele>
        <time>2010-05-14T12:06:39Z</time>
      </trkpt>
      <trkpt lat="48.63778" lon="1.71994">
        <ele>157</ele>
        <time>2010-05-14T12:06:40Z</time>
      </trkpt>
      <trkpt lat="48.63774" lon="1.7199">
        <ele>157</ele>
        <time>2010-05-14T12:06:41Z</time>
      </trkpt>
      <trkpt lat="48.63771" lon="1.71986">
        <ele>157</ele>
        <time>2010-05-14T12:06:42Z</time>
      </trkpt>
      <trkpt lat="48.63766" lon="1.71983">
        <ele>157</ele>
        <time>2010-05-14T12:06:43Z</time>
      </trkpt>
      <trkpt lat="48.63762" lon="1.71981">
        <ele>157</ele>
        <time>2010-05-14T12:06:44Z</time>
      </trkpt>
      <trkpt lat="48.63758" lon="1.71978">
        <ele>157</ele>
        <time>2010-05-14T12:06:45Z</time>
      </trkpt>
      <trkpt lat="48.63753" lon="1.71977">
        <ele>157</ele>
        <time>2010-05-14T12:06:46Z</time>
      </trkpt>
      <trkpt lat="48.63749" lon="1.71977">
        <ele>157</ele>
        <time>2010-05-14T12:06:47Z</time>
      </trkpt>
      <trkpt lat="48.63746" lon="1.71976">
        <ele>157</ele>
        <time>2010-05-14T12:06:48Z</time>
      </trkpt>
      <trkpt lat="48.63742" lon="1.71976">
        <ele>157</ele>
        <time>2010-05-14T12:06:49Z</time>
      </trkpt>
      <trkpt lat="48.63739" lon="1.71975">
        <ele>157</ele>
        <time>2010-05-14T12:06:50Z</time>
      </trkpt>
      <trkpt lat="48.63735" lon="1.71974">
        <ele>157</ele>
        <time>2010-05-14T12:06:51Z</time>
      </trkpt>
      <trkpt lat="48.63732" lon="1.71972">
        <ele>157</ele>
        <time>2010-05-14T12:06:52Z</time>
      </trkpt>
      <trkpt lat="48.63729" lon="1.71971">
        <ele>157</ele>
        <time>2010-05-14T12:06:53Z</time>
      </trkpt>
      <trkpt lat="48.63725" lon="1.7197">
        <ele>157</ele>
        <time>2010-05-14T12:06:54Z</time>
      </trkpt>
      <trkpt lat="48.63722" lon="1.71969">
        <ele>157</ele>
        <time>2010-05-14T12:06:55Z</time>
      </trkpt>
      <trkpt lat="48.63719" lon="1.71967">
        <ele>157</ele>
        <time>2010-05-14T12:06:56Z</time>
      </trkpt>
      <trkpt lat="48.63716" lon="1.71965">
        <ele>157</ele>
        <time>2010-05-14T12:06:57Z</time>
      </trkpt>
      <trkpt lat="48.63712" lon="1.71963">
        <ele>157</ele>
        <time>2010-05-14T12:06:58Z</time>
      </trkpt>
      <trkpt lat="48.63709" lon="1.71962">
        <ele>157</ele>
        <time>2010-05-14T12:06:59Z</time>
      </trkpt>
      <trkpt lat="48.63705" lon="1.7196">
        <ele>157</ele>
        <time>2010-05-14T12:07:00Z</time>
      </trkpt>
      <trkpt lat="48.63701" lon="1.71958">
        <ele>157</ele>
        <time>2010-05-14T12:07:01Z</time>
      </trkpt>
      <trkpt lat="48.63698" lon="1.71956">
        <ele>157</ele>
        <time>2010-05-14T12:07:02Z</time>
      </trkpt>
      <trkpt lat="48.63695" lon="1.71954">
        <ele>157</ele>
        <time>2010-05-14T12:07:03Z</time>
      </trkpt>
      <trkpt lat="48.63691" lon="1.71952">
        <ele>157</ele>
        <time>2010-05-14T12:07:04Z</time>
      </trkpt>
      <trkpt lat="48.63688" lon="1.71951">
        <ele>157</ele>
        <time>2010-05-14T12:07:05Z</time>
      </trkpt>
      <trkpt lat="48.63685" lon="1.71949">
        <ele>157</ele>
        <time>2010-05-14T12:07:06Z</time>
      </trkpt>
      <trkpt lat="48.63682" lon="1.71946">
        <ele>157</ele>
        <time>2010-05-14T12:07:07Z</time>
      </trkpt>
      <trkpt lat="48.63678" lon="1.71944">
        <ele>157</ele>
        <time>2010-05-14T12:07:08Z</time>
      </trkpt>
      <trkpt lat="48.63674" lon="1.71941">
        <ele>157</ele>
        <time>2010-05-14T12:07:09Z</time>
      </trkpt>
      <trkpt lat="48.63671" lon="1.71938">
        <ele>157</ele>
        <time>2010-05-14T12:07:10Z</time>
      </trkpt>
      <trkpt lat="48.63668" lon="1.71936">
        <ele>157</ele>
        <time>2010-05-14T12:07:11Z</time>
      </trkpt>
      <trkpt lat="48.63665" lon="1.71933">
        <ele>157</ele>
        <time>2010-05-14T12:07:12Z</time>
      </trkpt>
      <trkpt lat="48.63662" lon="1.7193">
        <ele>157</ele>
        <time>2010-05-14T12:07:13Z</time>
      </trkpt>
      <trkpt lat="48.63659" lon="1.71927">
        <ele>157</ele>
        <time>2010-05-14T12:07:14Z</time>
      </trkpt>
      <trkpt lat="48.63655" lon="1.71925">
        <ele>157</ele>
        <time>2010-05-14T12:07:15Z</time>
      </trkpt>
      <trkpt lat="48.63653" lon="1.71922">
        <ele>157</ele>
        <time>2010-05-14T12:07:16Z</time>
      </trkpt>
      <trkpt lat="48.6365" lon="1.71919">
        <ele>157</ele>
        <time>2010-05-14T12:07:17Z</time>
      </trkpt>
      <trkpt lat="48.63647" lon="1.71916">
        <ele>157</ele>
        <time>2010-05-14T12:07:18Z</time>
      </trkpt>
      <trkpt lat="48.63643" lon="1.71913">
        <ele>157</ele>
        <time>2010-05-14T12:07:19Z</time>
      </trkpt>
      <trkpt lat="48.6364" lon="1.71911">
        <ele>157</ele>
        <time>2010-05-14T12:07:20Z</time>
      </trkpt>
      <trkpt lat="48.63637" lon="1.71908">
        <ele>157</ele>
        <time>2010-05-14T12:07:21Z</time>
      </trkpt>
      <trkpt lat="48.63634" lon="1.71905">
        <ele>157</ele>
        <time>2010-05-14T12:07:22Z</time>
      </trkpt>
      <trkpt lat="48.63631" lon="1.71902">
        <ele>157</ele>
        <time>2010-05-14T12:07:23Z</time>
      </trkpt>
      <trkpt lat="48.63628" lon="1.71899">
        <ele>157</ele>
        <time>2010-05-14T12:07:24Z</time>
      </trkpt>
      <trkpt lat="48.63625" lon="1.71896">
        <ele>157</ele>
        <time>2010-05-14T12:07:25Z</time>
      </trkpt>
      <trkpt lat="48.63621" lon="1.71893">
        <ele>157</ele>
        <time>2010-05-14T12:07:26Z</time>
      </trkpt>
      <trkpt lat="48.63618" lon="1.71889">
        <ele>157</ele>
        <time>2010-05-14T12:07:27Z</time>
      </trkpt>
      <trkpt lat="48.63616" lon="1.71887">
        <ele>157</ele>
        <time>2010-05-14T12:07:28Z</time>
      </trkpt>
      <trkpt lat="48.63612" lon="1.71884">
        <ele>157</ele>
        <time>2010-05-14T12:07:29Z</time>
      </trkpt>
      <trkpt lat="48.63608" lon="1.7188">
        <ele>157</ele>
        <time>2010-05-14T12:07:30Z</time>
      </trkpt>
      <trkpt lat="48.63606" lon="1.71878">
        <ele>157</ele>
        <time>2010-05-14T12:07:31Z</time>
      </trkpt>
      <trkpt lat="48.63602" lon="1.71872">
        <ele>157</ele>
        <time>2010-05-14T12:07:32Z</time>
      </trkpt>
      <trkpt lat="48.63599" lon="1.7187">
        <ele>157</ele>
        <time>2010-05-14T12:07:33Z</time>
      </trkpt>
      <trkpt lat="48.63596" lon="1.71867">
        <ele>157</ele>
        <time>2010-05-14T12:07:34Z</time>
      </trkpt>
      <trkpt lat="48.63595" lon="1.71865">
        <ele>157</ele>
        <time>2010-05-14T12:07:35Z</time>
      </trkpt>
      <trkpt lat="48.63594" lon="1.71863">
        <ele>157</ele>
        <time>2010-05-14T12:07:36Z</time>
      </trkpt>
      <trkpt lat="48.63592" lon="1.71859">
        <ele>157</ele>
        <time>2010-05-14T12:07:37Z</time>
      </trkpt>
      <trkpt lat="48.63589" lon="1.71855">
        <ele>157</ele>
        <time>2010-05-14T12:07:38Z</time>
      </trkpt>
      <trkpt lat="48.63586" lon="1.71851">
        <ele>157</ele>
        <time>2010-05-14T12:07:39Z</time>
      </trkpt>
      <trkpt lat="48.63584" lon="1.71847">
        <ele>157</ele>
        <time>2010-05-14T12:07:40Z</time>
      </trkpt>
      <trkpt lat="48.63583" lon="1.71843">
        <ele>157</ele>
        <time>2010-05-14T12:07:41Z</time>
      </trkpt>
      <trkpt lat="48.63581" lon="1.71839">
        <ele>158</ele>
        <time>2010-05-14T12:07:42Z</time>
      </trkpt>
      <trkpt lat="48.6358" lon="1.71836">
        <ele>158</ele>
        <time>2010-05-14T12:07:43Z</time>
      </trkpt>
      <trkpt lat="48.63578" lon="1.71832">
        <ele>158</ele>
        <time>2010-05-14T12:07:44Z</time>
      </trkpt>
      <trkpt lat="48.63577" lon="1.71829">
        <ele>158</ele>
        <time>2010-05-14T12:07:45Z</time>
      </trkpt>
      <trkpt lat="48.63574" lon="1.71824">
        <ele>159</ele>
        <time>2010-05-14T12:07:46Z</time>
      </trkpt>
      <trkpt lat="48.63572" lon="1.7182">
        <ele>159</ele>
        <time>2010-05-14T12:07:47Z</time>
      </trkpt>
      <trkpt lat="48.6357" lon="1.71816">
        <ele>159</ele>
        <time>2010-05-14T12:07:48Z</time>
      </trkpt>
      <trkpt lat="48.63568" lon="1.71812">
        <ele>160</ele>
        <time>2010-05-14T12:07:49Z</time>
      </trkpt>
      <trkpt lat="48.63566" lon="1.71808">
        <ele>160</ele>
        <time>2010-05-14T12:07:50Z</time>
      </trkpt>
      <trkpt lat="48.63563" lon="1.71803">
        <ele>160</ele>
        <time>2010-05-14T12:07:51Z</time>
      </trkpt>
      <trkpt lat="48.6356" lon="1.71799">
        <ele>160</ele>
        <time>2010-05-14T12:07:52Z</time>
      </trkpt>
      <trkpt lat="48.63557" lon="1.71795">
        <ele>160</ele>
        <time>2010-05-14T12:07:53Z</time>
      </trkpt>
      <trkpt lat="48.63554" lon="1.71791">
        <ele>160</ele>
        <time>2010-05-14T12:07:54Z</time>
      </trkpt>
      <trkpt lat="48.63551" lon="1.71787">
        <ele>160</ele>
        <time>2010-05-14T12:07:55Z</time>
      </trkpt>
      <trkpt lat="48.63548" lon="1.71783">
        <ele>160</ele>
        <time>2010-05-14T12:07:56Z</time>
      </trkpt>
      <trkpt lat="48.63544" lon="1.71779">
        <ele>160</ele>
        <time>2010-05-14T12:07:57Z</time>
      </trkpt>
      <trkpt lat="48.63541" lon="1.71775">
        <ele>160</ele>
        <time>2010-05-14T12:07:58Z</time>
      </trkpt>
      <trkpt lat="48.63537" lon="1.71771">
        <ele>160</ele>
        <time>2010-05-14T12:07:59Z</time>
      </trkpt>
      <trkpt lat="48.63533" lon="1.71767">
        <ele>160</ele>
        <time>2010-05-14T12:08:00Z</time>
      </trkpt>
      <trkpt lat="48.63529" lon="1.71763">
        <ele>160</ele>
        <time>2010-05-14T12:08:01Z</time>
      </trkpt>
      <trkpt lat="48.63526" lon="1.71759">
        <ele>160</ele>
        <time>2010-05-14T12:08:02Z</time>
      </trkpt>
      <trkpt lat="48.63522" lon="1.71756">
        <ele>160</ele>
        <time>2010-05-14T12:08:03Z</time>
      </trkpt>
      <trkpt lat="48.63519" lon="1.71753">
        <ele>160</ele>
        <time>2010-05-14T12:08:04Z</time>
      </trkpt>
      <trkpt lat="48.63516" lon="1.71749">
        <ele>160</ele>
        <time>2010-05-14T12:08:05Z</time>
      </trkpt>
      <trkpt lat="48.63513" lon="1.71746">
        <ele>161</ele>
        <time>2010-05-14T12:08:06Z</time>
      </trkpt>
      <trkpt lat="48.63509" lon="1.71742">
        <ele>161</ele>
        <time>2010-05-14T12:08:07Z</time>
      </trkpt>
      <trkpt lat="48.63506" lon="1.71739">
        <ele>161</ele>
        <time>2010-05-14T12:08:08Z</time>
      </trkpt>
      <trkpt lat="48.63503" lon="1.71736">
        <ele>161</ele>
        <time>2010-05-14T12:08:09Z</time>
      </trkpt>
      <trkpt lat="48.63499" lon="1.71734">
        <ele>161</ele>
        <time>2010-05-14T12:08:10Z</time>
      </trkpt>
      <trkpt lat="48.63496" lon="1.7173">
        <ele>161</ele>
        <time>2010-05-14T12:08:11Z</time>
      </trkpt>
      <trkpt lat="48.63493" lon="1.71726">
        <ele>162</ele>
        <time>2010-05-14T12:08:12Z</time>
      </trkpt>
      <trkpt lat="48.6349" lon="1.71722">
        <ele>162</ele>
        <time>2010-05-14T12:08:13Z</time>
      </trkpt>
      <trkpt lat="48.63487" lon="1.71718">
        <ele>162</ele>
        <time>2010-05-14T12:08:14Z</time>
      </trkpt>
      <trkpt lat="48.63483" lon="1.71715">
        <ele>162</ele>
        <time>2010-05-14T12:08:15Z</time>
      </trkpt>
      <trkpt lat="48.6348" lon="1.71711">
        <ele>162</ele>
        <time>2010-05-14T12:08:16Z</time>
      </trkpt>
      <trkpt lat="48.63477" lon="1.71707">
        <ele>162</ele>
        <time>2010-05-14T12:08:17Z</time>
      </trkpt>
      <trkpt lat="48.63473" lon="1.71703">
        <ele>162</ele>
        <time>2010-05-14T12:08:18Z</time>
      </trkpt>
      <trkpt lat="48.6347" lon="1.71699">
        <ele>162</ele>
        <time>2010-05-14T12:08:19Z</time>
      </trkpt>
      <trkpt lat="48.63467" lon="1.71695">
        <ele>162</ele>
        <time>2010-05-14T12:08:20Z</time>
      </trkpt>
      <trkpt lat="48.63465" lon="1.71692">
        <ele>162</ele>
        <time>2010-05-14T12:08:21Z</time>
      </trkpt>
      <trkpt lat="48.63462" lon="1.7169">
        <ele>162</ele>
        <time>2010-05-14T12:08:22Z</time>
      </trkpt>
      <trkpt lat="48.6346" lon="1.71686">
        <ele>162</ele>
        <time>2010-05-14T12:08:23Z</time>
      </trkpt>
      <trkpt lat="48.63457" lon="1.71683">
        <ele>162</ele>
        <time>2010-05-14T12:08:24Z</time>
      </trkpt>
      <trkpt lat="48.63454" lon="1.71679">
        <ele>162</ele>
        <time>2010-05-14T12:08:25Z</time>
      </trkpt>
      <trkpt lat="48.6345" lon="1.71676">
        <ele>162</ele>
        <time>2010-05-14T12:08:26Z</time>
      </trkpt>
      <trkpt lat="48.63447" lon="1.71673">
        <ele>162</ele>
        <time>2010-05-14T12:08:27Z</time>
      </trkpt>
      <trkpt lat="48.63444" lon="1.7167">
        <ele>163</ele>
        <time>2010-05-14T12:08:28Z</time>
      </trkpt>
      <trkpt lat="48.63441" lon="1.71667">
        <ele>163</ele>
        <time>2010-05-14T12:08:29Z</time>
      </trkpt>
      <trkpt lat="48.63438" lon="1.71663">
        <ele>163</ele>
        <time>2010-05-14T12:08:30Z</time>
      </trkpt>
      <trkpt lat="48.63434" lon="1.7166">
        <ele>163</ele>
        <time>2010-05-14T12:08:31Z</time>
      </trkpt>
      <trkpt lat="48.63431" lon="1.71657">
        <ele>163</ele>
        <time>2010-05-14T12:08:32Z</time>
      </trkpt>
      <trkpt lat="48.63428" lon="1.71654">
        <ele>163</ele>
        <time>2010-05-14T12:08:33Z</time>
      </trkpt>
      <trkpt lat="48.63425" lon="1.71651">
        <ele>163</ele>
        <time>2010-05-14T12:08:34Z</time>
      </trkpt>
      <trkpt lat="48.63422" lon="1.71648">
        <ele>163</ele>
        <time>2010-05-14T12:08:35Z</time>
      </trkpt>
      <trkpt lat="48.63419" lon="1.71645">
        <ele>163</ele>
        <time>2010-05-14T12:08:36Z</time>
      </trkpt>
      <trkpt lat="48.63416" lon="1.71643">
        <ele>163</ele>
        <time>2010-05-14T12:08:37Z</time>
      </trkpt>
      <trkpt lat="48.63414" lon="1.7164">
        <ele>163</ele>
        <time>2010-05-14T12:08:38Z</time>
      </trkpt>
      <trkpt lat="48.63411" lon="1.71637">
        <ele>164</ele>
        <time>2010-05-14T12:08:39Z</time>
      </trkpt>
      <trkpt lat="48.63408" lon="1.71635">
        <ele>164</ele>
        <time>2010-05-14T12:08:40Z</time>
      </trkpt>
      <trkpt lat="48.63405" lon="1.71632">
        <ele>164</ele>
        <time>2010-05-14T12:08:41Z</time>
      </trkpt>
      <trkpt lat="48.63401" lon="1.7163">
        <ele>164</ele>
        <time>2010-05-14T12:08:42Z</time>
      </trkpt>
      <trkpt lat="48.63398" lon="1.71626">
        <ele>164</ele>
        <time>2010-05-14T12:08:43Z</time>
      </trkpt>
      <trkpt lat="48.63394" lon="1.71622">
        <ele>164</ele>
        <time>2010-05-14T12:08:44Z</time>
      </trkpt>
      <trkpt lat="48.6339" lon="1.71619">
        <ele>164</ele>
        <time>2010-05-14T12:08:45Z</time>
      </trkpt>
      <trkpt lat="48.63387" lon="1.71616">
        <ele>164</ele>
        <time>2010-05-14T12:08:46Z</time>
      </trkpt>
      <trkpt lat="48.63383" lon="1.71613">
        <ele>164</ele>
        <time>2010-05-14T12:08:47Z</time>
      </trkpt>
      <trkpt lat="48.6338" lon="1.7161">
        <ele>164</ele>
        <time>2010-05-14T12:08:48Z</time>
      </trkpt>
      <trkpt lat="48.63377" lon="1.71608">
        <ele>164</ele>
        <time>2010-05-14T12:08:49Z</time>
      </trkpt>
      <trkpt lat="48.63374" lon="1.71605">
        <ele>164</ele>
        <time>2010-05-14T12:08:50Z</time>
      </trkpt>
      <trkpt lat="48.63372" lon="1.71603">
        <ele>164</ele>
        <time>2010-05-14T12:08:51Z</time>
      </trkpt>
      <trkpt lat="48.63368" lon="1.716">
        <ele>164</ele>
        <time>2010-05-14T12:08:52Z</time>
      </trkpt>
      <trkpt lat="48.63365" lon="1.71598">
        <ele>164</ele>
        <time>2010-05-14T12:08:53Z</time>
      </trkpt>
      <trkpt lat="48.63362" lon="1.71595">
        <ele>164</ele>
        <time>2010-05-14T12:08:54Z</time>
      </trkpt>
      <trkpt lat="48.63359" lon="1.71593">
        <ele>164</ele>
        <time>2010-05-14T12:08:55Z</time>
      </trkpt>
      <trkpt lat="48.63355" lon="1.7159">
        <ele>164</ele>
        <time>2010-05-14T12:08:56Z</time>
      </trkpt>
      <trkpt lat="48.63352" lon="1.71588">
        <ele>164</ele>
        <time>2010-05-14T12:08:57Z</time>
      </trkpt>
      <trkpt lat="48.63349" lon="1.71585">
        <ele>164</ele>
        <time>2010-05-14T12:08:58Z</time>
      </trkpt>
      <trkpt lat="48.63346" lon="1.71581">
        <ele>164</ele>
        <time>2010-05-14T12:08:59Z</time>
      </trkpt>
      <trkpt lat="48.63342" lon="1.71577">
        <ele>164</ele>
        <time>2010-05-14T12:09:00Z</time>
      </trkpt>
      <trkpt lat="48.63338" lon="1.71573">
        <ele>164</ele>
        <time>2010-05-14T12:09:01Z</time>
      </trkpt>
      <trkpt lat="48.63335" lon="1.71571">
        <ele>164</ele>
        <time>2010-05-14T12:09:02Z</time>
      </trkpt>
      <trkpt lat="48.63333" lon="1.71568">
        <ele>164</ele>
        <time>2010-05-14T12:09:03Z</time>
      </trkpt>
      <trkpt lat="48.6333" lon="1.71566">
        <ele>164</ele>
        <time>2010-05-14T12:09:04Z</time>
      </trkpt>
      <trkpt lat="48.63329" lon="1.71564">
        <ele>164</ele>
        <time>2010-05-14T12:09:05Z</time>
      </trkpt>
      <trkpt lat="48.63327" lon="1.71561">
        <ele>164</ele>
        <time>2010-05-14T12:09:06Z</time>
      </trkpt>
      <trkpt lat="48.63326" lon="1.71558">
        <ele>164</ele>
        <time>2010-05-14T12:09:07Z</time>
      </trkpt>
      <trkpt lat="48.63326" lon="1.71556">
        <ele>164</ele>
        <time>2010-05-14T12:09:08Z</time>
      </trkpt>
      <trkpt lat="48.63326" lon="1.71554">
        <ele>164</ele>
        <time>2010-05-14T12:09:09Z</time>
      </trkpt>
      <trkpt lat="48.63326" lon="1.71552">
        <ele>164</ele>
        <time>2010-05-14T12:09:10Z</time>
      </trkpt>
      <trkpt lat="48.63326" lon="1.7155">
        <ele>164</ele>
        <time>2010-05-14T12:09:11Z</time>
      </trkpt>
      <trkpt lat="48.63326" lon="1.71548">
        <ele>164</ele>
        <time>2010-05-14T12:09:12Z</time>
      </trkpt>
      <trkpt lat="48.63326" lon="1.71546">
        <ele>164</ele>
        <time>2010-05-14T12:09:13Z</time>
      </trkpt>
      <trkpt lat="48.63328" lon="1.71543">
        <ele>164</ele>
        <time>2010-05-14T12:09:15Z</time>
      </trkpt>
      <trkpt lat="48.63328" lon="1.7154">
        <ele>164</ele>
        <time>2010-05-14T12:09:16Z</time>
      </trkpt>
      <trkpt lat="48.63329" lon="1.71538">
        <ele>164</ele>
        <time>2010-05-14T12:09:17Z</time>
      </trkpt>
      <trkpt lat="48.6333" lon="1.71536">
        <ele>164</ele>
        <time>2010-05-14T12:09:18Z</time>
      </trkpt>
      <trkpt lat="48.63331" lon="1.71535">
        <ele>164</ele>
        <time>2010-05-14T12:09:19Z</time>
      </trkpt>
      <trkpt lat="48.63331" lon="1.71533">
        <ele>164</ele>
        <time>2010-05-14T12:09:20Z</time>
      </trkpt>
      <trkpt lat="48.63332" lon="1.71531">
        <ele>164</ele>
        <time>2010-05-14T12:09:21Z</time>
      </trkpt>
      <trkpt lat="48.63333" lon="1.71529">
        <ele>164</ele>
        <time>2010-05-14T12:09:22Z</time>
      </trkpt>
      <trkpt lat="48.63334" lon="1.71527">
        <ele>164</ele>
        <time>2010-05-14T12:09:23Z</time>
      </trkpt>
      <trkpt lat="48.63335" lon="1.71525">
        <ele>164</ele>
        <time>2010-05-14T12:09:24Z</time>
      </trkpt>
      <trkpt lat="48.63336" lon="1.71523">
        <ele>164</ele>
        <time>2010-05-14T12:09:25Z</time>
      </trkpt>
      <trkpt lat="48.63337" lon="1.7152">
        <ele>164</ele>
        <time>2010-05-14T12:09:27Z</time>
      </trkpt>
      <trkpt lat="48.63339" lon="1.71517">
        <ele>164</ele>
        <time>2010-05-14T12:09:29Z</time>
      </trkpt>
      <trkpt lat="48.6334" lon="1.71515">
        <ele>164</ele>
        <time>2010-05-14T12:09:30Z</time>
      </trkpt>
      <trkpt lat="48.6334" lon="1.71513">
        <ele>164</ele>
        <time>2010-05-14T12:09:31Z</time>
      </trkpt>
      <trkpt lat="48.63341" lon="1.71511">
        <ele>164</ele>
        <time>2010-05-14T12:09:32Z</time>
      </trkpt>
      <trkpt lat="48.63342" lon="1.71509">
        <ele>164</ele>
        <time>2010-05-14T12:09:33Z</time>
      </trkpt>
      <trkpt lat="48.63343" lon="1.71507">
        <ele>164</ele>
        <time>2010-05-14T12:09:34Z</time>
      </trkpt>
      <trkpt lat="48.63344" lon="1.71506">
        <ele>164</ele>
        <time>2010-05-14T12:09:35Z</time>
      </trkpt>
      <trkpt lat="48.63344" lon="1.71504">
        <ele>164</ele>
        <time>2010-05-14T12:09:36Z</time>
      </trkpt>
      <trkpt lat="48.63345" lon="1.71502">
        <ele>164</ele>
        <time>2010-05-14T12:09:37Z</time>
      </trkpt>
      <trkpt lat="48.63346" lon="1.715">
        <ele>164</ele>
        <time>2010-05-14T12:09:38Z</time>
      </trkpt>
      <trkpt lat="48.63347" lon="1.71497">
        <ele>164</ele>
        <time>2010-05-14T12:09:40Z</time>
      </trkpt>
      <trkpt lat="48.63348" lon="1.71495">
        <ele>164</ele>
        <time>2010-05-14T12:09:41Z</time>
      </trkpt>
      <trkpt lat="48.63349" lon="1.71494">
        <ele>164</ele>
        <time>2010-05-14T12:09:42Z</time>
      </trkpt>
      <trkpt lat="48.6335" lon="1.71492">
        <ele>164</ele>
        <time>2010-05-14T12:09:43Z</time>
      </trkpt>
      <trkpt lat="48.63351" lon="1.71489">
        <ele>164</ele>
        <time>2010-05-14T12:09:45Z</time>
      </trkpt>
      <trkpt lat="48.63352" lon="1.71486">
        <ele>164</ele>
        <time>2010-05-14T12:09:47Z</time>
      </trkpt>
      <trkpt lat="48.63353" lon="1.71484">
        <ele>164</ele>
        <time>2010-05-14T12:09:48Z</time>
      </trkpt>
      <trkpt lat="48.63354" lon="1.71482">
        <ele>164</ele>
        <time>2010-05-14T12:09:49Z</time>
      </trkpt>
      <trkpt lat="48.63355" lon="1.71481">
        <ele>164</ele>
        <time>2010-05-14T12:09:50Z</time>
      </trkpt>
      <trkpt lat="48.63356" lon="1.71479">
        <ele>164</ele>
        <time>2010-05-14T12:09:51Z</time>
      </trkpt>
      <trkpt lat="48.63357" lon="1.71477">
        <ele>164</ele>
        <time>2010-05-14T12:09:52Z</time>
      </trkpt>
      <trkpt lat="48.63358" lon="1.71475">
        <ele>164</ele>
        <time>2010-05-14T12:09:53Z</time>
      </trkpt>
      <trkpt lat="48.63359" lon="1.71473">
        <ele>164</ele>
        <time>2010-05-14T12:09:54Z</time>
      </trkpt>
      <trkpt lat="48.63359" lon="1.71472">
        <ele>164</ele>
        <time>2010-05-14T12:09:55Z</time>
      </trkpt>
      <trkpt lat="48.6336" lon="1.7147">
        <ele>164</ele>
        <time>2010-05-14T12:09:56Z</time>
      </trkpt>
      <trkpt lat="48.63361" lon="1.71468">
        <ele>164</ele>
        <time>2010-05-14T12:09:57Z</time>
      </trkpt>
      <trkpt lat="48.63362" lon="1.71465">
        <ele>164</ele>
        <time>2010-05-14T12:09:59Z</time>
      </trkpt>
      <trkpt lat="48.63362" lon="1.71463">
        <ele>164</ele>
        <time>2010-05-14T12:10:00Z</time>
      </trkpt>
      <trkpt lat="48.63363" lon="1.71461">
        <ele>164</ele>
        <time>2010-05-14T12:10:02Z</time>
      </trkpt>
      <trkpt lat="48.63364" lon="1.71459">
        <ele>164</ele>
        <time>2010-05-14T12:10:03Z</time>
      </trkpt>
      <trkpt lat="48.63366" lon="1.71456">
        <ele>164</ele>
        <time>2010-05-14T12:10:05Z</time>
      </trkpt>
      <trkpt lat="48.63367" lon="1.71454">
        <ele>164</ele>
        <time>2010-05-14T12:10:06Z</time>
      </trkpt>
      <trkpt lat="48.63367" lon="1.71453">
        <ele>164</ele>
        <time>2010-05-14T12:10:07Z</time>
      </trkpt>
      <trkpt lat="48.63368" lon="1.71451">
        <ele>164</ele>
        <time>2010-05-14T12:10:08Z</time>
      </trkpt>
      <trkpt lat="48.63369" lon="1.71447">
        <ele>164</ele>
        <time>2010-05-14T12:10:10Z</time>
      </trkpt>
      <trkpt lat="48.6337" lon="1.71446">
        <ele>164</ele>
        <time>2010-05-14T12:10:11Z</time>
      </trkpt>
      <trkpt lat="48.63372" lon="1.71443">
        <ele>164</ele>
        <time>2010-05-14T12:10:13Z</time>
      </trkpt>
      <trkpt lat="48.63373" lon="1.7144">
        <ele>164</ele>
        <time>2010-05-14T12:10:15Z</time>
      </trkpt>
      <trkpt lat="48.63375" lon="1.71437">
        <ele>164</ele>
        <time>2010-05-14T12:10:17Z</time>
      </trkpt>
      <trkpt lat="48.63376" lon="1.71435">
        <ele>164</ele>
        <time>2010-05-14T12:10:18Z</time>
      </trkpt>
      <trkpt lat="48.63376" lon="1.71434">
        <ele>164</ele>
        <time>2010-05-14T12:10:19Z</time>
      </trkpt>
      <trkpt lat="48.63378" lon="1.7143">
        <ele>164</ele>
        <time>2010-05-14T12:10:21Z</time>
      </trkpt>
      <trkpt lat="48.63379" lon="1.71428">
        <ele>164</ele>
        <time>2010-05-14T12:10:22Z</time>
      </trkpt>
      <trkpt lat="48.63379" lon="1.71427">
        <ele>164</ele>
        <time>2010-05-14T12:10:23Z</time>
      </trkpt>
      <trkpt lat="48.6338" lon="1.71425">
        <ele>164</ele>
        <time>2010-05-14T12:10:24Z</time>
      </trkpt>
      <trkpt lat="48.6338" lon="1.71423">
        <ele>164</ele>
        <time>2010-05-14T12:10:25Z</time>
      </trkpt>
      <trkpt lat="48.63381" lon="1.71421">
        <ele>164</ele>
        <time>2010-05-14T12:10:26Z</time>
      </trkpt>
      <trkpt lat="48.63382" lon="1.7142">
        <ele>164</ele>
        <time>2010-05-14T12:10:27Z</time>
      </trkpt>
      <trkpt lat="48.63383" lon="1.71416">
        <ele>164</ele>
        <time>2010-05-14T12:10:29Z</time>
      </trkpt>
      <trkpt lat="48.63384" lon="1.71414">
        <ele>164</ele>
        <time>2010-05-14T12:10:30Z</time>
      </trkpt>
      <trkpt lat="48.63385" lon="1.71411">
        <ele>164</ele>
        <time>2010-05-14T12:10:32Z</time>
      </trkpt>
      <trkpt lat="48.63386" lon="1.71408">
        <ele>164</ele>
        <time>2010-05-14T12:10:34Z</time>
      </trkpt>
      <trkpt lat="48.63387" lon="1.71406">
        <ele>164</ele>
        <time>2010-05-14T12:10:35Z</time>
      </trkpt>
      <trkpt lat="48.63388" lon="1.71403">
        <ele>164</ele>
        <time>2010-05-14T12:10:37Z</time>
      </trkpt>
      <trkpt lat="48.63389" lon="1.71401">
        <ele>164</ele>
        <time>2010-05-14T12:10:38Z</time>
      </trkpt>
      <trkpt lat="48.6339" lon="1.71399">
        <ele>164</ele>
        <time>2010-05-14T12:10:39Z</time>
      </trkpt>
      <trkpt lat="48.63391" lon="1.71396">
        <ele>164</ele>
        <time>2010-05-14T12:10:41Z</time>
      </trkpt>
      <trkpt lat="48.63392" lon="1.71393">
        <ele>164</ele>
        <time>2010-05-14T12:10:43Z</time>
      </trkpt>
      <trkpt lat="48.63393" lon="1.7139">
        <ele>164</ele>
        <time>2010-05-14T12:10:45Z</time>
      </trkpt>
      <trkpt lat="48.63394" lon="1.71387">
        <ele>164</ele>
        <time>2010-05-14T12:10:47Z</time>
      </trkpt>
      <trkpt lat="48.63395" lon="1.71385">
        <ele>164</ele>
        <time>2010-05-14T12:10:48Z</time>
      </trkpt>
      <trkpt lat="48.63395" lon="1.71384">
        <ele>164</ele>
        <time>2010-05-14T12:10:49Z</time>
      </trkpt>
      <trkpt lat="48.63396" lon="1.7138">
        <ele>164</ele>
        <time>2010-05-14T12:10:51Z</time>
      </trkpt>
      <trkpt lat="48.63397" lon="1.71378">
        <ele>164</ele>
        <time>2010-05-14T12:10:52Z</time>
      </trkpt>
      <trkpt lat="48.63398" lon="1.71375">
        <ele>164</ele>
        <time>2010-05-14T12:10:54Z</time>
      </trkpt>
      <trkpt lat="48.63399" lon="1.71373">
        <ele>164</ele>
        <time>2010-05-14T12:10:55Z</time>
      </trkpt>
      <trkpt lat="48.634" lon="1.71371">
        <ele>163</ele>
        <time>2010-05-14T12:10:56Z</time>
      </trkpt>
      <trkpt lat="48.63401" lon="1.71369">
        <ele>163</ele>
        <time>2010-05-14T12:10:57Z</time>
      </trkpt>
      <trkpt lat="48.63403" lon="1.71367">
        <ele>162</ele>
        <time>2010-05-14T12:10:59Z</time>
      </trkpt>
      <trkpt lat="48.63404" lon="1.71365">
        <ele>161</ele>
        <time>2010-05-14T12:11:00Z</time>
      </trkpt>
      <trkpt lat="48.63404" lon="1.71363">
        <ele>161</ele>
        <time>2010-05-14T12:11:01Z</time>
      </trkpt>
      <trkpt lat="48.63405" lon="1.71361">
        <ele>161</ele>
        <time>2010-05-14T12:11:02Z</time>
      </trkpt>
      <trkpt lat="48.63406" lon="1.71359">
        <ele>160</ele>
        <time>2010-05-14T12:11:04Z</time>
      </trkpt>
      <trkpt lat="48.63407" lon="1.71357">
        <ele>160</ele>
        <time>2010-05-14T12:11:05Z</time>
      </trkpt>
      <trkpt lat="48.63408" lon="1.71355">
        <ele>160</ele>
        <time>2010-05-14T12:11:06Z</time>
      </trkpt>
      <trkpt lat="48.63409" lon="1.71353">
        <ele>160</ele>
        <time>2010-05-14T12:11:07Z</time>
      </trkpt>
      <trkpt lat="48.6341" lon="1.7135">
        <ele>160</ele>
        <time>2010-05-14T12:11:08Z</time>
      </trkpt>
      <trkpt lat="48.63411" lon="1.71348">
        <ele>160</ele>
        <time>2010-05-14T12:11:09Z</time>
      </trkpt>
      <trkpt lat="48.63412" lon="1.71346">
        <ele>160</ele>
        <time>2010-05-14T12:11:10Z</time>
      </trkpt>
      <trkpt lat="48.63413" lon="1.71344">
        <ele>160</ele>
        <time>2010-05-14T12:11:11Z</time>
      </trkpt>
      <trkpt lat="48.63415" lon="1.71341">
        <ele>160</ele>
        <time>2010-05-14T12:11:13Z</time>
      </trkpt>
      <trkpt lat="48.63416" lon="1.71338">
        <ele>160</ele>
        <time>2010-05-14T12:11:15Z</time>
      </trkpt>
      <trkpt lat="48.63416" lon="1.71336">
        <ele>160</ele>
        <time>2010-05-14T12:11:16Z</time>
      </trkpt>
      <trkpt lat="48.63417" lon="1.71333">
        <ele>160</ele>
        <time>2010-05-14T12:11:18Z</time>
      </trkpt>
      <trkpt lat="48.63419" lon="1.7133">
        <ele>160</ele>
        <time>2010-05-14T12:11:20Z</time>
      </trkpt>
      <trkpt lat="48.63421" lon="1.71328">
        <ele>160</ele>
        <time>2010-05-14T12:11:21Z</time>
      </trkpt>
      <trkpt lat="48.63422" lon="1.71326">
        <ele>160</ele>
        <time>2010-05-14T12:11:22Z</time>
      </trkpt>
      <trkpt lat="48.63422" lon="1.71324">
        <ele>160</ele>
        <time>2010-05-14T12:11:23Z</time>
      </trkpt>
      <trkpt lat="48.63423" lon="1.71322">
        <ele>160</ele>
        <time>2010-05-14T12:11:25Z</time>
      </trkpt>
      <trkpt lat="48.63423" lon="1.7132">
        <ele>160</ele>
        <time>2010-05-14T12:11:26Z</time>
      </trkpt>
      <trkpt lat="48.63424" lon="1.71319">
        <ele>160</ele>
        <time>2010-05-14T12:11:27Z</time>
      </trkpt>
      <trkpt lat="48.63425" lon="1.71317">
        <ele>159</ele>
        <time>2010-05-14T12:11:28Z</time>
      </trkpt>
      <trkpt lat="48.63425" lon="1.71314">
        <ele>159</ele>
        <time>2010-05-14T12:11:29Z</time>
      </trkpt>
      <trkpt lat="48.63427" lon="1.71312">
        <ele>159</ele>
        <time>2010-05-14T12:11:31Z</time>
      </trkpt>
      <trkpt lat="48.63428" lon="1.7131">
        <ele>159</ele>
        <time>2010-05-14T12:11:32Z</time>
      </trkpt>
      <trkpt lat="48.63428" lon="1.71308">
        <ele>159</ele>
        <time>2010-05-14T12:11:33Z</time>
      </trkpt>
      <trkpt lat="48.63428" lon="1.71306">
        <ele>159</ele>
        <time>2010-05-14T12:11:34Z</time>
      </trkpt>
      <trkpt lat="48.63429" lon="1.71304">
        <ele>159</ele>
        <time>2010-05-14T12:11:35Z</time>
      </trkpt>
      <trkpt lat="48.6343" lon="1.71301">
        <ele>159</ele>
        <time>2010-05-14T12:11:36Z</time>
      </trkpt>
      <trkpt lat="48.63431" lon="1.71299">
        <ele>159</ele>
        <time>2010-05-14T12:11:37Z</time>
      </trkpt>
      <trkpt lat="48.63432" lon="1.71297">
        <ele>159</ele>
        <time>2010-05-14T12:11:38Z</time>
      </trkpt>
      <trkpt lat="48.63432" lon="1.71294">
        <ele>159</ele>
        <time>2010-05-14T12:11:39Z</time>
      </trkpt>
      <trkpt lat="48.63434" lon="1.71292">
        <ele>159</ele>
        <time>2010-05-14T12:11:40Z</time>
      </trkpt>
      <trkpt lat="48.63436" lon="1.7129">
        <ele>159</ele>
        <time>2010-05-14T12:11:41Z</time>
      </trkpt>
      <trkpt lat="48.63437" lon="1.71287">
        <ele>159</ele>
        <time>2010-05-14T12:11:42Z</time>
      </trkpt>
      <trkpt lat="48.63437" lon="1.71283">
        <ele>159</ele>
        <time>2010-05-14T12:11:43Z</time>
      </trkpt>
      <trkpt lat="48.63439" lon="1.71279">
        <ele>159</ele>
        <time>2010-05-14T12:11:44Z</time>
      </trkpt>
      <trkpt lat="48.63442" lon="1.71274">
        <ele>159</ele>
        <time>2010-05-14T12:11:45Z</time>
      </trkpt>
      <trkpt lat="48.63445" lon="1.71269">
        <ele>159</ele>
        <time>2010-05-14T12:11:46Z</time>
      </trkpt>
      <trkpt lat="48.63447" lon="1.71264">
        <ele>159</ele>
        <time>2010-05-14T12:11:47Z</time>
      </trkpt>
      <trkpt lat="48.6345" lon="1.71259">
        <ele>159</ele>
        <time>2010-05-14T12:11:48Z</time>
      </trkpt>
      <trkpt lat="48.63452" lon="1.71253">
        <ele>159</ele>
        <time>2010-05-14T12:11:49Z</time>
      </trkpt>
      <trkpt lat="48.63455" lon="1.71248">
        <ele>159</ele>
        <time>2010-05-14T12:11:50Z</time>
      </trkpt>
      <trkpt lat="48.63458" lon="1.71242">
        <ele>159</ele>
        <time>2010-05-14T12:11:51Z</time>
      </trkpt>
      <trkpt lat="48.6346" lon="1.71237">
        <ele>159</ele>
        <time>2010-05-14T12:11:52Z</time>
      </trkpt>
      <trkpt lat="48.63462" lon="1.71232">
        <ele>159</ele>
        <time>2010-05-14T12:11:53Z</time>
      </trkpt>
      <trkpt lat="48.63464" lon="1.71226">
        <ele>159</ele>
        <time>2010-05-14T12:11:54Z</time>
      </trkpt>
      <trkpt lat="48.63465" lon="1.71221">
        <ele>159</ele>
        <time>2010-05-14T12:11:55Z</time>
      </trkpt>
      <trkpt lat="48.63466" lon="1.71216">
        <ele>159</ele>
        <time>2010-05-14T12:11:56Z</time>
      </trkpt>
      <trkpt lat="48.63468" lon="1.7121">
        <ele>159</ele>
        <time>2010-05-14T12:11:57Z</time>
      </trkpt>
      <trkpt lat="48.63472" lon="1.71204">
        <ele>159</ele>
        <time>2010-05-14T12:11:58Z</time>
      </trkpt>
      <trkpt lat="48.63476" lon="1.71199">
        <ele>159</ele>
        <time>2010-05-14T12:11:59Z</time>
      </trkpt>
      <trkpt lat="48.63479" lon="1.71193">
        <ele>159</ele>
        <time>2010-05-14T12:12:00Z</time>
      </trkpt>
      <trkpt lat="48.63482" lon="1.71187">
        <ele>159</ele>
        <time>2010-05-14T12:12:01Z</time>
      </trkpt>
      <trkpt lat="48.63485" lon="1.71181">
        <ele>159</ele>
        <time>2010-05-14T12:12:02Z</time>
      </trkpt>
      <trkpt lat="48.63488" lon="1.71176">
        <ele>159</ele>
        <time>2010-05-14T12:12:03Z</time>
      </trkpt>
      <trkpt lat="48.6349" lon="1.71171">
        <ele>159</ele>
        <time>2010-05-14T12:12:04Z</time>
      </trkpt>
      <trkpt lat="48.63493" lon="1.71166">
        <ele>159</ele>
        <time>2010-05-14T12:12:05Z</time>
      </trkpt>
      <trkpt lat="48.63495" lon="1.71161">
        <ele>159</ele>
        <time>2010-05-14T12:12:06Z</time>
      </trkpt>
      <trkpt lat="48.63497" lon="1.71156">
        <ele>159</ele>
        <time>2010-05-14T12:12:07Z</time>
      </trkpt>
      <trkpt lat="48.63499" lon="1.7115">
        <ele>159</ele>
        <time>2010-05-14T12:12:08Z</time>
      </trkpt>
      <trkpt lat="48.63502" lon="1.71144">
        <ele>159</ele>
        <time>2010-05-14T12:12:09Z</time>
      </trkpt>
      <trkpt lat="48.63505" lon="1.71137">
        <ele>159</ele>
        <time>2010-05-14T12:12:10Z</time>
      </trkpt>
      <trkpt lat="48.63507" lon="1.71131">
        <ele>159</ele>
        <time>2010-05-14T12:12:11Z</time>
      </trkpt>
      <trkpt lat="48.63509" lon="1.71126">
        <ele>159</ele>
        <time>2010-05-14T12:12:12Z</time>
      </trkpt>
      <trkpt lat="48.63511" lon="1.7112">
        <ele>159</ele>
        <time>2010-05-14T12:12:13Z</time>
      </trkpt>
      <trkpt lat="48.63513" lon="1.71114">
        <ele>159</ele>
        <time>2010-05-14T12:12:14Z</time>
      </trkpt>
      <trkpt lat="48.63516" lon="1.71109">
        <ele>159</ele>
        <time>2010-05-14T12:12:15Z</time>
      </trkpt>
      <trkpt lat="48.63518" lon="1.71104">
        <ele>159</ele>
        <time>2010-05-14T12:12:16Z</time>
      </trkpt>
      <trkpt lat="48.6352" lon="1.71099">
        <ele>159</ele>
        <time>2010-05-14T12:12:17Z</time>
      </trkpt>
      <trkpt lat="48.63521" lon="1.71093">
        <ele>159</ele>
        <time>2010-05-14T12:12:18Z</time>
      </trkpt>
      <trkpt lat="48.63523" lon="1.71088">
        <ele>159</ele>
        <time>2010-05-14T12:12:19Z</time>
      </trkpt>
      <trkpt lat="48.63524" lon="1.71083">
        <ele>159</ele>
        <time>2010-05-14T12:12:20Z</time>
      </trkpt>
      <trkpt lat="48.63528" lon="1.71078">
        <ele>159</ele>
        <time>2010-05-14T12:12:21Z</time>
      </trkpt>
      <trkpt lat="48.63531" lon="1.71072">
        <ele>159</ele>
        <time>2010-05-14T12:12:22Z</time>
      </trkpt>
      <trkpt lat="48.63535" lon="1.71066">
        <ele>159</ele>
        <time>2010-05-14T12:12:23Z</time>
      </trkpt>
      <trkpt lat="48.63539" lon="1.7106">
        <ele>159</ele>
        <time>2010-05-14T12:12:24Z</time>
      </trkpt>
      <trkpt lat="48.63541" lon="1.71055">
        <ele>160</ele>
        <time>2010-05-14T12:12:25Z</time>
      </trkpt>
      <trkpt lat="48.63544" lon="1.71051">
        <ele>160</ele>
        <time>2010-05-14T12:12:26Z</time>
      </trkpt>
      <trkpt lat="48.63546" lon="1.71045">
        <ele>160</ele>
        <time>2010-05-14T12:12:27Z</time>
      </trkpt>
      <trkpt lat="48.63548" lon="1.71041">
        <ele>160</ele>
        <time>2010-05-14T12:12:28Z</time>
      </trkpt>
      <trkpt lat="48.63551" lon="1.71037">
        <ele>160</ele>
        <time>2010-05-14T12:12:29Z</time>
      </trkpt>
      <trkpt lat="48.63553" lon="1.71032">
        <ele>160</ele>
        <time>2010-05-14T12:12:30Z</time>
      </trkpt>
      <trkpt lat="48.63555" lon="1.71028">
        <ele>160</ele>
        <time>2010-05-14T12:12:31Z</time>
      </trkpt>
      <trkpt lat="48.63558" lon="1.71024">
        <ele>160</ele>
        <time>2010-05-14T12:12:32Z</time>
      </trkpt>
      <trkpt lat="48.63561" lon="1.71018">
        <ele>161</ele>
        <time>2010-05-14T12:12:33Z</time>
      </trkpt>
      <trkpt lat="48.63561" lon="1.71014">
        <ele>162</ele>
        <time>2010-05-14T12:12:34Z</time>
      </trkpt>
      <trkpt lat="48.63562" lon="1.71009">
        <ele>162</ele>
        <time>2010-05-14T12:12:35Z</time>
      </trkpt>
      <trkpt lat="48.63565" lon="1.71005">
        <ele>163</ele>
        <time>2010-05-14T12:12:36Z</time>
      </trkpt>
      <trkpt lat="48.63569" lon="1.70999">
        <ele>164</ele>
        <time>2010-05-14T12:12:37Z</time>
      </trkpt>
      <trkpt lat="48.63572" lon="1.70993">
        <ele>165</ele>
        <time>2010-05-14T12:12:38Z</time>
      </trkpt>
      <trkpt lat="48.63574" lon="1.70986">
        <ele>166</ele>
        <time>2010-05-14T12:12:39Z</time>
      </trkpt>
      <trkpt lat="48.63576" lon="1.70982">
        <ele>167</ele>
        <time>2010-05-14T12:12:40Z</time>
      </trkpt>
      <trkpt lat="48.63578" lon="1.70979">
        <ele>168</ele>
        <time>2010-05-14T12:12:41Z</time>
      </trkpt>
      <trkpt lat="48.63579" lon="1.70977">
        <ele>169</ele>
        <time>2010-05-14T12:12:42Z</time>
      </trkpt>
      <trkpt lat="48.6358" lon="1.70974">
        <ele>170</ele>
        <time>2010-05-14T12:12:43Z</time>
      </trkpt>
      <trkpt lat="48.63583" lon="1.70971">
        <ele>171</ele>
        <time>2010-05-14T12:12:44Z</time>
      </trkpt>
      <trkpt lat="48.63586" lon="1.70964">
        <ele>172</ele>
        <time>2010-05-14T12:12:45Z</time>
      </trkpt>
      <trkpt lat="48.63587" lon="1.70961">
        <ele>173</ele>
        <time>2010-05-14T12:12:46Z</time>
      </trkpt>
      <trkpt lat="48.63588" lon="1.70957">
        <ele>173</ele>
        <time>2010-05-14T12:12:47Z</time>
      </trkpt>
      <trkpt lat="48.6359" lon="1.70953">
        <ele>173</ele>
        <time>2010-05-14T12:12:48Z</time>
      </trkpt>
      <trkpt lat="48.63592" lon="1.70949">
        <ele>174</ele>
        <time>2010-05-14T12:12:49Z</time>
      </trkpt>
      <trkpt lat="48.63595" lon="1.70945">
        <ele>175</ele>
        <time>2010-05-14T12:12:50Z</time>
      </trkpt>
      <trkpt lat="48.63597" lon="1.70944">
        <ele>176</ele>
        <time>2010-05-14T12:12:51Z</time>
      </trkpt>
      <trkpt lat="48.63601" lon="1.70942">
        <ele>177</ele>
        <time>2010-05-14T12:12:52Z</time>
      </trkpt>
      <trkpt lat="48.63603" lon="1.70939">
        <ele>178</ele>
        <time>2010-05-14T12:12:53Z</time>
      </trkpt>
      <trkpt lat="48.63605" lon="1.70936">
        <ele>179</ele>
        <time>2010-05-14T12:12:54Z</time>
      </trkpt>
      <trkpt lat="48.63606" lon="1.70933">
        <ele>180</ele>
        <time>2010-05-14T12:12:55Z</time>
      </trkpt>
      <trkpt lat="48.63614" lon="1.70927">
        <ele>181</ele>
        <time>2010-05-14T12:12:58Z</time>
      </trkpt>
      <trkpt lat="48.63614" lon="1.7092">
        <ele>182</ele>
        <time>2010-05-14T12:12:59Z</time>
      </trkpt>
      <trkpt lat="48.63613" lon="1.70914">
        <ele>183</ele>
        <time>2010-05-14T12:13:00Z</time>
      </trkpt>
      <trkpt lat="48.63616" lon="1.70908">
        <ele>184</ele>
        <time>2010-05-14T12:13:01Z</time>
      </trkpt>
      <trkpt lat="48.63617" lon="1.70903">
        <ele>186</ele>
        <time>2010-05-14T12:13:02Z</time>
      </trkpt>
      <trkpt lat="48.63619" lon="1.70899">
        <ele>187</ele>
        <time>2010-05-14T12:13:03Z</time>
      </trkpt>
      <trkpt lat="48.63621" lon="1.70894">
        <ele>188</ele>
        <time>2010-05-14T12:13:04Z</time>
      </trkpt>
      <trkpt lat="48.63621" lon="1.7089">
        <ele>189</ele>
        <time>2010-05-14T12:13:05Z</time>
      </trkpt>
      <trkpt lat="48.63622" lon="1.70887">
        <ele>190</ele>
        <time>2010-05-14T12:13:06Z</time>
      </trkpt>
      <trkpt lat="48.63623" lon="1.70883">
        <ele>191</ele>
        <time>2010-05-14T12:13:07Z</time>
      </trkpt>
      <trkpt lat="48.63624" lon="1.70879">
        <ele>192</ele>
        <time>2010-05-14T12:13:08Z</time>
      </trkpt>
      <trkpt lat="48.63625" lon="1.70875">
        <ele>193</ele>
        <time>2010-05-14T12:13:09Z</time>
      </trkpt>
      <trkpt lat="48.63626" lon="1.70871">
        <ele>193</ele>
        <time>2010-05-14T12:13:10Z</time>
      </trkpt>
      <trkpt lat="48.63628" lon="1.70867">
        <ele>193</ele>
        <time>2010-05-14T12:13:11Z</time>
      </trkpt>
      <trkpt lat="48.6363" lon="1.70863">
        <ele>193</ele>
        <time>2010-05-14T12:13:12Z</time>
      </trkpt>
      <trkpt lat="48.63631" lon="1.7086">
        <ele>193</ele>
        <time>2010-05-14T12:13:13Z</time>
      </trkpt>
      <trkpt lat="48.63632" lon="1.70856">
        <ele>193</ele>
        <time>2010-05-14T12:13:14Z</time>
      </trkpt>
      <trkpt lat="48.63633" lon="1.70854">
        <ele>193</ele>
        <time>2010-05-14T12:13:15Z</time>
      </trkpt>
      <trkpt lat="48.63635" lon="1.70851">
        <ele>193</ele>
        <time>2010-05-14T12:13:16Z</time>
      </trkpt>
      <trkpt lat="48.63637" lon="1.70849">
        <ele>192</ele>
        <time>2010-05-14T12:13:17Z</time>
      </trkpt>
      <trkpt lat="48.63639" lon="1.70847">
        <ele>191</ele>
        <time>2010-05-14T12:13:18Z</time>
      </trkpt>
      <trkpt lat="48.63641" lon="1.70845">
        <ele>190</ele>
        <time>2010-05-14T12:13:19Z</time>
      </trkpt>
      <trkpt lat="48.63644" lon="1.70843">
        <ele>190</ele>
        <time>2010-05-14T12:13:20Z</time>
      </trkpt>
      <trkpt lat="48.63646" lon="1.7084">
        <ele>189</ele>
        <time>2010-05-14T12:13:21Z</time>
      </trkpt>
      <trkpt lat="48.63649" lon="1.70836">
        <ele>188</ele>
        <time>2010-05-14T12:13:22Z</time>
      </trkpt>
      <trkpt lat="48.6365" lon="1.70833">
        <ele>187</ele>
        <time>2010-05-14T12:13:23Z</time>
      </trkpt>
      <trkpt lat="48.63652" lon="1.7083">
        <ele>186</ele>
        <time>2010-05-14T12:13:24Z</time>
      </trkpt>
      <trkpt lat="48.63653" lon="1.70826">
        <ele>185</ele>
        <time>2010-05-14T12:13:25Z</time>
      </trkpt>
      <trkpt lat="48.63654" lon="1.70823">
        <ele>184</ele>
        <time>2010-05-14T12:13:26Z</time>
      </trkpt>
      <trkpt lat="48.63654" lon="1.7082">
        <ele>183</ele>
        <time>2010-05-14T12:13:27Z</time>
      </trkpt>
      <trkpt lat="48.63655" lon="1.70815">
        <ele>182</ele>
        <time>2010-05-14T12:13:28Z</time>
      </trkpt>
      <trkpt lat="48.63657" lon="1.7081">
        <ele>181</ele>
        <time>2010-05-14T12:13:29Z</time>
      </trkpt>
      <trkpt lat="48.63657" lon="1.70805">
        <ele>180</ele>
        <time>2010-05-14T12:13:30Z</time>
      </trkpt>
      <trkpt lat="48.63659" lon="1.70801">
        <ele>179</ele>
        <time>2010-05-14T12:13:31Z</time>
      </trkpt>
      <trkpt lat="48.6366" lon="1.70796">
        <ele>178</ele>
        <time>2010-05-14T12:13:32Z</time>
      </trkpt>
      <trkpt lat="48.63661" lon="1.70793">
        <ele>177</ele>
        <time>2010-05-14T12:13:33Z</time>
      </trkpt>
      <trkpt lat="48.63662" lon="1.7079">
        <ele>176</ele>
        <time>2010-05-14T12:13:34Z</time>
      </trkpt>
      <trkpt lat="48.63663" lon="1.70787">
        <ele>174</ele>
        <time>2010-05-14T12:13:35Z</time>
      </trkpt>
      <trkpt lat="48.63664" lon="1.70783">
        <ele>173</ele>
        <time>2010-05-14T12:13:36Z</time>
      </trkpt>
      <trkpt lat="48.63666" lon="1.7078">
        <ele>171</ele>
        <time>2010-05-14T12:13:37Z</time>
      </trkpt>
      <trkpt lat="48.63668" lon="1.70776">
        <ele>170</ele>
        <time>2010-05-14T12:13:38Z</time>
      </trkpt>
      <trkpt lat="48.63669" lon="1.70772">
        <ele>168</ele>
        <time>2010-05-14T12:13:39Z</time>
      </trkpt>
      <trkpt lat="48.6367" lon="1.70768">
        <ele>166</ele>
        <time>2010-05-14T12:13:40Z</time>
      </trkpt>
      <trkpt lat="48.63671" lon="1.70766">
        <ele>164</ele>
        <time>2010-05-14T12:13:41Z</time>
      </trkpt>
      <trkpt lat="48.63671" lon="1.70764">
        <ele>162</ele>
        <time>2010-05-14T12:13:42Z</time>
      </trkpt>
      <trkpt lat="48.63673" lon="1.70759">
        <ele>160</ele>
        <time>2010-05-14T12:13:43Z</time>
      </trkpt>
      <trkpt lat="48.63672" lon="1.70753">
        <ele>157</ele>
        <time>2010-05-14T12:13:44Z</time>
      </trkpt>
      <trkpt lat="48.63674" lon="1.70736">
        <ele>154</ele>
        <time>2010-05-14T12:13:48Z</time>
      </trkpt>
      <trkpt lat="48.63679" lon="1.70727">
        <ele>151</ele>
        <time>2010-05-14T12:13:49Z</time>
      </trkpt>
      <trkpt lat="48.6368" lon="1.70716">
        <ele>148</ele>
        <time>2010-05-14T12:13:50Z</time>
      </trkpt>
      <trkpt lat="48.63684" lon="1.70708">
        <ele>145</ele>
        <time>2010-05-14T12:13:51Z</time>
      </trkpt>
      <trkpt lat="48.63692" lon="1.70693">
        <ele>142</ele>
        <time>2010-05-14T12:13:54Z</time>
      </trkpt>
      <trkpt lat="48.63696" lon="1.70687">
        <ele>139</ele>
        <time>2010-05-14T12:13:55Z</time>
      </trkpt>
      <trkpt lat="48.63701" lon="1.70681">
        <ele>136</ele>
        <time>2010-05-14T12:13:56Z</time>
      </trkpt>
      <trkpt lat="48.63703" lon="1.70674">
        <ele>134</ele>
        <time>2010-05-14T12:13:57Z</time>
      </trkpt>
      <trkpt lat="48.63706" lon="1.7067">
        <ele>132</ele>
        <time>2010-05-14T12:13:58Z</time>
      </trkpt>
      <trkpt lat="48.63707" lon="1.70665">
        <ele>131</ele>
        <time>2010-05-14T12:13:59Z</time>
      </trkpt>
      <trkpt lat="48.63715" lon="1.70654">
        <ele>130</ele>
        <time>2010-05-14T12:14:00Z</time>
      </trkpt>
      <trkpt lat="48.63716" lon="1.7065">
        <ele>130</ele>
        <time>2010-05-14T12:14:01Z</time>
      </trkpt>
      <trkpt lat="48.63717" lon="1.70645">
        <ele>130</ele>
        <time>2010-05-14T12:14:02Z</time>
      </trkpt>
      <trkpt lat="48.63717" lon="1.7064">
        <ele>130</ele>
        <time>2010-05-14T12:14:03Z</time>
      </trkpt>
      <trkpt lat="48.63719" lon="1.70633">
        <ele>130</ele>
        <time>2010-05-14T12:14:04Z</time>
      </trkpt>
      <trkpt lat="48.63719" lon="1.70626">
        <ele>130</ele>
        <time>2010-05-14T12:14:05Z</time>
      </trkpt>
      <trkpt lat="48.63721" lon="1.70615">
        <ele>129</ele>
        <time>2010-05-14T12:14:06Z</time>
      </trkpt>
      <trkpt lat="48.63722" lon="1.7061">
        <ele>128</ele>
        <time>2010-05-14T12:14:07Z</time>
      </trkpt>
      <trkpt lat="48.63722" lon="1.70606">
        <ele>127</ele>
        <time>2010-05-14T12:14:08Z</time>
      </trkpt>
      <trkpt lat="48.63724" lon="1.706">
        <ele>126</ele>
        <time>2010-05-14T12:14:09Z</time>
      </trkpt>
      <trkpt lat="48.63725" lon="1.70593">
        <ele>126</ele>
        <time>2010-05-14T12:14:10Z</time>
      </trkpt>
      <trkpt lat="48.63726" lon="1.70589">
        <ele>125</ele>
        <time>2010-05-14T12:14:11Z</time>
      </trkpt>
      <trkpt lat="48.63728" lon="1.70583">
        <ele>125</ele>
        <time>2010-05-14T12:14:12Z</time>
      </trkpt>
      <trkpt lat="48.63728" lon="1.70579">
        <ele>125</ele>
        <time>2010-05-14T12:14:13Z</time>
      </trkpt>
      <trkpt lat="48.63729" lon="1.70572">
        <ele>125</ele>
        <time>2010-05-14T12:14:14Z</time>
      </trkpt>
      <trkpt lat="48.6373" lon="1.70565">
        <ele>125</ele>
        <time>2010-05-14T12:14:15Z</time>
      </trkpt>
      <trkpt lat="48.63732" lon="1.70561">
        <ele>125</ele>
        <time>2010-05-14T12:14:16Z</time>
      </trkpt>
      <trkpt lat="48.63733" lon="1.70558">
        <ele>125</ele>
        <time>2010-05-14T12:14:17Z</time>
      </trkpt>
      <trkpt lat="48.63734" lon="1.70554">
        <ele>125</ele>
        <time>2010-05-14T12:14:18Z</time>
      </trkpt>
      <trkpt lat="48.63735" lon="1.7055">
        <ele>125</ele>
        <time>2010-05-14T12:14:19Z</time>
      </trkpt>
      <trkpt lat="48.63738" lon="1.70545">
        <ele>125</ele>
        <time>2010-05-14T12:14:20Z</time>
      </trkpt>
      <trkpt lat="48.63739" lon="1.70541">
        <ele>125</ele>
        <time>2010-05-14T12:14:21Z</time>
      </trkpt>
      <trkpt lat="48.6374" lon="1.70536">
        <ele>125</ele>
        <time>2010-05-14T12:14:22Z</time>
      </trkpt>
      <trkpt lat="48.63741" lon="1.70532">
        <ele>125</ele>
        <time>2010-05-14T12:14:23Z</time>
      </trkpt>
      <trkpt lat="48.63741" lon="1.70528">
        <ele>125</ele>
        <time>2010-05-14T12:14:24Z</time>
      </trkpt>
      <trkpt lat="48.63742" lon="1.70515">
        <ele>125</ele>
        <time>2010-05-14T12:14:25Z</time>
      </trkpt>
      <trkpt lat="48.63743" lon="1.7051">
        <ele>125</ele>
        <time>2010-05-14T12:14:26Z</time>
      </trkpt>
      <trkpt lat="48.63744" lon="1.70504">
        <ele>125</ele>
        <time>2010-05-14T12:14:27Z</time>
      </trkpt>
      <trkpt lat="48.63744" lon="1.70498">
        <ele>125</ele>
        <time>2010-05-14T12:14:28Z</time>
      </trkpt>
      <trkpt lat="48.63745" lon="1.70493">
        <ele>125</ele>
        <time>2010-05-14T12:14:29Z</time>
      </trkpt>
      <trkpt lat="48.63745" lon="1.70488">
        <ele>125</ele>
        <time>2010-05-14T12:14:30Z</time>
      </trkpt>
      <trkpt lat="48.63747" lon="1.70482">
        <ele>125</ele>
        <time>2010-05-14T12:14:31Z</time>
      </trkpt>
      <trkpt lat="48.63747" lon="1.70474">
        <ele>125</ele>
        <time>2010-05-14T12:14:32Z</time>
      </trkpt>
      <trkpt lat="48.63749" lon="1.70469">
        <ele>125</ele>
        <time>2010-05-14T12:14:33Z</time>
      </trkpt>
      <trkpt lat="48.63751" lon="1.70464">
        <ele>125</ele>
        <time>2010-05-14T12:14:34Z</time>
      </trkpt>
      <trkpt lat="48.63756" lon="1.70447">
        <ele>125</ele>
        <time>2010-05-14T12:14:37Z</time>
      </trkpt>
      <trkpt lat="48.63757" lon="1.70438">
        <ele>125</ele>
        <time>2010-05-14T12:14:38Z</time>
      </trkpt>
      <trkpt lat="48.63758" lon="1.70433">
        <ele>125</ele>
        <time>2010-05-14T12:14:39Z</time>
      </trkpt>
      <trkpt lat="48.6376" lon="1.70429">
        <ele>125</ele>
        <time>2010-05-14T12:14:40Z</time>
      </trkpt>
      <trkpt lat="48.63762" lon="1.70425">
        <ele>125</ele>
        <time>2010-05-14T12:14:41Z</time>
      </trkpt>
      <trkpt lat="48.63764" lon="1.70421">
        <ele>125</ele>
        <time>2010-05-14T12:14:42Z</time>
      </trkpt>
      <trkpt lat="48.63766" lon="1.70418">
        <ele>126</ele>
        <time>2010-05-14T12:14:43Z</time>
      </trkpt>
      <trkpt lat="48.63766" lon="1.70414">
        <ele>127</ele>
        <time>2010-05-14T12:14:44Z</time>
      </trkpt>
      <trkpt lat="48.63768" lon="1.70411">
        <ele>128</ele>
        <time>2010-05-14T12:14:45Z</time>
      </trkpt>
      <trkpt lat="48.63769" lon="1.70408">
        <ele>129</ele>
        <time>2010-05-14T12:14:46Z</time>
      </trkpt>
      <trkpt lat="48.63771" lon="1.70405">
        <ele>130</ele>
        <time>2010-05-14T12:14:47Z</time>
      </trkpt>
      <trkpt lat="48.63772" lon="1.70401">
        <ele>131</ele>
        <time>2010-05-14T12:14:48Z</time>
      </trkpt>
      <trkpt lat="48.63773" lon="1.70398">
        <ele>132</ele>
        <time>2010-05-14T12:14:49Z</time>
      </trkpt>
      <trkpt lat="48.63775" lon="1.70395">
        <ele>133</ele>
        <time>2010-05-14T12:14:50Z</time>
      </trkpt>
      <trkpt lat="48.63776" lon="1.70391">
        <ele>134</ele>
        <time>2010-05-14T12:14:51Z</time>
      </trkpt>
      <trkpt lat="48.63778" lon="1.70388">
        <ele>135</ele>
        <time>2010-05-14T12:14:52Z</time>
      </trkpt>
      <trkpt lat="48.6378" lon="1.70384">
        <ele>136</ele>
        <time>2010-05-14T12:14:53Z</time>
      </trkpt>
      <trkpt lat="48.63781" lon="1.70381">
        <ele>137</ele>
        <time>2010-05-14T12:14:54Z</time>
      </trkpt>
      <trkpt lat="48.63783" lon="1.70378">
        <ele>138</ele>
        <time>2010-05-14T12:14:55Z</time>
      </trkpt>
      <trkpt lat="48.63783" lon="1.70375">
        <ele>139</ele>
        <time>2010-05-14T12:14:56Z</time>
      </trkpt>
      <trkpt lat="48.63785" lon="1.70372">
        <ele>140</ele>
        <time>2010-05-14T12:14:57Z</time>
      </trkpt>
      <trkpt lat="48.63786" lon="1.70369">
        <ele>141</ele>
        <time>2010-05-14T12:14:58Z</time>
      </trkpt>
      <trkpt lat="48.63787" lon="1.70366">
        <ele>142</ele>
        <time>2010-05-14T12:14:59Z</time>
      </trkpt>
      <trkpt lat="48.63789" lon="1.70363">
        <ele>143</ele>
        <time>2010-05-14T12:15:00Z</time>
      </trkpt>
      <trkpt lat="48.6379" lon="1.70361">
        <ele>144</ele>
        <time>2010-05-14T12:15:01Z</time>
      </trkpt>
      <trkpt lat="48.63792" lon="1.70359">
        <ele>145</ele>
        <time>2010-05-14T12:15:02Z</time>
      </trkpt>
      <trkpt lat="48.63794" lon="1.70356">
        <ele>146</ele>
        <time>2010-05-14T12:15:03Z</time>
      </trkpt>
      <trkpt lat="48.63795" lon="1.70354">
        <ele>147</ele>
        <time>2010-05-14T12:15:04Z</time>
      </trkpt>
      <trkpt lat="48.63796" lon="1.70351">
        <ele>148</ele>
        <time>2010-05-14T12:15:05Z</time>
      </trkpt>
      <trkpt lat="48.63797" lon="1.70348">
        <ele>149</ele>
        <time>2010-05-14T12:15:06Z</time>
      </trkpt>
      <trkpt lat="48.63798" lon="1.70345">
        <ele>150</ele>
        <time>2010-05-14T12:15:07Z</time>
      </trkpt>
      <trkpt lat="48.63799" lon="1.70342">
        <ele>151</ele>
        <time>2010-05-14T12:15:08Z</time>
      </trkpt>
      <trkpt lat="48.63801" lon="1.70339">
        <ele>152</ele>
        <time>2010-05-14T12:15:09Z</time>
      </trkpt>
      <trkpt lat="48.63803" lon="1.70337">
        <ele>152</ele>
        <time>2010-05-14T12:15:10Z</time>
      </trkpt>
      <trkpt lat="48.63804" lon="1.70334">
        <ele>152</ele>
        <time>2010-05-14T12:15:11Z</time>
      </trkpt>
      <trkpt lat="48.63805" lon="1.70332">
        <ele>152</ele>
        <time>2010-05-14T12:15:12Z</time>
      </trkpt>
      <trkpt lat="48.63807" lon="1.7033">
        <ele>152</ele>
        <time>2010-05-14T12:15:13Z</time>
      </trkpt>
      <trkpt lat="48.63809" lon="1.70328">
        <ele>152</ele>
        <time>2010-05-14T12:15:14Z</time>
      </trkpt>
      <trkpt lat="48.6381" lon="1.70326">
        <ele>152</ele>
        <time>2010-05-14T12:15:15Z</time>
      </trkpt>
      <trkpt lat="48.63811" lon="1.70325">
        <ele>152</ele>
        <time>2010-05-14T12:15:16Z</time>
      </trkpt>
      <trkpt lat="48.63813" lon="1.70323">
        <ele>152</ele>
        <time>2010-05-14T12:15:17Z</time>
      </trkpt>
      <trkpt lat="48.63814" lon="1.70321">
        <ele>152</ele>
        <time>2010-05-14T12:15:18Z</time>
      </trkpt>
      <trkpt lat="48.63815" lon="1.70316">
        <ele>152</ele>
        <time>2010-05-14T12:15:21Z</time>
      </trkpt>
      <trkpt lat="48.63816" lon="1.70313">
        <ele>152</ele>
        <time>2010-05-14T12:15:22Z</time>
      </trkpt>
      <trkpt lat="48.63818" lon="1.7031">
        <ele>152</ele>
        <time>2010-05-14T12:15:23Z</time>
      </trkpt>
      <trkpt lat="48.63818" lon="1.70303">
        <ele>152</ele>
        <time>2010-05-14T12:15:24Z</time>
      </trkpt>
      <trkpt lat="48.63818" lon="1.70298">
        <ele>152</ele>
        <time>2010-05-14T12:15:25Z</time>
      </trkpt>
      <trkpt lat="48.63818" lon="1.70292">
        <ele>152</ele>
        <time>2010-05-14T12:15:26Z</time>
      </trkpt>
      <trkpt lat="48.63819" lon="1.70287">
        <ele>152</ele>
        <time>2010-05-14T12:15:27Z</time>
      </trkpt>
      <trkpt lat="48.63824" lon="1.7028">
        <ele>152</ele>
        <time>2010-05-14T12:15:30Z</time>
      </trkpt>
      <trkpt lat="48.6383" lon="1.70273">
        <ele>151</ele>
        <time>2010-05-14T12:15:31Z</time>
      </trkpt>
      <trkpt lat="48.63833" lon="1.70269">
        <ele>150</ele>
        <time>2010-05-14T12:15:32Z</time>
      </trkpt>
      <trkpt lat="48.63837" lon="1.70267">
        <ele>149</ele>
        <time>2010-05-14T12:15:33Z</time>
      </trkpt>
      <trkpt lat="48.63842" lon="1.70265">
        <ele>148</ele>
        <time>2010-05-14T12:15:34Z</time>
      </trkpt>
      <trkpt lat="48.63847" lon="1.70263">
        <ele>147</ele>
        <time>2010-05-14T12:15:35Z</time>
      </trkpt>
      <trkpt lat="48.63851" lon="1.70261">
        <ele>146</ele>
        <time>2010-05-14T12:15:36Z</time>
      </trkpt>
      <trkpt lat="48.63854" lon="1.70258">
        <ele>145</ele>
        <time>2010-05-14T12:15:37Z</time>
      </trkpt>
      <trkpt lat="48.63857" lon="1.70256">
        <ele>144</ele>
        <time>2010-05-14T12:15:38Z</time>
      </trkpt>
      <trkpt lat="48.63859" lon="1.70254">
        <ele>144</ele>
        <time>2010-05-14T12:15:39Z</time>
      </trkpt>
      <trkpt lat="48.63863" lon="1.70236">
        <ele>144</ele>
        <time>2010-05-14T12:15:40Z</time>
      </trkpt>
      <trkpt lat="48.63866" lon="1.70235">
        <ele>144</ele>
        <time>2010-05-14T12:15:41Z</time>
      </trkpt>
      <trkpt lat="48.63869" lon="1.70232">
        <ele>144</ele>
        <time>2010-05-14T12:15:42Z</time>
      </trkpt>
      <trkpt lat="48.63872" lon="1.7023">
        <ele>143</ele>
        <time>2010-05-14T12:15:43Z</time>
      </trkpt>
      <trkpt lat="48.63875" lon="1.70228">
        <ele>142</ele>
        <time>2010-05-14T12:15:44Z</time>
      </trkpt>
      <trkpt lat="48.63877" lon="1.70224">
        <ele>142</ele>
        <time>2010-05-14T12:15:45Z</time>
      </trkpt>
      <trkpt lat="48.63881" lon="1.7022">
        <ele>142</ele>
        <time>2010-05-14T12:15:46Z</time>
      </trkpt>
      <trkpt lat="48.63882" lon="1.70215">
        <ele>142</ele>
        <time>2010-05-14T12:15:47Z</time>
      </trkpt>
      <trkpt lat="48.63886" lon="1.70211">
        <ele>141</ele>
        <time>2010-05-14T12:15:48Z</time>
      </trkpt>
      <trkpt lat="48.63887" lon="1.70206">
        <ele>140</ele>
        <time>2010-05-14T12:15:49Z</time>
      </trkpt>
      <trkpt lat="48.63889" lon="1.702">
        <ele>139</ele>
        <time>2010-05-14T12:15:50Z</time>
      </trkpt>
      <trkpt lat="48.63891" lon="1.70195">
        <ele>138</ele>
        <time>2010-05-14T12:15:51Z</time>
      </trkpt>
      <trkpt lat="48.63892" lon="1.70191">
        <ele>137</ele>
        <time>2010-05-14T12:15:52Z</time>
      </trkpt>
      <trkpt lat="48.63894" lon="1.70188">
        <ele>136</ele>
        <time>2010-05-14T12:15:53Z</time>
      </trkpt>
      <trkpt lat="48.63895" lon="1.70184">
        <ele>135</ele>
        <time>2010-05-14T12:15:54Z</time>
      </trkpt>
      <trkpt lat="48.63897" lon="1.7018">
        <ele>135</ele>
        <time>2010-05-14T12:15:55Z</time>
      </trkpt>
      <trkpt lat="48.63899" lon="1.70176">
        <ele>134</ele>
        <time>2010-05-14T12:15:56Z</time>
      </trkpt>
      <trkpt lat="48.63901" lon="1.7017">
        <ele>134</ele>
        <time>2010-05-14T12:15:57Z</time>
      </trkpt>
      <trkpt lat="48.63904" lon="1.70164">
        <ele>134</ele>
        <time>2010-05-14T12:15:58Z</time>
      </trkpt>
      <trkpt lat="48.63907" lon="1.70159">
        <ele>133</ele>
        <time>2010-05-14T12:15:59Z</time>
      </trkpt>
      <trkpt lat="48.63909" lon="1.70155">
        <ele>132</ele>
        <time>2010-05-14T12:16:00Z</time>
      </trkpt>
      <trkpt lat="48.6391" lon="1.70151">
        <ele>132</ele>
        <time>2010-05-14T12:16:01Z</time>
      </trkpt>
      <trkpt lat="48.63914" lon="1.70143">
        <ele>131</ele>
        <time>2010-05-14T12:16:02Z</time>
      </trkpt>
      <trkpt lat="48.63916" lon="1.70138">
        <ele>130</ele>
        <time>2010-05-14T12:16:03Z</time>
      </trkpt>
      <trkpt lat="48.63918" lon="1.70134">
        <ele>129</ele>
        <time>2010-05-14T12:16:04Z</time>
      </trkpt>
      <trkpt lat="48.63919" lon="1.7013">
        <ele>128</ele>
        <time>2010-05-14T12:16:05Z</time>
      </trkpt>
      <trkpt lat="48.63922" lon="1.70122">
        <ele>127</ele>
        <time>2010-05-14T12:16:06Z</time>
      </trkpt>
      <trkpt lat="48.63924" lon="1.70118">
        <ele>126</ele>
        <time>2010-05-14T12:16:07Z</time>
      </trkpt>
      <trkpt lat="48.63927" lon="1.70111">
        <ele>125</ele>
        <time>2010-05-14T12:16:08Z</time>
      </trkpt>
      <trkpt lat="48.63929" lon="1.70107">
        <ele>124</ele>
        <time>2010-05-14T12:16:09Z</time>
      </trkpt>
      <trkpt lat="48.63931" lon="1.701">
        <ele>123</ele>
        <time>2010-05-14T12:16:10Z</time>
      </trkpt>
      <trkpt lat="48.63933" lon="1.70096">
        <ele>122</ele>
        <time>2010-05-14T12:16:11Z</time>
      </trkpt>
      <trkpt lat="48.63935" lon="1.70089">
        <ele>121</ele>
        <time>2010-05-14T12:16:12Z</time>
      </trkpt>
      <trkpt lat="48.63936" lon="1.70085">
        <ele>120</ele>
        <time>2010-05-14T12:16:13Z</time>
      </trkpt>
      <trkpt lat="48.63937" lon="1.70081">
        <ele>119</ele>
        <time>2010-05-14T12:16:14Z</time>
      </trkpt>
      <trkpt lat="48.63939" lon="1.70078">
        <ele>118</ele>
        <time>2010-05-14T12:16:15Z</time>
      </trkpt>
      <trkpt lat="48.6394" lon="1.70073">
        <ele>117</ele>
        <time>2010-05-14T12:16:16Z</time>
      </trkpt>
      <trkpt lat="48.63941" lon="1.70069">
        <ele>116</ele>
        <time>2010-05-14T12:16:17Z</time>
      </trkpt>
      <trkpt lat="48.63942" lon="1.70063">
        <ele>115</ele>
        <time>2010-05-14T12:16:18Z</time>
      </trkpt>
      <trkpt lat="48.63952" lon="1.70031">
        <ele>114</ele>
        <time>2010-05-14T12:16:19Z</time>
      </trkpt>
      <trkpt lat="48.63953" lon="1.70027">
        <ele>112</ele>
        <time>2010-05-14T12:16:20Z</time>
      </trkpt>
      <trkpt lat="48.63959" lon="1.70004">
        <ele>110</ele>
        <time>2010-05-14T12:16:21Z</time>
      </trkpt>
      <trkpt lat="48.6396" lon="1.69998">
        <ele>108</ele>
        <time>2010-05-14T12:16:22Z</time>
      </trkpt>
      <trkpt lat="48.63961" lon="1.69992">
        <ele>106</ele>
        <time>2010-05-14T12:16:23Z</time>
      </trkpt>
      <trkpt lat="48.63962" lon="1.69987">
        <ele>104</ele>
        <time>2010-05-14T12:16:24Z</time>
      </trkpt>
      <trkpt lat="48.63963" lon="1.69979">
        <ele>102</ele>
        <time>2010-05-14T12:16:25Z</time>
      </trkpt>
      <trkpt lat="48.63964" lon="1.69971">
        <ele>101</ele>
        <time>2010-05-14T12:16:26Z</time>
      </trkpt>
      <trkpt lat="48.63965" lon="1.69964">
        <ele>100</ele>
        <time>2010-05-14T12:16:27Z</time>
      </trkpt>
      <trkpt lat="48.63966" lon="1.69959">
        <ele>99</ele>
        <time>2010-05-14T12:16:28Z</time>
      </trkpt>
      <trkpt lat="48.63967" lon="1.69953">
        <ele>98</ele>
        <time>2010-05-14T12:16:29Z</time>
      </trkpt>
      <trkpt lat="48.63967" lon="1.69945">
        <ele>97</ele>
        <time>2010-05-14T12:16:30Z</time>
      </trkpt>
      <trkpt lat="48.63968" lon="1.69939">
        <ele>96</ele>
        <time>2010-05-14T12:16:31Z</time>
      </trkpt>
      <trkpt lat="48.63968" lon="1.69933">
        <ele>96</ele>
        <time>2010-05-14T12:16:32Z</time>
      </trkpt>
      <trkpt lat="48.63968" lon="1.69928">
        <ele>96</ele>
        <time>2010-05-14T12:16:33Z</time>
      </trkpt>
      <trkpt lat="48.63969" lon="1.69923">
        <ele>95</ele>
        <time>2010-05-14T12:16:34Z</time>
      </trkpt>
      <trkpt lat="48.63969" lon="1.69917">
        <ele>95</ele>
        <time>2010-05-14T12:16:35Z</time>
      </trkpt>
      <trkpt lat="48.6397" lon="1.69912">
        <ele>94</ele>
        <time>2010-05-14T12:16:36Z</time>
      </trkpt>
      <trkpt lat="48.6397" lon="1.69906">
        <ele>93</ele>
        <time>2010-05-14T12:16:37Z</time>
      </trkpt>
      <trkpt lat="48.63969" lon="1.69899">
        <ele>92</ele>
        <time>2010-05-14T12:16:38Z</time>
      </trkpt>
      <trkpt lat="48.6397" lon="1.69893">
        <ele>91</ele>
        <time>2010-05-14T12:16:39Z</time>
      </trkpt>
      <trkpt lat="48.6397" lon="1.69888">
        <ele>90</ele>
        <time>2010-05-14T12:16:40Z</time>
      </trkpt>
      <trkpt lat="48.63971" lon="1.69883">
        <ele>89</ele>
        <time>2010-05-14T12:16:41Z</time>
      </trkpt>
      <trkpt lat="48.63972" lon="1.69878">
        <ele>88</ele>
        <time>2010-05-14T12:16:42Z</time>
      </trkpt>
      <trkpt lat="48.63973" lon="1.69873">
        <ele>87</ele>
        <time>2010-05-14T12:16:43Z</time>
      </trkpt>
      <trkpt lat="48.63973" lon="1.69868">
        <ele>87</ele>
        <time>2010-05-14T12:16:44Z</time>
      </trkpt>
      <trkpt lat="48.63974" lon="1.69862">
        <ele>87</ele>
        <time>2010-05-14T12:16:45Z</time>
      </trkpt>
      <trkpt lat="48.63974" lon="1.69857">
        <ele>87</ele>
        <time>2010-05-14T12:16:46Z</time>
      </trkpt>
      <trkpt lat="48.63974" lon="1.69851">
        <ele>87</ele>
        <time>2010-05-14T12:16:47Z</time>
      </trkpt>
      <trkpt lat="48.63974" lon="1.69847">
        <ele>87</ele>
        <time>2010-05-14T12:16:48Z</time>
      </trkpt>
      <trkpt lat="48.63975" lon="1.69842">
        <ele>87</ele>
        <time>2010-05-14T12:16:49Z</time>
      </trkpt>
      <trkpt lat="48.63976" lon="1.69839">
        <ele>88</ele>
        <time>2010-05-14T12:16:50Z</time>
      </trkpt>
      <trkpt lat="48.63976" lon="1.69835">
        <ele>90</ele>
        <time>2010-05-14T12:16:52Z</time>
      </trkpt>
      <trkpt lat="48.63977" lon="1.69831">
        <ele>91</ele>
        <time>2010-05-14T12:16:53Z</time>
      </trkpt>
      <trkpt lat="48.63976" lon="1.69826">
        <ele>92</ele>
        <time>2010-05-14T12:16:54Z</time>
      </trkpt>
      <trkpt lat="48.63975" lon="1.69823">
        <ele>93</ele>
        <time>2010-05-14T12:16:55Z</time>
      </trkpt>
      <trkpt lat="48.63974" lon="1.6982">
        <ele>94</ele>
        <time>2010-05-14T12:16:56Z</time>
      </trkpt>
      <trkpt lat="48.63973" lon="1.69816">
        <ele>95</ele>
        <time>2010-05-14T12:16:57Z</time>
      </trkpt>
      <trkpt lat="48.63973" lon="1.69814">
        <ele>95</ele>
        <time>2010-05-14T12:16:58Z</time>
      </trkpt>
      <trkpt lat="48.63973" lon="1.69812">
        <ele>95</ele>
        <time>2010-05-14T12:16:59Z</time>
      </trkpt>
      <trkpt lat="48.63973" lon="1.69808">
        <ele>95</ele>
        <time>2010-05-14T12:17:00Z</time>
      </trkpt>
      <trkpt lat="48.63972" lon="1.69805">
        <ele>95</ele>
        <time>2010-05-14T12:17:01Z</time>
      </trkpt>
      <trkpt lat="48.63972" lon="1.69802">
        <ele>95</ele>
        <time>2010-05-14T12:17:02Z</time>
      </trkpt>
      <trkpt lat="48.63972" lon="1.698">
        <ele>95</ele>
        <time>2010-05-14T12:17:03Z</time>
      </trkpt>
      <trkpt lat="48.63972" lon="1.69798">
        <ele>95</ele>
        <time>2010-05-14T12:17:04Z</time>
      </trkpt>
      <trkpt lat="48.63972" lon="1.69794">
        <ele>95</ele>
        <time>2010-05-14T12:17:05Z</time>
      </trkpt>
      <trkpt lat="48.63972" lon="1.69789">
        <ele>95</ele>
        <time>2010-05-14T12:17:06Z</time>
      </trkpt>
      <trkpt lat="48.63972" lon="1.69785">
        <ele>95</ele>
        <time>2010-05-14T12:17:07Z</time>
      </trkpt>
      <trkpt lat="48.63971" lon="1.69781">
        <ele>95</ele>
        <time>2010-05-14T12:17:08Z</time>
      </trkpt>
      <trkpt lat="48.63971" lon="1.69778">
        <ele>96</ele>
        <time>2010-05-14T12:17:09Z</time>
      </trkpt>
      <trkpt lat="48.63971" lon="1.69776">
        <ele>97</ele>
        <time>2010-05-14T12:17:10Z</time>
      </trkpt>
      <trkpt lat="48.63971" lon="1.69774">
        <ele>98</ele>
        <time>2010-05-14T12:17:11Z</time>
      </trkpt>
      <trkpt lat="48.63972" lon="1.69771">
        <ele>98</ele>
        <time>2010-05-14T12:17:12Z</time>
      </trkpt>
      <trkpt lat="48.63972" lon="1.69767">
        <ele>98</ele>
        <time>2010-05-14T12:17:13Z</time>
      </trkpt>
      <trkpt lat="48.63972" lon="1.69763">
        <ele>98</ele>
        <time>2010-05-14T12:17:14Z</time>
      </trkpt>
      <trkpt lat="48.63973" lon="1.69759">
        <ele>99</ele>
        <time>2010-05-14T12:17:15Z</time>
      </trkpt>
      <trkpt lat="48.63973" lon="1.69755">
        <ele>99</ele>
        <time>2010-05-14T12:17:16Z</time>
      </trkpt>
      <trkpt lat="48.63973" lon="1.69751">
        <ele>100</ele>
        <time>2010-05-14T12:17:17Z</time>
      </trkpt>
      <trkpt lat="48.63973" lon="1.69749">
        <ele>100</ele>
        <time>2010-05-14T12:17:18Z</time>
      </trkpt>
      <trkpt lat="48.63973" lon="1.69746">
        <ele>101</ele>
        <time>2010-05-14T12:17:19Z</time>
      </trkpt>
      <trkpt lat="48.63972" lon="1.69743">
        <ele>101</ele>
        <time>2010-05-14T12:17:20Z</time>
      </trkpt>
      <trkpt lat="48.63973" lon="1.6974">
        <ele>101</ele>
        <time>2010-05-14T12:17:21Z</time>
      </trkpt>
      <trkpt lat="48.63974" lon="1.69734">
        <ele>101</ele>
        <time>2010-05-14T12:17:22Z</time>
      </trkpt>
      <trkpt lat="48.63974" lon="1.69728">
        <ele>102</ele>
        <time>2010-05-14T12:17:23Z</time>
      </trkpt>
      <trkpt lat="48.63975" lon="1.69725">
        <ele>102</ele>
        <time>2010-05-14T12:17:24Z</time>
      </trkpt>
      <trkpt lat="48.63976" lon="1.69719">
        <ele>102</ele>
        <time>2010-05-14T12:17:25Z</time>
      </trkpt>
      <trkpt lat="48.63976" lon="1.69713">
        <ele>103</ele>
        <time>2010-05-14T12:17:26Z</time>
      </trkpt>
      <trkpt lat="48.63976" lon="1.69706">
        <ele>103</ele>
        <time>2010-05-14T12:17:27Z</time>
      </trkpt>
      <trkpt lat="48.63976" lon="1.69702">
        <ele>103</ele>
        <time>2010-05-14T12:17:28Z</time>
      </trkpt>
      <trkpt lat="48.63976" lon="1.69697">
        <ele>103</ele>
        <time>2010-05-14T12:17:29Z</time>
      </trkpt>
      <trkpt lat="48.63979" lon="1.69686">
        <ele>103</ele>
        <time>2010-05-14T12:17:33Z</time>
      </trkpt>
      <trkpt lat="48.63982" lon="1.69676">
        <ele>103</ele>
        <time>2010-05-14T12:17:34Z</time>
      </trkpt>
      <trkpt lat="48.63982" lon="1.69669">
        <ele>104</ele>
        <time>2010-05-14T12:17:35Z</time>
      </trkpt>
      <trkpt lat="48.63984" lon="1.6966">
        <ele>105</ele>
        <time>2010-05-14T12:17:36Z</time>
      </trkpt>
      <trkpt lat="48.63986" lon="1.69654">
        <ele>106</ele>
        <time>2010-05-14T12:17:37Z</time>
      </trkpt>
      <trkpt lat="48.63986" lon="1.69652">
        <ele>108</ele>
        <time>2010-05-14T12:17:38Z</time>
      </trkpt>
      <trkpt lat="48.63987" lon="1.69649">
        <ele>110</ele>
        <time>2010-05-14T12:17:39Z</time>
      </trkpt>
      <trkpt lat="48.63987" lon="1.69645">
        <ele>112</ele>
        <time>2010-05-14T12:17:40Z</time>
      </trkpt>
      <trkpt lat="48.63988" lon="1.6964">
        <ele>114</ele>
        <time>2010-05-14T12:17:41Z</time>
      </trkpt>
      <trkpt lat="48.63988" lon="1.69636">
        <ele>116</ele>
        <time>2010-05-14T12:17:42Z</time>
      </trkpt>
      <trkpt lat="48.63988" lon="1.69632">
        <ele>117</ele>
        <time>2010-05-14T12:17:43Z</time>
      </trkpt>
      <trkpt lat="48.63988" lon="1.69628">
        <ele>119</ele>
        <time>2010-05-14T12:17:44Z</time>
      </trkpt>
      <trkpt lat="48.63988" lon="1.69624">
        <ele>120</ele>
        <time>2010-05-14T12:17:45Z</time>
      </trkpt>
      <trkpt lat="48.63987" lon="1.6962">
        <ele>121</ele>
        <time>2010-05-14T12:17:46Z</time>
      </trkpt>
      <trkpt lat="48.63988" lon="1.69617">
        <ele>122</ele>
        <time>2010-05-14T12:17:47Z</time>
      </trkpt>
      <trkpt lat="48.63987" lon="1.69613">
        <ele>123</ele>
        <time>2010-05-14T12:17:48Z</time>
      </trkpt>
      <trkpt lat="48.63987" lon="1.69611">
        <ele>124</ele>
        <time>2010-05-14T12:17:49Z</time>
      </trkpt>
      <trkpt lat="48.63987" lon="1.69607">
        <ele>125</ele>
        <time>2010-05-14T12:17:50Z</time>
      </trkpt>
      <trkpt lat="48.63987" lon="1.69604">
        <ele>126</ele>
        <time>2010-05-14T12:17:51Z</time>
      </trkpt>
      <trkpt lat="48.63987" lon="1.696">
        <ele>127</ele>
        <time>2010-05-14T12:17:52Z</time>
      </trkpt>
      <trkpt lat="48.63989" lon="1.69597">
        <ele>128</ele>
        <time>2010-05-14T12:17:53Z</time>
      </trkpt>
      <trkpt lat="48.63989" lon="1.69594">
        <ele>129</ele>
        <time>2010-05-14T12:17:54Z</time>
      </trkpt>
      <trkpt lat="48.63989" lon="1.69592">
        <ele>130</ele>
        <time>2010-05-14T12:17:55Z</time>
      </trkpt>
      <trkpt lat="48.63988" lon="1.69589">
        <ele>131</ele>
        <time>2010-05-14T12:17:56Z</time>
      </trkpt>
      <trkpt lat="48.63988" lon="1.69588">
        <ele>132</ele>
        <time>2010-05-14T12:17:57Z</time>
      </trkpt>
      <trkpt lat="48.63988" lon="1.69586">
        <ele>133</ele>
        <time>2010-05-14T12:17:58Z</time>
      </trkpt>
      <trkpt lat="48.63988" lon="1.69584">
        <ele>134</ele>
        <time>2010-05-14T12:17:59Z</time>
      </trkpt>
      <trkpt lat="48.63987" lon="1.69579">
        <ele>135</ele>
        <time>2010-05-14T12:18:00Z</time>
      </trkpt>
      <trkpt lat="48.63985" lon="1.69574">
        <ele>136</ele>
        <time>2010-05-14T12:18:01Z</time>
      </trkpt>
      <trkpt lat="48.63985" lon="1.69571">
        <ele>137</ele>
        <time>2010-05-14T12:18:02Z</time>
      </trkpt>
      <trkpt lat="48.63983" lon="1.69566">
        <ele>138</ele>
        <time>2010-05-14T12:18:04Z</time>
      </trkpt>
      <trkpt lat="48.63983" lon="1.69563">
        <ele>138</ele>
        <time>2010-05-14T12:18:05Z</time>
      </trkpt>
      <trkpt lat="48.63983" lon="1.69561">
        <ele>139</ele>
        <time>2010-05-14T12:18:06Z</time>
      </trkpt>
      <trkpt lat="48.63982" lon="1.69559">
        <ele>139</ele>
        <time>2010-05-14T12:18:07Z</time>
      </trkpt>
      <trkpt lat="48.63983" lon="1.69555">
        <ele>139</ele>
        <time>2010-05-14T12:18:09Z</time>
      </trkpt>
      <trkpt lat="48.63982" lon="1.69551">
        <ele>139</ele>
        <time>2010-05-14T12:18:11Z</time>
      </trkpt>
      <trkpt lat="48.63981" lon="1.69548">
        <ele>139</ele>
        <time>2010-05-14T12:18:12Z</time>
      </trkpt>
      <trkpt lat="48.63981" lon="1.69546">
        <ele>139</ele>
        <time>2010-05-14T12:18:13Z</time>
      </trkpt>
      <trkpt lat="48.63981" lon="1.69543">
        <ele>139</ele>
        <time>2010-05-14T12:18:14Z</time>
      </trkpt>
      <trkpt lat="48.63981" lon="1.69541">
        <ele>139</ele>
        <time>2010-05-14T12:18:15Z</time>
      </trkpt>
      <trkpt lat="48.63982" lon="1.69538">
        <ele>139</ele>
        <time>2010-05-14T12:18:17Z</time>
      </trkpt>
      <trkpt lat="48.63982" lon="1.69535">
        <ele>140</ele>
        <time>2010-05-14T12:18:19Z</time>
      </trkpt>
      <trkpt lat="48.63982" lon="1.69532">
        <ele>141</ele>
        <time>2010-05-14T12:18:21Z</time>
      </trkpt>
      <trkpt lat="48.63982" lon="1.6953">
        <ele>141</ele>
        <time>2010-05-14T12:18:22Z</time>
      </trkpt>
      <trkpt lat="48.63982" lon="1.69528">
        <ele>141</ele>
        <time>2010-05-14T12:18:23Z</time>
      </trkpt>
      <trkpt lat="48.63981" lon="1.69526">
        <ele>141</ele>
        <time>2010-05-14T12:18:24Z</time>
      </trkpt>
      <trkpt lat="48.63981" lon="1.69525">
        <ele>141</ele>
        <time>2010-05-14T12:18:25Z</time>
      </trkpt>
      <trkpt lat="48.63981" lon="1.69523">
        <ele>141</ele>
        <time>2010-05-14T12:18:26Z</time>
      </trkpt>
      <trkpt lat="48.6398" lon="1.6952">
        <ele>141</ele>
        <time>2010-05-14T12:18:27Z</time>
      </trkpt>
      <trkpt lat="48.63981" lon="1.69518">
        <ele>141</ele>
        <time>2010-05-14T12:18:28Z</time>
      </trkpt>
      <trkpt lat="48.6398" lon="1.69516">
        <ele>141</ele>
        <time>2010-05-14T12:18:29Z</time>
      </trkpt>
      <trkpt lat="48.6398" lon="1.69514">
        <ele>141</ele>
        <time>2010-05-14T12:18:30Z</time>
      </trkpt>
      <trkpt lat="48.6398" lon="1.6951">
        <ele>141</ele>
        <time>2010-05-14T12:18:31Z</time>
      </trkpt>
      <trkpt lat="48.6398" lon="1.69508">
        <ele>141</ele>
        <time>2010-05-14T12:18:32Z</time>
      </trkpt>
      <trkpt lat="48.6398" lon="1.69504">
        <ele>141</ele>
        <time>2010-05-14T12:18:33Z</time>
      </trkpt>
      <trkpt lat="48.6398" lon="1.69501">
        <ele>141</ele>
        <time>2010-05-14T12:18:34Z</time>
      </trkpt>
      <trkpt lat="48.6398" lon="1.69496">
        <ele>141</ele>
        <time>2010-05-14T12:18:35Z</time>
      </trkpt>
      <trkpt lat="48.63979" lon="1.69492">
        <ele>141</ele>
        <time>2010-05-14T12:18:36Z</time>
      </trkpt>
      <trkpt lat="48.63978" lon="1.69488">
        <ele>141</ele>
        <time>2010-05-14T12:18:37Z</time>
      </trkpt>
      <trkpt lat="48.63978" lon="1.69486">
        <ele>141</ele>
        <time>2010-05-14T12:18:38Z</time>
      </trkpt>
      <trkpt lat="48.63976" lon="1.69481">
        <ele>141</ele>
        <time>2010-05-14T12:18:39Z</time>
      </trkpt>
      <trkpt lat="48.63977" lon="1.69479">
        <ele>140</ele>
        <time>2010-05-14T12:18:40Z</time>
      </trkpt>
      <trkpt lat="48.63977" lon="1.69476">
        <ele>140</ele>
        <time>2010-05-14T12:18:41Z</time>
      </trkpt>
      <trkpt lat="48.63977" lon="1.69474">
        <ele>140</ele>
        <time>2010-05-14T12:18:42Z</time>
      </trkpt>
      <trkpt lat="48.63976" lon="1.69472">
        <ele>140</ele>
        <time>2010-05-14T12:18:43Z</time>
      </trkpt>
      <trkpt lat="48.63976" lon="1.6947">
        <ele>140</ele>
        <time>2010-05-14T12:18:44Z</time>
      </trkpt>
      <trkpt lat="48.63976" lon="1.69468">
        <ele>140</ele>
        <time>2010-05-14T12:18:45Z</time>
      </trkpt>
      <trkpt lat="48.63976" lon="1.69466">
        <ele>140</ele>
        <time>2010-05-14T12:18:46Z</time>
      </trkpt>
      <trkpt lat="48.63975" lon="1.69464">
        <ele>140</ele>
        <time>2010-05-14T12:18:47Z</time>
      </trkpt>
      <trkpt lat="48.63975" lon="1.69461">
        <ele>140</ele>
        <time>2010-05-14T12:18:49Z</time>
      </trkpt>
      <trkpt lat="48.63975" lon="1.69459">
        <ele>140</ele>
        <time>2010-05-14T12:18:50Z</time>
      </trkpt>
      <trkpt lat="48.63974" lon="1.69455">
        <ele>140</ele>
        <time>2010-05-14T12:18:52Z</time>
      </trkpt>
      <trkpt lat="48.63974" lon="1.69453">
        <ele>140</ele>
        <time>2010-05-14T12:18:53Z</time>
      </trkpt>
      <trkpt lat="48.63974" lon="1.69452">
        <ele>141</ele>
        <time>2010-05-14T12:18:54Z</time>
      </trkpt>
      <trkpt lat="48.63973" lon="1.69449">
        <ele>141</ele>
        <time>2010-05-14T12:18:55Z</time>
      </trkpt>
      <trkpt lat="48.63973" lon="1.69447">
        <ele>142</ele>
        <time>2010-05-14T12:18:56Z</time>
      </trkpt>
      <trkpt lat="48.63972" lon="1.69444">
        <ele>143</ele>
        <time>2010-05-14T12:18:57Z</time>
      </trkpt>
      <trkpt lat="48.63972" lon="1.69441">
        <ele>144</ele>
        <time>2010-05-14T12:18:59Z</time>
      </trkpt>
      <trkpt lat="48.63972" lon="1.69438">
        <ele>145</ele>
        <time>2010-05-14T12:19:01Z</time>
      </trkpt>
      <trkpt lat="48.63972" lon="1.69436">
        <ele>146</ele>
        <time>2010-05-14T12:19:02Z</time>
      </trkpt>
      <trkpt lat="48.63973" lon="1.69434">
        <ele>146</ele>
        <time>2010-05-14T12:19:03Z</time>
      </trkpt>
      <trkpt lat="48.63972" lon="1.69432">
        <ele>146</ele>
        <time>2010-05-14T12:19:04Z</time>
      </trkpt>
      <trkpt lat="48.63971" lon="1.6943">
        <ele>147</ele>
        <time>2010-05-14T12:19:05Z</time>
      </trkpt>
      <trkpt lat="48.6397" lon="1.69427">
        <ele>148</ele>
        <time>2010-05-14T12:19:08Z</time>
      </trkpt>
      <trkpt lat="48.63971" lon="1.69424">
        <ele>149</ele>
        <time>2010-05-14T12:19:09Z</time>
      </trkpt>
      <trkpt lat="48.6397" lon="1.69423">
        <ele>149</ele>
        <time>2010-05-14T12:19:10Z</time>
      </trkpt>
      <trkpt lat="48.63971" lon="1.6942">
        <ele>149</ele>
        <time>2010-05-14T12:19:11Z</time>
      </trkpt>
      <trkpt lat="48.6397" lon="1.69417">
        <ele>149</ele>
        <time>2010-05-14T12:19:13Z</time>
      </trkpt>
      <trkpt lat="48.63969" lon="1.69414">
        <ele>149</ele>
        <time>2010-05-14T12:19:15Z</time>
      </trkpt>
      <trkpt lat="48.63968" lon="1.6941">
        <ele>149</ele>
        <time>2010-05-14T12:19:18Z</time>
      </trkpt>
      <trkpt lat="48.63967" lon="1.69405">
        <ele>149</ele>
        <time>2010-05-14T12:19:21Z</time>
      </trkpt>
      <trkpt lat="48.63966" lon="1.69402">
        <ele>149</ele>
        <time>2010-05-14T12:19:22Z</time>
      </trkpt>
      <trkpt lat="48.63966" lon="1.69399">
        <ele>149</ele>
        <time>2010-05-14T12:19:23Z</time>
      </trkpt>
      <trkpt lat="48.63965" lon="1.69396">
        <ele>149</ele>
        <time>2010-05-14T12:19:24Z</time>
      </trkpt>
      <trkpt lat="48.63964" lon="1.69394">
        <ele>148</ele>
        <time>2010-05-14T12:19:25Z</time>
      </trkpt>
      <trkpt lat="48.63963" lon="1.69391">
        <ele>147</ele>
        <time>2010-05-14T12:19:26Z</time>
      </trkpt>
      <trkpt lat="48.63963" lon="1.69384">
        <ele>146</ele>
        <time>2010-05-14T12:19:31Z</time>
      </trkpt>
      <trkpt lat="48.6396" lon="1.69379">
        <ele>145</ele>
        <time>2010-05-14T12:19:32Z</time>
      </trkpt>
      <trkpt lat="48.63957" lon="1.69373">
        <ele>144</ele>
        <time>2010-05-14T12:19:33Z</time>
      </trkpt>
      <trkpt lat="48.63955" lon="1.69365">
        <ele>143</ele>
        <time>2010-05-14T12:19:36Z</time>
      </trkpt>
      <trkpt lat="48.63956" lon="1.69359">
        <ele>142</ele>
        <time>2010-05-14T12:19:37Z</time>
      </trkpt>
      <trkpt lat="48.63955" lon="1.69355">
        <ele>141</ele>
        <time>2010-05-14T12:19:38Z</time>
      </trkpt>
      <trkpt lat="48.63953" lon="1.6935">
        <ele>140</ele>
        <time>2010-05-14T12:19:39Z</time>
      </trkpt>
      <trkpt lat="48.63951" lon="1.69347">
        <ele>139</ele>
        <time>2010-05-14T12:19:40Z</time>
      </trkpt>
      <trkpt lat="48.63949" lon="1.69343">
        <ele>138</ele>
        <time>2010-05-14T12:19:41Z</time>
      </trkpt>
      <trkpt lat="48.63947" lon="1.6934">
        <ele>137</ele>
        <time>2010-05-14T12:19:42Z</time>
      </trkpt>
      <trkpt lat="48.63945" lon="1.69337">
        <ele>136</ele>
        <time>2010-05-14T12:19:43Z</time>
      </trkpt>
      <trkpt lat="48.63944" lon="1.69334">
        <ele>135</ele>
        <time>2010-05-14T12:19:44Z</time>
      </trkpt>
      <trkpt lat="48.63941" lon="1.69327">
        <ele>134</ele>
        <time>2010-05-14T12:19:45Z</time>
      </trkpt>
      <trkpt lat="48.63938" lon="1.69322">
        <ele>133</ele>
        <time>2010-05-14T12:19:46Z</time>
      </trkpt>
      <trkpt lat="48.63936" lon="1.69319">
        <ele>133</ele>
        <time>2010-05-14T12:19:47Z</time>
      </trkpt>
      <trkpt lat="48.63934" lon="1.69313">
        <ele>132</ele>
        <time>2010-05-14T12:19:48Z</time>
      </trkpt>
      <trkpt lat="48.63931" lon="1.69307">
        <ele>131</ele>
        <time>2010-05-14T12:19:49Z</time>
      </trkpt>
      <trkpt lat="48.63928" lon="1.69302">
        <ele>130</ele>
        <time>2010-05-14T12:19:50Z</time>
      </trkpt>
      <trkpt lat="48.63927" lon="1.69298">
        <ele>129</ele>
        <time>2010-05-14T12:19:51Z</time>
      </trkpt>
      <trkpt lat="48.63926" lon="1.69296">
        <ele>128</ele>
        <time>2010-05-14T12:19:52Z</time>
      </trkpt>
      <trkpt lat="48.63925" lon="1.69293">
        <ele>127</ele>
        <time>2010-05-14T12:19:53Z</time>
      </trkpt>
      <trkpt lat="48.63923" lon="1.69288">
        <ele>126</ele>
        <time>2010-05-14T12:19:54Z</time>
      </trkpt>
      <trkpt lat="48.6392" lon="1.69283">
        <ele>125</ele>
        <time>2010-05-14T12:19:55Z</time>
      </trkpt>
      <trkpt lat="48.63918" lon="1.69279">
        <ele>124</ele>
        <time>2010-05-14T12:19:56Z</time>
      </trkpt>
      <trkpt lat="48.63916" lon="1.69274">
        <ele>123</ele>
        <time>2010-05-14T12:19:57Z</time>
      </trkpt>
      <trkpt lat="48.63915" lon="1.69271">
        <ele>122</ele>
        <time>2010-05-14T12:19:58Z</time>
      </trkpt>
      <trkpt lat="48.63914" lon="1.69269">
        <ele>122</ele>
        <time>2010-05-14T12:19:59Z</time>
      </trkpt>
      <trkpt lat="48.63913" lon="1.69266">
        <ele>122</ele>
        <time>2010-05-14T12:20:00Z</time>
      </trkpt>
      <trkpt lat="48.63912" lon="1.69264">
        <ele>122</ele>
        <time>2010-05-14T12:20:01Z</time>
      </trkpt>
      <trkpt lat="48.63911" lon="1.69262">
        <ele>122</ele>
        <time>2010-05-14T12:20:02Z</time>
      </trkpt>
      <trkpt lat="48.6391" lon="1.6926">
        <ele>121</ele>
        <time>2010-05-14T12:20:03Z</time>
      </trkpt>
      <trkpt lat="48.63909" lon="1.69257">
        <ele>121</ele>
        <time>2010-05-14T12:20:04Z</time>
      </trkpt>
      <trkpt lat="48.63908" lon="1.69254">
        <ele>121</ele>
        <time>2010-05-14T12:20:05Z</time>
      </trkpt>
      <trkpt lat="48.63907" lon="1.69251">
        <ele>121</ele>
        <time>2010-05-14T12:20:06Z</time>
      </trkpt>
      <trkpt lat="48.63906" lon="1.69248">
        <ele>120</ele>
        <time>2010-05-14T12:20:07Z</time>
      </trkpt>
      <trkpt lat="48.63905" lon="1.69246">
        <ele>119</ele>
        <time>2010-05-14T12:20:08Z</time>
      </trkpt>
      <trkpt lat="48.63904" lon="1.69243">
        <ele>119</ele>
        <time>2010-05-14T12:20:09Z</time>
      </trkpt>
      <trkpt lat="48.63903" lon="1.69242">
        <ele>118</ele>
        <time>2010-05-14T12:20:10Z</time>
      </trkpt>
      <trkpt lat="48.63902" lon="1.69239">
        <ele>117</ele>
        <time>2010-05-14T12:20:11Z</time>
      </trkpt>
      <trkpt lat="48.63901" lon="1.69236">
        <ele>116</ele>
        <time>2010-05-14T12:20:12Z</time>
      </trkpt>
      <trkpt lat="48.63896" lon="1.69223">
        <ele>115</ele>
        <time>2010-05-14T12:20:15Z</time>
      </trkpt>
      <trkpt lat="48.63893" lon="1.69214">
        <ele>114</ele>
        <time>2010-05-14T12:20:16Z</time>
      </trkpt>
      <trkpt lat="48.6389" lon="1.6921">
        <ele>114</ele>
        <time>2010-05-14T12:20:17Z</time>
      </trkpt>
      <trkpt lat="48.63887" lon="1.69203">
        <ele>114</ele>
        <time>2010-05-14T12:20:18Z</time>
      </trkpt>
      <trkpt lat="48.63886" lon="1.69199">
        <ele>114</ele>
        <time>2010-05-14T12:20:19Z</time>
      </trkpt>
      <trkpt lat="48.63884" lon="1.69198">
        <ele>114</ele>
        <time>2010-05-14T12:20:20Z</time>
      </trkpt>
      <trkpt lat="48.63883" lon="1.69195">
        <ele>114</ele>
        <time>2010-05-14T12:20:21Z</time>
      </trkpt>
      <trkpt lat="48.63881" lon="1.69191">
        <ele>114</ele>
        <time>2010-05-14T12:20:22Z</time>
      </trkpt>
      <trkpt lat="48.6388" lon="1.69188">
        <ele>114</ele>
        <time>2010-05-14T12:20:23Z</time>
      </trkpt>
      <trkpt lat="48.63878" lon="1.69183">
        <ele>114</ele>
        <time>2010-05-14T12:20:26Z</time>
      </trkpt>
      <trkpt lat="48.63876" lon="1.69177">
        <ele>114</ele>
        <time>2010-05-14T12:20:27Z</time>
      </trkpt>
      <trkpt lat="48.63875" lon="1.69174">
        <ele>114</ele>
        <time>2010-05-14T12:20:28Z</time>
      </trkpt>
      <trkpt lat="48.63873" lon="1.69171">
        <ele>114</ele>
        <time>2010-05-14T12:20:29Z</time>
      </trkpt>
      <trkpt lat="48.63871" lon="1.69166">
        <ele>115</ele>
        <time>2010-05-14T12:20:30Z</time>
      </trkpt>
      <trkpt lat="48.6387" lon="1.69164">
        <ele>115</ele>
        <time>2010-05-14T12:20:31Z</time>
      </trkpt>
      <trkpt lat="48.63868" lon="1.6916">
        <ele>117</ele>
        <time>2010-05-14T12:20:33Z</time>
      </trkpt>
      <trkpt lat="48.63867" lon="1.69158">
        <ele>117</ele>
        <time>2010-05-14T12:20:34Z</time>
      </trkpt>
      <trkpt lat="48.63867" lon="1.69155">
        <ele>118</ele>
        <time>2010-05-14T12:20:36Z</time>
      </trkpt>
      <trkpt lat="48.63864" lon="1.69152">
        <ele>119</ele>
        <time>2010-05-14T12:20:38Z</time>
      </trkpt>
      <trkpt lat="48.63863" lon="1.6915">
        <ele>119</ele>
        <time>2010-05-14T12:20:39Z</time>
      </trkpt>
      <trkpt lat="48.63861" lon="1.69148">
        <ele>119</ele>
        <time>2010-05-14T12:20:40Z</time>
      </trkpt>
      <trkpt lat="48.63859" lon="1.69144">
        <ele>119</ele>
        <time>2010-05-14T12:20:42Z</time>
      </trkpt>
      <trkpt lat="48.63857" lon="1.69143">
        <ele>119</ele>
        <time>2010-05-14T12:20:43Z</time>
      </trkpt>
      <trkpt lat="48.63856" lon="1.69141">
        <ele>119</ele>
        <time>2010-05-14T12:20:44Z</time>
      </trkpt>
      <trkpt lat="48.63855" lon="1.69139">
        <ele>119</ele>
        <time>2010-05-14T12:20:45Z</time>
      </trkpt>
      <trkpt lat="48.63853" lon="1.69136">
        <ele>119</ele>
        <time>2010-05-14T12:20:46Z</time>
      </trkpt>
      <trkpt lat="48.63851" lon="1.69134">
        <ele>119</ele>
        <time>2010-05-14T12:20:47Z</time>
      </trkpt>
      <trkpt lat="48.6385" lon="1.69133">
        <ele>119</ele>
        <time>2010-05-14T12:20:48Z</time>
      </trkpt>
      <trkpt lat="48.63848" lon="1.69131">
        <ele>119</ele>
        <time>2010-05-14T12:20:49Z</time>
      </trkpt>
      <trkpt lat="48.63847" lon="1.6913">
        <ele>119</ele>
        <time>2010-05-14T12:20:51Z</time>
      </trkpt>
      <trkpt lat="48.63847" lon="1.69127">
        <ele>119</ele>
        <time>2010-05-14T12:20:52Z</time>
      </trkpt>
      <trkpt lat="48.63845" lon="1.69125">
        <ele>119</ele>
        <time>2010-05-14T12:20:53Z</time>
      </trkpt>
      <trkpt lat="48.63844" lon="1.69123">
        <ele>119</ele>
        <time>2010-05-14T12:20:54Z</time>
      </trkpt>
      <trkpt lat="48.63841" lon="1.69121">
        <ele>119</ele>
        <time>2010-05-14T12:20:57Z</time>
      </trkpt>
      <trkpt lat="48.6384" lon="1.69118">
        <ele>118</ele>
        <time>2010-05-14T12:20:59Z</time>
      </trkpt>
      <trkpt lat="48.63839" lon="1.69116">
        <ele>118</ele>
        <time>2010-05-14T12:21:00Z</time>
      </trkpt>
      <trkpt lat="48.63839" lon="1.69114">
        <ele>118</ele>
        <time>2010-05-14T12:21:01Z</time>
      </trkpt>
      <trkpt lat="48.63838" lon="1.69113">
        <ele>118</ele>
        <time>2010-05-14T12:21:02Z</time>
      </trkpt>
      <trkpt lat="48.63838" lon="1.69111">
        <ele>118</ele>
        <time>2010-05-14T12:21:03Z</time>
      </trkpt>
      <trkpt lat="48.63836" lon="1.69108">
        <ele>118</ele>
        <time>2010-05-14T12:21:05Z</time>
      </trkpt>
      <trkpt lat="48.63835" lon="1.69105">
        <ele>118</ele>
        <time>2010-05-14T12:21:06Z</time>
      </trkpt>
      <trkpt lat="48.63834" lon="1.69103">
        <ele>118</ele>
        <time>2010-05-14T12:21:07Z</time>
      </trkpt>
      <trkpt lat="48.63833" lon="1.69101">
        <ele>118</ele>
        <time>2010-05-14T12:21:08Z</time>
      </trkpt>
      <trkpt lat="48.63831" lon="1.69099">
        <ele>118</ele>
        <time>2010-05-14T12:21:09Z</time>
      </trkpt>
      <trkpt lat="48.63829" lon="1.69097">
        <ele>118</ele>
        <time>2010-05-14T12:21:10Z</time>
      </trkpt>
      <trkpt lat="48.63827" lon="1.69094">
        <ele>118</ele>
        <time>2010-05-14T12:21:11Z</time>
      </trkpt>
      <trkpt lat="48.63827" lon="1.69091">
        <ele>118</ele>
        <time>2010-05-14T12:21:12Z</time>
      </trkpt>
      <trkpt lat="48.63826" lon="1.69089">
        <ele>117</ele>
        <time>2010-05-14T12:21:13Z</time>
      </trkpt>
      <trkpt lat="48.63825" lon="1.69088">
        <ele>117</ele>
        <time>2010-05-14T12:21:14Z</time>
      </trkpt>
      <trkpt lat="48.63824" lon="1.69085">
        <ele>117</ele>
        <time>2010-05-14T12:21:15Z</time>
      </trkpt>
      <trkpt lat="48.63822" lon="1.69084">
        <ele>117</ele>
        <time>2010-05-14T12:21:16Z</time>
      </trkpt>
      <trkpt lat="48.63821" lon="1.69083">
        <ele>117</ele>
        <time>2010-05-14T12:21:17Z</time>
      </trkpt>
      <trkpt lat="48.63819" lon="1.69081">
        <ele>117</ele>
        <time>2010-05-14T12:21:18Z</time>
      </trkpt>
      <trkpt lat="48.63818" lon="1.6908">
        <ele>117</ele>
        <time>2010-05-14T12:21:19Z</time>
      </trkpt>
      <trkpt lat="48.63817" lon="1.69078">
        <ele>117</ele>
        <time>2010-05-14T12:21:20Z</time>
      </trkpt>
      <trkpt lat="48.63815" lon="1.69074">
        <ele>117</ele>
        <time>2010-05-14T12:21:22Z</time>
      </trkpt>
      <trkpt lat="48.63814" lon="1.69071">
        <ele>117</ele>
        <time>2010-05-14T12:21:24Z</time>
      </trkpt>
      <trkpt lat="48.63813" lon="1.69068">
        <ele>117</ele>
        <time>2010-05-14T12:21:26Z</time>
      </trkpt>
      <trkpt lat="48.63812" lon="1.69066">
        <ele>117</ele>
        <time>2010-05-14T12:21:27Z</time>
      </trkpt>
      <trkpt lat="48.63811" lon="1.69065">
        <ele>117</ele>
        <time>2010-05-14T12:21:28Z</time>
      </trkpt>
      <trkpt lat="48.6381" lon="1.69063">
        <ele>117</ele>
        <time>2010-05-14T12:21:30Z</time>
      </trkpt>
      <trkpt lat="48.63809" lon="1.69059">
        <ele>117</ele>
        <time>2010-05-14T12:21:32Z</time>
      </trkpt>
      <trkpt lat="48.63809" lon="1.69057">
        <ele>117</ele>
        <time>2010-05-14T12:21:33Z</time>
      </trkpt>
      <trkpt lat="48.63809" lon="1.69055">
        <ele>117</ele>
        <time>2010-05-14T12:21:34Z</time>
      </trkpt>
      <trkpt lat="48.63808" lon="1.69053">
        <ele>117</ele>
        <time>2010-05-14T12:21:35Z</time>
      </trkpt>
      <trkpt lat="48.63808" lon="1.69051">
        <ele>118</ele>
        <time>2010-05-14T12:21:36Z</time>
      </trkpt>
      <trkpt lat="48.63807" lon="1.69049">
        <ele>118</ele>
        <time>2010-05-14T12:21:37Z</time>
      </trkpt>
      <trkpt lat="48.63807" lon="1.69046">
        <ele>119</ele>
        <time>2010-05-14T12:21:38Z</time>
      </trkpt>
      <trkpt lat="48.63806" lon="1.69045">
        <ele>119</ele>
        <time>2010-05-14T12:21:39Z</time>
      </trkpt>
      <trkpt lat="48.63806" lon="1.69043">
        <ele>120</ele>
        <time>2010-05-14T12:21:40Z</time>
      </trkpt>
      <trkpt lat="48.63806" lon="1.69041">
        <ele>121</ele>
        <time>2010-05-14T12:21:41Z</time>
      </trkpt>
      <trkpt lat="48.63805" lon="1.69039">
        <ele>121</ele>
        <time>2010-05-14T12:21:42Z</time>
      </trkpt>
      <trkpt lat="48.63805" lon="1.69038">
        <ele>121</ele>
        <time>2010-05-14T12:21:43Z</time>
      </trkpt>
      <trkpt lat="48.63804" lon="1.69036">
        <ele>122</ele>
        <time>2010-05-14T12:21:44Z</time>
      </trkpt>
      <trkpt lat="48.63804" lon="1.69034">
        <ele>122</ele>
        <time>2010-05-14T12:21:45Z</time>
      </trkpt>
      <trkpt lat="48.63802" lon="1.69031">
        <ele>122</ele>
        <time>2010-05-14T12:21:47Z</time>
      </trkpt>
      <trkpt lat="48.638" lon="1.69029">
        <ele>122</ele>
        <time>2010-05-14T12:21:48Z</time>
      </trkpt>
      <trkpt lat="48.638" lon="1.69027">
        <ele>122</ele>
        <time>2010-05-14T12:21:49Z</time>
      </trkpt>
      <trkpt lat="48.63799" lon="1.69024">
        <ele>122</ele>
        <time>2010-05-14T12:21:50Z</time>
      </trkpt>
      <trkpt lat="48.63798" lon="1.69021">
        <ele>122</ele>
        <time>2010-05-14T12:21:51Z</time>
      </trkpt>
      <trkpt lat="48.63798" lon="1.69019">
        <ele>122</ele>
        <time>2010-05-14T12:21:52Z</time>
      </trkpt>
      <trkpt lat="48.63797" lon="1.69017">
        <ele>122</ele>
        <time>2010-05-14T12:21:53Z</time>
      </trkpt>
      <trkpt lat="48.63795" lon="1.69015">
        <ele>122</ele>
        <time>2010-05-14T12:21:54Z</time>
      </trkpt>
      <trkpt lat="48.63793" lon="1.69012">
        <ele>122</ele>
        <time>2010-05-14T12:21:55Z</time>
      </trkpt>
      <trkpt lat="48.63793" lon="1.6901">
        <ele>122</ele>
        <time>2010-05-14T12:21:56Z</time>
      </trkpt>
      <trkpt lat="48.63792" lon="1.69008">
        <ele>122</ele>
        <time>2010-05-14T12:21:57Z</time>
      </trkpt>
      <trkpt lat="48.63791" lon="1.69005">
        <ele>122</ele>
        <time>2010-05-14T12:21:58Z</time>
      </trkpt>
      <trkpt lat="48.6379" lon="1.69002">
        <ele>122</ele>
        <time>2010-05-14T12:22:00Z</time>
      </trkpt>
      <trkpt lat="48.6379" lon="1.69">
        <ele>122</ele>
        <time>2010-05-14T12:22:01Z</time>
      </trkpt>
      <trkpt lat="48.63788" lon="1.68997">
        <ele>123</ele>
        <time>2010-05-14T12:22:04Z</time>
      </trkpt>
      <trkpt lat="48.63788" lon="1.68995">
        <ele>123</ele>
        <time>2010-05-14T12:22:05Z</time>
      </trkpt>
      <trkpt lat="48.63787" lon="1.68993">
        <ele>123</ele>
        <time>2010-05-14T12:22:06Z</time>
      </trkpt>
      <trkpt lat="48.63786" lon="1.6899">
        <ele>124</ele>
        <time>2010-05-14T12:22:07Z</time>
      </trkpt>
      <trkpt lat="48.63785" lon="1.68988">
        <ele>124</ele>
        <time>2010-05-14T12:22:08Z</time>
      </trkpt>
      <trkpt lat="48.63784" lon="1.68985">
        <ele>126</ele>
        <time>2010-05-14T12:22:10Z</time>
      </trkpt>
      <trkpt lat="48.63784" lon="1.68983">
        <ele>126</ele>
        <time>2010-05-14T12:22:11Z</time>
      </trkpt>
      <trkpt lat="48.63782" lon="1.68979">
        <ele>126</ele>
        <time>2010-05-14T12:22:13Z</time>
      </trkpt>
      <trkpt lat="48.6378" lon="1.68976">
        <ele>126</ele>
        <time>2010-05-14T12:22:14Z</time>
      </trkpt>
      <trkpt lat="48.63775" lon="1.68965">
        <ele>126</ele>
        <time>2010-05-14T12:22:18Z</time>
      </trkpt>
      <trkpt lat="48.63772" lon="1.68959">
        <ele>126</ele>
        <time>2010-05-14T12:22:19Z</time>
      </trkpt>
      <trkpt lat="48.6377" lon="1.68953">
        <ele>126</ele>
        <time>2010-05-14T12:22:20Z</time>
      </trkpt>
      <trkpt lat="48.63769" lon="1.68952">
        <ele>126</ele>
        <time>2010-05-14T12:22:21Z</time>
      </trkpt>
      <trkpt lat="48.63767" lon="1.68947">
        <ele>126</ele>
        <time>2010-05-14T12:22:23Z</time>
      </trkpt>
      <trkpt lat="48.63766" lon="1.68945">
        <ele>127</ele>
        <time>2010-05-14T12:22:24Z</time>
      </trkpt>
      <trkpt lat="48.63764" lon="1.68943">
        <ele>127</ele>
        <time>2010-05-14T12:22:25Z</time>
      </trkpt>
      <trkpt lat="48.63763" lon="1.68942">
        <ele>127</ele>
        <time>2010-05-14T12:22:27Z</time>
      </trkpt>
      <trkpt lat="48.63762" lon="1.6894">
        <ele>127</ele>
        <time>2010-05-14T12:22:29Z</time>
      </trkpt>
      <trkpt lat="48.63761" lon="1.68939">
        <ele>127</ele>
        <time>2010-05-14T12:22:30Z</time>
      </trkpt>
      <trkpt lat="48.6376" lon="1.68937">
        <ele>127</ele>
        <time>2010-05-14T12:22:32Z</time>
      </trkpt>
      <trkpt lat="48.63759" lon="1.68933">
        <ele>127</ele>
        <time>2010-05-14T12:22:34Z</time>
      </trkpt>
      <trkpt lat="48.63759" lon="1.68932">
        <ele>127</ele>
        <time>2010-05-14T12:22:35Z</time>
      </trkpt>
      <trkpt lat="48.63758" lon="1.68929">
        <ele>127</ele>
        <time>2010-05-14T12:22:36Z</time>
      </trkpt>
      <trkpt lat="48.63757" lon="1.68928">
        <ele>127</ele>
        <time>2010-05-14T12:22:37Z</time>
      </trkpt>
      <trkpt lat="48.63757" lon="1.68926">
        <ele>127</ele>
        <time>2010-05-14T12:22:38Z</time>
      </trkpt>
      <trkpt lat="48.63757" lon="1.68923">
        <ele>127</ele>
        <time>2010-05-14T12:22:40Z</time>
      </trkpt>
      <trkpt lat="48.63756" lon="1.68921">
        <ele>127</ele>
        <time>2010-05-14T12:22:42Z</time>
      </trkpt>
      <trkpt lat="48.63755" lon="1.68919">
        <ele>126</ele>
        <time>2010-05-14T12:22:46Z</time>
      </trkpt>
      <trkpt lat="48.63755" lon="1.68916">
        <ele>125</ele>
        <time>2010-05-14T12:22:48Z</time>
      </trkpt>
      <trkpt lat="48.63753" lon="1.68913">
        <ele>124</ele>
        <time>2010-05-14T12:22:50Z</time>
      </trkpt>
      <trkpt lat="48.63751" lon="1.6891">
        <ele>123</ele>
        <time>2010-05-14T12:22:51Z</time>
      </trkpt>
      <trkpt lat="48.63749" lon="1.68908">
        <ele>123</ele>
        <time>2010-05-14T12:22:52Z</time>
      </trkpt>
      <trkpt lat="48.63747" lon="1.68906">
        <ele>122</ele>
        <time>2010-05-14T12:22:53Z</time>
      </trkpt>
      <trkpt lat="48.63747" lon="1.68904">
        <ele>121</ele>
        <time>2010-05-14T12:22:54Z</time>
      </trkpt>
      <trkpt lat="48.63746" lon="1.68901">
        <ele>121</ele>
        <time>2010-05-14T12:22:55Z</time>
      </trkpt>
      <trkpt lat="48.63746" lon="1.68899">
        <ele>121</ele>
        <time>2010-05-14T12:22:56Z</time>
      </trkpt>
      <trkpt lat="48.63745" lon="1.68895">
        <ele>121</ele>
        <time>2010-05-14T12:22:58Z</time>
      </trkpt>
      <trkpt lat="48.63743" lon="1.68893">
        <ele>121</ele>
        <time>2010-05-14T12:22:59Z</time>
      </trkpt>
      <trkpt lat="48.63742" lon="1.68891">
        <ele>121</ele>
        <time>2010-05-14T12:23:00Z</time>
      </trkpt>
      <trkpt lat="48.63741" lon="1.68888">
        <ele>121</ele>
        <time>2010-05-14T12:23:01Z</time>
      </trkpt>
      <trkpt lat="48.6374" lon="1.68886">
        <ele>121</ele>
        <time>2010-05-14T12:23:02Z</time>
      </trkpt>
      <trkpt lat="48.6374" lon="1.68884">
        <ele>121</ele>
        <time>2010-05-14T12:23:03Z</time>
      </trkpt>
      <trkpt lat="48.63739" lon="1.68882">
        <ele>121</ele>
        <time>2010-05-14T12:23:04Z</time>
      </trkpt>
      <trkpt lat="48.63738" lon="1.68879">
        <ele>121</ele>
        <time>2010-05-14T12:23:05Z</time>
      </trkpt>
      <trkpt lat="48.63737" lon="1.68876">
        <ele>121</ele>
        <time>2010-05-14T12:23:06Z</time>
      </trkpt>
      <trkpt lat="48.63736" lon="1.68873">
        <ele>121</ele>
        <time>2010-05-14T12:23:09Z</time>
      </trkpt>
      <trkpt lat="48.63735" lon="1.68871">
        <ele>121</ele>
        <time>2010-05-14T12:23:10Z</time>
      </trkpt>
      <trkpt lat="48.63735" lon="1.68869">
        <ele>121</ele>
        <time>2010-05-14T12:23:11Z</time>
      </trkpt>
      <trkpt lat="48.63734" lon="1.68866">
        <ele>122</ele>
        <time>2010-05-14T12:23:13Z</time>
      </trkpt>
      <trkpt lat="48.63734" lon="1.68865">
        <ele>123</ele>
        <time>2010-05-14T12:23:14Z</time>
      </trkpt>
      <trkpt lat="48.63733" lon="1.68861">
        <ele>125</ele>
        <time>2010-05-14T12:23:16Z</time>
      </trkpt>
      <trkpt lat="48.63732" lon="1.68859">
        <ele>126</ele>
        <time>2010-05-14T12:23:17Z</time>
      </trkpt>
      <trkpt lat="48.63733" lon="1.68857">
        <ele>127</ele>
        <time>2010-05-14T12:23:19Z</time>
      </trkpt>
      <trkpt lat="48.63731" lon="1.68855">
        <ele>127</ele>
        <time>2010-05-14T12:23:21Z</time>
      </trkpt>
      <trkpt lat="48.6373" lon="1.68853">
        <ele>127</ele>
        <time>2010-05-14T12:23:23Z</time>
      </trkpt>
      <trkpt lat="48.63729" lon="1.6885">
        <ele>127</ele>
        <time>2010-05-14T12:23:25Z</time>
      </trkpt>
      <trkpt lat="48.63727" lon="1.68847">
        <ele>127</ele>
        <time>2010-05-14T12:23:27Z</time>
      </trkpt>
      <trkpt lat="48.63726" lon="1.68846">
        <ele>127</ele>
        <time>2010-05-14T12:23:28Z</time>
      </trkpt>
      <trkpt lat="48.63725" lon="1.68843">
        <ele>127</ele>
        <time>2010-05-14T12:23:30Z</time>
      </trkpt>
      <trkpt lat="48.63725" lon="1.6884">
        <ele>127</ele>
        <time>2010-05-14T12:23:31Z</time>
      </trkpt>
      <trkpt lat="48.63724" lon="1.68838">
        <ele>127</ele>
        <time>2010-05-14T12:23:32Z</time>
      </trkpt>
      <trkpt lat="48.63723" lon="1.68838">
        <ele>127</ele>
        <time>2010-05-14T12:23:34Z</time>
      </trkpt>
      <trkpt lat="48.63721" lon="1.68835">
        <ele>127</ele>
        <time>2010-05-14T12:23:37Z</time>
      </trkpt>
      <trkpt lat="48.6372" lon="1.68833">
        <ele>127</ele>
        <time>2010-05-14T12:23:40Z</time>
      </trkpt>
      <trkpt lat="48.6372" lon="1.6883">
        <ele>127</ele>
        <time>2010-05-14T12:23:42Z</time>
      </trkpt>
      <trkpt lat="48.63718" lon="1.68827">
        <ele>127</ele>
        <time>2010-05-14T12:23:44Z</time>
      </trkpt>
      <trkpt lat="48.63718" lon="1.68825">
        <ele>126</ele>
        <time>2010-05-14T12:23:46Z</time>
      </trkpt>
      <trkpt lat="48.63717" lon="1.68823">
        <ele>125</ele>
        <time>2010-05-14T12:23:47Z</time>
      </trkpt>
      <trkpt lat="48.63717" lon="1.68821">
        <ele>125</ele>
        <time>2010-05-14T12:23:48Z</time>
      </trkpt>
      <trkpt lat="48.63716" lon="1.68819">
        <ele>124</ele>
        <time>2010-05-14T12:23:50Z</time>
      </trkpt>
      <trkpt lat="48.63715" lon="1.68816">
        <ele>124</ele>
        <time>2010-05-14T12:23:52Z</time>
      </trkpt>
      <trkpt lat="48.63713" lon="1.68814">
        <ele>124</ele>
        <time>2010-05-14T12:23:53Z</time>
      </trkpt>
      <trkpt lat="48.63712" lon="1.68812">
        <ele>124</ele>
        <time>2010-05-14T12:23:54Z</time>
      </trkpt>
      <trkpt lat="48.6371" lon="1.68809">
        <ele>124</ele>
        <time>2010-05-14T12:23:55Z</time>
      </trkpt>
      <trkpt lat="48.63709" lon="1.68808">
        <ele>123</ele>
        <time>2010-05-14T12:23:56Z</time>
      </trkpt>
      <trkpt lat="48.63707" lon="1.68802">
        <ele>122</ele>
        <time>2010-05-14T12:23:59Z</time>
      </trkpt>
      <trkpt lat="48.63707" lon="1.68786">
        <ele>121</ele>
        <time>2010-05-14T12:24:05Z</time>
      </trkpt>
      <trkpt lat="48.63705" lon="1.68781">
        <ele>120</ele>
        <time>2010-05-14T12:24:06Z</time>
      </trkpt>
      <trkpt lat="48.63701" lon="1.68775">
        <ele>119</ele>
        <time>2010-05-14T12:24:07Z</time>
      </trkpt>
      <trkpt lat="48.63698" lon="1.6877">
        <ele>118</ele>
        <time>2010-05-14T12:24:08Z</time>
      </trkpt>
      <trkpt lat="48.63694" lon="1.68759">
        <ele>117</ele>
        <time>2010-05-14T12:24:09Z</time>
      </trkpt>
      <trkpt lat="48.63693" lon="1.68756">
        <ele>116</ele>
        <time>2010-05-14T12:24:10Z</time>
      </trkpt>
      <trkpt lat="48.6369" lon="1.6875">
        <ele>116</ele>
        <time>2010-05-14T12:24:11Z</time>
      </trkpt>
      <trkpt lat="48.63686" lon="1.68746">
        <ele>116</ele>
        <time>2010-05-14T12:24:12Z</time>
      </trkpt>
      <trkpt lat="48.63685" lon="1.68743">
        <ele>116</ele>
        <time>2010-05-14T12:24:13Z</time>
      </trkpt>
      <trkpt lat="48.63685" lon="1.68741">
        <ele>116</ele>
        <time>2010-05-14T12:24:14Z</time>
      </trkpt>
      <trkpt lat="48.63684" lon="1.68738">
        <ele>116</ele>
        <time>2010-05-14T12:24:15Z</time>
      </trkpt>
      <trkpt lat="48.63684" lon="1.68735">
        <ele>116</ele>
        <time>2010-05-14T12:24:16Z</time>
      </trkpt>
      <trkpt lat="48.63683" lon="1.68732">
        <ele>116</ele>
        <time>2010-05-14T12:24:17Z</time>
      </trkpt>
      <trkpt lat="48.63682" lon="1.68728">
        <ele>116</ele>
        <time>2010-05-14T12:24:18Z</time>
      </trkpt>
      <trkpt lat="48.63681" lon="1.68724">
        <ele>116</ele>
        <time>2010-05-14T12:24:19Z</time>
      </trkpt>
      <trkpt lat="48.63681" lon="1.68721">
        <ele>116</ele>
        <time>2010-05-14T12:24:20Z</time>
      </trkpt>
      <trkpt lat="48.6368" lon="1.68719">
        <ele>116</ele>
        <time>2010-05-14T12:24:21Z</time>
      </trkpt>
      <trkpt lat="48.6368" lon="1.68717">
        <ele>116</ele>
        <time>2010-05-14T12:24:22Z</time>
      </trkpt>
      <trkpt lat="48.6368" lon="1.68716">
        <ele>117</ele>
        <time>2010-05-14T12:24:23Z</time>
      </trkpt>
      <trkpt lat="48.6368" lon="1.68714">
        <ele>118</ele>
        <time>2010-05-14T12:24:24Z</time>
      </trkpt>
      <trkpt lat="48.6368" lon="1.68712">
        <ele>119</ele>
        <time>2010-05-14T12:24:25Z</time>
      </trkpt>
      <trkpt lat="48.63681" lon="1.6871">
        <ele>120</ele>
        <time>2010-05-14T12:24:26Z</time>
      </trkpt>
      <trkpt lat="48.6368" lon="1.68707">
        <ele>121</ele>
        <time>2010-05-14T12:24:27Z</time>
      </trkpt>
      <trkpt lat="48.63681" lon="1.68705">
        <ele>121</ele>
        <time>2010-05-14T12:24:28Z</time>
      </trkpt>
      <trkpt lat="48.63681" lon="1.68702">
        <ele>122</ele>
        <time>2010-05-14T12:24:30Z</time>
      </trkpt>
      <trkpt lat="48.6368" lon="1.687">
        <ele>122</ele>
        <time>2010-05-14T12:24:31Z</time>
      </trkpt>
      <trkpt lat="48.6368" lon="1.68698">
        <ele>122</ele>
        <time>2010-05-14T12:24:32Z</time>
      </trkpt>
      <trkpt lat="48.6368" lon="1.68696">
        <ele>122</ele>
        <time>2010-05-14T12:24:33Z</time>
      </trkpt>
      <trkpt lat="48.63679" lon="1.68692">
        <ele>122</ele>
        <time>2010-05-14T12:24:34Z</time>
      </trkpt>
      <trkpt lat="48.63678" lon="1.68689">
        <ele>122</ele>
        <time>2010-05-14T12:24:35Z</time>
      </trkpt>
      <trkpt lat="48.63678" lon="1.68685">
        <ele>122</ele>
        <time>2010-05-14T12:24:36Z</time>
      </trkpt>
      <trkpt lat="48.63678" lon="1.68683">
        <ele>122</ele>
        <time>2010-05-14T12:24:37Z</time>
      </trkpt>
      <trkpt lat="48.63678" lon="1.6868">
        <ele>122</ele>
        <time>2010-05-14T12:24:38Z</time>
      </trkpt>
      <trkpt lat="48.63677" lon="1.68677">
        <ele>122</ele>
        <time>2010-05-14T12:24:39Z</time>
      </trkpt>
      <trkpt lat="48.63677" lon="1.68675">
        <ele>122</ele>
        <time>2010-05-14T12:24:40Z</time>
      </trkpt>
      <trkpt lat="48.63677" lon="1.68671">
        <ele>122</ele>
        <time>2010-05-14T12:24:41Z</time>
      </trkpt>
      <trkpt lat="48.63678" lon="1.68669">
        <ele>122</ele>
        <time>2010-05-14T12:24:42Z</time>
      </trkpt>
      <trkpt lat="48.63678" lon="1.68667">
        <ele>122</ele>
        <time>2010-05-14T12:24:43Z</time>
      </trkpt>
      <trkpt lat="48.63678" lon="1.68665">
        <ele>122</ele>
        <time>2010-05-14T12:24:44Z</time>
      </trkpt>
      <trkpt lat="48.63678" lon="1.68662">
        <ele>122</ele>
        <time>2010-05-14T12:24:45Z</time>
      </trkpt>
      <trkpt lat="48.63678" lon="1.68658">
        <ele>122</ele>
        <time>2010-05-14T12:24:46Z</time>
      </trkpt>
      <trkpt lat="48.63677" lon="1.68656">
        <ele>123</ele>
        <time>2010-05-14T12:24:47Z</time>
      </trkpt>
      <trkpt lat="48.63677" lon="1.68653">
        <ele>123</ele>
        <time>2010-05-14T12:24:48Z</time>
      </trkpt>
      <trkpt lat="48.63677" lon="1.68651">
        <ele>124</ele>
        <time>2010-05-14T12:24:49Z</time>
      </trkpt>
      <trkpt lat="48.63677" lon="1.68649">
        <ele>124</ele>
        <time>2010-05-14T12:24:50Z</time>
      </trkpt>
      <trkpt lat="48.63677" lon="1.68647">
        <ele>124</ele>
        <time>2010-05-14T12:24:51Z</time>
      </trkpt>
      <trkpt lat="48.63677" lon="1.68644">
        <ele>125</ele>
        <time>2010-05-14T12:24:52Z</time>
      </trkpt>
      <trkpt lat="48.63677" lon="1.68642">
        <ele>125</ele>
        <time>2010-05-14T12:24:53Z</time>
      </trkpt>
      <trkpt lat="48.63678" lon="1.68639">
        <ele>127</ele>
        <time>2010-05-14T12:24:55Z</time>
      </trkpt>
      <trkpt lat="48.63679" lon="1.68638">
        <ele>128</ele>
        <time>2010-05-14T12:24:56Z</time>
      </trkpt>
      <trkpt lat="48.63679" lon="1.68635">
        <ele>128</ele>
        <time>2010-05-14T12:24:57Z</time>
      </trkpt>
      <trkpt lat="48.6368" lon="1.68633">
        <ele>129</ele>
        <time>2010-05-14T12:24:58Z</time>
      </trkpt>
      <trkpt lat="48.63679" lon="1.6863">
        <ele>129</ele>
        <time>2010-05-14T12:25:00Z</time>
      </trkpt>
      <trkpt lat="48.63679" lon="1.68628">
        <ele>129</ele>
        <time>2010-05-14T12:25:01Z</time>
      </trkpt>
      <trkpt lat="48.63679" lon="1.68625">
        <ele>129</ele>
        <time>2010-05-14T12:25:02Z</time>
      </trkpt>
      <trkpt lat="48.63679" lon="1.68622">
        <ele>129</ele>
        <time>2010-05-14T12:25:03Z</time>
      </trkpt>
      <trkpt lat="48.63679" lon="1.6862">
        <ele>129</ele>
        <time>2010-05-14T12:25:04Z</time>
      </trkpt>
      <trkpt lat="48.63679" lon="1.68617">
        <ele>129</ele>
        <time>2010-05-14T12:25:05Z</time>
      </trkpt>
      <trkpt lat="48.63678" lon="1.68615">
        <ele>129</ele>
        <time>2010-05-14T12:25:06Z</time>
      </trkpt>
      <trkpt lat="48.63678" lon="1.68613">
        <ele>129</ele>
        <time>2010-05-14T12:25:07Z</time>
      </trkpt>
      <trkpt lat="48.63679" lon="1.68611">
        <ele>129</ele>
        <time>2010-05-14T12:25:08Z</time>
      </trkpt>
      <trkpt lat="48.6368" lon="1.68608">
        <ele>129</ele>
        <time>2010-05-14T12:25:10Z</time>
      </trkpt>
      <trkpt lat="48.63681" lon="1.68605">
        <ele>129</ele>
        <time>2010-05-14T12:25:12Z</time>
      </trkpt>
      <trkpt lat="48.63681" lon="1.68604">
        <ele>129</ele>
        <time>2010-05-14T12:25:13Z</time>
      </trkpt>
      <trkpt lat="48.63681" lon="1.68601">
        <ele>129</ele>
        <time>2010-05-14T12:25:14Z</time>
      </trkpt>
      <trkpt lat="48.6368" lon="1.68597">
        <ele>129</ele>
        <time>2010-05-14T12:25:15Z</time>
      </trkpt>
      <trkpt lat="48.63679" lon="1.68595">
        <ele>129</ele>
        <time>2010-05-14T12:25:16Z</time>
      </trkpt>
      <trkpt lat="48.63679" lon="1.68593">
        <ele>129</ele>
        <time>2010-05-14T12:25:17Z</time>
      </trkpt>
      <trkpt lat="48.63679" lon="1.68591">
        <ele>129</ele>
        <time>2010-05-14T12:25:18Z</time>
      </trkpt>
      <trkpt lat="48.63678" lon="1.68588">
        <ele>129</ele>
        <time>2010-05-14T12:25:20Z</time>
      </trkpt>
      <trkpt lat="48.63679" lon="1.68586">
        <ele>129</ele>
        <time>2010-05-14T12:25:21Z</time>
      </trkpt>
      <trkpt lat="48.63679" lon="1.68584">
        <ele>128</ele>
        <time>2010-05-14T12:25:22Z</time>
      </trkpt>
      <trkpt lat="48.63679" lon="1.68581">
        <ele>128</ele>
        <time>2010-05-14T12:25:23Z</time>
      </trkpt>
      <trkpt lat="48.63679" lon="1.68578">
        <ele>128</ele>
        <time>2010-05-14T12:25:24Z</time>
      </trkpt>
      <trkpt lat="48.6368" lon="1.68576">
        <ele>128</ele>
        <time>2010-05-14T12:25:25Z</time>
      </trkpt>
      <trkpt lat="48.63681" lon="1.68572">
        <ele>128</ele>
        <time>2010-05-14T12:25:26Z</time>
      </trkpt>
      <trkpt lat="48.63681" lon="1.6857">
        <ele>128</ele>
        <time>2010-05-14T12:25:27Z</time>
      </trkpt>
      <trkpt lat="48.63681" lon="1.68568">
        <ele>128</ele>
        <time>2010-05-14T12:25:28Z</time>
      </trkpt>
      <trkpt lat="48.63682" lon="1.68566">
        <ele>129</ele>
        <time>2010-05-14T12:25:29Z</time>
      </trkpt>
      <trkpt lat="48.63682" lon="1.68561">
        <ele>131</ele>
        <time>2010-05-14T12:25:31Z</time>
      </trkpt>
      <trkpt lat="48.63682" lon="1.68556">
        <ele>132</ele>
        <time>2010-05-14T12:25:34Z</time>
      </trkpt>
      <trkpt lat="48.63681" lon="1.68551">
        <ele>132</ele>
        <time>2010-05-14T12:25:35Z</time>
      </trkpt>
      <trkpt lat="48.63682" lon="1.68546">
        <ele>132</ele>
        <time>2010-05-14T12:25:36Z</time>
      </trkpt>
      <trkpt lat="48.63683" lon="1.68542">
        <ele>132</ele>
        <time>2010-05-14T12:25:37Z</time>
      </trkpt>
      <trkpt lat="48.63684" lon="1.68539">
        <ele>132</ele>
        <time>2010-05-14T12:25:38Z</time>
      </trkpt>
      <trkpt lat="48.63684" lon="1.68536">
        <ele>132</ele>
        <time>2010-05-14T12:25:39Z</time>
      </trkpt>
      <trkpt lat="48.63684" lon="1.68533">
        <ele>131</ele>
        <time>2010-05-14T12:25:40Z</time>
      </trkpt>
      <trkpt lat="48.63683" lon="1.68531">
        <ele>130</ele>
        <time>2010-05-14T12:25:41Z</time>
      </trkpt>
      <trkpt lat="48.63682" lon="1.68529">
        <ele>129</ele>
        <time>2010-05-14T12:25:42Z</time>
      </trkpt>
      <trkpt lat="48.63682" lon="1.68527">
        <ele>128</ele>
        <time>2010-05-14T12:25:43Z</time>
      </trkpt>
      <trkpt lat="48.63682" lon="1.68525">
        <ele>128</ele>
        <time>2010-05-14T12:25:45Z</time>
      </trkpt>
      <trkpt lat="48.63682" lon="1.68522">
        <ele>128</ele>
        <time>2010-05-14T12:25:46Z</time>
      </trkpt>
      <trkpt lat="48.63681" lon="1.68519">
        <ele>128</ele>
        <time>2010-05-14T12:25:47Z</time>
      </trkpt>
      <trkpt lat="48.63681" lon="1.68516">
        <ele>128</ele>
        <time>2010-05-14T12:25:48Z</time>
      </trkpt>
      <trkpt lat="48.63681" lon="1.68513">
        <ele>127</ele>
        <time>2010-05-14T12:25:49Z</time>
      </trkpt>
      <trkpt lat="48.6368" lon="1.6851">
        <ele>127</ele>
        <time>2010-05-14T12:25:50Z</time>
      </trkpt>
      <trkpt lat="48.63679" lon="1.68508">
        <ele>126</ele>
        <time>2010-05-14T12:25:51Z</time>
      </trkpt>
      <trkpt lat="48.63678" lon="1.68506">
        <ele>126</ele>
        <time>2010-05-14T12:25:52Z</time>
      </trkpt>
      <trkpt lat="48.63678" lon="1.68504">
        <ele>126</ele>
        <time>2010-05-14T12:25:53Z</time>
      </trkpt>
      <trkpt lat="48.63677" lon="1.68501">
        <ele>126</ele>
        <time>2010-05-14T12:25:54Z</time>
      </trkpt>
      <trkpt lat="48.63677" lon="1.68499">
        <ele>126</ele>
        <time>2010-05-14T12:25:55Z</time>
      </trkpt>
      <trkpt lat="48.63676" lon="1.68497">
        <ele>126</ele>
        <time>2010-05-14T12:25:56Z</time>
      </trkpt>
      <trkpt lat="48.63675" lon="1.68495">
        <ele>126</ele>
        <time>2010-05-14T12:25:57Z</time>
      </trkpt>
      <trkpt lat="48.63675" lon="1.68492">
        <ele>126</ele>
        <time>2010-05-14T12:25:58Z</time>
      </trkpt>
      <trkpt lat="48.63674" lon="1.68488">
        <ele>125</ele>
        <time>2010-05-14T12:26:00Z</time>
      </trkpt>
      <trkpt lat="48.63673" lon="1.68486">
        <ele>124</ele>
        <time>2010-05-14T12:26:01Z</time>
      </trkpt>
      <trkpt lat="48.63673" lon="1.68482">
        <ele>123</ele>
        <time>2010-05-14T12:26:03Z</time>
      </trkpt>
      <trkpt lat="48.63672" lon="1.6848">
        <ele>122</ele>
        <time>2010-05-14T12:26:04Z</time>
      </trkpt>
      <trkpt lat="48.63672" lon="1.68476">
        <ele>121</ele>
        <time>2010-05-14T12:26:06Z</time>
      </trkpt>
      <trkpt lat="48.63672" lon="1.68474">
        <ele>120</ele>
        <time>2010-05-14T12:26:07Z</time>
      </trkpt>
      <trkpt lat="48.63672" lon="1.68464">
        <ele>120</ele>
        <time>2010-05-14T12:26:11Z</time>
      </trkpt>
      <trkpt lat="48.63672" lon="1.68457">
        <ele>119</ele>
        <time>2010-05-14T12:26:12Z</time>
      </trkpt>
      <trkpt lat="48.6367" lon="1.68454">
        <ele>119</ele>
        <time>2010-05-14T12:26:13Z</time>
      </trkpt>
      <trkpt lat="48.63668" lon="1.6845">
        <ele>118</ele>
        <time>2010-05-14T12:26:14Z</time>
      </trkpt>
      <trkpt lat="48.63668" lon="1.68448">
        <ele>118</ele>
        <time>2010-05-14T12:26:15Z</time>
      </trkpt>
      <trkpt lat="48.63666" lon="1.68444">
        <ele>118</ele>
        <time>2010-05-14T12:26:16Z</time>
      </trkpt>
      <trkpt lat="48.63664" lon="1.6844">
        <ele>118</ele>
        <time>2010-05-14T12:26:18Z</time>
      </trkpt>
      <trkpt lat="48.63663" lon="1.68437">
        <ele>118</ele>
        <time>2010-05-14T12:26:20Z</time>
      </trkpt>
      <trkpt lat="48.63662" lon="1.68433">
        <ele>118</ele>
        <time>2010-05-14T12:26:22Z</time>
      </trkpt>
      <trkpt lat="48.63661" lon="1.68431">
        <ele>118</ele>
        <time>2010-05-14T12:26:23Z</time>
      </trkpt>
      <trkpt lat="48.6366" lon="1.68429">
        <ele>118</ele>
        <time>2010-05-14T12:26:24Z</time>
      </trkpt>
      <trkpt lat="48.6366" lon="1.68427">
        <ele>118</ele>
        <time>2010-05-14T12:26:25Z</time>
      </trkpt>
      <trkpt lat="48.63659" lon="1.68425">
        <ele>118</ele>
        <time>2010-05-14T12:26:26Z</time>
      </trkpt>
      <trkpt lat="48.63657" lon="1.68422">
        <ele>118</ele>
        <time>2010-05-14T12:26:28Z</time>
      </trkpt>
      <trkpt lat="48.63655" lon="1.68419">
        <ele>118</ele>
        <time>2010-05-14T12:26:30Z</time>
      </trkpt>
      <trkpt lat="48.63654" lon="1.68417">
        <ele>118</ele>
        <time>2010-05-14T12:26:32Z</time>
      </trkpt>
      <trkpt lat="48.63654" lon="1.68415">
        <ele>114</ele>
        <time>2010-05-14T12:26:41Z</time>
      </trkpt>
      <trkpt lat="48.63656" lon="1.68416">
        <ele>114</ele>
        <time>2010-05-14T12:26:43Z</time>
      </trkpt>
      <trkpt lat="48.63657" lon="1.68415">
        <ele>114</ele>
        <time>2010-05-14T12:26:45Z</time>
      </trkpt>
      <trkpt lat="48.63655" lon="1.68413">
        <ele>114</ele>
        <time>2010-05-14T12:26:49Z</time>
      </trkpt>
      <trkpt lat="48.63654" lon="1.68411">
        <ele>114</ele>
        <time>2010-05-14T12:26:50Z</time>
      </trkpt>
      <trkpt lat="48.63653" lon="1.68408">
        <ele>114</ele>
        <time>2010-05-14T12:26:51Z</time>
      </trkpt>
      <trkpt lat="48.63653" lon="1.68405">
        <ele>114</ele>
        <time>2010-05-14T12:26:52Z</time>
      </trkpt>
      <trkpt lat="48.63653" lon="1.68403">
        <ele>114</ele>
        <time>2010-05-14T12:26:53Z</time>
      </trkpt>
      <trkpt lat="48.63653" lon="1.68401">
        <ele>117</ele>
        <time>2010-05-14T12:26:56Z</time>
      </trkpt>
      <trkpt lat="48.63653" lon="1.68403">
        <ele>119</ele>
        <time>2010-05-14T12:27:03Z</time>
      </trkpt>
      <trkpt lat="48.63654" lon="1.68405">
        <ele>119</ele>
        <time>2010-05-14T12:27:05Z</time>
      </trkpt>
      <trkpt lat="48.63654" lon="1.68407">
        <ele>119</ele>
        <time>2010-05-14T12:27:08Z</time>
      </trkpt>
      <trkpt lat="48.63653" lon="1.68405">
        <ele>119</ele>
        <time>2010-05-14T12:27:12Z</time>
      </trkpt>
      <trkpt lat="48.63654" lon="1.68407">
        <ele>119</ele>
        <time>2010-05-14T12:27:23Z</time>
      </trkpt>
      <trkpt lat="48.63652" lon="1.68403">
        <ele>118</ele>
        <time>2010-05-14T12:27:30Z</time>
      </trkpt>
      <trkpt lat="48.63652" lon="1.68407">
        <ele>118</ele>
        <time>2010-05-14T12:27:31Z</time>
      </trkpt>
      <trkpt lat="48.63653" lon="1.68406">
        <ele>118</ele>
        <time>2010-05-14T12:27:34Z</time>
      </trkpt>
      <trkpt lat="48.63654" lon="1.68408">
        <ele>118</ele>
        <time>2010-05-14T12:27:42Z</time>
      </trkpt>
      <trkpt lat="48.63655" lon="1.68411">
        <ele>120</ele>
        <time>2010-05-14T12:27:45Z</time>
      </trkpt>
      <trkpt lat="48.63654" lon="1.68411">
        <ele>120</ele>
        <time>2010-05-14T12:27:52Z</time>
      </trkpt>
      <trkpt lat="48.63653" lon="1.6841">
        <ele>116</ele>
        <time>2010-05-14T12:28:00Z</time>
      </trkpt>
      <trkpt lat="48.63653" lon="1.68408">
        <ele>116</ele>
        <time>2010-05-14T12:28:03Z</time>
      </trkpt>
      <trkpt lat="48.63655" lon="1.68407">
        <ele>116</ele>
        <time>2010-05-14T12:28:10Z</time>
      </trkpt>
      <trkpt lat="48.63655" lon="1.68405">
        <ele>117</ele>
        <time>2010-05-14T12:28:12Z</time>
      </trkpt>
      <trkpt lat="48.63653" lon="1.68405">
        <ele>119</ele>
        <time>2010-05-14T12:28:14Z</time>
      </trkpt>
      <trkpt lat="48.63654" lon="1.68406">
        <ele>120</ele>
        <time>2010-05-14T12:28:17Z</time>
      </trkpt>
      <trkpt lat="48.63653" lon="1.68408">
        <ele>120</ele>
        <time>2010-05-14T12:28:20Z</time>
      </trkpt>
      <trkpt lat="48.63651" lon="1.68408">
        <ele>120</ele>
        <time>2010-05-14T12:28:27Z</time>
      </trkpt>
      <trkpt lat="48.63651" lon="1.6841">
        <ele>120</ele>
        <time>2010-05-14T12:28:29Z</time>
      </trkpt>
      <trkpt lat="48.63651" lon="1.68412">
        <ele>120</ele>
        <time>2010-05-14T12:28:31Z</time>
      </trkpt>
      <trkpt lat="48.63652" lon="1.68414">
        <ele>119</ele>
        <time>2010-05-14T12:28:34Z</time>
      </trkpt>
      <trkpt lat="48.63652" lon="1.68415">
        <ele>119</ele>
        <time>2010-05-14T12:28:35Z</time>
      </trkpt>
      <trkpt lat="48.63651" lon="1.68418">
        <ele>117</ele>
        <time>2010-05-14T12:28:37Z</time>
      </trkpt>
      <trkpt lat="48.6365" lon="1.68417">
        <ele>114</ele>
        <time>2010-05-14T12:28:45Z</time>
      </trkpt>
      <trkpt lat="48.63648" lon="1.68416">
        <ele>114</ele>
        <time>2010-05-14T12:28:48Z</time>
      </trkpt>
      <trkpt lat="48.63647" lon="1.68415">
        <ele>114</ele>
        <time>2010-05-14T12:28:50Z</time>
      </trkpt>
      <trkpt lat="48.63647" lon="1.68413">
        <ele>114</ele>
        <time>2010-05-14T12:28:52Z</time>
      </trkpt>
      <trkpt lat="48.63647" lon="1.68411">
        <ele>115</ele>
        <time>2010-05-14T12:28:53Z</time>
      </trkpt>
      <trkpt lat="48.63647" lon="1.6841">
        <ele>116</ele>
        <time>2010-05-14T12:28:54Z</time>
      </trkpt>
      <trkpt lat="48.63647" lon="1.68408">
        <ele>117</ele>
        <time>2010-05-14T12:28:55Z</time>
      </trkpt>
      <trkpt lat="48.63647" lon="1.68406">
        <ele>119</ele>
        <time>2010-05-14T12:28:57Z</time>
      </trkpt>
      <trkpt lat="48.63646" lon="1.68404">
        <ele>121</ele>
        <time>2010-05-14T12:28:59Z</time>
      </trkpt>
      <trkpt lat="48.63645" lon="1.68401">
        <ele>122</ele>
        <time>2010-05-14T12:29:01Z</time>
      </trkpt>
      <trkpt lat="48.63645" lon="1.68399">
        <ele>123</ele>
        <time>2010-05-14T12:29:03Z</time>
      </trkpt>
      <trkpt lat="48.63646" lon="1.68399">
        <ele>124</ele>
        <time>2010-05-14T12:29:06Z</time>
      </trkpt>
      <trkpt lat="48.63648" lon="1.684">
        <ele>124</ele>
        <time>2010-05-14T12:29:10Z</time>
      </trkpt>
      <trkpt lat="48.63649" lon="1.684">
        <ele>124</ele>
        <time>2010-05-14T12:29:13Z</time>
      </trkpt>
      <trkpt lat="48.6365" lon="1.684">
        <ele>124</ele>
        <time>2010-05-14T12:29:16Z</time>
      </trkpt>
      <trkpt lat="48.63651" lon="1.68403">
        <ele>126</ele>
        <time>2010-05-14T12:29:27Z</time>
      </trkpt>
      <trkpt lat="48.63652" lon="1.68403">
        <ele>126</ele>
        <time>2010-05-14T12:29:30Z</time>
      </trkpt>
      <trkpt lat="48.63653" lon="1.68403">
        <ele>126</ele>
        <time>2010-05-14T12:29:33Z</time>
      </trkpt>
      <trkpt lat="48.63654" lon="1.68402">
        <ele>125</ele>
        <time>2010-05-14T12:29:46Z</time>
      </trkpt>
      <trkpt lat="48.63655" lon="1.684">
        <ele>124</ele>
        <time>2010-05-14T12:30:00Z</time>
      </trkpt>
      <trkpt lat="48.63655" lon="1.68402">
        <ele>123</ele>
        <time>2010-05-14T12:30:08Z</time>
      </trkpt>
      <trkpt lat="48.63654" lon="1.68404">
        <ele>122</ele>
        <time>2010-05-14T12:30:12Z</time>
      </trkpt>
      <trkpt lat="48.63653" lon="1.68404">
        <ele>122</ele>
        <time>2010-05-14T12:30:15Z</time>
      </trkpt>
      <trkpt lat="48.63654" lon="1.68402">
        <ele>122</ele>
        <time>2010-05-14T12:30:23Z</time>
      </trkpt>
      <trkpt lat="48.63653" lon="1.68404">
        <ele>122</ele>
        <time>2010-05-14T12:30:26Z</time>
      </trkpt>
      <trkpt lat="48.63652" lon="1.68404">
        <ele>120</ele>
        <time>2010-05-14T12:30:35Z</time>
      </trkpt>
      <trkpt lat="48.63651" lon="1.68403">
        <ele>118</ele>
        <time>2010-05-14T12:30:42Z</time>
      </trkpt>
      <trkpt lat="48.63651" lon="1.684">
        <ele>118</ele>
        <time>2010-05-14T12:30:44Z</time>
      </trkpt>
      <trkpt lat="48.6365" lon="1.684">
        <ele>118</ele>
        <time>2010-05-14T12:30:46Z</time>
      </trkpt>
      <trkpt lat="48.63648" lon="1.684">
        <ele>118</ele>
        <time>2010-05-14T12:30:48Z</time>
      </trkpt>
      <trkpt lat="48.63647" lon="1.68401">
        <ele>118</ele>
        <time>2010-05-14T12:30:52Z</time>
      </trkpt>
      <trkpt lat="48.63645" lon="1.68399">
        <ele>118</ele>
        <time>2010-05-14T12:31:02Z</time>
      </trkpt>
      <trkpt lat="48.63644" lon="1.68396">
        <ele>118</ele>
        <time>2010-05-14T12:31:05Z</time>
      </trkpt>
      <trkpt lat="48.63643" lon="1.68395">
        <ele>118</ele>
        <time>2010-05-14T12:31:06Z</time>
      </trkpt>
      <trkpt lat="48.63642" lon="1.68393">
        <ele>118</ele>
        <time>2010-05-14T12:31:08Z</time>
      </trkpt>
      <trkpt lat="48.63642" lon="1.6839">
        <ele>118</ele>
        <time>2010-05-14T12:31:10Z</time>
      </trkpt>
      <trkpt lat="48.63642" lon="1.68388">
        <ele>118</ele>
        <time>2010-05-14T12:31:13Z</time>
      </trkpt>
      <trkpt lat="48.63641" lon="1.68385">
        <ele>118</ele>
        <time>2010-05-14T12:31:15Z</time>
      </trkpt>
      <trkpt lat="48.6364" lon="1.68384">
        <ele>118</ele>
        <time>2010-05-14T12:31:17Z</time>
      </trkpt>
      <trkpt lat="48.63641" lon="1.68382">
        <ele>118</ele>
        <time>2010-05-14T12:31:23Z</time>
      </trkpt>
      <trkpt lat="48.63643" lon="1.68383">
        <ele>118</ele>
        <time>2010-05-14T12:31:26Z</time>
      </trkpt>
      <trkpt lat="48.63645" lon="1.68383">
        <ele>118</ele>
        <time>2010-05-14T12:31:29Z</time>
      </trkpt>
      <trkpt lat="48.63646" lon="1.68384">
        <ele>118</ele>
        <time>2010-05-14T12:31:34Z</time>
      </trkpt>
      <trkpt lat="48.63647" lon="1.68383">
        <ele>118</ele>
        <time>2010-05-14T12:31:35Z</time>
      </trkpt>
      <trkpt lat="48.63649" lon="1.68383">
        <ele>118</ele>
        <time>2010-05-14T12:31:36Z</time>
      </trkpt>
      <trkpt lat="48.63647" lon="1.68383">
        <ele>118</ele>
        <time>2010-05-14T12:31:39Z</time>
      </trkpt>
      <trkpt lat="48.63646" lon="1.68384">
        <ele>118</ele>
        <time>2010-05-14T12:31:41Z</time>
      </trkpt>
      <trkpt lat="48.63646" lon="1.68382">
        <ele>118</ele>
        <time>2010-05-14T12:31:43Z</time>
      </trkpt>
      <trkpt lat="48.63645" lon="1.6838">
        <ele>118</ele>
        <time>2010-05-14T12:31:44Z</time>
      </trkpt>
      <trkpt lat="48.63644" lon="1.68378">
        <ele>118</ele>
        <time>2010-05-14T12:31:46Z</time>
      </trkpt>
      <trkpt lat="48.63643" lon="1.68375">
        <ele>118</ele>
        <time>2010-05-14T12:31:48Z</time>
      </trkpt>
      <trkpt lat="48.63642" lon="1.68372">
        <ele>118</ele>
        <time>2010-05-14T12:31:50Z</time>
      </trkpt>
      <trkpt lat="48.63642" lon="1.68368">
        <ele>118</ele>
        <time>2010-05-14T12:31:52Z</time>
      </trkpt>
      <trkpt lat="48.63642" lon="1.68365">
        <ele>118</ele>
        <time>2010-05-14T12:31:54Z</time>
      </trkpt>
      <trkpt lat="48.63641" lon="1.68362">
        <ele>118</ele>
        <time>2010-05-14T12:31:56Z</time>
      </trkpt>
      <trkpt lat="48.63641" lon="1.6836">
        <ele>118</ele>
        <time>2010-05-14T12:31:57Z</time>
      </trkpt>
      <trkpt lat="48.63641" lon="1.68358">
        <ele>118</ele>
        <time>2010-05-14T12:31:58Z</time>
      </trkpt>
      <trkpt lat="48.6364" lon="1.68357">
        <ele>118</ele>
        <time>2010-05-14T12:31:59Z</time>
      </trkpt>
      <trkpt lat="48.6364" lon="1.68354">
        <ele>118</ele>
        <time>2010-05-14T12:32:01Z</time>
      </trkpt>
      <trkpt lat="48.6364" lon="1.68352">
        <ele>118</ele>
        <time>2010-05-14T12:32:02Z</time>
      </trkpt>
      <trkpt lat="48.6364" lon="1.68349">
        <ele>118</ele>
        <time>2010-05-14T12:32:04Z</time>
      </trkpt>
      <trkpt lat="48.63639" lon="1.68347">
        <ele>118</ele>
        <time>2010-05-14T12:32:07Z</time>
      </trkpt>
      <trkpt lat="48.63641" lon="1.68346">
        <ele>118</ele>
        <time>2010-05-14T12:32:09Z</time>
      </trkpt>
      <trkpt lat="48.63642" lon="1.68345">
        <ele>118</ele>
        <time>2010-05-14T12:32:12Z</time>
      </trkpt>
      <trkpt lat="48.63643" lon="1.68346">
        <ele>116</ele>
        <time>2010-05-14T12:32:23Z</time>
      </trkpt>
      <trkpt lat="48.63645" lon="1.68345">
        <ele>116</ele>
        <time>2010-05-14T12:32:24Z</time>
      </trkpt>
      <trkpt lat="48.63646" lon="1.68345">
        <ele>116</ele>
        <time>2010-05-14T12:32:31Z</time>
      </trkpt>
      <trkpt lat="48.63644" lon="1.68342">
        <ele>117</ele>
        <time>2010-05-14T12:32:39Z</time>
      </trkpt>
      <trkpt lat="48.63644" lon="1.6834">
        <ele>117</ele>
        <time>2010-05-14T12:32:41Z</time>
      </trkpt>
      <trkpt lat="48.63643" lon="1.68338">
        <ele>119</ele>
        <time>2010-05-14T12:32:45Z</time>
      </trkpt>
      <trkpt lat="48.63642" lon="1.68339">
        <ele>120</ele>
        <time>2010-05-14T12:32:50Z</time>
      </trkpt>
      <trkpt lat="48.63641" lon="1.68339">
        <ele>120</ele>
        <time>2010-05-14T12:32:55Z</time>
      </trkpt>
      <trkpt lat="48.63641" lon="1.68337">
        <ele>121</ele>
        <time>2010-05-14T12:32:59Z</time>
      </trkpt>
      <trkpt lat="48.63641" lon="1.68336">
        <ele>121</ele>
        <time>2010-05-14T12:33:03Z</time>
      </trkpt>
      <trkpt lat="48.63641" lon="1.68334">
        <ele>121</ele>
        <time>2010-05-14T12:33:06Z</time>
      </trkpt>
      <trkpt lat="48.63641" lon="1.68335">
        <ele>121</ele>
        <time>2010-05-14T12:33:11Z</time>
      </trkpt>
      <trkpt lat="48.63641" lon="1.68337">
        <ele>121</ele>
        <time>2010-05-14T12:33:14Z</time>
      </trkpt>
      <trkpt lat="48.63641" lon="1.68339">
        <ele>121</ele>
        <time>2010-05-14T12:33:19Z</time>
      </trkpt>
      <trkpt lat="48.63641" lon="1.68337">
        <ele>119</ele>
        <time>2010-05-14T12:33:28Z</time>
      </trkpt>
      <trkpt lat="48.63641" lon="1.6834">
        <ele>117</ele>
        <time>2010-05-14T12:33:35Z</time>
      </trkpt>
      <trkpt lat="48.63643" lon="1.6834">
        <ele>117</ele>
        <time>2010-05-14T12:33:37Z</time>
      </trkpt>
      <trkpt lat="48.63643" lon="1.68338">
        <ele>117</ele>
        <time>2010-05-14T12:33:39Z</time>
      </trkpt>
      <trkpt lat="48.63642" lon="1.68338">
        <ele>117</ele>
        <time>2010-05-14T12:33:42Z</time>
      </trkpt>
      <trkpt lat="48.6364" lon="1.68337">
        <ele>117</ele>
        <time>2010-05-14T12:33:45Z</time>
      </trkpt>
      <trkpt lat="48.63641" lon="1.6834">
        <ele>117</ele>
        <time>2010-05-14T12:33:47Z</time>
      </trkpt>
      <trkpt lat="48.63641" lon="1.68342">
        <ele>117</ele>
        <time>2010-05-14T12:33:50Z</time>
      </trkpt>
      <trkpt lat="48.6364" lon="1.68339">
        <ele>117</ele>
        <time>2010-05-14T12:33:58Z</time>
      </trkpt>
      <trkpt lat="48.6364" lon="1.68342">
        <ele>117</ele>
        <time>2010-05-14T12:34:05Z</time>
      </trkpt>
      <trkpt lat="48.6364" lon="1.68344">
        <ele>117</ele>
        <time>2010-05-14T12:34:07Z</time>
      </trkpt>
      <trkpt lat="48.63641" lon="1.68345">
        <ele>117</ele>
        <time>2010-05-14T12:34:14Z</time>
      </trkpt>
      <trkpt lat="48.63639" lon="1.68346">
        <ele>117</ele>
        <time>2010-05-14T12:34:24Z</time>
      </trkpt>
      <trkpt lat="48.63638" lon="1.68344">
        <ele>117</ele>
        <time>2010-05-14T12:34:31Z</time>
      </trkpt>
      <trkpt lat="48.63637" lon="1.68343">
        <ele>117</ele>
        <time>2010-05-14T12:34:32Z</time>
      </trkpt>
      <trkpt lat="48.63635" lon="1.68342">
        <ele>117</ele>
        <time>2010-05-14T12:34:34Z</time>
      </trkpt>
      <trkpt lat="48.63634" lon="1.68341">
        <ele>118</ele>
        <time>2010-05-14T12:34:36Z</time>
      </trkpt>
      <trkpt lat="48.63633" lon="1.6834">
        <ele>118</ele>
        <time>2010-05-14T12:34:38Z</time>
      </trkpt>
      <trkpt lat="48.63632" lon="1.68338">
        <ele>120</ele>
        <time>2010-05-14T12:34:41Z</time>
      </trkpt>
      <trkpt lat="48.63631" lon="1.68339">
        <ele>121</ele>
        <time>2010-05-14T12:34:47Z</time>
      </trkpt>
      <trkpt lat="48.63629" lon="1.68339">
        <ele>121</ele>
        <time>2010-05-14T12:34:56Z</time>
      </trkpt>
      <trkpt lat="48.63629" lon="1.68341">
        <ele>121</ele>
        <time>2010-05-14T12:35:05Z</time>
      </trkpt>
      <trkpt lat="48.63629" lon="1.68343">
        <ele>121</ele>
        <time>2010-05-14T12:35:08Z</time>
      </trkpt>
      <trkpt lat="48.6363" lon="1.68343">
        <ele>120</ele>
        <time>2010-05-14T12:35:15Z</time>
      </trkpt>
      <trkpt lat="48.63631" lon="1.68342">
        <ele>120</ele>
        <time>2010-05-14T12:35:17Z</time>
      </trkpt>
      <trkpt lat="48.63633" lon="1.68342">
        <ele>120</ele>
        <time>2010-05-14T12:35:22Z</time>
      </trkpt>
      <trkpt lat="48.63634" lon="1.68341">
        <ele>121</ele>
        <time>2010-05-14T12:35:25Z</time>
      </trkpt>
      <trkpt lat="48.63633" lon="1.68341">
        <ele>123</ele>
        <time>2010-05-14T12:35:28Z</time>
      </trkpt>
      <trkpt lat="48.63634" lon="1.6834">
        <ele>124</ele>
        <time>2010-05-14T12:35:32Z</time>
      </trkpt>
      <trkpt lat="48.63635" lon="1.68339">
        <ele>127</ele>
        <time>2010-05-14T12:35:36Z</time>
      </trkpt>
      <trkpt lat="48.63636" lon="1.68337">
        <ele>130</ele>
        <time>2010-05-14T12:35:44Z</time>
      </trkpt>
      <trkpt lat="48.63636" lon="1.68335">
        <ele>130</ele>
        <time>2010-05-14T12:35:49Z</time>
      </trkpt>
      <trkpt lat="48.63637" lon="1.68336">
        <ele>130</ele>
        <time>2010-05-14T12:35:53Z</time>
      </trkpt>
      <trkpt lat="48.63638" lon="1.68336">
        <ele>131</ele>
        <time>2010-05-14T12:35:54Z</time>
      </trkpt>
      <trkpt lat="48.6364" lon="1.68337">
        <ele>133</ele>
        <time>2010-05-14T12:35:59Z</time>
      </trkpt>
      <trkpt lat="48.63638" lon="1.68334">
        <ele>133</ele>
        <time>2010-05-14T12:36:06Z</time>
      </trkpt>
      <trkpt lat="48.63637" lon="1.68333">
        <ele>133</ele>
        <time>2010-05-14T12:36:07Z</time>
      </trkpt>
      <trkpt lat="48.63636" lon="1.68334">
        <ele>133</ele>
        <time>2010-05-14T12:36:09Z</time>
      </trkpt>
      <trkpt lat="48.63634" lon="1.68335">
        <ele>133</ele>
        <time>2010-05-14T12:36:12Z</time>
      </trkpt>
      <trkpt lat="48.63634" lon="1.68336">
        <ele>131</ele>
        <time>2010-05-14T12:36:15Z</time>
      </trkpt>
      <trkpt lat="48.63636" lon="1.68337">
        <ele>127</ele>
        <time>2010-05-14T12:36:23Z</time>
      </trkpt>
      <trkpt lat="48.63638" lon="1.68338">
        <ele>127</ele>
        <time>2010-05-14T12:36:24Z</time>
      </trkpt>
      <trkpt lat="48.63638" lon="1.68336">
        <ele>127</ele>
        <time>2010-05-14T12:36:25Z</time>
      </trkpt>
      <trkpt lat="48.63637" lon="1.68335">
        <ele>127</ele>
        <time>2010-05-14T12:36:26Z</time>
      </trkpt>
      <trkpt lat="48.63637" lon="1.68332">
        <ele>127</ele>
        <time>2010-05-14T12:36:28Z</time>
      </trkpt>
      <trkpt lat="48.63636" lon="1.68331">
        <ele>127</ele>
        <time>2010-05-14T12:36:32Z</time>
      </trkpt>
      <trkpt lat="48.63636" lon="1.68333">
        <ele>127</ele>
        <time>2010-05-14T12:36:34Z</time>
      </trkpt>
      <trkpt lat="48.63635" lon="1.68334">
        <ele>123</ele>
        <time>2010-05-14T12:36:39Z</time>
      </trkpt>
      <trkpt lat="48.63633" lon="1.68332">
        <ele>120</ele>
        <time>2010-05-14T12:36:42Z</time>
      </trkpt>
      <trkpt lat="48.63632" lon="1.68332">
        <ele>120</ele>
        <time>2010-05-14T12:36:44Z</time>
      </trkpt>
      <trkpt lat="48.63632" lon="1.68334">
        <ele>120</ele>
        <time>2010-05-14T12:36:48Z</time>
      </trkpt>
      <trkpt lat="48.63632" lon="1.68336">
        <ele>120</ele>
        <time>2010-05-14T12:36:50Z</time>
      </trkpt>
      <trkpt lat="48.63633" lon="1.68338">
        <ele>119</ele>
        <time>2010-05-14T12:36:52Z</time>
      </trkpt>
      <trkpt lat="48.63633" lon="1.6834">
        <ele>119</ele>
        <time>2010-05-14T12:36:55Z</time>
      </trkpt>
      <trkpt lat="48.63634" lon="1.68342">
        <ele>118</ele>
        <time>2010-05-14T12:36:57Z</time>
      </trkpt>
      <trkpt lat="48.63634" lon="1.68344">
        <ele>117</ele>
        <time>2010-05-14T12:36:59Z</time>
      </trkpt>
      <trkpt lat="48.63635" lon="1.6834">
        <ele>116</ele>
        <time>2010-05-14T12:37:02Z</time>
      </trkpt>
      <trkpt lat="48.63634" lon="1.68338">
        <ele>116</ele>
        <time>2010-05-14T12:37:04Z</time>
      </trkpt>
      <trkpt lat="48.63633" lon="1.68335">
        <ele>116</ele>
        <time>2010-05-14T12:37:09Z</time>
      </trkpt>
      <trkpt lat="48.63633" lon="1.68333">
        <ele>121</ele>
        <time>2010-05-14T12:37:17Z</time>
      </trkpt>
      <trkpt lat="48.63633" lon="1.68331">
        <ele>121</ele>
        <time>2010-05-14T12:37:20Z</time>
      </trkpt>
      <trkpt lat="48.63633" lon="1.68333">
        <ele>121</ele>
        <time>2010-05-14T12:37:23Z</time>
      </trkpt>
      <trkpt lat="48.63635" lon="1.68334">
        <ele>121</ele>
        <time>2010-05-14T12:37:28Z</time>
      </trkpt>
      <trkpt lat="48.63634" lon="1.68332">
        <ele>121</ele>
        <time>2010-05-14T12:37:30Z</time>
      </trkpt>
      <trkpt lat="48.63634" lon="1.6833">
        <ele>121</ele>
        <time>2010-05-14T12:37:32Z</time>
      </trkpt>
      <trkpt lat="48.63635" lon="1.68331">
        <ele>122</ele>
        <time>2010-05-14T12:37:36Z</time>
      </trkpt>
      <trkpt lat="48.63636" lon="1.68334">
        <ele>122</ele>
        <time>2010-05-14T12:37:39Z</time>
      </trkpt>
      <trkpt lat="48.63638" lon="1.68333">
        <ele>123</ele>
        <time>2010-05-14T12:37:45Z</time>
      </trkpt>
      <trkpt lat="48.63639" lon="1.68334">
        <ele>123</ele>
        <time>2010-05-14T12:37:48Z</time>
      </trkpt>
      <trkpt lat="48.63641" lon="1.68334">
        <ele>123</ele>
        <time>2010-05-14T12:37:52Z</time>
      </trkpt>
      <trkpt lat="48.63642" lon="1.68335">
        <ele>123</ele>
        <time>2010-05-14T12:37:54Z</time>
      </trkpt>
      <trkpt lat="48.63643" lon="1.68335">
        <ele>123</ele>
        <time>2010-05-14T12:37:56Z</time>
      </trkpt>
      <trkpt lat="48.63645" lon="1.68335">
        <ele>123</ele>
        <time>2010-05-14T12:37:59Z</time>
      </trkpt>
      <trkpt lat="48.63646" lon="1.68335">
        <ele>123</ele>
        <time>2010-05-14T12:38:00Z</time>
      </trkpt>
      <trkpt lat="48.63648" lon="1.68335">
        <ele>123</ele>
        <time>2010-05-14T12:38:02Z</time>
      </trkpt>
      <trkpt lat="48.63649" lon="1.68335">
        <ele>123</ele>
        <time>2010-05-14T12:38:04Z</time>
      </trkpt>
      <trkpt lat="48.63648" lon="1.68334">
        <ele>123</ele>
        <time>2010-05-14T12:38:12Z</time>
      </trkpt>
      <trkpt lat="48.63647" lon="1.68333">
        <ele>126</ele>
        <time>2010-05-14T12:38:18Z</time>
      </trkpt>
      <trkpt lat="48.63645" lon="1.68334">
        <ele>126</ele>
        <time>2010-05-14T12:38:20Z</time>
      </trkpt>
      <trkpt lat="48.63644" lon="1.68333">
        <ele>127</ele>
        <time>2010-05-14T12:38:24Z</time>
      </trkpt>
      <trkpt lat="48.63642" lon="1.68333">
        <ele>127</ele>
        <time>2010-05-14T12:38:26Z</time>
      </trkpt>
      <trkpt lat="48.63641" lon="1.68335">
        <ele>128</ele>
        <time>2010-05-14T12:38:28Z</time>
      </trkpt>
      <trkpt lat="48.6364" lon="1.68337">
        <ele>129</ele>
        <time>2010-05-14T12:38:31Z</time>
      </trkpt>
      <trkpt lat="48.63639" lon="1.68338">
        <ele>130</ele>
        <time>2010-05-14T12:38:36Z</time>
      </trkpt>
      <trkpt lat="48.63638" lon="1.68336">
        <ele>130</ele>
        <time>2010-05-14T12:38:40Z</time>
      </trkpt>
      <trkpt lat="48.63638" lon="1.68338">
        <ele>130</ele>
        <time>2010-05-14T12:38:43Z</time>
      </trkpt>
      <trkpt lat="48.63638" lon="1.68335">
        <ele>128</ele>
        <time>2010-05-14T12:38:53Z</time>
      </trkpt>
      <trkpt lat="48.63639" lon="1.68335">
        <ele>128</ele>
        <time>2010-05-14T12:38:58Z</time>
      </trkpt>
      <trkpt lat="48.63641" lon="1.68335">
        <ele>128</ele>
        <time>2010-05-14T12:39:00Z</time>
      </trkpt>
      <trkpt lat="48.63641" lon="1.68337">
        <ele>124</ele>
        <time>2010-05-14T12:39:15Z</time>
      </trkpt>
      <trkpt lat="48.63642" lon="1.68338">
        <ele>123</ele>
        <time>2010-05-14T12:39:19Z</time>
      </trkpt>
      <trkpt lat="48.63641" lon="1.6834">
        <ele>121</ele>
        <time>2010-05-14T12:39:22Z</time>
      </trkpt>
      <trkpt lat="48.63642" lon="1.6834">
        <ele>119</ele>
        <time>2010-05-14T12:39:26Z</time>
      </trkpt>
      <trkpt lat="48.63644" lon="1.68338">
        <ele>118</ele>
        <time>2010-05-14T12:39:30Z</time>
      </trkpt>
      <trkpt lat="48.63642" lon="1.68338">
        <ele>118</ele>
        <time>2010-05-14T12:39:33Z</time>
      </trkpt>
      <trkpt lat="48.6364" lon="1.68338">
        <ele>118</ele>
        <time>2010-05-14T12:39:34Z</time>
      </trkpt>
      <trkpt lat="48.63639" lon="1.68338">
        <ele>118</ele>
        <time>2010-05-14T12:39:38Z</time>
      </trkpt>
      <trkpt lat="48.6364" lon="1.68337">
        <ele>118</ele>
        <time>2010-05-14T12:39:43Z</time>
      </trkpt>
      <trkpt lat="48.63642" lon="1.68337">
        <ele>118</ele>
        <time>2010-05-14T12:39:44Z</time>
      </trkpt>
      <trkpt lat="48.63642" lon="1.68336">
        <ele>118</ele>
        <time>2010-05-14T12:39:47Z</time>
      </trkpt>
      <trkpt lat="48.63641" lon="1.68334">
        <ele>118</ele>
        <time>2010-05-14T12:39:49Z</time>
      </trkpt>
      <trkpt lat="48.63641" lon="1.68336">
        <ele>118</ele>
        <time>2010-05-14T12:39:51Z</time>
      </trkpt>
      <trkpt lat="48.63642" lon="1.68338">
        <ele>118</ele>
        <time>2010-05-14T12:39:53Z</time>
      </trkpt>
      <trkpt lat="48.63643" lon="1.68338">
        <ele>118</ele>
        <time>2010-05-14T12:39:54Z</time>
      </trkpt>
      <trkpt lat="48.63645" lon="1.68339">
        <ele>118</ele>
        <time>2010-05-14T12:39:55Z</time>
      </trkpt>
      <trkpt lat="48.63646" lon="1.68338">
        <ele>119</ele>
        <time>2010-05-14T12:39:57Z</time>
      </trkpt>
      <trkpt lat="48.63646" lon="1.6834">
        <ele>119</ele>
        <time>2010-05-14T12:40:02Z</time>
      </trkpt>
      <trkpt lat="48.63647" lon="1.68341">
        <ele>119</ele>
        <time>2010-05-14T12:40:04Z</time>
      </trkpt>
      <trkpt lat="48.63647" lon="1.68339">
        <ele>119</ele>
        <time>2010-05-14T12:40:08Z</time>
      </trkpt>
      <trkpt lat="48.63646" lon="1.68338">
        <ele>119</ele>
        <time>2010-05-14T12:40:13Z</time>
      </trkpt>
      <trkpt lat="48.63644" lon="1.68338">
        <ele>119</ele>
        <time>2010-05-14T12:40:14Z</time>
      </trkpt>
      <trkpt lat="48.63645" lon="1.68339">
        <ele>119</ele>
        <time>2010-05-14T12:40:16Z</time>
      </trkpt>
      <trkpt lat="48.63647" lon="1.68337">
        <ele>119</ele>
        <time>2010-05-14T12:40:20Z</time>
      </trkpt>
      <trkpt lat="48.63644" lon="1.68335">
        <ele>119</ele>
        <time>2010-05-14T12:40:23Z</time>
      </trkpt>
      <trkpt lat="48.63643" lon="1.68335">
        <ele>119</ele>
        <time>2010-05-14T12:40:26Z</time>
      </trkpt>
      <trkpt lat="48.63645" lon="1.68335">
        <ele>119</ele>
        <time>2010-05-14T12:40:33Z</time>
      </trkpt>
      <trkpt lat="48.63646" lon="1.68336">
        <ele>119</ele>
        <time>2010-05-14T12:40:35Z</time>
      </trkpt>
      <trkpt lat="48.63644" lon="1.68335">
        <ele>119</ele>
        <time>2010-05-14T12:40:41Z</time>
      </trkpt>
      <trkpt lat="48.63643" lon="1.68338">
        <ele>119</ele>
        <time>2010-05-14T12:40:44Z</time>
      </trkpt>
      <trkpt lat="48.63644" lon="1.6834">
        <ele>119</ele>
        <time>2010-05-14T12:40:46Z</time>
      </trkpt>
      <trkpt lat="48.63645" lon="1.68339">
        <ele>117</ele>
        <time>2010-05-14T12:40:50Z</time>
      </trkpt>
      <trkpt lat="48.63644" lon="1.68339">
        <ele>117</ele>
        <time>2010-05-14T12:40:52Z</time>
      </trkpt>
      <trkpt lat="48.63643" lon="1.68341">
        <ele>115</ele>
        <time>2010-05-14T12:40:59Z</time>
      </trkpt>
      <trkpt lat="48.63643" lon="1.6834">
        <ele>115</ele>
        <time>2010-05-14T12:41:11Z</time>
      </trkpt>
      <trkpt lat="48.63645" lon="1.68339">
        <ele>115</ele>
        <time>2010-05-14T12:41:13Z</time>
      </trkpt>
      <trkpt lat="48.63643" lon="1.68339">
        <ele>117</ele>
        <time>2010-05-14T12:41:16Z</time>
      </trkpt>
      <trkpt lat="48.63645" lon="1.68337">
        <ele>117</ele>
        <time>2010-05-14T12:41:20Z</time>
      </trkpt>
      <trkpt lat="48.63646" lon="1.68337">
        <ele>117</ele>
        <time>2010-05-14T12:41:23Z</time>
      </trkpt>
      <trkpt lat="48.63648" lon="1.68337">
        <ele>118</ele>
        <time>2010-05-14T12:41:25Z</time>
      </trkpt>
      <trkpt lat="48.63649" lon="1.68337">
        <ele>118</ele>
        <time>2010-05-14T12:41:27Z</time>
      </trkpt>
      <trkpt lat="48.63648" lon="1.68336">
        <ele>120</ele>
        <time>2010-05-14T12:41:33Z</time>
      </trkpt>
      <trkpt lat="48.63646" lon="1.68336">
        <ele>121</ele>
        <time>2010-05-14T12:41:38Z</time>
      </trkpt>
      <trkpt lat="48.63648" lon="1.68336">
        <ele>121</ele>
        <time>2010-05-14T12:41:40Z</time>
      </trkpt>
      <trkpt lat="48.63649" lon="1.68336">
        <ele>121</ele>
        <time>2010-05-14T12:41:44Z</time>
      </trkpt>
      <trkpt lat="48.63648" lon="1.68337">
        <ele>122</ele>
        <time>2010-05-14T12:41:51Z</time>
      </trkpt>
      <trkpt lat="48.63647" lon="1.68337">
        <ele>122</ele>
        <time>2010-05-14T12:41:53Z</time>
      </trkpt>
      <trkpt lat="48.63645" lon="1.68337">
        <ele>122</ele>
        <time>2010-05-14T12:41:56Z</time>
      </trkpt>
      <trkpt lat="48.63644" lon="1.68337">
        <ele>122</ele>
        <time>2010-05-14T12:41:58Z</time>
      </trkpt>
      <trkpt lat="48.63642" lon="1.68337">
        <ele>122</ele>
        <time>2010-05-14T12:42:03Z</time>
      </trkpt>
      <trkpt lat="48.63641" lon="1.68338">
        <ele>122</ele>
        <time>2010-05-14T12:42:05Z</time>
      </trkpt>
      <trkpt lat="48.63639" lon="1.68338">
        <ele>122</ele>
        <time>2010-05-14T12:42:07Z</time>
      </trkpt>
      <trkpt lat="48.63641" lon="1.68337">
        <ele>123</ele>
        <time>2010-05-14T12:42:17Z</time>
      </trkpt>
      <trkpt lat="48.6364" lon="1.68338">
        <ele>123</ele>
        <time>2010-05-14T12:42:20Z</time>
      </trkpt>
      <trkpt lat="48.63639" lon="1.68339">
        <ele>123</ele>
        <time>2010-05-14T12:42:28Z</time>
      </trkpt>
      <trkpt lat="48.63637" lon="1.68339">
        <ele>123</ele>
        <time>2010-05-14T12:42:32Z</time>
      </trkpt>
      <trkpt lat="48.63635" lon="1.68337">
        <ele>123</ele>
        <time>2010-05-14T12:42:34Z</time>
      </trkpt>
      <trkpt lat="48.63635" lon="1.68335">
        <ele>123</ele>
        <time>2010-05-14T12:42:36Z</time>
      </trkpt>
      <trkpt lat="48.63636" lon="1.68333">
        <ele>123</ele>
        <time>2010-05-14T12:42:40Z</time>
      </trkpt>
      <trkpt lat="48.63636" lon="1.68336">
        <ele>123</ele>
        <time>2010-05-14T12:42:43Z</time>
      </trkpt>
      <trkpt lat="48.63635" lon="1.68337">
        <ele>123</ele>
        <time>2010-05-14T12:42:46Z</time>
      </trkpt>
      <trkpt lat="48.63633" lon="1.68339">
        <ele>121</ele>
        <time>2010-05-14T12:42:49Z</time>
      </trkpt>
      <trkpt lat="48.63633" lon="1.68341">
        <ele>118</ele>
        <time>2010-05-14T12:42:52Z</time>
      </trkpt>
      <trkpt lat="48.63631" lon="1.68336">
        <ele>113</ele>
        <time>2010-05-14T12:43:00Z</time>
      </trkpt>
      <trkpt lat="48.63632" lon="1.68333">
        <ele>112</ele>
        <time>2010-05-14T12:43:01Z</time>
      </trkpt>
      <trkpt lat="48.63632" lon="1.68332">
        <ele>112</ele>
        <time>2010-05-14T12:43:02Z</time>
      </trkpt>
      <trkpt lat="48.63634" lon="1.6833">
        <ele>112</ele>
        <time>2010-05-14T12:43:04Z</time>
      </trkpt>
      <trkpt lat="48.63635" lon="1.6833">
        <ele>113</ele>
        <time>2010-05-14T12:43:06Z</time>
      </trkpt>
      <trkpt lat="48.63638" lon="1.68329">
        <ele>116</ele>
        <time>2010-05-14T12:43:09Z</time>
      </trkpt>
      <trkpt lat="48.63639" lon="1.68331">
        <ele>118</ele>
        <time>2010-05-14T12:43:11Z</time>
      </trkpt>
      <trkpt lat="48.6364" lon="1.68332">
        <ele>120</ele>
        <time>2010-05-14T12:43:13Z</time>
      </trkpt>
      <trkpt lat="48.63642" lon="1.68333">
        <ele>120</ele>
        <time>2010-05-14T12:43:14Z</time>
      </trkpt>
      <trkpt lat="48.63643" lon="1.68333">
        <ele>121</ele>
        <time>2010-05-14T12:43:16Z</time>
      </trkpt>
      <trkpt lat="48.63642" lon="1.68335">
        <ele>122</ele>
        <time>2010-05-14T12:43:25Z</time>
      </trkpt>
      <trkpt lat="48.63641" lon="1.68336">
        <ele>122</ele>
        <time>2010-05-14T12:43:26Z</time>
      </trkpt>
      <trkpt lat="48.63642" lon="1.68336">
        <ele>122</ele>
        <time>2010-05-14T12:43:35Z</time>
      </trkpt>
      <trkpt lat="48.63644" lon="1.68338">
        <ele>122</ele>
        <time>2010-05-14T12:43:38Z</time>
      </trkpt>
      <trkpt lat="48.63645" lon="1.68339">
        <ele>122</ele>
        <time>2010-05-14T12:43:39Z</time>
      </trkpt>
      <trkpt lat="48.63647" lon="1.6834">
        <ele>122</ele>
        <time>2010-05-14T12:43:42Z</time>
      </trkpt>
      <trkpt lat="48.63648" lon="1.68339">
        <ele>122</ele>
        <time>2010-05-14T12:43:47Z</time>
      </trkpt>
      <trkpt lat="48.63647" lon="1.6834">
        <ele>122</ele>
        <time>2010-05-14T12:43:50Z</time>
      </trkpt>
      <trkpt lat="48.63646" lon="1.68341">
        <ele>122</ele>
        <time>2010-05-14T12:43:52Z</time>
      </trkpt>
      <trkpt lat="48.63645" lon="1.68338">
        <ele>122</ele>
        <time>2010-05-14T12:43:57Z</time>
      </trkpt>
      <trkpt lat="48.63644" lon="1.68339">
        <ele>122</ele>
        <time>2010-05-14T12:43:59Z</time>
      </trkpt>
      <trkpt lat="48.63643" lon="1.68339">
        <ele>122</ele>
        <time>2010-05-14T12:44:02Z</time>
      </trkpt>
      <trkpt lat="48.63642" lon="1.68337">
        <ele>122</ele>
        <time>2010-05-14T12:44:04Z</time>
      </trkpt>
      <trkpt lat="48.6364" lon="1.68335">
        <ele>122</ele>
        <time>2010-05-14T12:44:06Z</time>
      </trkpt>
      <trkpt lat="48.6364" lon="1.68333">
        <ele>122</ele>
        <time>2010-05-14T12:44:10Z</time>
      </trkpt>
      <trkpt lat="48.63641" lon="1.68335">
        <ele>121</ele>
        <time>2010-05-14T12:44:16Z</time>
      </trkpt>
      <trkpt lat="48.6364" lon="1.68338">
        <ele>119</ele>
        <time>2010-05-14T12:44:18Z</time>
      </trkpt>
      <trkpt lat="48.6364" lon="1.6834">
        <ele>117</ele>
        <time>2010-05-14T12:44:20Z</time>
      </trkpt>
      <trkpt lat="48.6364" lon="1.68343">
        <ele>115</ele>
        <time>2010-05-14T12:44:22Z</time>
      </trkpt>
      <trkpt lat="48.6364" lon="1.68344">
        <ele>112</ele>
        <time>2010-05-14T12:44:25Z</time>
      </trkpt>
      <trkpt lat="48.63639" lon="1.68343">
        <ele>104</ele>
        <time>2010-05-14T12:44:33Z</time>
      </trkpt>
      <trkpt lat="48.63639" lon="1.68341">
        <ele>104</ele>
        <time>2010-05-14T12:44:40Z</time>
      </trkpt>
      <trkpt lat="48.63638" lon="1.6834">
        <ele>106</ele>
        <time>2010-05-14T12:44:43Z</time>
      </trkpt>
      <trkpt lat="48.63638" lon="1.68337">
        <ele>112</ele>
        <time>2010-05-14T12:44:50Z</time>
      </trkpt>
      <trkpt lat="48.63638" lon="1.68334">
        <ele>114</ele>
        <time>2010-05-14T12:44:52Z</time>
      </trkpt>
      <trkpt lat="48.63638" lon="1.68333">
        <ele>116</ele>
        <time>2010-05-14T12:44:54Z</time>
      </trkpt>
      <trkpt lat="48.63639" lon="1.68331">
        <ele>118</ele>
        <time>2010-05-14T12:44:57Z</time>
      </trkpt>
      <trkpt lat="48.63638" lon="1.68328">
        <ele>120</ele>
        <time>2010-05-14T12:45:01Z</time>
      </trkpt>
      <trkpt lat="48.63639" lon="1.6833">
        <ele>121</ele>
        <time>2010-05-14T12:45:04Z</time>
      </trkpt>
      <trkpt lat="48.6364" lon="1.68328">
        <ele>122</ele>
        <time>2010-05-14T12:45:17Z</time>
      </trkpt>
      <trkpt lat="48.63642" lon="1.68328">
        <ele>122</ele>
        <time>2010-05-14T12:45:20Z</time>
      </trkpt>
      <trkpt lat="48.63643" lon="1.68329">
        <ele>122</ele>
        <time>2010-05-14T12:45:22Z</time>
      </trkpt>
      <trkpt lat="48.63645" lon="1.68328">
        <ele>122</ele>
        <time>2010-05-14T12:45:36Z</time>
      </trkpt>
      <trkpt lat="48.63644" lon="1.68326">
        <ele>121</ele>
        <time>2010-05-14T12:45:44Z</time>
      </trkpt>
      <trkpt lat="48.63642" lon="1.68327">
        <ele>121</ele>
        <time>2010-05-14T12:45:52Z</time>
      </trkpt>
      <trkpt lat="48.63641" lon="1.68327">
        <ele>121</ele>
        <time>2010-05-14T12:45:54Z</time>
      </trkpt>
      <trkpt lat="48.63639" lon="1.68326">
        <ele>124</ele>
        <time>2010-05-14T12:45:57Z</time>
      </trkpt>
      <trkpt lat="48.63638" lon="1.68324">
        <ele>126</ele>
        <time>2010-05-14T12:45:59Z</time>
      </trkpt>
      <trkpt lat="48.63637" lon="1.68322">
        <ele>128</ele>
        <time>2010-05-14T12:46:01Z</time>
      </trkpt>
      <trkpt lat="48.63637" lon="1.68319">
        <ele>130</ele>
        <time>2010-05-14T12:46:03Z</time>
      </trkpt>
      <trkpt lat="48.63638" lon="1.68319">
        <ele>133</ele>
        <time>2010-05-14T12:46:06Z</time>
      </trkpt>
      <trkpt lat="48.6364" lon="1.68319">
        <ele>135</ele>
        <time>2010-05-14T12:46:08Z</time>
      </trkpt>
      <trkpt lat="48.6364" lon="1.68321">
        <ele>135</ele>
        <time>2010-05-14T12:46:10Z</time>
      </trkpt>
      <trkpt lat="48.6364" lon="1.68323">
        <ele>135</ele>
        <time>2010-05-14T12:46:12Z</time>
      </trkpt>
      <trkpt lat="48.63641" lon="1.68325">
        <ele>135</ele>
        <time>2010-05-14T12:46:15Z</time>
      </trkpt>
      <trkpt lat="48.63641" lon="1.68326">
        <ele>135</ele>
        <time>2010-05-14T12:46:22Z</time>
      </trkpt>
      <trkpt lat="48.63643" lon="1.68325">
        <ele>132</ele>
        <time>2010-05-14T12:46:30Z</time>
      </trkpt>
      <trkpt lat="48.63644" lon="1.68324">
        <ele>128</ele>
        <time>2010-05-14T12:46:34Z</time>
      </trkpt>
      <trkpt lat="48.63643" lon="1.68325">
        <ele>126</ele>
        <time>2010-05-14T12:46:37Z</time>
      </trkpt>
      <trkpt lat="48.63643" lon="1.68327">
        <ele>126</ele>
        <time>2010-05-14T12:46:39Z</time>
      </trkpt>
      <trkpt lat="48.63642" lon="1.68326">
        <ele>123</ele>
        <time>2010-05-14T12:46:44Z</time>
      </trkpt>
      <trkpt lat="48.63641" lon="1.68324">
        <ele>123</ele>
        <time>2010-05-14T12:46:48Z</time>
      </trkpt>
      <trkpt lat="48.63642" lon="1.68325">
        <ele>123</ele>
        <time>2010-05-14T12:46:51Z</time>
      </trkpt>
      <trkpt lat="48.63643" lon="1.68327">
        <ele>123</ele>
        <time>2010-05-14T12:46:53Z</time>
      </trkpt>
      <trkpt lat="48.63643" lon="1.68329">
        <ele>122</ele>
        <time>2010-05-14T12:46:55Z</time>
      </trkpt>
      <trkpt lat="48.63644" lon="1.68327">
        <ele>118</ele>
        <time>2010-05-14T12:47:01Z</time>
      </trkpt>
      <trkpt lat="48.63644" lon="1.68325">
        <ele>118</ele>
        <time>2010-05-14T12:47:03Z</time>
      </trkpt>
      <trkpt lat="48.63643" lon="1.68322">
        <ele>118</ele>
        <time>2010-05-14T12:47:04Z</time>
      </trkpt>
      <trkpt lat="48.63643" lon="1.6832">
        <ele>118</ele>
        <time>2010-05-14T12:47:05Z</time>
      </trkpt>
      <trkpt lat="48.63644" lon="1.68319">
        <ele>118</ele>
        <time>2010-05-14T12:47:07Z</time>
      </trkpt>
      <trkpt lat="48.63645" lon="1.68318">
        <ele>118</ele>
        <time>2010-05-14T12:47:09Z</time>
      </trkpt>
      <trkpt lat="48.63646" lon="1.68317">
        <ele>118</ele>
        <time>2010-05-14T12:47:11Z</time>
      </trkpt>
      <trkpt lat="48.63647" lon="1.68315">
        <ele>117</ele>
        <time>2010-05-14T12:47:13Z</time>
      </trkpt>
      <trkpt lat="48.63649" lon="1.68315">
        <ele>114</ele>
        <time>2010-05-14T12:47:19Z</time>
      </trkpt>
      <trkpt lat="48.6365" lon="1.68317">
        <ele>113</ele>
        <time>2010-05-14T12:47:24Z</time>
      </trkpt>
      <trkpt lat="48.63651" lon="1.68317">
        <ele>114</ele>
        <time>2010-05-14T12:47:28Z</time>
      </trkpt>
      <trkpt lat="48.63649" lon="1.68316">
        <ele>117</ele>
        <time>2010-05-14T12:47:31Z</time>
      </trkpt>
      <trkpt lat="48.63648" lon="1.68314">
        <ele>119</ele>
        <time>2010-05-14T12:47:33Z</time>
      </trkpt>
      <trkpt lat="48.63647" lon="1.68313">
        <ele>121</ele>
        <time>2010-05-14T12:47:35Z</time>
      </trkpt>
      <trkpt lat="48.63647" lon="1.68311">
        <ele>123</ele>
        <time>2010-05-14T12:47:38Z</time>
      </trkpt>
      <trkpt lat="48.63645" lon="1.68312">
        <ele>125</ele>
        <time>2010-05-14T12:47:40Z</time>
      </trkpt>
      <trkpt lat="48.63643" lon="1.68312">
        <ele>127</ele>
        <time>2010-05-14T12:47:42Z</time>
      </trkpt>
      <trkpt lat="48.63642" lon="1.68311">
        <ele>128</ele>
        <time>2010-05-14T12:47:43Z</time>
      </trkpt>
      <trkpt lat="48.63644" lon="1.68311">
        <ele>133</ele>
        <time>2010-05-14T12:47:48Z</time>
      </trkpt>
      <trkpt lat="48.63642" lon="1.68312">
        <ele>135</ele>
        <time>2010-05-14T12:47:52Z</time>
      </trkpt>
      <trkpt lat="48.63641" lon="1.68313">
        <ele>137</ele>
        <time>2010-05-14T12:47:55Z</time>
      </trkpt>
      <trkpt lat="48.63642" lon="1.68314">
        <ele>137</ele>
        <time>2010-05-14T12:48:00Z</time>
      </trkpt>
      <trkpt lat="48.63644" lon="1.68315">
        <ele>136</ele>
        <time>2010-05-14T12:48:02Z</time>
      </trkpt>
      <trkpt lat="48.63643" lon="1.68313">
        <ele>133</ele>
        <time>2010-05-14T12:48:05Z</time>
      </trkpt>
      <trkpt lat="48.63642" lon="1.68311">
        <ele>132</ele>
        <time>2010-05-14T12:48:07Z</time>
      </trkpt>
      <trkpt lat="48.6364" lon="1.6831">
        <ele>131</ele>
        <time>2010-05-14T12:48:10Z</time>
      </trkpt>
      <trkpt lat="48.6364" lon="1.68308">
        <ele>130</ele>
        <time>2010-05-14T12:48:13Z</time>
      </trkpt>
      <trkpt lat="48.63641" lon="1.68306">
        <ele>130</ele>
        <time>2010-05-14T12:48:18Z</time>
      </trkpt>
      <trkpt lat="48.63641" lon="1.68305">
        <ele>130</ele>
        <time>2010-05-14T12:48:21Z</time>
      </trkpt>
      <trkpt lat="48.63642" lon="1.68304">
        <ele>130</ele>
        <time>2010-05-14T12:48:24Z</time>
      </trkpt>
      <trkpt lat="48.63643" lon="1.68304">
        <ele>130</ele>
        <time>2010-05-14T12:48:27Z</time>
      </trkpt>
      <trkpt lat="48.63644" lon="1.68306">
        <ele>131</ele>
        <time>2010-05-14T12:48:34Z</time>
      </trkpt>
      <trkpt lat="48.63645" lon="1.68304">
        <ele>131</ele>
        <time>2010-05-14T12:48:35Z</time>
      </trkpt>
      <trkpt lat="48.63645" lon="1.68302">
        <ele>133</ele>
        <time>2010-05-14T12:48:37Z</time>
      </trkpt>
      <trkpt lat="48.63645" lon="1.68301">
        <ele>134</ele>
        <time>2010-05-14T12:48:38Z</time>
      </trkpt>
      <trkpt lat="48.63645" lon="1.68299">
        <ele>135</ele>
        <time>2010-05-14T12:48:39Z</time>
      </trkpt>
      <trkpt lat="48.63646" lon="1.68301">
        <ele>138</ele>
        <time>2010-05-14T12:48:45Z</time>
      </trkpt>
      <trkpt lat="48.63648" lon="1.68302">
        <ele>138</ele>
        <time>2010-05-14T12:48:49Z</time>
      </trkpt>
      <trkpt lat="48.63646" lon="1.68303">
        <ele>137</ele>
        <time>2010-05-14T12:48:53Z</time>
      </trkpt>
      <trkpt lat="48.63645" lon="1.68303">
        <ele>137</ele>
        <time>2010-05-14T12:48:55Z</time>
      </trkpt>
      <trkpt lat="48.63645" lon="1.68305">
        <ele>137</ele>
        <time>2010-05-14T12:49:00Z</time>
      </trkpt>
      <trkpt lat="48.63647" lon="1.68307">
        <ele>137</ele>
        <time>2010-05-14T12:49:03Z</time>
      </trkpt>
      <trkpt lat="48.63648" lon="1.68307">
        <ele>137</ele>
        <time>2010-05-14T12:49:05Z</time>
      </trkpt>
      <trkpt lat="48.63647" lon="1.68309">
        <ele>134</ele>
        <time>2010-05-14T12:49:10Z</time>
      </trkpt>
      <trkpt lat="48.63647" lon="1.6831">
        <ele>131</ele>
        <time>2010-05-14T12:49:16Z</time>
      </trkpt>
      <trkpt lat="48.63649" lon="1.68311">
        <ele>131</ele>
        <time>2010-05-14T12:49:23Z</time>
      </trkpt>
      <trkpt lat="48.63649" lon="1.68309">
        <ele>131</ele>
        <time>2010-05-14T12:49:33Z</time>
      </trkpt>
      <trkpt lat="48.6365" lon="1.68308">
        <ele>131</ele>
        <time>2010-05-14T12:49:42Z</time>
      </trkpt>
      <trkpt lat="48.63651" lon="1.68306">
        <ele>131</ele>
        <time>2010-05-14T12:49:45Z</time>
      </trkpt>
      <trkpt lat="48.63651" lon="1.68304">
        <ele>131</ele>
        <time>2010-05-14T12:49:50Z</time>
      </trkpt>
      <trkpt lat="48.63651" lon="1.68306">
        <ele>132</ele>
        <time>2010-05-14T12:49:53Z</time>
      </trkpt>
      <trkpt lat="48.63651" lon="1.68308">
        <ele>133</ele>
        <time>2010-05-14T12:49:55Z</time>
      </trkpt>
      <trkpt lat="48.6365" lon="1.68311">
        <ele>133</ele>
        <time>2010-05-14T12:49:57Z</time>
      </trkpt>
      <trkpt lat="48.63652" lon="1.68311">
        <ele>127</ele>
        <time>2010-05-14T12:50:04Z</time>
      </trkpt>
      <trkpt lat="48.63653" lon="1.68311">
        <ele>126</ele>
        <time>2010-05-14T12:50:06Z</time>
      </trkpt>
      <trkpt lat="48.63654" lon="1.68308">
        <ele>124</ele>
        <time>2010-05-14T12:50:08Z</time>
      </trkpt>
      <trkpt lat="48.63654" lon="1.68306">
        <ele>121</ele>
        <time>2010-05-14T12:50:13Z</time>
      </trkpt>
      <trkpt lat="48.63655" lon="1.68304">
        <ele>121</ele>
        <time>2010-05-14T12:50:16Z</time>
      </trkpt>
      <trkpt lat="48.63655" lon="1.68303">
        <ele>121</ele>
        <time>2010-05-14T12:50:17Z</time>
      </trkpt>
      <trkpt lat="48.63654" lon="1.68301">
        <ele>121</ele>
        <time>2010-05-14T12:50:20Z</time>
      </trkpt>
      <trkpt lat="48.63652" lon="1.683">
        <ele>121</ele>
        <time>2010-05-14T12:50:22Z</time>
      </trkpt>
      <trkpt lat="48.63651" lon="1.68302">
        <ele>124</ele>
        <time>2010-05-14T12:50:27Z</time>
      </trkpt>
      <trkpt lat="48.63652" lon="1.68304">
        <ele>124</ele>
        <time>2010-05-14T12:50:33Z</time>
      </trkpt>
      <trkpt lat="48.63653" lon="1.68303">
        <ele>124</ele>
        <time>2010-05-14T12:50:35Z</time>
      </trkpt>
      <trkpt lat="48.63655" lon="1.68304">
        <ele>124</ele>
        <time>2010-05-14T12:50:37Z</time>
      </trkpt>
      <trkpt lat="48.63656" lon="1.68303">
        <ele>124</ele>
        <time>2010-05-14T12:50:39Z</time>
      </trkpt>
      <trkpt lat="48.63655" lon="1.68301">
        <ele>124</ele>
        <time>2010-05-14T12:50:41Z</time>
      </trkpt>
      <trkpt lat="48.63654" lon="1.68299">
        <ele>124</ele>
        <time>2010-05-14T12:50:43Z</time>
      </trkpt>
      <trkpt lat="48.63654" lon="1.68296">
        <ele>124</ele>
        <time>2010-05-14T12:50:45Z</time>
      </trkpt>
      <trkpt lat="48.63654" lon="1.68291">
        <ele>124</ele>
        <time>2010-05-14T12:50:49Z</time>
      </trkpt>
      <trkpt lat="48.63655" lon="1.68287">
        <ele>124</ele>
        <time>2010-05-14T12:50:50Z</time>
      </trkpt>
      <trkpt lat="48.63657" lon="1.68286">
        <ele>124</ele>
        <time>2010-05-14T12:50:51Z</time>
      </trkpt>
      <trkpt lat="48.63656" lon="1.68286">
        <ele>124</ele>
        <time>2010-05-14T12:50:54Z</time>
      </trkpt>
      <trkpt lat="48.63654" lon="1.6828">
        <ele>124</ele>
        <time>2010-05-14T12:50:55Z</time>
      </trkpt>
      <trkpt lat="48.63653" lon="1.68277">
        <ele>124</ele>
        <time>2010-05-14T12:50:56Z</time>
      </trkpt>
      <trkpt lat="48.63653" lon="1.68275">
        <ele>125</ele>
        <time>2010-05-14T12:50:57Z</time>
      </trkpt>
      <trkpt lat="48.63653" lon="1.68273">
        <ele>126</ele>
        <time>2010-05-14T12:50:58Z</time>
      </trkpt>
      <trkpt lat="48.63653" lon="1.68271">
        <ele>127</ele>
        <time>2010-05-14T12:50:59Z</time>
      </trkpt>
      <trkpt lat="48.63652" lon="1.68266">
        <ele>129</ele>
        <time>2010-05-14T12:51:01Z</time>
      </trkpt>
      <trkpt lat="48.63652" lon="1.68263">
        <ele>129</ele>
        <time>2010-05-14T12:51:03Z</time>
      </trkpt>
      <trkpt lat="48.63651" lon="1.6826">
        <ele>129</ele>
        <time>2010-05-14T12:51:04Z</time>
      </trkpt>
      <trkpt lat="48.63651" lon="1.68258">
        <ele>129</ele>
        <time>2010-05-14T12:51:05Z</time>
      </trkpt>
      <trkpt lat="48.63651" lon="1.68256">
        <ele>129</ele>
        <time>2010-05-14T12:51:06Z</time>
      </trkpt>
      <trkpt lat="48.63651" lon="1.68253">
        <ele>130</ele>
        <time>2010-05-14T12:51:09Z</time>
      </trkpt>
      <trkpt lat="48.63651" lon="1.68251">
        <ele>130</ele>
        <time>2010-05-14T12:51:12Z</time>
      </trkpt>
      <trkpt lat="48.63652" lon="1.6825">
        <ele>130</ele>
        <time>2010-05-14T12:51:14Z</time>
      </trkpt>
      <trkpt lat="48.63652" lon="1.68248">
        <ele>130</ele>
        <time>2010-05-14T12:51:15Z</time>
      </trkpt>
      <trkpt lat="48.63652" lon="1.68241">
        <ele>130</ele>
        <time>2010-05-14T12:51:19Z</time>
      </trkpt>
      <trkpt lat="48.63653" lon="1.68235">
        <ele>130</ele>
        <time>2010-05-14T12:51:20Z</time>
      </trkpt>
      <trkpt lat="48.63652" lon="1.68226">
        <ele>130</ele>
        <time>2010-05-14T12:51:21Z</time>
      </trkpt>
      <trkpt lat="48.63652" lon="1.68224">
        <ele>130</ele>
        <time>2010-05-14T12:51:22Z</time>
      </trkpt>
      <trkpt lat="48.6365" lon="1.6822">
        <ele>130</ele>
        <time>2010-05-14T12:51:23Z</time>
      </trkpt>
      <trkpt lat="48.6365" lon="1.68219">
        <ele>130</ele>
        <time>2010-05-14T12:51:25Z</time>
      </trkpt>
      <trkpt lat="48.63651" lon="1.68216">
        <ele>128</ele>
        <time>2010-05-14T12:51:28Z</time>
      </trkpt>
      <trkpt lat="48.63652" lon="1.68214">
        <ele>126</ele>
        <time>2010-05-14T12:51:30Z</time>
      </trkpt>
      <trkpt lat="48.63651" lon="1.68212">
        <ele>125</ele>
        <time>2010-05-14T12:51:31Z</time>
      </trkpt>
      <trkpt lat="48.63652" lon="1.68209">
        <ele>125</ele>
        <time>2010-05-14T12:51:34Z</time>
      </trkpt>
      <trkpt lat="48.63653" lon="1.68205">
        <ele>125</ele>
        <time>2010-05-14T12:51:36Z</time>
      </trkpt>
      <trkpt lat="48.63652" lon="1.682">
        <ele>125</ele>
        <time>2010-05-14T12:51:38Z</time>
      </trkpt>
      <trkpt lat="48.63653" lon="1.68197">
        <ele>125</ele>
        <time>2010-05-14T12:51:40Z</time>
      </trkpt>
      <trkpt lat="48.63652" lon="1.68194">
        <ele>125</ele>
        <time>2010-05-14T12:51:41Z</time>
      </trkpt>
      <trkpt lat="48.63652" lon="1.6819">
        <ele>125</ele>
        <time>2010-05-14T12:51:42Z</time>
      </trkpt>
      <trkpt lat="48.63651" lon="1.68188">
        <ele>125</ele>
        <time>2010-05-14T12:51:43Z</time>
      </trkpt>
      <trkpt lat="48.63652" lon="1.68184">
        <ele>125</ele>
        <time>2010-05-14T12:51:45Z</time>
      </trkpt>
      <trkpt lat="48.63653" lon="1.68183">
        <ele>125</ele>
        <time>2010-05-14T12:51:46Z</time>
      </trkpt>
      <trkpt lat="48.63654" lon="1.6818">
        <ele>125</ele>
        <time>2010-05-14T12:51:48Z</time>
      </trkpt>
      <trkpt lat="48.63654" lon="1.68177">
        <ele>125</ele>
        <time>2010-05-14T12:51:49Z</time>
      </trkpt>
      <trkpt lat="48.63653" lon="1.68174">
        <ele>125</ele>
        <time>2010-05-14T12:51:50Z</time>
      </trkpt>
      <trkpt lat="48.63653" lon="1.68171">
        <ele>125</ele>
        <time>2010-05-14T12:51:52Z</time>
      </trkpt>
      <trkpt lat="48.63654" lon="1.68169">
        <ele>125</ele>
        <time>2010-05-14T12:51:53Z</time>
      </trkpt>
      <trkpt lat="48.63654" lon="1.68167">
        <ele>125</ele>
        <time>2010-05-14T12:51:54Z</time>
      </trkpt>
      <trkpt lat="48.63655" lon="1.68164">
        <ele>125</ele>
        <time>2010-05-14T12:51:56Z</time>
      </trkpt>
      <trkpt lat="48.63655" lon="1.68162">
        <ele>125</ele>
        <time>2010-05-14T12:51:57Z</time>
      </trkpt>
      <trkpt lat="48.63655" lon="1.6816">
        <ele>125</ele>
        <time>2010-05-14T12:51:58Z</time>
      </trkpt>
      <trkpt lat="48.63655" lon="1.68157">
        <ele>125</ele>
        <time>2010-05-14T12:51:59Z</time>
      </trkpt>
      <trkpt lat="48.63654" lon="1.68153">
        <ele>125</ele>
        <time>2010-05-14T12:52:00Z</time>
      </trkpt>
      <trkpt lat="48.63655" lon="1.68149">
        <ele>125</ele>
        <time>2010-05-14T12:52:02Z</time>
      </trkpt>
      <trkpt lat="48.63655" lon="1.68147">
        <ele>125</ele>
        <time>2010-05-14T12:52:03Z</time>
      </trkpt>
      <trkpt lat="48.63655" lon="1.68145">
        <ele>125</ele>
        <time>2010-05-14T12:52:04Z</time>
      </trkpt>
      <trkpt lat="48.63655" lon="1.68143">
        <ele>125</ele>
        <time>2010-05-14T12:52:05Z</time>
      </trkpt>
      <trkpt lat="48.63656" lon="1.68142">
        <ele>125</ele>
        <time>2010-05-14T12:52:06Z</time>
      </trkpt>
      <trkpt lat="48.63656" lon="1.68139">
        <ele>125</ele>
        <time>2010-05-14T12:52:07Z</time>
      </trkpt>
      <trkpt lat="48.63655" lon="1.68136">
        <ele>124</ele>
        <time>2010-05-14T12:52:08Z</time>
      </trkpt>
      <trkpt lat="48.63654" lon="1.68132">
        <ele>124</ele>
        <time>2010-05-14T12:52:09Z</time>
      </trkpt>
      <trkpt lat="48.63654" lon="1.68128">
        <ele>124</ele>
        <time>2010-05-14T12:52:10Z</time>
      </trkpt>
      <trkpt lat="48.63654" lon="1.68126">
        <ele>124</ele>
        <time>2010-05-14T12:52:11Z</time>
      </trkpt>
      <trkpt lat="48.63654" lon="1.68124">
        <ele>124</ele>
        <time>2010-05-14T12:52:12Z</time>
      </trkpt>
      <trkpt lat="48.63654" lon="1.68122">
        <ele>124</ele>
        <time>2010-05-14T12:52:13Z</time>
      </trkpt>
      <trkpt lat="48.63655" lon="1.68121">
        <ele>124</ele>
        <time>2010-05-14T12:52:14Z</time>
      </trkpt>
      <trkpt lat="48.63655" lon="1.68119">
        <ele>123</ele>
        <time>2010-05-14T12:52:15Z</time>
      </trkpt>
      <trkpt lat="48.63655" lon="1.68117">
        <ele>123</ele>
        <time>2010-05-14T12:52:16Z</time>
      </trkpt>
      <trkpt lat="48.63656" lon="1.68115">
        <ele>123</ele>
        <time>2010-05-14T12:52:17Z</time>
      </trkpt>
      <trkpt lat="48.63656" lon="1.68113">
        <ele>123</ele>
        <time>2010-05-14T12:52:18Z</time>
      </trkpt>
      <trkpt lat="48.63656" lon="1.68111">
        <ele>123</ele>
        <time>2010-05-14T12:52:19Z</time>
      </trkpt>
      <trkpt lat="48.63655" lon="1.68107">
        <ele>123</ele>
        <time>2010-05-14T12:52:20Z</time>
      </trkpt>
      <trkpt lat="48.63654" lon="1.68105">
        <ele>123</ele>
        <time>2010-05-14T12:52:24Z</time>
      </trkpt>
      <trkpt lat="48.63653" lon="1.68103">
        <ele>123</ele>
        <time>2010-05-14T12:52:26Z</time>
      </trkpt>
      <trkpt lat="48.63653" lon="1.68101">
        <ele>123</ele>
        <time>2010-05-14T12:52:27Z</time>
      </trkpt>
      <trkpt lat="48.63653" lon="1.68098">
        <ele>123</ele>
        <time>2010-05-14T12:52:28Z</time>
      </trkpt>
      <trkpt lat="48.63654" lon="1.68094">
        <ele>121</ele>
        <time>2010-05-14T12:52:30Z</time>
      </trkpt>
      <trkpt lat="48.63654" lon="1.68091">
        <ele>120</ele>
        <time>2010-05-14T12:52:32Z</time>
      </trkpt>
      <trkpt lat="48.63655" lon="1.6809">
        <ele>118</ele>
        <time>2010-05-14T12:52:36Z</time>
      </trkpt>
      <trkpt lat="48.63654" lon="1.68088">
        <ele>118</ele>
        <time>2010-05-14T12:52:37Z</time>
      </trkpt>
      <trkpt lat="48.63653" lon="1.68086">
        <ele>118</ele>
        <time>2010-05-14T12:52:39Z</time>
      </trkpt>
      <trkpt lat="48.63652" lon="1.68082">
        <ele>118</ele>
        <time>2010-05-14T12:52:41Z</time>
      </trkpt>
      <trkpt lat="48.63652" lon="1.6808">
        <ele>118</ele>
        <time>2010-05-14T12:52:43Z</time>
      </trkpt>
      <trkpt lat="48.63653" lon="1.68078">
        <ele>118</ele>
        <time>2010-05-14T12:52:45Z</time>
      </trkpt>
      <trkpt lat="48.63655" lon="1.68076">
        <ele>118</ele>
        <time>2010-05-14T12:52:47Z</time>
      </trkpt>
      <trkpt lat="48.63656" lon="1.68074">
        <ele>118</ele>
        <time>2010-05-14T12:52:49Z</time>
      </trkpt>
      <trkpt lat="48.63657" lon="1.68071">
        <ele>118</ele>
        <time>2010-05-14T12:52:50Z</time>
      </trkpt>
      <trkpt lat="48.63659" lon="1.68069">
        <ele>118</ele>
        <time>2010-05-14T12:52:52Z</time>
      </trkpt>
      <trkpt lat="48.63659" lon="1.68067">
        <ele>118</ele>
        <time>2010-05-14T12:52:53Z</time>
      </trkpt>
      <trkpt lat="48.6366" lon="1.68065">
        <ele>118</ele>
        <time>2010-05-14T12:52:54Z</time>
      </trkpt>
      <trkpt lat="48.63661" lon="1.68062">
        <ele>120</ele>
        <time>2010-05-14T12:52:56Z</time>
      </trkpt>
      <trkpt lat="48.63662" lon="1.68059">
        <ele>120</ele>
        <time>2010-05-14T12:52:58Z</time>
      </trkpt>
      <trkpt lat="48.63663" lon="1.68057">
        <ele>120</ele>
        <time>2010-05-14T12:53:00Z</time>
      </trkpt>
      <trkpt lat="48.63664" lon="1.68053">
        <ele>120</ele>
        <time>2010-05-14T12:53:02Z</time>
      </trkpt>
      <trkpt lat="48.63665" lon="1.68049">
        <ele>120</ele>
        <time>2010-05-14T12:53:04Z</time>
      </trkpt>
      <trkpt lat="48.63665" lon="1.68047">
        <ele>120</ele>
        <time>2010-05-14T12:53:06Z</time>
      </trkpt>
      <trkpt lat="48.63666" lon="1.68044">
        <ele>120</ele>
        <time>2010-05-14T12:53:08Z</time>
      </trkpt>
      <trkpt lat="48.63666" lon="1.68041">
        <ele>120</ele>
        <time>2010-05-14T12:53:09Z</time>
      </trkpt>
      <trkpt lat="48.63667" lon="1.68038">
        <ele>120</ele>
        <time>2010-05-14T12:53:11Z</time>
      </trkpt>
      <trkpt lat="48.63667" lon="1.68036">
        <ele>120</ele>
        <time>2010-05-14T12:53:12Z</time>
      </trkpt>
      <trkpt lat="48.63667" lon="1.68033">
        <ele>120</ele>
        <time>2010-05-14T12:53:13Z</time>
      </trkpt>
      <trkpt lat="48.63667" lon="1.68032">
        <ele>120</ele>
        <time>2010-05-14T12:53:14Z</time>
      </trkpt>
      <trkpt lat="48.63667" lon="1.6803">
        <ele>120</ele>
        <time>2010-05-14T12:53:15Z</time>
      </trkpt>
      <trkpt lat="48.63668" lon="1.68027">
        <ele>120</ele>
        <time>2010-05-14T12:53:16Z</time>
      </trkpt>
      <trkpt lat="48.63668" lon="1.68025">
        <ele>120</ele>
        <time>2010-05-14T12:53:17Z</time>
      </trkpt>
      <trkpt lat="48.63669" lon="1.68022">
        <ele>120</ele>
        <time>2010-05-14T12:53:18Z</time>
      </trkpt>
      <trkpt lat="48.63669" lon="1.6802">
        <ele>120</ele>
        <time>2010-05-14T12:53:19Z</time>
      </trkpt>
      <trkpt lat="48.6367" lon="1.68018">
        <ele>120</ele>
        <time>2010-05-14T12:53:20Z</time>
      </trkpt>
      <trkpt lat="48.6367" lon="1.68016">
        <ele>120</ele>
        <time>2010-05-14T12:53:21Z</time>
      </trkpt>
      <trkpt lat="48.63672" lon="1.68013">
        <ele>120</ele>
        <time>2010-05-14T12:53:23Z</time>
      </trkpt>
      <trkpt lat="48.63673" lon="1.6801">
        <ele>120</ele>
        <time>2010-05-14T12:53:25Z</time>
      </trkpt>
      <trkpt lat="48.63673" lon="1.68008">
        <ele>120</ele>
        <time>2010-05-14T12:53:26Z</time>
      </trkpt>
      <trkpt lat="48.63673" lon="1.68005">
        <ele>120</ele>
        <time>2010-05-14T12:53:27Z</time>
      </trkpt>
      <trkpt lat="48.63673" lon="1.68004">
        <ele>119</ele>
        <time>2010-05-14T12:53:28Z</time>
      </trkpt>
      <trkpt lat="48.63673" lon="1.68002">
        <ele>119</ele>
        <time>2010-05-14T12:53:29Z</time>
      </trkpt>
      <trkpt lat="48.63674" lon="1.68">
        <ele>118</ele>
        <time>2010-05-14T12:53:30Z</time>
      </trkpt>
      <trkpt lat="48.63674" lon="1.67998">
        <ele>117</ele>
        <time>2010-05-14T12:53:31Z</time>
      </trkpt>
      <trkpt lat="48.63673" lon="1.67995">
        <ele>116</ele>
        <time>2010-05-14T12:53:33Z</time>
      </trkpt>
      <trkpt lat="48.63674" lon="1.67993">
        <ele>115</ele>
        <time>2010-05-14T12:53:34Z</time>
      </trkpt>
      <trkpt lat="48.63674" lon="1.6799">
        <ele>114</ele>
        <time>2010-05-14T12:53:36Z</time>
      </trkpt>
      <trkpt lat="48.63674" lon="1.67988">
        <ele>114</ele>
        <time>2010-05-14T12:53:37Z</time>
      </trkpt>
      <trkpt lat="48.63674" lon="1.67986">
        <ele>114</ele>
        <time>2010-05-14T12:53:38Z</time>
      </trkpt>
      <trkpt lat="48.63675" lon="1.67984">
        <ele>114</ele>
        <time>2010-05-14T12:53:39Z</time>
      </trkpt>
      <trkpt lat="48.63675" lon="1.67981">
        <ele>114</ele>
        <time>2010-05-14T12:53:40Z</time>
      </trkpt>
      <trkpt lat="48.63675" lon="1.67979">
        <ele>114</ele>
        <time>2010-05-14T12:53:41Z</time>
      </trkpt>
      <trkpt lat="48.63676" lon="1.67978">
        <ele>113</ele>
        <time>2010-05-14T12:53:42Z</time>
      </trkpt>
      <trkpt lat="48.63677" lon="1.67974">
        <ele>112</ele>
        <time>2010-05-14T12:53:44Z</time>
      </trkpt>
      <trkpt lat="48.63678" lon="1.67973">
        <ele>111</ele>
        <time>2010-05-14T12:53:45Z</time>
      </trkpt>
      <trkpt lat="48.63678" lon="1.67971">
        <ele>110</ele>
        <time>2010-05-14T12:53:46Z</time>
      </trkpt>
      <trkpt lat="48.63678" lon="1.67969">
        <ele>109</ele>
        <time>2010-05-14T12:53:47Z</time>
      </trkpt>
      <trkpt lat="48.63679" lon="1.67966">
        <ele>107</ele>
        <time>2010-05-14T12:53:49Z</time>
      </trkpt>
      <trkpt lat="48.63679" lon="1.67964">
        <ele>106</ele>
        <time>2010-05-14T12:53:50Z</time>
      </trkpt>
      <trkpt lat="48.63679" lon="1.67962">
        <ele>106</ele>
        <time>2010-05-14T12:53:51Z</time>
      </trkpt>
      <trkpt lat="48.63679" lon="1.67961">
        <ele>105</ele>
        <time>2010-05-14T12:53:52Z</time>
      </trkpt>
      <trkpt lat="48.6368" lon="1.67959">
        <ele>105</ele>
        <time>2010-05-14T12:53:53Z</time>
      </trkpt>
      <trkpt lat="48.6368" lon="1.67957">
        <ele>104</ele>
        <time>2010-05-14T12:53:54Z</time>
      </trkpt>
      <trkpt lat="48.6368" lon="1.67955">
        <ele>104</ele>
        <time>2010-05-14T12:53:55Z</time>
      </trkpt>
      <trkpt lat="48.63681" lon="1.67953">
        <ele>103</ele>
        <time>2010-05-14T12:53:56Z</time>
      </trkpt>
      <trkpt lat="48.63681" lon="1.67952">
        <ele>102</ele>
        <time>2010-05-14T12:53:57Z</time>
      </trkpt>
      <trkpt lat="48.63681" lon="1.67949">
        <ele>101</ele>
        <time>2010-05-14T12:53:58Z</time>
      </trkpt>
      <trkpt lat="48.63681" lon="1.67947">
        <ele>101</ele>
        <time>2010-05-14T12:53:59Z</time>
      </trkpt>
      <trkpt lat="48.63682" lon="1.67945">
        <ele>101</ele>
        <time>2010-05-14T12:54:00Z</time>
      </trkpt>
      <trkpt lat="48.63682" lon="1.67943">
        <ele>101</ele>
        <time>2010-05-14T12:54:01Z</time>
      </trkpt>
      <trkpt lat="48.63683" lon="1.67941">
        <ele>101</ele>
        <time>2010-05-14T12:54:02Z</time>
      </trkpt>
      <trkpt lat="48.63683" lon="1.67938">
        <ele>101</ele>
        <time>2010-05-14T12:54:03Z</time>
      </trkpt>
      <trkpt lat="48.63682" lon="1.67934">
        <ele>101</ele>
        <time>2010-05-14T12:54:04Z</time>
      </trkpt>
      <trkpt lat="48.63682" lon="1.6793">
        <ele>101</ele>
        <time>2010-05-14T12:54:06Z</time>
      </trkpt>
      <trkpt lat="48.63682" lon="1.67928">
        <ele>102</ele>
        <time>2010-05-14T12:54:07Z</time>
      </trkpt>
      <trkpt lat="48.63682" lon="1.67926">
        <ele>103</ele>
        <time>2010-05-14T12:54:08Z</time>
      </trkpt>
      <trkpt lat="48.63682" lon="1.67924">
        <ele>104</ele>
        <time>2010-05-14T12:54:09Z</time>
      </trkpt>
      <trkpt lat="48.63682" lon="1.67922">
        <ele>104</ele>
        <time>2010-05-14T12:54:10Z</time>
      </trkpt>
      <trkpt lat="48.63683" lon="1.6792">
        <ele>105</ele>
        <time>2010-05-14T12:54:11Z</time>
      </trkpt>
      <trkpt lat="48.63683" lon="1.67918">
        <ele>106</ele>
        <time>2010-05-14T12:54:12Z</time>
      </trkpt>
      <trkpt lat="48.63684" lon="1.67916">
        <ele>107</ele>
        <time>2010-05-14T12:54:13Z</time>
      </trkpt>
      <trkpt lat="48.63684" lon="1.67914">
        <ele>107</ele>
        <time>2010-05-14T12:54:14Z</time>
      </trkpt>
      <trkpt lat="48.63684" lon="1.67913">
        <ele>108</ele>
        <time>2010-05-14T12:54:15Z</time>
      </trkpt>
      <trkpt lat="48.63685" lon="1.67911">
        <ele>109</ele>
        <time>2010-05-14T12:54:16Z</time>
      </trkpt>
      <trkpt lat="48.63685" lon="1.67909">
        <ele>109</ele>
        <time>2010-05-14T12:54:17Z</time>
      </trkpt>
      <trkpt lat="48.63686" lon="1.67907">
        <ele>109</ele>
        <time>2010-05-14T12:54:18Z</time>
      </trkpt>
      <trkpt lat="48.63686" lon="1.67905">
        <ele>109</ele>
        <time>2010-05-14T12:54:19Z</time>
      </trkpt>
      <trkpt lat="48.63686" lon="1.67903">
        <ele>109</ele>
        <time>2010-05-14T12:54:20Z</time>
      </trkpt>
      <trkpt lat="48.63686" lon="1.67901">
        <ele>109</ele>
        <time>2010-05-14T12:54:21Z</time>
      </trkpt>
      <trkpt lat="48.63686" lon="1.67897">
        <ele>109</ele>
        <time>2010-05-14T12:54:22Z</time>
      </trkpt>
      <trkpt lat="48.63685" lon="1.67894">
        <ele>109</ele>
        <time>2010-05-14T12:54:23Z</time>
      </trkpt>
      <trkpt lat="48.63685" lon="1.67891">
        <ele>109</ele>
        <time>2010-05-14T12:54:24Z</time>
      </trkpt>
      <trkpt lat="48.63685" lon="1.67888">
        <ele>109</ele>
        <time>2010-05-14T12:54:25Z</time>
      </trkpt>
      <trkpt lat="48.63685" lon="1.67886">
        <ele>109</ele>
        <time>2010-05-14T12:54:26Z</time>
      </trkpt>
      <trkpt lat="48.63686" lon="1.67884">
        <ele>109</ele>
        <time>2010-05-14T12:54:27Z</time>
      </trkpt>
      <trkpt lat="48.63686" lon="1.67882">
        <ele>109</ele>
        <time>2010-05-14T12:54:28Z</time>
      </trkpt>
      <trkpt lat="48.63686" lon="1.6788">
        <ele>109</ele>
        <time>2010-05-14T12:54:29Z</time>
      </trkpt>
      <trkpt lat="48.63686" lon="1.67878">
        <ele>109</ele>
        <time>2010-05-14T12:54:30Z</time>
      </trkpt>
      <trkpt lat="48.63687" lon="1.67876">
        <ele>109</ele>
        <time>2010-05-14T12:54:31Z</time>
      </trkpt>
      <trkpt lat="48.63687" lon="1.67874">
        <ele>109</ele>
        <time>2010-05-14T12:54:32Z</time>
      </trkpt>
      <trkpt lat="48.63687" lon="1.67871">
        <ele>109</ele>
        <time>2010-05-14T12:54:33Z</time>
      </trkpt>
      <trkpt lat="48.63687" lon="1.67868">
        <ele>109</ele>
        <time>2010-05-14T12:54:34Z</time>
      </trkpt>
      <trkpt lat="48.63687" lon="1.67866">
        <ele>109</ele>
        <time>2010-05-14T12:54:35Z</time>
      </trkpt>
      <trkpt lat="48.63687" lon="1.67865">
        <ele>109</ele>
        <time>2010-05-14T12:54:36Z</time>
      </trkpt>
      <trkpt lat="48.63687" lon="1.67861">
        <ele>109</ele>
        <time>2010-05-14T12:54:37Z</time>
      </trkpt>
      <trkpt lat="48.63687" lon="1.67859">
        <ele>109</ele>
        <time>2010-05-14T12:54:38Z</time>
      </trkpt>
      <trkpt lat="48.63687" lon="1.67856">
        <ele>109</ele>
        <time>2010-05-14T12:54:39Z</time>
      </trkpt>
      <trkpt lat="48.63686" lon="1.67854">
        <ele>109</ele>
        <time>2010-05-14T12:54:40Z</time>
      </trkpt>
      <trkpt lat="48.63687" lon="1.67852">
        <ele>109</ele>
        <time>2010-05-14T12:54:41Z</time>
      </trkpt>
      <trkpt lat="48.63687" lon="1.6785">
        <ele>109</ele>
        <time>2010-05-14T12:54:42Z</time>
      </trkpt>
      <trkpt lat="48.63687" lon="1.67848">
        <ele>109</ele>
        <time>2010-05-14T12:54:43Z</time>
      </trkpt>
      <trkpt lat="48.63688" lon="1.67846">
        <ele>110</ele>
        <time>2010-05-14T12:54:44Z</time>
      </trkpt>
      <trkpt lat="48.63688" lon="1.67844">
        <ele>111</ele>
        <time>2010-05-14T12:54:45Z</time>
      </trkpt>
      <trkpt lat="48.63688" lon="1.67843">
        <ele>111</ele>
        <time>2010-05-14T12:54:46Z</time>
      </trkpt>
      <trkpt lat="48.63688" lon="1.6784">
        <ele>112</ele>
        <time>2010-05-14T12:54:48Z</time>
      </trkpt>
      <trkpt lat="48.63688" lon="1.67838">
        <ele>112</ele>
        <time>2010-05-14T12:54:49Z</time>
      </trkpt>
      <trkpt lat="48.63688" lon="1.67836">
        <ele>112</ele>
        <time>2010-05-14T12:54:50Z</time>
      </trkpt>
      <trkpt lat="48.63688" lon="1.67834">
        <ele>112</ele>
        <time>2010-05-14T12:54:51Z</time>
      </trkpt>
      <trkpt lat="48.63689" lon="1.67832">
        <ele>112</ele>
        <time>2010-05-14T12:54:52Z</time>
      </trkpt>
      <trkpt lat="48.63689" lon="1.6783">
        <ele>112</ele>
        <time>2010-05-14T12:54:53Z</time>
      </trkpt>
      <trkpt lat="48.63689" lon="1.67828">
        <ele>112</ele>
        <time>2010-05-14T12:54:54Z</time>
      </trkpt>
      <trkpt lat="48.63689" lon="1.67826">
        <ele>112</ele>
        <time>2010-05-14T12:54:55Z</time>
      </trkpt>
      <trkpt lat="48.63689" lon="1.67823">
        <ele>112</ele>
        <time>2010-05-14T12:54:56Z</time>
      </trkpt>
      <trkpt lat="48.63689" lon="1.67821">
        <ele>112</ele>
        <time>2010-05-14T12:54:57Z</time>
      </trkpt>
      <trkpt lat="48.6369" lon="1.67819">
        <ele>113</ele>
        <time>2010-05-14T12:54:58Z</time>
      </trkpt>
      <trkpt lat="48.6369" lon="1.67816">
        <ele>113</ele>
        <time>2010-05-14T12:54:59Z</time>
      </trkpt>
      <trkpt lat="48.6369" lon="1.67813">
        <ele>113</ele>
        <time>2010-05-14T12:55:00Z</time>
      </trkpt>
      <trkpt lat="48.6369" lon="1.67811">
        <ele>114</ele>
        <time>2010-05-14T12:55:01Z</time>
      </trkpt>
      <trkpt lat="48.6369" lon="1.67808">
        <ele>114</ele>
        <time>2010-05-14T12:55:02Z</time>
      </trkpt>
      <trkpt lat="48.6369" lon="1.67806">
        <ele>115</ele>
        <time>2010-05-14T12:55:03Z</time>
      </trkpt>
      <trkpt lat="48.6369" lon="1.67804">
        <ele>115</ele>
        <time>2010-05-14T12:55:04Z</time>
      </trkpt>
      <trkpt lat="48.6369" lon="1.67802">
        <ele>116</ele>
        <time>2010-05-14T12:55:05Z</time>
      </trkpt>
      <trkpt lat="48.63689" lon="1.67798">
        <ele>117</ele>
        <time>2010-05-14T12:55:06Z</time>
      </trkpt>
      <trkpt lat="48.63689" lon="1.67795">
        <ele>118</ele>
        <time>2010-05-14T12:55:07Z</time>
      </trkpt>
      <trkpt lat="48.63689" lon="1.67793">
        <ele>118</ele>
        <time>2010-05-14T12:55:08Z</time>
      </trkpt>
      <trkpt lat="48.63688" lon="1.67791">
        <ele>118</ele>
        <time>2010-05-14T12:55:09Z</time>
      </trkpt>
      <trkpt lat="48.63688" lon="1.67789">
        <ele>118</ele>
        <time>2010-05-14T12:55:10Z</time>
      </trkpt>
      <trkpt lat="48.63688" lon="1.67787">
        <ele>118</ele>
        <time>2010-05-14T12:55:11Z</time>
      </trkpt>
      <trkpt lat="48.63688" lon="1.67785">
        <ele>118</ele>
        <time>2010-05-14T12:55:12Z</time>
      </trkpt>
      <trkpt lat="48.63688" lon="1.67782">
        <ele>118</ele>
        <time>2010-05-14T12:55:13Z</time>
      </trkpt>
      <trkpt lat="48.63688" lon="1.6778">
        <ele>118</ele>
        <time>2010-05-14T12:55:14Z</time>
      </trkpt>
      <trkpt lat="48.63688" lon="1.67778">
        <ele>118</ele>
        <time>2010-05-14T12:55:15Z</time>
      </trkpt>
      <trkpt lat="48.63688" lon="1.67776">
        <ele>118</ele>
        <time>2010-05-14T12:55:16Z</time>
      </trkpt>
      <trkpt lat="48.63688" lon="1.67774">
        <ele>118</ele>
        <time>2010-05-14T12:55:17Z</time>
      </trkpt>
      <trkpt lat="48.63688" lon="1.67771">
        <ele>118</ele>
        <time>2010-05-14T12:55:18Z</time>
      </trkpt>
      <trkpt lat="48.63689" lon="1.6777">
        <ele>119</ele>
        <time>2010-05-14T12:55:19Z</time>
      </trkpt>
      <trkpt lat="48.63689" lon="1.67768">
        <ele>119</ele>
        <time>2010-05-14T12:55:20Z</time>
      </trkpt>
      <trkpt lat="48.63689" lon="1.67765">
        <ele>120</ele>
        <time>2010-05-14T12:55:21Z</time>
      </trkpt>
      <trkpt lat="48.63689" lon="1.67763">
        <ele>120</ele>
        <time>2010-05-14T12:55:22Z</time>
      </trkpt>
      <trkpt lat="48.63689" lon="1.6776">
        <ele>120</ele>
        <time>2010-05-14T12:55:23Z</time>
      </trkpt>
      <trkpt lat="48.63689" lon="1.67757">
        <ele>121</ele>
        <time>2010-05-14T12:55:24Z</time>
      </trkpt>
      <trkpt lat="48.63689" lon="1.67755">
        <ele>122</ele>
        <time>2010-05-14T12:55:25Z</time>
      </trkpt>
      <trkpt lat="48.63689" lon="1.67753">
        <ele>123</ele>
        <time>2010-05-14T12:55:26Z</time>
      </trkpt>
      <trkpt lat="48.63689" lon="1.67751">
        <ele>123</ele>
        <time>2010-05-14T12:55:27Z</time>
      </trkpt>
      <trkpt lat="48.63689" lon="1.6775">
        <ele>124</ele>
        <time>2010-05-14T12:55:28Z</time>
      </trkpt>
      <trkpt lat="48.63689" lon="1.67748">
        <ele>124</ele>
        <time>2010-05-14T12:55:29Z</time>
      </trkpt>
      <trkpt lat="48.63689" lon="1.67746">
        <ele>124</ele>
        <time>2010-05-14T12:55:30Z</time>
      </trkpt>
      <trkpt lat="48.63689" lon="1.67744">
        <ele>125</ele>
        <time>2010-05-14T12:55:31Z</time>
      </trkpt>
      <trkpt lat="48.63688" lon="1.67742">
        <ele>125</ele>
        <time>2010-05-14T12:55:32Z</time>
      </trkpt>
      <trkpt lat="48.63688" lon="1.6774">
        <ele>125</ele>
        <time>2010-05-14T12:55:33Z</time>
      </trkpt>
      <trkpt lat="48.63688" lon="1.67737">
        <ele>125</ele>
        <time>2010-05-14T12:55:35Z</time>
      </trkpt>
      <trkpt lat="48.63688" lon="1.67735">
        <ele>125</ele>
        <time>2010-05-14T12:55:37Z</time>
      </trkpt>
      <trkpt lat="48.63687" lon="1.67731">
        <ele>126</ele>
        <time>2010-05-14T12:55:39Z</time>
      </trkpt>
      <trkpt lat="48.63686" lon="1.6773">
        <ele>126</ele>
        <time>2010-05-14T12:55:40Z</time>
      </trkpt>
      <trkpt lat="48.63685" lon="1.67726">
        <ele>126</ele>
        <time>2010-05-14T12:55:41Z</time>
      </trkpt>
      <trkpt lat="48.63684" lon="1.67723">
        <ele>126</ele>
        <time>2010-05-14T12:55:42Z</time>
      </trkpt>
      <trkpt lat="48.63684" lon="1.6772">
        <ele>126</ele>
        <time>2010-05-14T12:55:43Z</time>
      </trkpt>
      <trkpt lat="48.63684" lon="1.67718">
        <ele>126</ele>
        <time>2010-05-14T12:55:44Z</time>
      </trkpt>
      <trkpt lat="48.63683" lon="1.67716">
        <ele>126</ele>
        <time>2010-05-14T12:55:45Z</time>
      </trkpt>
      <trkpt lat="48.63683" lon="1.67715">
        <ele>127</ele>
        <time>2010-05-14T12:55:46Z</time>
      </trkpt>
      <trkpt lat="48.63682" lon="1.67713">
        <ele>127</ele>
        <time>2010-05-14T12:55:47Z</time>
      </trkpt>
      <trkpt lat="48.63681" lon="1.67711">
        <ele>127</ele>
        <time>2010-05-14T12:55:49Z</time>
      </trkpt>
      <trkpt lat="48.6368" lon="1.67708">
        <ele>128</ele>
        <time>2010-05-14T12:55:51Z</time>
      </trkpt>
      <trkpt lat="48.63678" lon="1.67706">
        <ele>128</ele>
        <time>2010-05-14T12:55:53Z</time>
      </trkpt>
      <trkpt lat="48.63677" lon="1.67703">
        <ele>128</ele>
        <time>2010-05-14T12:55:55Z</time>
      </trkpt>
      <trkpt lat="48.63676" lon="1.67698">
        <ele>128</ele>
        <time>2010-05-14T12:55:57Z</time>
      </trkpt>
      <trkpt lat="48.63675" lon="1.67695">
        <ele>128</ele>
        <time>2010-05-14T12:55:59Z</time>
      </trkpt>
      <trkpt lat="48.63674" lon="1.67693">
        <ele>129</ele>
        <time>2010-05-14T12:56:01Z</time>
      </trkpt>
      <trkpt lat="48.63674" lon="1.67691">
        <ele>130</ele>
        <time>2010-05-14T12:56:02Z</time>
      </trkpt>
      <trkpt lat="48.63673" lon="1.67688">
        <ele>130</ele>
        <time>2010-05-14T12:56:04Z</time>
      </trkpt>
      <trkpt lat="48.63672" lon="1.67685">
        <ele>130</ele>
        <time>2010-05-14T12:56:06Z</time>
      </trkpt>
      <trkpt lat="48.63671" lon="1.67683">
        <ele>130</ele>
        <time>2010-05-14T12:56:08Z</time>
      </trkpt>
      <trkpt lat="48.6367" lon="1.6768">
        <ele>130</ele>
        <time>2010-05-14T12:56:10Z</time>
      </trkpt>
      <trkpt lat="48.63668" lon="1.67676">
        <ele>130</ele>
        <time>2010-05-14T12:56:12Z</time>
      </trkpt>
      <trkpt lat="48.63667" lon="1.67674">
        <ele>130</ele>
        <time>2010-05-14T12:56:14Z</time>
      </trkpt>
      <trkpt lat="48.63666" lon="1.6767">
        <ele>130</ele>
        <time>2010-05-14T12:56:16Z</time>
      </trkpt>
      <trkpt lat="48.63665" lon="1.67666">
        <ele>130</ele>
        <time>2010-05-14T12:56:17Z</time>
      </trkpt>
      <trkpt lat="48.63663" lon="1.6766">
        <ele>130</ele>
        <time>2010-05-14T12:56:18Z</time>
      </trkpt>
      <trkpt lat="48.63662" lon="1.67658">
        <ele>130</ele>
        <time>2010-05-14T12:56:19Z</time>
      </trkpt>
      <trkpt lat="48.63662" lon="1.67656">
        <ele>130</ele>
        <time>2010-05-14T12:56:21Z</time>
      </trkpt>
      <trkpt lat="48.63661" lon="1.67653">
        <ele>130</ele>
        <time>2010-05-14T12:56:22Z</time>
      </trkpt>
      <trkpt lat="48.63662" lon="1.67652">
        <ele>130</ele>
        <time>2010-05-14T12:56:23Z</time>
      </trkpt>
      <trkpt lat="48.63662" lon="1.67649">
        <ele>130</ele>
        <time>2010-05-14T12:56:25Z</time>
      </trkpt>
      <trkpt lat="48.63662" lon="1.67646">
        <ele>130</ele>
        <time>2010-05-14T12:56:26Z</time>
      </trkpt>
      <trkpt lat="48.63661" lon="1.67643">
        <ele>130</ele>
        <time>2010-05-14T12:56:27Z</time>
      </trkpt>
      <trkpt lat="48.63661" lon="1.67641">
        <ele>130</ele>
        <time>2010-05-14T12:56:28Z</time>
      </trkpt>
      <trkpt lat="48.6366" lon="1.67637">
        <ele>130</ele>
        <time>2010-05-14T12:56:30Z</time>
      </trkpt>
      <trkpt lat="48.6366" lon="1.67636">
        <ele>130</ele>
        <time>2010-05-14T12:56:31Z</time>
      </trkpt>
      <trkpt lat="48.6366" lon="1.67633">
        <ele>130</ele>
        <time>2010-05-14T12:56:32Z</time>
      </trkpt>
      <trkpt lat="48.6366" lon="1.67631">
        <ele>130</ele>
        <time>2010-05-14T12:56:34Z</time>
      </trkpt>
      <trkpt lat="48.6366" lon="1.67628">
        <ele>130</ele>
        <time>2010-05-14T12:56:35Z</time>
      </trkpt>
      <trkpt lat="48.63659" lon="1.67626">
        <ele>130</ele>
        <time>2010-05-14T12:56:36Z</time>
      </trkpt>
      <trkpt lat="48.63658" lon="1.67623">
        <ele>130</ele>
        <time>2010-05-14T12:56:37Z</time>
      </trkpt>
      <trkpt lat="48.63658" lon="1.6762">
        <ele>130</ele>
        <time>2010-05-14T12:56:38Z</time>
      </trkpt>
      <trkpt lat="48.63658" lon="1.67618">
        <ele>130</ele>
        <time>2010-05-14T12:56:39Z</time>
      </trkpt>
      <trkpt lat="48.63657" lon="1.67615">
        <ele>130</ele>
        <time>2010-05-14T12:56:40Z</time>
      </trkpt>
      <trkpt lat="48.63657" lon="1.67612">
        <ele>130</ele>
        <time>2010-05-14T12:56:41Z</time>
      </trkpt>
      <trkpt lat="48.63657" lon="1.67609">
        <ele>130</ele>
        <time>2010-05-14T12:56:43Z</time>
      </trkpt>
      <trkpt lat="48.63656" lon="1.67606">
        <ele>130</ele>
        <time>2010-05-14T12:56:45Z</time>
      </trkpt>
      <trkpt lat="48.63656" lon="1.67604">
        <ele>130</ele>
        <time>2010-05-14T12:56:46Z</time>
      </trkpt>
      <trkpt lat="48.63655" lon="1.67601">
        <ele>130</ele>
        <time>2010-05-14T12:56:47Z</time>
      </trkpt>
      <trkpt lat="48.63655" lon="1.67599">
        <ele>130</ele>
        <time>2010-05-14T12:56:48Z</time>
      </trkpt>
      <trkpt lat="48.63655" lon="1.67596">
        <ele>130</ele>
        <time>2010-05-14T12:56:49Z</time>
      </trkpt>
      <trkpt lat="48.63655" lon="1.67594">
        <ele>130</ele>
        <time>2010-05-14T12:56:51Z</time>
      </trkpt>
      <trkpt lat="48.63656" lon="1.67591">
        <ele>130</ele>
        <time>2010-05-14T12:56:52Z</time>
      </trkpt>
      <trkpt lat="48.63657" lon="1.67589">
        <ele>130</ele>
        <time>2010-05-14T12:56:54Z</time>
      </trkpt>
      <trkpt lat="48.63657" lon="1.67586">
        <ele>130</ele>
        <time>2010-05-14T12:56:55Z</time>
      </trkpt>
      <trkpt lat="48.63658" lon="1.67584">
        <ele>130</ele>
        <time>2010-05-14T12:56:56Z</time>
      </trkpt>
      <trkpt lat="48.63658" lon="1.67581">
        <ele>130</ele>
        <time>2010-05-14T12:56:58Z</time>
      </trkpt>
      <trkpt lat="48.63659" lon="1.67578">
        <ele>130</ele>
        <time>2010-05-14T12:57:00Z</time>
      </trkpt>
      <trkpt lat="48.63659" lon="1.67576">
        <ele>130</ele>
        <time>2010-05-14T12:57:01Z</time>
      </trkpt>
      <trkpt lat="48.63659" lon="1.67574">
        <ele>130</ele>
        <time>2010-05-14T12:57:03Z</time>
      </trkpt>
      <trkpt lat="48.63659" lon="1.67572">
        <ele>130</ele>
        <time>2010-05-14T12:57:04Z</time>
      </trkpt>
      <trkpt lat="48.6366" lon="1.67568">
        <ele>130</ele>
        <time>2010-05-14T12:57:05Z</time>
      </trkpt>
      <trkpt lat="48.63662" lon="1.67566">
        <ele>130</ele>
        <time>2010-05-14T12:57:07Z</time>
      </trkpt>
      <trkpt lat="48.63662" lon="1.67564">
        <ele>130</ele>
        <time>2010-05-14T12:57:08Z</time>
      </trkpt>
      <trkpt lat="48.63662" lon="1.67561">
        <ele>130</ele>
        <time>2010-05-14T12:57:10Z</time>
      </trkpt>
      <trkpt lat="48.63663" lon="1.67559">
        <ele>130</ele>
        <time>2010-05-14T12:57:11Z</time>
      </trkpt>
      <trkpt lat="48.63663" lon="1.67557">
        <ele>130</ele>
        <time>2010-05-14T12:57:13Z</time>
      </trkpt>
      <trkpt lat="48.63664" lon="1.67554">
        <ele>130</ele>
        <time>2010-05-14T12:57:15Z</time>
      </trkpt>
      <trkpt lat="48.63664" lon="1.67552">
        <ele>130</ele>
        <time>2010-05-14T12:57:17Z</time>
      </trkpt>
      <trkpt lat="48.63663" lon="1.67549">
        <ele>130</ele>
        <time>2010-05-14T12:57:18Z</time>
      </trkpt>
      <trkpt lat="48.63662" lon="1.67547">
        <ele>130</ele>
        <time>2010-05-14T12:57:19Z</time>
      </trkpt>
      <trkpt lat="48.63662" lon="1.67544">
        <ele>130</ele>
        <time>2010-05-14T12:57:21Z</time>
      </trkpt>
      <trkpt lat="48.63661" lon="1.67543">
        <ele>130</ele>
        <time>2010-05-14T12:57:23Z</time>
      </trkpt>
      <trkpt lat="48.63659" lon="1.67541">
        <ele>130</ele>
        <time>2010-05-14T12:57:25Z</time>
      </trkpt>
      <trkpt lat="48.63657" lon="1.67541">
        <ele>130</ele>
        <time>2010-05-14T12:57:27Z</time>
      </trkpt>
      <trkpt lat="48.63655" lon="1.6754">
        <ele>130</ele>
        <time>2010-05-14T12:57:28Z</time>
      </trkpt>
      <trkpt lat="48.63654" lon="1.6754">
        <ele>130</ele>
        <time>2010-05-14T12:57:29Z</time>
      </trkpt>
      <trkpt lat="48.63652" lon="1.6754">
        <ele>130</ele>
        <time>2010-05-14T12:57:30Z</time>
      </trkpt>
      <trkpt lat="48.63651" lon="1.67539">
        <ele>130</ele>
        <time>2010-05-14T12:57:31Z</time>
      </trkpt>
      <trkpt lat="48.63649" lon="1.6754">
        <ele>130</ele>
        <time>2010-05-14T12:57:32Z</time>
      </trkpt>
      <trkpt lat="48.63648" lon="1.67539">
        <ele>131</ele>
        <time>2010-05-14T12:57:33Z</time>
      </trkpt>
      <trkpt lat="48.63646" lon="1.67539">
        <ele>131</ele>
        <time>2010-05-14T12:57:34Z</time>
      </trkpt>
      <trkpt lat="48.63644" lon="1.67538">
        <ele>131</ele>
        <time>2010-05-14T12:57:36Z</time>
      </trkpt>
      <trkpt lat="48.63643" lon="1.67538">
        <ele>132</ele>
        <time>2010-05-14T12:57:37Z</time>
      </trkpt>
      <trkpt lat="48.63642" lon="1.67539">
        <ele>133</ele>
        <time>2010-05-14T12:57:38Z</time>
      </trkpt>
      <trkpt lat="48.63641" lon="1.67539">
        <ele>133</ele>
        <time>2010-05-14T12:57:39Z</time>
      </trkpt>
      <trkpt lat="48.63639" lon="1.67539">
        <ele>134</ele>
        <time>2010-05-14T12:57:40Z</time>
      </trkpt>
      <trkpt lat="48.63638" lon="1.67537">
        <ele>134</ele>
        <time>2010-05-14T12:57:41Z</time>
      </trkpt>
      <trkpt lat="48.63637" lon="1.67536">
        <ele>134</ele>
        <time>2010-05-14T12:57:42Z</time>
      </trkpt>
      <trkpt lat="48.63635" lon="1.67535">
        <ele>135</ele>
        <time>2010-05-14T12:57:43Z</time>
      </trkpt>
      <trkpt lat="48.63634" lon="1.67532">
        <ele>135</ele>
        <time>2010-05-14T12:57:45Z</time>
      </trkpt>
      <trkpt lat="48.63633" lon="1.6753">
        <ele>135</ele>
        <time>2010-05-14T12:57:46Z</time>
      </trkpt>
      <trkpt lat="48.63632" lon="1.67528">
        <ele>135</ele>
        <time>2010-05-14T12:57:47Z</time>
      </trkpt>
      <trkpt lat="48.63632" lon="1.67523">
        <ele>136</ele>
        <time>2010-05-14T12:57:50Z</time>
      </trkpt>
      <trkpt lat="48.63633" lon="1.67519">
        <ele>136</ele>
        <time>2010-05-14T12:57:51Z</time>
      </trkpt>
      <trkpt lat="48.63632" lon="1.67514">
        <ele>136</ele>
        <time>2010-05-14T12:57:52Z</time>
      </trkpt>
      <trkpt lat="48.63631" lon="1.67512">
        <ele>136</ele>
        <time>2010-05-14T12:57:53Z</time>
      </trkpt>
      <trkpt lat="48.63631" lon="1.6751">
        <ele>136</ele>
        <time>2010-05-14T12:57:54Z</time>
      </trkpt>
      <trkpt lat="48.6363" lon="1.67508">
        <ele>136</ele>
        <time>2010-05-14T12:57:55Z</time>
      </trkpt>
      <trkpt lat="48.63629" lon="1.67506">
        <ele>136</ele>
        <time>2010-05-14T12:57:56Z</time>
      </trkpt>
      <trkpt lat="48.63628" lon="1.67504">
        <ele>136</ele>
        <time>2010-05-14T12:57:58Z</time>
      </trkpt>
      <trkpt lat="48.63627" lon="1.675">
        <ele>136</ele>
        <time>2010-05-14T12:58:01Z</time>
      </trkpt>
      <trkpt lat="48.63628" lon="1.67496">
        <ele>136</ele>
        <time>2010-05-14T12:58:02Z</time>
      </trkpt>
      <trkpt lat="48.63627" lon="1.67493">
        <ele>137</ele>
        <time>2010-05-14T12:58:03Z</time>
      </trkpt>
      <trkpt lat="48.63627" lon="1.67491">
        <ele>137</ele>
        <time>2010-05-14T12:58:04Z</time>
      </trkpt>
      <trkpt lat="48.63626" lon="1.67489">
        <ele>138</ele>
        <time>2010-05-14T12:58:05Z</time>
      </trkpt>
      <trkpt lat="48.63625" lon="1.67486">
        <ele>138</ele>
        <time>2010-05-14T12:58:06Z</time>
      </trkpt>
      <trkpt lat="48.63625" lon="1.67484">
        <ele>138</ele>
        <time>2010-05-14T12:58:07Z</time>
      </trkpt>
      <trkpt lat="48.63625" lon="1.67482">
        <ele>138</ele>
        <time>2010-05-14T12:58:08Z</time>
      </trkpt>
      <trkpt lat="48.63625" lon="1.67479">
        <ele>138</ele>
        <time>2010-05-14T12:58:10Z</time>
      </trkpt>
      <trkpt lat="48.63625" lon="1.67477">
        <ele>138</ele>
        <time>2010-05-14T12:58:12Z</time>
      </trkpt>
      <trkpt lat="48.63625" lon="1.67474">
        <ele>138</ele>
        <time>2010-05-14T12:58:13Z</time>
      </trkpt>
      <trkpt lat="48.63624" lon="1.67472">
        <ele>139</ele>
        <time>2010-05-14T12:58:14Z</time>
      </trkpt>
      <trkpt lat="48.63624" lon="1.67467">
        <ele>139</ele>
        <time>2010-05-14T12:58:17Z</time>
      </trkpt>
      <trkpt lat="48.63625" lon="1.67462">
        <ele>139</ele>
        <time>2010-05-14T12:58:18Z</time>
      </trkpt>
      <trkpt lat="48.63623" lon="1.67456">
        <ele>139</ele>
        <time>2010-05-14T12:58:21Z</time>
      </trkpt>
      <trkpt lat="48.63622" lon="1.67452">
        <ele>139</ele>
        <time>2010-05-14T12:58:22Z</time>
      </trkpt>
      <trkpt lat="48.63621" lon="1.67448">
        <ele>139</ele>
        <time>2010-05-14T12:58:23Z</time>
      </trkpt>
      <trkpt lat="48.63622" lon="1.67444">
        <ele>139</ele>
        <time>2010-05-14T12:58:24Z</time>
      </trkpt>
      <trkpt lat="48.63623" lon="1.67441">
        <ele>139</ele>
        <time>2010-05-14T12:58:25Z</time>
      </trkpt>
      <trkpt lat="48.63623" lon="1.67437">
        <ele>139</ele>
        <time>2010-05-14T12:58:26Z</time>
      </trkpt>
      <trkpt lat="48.63622" lon="1.67434">
        <ele>139</ele>
        <time>2010-05-14T12:58:27Z</time>
      </trkpt>
      <trkpt lat="48.63621" lon="1.67432">
        <ele>139</ele>
        <time>2010-05-14T12:58:28Z</time>
      </trkpt>
      <trkpt lat="48.63621" lon="1.67429">
        <ele>139</ele>
        <time>2010-05-14T12:58:30Z</time>
      </trkpt>
      <trkpt lat="48.63621" lon="1.67428">
        <ele>140</ele>
        <time>2010-05-14T12:58:31Z</time>
      </trkpt>
      <trkpt lat="48.63621" lon="1.67424">
        <ele>142</ele>
        <time>2010-05-14T12:58:33Z</time>
      </trkpt>
      <trkpt lat="48.63621" lon="1.67421">
        <ele>144</ele>
        <time>2010-05-14T12:58:35Z</time>
      </trkpt>
      <trkpt lat="48.63621" lon="1.67419">
        <ele>145</ele>
        <time>2010-05-14T12:58:36Z</time>
      </trkpt>
      <trkpt lat="48.63621" lon="1.67415">
        <ele>147</ele>
        <time>2010-05-14T12:58:38Z</time>
      </trkpt>
      <trkpt lat="48.63621" lon="1.67413">
        <ele>147</ele>
        <time>2010-05-14T12:58:39Z</time>
      </trkpt>
      <trkpt lat="48.6362" lon="1.67411">
        <ele>147</ele>
        <time>2010-05-14T12:58:41Z</time>
      </trkpt>
      <trkpt lat="48.63621" lon="1.67409">
        <ele>147</ele>
        <time>2010-05-14T12:58:44Z</time>
      </trkpt>
      <trkpt lat="48.63622" lon="1.67407">
        <ele>147</ele>
        <time>2010-05-14T12:58:46Z</time>
      </trkpt>
      <trkpt lat="48.63622" lon="1.67404">
        <ele>147</ele>
        <time>2010-05-14T12:58:48Z</time>
      </trkpt>
      <trkpt lat="48.63622" lon="1.67401">
        <ele>147</ele>
        <time>2010-05-14T12:58:49Z</time>
      </trkpt>
      <trkpt lat="48.63622" lon="1.67399">
        <ele>147</ele>
        <time>2010-05-14T12:58:50Z</time>
      </trkpt>
      <trkpt lat="48.63623" lon="1.67396">
        <ele>147</ele>
        <time>2010-05-14T12:58:51Z</time>
      </trkpt>
      <trkpt lat="48.63624" lon="1.6739">
        <ele>147</ele>
        <time>2010-05-14T12:58:55Z</time>
      </trkpt>
      <trkpt lat="48.63624" lon="1.67385">
        <ele>147</ele>
        <time>2010-05-14T12:58:56Z</time>
      </trkpt>
      <trkpt lat="48.63625" lon="1.67383">
        <ele>147</ele>
        <time>2010-05-14T12:58:57Z</time>
      </trkpt>
      <trkpt lat="48.63625" lon="1.67379">
        <ele>147</ele>
        <time>2010-05-14T12:58:58Z</time>
      </trkpt>
      <trkpt lat="48.63623" lon="1.67373">
        <ele>147</ele>
        <time>2010-05-14T12:59:02Z</time>
      </trkpt>
      <trkpt lat="48.63622" lon="1.6737">
        <ele>147</ele>
        <time>2010-05-14T12:59:03Z</time>
      </trkpt>
      <trkpt lat="48.63622" lon="1.67366">
        <ele>147</ele>
        <time>2010-05-14T12:59:04Z</time>
      </trkpt>
      <trkpt lat="48.63622" lon="1.67363">
        <ele>147</ele>
        <time>2010-05-14T12:59:05Z</time>
      </trkpt>
      <trkpt lat="48.63621" lon="1.6736">
        <ele>147</ele>
        <time>2010-05-14T12:59:06Z</time>
      </trkpt>
      <trkpt lat="48.63621" lon="1.67357">
        <ele>147</ele>
        <time>2010-05-14T12:59:07Z</time>
      </trkpt>
      <trkpt lat="48.63621" lon="1.67355">
        <ele>147</ele>
        <time>2010-05-14T12:59:08Z</time>
      </trkpt>
      <trkpt lat="48.63621" lon="1.67353">
        <ele>147</ele>
        <time>2010-05-14T12:59:09Z</time>
      </trkpt>
      <trkpt lat="48.63621" lon="1.67351">
        <ele>147</ele>
        <time>2010-05-14T12:59:10Z</time>
      </trkpt>
      <trkpt lat="48.63621" lon="1.67347">
        <ele>147</ele>
        <time>2010-05-14T12:59:13Z</time>
      </trkpt>
      <trkpt lat="48.63621" lon="1.67339">
        <ele>147</ele>
        <time>2010-05-14T12:59:17Z</time>
      </trkpt>
      <trkpt lat="48.63623" lon="1.67341">
        <ele>146</ele>
        <time>2010-05-14T12:59:18Z</time>
      </trkpt>
      <trkpt lat="48.63624" lon="1.6734">
        <ele>145</ele>
        <time>2010-05-14T12:59:19Z</time>
      </trkpt>
      <trkpt lat="48.63623" lon="1.67337">
        <ele>144</ele>
        <time>2010-05-14T12:59:20Z</time>
      </trkpt>
      <trkpt lat="48.63621" lon="1.67335">
        <ele>143</ele>
        <time>2010-05-14T12:59:21Z</time>
      </trkpt>
      <trkpt lat="48.63622" lon="1.67332">
        <ele>142</ele>
        <time>2010-05-14T12:59:22Z</time>
      </trkpt>
      <trkpt lat="48.63624" lon="1.67329">
        <ele>140</ele>
        <time>2010-05-14T12:59:24Z</time>
      </trkpt>
      <trkpt lat="48.63623" lon="1.67326">
        <ele>138</ele>
        <time>2010-05-14T12:59:26Z</time>
      </trkpt>
      <trkpt lat="48.63623" lon="1.67324">
        <ele>137</ele>
        <time>2010-05-14T12:59:27Z</time>
      </trkpt>
      <trkpt lat="48.63624" lon="1.67322">
        <ele>136</ele>
        <time>2010-05-14T12:59:28Z</time>
      </trkpt>
      <trkpt lat="48.63623" lon="1.67319">
        <ele>135</ele>
        <time>2010-05-14T12:59:29Z</time>
      </trkpt>
      <trkpt lat="48.63624" lon="1.67316">
        <ele>134</ele>
        <time>2010-05-14T12:59:31Z</time>
      </trkpt>
      <trkpt lat="48.63625" lon="1.67314">
        <ele>134</ele>
        <time>2010-05-14T12:59:32Z</time>
      </trkpt>
      <trkpt lat="48.63625" lon="1.67312">
        <ele>134</ele>
        <time>2010-05-14T12:59:33Z</time>
      </trkpt>
      <trkpt lat="48.63625" lon="1.67309">
        <ele>134</ele>
        <time>2010-05-14T12:59:35Z</time>
      </trkpt>
      <trkpt lat="48.63625" lon="1.67307">
        <ele>134</ele>
        <time>2010-05-14T12:59:36Z</time>
      </trkpt>
      <trkpt lat="48.63626" lon="1.67305">
        <ele>134</ele>
        <time>2010-05-14T12:59:37Z</time>
      </trkpt>
      <trkpt lat="48.63626" lon="1.67303">
        <ele>134</ele>
        <time>2010-05-14T12:59:38Z</time>
      </trkpt>
      <trkpt lat="48.63627" lon="1.67302">
        <ele>134</ele>
        <time>2010-05-14T12:59:39Z</time>
      </trkpt>
      <trkpt lat="48.63627" lon="1.673">
        <ele>134</ele>
        <time>2010-05-14T12:59:40Z</time>
      </trkpt>
      <trkpt lat="48.63628" lon="1.67298">
        <ele>134</ele>
        <time>2010-05-14T12:59:41Z</time>
      </trkpt>
      <trkpt lat="48.63628" lon="1.67296">
        <ele>134</ele>
        <time>2010-05-14T12:59:42Z</time>
      </trkpt>
      <trkpt lat="48.63628" lon="1.67294">
        <ele>134</ele>
        <time>2010-05-14T12:59:43Z</time>
      </trkpt>
      <trkpt lat="48.63628" lon="1.67292">
        <ele>135</ele>
        <time>2010-05-14T12:59:44Z</time>
      </trkpt>
      <trkpt lat="48.63628" lon="1.67289">
        <ele>135</ele>
        <time>2010-05-14T12:59:45Z</time>
      </trkpt>
      <trkpt lat="48.63628" lon="1.67287">
        <ele>136</ele>
        <time>2010-05-14T12:59:46Z</time>
      </trkpt>
      <trkpt lat="48.63629" lon="1.67285">
        <ele>137</ele>
        <time>2010-05-14T12:59:47Z</time>
      </trkpt>
      <trkpt lat="48.63629" lon="1.67283">
        <ele>137</ele>
        <time>2010-05-14T12:59:48Z</time>
      </trkpt>
      <trkpt lat="48.63629" lon="1.67281">
        <ele>137</ele>
        <time>2010-05-14T12:59:49Z</time>
      </trkpt>
      <trkpt lat="48.63629" lon="1.67279">
        <ele>137</ele>
        <time>2010-05-14T12:59:50Z</time>
      </trkpt>
      <trkpt lat="48.6363" lon="1.67277">
        <ele>137</ele>
        <time>2010-05-14T12:59:51Z</time>
      </trkpt>
      <trkpt lat="48.6363" lon="1.67274">
        <ele>137</ele>
        <time>2010-05-14T12:59:52Z</time>
      </trkpt>
      <trkpt lat="48.63631" lon="1.67272">
        <ele>137</ele>
        <time>2010-05-14T12:59:53Z</time>
      </trkpt>
      <trkpt lat="48.63631" lon="1.6727">
        <ele>137</ele>
        <time>2010-05-14T12:59:54Z</time>
      </trkpt>
      <trkpt lat="48.63631" lon="1.67268">
        <ele>137</ele>
        <time>2010-05-14T12:59:55Z</time>
      </trkpt>
      <trkpt lat="48.63632" lon="1.67266">
        <ele>137</ele>
        <time>2010-05-14T12:59:56Z</time>
      </trkpt>
      <trkpt lat="48.63632" lon="1.67263">
        <ele>137</ele>
        <time>2010-05-14T12:59:57Z</time>
      </trkpt>
      <trkpt lat="48.63632" lon="1.67261">
        <ele>137</ele>
        <time>2010-05-14T12:59:58Z</time>
      </trkpt>
      <trkpt lat="48.63632" lon="1.67259">
        <ele>137</ele>
        <time>2010-05-14T12:59:59Z</time>
      </trkpt>
      <trkpt lat="48.63633" lon="1.67256">
        <ele>137</ele>
        <time>2010-05-14T13:00:00Z</time>
      </trkpt>
      <trkpt lat="48.63633" lon="1.67254">
        <ele>137</ele>
        <time>2010-05-14T13:00:01Z</time>
      </trkpt>
      <trkpt lat="48.63633" lon="1.67252">
        <ele>137</ele>
        <time>2010-05-14T13:00:02Z</time>
      </trkpt>
      <trkpt lat="48.63633" lon="1.67249">
        <ele>137</ele>
        <time>2010-05-14T13:00:03Z</time>
      </trkpt>
      <trkpt lat="48.63633" lon="1.67247">
        <ele>137</ele>
        <time>2010-05-14T13:00:04Z</time>
      </trkpt>
      <trkpt lat="48.63633" lon="1.67245">
        <ele>137</ele>
        <time>2010-05-14T13:00:05Z</time>
      </trkpt>
      <trkpt lat="48.63634" lon="1.67243">
        <ele>137</ele>
        <time>2010-05-14T13:00:06Z</time>
      </trkpt>
      <trkpt lat="48.63634" lon="1.67241">
        <ele>137</ele>
        <time>2010-05-14T13:00:07Z</time>
      </trkpt>
      <trkpt lat="48.63634" lon="1.67239">
        <ele>137</ele>
        <time>2010-05-14T13:00:08Z</time>
      </trkpt>
      <trkpt lat="48.63635" lon="1.67236">
        <ele>137</ele>
        <time>2010-05-14T13:00:09Z</time>
      </trkpt>
      <trkpt lat="48.63635" lon="1.67234">
        <ele>137</ele>
        <time>2010-05-14T13:00:10Z</time>
      </trkpt>
      <trkpt lat="48.63636" lon="1.67232">
        <ele>137</ele>
        <time>2010-05-14T13:00:11Z</time>
      </trkpt>
      <trkpt lat="48.63636" lon="1.6723">
        <ele>137</ele>
        <time>2010-05-14T13:00:12Z</time>
      </trkpt>
      <trkpt lat="48.63636" lon="1.67228">
        <ele>137</ele>
        <time>2010-05-14T13:00:13Z</time>
      </trkpt>
      <trkpt lat="48.63636" lon="1.67226">
        <ele>137</ele>
        <time>2010-05-14T13:00:14Z</time>
      </trkpt>
      <trkpt lat="48.63636" lon="1.67224">
        <ele>137</ele>
        <time>2010-05-14T13:00:15Z</time>
      </trkpt>
      <trkpt lat="48.63636" lon="1.67222">
        <ele>136</ele>
        <time>2010-05-14T13:00:16Z</time>
      </trkpt>
      <trkpt lat="48.63636" lon="1.6722">
        <ele>135</ele>
        <time>2010-05-14T13:00:17Z</time>
      </trkpt>
      <trkpt lat="48.63636" lon="1.67218">
        <ele>134</ele>
        <time>2010-05-14T13:00:18Z</time>
      </trkpt>
      <trkpt lat="48.63636" lon="1.67216">
        <ele>133</ele>
        <time>2010-05-14T13:00:19Z</time>
      </trkpt>
      <trkpt lat="48.63637" lon="1.67214">
        <ele>133</ele>
        <time>2010-05-14T13:00:20Z</time>
      </trkpt>
      <trkpt lat="48.63637" lon="1.67212">
        <ele>132</ele>
        <time>2010-05-14T13:00:21Z</time>
      </trkpt>
      <trkpt lat="48.63637" lon="1.6721">
        <ele>132</ele>
        <time>2010-05-14T13:00:22Z</time>
      </trkpt>
      <trkpt lat="48.63637" lon="1.67207">
        <ele>131</ele>
        <time>2010-05-14T13:00:23Z</time>
      </trkpt>
      <trkpt lat="48.63637" lon="1.67205">
        <ele>131</ele>
        <time>2010-05-14T13:00:24Z</time>
      </trkpt>
      <trkpt lat="48.63637" lon="1.67203">
        <ele>131</ele>
        <time>2010-05-14T13:00:25Z</time>
      </trkpt>
      <trkpt lat="48.63638" lon="1.67201">
        <ele>131</ele>
        <time>2010-05-14T13:00:26Z</time>
      </trkpt>
      <trkpt lat="48.63638" lon="1.67199">
        <ele>131</ele>
        <time>2010-05-14T13:00:27Z</time>
      </trkpt>
      <trkpt lat="48.63638" lon="1.67197">
        <ele>131</ele>
        <time>2010-05-14T13:00:28Z</time>
      </trkpt>
      <trkpt lat="48.63638" lon="1.67196">
        <ele>131</ele>
        <time>2010-05-14T13:00:29Z</time>
      </trkpt>
      <trkpt lat="48.63639" lon="1.67194">
        <ele>130</ele>
        <time>2010-05-14T13:00:30Z</time>
      </trkpt>
      <trkpt lat="48.63639" lon="1.67192">
        <ele>129</ele>
        <time>2010-05-14T13:00:31Z</time>
      </trkpt>
      <trkpt lat="48.63639" lon="1.6719">
        <ele>129</ele>
        <time>2010-05-14T13:00:32Z</time>
      </trkpt>
      <trkpt lat="48.6364" lon="1.67188">
        <ele>128</ele>
        <time>2010-05-14T13:00:33Z</time>
      </trkpt>
      <trkpt lat="48.6364" lon="1.67186">
        <ele>128</ele>
        <time>2010-05-14T13:00:34Z</time>
      </trkpt>
      <trkpt lat="48.6364" lon="1.67184">
        <ele>128</ele>
        <time>2010-05-14T13:00:35Z</time>
      </trkpt>
      <trkpt lat="48.63641" lon="1.67182">
        <ele>128</ele>
        <time>2010-05-14T13:00:36Z</time>
      </trkpt>
      <trkpt lat="48.63641" lon="1.6718">
        <ele>128</ele>
        <time>2010-05-14T13:00:37Z</time>
      </trkpt>
      <trkpt lat="48.63641" lon="1.67177">
        <ele>128</ele>
        <time>2010-05-14T13:00:38Z</time>
      </trkpt>
      <trkpt lat="48.63641" lon="1.67175">
        <ele>128</ele>
        <time>2010-05-14T13:00:39Z</time>
      </trkpt>
      <trkpt lat="48.63641" lon="1.67173">
        <ele>128</ele>
        <time>2010-05-14T13:00:40Z</time>
      </trkpt>
      <trkpt lat="48.63641" lon="1.67171">
        <ele>128</ele>
        <time>2010-05-14T13:00:41Z</time>
      </trkpt>
      <trkpt lat="48.63641" lon="1.67169">
        <ele>128</ele>
        <time>2010-05-14T13:00:42Z</time>
      </trkpt>
      <trkpt lat="48.63642" lon="1.67167">
        <ele>128</ele>
        <time>2010-05-14T13:00:43Z</time>
      </trkpt>
      <trkpt lat="48.63642" lon="1.67165">
        <ele>128</ele>
        <time>2010-05-14T13:00:44Z</time>
      </trkpt>
      <trkpt lat="48.63643" lon="1.67163">
        <ele>128</ele>
        <time>2010-05-14T13:00:45Z</time>
      </trkpt>
      <trkpt lat="48.63643" lon="1.6716">
        <ele>128</ele>
        <time>2010-05-14T13:00:46Z</time>
      </trkpt>
      <trkpt lat="48.63644" lon="1.67158">
        <ele>129</ele>
        <time>2010-05-14T13:00:47Z</time>
      </trkpt>
      <trkpt lat="48.63644" lon="1.67155">
        <ele>130</ele>
        <time>2010-05-14T13:00:48Z</time>
      </trkpt>
      <trkpt lat="48.63644" lon="1.67153">
        <ele>131</ele>
        <time>2010-05-14T13:00:49Z</time>
      </trkpt>
      <trkpt lat="48.63645" lon="1.67151">
        <ele>131</ele>
        <time>2010-05-14T13:00:50Z</time>
      </trkpt>
      <trkpt lat="48.63645" lon="1.67148">
        <ele>132</ele>
        <time>2010-05-14T13:00:51Z</time>
      </trkpt>
      <trkpt lat="48.63646" lon="1.67146">
        <ele>133</ele>
        <time>2010-05-14T13:00:52Z</time>
      </trkpt>
      <trkpt lat="48.63647" lon="1.67142">
        <ele>133</ele>
        <time>2010-05-14T13:00:53Z</time>
      </trkpt>
      <trkpt lat="48.63648" lon="1.67139">
        <ele>134</ele>
        <time>2010-05-14T13:00:54Z</time>
      </trkpt>
      <trkpt lat="48.63649" lon="1.67136">
        <ele>134</ele>
        <time>2010-05-14T13:00:55Z</time>
      </trkpt>
      <trkpt lat="48.6365" lon="1.67133">
        <ele>134</ele>
        <time>2010-05-14T13:00:56Z</time>
      </trkpt>
      <trkpt lat="48.63651" lon="1.67129">
        <ele>135</ele>
        <time>2010-05-14T13:00:57Z</time>
      </trkpt>
      <trkpt lat="48.63651" lon="1.67125">
        <ele>135</ele>
        <time>2010-05-14T13:00:58Z</time>
      </trkpt>
      <trkpt lat="48.63652" lon="1.67122">
        <ele>135</ele>
        <time>2010-05-14T13:00:59Z</time>
      </trkpt>
      <trkpt lat="48.63652" lon="1.67119">
        <ele>135</ele>
        <time>2010-05-14T13:01:00Z</time>
      </trkpt>
      <trkpt lat="48.63653" lon="1.67116">
        <ele>136</ele>
        <time>2010-05-14T13:01:01Z</time>
      </trkpt>
      <trkpt lat="48.63654" lon="1.67112">
        <ele>136</ele>
        <time>2010-05-14T13:01:02Z</time>
      </trkpt>
      <trkpt lat="48.63654" lon="1.6711">
        <ele>136</ele>
        <time>2010-05-14T13:01:03Z</time>
      </trkpt>
      <trkpt lat="48.63655" lon="1.67107">
        <ele>137</ele>
        <time>2010-05-14T13:01:04Z</time>
      </trkpt>
      <trkpt lat="48.63656" lon="1.67104">
        <ele>137</ele>
        <time>2010-05-14T13:01:05Z</time>
      </trkpt>
      <trkpt lat="48.63657" lon="1.67102">
        <ele>137</ele>
        <time>2010-05-14T13:01:06Z</time>
      </trkpt>
      <trkpt lat="48.63657" lon="1.671">
        <ele>138</ele>
        <time>2010-05-14T13:01:07Z</time>
      </trkpt>
      <trkpt lat="48.63659" lon="1.67097">
        <ele>138</ele>
        <time>2010-05-14T13:01:08Z</time>
      </trkpt>
      <trkpt lat="48.63659" lon="1.67095">
        <ele>138</ele>
        <time>2010-05-14T13:01:09Z</time>
      </trkpt>
      <trkpt lat="48.6366" lon="1.67093">
        <ele>139</ele>
        <time>2010-05-14T13:01:10Z</time>
      </trkpt>
      <trkpt lat="48.6366" lon="1.67091">
        <ele>139</ele>
        <time>2010-05-14T13:01:11Z</time>
      </trkpt>
      <trkpt lat="48.63661" lon="1.67088">
        <ele>139</ele>
        <time>2010-05-14T13:01:12Z</time>
      </trkpt>
      <trkpt lat="48.63662" lon="1.67085">
        <ele>139</ele>
        <time>2010-05-14T13:01:13Z</time>
      </trkpt>
      <trkpt lat="48.63663" lon="1.67082">
        <ele>139</ele>
        <time>2010-05-14T13:01:14Z</time>
      </trkpt>
      <trkpt lat="48.63663" lon="1.67081">
        <ele>139</ele>
        <time>2010-05-14T13:01:15Z</time>
      </trkpt>
      <trkpt lat="48.63663" lon="1.67078">
        <ele>139</ele>
        <time>2010-05-14T13:01:17Z</time>
      </trkpt>
      <trkpt lat="48.63664" lon="1.67075">
        <ele>139</ele>
        <time>2010-05-14T13:01:18Z</time>
      </trkpt>
      <trkpt lat="48.63663" lon="1.67073">
        <ele>141</ele>
        <time>2010-05-14T13:01:20Z</time>
      </trkpt>
      <trkpt lat="48.63662" lon="1.6707">
        <ele>142</ele>
        <time>2010-05-14T13:01:23Z</time>
      </trkpt>
      <trkpt lat="48.63662" lon="1.67066">
        <ele>143</ele>
        <time>2010-05-14T13:01:24Z</time>
      </trkpt>
      <trkpt lat="48.63663" lon="1.67063">
        <ele>144</ele>
        <time>2010-05-14T13:01:25Z</time>
      </trkpt>
      <trkpt lat="48.63662" lon="1.67058">
        <ele>146</ele>
        <time>2010-05-14T13:01:27Z</time>
      </trkpt>
      <trkpt lat="48.63662" lon="1.67055">
        <ele>147</ele>
        <time>2010-05-14T13:01:28Z</time>
      </trkpt>
      <trkpt lat="48.63663" lon="1.67053">
        <ele>147</ele>
        <time>2010-05-14T13:01:29Z</time>
      </trkpt>
      <trkpt lat="48.63663" lon="1.67051">
        <ele>148</ele>
        <time>2010-05-14T13:01:30Z</time>
      </trkpt>
      <trkpt lat="48.63664" lon="1.67047">
        <ele>149</ele>
        <time>2010-05-14T13:01:32Z</time>
      </trkpt>
      <trkpt lat="48.63664" lon="1.67045">
        <ele>150</ele>
        <time>2010-05-14T13:01:33Z</time>
      </trkpt>
      <trkpt lat="48.63665" lon="1.67043">
        <ele>150</ele>
        <time>2010-05-14T13:01:34Z</time>
      </trkpt>
      <trkpt lat="48.63666" lon="1.67039">
        <ele>150</ele>
        <time>2010-05-14T13:01:36Z</time>
      </trkpt>
      <trkpt lat="48.63666" lon="1.67038">
        <ele>150</ele>
        <time>2010-05-14T13:01:37Z</time>
      </trkpt>
      <trkpt lat="48.63667" lon="1.67032">
        <ele>150</ele>
        <time>2010-05-14T13:01:41Z</time>
      </trkpt>
      <trkpt lat="48.63668" lon="1.67026">
        <ele>150</ele>
        <time>2010-05-14T13:01:42Z</time>
      </trkpt>
      <trkpt lat="48.63668" lon="1.67023">
        <ele>150</ele>
        <time>2010-05-14T13:01:44Z</time>
      </trkpt>
      <trkpt lat="48.63667" lon="1.67018">
        <ele>151</ele>
        <time>2010-05-14T13:01:45Z</time>
      </trkpt>
      <trkpt lat="48.63667" lon="1.67016">
        <ele>152</ele>
        <time>2010-05-14T13:01:46Z</time>
      </trkpt>
      <trkpt lat="48.63667" lon="1.67014">
        <ele>153</ele>
        <time>2010-05-14T13:01:47Z</time>
      </trkpt>
      <trkpt lat="48.63668" lon="1.67009">
        <ele>153</ele>
        <time>2010-05-14T13:01:49Z</time>
      </trkpt>
      <trkpt lat="48.63669" lon="1.67007">
        <ele>153</ele>
        <time>2010-05-14T13:01:50Z</time>
      </trkpt>
      <trkpt lat="48.63669" lon="1.67005">
        <ele>153</ele>
        <time>2010-05-14T13:01:51Z</time>
      </trkpt>
      <trkpt lat="48.63669" lon="1.67003">
        <ele>153</ele>
        <time>2010-05-14T13:01:52Z</time>
      </trkpt>
      <trkpt lat="48.6367" lon="1.67001">
        <ele>153</ele>
        <time>2010-05-14T13:01:54Z</time>
      </trkpt>
      <trkpt lat="48.63671" lon="1.66994">
        <ele>153</ele>
        <time>2010-05-14T13:01:59Z</time>
      </trkpt>
      <trkpt lat="48.63671" lon="1.6699">
        <ele>152</ele>
        <time>2010-05-14T13:02:00Z</time>
      </trkpt>
      <trkpt lat="48.63671" lon="1.66985">
        <ele>152</ele>
        <time>2010-05-14T13:02:01Z</time>
      </trkpt>
      <trkpt lat="48.63672" lon="1.6698">
        <ele>152</ele>
        <time>2010-05-14T13:02:03Z</time>
      </trkpt>
      <trkpt lat="48.63671" lon="1.66975">
        <ele>152</ele>
        <time>2010-05-14T13:02:04Z</time>
      </trkpt>
      <trkpt lat="48.63671" lon="1.6697">
        <ele>152</ele>
        <time>2010-05-14T13:02:05Z</time>
      </trkpt>
      <trkpt lat="48.63672" lon="1.66967">
        <ele>152</ele>
        <time>2010-05-14T13:02:07Z</time>
      </trkpt>
      <trkpt lat="48.63673" lon="1.66963">
        <ele>152</ele>
        <time>2010-05-14T13:02:09Z</time>
      </trkpt>
      <trkpt lat="48.63674" lon="1.6696">
        <ele>152</ele>
        <time>2010-05-14T13:02:10Z</time>
      </trkpt>
      <trkpt lat="48.63674" lon="1.66958">
        <ele>152</ele>
        <time>2010-05-14T13:02:12Z</time>
      </trkpt>
      <trkpt lat="48.63673" lon="1.66955">
        <ele>152</ele>
        <time>2010-05-14T13:02:14Z</time>
      </trkpt>
      <trkpt lat="48.63673" lon="1.66954">
        <ele>152</ele>
        <time>2010-05-14T13:02:16Z</time>
      </trkpt>
      <trkpt lat="48.63675" lon="1.66952">
        <ele>152</ele>
        <time>2010-05-14T13:02:18Z</time>
      </trkpt>
      <trkpt lat="48.63676" lon="1.66949">
        <ele>152</ele>
        <time>2010-05-14T13:02:20Z</time>
      </trkpt>
      <trkpt lat="48.63676" lon="1.66946">
        <ele>152</ele>
        <time>2010-05-14T13:02:23Z</time>
      </trkpt>
      <trkpt lat="48.63676" lon="1.66942">
        <ele>152</ele>
        <time>2010-05-14T13:02:24Z</time>
      </trkpt>
      <trkpt lat="48.63677" lon="1.66937">
        <ele>152</ele>
        <time>2010-05-14T13:02:25Z</time>
      </trkpt>
      <trkpt lat="48.63677" lon="1.66932">
        <ele>152</ele>
        <time>2010-05-14T13:02:26Z</time>
      </trkpt>
      <trkpt lat="48.63679" lon="1.6693">
        <ele>152</ele>
        <time>2010-05-14T13:02:27Z</time>
      </trkpt>
      <trkpt lat="48.6368" lon="1.66927">
        <ele>152</ele>
        <time>2010-05-14T13:02:29Z</time>
      </trkpt>
      <trkpt lat="48.63678" lon="1.66922">
        <ele>152</ele>
        <time>2010-05-14T13:02:33Z</time>
      </trkpt>
      <trkpt lat="48.63678" lon="1.66916">
        <ele>152</ele>
        <time>2010-05-14T13:02:36Z</time>
      </trkpt>
      <trkpt lat="48.63679" lon="1.66909">
        <ele>152</ele>
        <time>2010-05-14T13:02:37Z</time>
      </trkpt>
      <trkpt lat="48.63679" lon="1.66904">
        <ele>152</ele>
        <time>2010-05-14T13:02:38Z</time>
      </trkpt>
      <trkpt lat="48.63679" lon="1.66901">
        <ele>152</ele>
        <time>2010-05-14T13:02:39Z</time>
      </trkpt>
      <trkpt lat="48.63676" lon="1.66889">
        <ele>152</ele>
        <time>2010-05-14T13:02:44Z</time>
      </trkpt>
      <trkpt lat="48.63676" lon="1.66881">
        <ele>152</ele>
        <time>2010-05-14T13:02:45Z</time>
      </trkpt>
      <trkpt lat="48.63676" lon="1.66875">
        <ele>152</ele>
        <time>2010-05-14T13:02:46Z</time>
      </trkpt>
      <trkpt lat="48.63675" lon="1.6687">
        <ele>152</ele>
        <time>2010-05-14T13:02:48Z</time>
      </trkpt>
      <trkpt lat="48.63674" lon="1.66865">
        <ele>152</ele>
        <time>2010-05-14T13:02:49Z</time>
      </trkpt>
      <trkpt lat="48.63673" lon="1.66861">
        <ele>152</ele>
        <time>2010-05-14T13:02:51Z</time>
      </trkpt>
      <trkpt lat="48.63672" lon="1.66856">
        <ele>152</ele>
        <time>2010-05-14T13:02:52Z</time>
      </trkpt>
      <trkpt lat="48.63673" lon="1.66849">
        <ele>152</ele>
        <time>2010-05-14T13:02:53Z</time>
      </trkpt>
      <trkpt lat="48.63672" lon="1.66843">
        <ele>152</ele>
        <time>2010-05-14T13:02:54Z</time>
      </trkpt>
      <trkpt lat="48.63672" lon="1.6684">
        <ele>152</ele>
        <time>2010-05-14T13:02:55Z</time>
      </trkpt>
      <trkpt lat="48.63672" lon="1.66835">
        <ele>152</ele>
        <time>2010-05-14T13:02:56Z</time>
      </trkpt>
      <trkpt lat="48.63672" lon="1.66832">
        <ele>152</ele>
        <time>2010-05-14T13:02:57Z</time>
      </trkpt>
      <trkpt lat="48.63672" lon="1.66829">
        <ele>152</ele>
        <time>2010-05-14T13:02:58Z</time>
      </trkpt>
      <trkpt lat="48.63673" lon="1.66826">
        <ele>152</ele>
        <time>2010-05-14T13:02:59Z</time>
      </trkpt>
      <trkpt lat="48.63672" lon="1.66823">
        <ele>152</ele>
        <time>2010-05-14T13:03:00Z</time>
      </trkpt>
      <trkpt lat="48.63672" lon="1.6682">
        <ele>152</ele>
        <time>2010-05-14T13:03:01Z</time>
      </trkpt>
      <trkpt lat="48.63672" lon="1.66816">
        <ele>152</ele>
        <time>2010-05-14T13:03:02Z</time>
      </trkpt>
      <trkpt lat="48.63673" lon="1.66812">
        <ele>152</ele>
        <time>2010-05-14T13:03:03Z</time>
      </trkpt>
      <trkpt lat="48.63673" lon="1.66808">
        <ele>152</ele>
        <time>2010-05-14T13:03:04Z</time>
      </trkpt>
      <trkpt lat="48.63673" lon="1.66804">
        <ele>151</ele>
        <time>2010-05-14T13:03:05Z</time>
      </trkpt>
      <trkpt lat="48.63672" lon="1.668">
        <ele>150</ele>
        <time>2010-05-14T13:03:06Z</time>
      </trkpt>
      <trkpt lat="48.63672" lon="1.66796">
        <ele>149</ele>
        <time>2010-05-14T13:03:07Z</time>
      </trkpt>
      <trkpt lat="48.63671" lon="1.6679">
        <ele>148</ele>
        <time>2010-05-14T13:03:08Z</time>
      </trkpt>
      <trkpt lat="48.63672" lon="1.66786">
        <ele>147</ele>
        <time>2010-05-14T13:03:09Z</time>
      </trkpt>
      <trkpt lat="48.63671" lon="1.66779">
        <ele>146</ele>
        <time>2010-05-14T13:03:10Z</time>
      </trkpt>
      <trkpt lat="48.6367" lon="1.66772">
        <ele>145</ele>
        <time>2010-05-14T13:03:11Z</time>
      </trkpt>
      <trkpt lat="48.63669" lon="1.66765">
        <ele>144</ele>
        <time>2010-05-14T13:03:12Z</time>
      </trkpt>
      <trkpt lat="48.63669" lon="1.66758">
        <ele>143</ele>
        <time>2010-05-14T13:03:13Z</time>
      </trkpt>
      <trkpt lat="48.63669" lon="1.66751">
        <ele>142</ele>
        <time>2010-05-14T13:03:14Z</time>
      </trkpt>
      <trkpt lat="48.63669" lon="1.66744">
        <ele>141</ele>
        <time>2010-05-14T13:03:15Z</time>
      </trkpt>
      <trkpt lat="48.63669" lon="1.66737">
        <ele>139</ele>
        <time>2010-05-14T13:03:16Z</time>
      </trkpt>
      <trkpt lat="48.63669" lon="1.66726">
        <ele>137</ele>
        <time>2010-05-14T13:03:17Z</time>
      </trkpt>
      <trkpt lat="48.63669" lon="1.66715">
        <ele>135</ele>
        <time>2010-05-14T13:03:18Z</time>
      </trkpt>
      <trkpt lat="48.63668" lon="1.66703">
        <ele>133</ele>
        <time>2010-05-14T13:03:19Z</time>
      </trkpt>
      <trkpt lat="48.63667" lon="1.6669">
        <ele>131</ele>
        <time>2010-05-14T13:03:20Z</time>
      </trkpt>
      <trkpt lat="48.63666" lon="1.66678">
        <ele>129</ele>
        <time>2010-05-14T13:03:21Z</time>
      </trkpt>
      <trkpt lat="48.63666" lon="1.66665">
        <ele>127</ele>
        <time>2010-05-14T13:03:22Z</time>
      </trkpt>
      <trkpt lat="48.63665" lon="1.66651">
        <ele>125</ele>
        <time>2010-05-14T13:03:23Z</time>
      </trkpt>
      <trkpt lat="48.63665" lon="1.66639">
        <ele>123</ele>
        <time>2010-05-14T13:03:24Z</time>
      </trkpt>
      <trkpt lat="48.63669" lon="1.66584">
        <ele>121</ele>
        <time>2010-05-14T13:03:29Z</time>
      </trkpt>
      <trkpt lat="48.63667" lon="1.66556">
        <ele>120</ele>
        <time>2010-05-14T13:03:30Z</time>
      </trkpt>
      <trkpt lat="48.63664" lon="1.66536">
        <ele>119</ele>
        <time>2010-05-14T13:03:31Z</time>
      </trkpt>
      <trkpt lat="48.63665" lon="1.66519">
        <ele>119</ele>
        <time>2010-05-14T13:03:32Z</time>
      </trkpt>
      <trkpt lat="48.63665" lon="1.66506">
        <ele>119</ele>
        <time>2010-05-14T13:03:33Z</time>
      </trkpt>
      <trkpt lat="48.63666" lon="1.66492">
        <ele>120</ele>
        <time>2010-05-14T13:03:34Z</time>
      </trkpt>
      <trkpt lat="48.63665" lon="1.6648">
        <ele>121</ele>
        <time>2010-05-14T13:03:35Z</time>
      </trkpt>
      <trkpt lat="48.63664" lon="1.66465">
        <ele>123</ele>
        <time>2010-05-14T13:03:36Z</time>
      </trkpt>
      <trkpt lat="48.63663" lon="1.66454">
        <ele>125</ele>
        <time>2010-05-14T13:03:37Z</time>
      </trkpt>
      <trkpt lat="48.6366" lon="1.66451">
        <ele>127</ele>
        <time>2010-05-14T13:03:38Z</time>
      </trkpt>
      <trkpt lat="48.63657" lon="1.66447">
        <ele>129</ele>
        <time>2010-05-14T13:03:39Z</time>
      </trkpt>
      <trkpt lat="48.63654" lon="1.66446">
        <ele>131</ele>
        <time>2010-05-14T13:03:40Z</time>
      </trkpt>
      <trkpt lat="48.63652" lon="1.66446">
        <ele>133</ele>
        <time>2010-05-14T13:03:41Z</time>
      </trkpt>
      <trkpt lat="48.63649" lon="1.66446">
        <ele>135</ele>
        <time>2010-05-14T13:03:42Z</time>
      </trkpt>
      <trkpt lat="48.63647" lon="1.66443">
        <ele>141</ele>
        <time>2010-05-14T13:03:45Z</time>
      </trkpt>
      <trkpt lat="48.63645" lon="1.66441">
        <ele>145</ele>
        <time>2010-05-14T13:03:48Z</time>
      </trkpt>
      <trkpt lat="48.63643" lon="1.66439">
        <ele>147</ele>
        <time>2010-05-14T13:03:50Z</time>
      </trkpt>
      <trkpt lat="48.63642" lon="1.66437">
        <ele>148</ele>
        <time>2010-05-14T13:03:51Z</time>
      </trkpt>
      <trkpt lat="48.63641" lon="1.66434">
        <ele>149</ele>
        <time>2010-05-14T13:03:52Z</time>
      </trkpt>
      <trkpt lat="48.63641" lon="1.66431">
        <ele>152</ele>
        <time>2010-05-14T13:03:55Z</time>
      </trkpt>
      <trkpt lat="48.63642" lon="1.66429">
        <ele>155</ele>
        <time>2010-05-14T13:03:58Z</time>
      </trkpt>
      <trkpt lat="48.63643" lon="1.66429">
        <ele>155</ele>
        <time>2010-05-14T13:04:02Z</time>
      </trkpt>
      <trkpt lat="48.63643" lon="1.66431">
        <ele>154</ele>
        <time>2010-05-14T13:04:07Z</time>
      </trkpt>
      <trkpt lat="48.63644" lon="1.6643">
        <ele>151</ele>
        <time>2010-05-14T13:04:12Z</time>
      </trkpt>
      <trkpt lat="48.63645" lon="1.66432">
        <ele>150</ele>
        <time>2010-05-14T13:04:16Z</time>
      </trkpt>
      <trkpt lat="48.63646" lon="1.66434">
        <ele>148</ele>
        <time>2010-05-14T13:04:19Z</time>
      </trkpt>
      <trkpt lat="48.63645" lon="1.66434">
        <ele>148</ele>
        <time>2010-05-14T13:04:21Z</time>
      </trkpt>
      <trkpt lat="48.63643" lon="1.66433">
        <ele>148</ele>
        <time>2010-05-14T13:04:22Z</time>
      </trkpt>
      <trkpt lat="48.63642" lon="1.66433">
        <ele>148</ele>
        <time>2010-05-14T13:04:24Z</time>
      </trkpt>
      <trkpt lat="48.63642" lon="1.66435">
        <ele>150</ele>
        <time>2010-05-14T13:04:27Z</time>
      </trkpt>
      <trkpt lat="48.63647" lon="1.66441">
        <ele>151</ele>
        <time>2010-05-14T13:04:31Z</time>
      </trkpt>
      <trkpt lat="48.63649" lon="1.66444">
        <ele>151</ele>
        <time>2010-05-14T13:04:32Z</time>
      </trkpt>
      <trkpt lat="48.63652" lon="1.66445">
        <ele>151</ele>
        <time>2010-05-14T13:04:33Z</time>
      </trkpt>
      <trkpt lat="48.63655" lon="1.66443">
        <ele>151</ele>
        <time>2010-05-14T13:04:34Z</time>
      </trkpt>
      <trkpt lat="48.63658" lon="1.66441">
        <ele>151</ele>
        <time>2010-05-14T13:04:35Z</time>
      </trkpt>
      <trkpt lat="48.6366" lon="1.66437">
        <ele>151</ele>
        <time>2010-05-14T13:04:36Z</time>
      </trkpt>
      <trkpt lat="48.63662" lon="1.6643">
        <ele>151</ele>
        <time>2010-05-14T13:04:37Z</time>
      </trkpt>
      <trkpt lat="48.63664" lon="1.66422">
        <ele>150</ele>
        <time>2010-05-14T13:04:38Z</time>
      </trkpt>
      <trkpt lat="48.63666" lon="1.66414">
        <ele>150</ele>
        <time>2010-05-14T13:04:39Z</time>
      </trkpt>
      <trkpt lat="48.63669" lon="1.66403">
        <ele>150</ele>
        <time>2010-05-14T13:04:40Z</time>
      </trkpt>
      <trkpt lat="48.63671" lon="1.6639">
        <ele>150</ele>
        <time>2010-05-14T13:04:41Z</time>
      </trkpt>
      <trkpt lat="48.63673" lon="1.6638">
        <ele>150</ele>
        <time>2010-05-14T13:04:42Z</time>
      </trkpt>
      <trkpt lat="48.63675" lon="1.66369">
        <ele>150</ele>
        <time>2010-05-14T13:04:43Z</time>
      </trkpt>
      <trkpt lat="48.63677" lon="1.66357">
        <ele>150</ele>
        <time>2010-05-14T13:04:44Z</time>
      </trkpt>
      <trkpt lat="48.63677" lon="1.66341">
        <ele>150</ele>
        <time>2010-05-14T13:04:45Z</time>
      </trkpt>
      <trkpt lat="48.63678" lon="1.66327">
        <ele>151</ele>
        <time>2010-05-14T13:04:46Z</time>
      </trkpt>
      <trkpt lat="48.63679" lon="1.66311">
        <ele>152</ele>
        <time>2010-05-14T13:04:47Z</time>
      </trkpt>
      <trkpt lat="48.63681" lon="1.66295">
        <ele>153</ele>
        <time>2010-05-14T13:04:48Z</time>
      </trkpt>
      <trkpt lat="48.63686" lon="1.66285">
        <ele>154</ele>
        <time>2010-05-14T13:04:49Z</time>
      </trkpt>
      <trkpt lat="48.63691" lon="1.66278">
        <ele>155</ele>
        <time>2010-05-14T13:04:50Z</time>
      </trkpt>
      <trkpt lat="48.63693" lon="1.66272">
        <ele>156</ele>
        <time>2010-05-14T13:04:51Z</time>
      </trkpt>
      <trkpt lat="48.63694" lon="1.66272">
        <ele>156</ele>
        <time>2010-05-14T13:04:52Z</time>
      </trkpt>
      <trkpt lat="48.63694" lon="1.6627">
        <ele>156</ele>
        <time>2010-05-14T13:04:55Z</time>
      </trkpt>
      <trkpt lat="48.63694" lon="1.66272">
        <ele>157</ele>
        <time>2010-05-14T13:04:57Z</time>
      </trkpt>
      <trkpt lat="48.63694" lon="1.66274">
        <ele>157</ele>
        <time>2010-05-14T13:04:58Z</time>
      </trkpt>
      <trkpt lat="48.63693" lon="1.66277">
        <ele>158</ele>
        <time>2010-05-14T13:04:59Z</time>
      </trkpt>
      <trkpt lat="48.63693" lon="1.6628">
        <ele>158</ele>
        <time>2010-05-14T13:05:00Z</time>
      </trkpt>
      <trkpt lat="48.63691" lon="1.66282">
        <ele>158</ele>
        <time>2010-05-14T13:05:02Z</time>
      </trkpt>
      <trkpt lat="48.63689" lon="1.66282">
        <ele>158</ele>
        <time>2010-05-14T13:05:03Z</time>
      </trkpt>
      <trkpt lat="48.63687" lon="1.6628">
        <ele>158</ele>
        <time>2010-05-14T13:05:04Z</time>
      </trkpt>
      <trkpt lat="48.63685" lon="1.66278">
        <ele>158</ele>
        <time>2010-05-14T13:05:06Z</time>
      </trkpt>
      <trkpt lat="48.63685" lon="1.66277">
        <ele>158</ele>
        <time>2010-05-14T13:05:08Z</time>
      </trkpt>
      <trkpt lat="48.63685" lon="1.66274">
        <ele>158</ele>
        <time>2010-05-14T13:05:10Z</time>
      </trkpt>
      <trkpt lat="48.63685" lon="1.66272">
        <ele>158</ele>
        <time>2010-05-14T13:05:12Z</time>
      </trkpt>
      <trkpt lat="48.63685" lon="1.66269">
        <ele>158</ele>
        <time>2010-05-14T13:05:13Z</time>
      </trkpt>
      <trkpt lat="48.63685" lon="1.66267">
        <ele>158</ele>
        <time>2010-05-14T13:05:15Z</time>
      </trkpt>
      <trkpt lat="48.63686" lon="1.66265">
        <ele>158</ele>
        <time>2010-05-14T13:05:17Z</time>
      </trkpt>
      <trkpt lat="48.63688" lon="1.66261">
        <ele>158</ele>
        <time>2010-05-14T13:05:20Z</time>
      </trkpt>
      <trkpt lat="48.63688" lon="1.66257">
        <ele>158</ele>
        <time>2010-05-14T13:05:21Z</time>
      </trkpt>
      <trkpt lat="48.63689" lon="1.66254">
        <ele>158</ele>
        <time>2010-05-14T13:05:22Z</time>
      </trkpt>
      <trkpt lat="48.63687" lon="1.66249">
        <ele>158</ele>
        <time>2010-05-14T13:05:23Z</time>
      </trkpt>
      <trkpt lat="48.63688" lon="1.66246">
        <ele>158</ele>
        <time>2010-05-14T13:05:24Z</time>
      </trkpt>
      <trkpt lat="48.63688" lon="1.66244">
        <ele>158</ele>
        <time>2010-05-14T13:05:25Z</time>
      </trkpt>
      <trkpt lat="48.63688" lon="1.66241">
        <ele>158</ele>
        <time>2010-05-14T13:05:26Z</time>
      </trkpt>
      <trkpt lat="48.63687" lon="1.66219">
        <ele>158</ele>
        <time>2010-05-14T13:05:30Z</time>
      </trkpt>
      <trkpt lat="48.63688" lon="1.66207">
        <ele>158</ele>
        <time>2010-05-14T13:05:31Z</time>
      </trkpt>
      <trkpt lat="48.63693" lon="1.66198">
        <ele>158</ele>
        <time>2010-05-14T13:05:32Z</time>
      </trkpt>
      <trkpt lat="48.63694" lon="1.66184">
        <ele>158</ele>
        <time>2010-05-14T13:05:33Z</time>
      </trkpt>
      <trkpt lat="48.63696" lon="1.66175">
        <ele>158</ele>
        <time>2010-05-14T13:05:34Z</time>
      </trkpt>
      <trkpt lat="48.63698" lon="1.66167">
        <ele>158</ele>
        <time>2010-05-14T13:05:35Z</time>
      </trkpt>
      <trkpt lat="48.637" lon="1.6616">
        <ele>158</ele>
        <time>2010-05-14T13:05:36Z</time>
      </trkpt>
      <trkpt lat="48.637" lon="1.66154">
        <ele>158</ele>
        <time>2010-05-14T13:05:37Z</time>
      </trkpt>
      <trkpt lat="48.63701" lon="1.66147">
        <ele>158</ele>
        <time>2010-05-14T13:05:38Z</time>
      </trkpt>
      <trkpt lat="48.63703" lon="1.6614">
        <ele>158</ele>
        <time>2010-05-14T13:05:39Z</time>
      </trkpt>
      <trkpt lat="48.63706" lon="1.66134">
        <ele>158</ele>
        <time>2010-05-14T13:05:40Z</time>
      </trkpt>
      <trkpt lat="48.63708" lon="1.6613">
        <ele>157</ele>
        <time>2010-05-14T13:05:41Z</time>
      </trkpt>
      <trkpt lat="48.6371" lon="1.66127">
        <ele>156</ele>
        <time>2010-05-14T13:05:42Z</time>
      </trkpt>
      <trkpt lat="48.63711" lon="1.66122">
        <ele>155</ele>
        <time>2010-05-14T13:05:43Z</time>
      </trkpt>
      <trkpt lat="48.63713" lon="1.66116">
        <ele>154</ele>
        <time>2010-05-14T13:05:44Z</time>
      </trkpt>
      <trkpt lat="48.63712" lon="1.66108">
        <ele>153</ele>
        <time>2010-05-14T13:05:45Z</time>
      </trkpt>
      <trkpt lat="48.63712" lon="1.66103">
        <ele>152</ele>
        <time>2010-05-14T13:05:46Z</time>
      </trkpt>
      <trkpt lat="48.63712" lon="1.66098">
        <ele>151</ele>
        <time>2010-05-14T13:05:47Z</time>
      </trkpt>
      <trkpt lat="48.63713" lon="1.66093">
        <ele>150</ele>
        <time>2010-05-14T13:05:48Z</time>
      </trkpt>
      <trkpt lat="48.63714" lon="1.66088">
        <ele>149</ele>
        <time>2010-05-14T13:05:49Z</time>
      </trkpt>
      <trkpt lat="48.63715" lon="1.66084">
        <ele>147</ele>
        <time>2010-05-14T13:05:50Z</time>
      </trkpt>
      <trkpt lat="48.63717" lon="1.66079">
        <ele>146</ele>
        <time>2010-05-14T13:05:51Z</time>
      </trkpt>
      <trkpt lat="48.6372" lon="1.66073">
        <ele>145</ele>
        <time>2010-05-14T13:05:52Z</time>
      </trkpt>
      <trkpt lat="48.63721" lon="1.66068">
        <ele>144</ele>
        <time>2010-05-14T13:05:53Z</time>
      </trkpt>
      <trkpt lat="48.63724" lon="1.66061">
        <ele>143</ele>
        <time>2010-05-14T13:05:54Z</time>
      </trkpt>
      <trkpt lat="48.63725" lon="1.66055">
        <ele>142</ele>
        <time>2010-05-14T13:05:55Z</time>
      </trkpt>
      <trkpt lat="48.63726" lon="1.6605">
        <ele>141</ele>
        <time>2010-05-14T13:05:56Z</time>
      </trkpt>
      <trkpt lat="48.63727" lon="1.66044">
        <ele>140</ele>
        <time>2010-05-14T13:05:57Z</time>
      </trkpt>
      <trkpt lat="48.63728" lon="1.66038">
        <ele>139</ele>
        <time>2010-05-14T13:05:58Z</time>
      </trkpt>
      <trkpt lat="48.63731" lon="1.66028">
        <ele>138</ele>
        <time>2010-05-14T13:05:59Z</time>
      </trkpt>
      <trkpt lat="48.63733" lon="1.6602">
        <ele>137</ele>
        <time>2010-05-14T13:06:00Z</time>
      </trkpt>
      <trkpt lat="48.63739" lon="1.6599">
        <ele>135</ele>
        <time>2010-05-14T13:06:04Z</time>
      </trkpt>
      <trkpt lat="48.63745" lon="1.65971">
        <ele>133</ele>
        <time>2010-05-14T13:06:05Z</time>
      </trkpt>
      <trkpt lat="48.63748" lon="1.65956">
        <ele>131</ele>
        <time>2010-05-14T13:06:06Z</time>
      </trkpt>
      <trkpt lat="48.6375" lon="1.65939">
        <ele>129</ele>
        <time>2010-05-14T13:06:07Z</time>
      </trkpt>
      <trkpt lat="48.63752" lon="1.65925">
        <ele>127</ele>
        <time>2010-05-14T13:06:08Z</time>
      </trkpt>
      <trkpt lat="48.63753" lon="1.65907">
        <ele>126</ele>
        <time>2010-05-14T13:06:09Z</time>
      </trkpt>
      <trkpt lat="48.63754" lon="1.65891">
        <ele>125</ele>
        <time>2010-05-14T13:06:10Z</time>
      </trkpt>
      <trkpt lat="48.6376" lon="1.65847">
        <ele>124</ele>
        <time>2010-05-14T13:06:14Z</time>
      </trkpt>
      <trkpt lat="48.6376" lon="1.65828">
        <ele>123</ele>
        <time>2010-05-14T13:06:15Z</time>
      </trkpt>
      <trkpt lat="48.63759" lon="1.65809">
        <ele>122</ele>
        <time>2010-05-14T13:06:16Z</time>
      </trkpt>
      <trkpt lat="48.63759" lon="1.65797">
        <ele>122</ele>
        <time>2010-05-14T13:06:17Z</time>
      </trkpt>
      <trkpt lat="48.63756" lon="1.65781">
        <ele>122</ele>
        <time>2010-05-14T13:06:18Z</time>
      </trkpt>
      <trkpt lat="48.63754" lon="1.65766">
        <ele>122</ele>
        <time>2010-05-14T13:06:19Z</time>
      </trkpt>
      <trkpt lat="48.63753" lon="1.65753">
        <ele>122</ele>
        <time>2010-05-14T13:06:20Z</time>
      </trkpt>
      <trkpt lat="48.63749" lon="1.65719">
        <ele>122</ele>
        <time>2010-05-14T13:06:24Z</time>
      </trkpt>
      <trkpt lat="48.63747" lon="1.65702">
        <ele>122</ele>
        <time>2010-05-14T13:06:25Z</time>
      </trkpt>
      <trkpt lat="48.63744" lon="1.65684">
        <ele>122</ele>
        <time>2010-05-14T13:06:26Z</time>
      </trkpt>
      <trkpt lat="48.63742" lon="1.65671">
        <ele>122</ele>
        <time>2010-05-14T13:06:27Z</time>
      </trkpt>
      <trkpt lat="48.6374" lon="1.65653">
        <ele>122</ele>
        <time>2010-05-14T13:06:28Z</time>
      </trkpt>
      <trkpt lat="48.63739" lon="1.65612">
        <ele>122</ele>
        <time>2010-05-14T13:06:32Z</time>
      </trkpt>
      <trkpt lat="48.63737" lon="1.65593">
        <ele>123</ele>
        <time>2010-05-14T13:06:33Z</time>
      </trkpt>
      <trkpt lat="48.63735" lon="1.65577">
        <ele>124</ele>
        <time>2010-05-14T13:06:34Z</time>
      </trkpt>
      <trkpt lat="48.63734" lon="1.65564">
        <ele>125</ele>
        <time>2010-05-14T13:06:35Z</time>
      </trkpt>
      <trkpt lat="48.63733" lon="1.65552">
        <ele>126</ele>
        <time>2010-05-14T13:06:36Z</time>
      </trkpt>
      <trkpt lat="48.63733" lon="1.65542">
        <ele>127</ele>
        <time>2010-05-14T13:06:37Z</time>
      </trkpt>
      <trkpt lat="48.63734" lon="1.65529">
        <ele>128</ele>
        <time>2010-05-14T13:06:38Z</time>
      </trkpt>
      <trkpt lat="48.63734" lon="1.65516">
        <ele>129</ele>
        <time>2010-05-14T13:06:39Z</time>
      </trkpt>
      <trkpt lat="48.63733" lon="1.655">
        <ele>131</ele>
        <time>2010-05-14T13:06:40Z</time>
      </trkpt>
      <trkpt lat="48.63732" lon="1.65489">
        <ele>133</ele>
        <time>2010-05-14T13:06:41Z</time>
      </trkpt>
      <trkpt lat="48.63731" lon="1.65479">
        <ele>135</ele>
        <time>2010-05-14T13:06:42Z</time>
      </trkpt>
      <trkpt lat="48.63732" lon="1.65467">
        <ele>137</ele>
        <time>2010-05-14T13:06:43Z</time>
      </trkpt>
      <trkpt lat="48.63732" lon="1.6546">
        <ele>139</ele>
        <time>2010-05-14T13:06:44Z</time>
      </trkpt>
      <trkpt lat="48.63733" lon="1.65454">
        <ele>140</ele>
        <time>2010-05-14T13:06:45Z</time>
      </trkpt>
      <trkpt lat="48.63735" lon="1.65449">
        <ele>141</ele>
        <time>2010-05-14T13:06:46Z</time>
      </trkpt>
      <trkpt lat="48.63736" lon="1.65442">
        <ele>142</ele>
        <time>2010-05-14T13:06:47Z</time>
      </trkpt>
      <trkpt lat="48.63736" lon="1.65433">
        <ele>142</ele>
        <time>2010-05-14T13:06:48Z</time>
      </trkpt>
      <trkpt lat="48.63737" lon="1.65424">
        <ele>142</ele>
        <time>2010-05-14T13:06:49Z</time>
      </trkpt>
      <trkpt lat="48.63738" lon="1.65415">
        <ele>142</ele>
        <time>2010-05-14T13:06:50Z</time>
      </trkpt>
      <trkpt lat="48.63739" lon="1.65405">
        <ele>142</ele>
        <time>2010-05-14T13:06:51Z</time>
      </trkpt>
      <trkpt lat="48.63739" lon="1.65397">
        <ele>142</ele>
        <time>2010-05-14T13:06:52Z</time>
      </trkpt>
      <trkpt lat="48.63741" lon="1.6539">
        <ele>142</ele>
        <time>2010-05-14T13:06:53Z</time>
      </trkpt>
      <trkpt lat="48.63742" lon="1.65383">
        <ele>142</ele>
        <time>2010-05-14T13:06:54Z</time>
      </trkpt>
      <trkpt lat="48.63744" lon="1.65376">
        <ele>142</ele>
        <time>2010-05-14T13:06:55Z</time>
      </trkpt>
      <trkpt lat="48.63745" lon="1.65368">
        <ele>142</ele>
        <time>2010-05-14T13:06:56Z</time>
      </trkpt>
      <trkpt lat="48.63747" lon="1.65358">
        <ele>142</ele>
        <time>2010-05-14T13:06:57Z</time>
      </trkpt>
      <trkpt lat="48.63749" lon="1.65349">
        <ele>142</ele>
        <time>2010-05-14T13:06:58Z</time>
      </trkpt>
      <trkpt lat="48.63751" lon="1.6534">
        <ele>142</ele>
        <time>2010-05-14T13:06:59Z</time>
      </trkpt>
      <trkpt lat="48.63753" lon="1.65327">
        <ele>142</ele>
        <time>2010-05-14T13:07:00Z</time>
      </trkpt>
      <trkpt lat="48.63757" lon="1.65319">
        <ele>142</ele>
        <time>2010-05-14T13:07:01Z</time>
      </trkpt>
      <trkpt lat="48.63761" lon="1.65311">
        <ele>142</ele>
        <time>2010-05-14T13:07:02Z</time>
      </trkpt>
      <trkpt lat="48.63764" lon="1.65302">
        <ele>142</ele>
        <time>2010-05-14T13:07:03Z</time>
      </trkpt>
      <trkpt lat="48.63767" lon="1.65289">
        <ele>142</ele>
        <time>2010-05-14T13:07:04Z</time>
      </trkpt>
      <trkpt lat="48.63771" lon="1.65279">
        <ele>142</ele>
        <time>2010-05-14T13:07:05Z</time>
      </trkpt>
      <trkpt lat="48.63774" lon="1.6527">
        <ele>141</ele>
        <time>2010-05-14T13:07:06Z</time>
      </trkpt>
      <trkpt lat="48.63777" lon="1.6526">
        <ele>140</ele>
        <time>2010-05-14T13:07:07Z</time>
      </trkpt>
      <trkpt lat="48.63782" lon="1.6525">
        <ele>139</ele>
        <time>2010-05-14T13:07:08Z</time>
      </trkpt>
      <trkpt lat="48.63786" lon="1.6524">
        <ele>138</ele>
        <time>2010-05-14T13:07:09Z</time>
      </trkpt>
      <trkpt lat="48.6379" lon="1.65231">
        <ele>137</ele>
        <time>2010-05-14T13:07:10Z</time>
      </trkpt>
      <trkpt lat="48.63794" lon="1.65221">
        <ele>136</ele>
        <time>2010-05-14T13:07:11Z</time>
      </trkpt>
      <trkpt lat="48.63798" lon="1.65212">
        <ele>135</ele>
        <time>2010-05-14T13:07:12Z</time>
      </trkpt>
      <trkpt lat="48.63802" lon="1.65203">
        <ele>134</ele>
        <time>2010-05-14T13:07:13Z</time>
      </trkpt>
      <trkpt lat="48.63805" lon="1.65189">
        <ele>133</ele>
        <time>2010-05-14T13:07:14Z</time>
      </trkpt>
      <trkpt lat="48.63808" lon="1.65178">
        <ele>133</ele>
        <time>2010-05-14T13:07:15Z</time>
      </trkpt>
      <trkpt lat="48.63811" lon="1.65167">
        <ele>133</ele>
        <time>2010-05-14T13:07:16Z</time>
      </trkpt>
      <trkpt lat="48.63814" lon="1.65158">
        <ele>133</ele>
        <time>2010-05-14T13:07:17Z</time>
      </trkpt>
      <trkpt lat="48.63816" lon="1.65149">
        <ele>133</ele>
        <time>2010-05-14T13:07:18Z</time>
      </trkpt>
      <trkpt lat="48.63818" lon="1.65142">
        <ele>133</ele>
        <time>2010-05-14T13:07:19Z</time>
      </trkpt>
      <trkpt lat="48.6382" lon="1.65137">
        <ele>133</ele>
        <time>2010-05-14T13:07:20Z</time>
      </trkpt>
      <trkpt lat="48.63822" lon="1.65132">
        <ele>133</ele>
        <time>2010-05-14T13:07:21Z</time>
      </trkpt>
      <trkpt lat="48.63825" lon="1.65128">
        <ele>133</ele>
        <time>2010-05-14T13:07:22Z</time>
      </trkpt>
      <trkpt lat="48.63826" lon="1.65123">
        <ele>133</ele>
        <time>2010-05-14T13:07:23Z</time>
      </trkpt>
      <trkpt lat="48.63826" lon="1.6512">
        <ele>133</ele>
        <time>2010-05-14T13:07:24Z</time>
      </trkpt>
      <trkpt lat="48.63827" lon="1.65116">
        <ele>133</ele>
        <time>2010-05-14T13:07:25Z</time>
      </trkpt>
      <trkpt lat="48.63828" lon="1.65113">
        <ele>133</ele>
        <time>2010-05-14T13:07:26Z</time>
      </trkpt>
      <trkpt lat="48.63828" lon="1.6511">
        <ele>132</ele>
        <time>2010-05-14T13:07:27Z</time>
      </trkpt>
      <trkpt lat="48.63828" lon="1.65106">
        <ele>132</ele>
        <time>2010-05-14T13:07:28Z</time>
      </trkpt>
      <trkpt lat="48.63826" lon="1.65108">
        <ele>132</ele>
        <time>2010-05-14T13:07:32Z</time>
      </trkpt>
      <trkpt lat="48.63825" lon="1.65111">
        <ele>132</ele>
        <time>2010-05-14T13:07:33Z</time>
      </trkpt>
      <trkpt lat="48.63826" lon="1.65114">
        <ele>132</ele>
        <time>2010-05-14T13:07:35Z</time>
      </trkpt>
      <trkpt lat="48.63825" lon="1.65116">
        <ele>132</ele>
        <time>2010-05-14T13:07:37Z</time>
      </trkpt>
      <trkpt lat="48.63824" lon="1.65116">
        <ele>132</ele>
        <time>2010-05-14T13:07:38Z</time>
      </trkpt>
      <trkpt lat="48.63822" lon="1.65117">
        <ele>132</ele>
        <time>2010-05-14T13:07:39Z</time>
      </trkpt>
      <trkpt lat="48.63821" lon="1.65117">
        <ele>132</ele>
        <time>2010-05-14T13:07:40Z</time>
      </trkpt>
      <trkpt lat="48.6382" lon="1.65117">
        <ele>132</ele>
        <time>2010-05-14T13:07:41Z</time>
      </trkpt>
      <trkpt lat="48.63818" lon="1.65117">
        <ele>132</ele>
        <time>2010-05-14T13:07:42Z</time>
      </trkpt>
      <trkpt lat="48.63816" lon="1.65118">
        <ele>132</ele>
        <time>2010-05-14T13:07:43Z</time>
      </trkpt>
      <trkpt lat="48.63815" lon="1.65117">
        <ele>132</ele>
        <time>2010-05-14T13:07:45Z</time>
      </trkpt>
      <trkpt lat="48.63813" lon="1.65116">
        <ele>132</ele>
        <time>2010-05-14T13:07:47Z</time>
      </trkpt>
      <trkpt lat="48.63811" lon="1.65114">
        <ele>132</ele>
        <time>2010-05-14T13:07:49Z</time>
      </trkpt>
      <trkpt lat="48.6381" lon="1.65113">
        <ele>132</ele>
        <time>2010-05-14T13:07:50Z</time>
      </trkpt>
      <trkpt lat="48.63808" lon="1.65111">
        <ele>132</ele>
        <time>2010-05-14T13:07:51Z</time>
      </trkpt>
      <trkpt lat="48.63807" lon="1.65109">
        <ele>132</ele>
        <time>2010-05-14T13:07:52Z</time>
      </trkpt>
      <trkpt lat="48.63806" lon="1.65108">
        <ele>132</ele>
        <time>2010-05-14T13:07:53Z</time>
      </trkpt>
      <trkpt lat="48.63803" lon="1.65105">
        <ele>131</ele>
        <time>2010-05-14T13:07:55Z</time>
      </trkpt>
      <trkpt lat="48.63802" lon="1.65103">
        <ele>131</ele>
        <time>2010-05-14T13:07:56Z</time>
      </trkpt>
      <trkpt lat="48.63801" lon="1.65102">
        <ele>131</ele>
        <time>2010-05-14T13:07:57Z</time>
      </trkpt>
      <trkpt lat="48.63799" lon="1.651">
        <ele>131</ele>
        <time>2010-05-14T13:07:58Z</time>
      </trkpt>
      <trkpt lat="48.63798" lon="1.65098">
        <ele>131</ele>
        <time>2010-05-14T13:07:59Z</time>
      </trkpt>
      <trkpt lat="48.63796" lon="1.65096">
        <ele>131</ele>
        <time>2010-05-14T13:08:00Z</time>
      </trkpt>
      <trkpt lat="48.63794" lon="1.65094">
        <ele>131</ele>
        <time>2010-05-14T13:08:01Z</time>
      </trkpt>
      <trkpt lat="48.63793" lon="1.65093">
        <ele>131</ele>
        <time>2010-05-14T13:08:02Z</time>
      </trkpt>
      <trkpt lat="48.63791" lon="1.65091">
        <ele>130</ele>
        <time>2010-05-14T13:08:04Z</time>
      </trkpt>
      <trkpt lat="48.6379" lon="1.65089">
        <ele>130</ele>
        <time>2010-05-14T13:08:05Z</time>
      </trkpt>
      <trkpt lat="48.63788" lon="1.65088">
        <ele>130</ele>
        <time>2010-05-14T13:08:06Z</time>
      </trkpt>
      <trkpt lat="48.63786" lon="1.65086">
        <ele>129</ele>
        <time>2010-05-14T13:08:07Z</time>
      </trkpt>
      <trkpt lat="48.63785" lon="1.65085">
        <ele>129</ele>
        <time>2010-05-14T13:08:08Z</time>
      </trkpt>
      <trkpt lat="48.63784" lon="1.65084">
        <ele>129</ele>
        <time>2010-05-14T13:08:09Z</time>
      </trkpt>
      <trkpt lat="48.63783" lon="1.65083">
        <ele>129</ele>
        <time>2010-05-14T13:08:10Z</time>
      </trkpt>
      <trkpt lat="48.63781" lon="1.65082">
        <ele>129</ele>
        <time>2010-05-14T13:08:11Z</time>
      </trkpt>
      <trkpt lat="48.63779" lon="1.65079">
        <ele>129</ele>
        <time>2010-05-14T13:08:13Z</time>
      </trkpt>
      <trkpt lat="48.63777" lon="1.65078">
        <ele>129</ele>
        <time>2010-05-14T13:08:14Z</time>
      </trkpt>
      <trkpt lat="48.63776" lon="1.65076">
        <ele>129</ele>
        <time>2010-05-14T13:08:15Z</time>
      </trkpt>
      <trkpt lat="48.63774" lon="1.65075">
        <ele>129</ele>
        <time>2010-05-14T13:08:16Z</time>
      </trkpt>
      <trkpt lat="48.63773" lon="1.65073">
        <ele>129</ele>
        <time>2010-05-14T13:08:17Z</time>
      </trkpt>
      <trkpt lat="48.63771" lon="1.65071">
        <ele>129</ele>
        <time>2010-05-14T13:08:18Z</time>
      </trkpt>
      <trkpt lat="48.6377" lon="1.65069">
        <ele>129</ele>
        <time>2010-05-14T13:08:19Z</time>
      </trkpt>
      <trkpt lat="48.63768" lon="1.65068">
        <ele>129</ele>
        <time>2010-05-14T13:08:20Z</time>
      </trkpt>
      <trkpt lat="48.63766" lon="1.65066">
        <ele>129</ele>
        <time>2010-05-14T13:08:21Z</time>
      </trkpt>
      <trkpt lat="48.63765" lon="1.65064">
        <ele>129</ele>
        <time>2010-05-14T13:08:22Z</time>
      </trkpt>
      <trkpt lat="48.63763" lon="1.65062">
        <ele>129</ele>
        <time>2010-05-14T13:08:23Z</time>
      </trkpt>
      <trkpt lat="48.63762" lon="1.6506">
        <ele>129</ele>
        <time>2010-05-14T13:08:24Z</time>
      </trkpt>
      <trkpt lat="48.6376" lon="1.65058">
        <ele>129</ele>
        <time>2010-05-14T13:08:25Z</time>
      </trkpt>
      <trkpt lat="48.63759" lon="1.65057">
        <ele>129</ele>
        <time>2010-05-14T13:08:26Z</time>
      </trkpt>
      <trkpt lat="48.63758" lon="1.65055">
        <ele>129</ele>
        <time>2010-05-14T13:08:27Z</time>
      </trkpt>
      <trkpt lat="48.63756" lon="1.65053">
        <ele>129</ele>
        <time>2010-05-14T13:08:28Z</time>
      </trkpt>
      <trkpt lat="48.63754" lon="1.65051">
        <ele>129</ele>
        <time>2010-05-14T13:08:29Z</time>
      </trkpt>
      <trkpt lat="48.63752" lon="1.65049">
        <ele>129</ele>
        <time>2010-05-14T13:08:30Z</time>
      </trkpt>
      <trkpt lat="48.63749" lon="1.65047">
        <ele>129</ele>
        <time>2010-05-14T13:08:31Z</time>
      </trkpt>
      <trkpt lat="48.63745" lon="1.65043">
        <ele>129</ele>
        <time>2010-05-14T13:08:32Z</time>
      </trkpt>
      <trkpt lat="48.63741" lon="1.65039">
        <ele>129</ele>
        <time>2010-05-14T13:08:33Z</time>
      </trkpt>
      <trkpt lat="48.63736" lon="1.65035">
        <ele>129</ele>
        <time>2010-05-14T13:08:34Z</time>
      </trkpt>
      <trkpt lat="48.63731" lon="1.6503">
        <ele>129</ele>
        <time>2010-05-14T13:08:35Z</time>
      </trkpt>
      <trkpt lat="48.63724" lon="1.65025">
        <ele>129</ele>
        <time>2010-05-14T13:08:36Z</time>
      </trkpt>
      <trkpt lat="48.63717" lon="1.65021">
        <ele>129</ele>
        <time>2010-05-14T13:08:37Z</time>
      </trkpt>
      <trkpt lat="48.63709" lon="1.65017">
        <ele>129</ele>
        <time>2010-05-14T13:08:38Z</time>
      </trkpt>
      <trkpt lat="48.637" lon="1.65015">
        <ele>129</ele>
        <time>2010-05-14T13:08:39Z</time>
      </trkpt>
      <trkpt lat="48.63691" lon="1.65014">
        <ele>129</ele>
        <time>2010-05-14T13:08:40Z</time>
      </trkpt>
      <trkpt lat="48.63683" lon="1.65012">
        <ele>129</ele>
        <time>2010-05-14T13:08:41Z</time>
      </trkpt>
      <trkpt lat="48.63676" lon="1.6501">
        <ele>129</ele>
        <time>2010-05-14T13:08:42Z</time>
      </trkpt>
      <trkpt lat="48.63668" lon="1.65008">
        <ele>129</ele>
        <time>2010-05-14T13:08:43Z</time>
      </trkpt>
      <trkpt lat="48.6366" lon="1.65006">
        <ele>129</ele>
        <time>2010-05-14T13:08:44Z</time>
      </trkpt>
      <trkpt lat="48.63653" lon="1.65002">
        <ele>129</ele>
        <time>2010-05-14T13:08:45Z</time>
      </trkpt>
      <trkpt lat="48.63645" lon="1.64997">
        <ele>129</ele>
        <time>2010-05-14T13:08:46Z</time>
      </trkpt>
      <trkpt lat="48.63638" lon="1.64992">
        <ele>129</ele>
        <time>2010-05-14T13:08:47Z</time>
      </trkpt>
      <trkpt lat="48.63631" lon="1.64987">
        <ele>129</ele>
        <time>2010-05-14T13:08:48Z</time>
      </trkpt>
      <trkpt lat="48.63623" lon="1.64982">
        <ele>129</ele>
        <time>2010-05-14T13:08:49Z</time>
      </trkpt>
      <trkpt lat="48.63616" lon="1.64976">
        <ele>129</ele>
        <time>2010-05-14T13:08:50Z</time>
      </trkpt>
      <trkpt lat="48.63608" lon="1.64968">
        <ele>129</ele>
        <time>2010-05-14T13:08:51Z</time>
      </trkpt>
      <trkpt lat="48.636" lon="1.6496">
        <ele>129</ele>
        <time>2010-05-14T13:08:52Z</time>
      </trkpt>
      <trkpt lat="48.63592" lon="1.64953">
        <ele>129</ele>
        <time>2010-05-14T13:08:53Z</time>
      </trkpt>
      <trkpt lat="48.63585" lon="1.64946">
        <ele>129</ele>
        <time>2010-05-14T13:08:54Z</time>
      </trkpt>
      <trkpt lat="48.63575" lon="1.64938">
        <ele>129</ele>
        <time>2010-05-14T13:08:55Z</time>
      </trkpt>
      <trkpt lat="48.63567" lon="1.64934">
        <ele>130</ele>
        <time>2010-05-14T13:08:56Z</time>
      </trkpt>
      <trkpt lat="48.63559" lon="1.64928">
        <ele>131</ele>
        <time>2010-05-14T13:08:57Z</time>
      </trkpt>
      <trkpt lat="48.63551" lon="1.64923">
        <ele>132</ele>
        <time>2010-05-14T13:08:58Z</time>
      </trkpt>
      <trkpt lat="48.63543" lon="1.64918">
        <ele>133</ele>
        <time>2010-05-14T13:08:59Z</time>
      </trkpt>
      <trkpt lat="48.63535" lon="1.64915">
        <ele>134</ele>
        <time>2010-05-14T13:09:00Z</time>
      </trkpt>
      <trkpt lat="48.63527" lon="1.64912">
        <ele>135</ele>
        <time>2010-05-14T13:09:01Z</time>
      </trkpt>
      <trkpt lat="48.63518" lon="1.64909">
        <ele>136</ele>
        <time>2010-05-14T13:09:02Z</time>
      </trkpt>
      <trkpt lat="48.63508" lon="1.64905">
        <ele>136</ele>
        <time>2010-05-14T13:09:03Z</time>
      </trkpt>
      <trkpt lat="48.63499" lon="1.64904">
        <ele>137</ele>
        <time>2010-05-14T13:09:04Z</time>
      </trkpt>
      <trkpt lat="48.6349" lon="1.64902">
        <ele>137</ele>
        <time>2010-05-14T13:09:05Z</time>
      </trkpt>
      <trkpt lat="48.6348" lon="1.64902">
        <ele>138</ele>
        <time>2010-05-14T13:09:06Z</time>
      </trkpt>
      <trkpt lat="48.63472" lon="1.64905">
        <ele>138</ele>
        <time>2010-05-14T13:09:07Z</time>
      </trkpt>
      <trkpt lat="48.63463" lon="1.64908">
        <ele>138</ele>
        <time>2010-05-14T13:09:08Z</time>
      </trkpt>
      <trkpt lat="48.63454" lon="1.64912">
        <ele>138</ele>
        <time>2010-05-14T13:09:09Z</time>
      </trkpt>
      <trkpt lat="48.63447" lon="1.64916">
        <ele>138</ele>
        <time>2010-05-14T13:09:10Z</time>
      </trkpt>
      <trkpt lat="48.6344" lon="1.6492">
        <ele>138</ele>
        <time>2010-05-14T13:09:11Z</time>
      </trkpt>
      <trkpt lat="48.63433" lon="1.64923">
        <ele>138</ele>
        <time>2010-05-14T13:09:12Z</time>
      </trkpt>
      <trkpt lat="48.63426" lon="1.64926">
        <ele>138</ele>
        <time>2010-05-14T13:09:13Z</time>
      </trkpt>
      <trkpt lat="48.63419" lon="1.6493">
        <ele>138</ele>
        <time>2010-05-14T13:09:14Z</time>
      </trkpt>
      <trkpt lat="48.63398" lon="1.64936">
        <ele>138</ele>
        <time>2010-05-14T13:09:17Z</time>
      </trkpt>
      <trkpt lat="48.6339" lon="1.64935">
        <ele>138</ele>
        <time>2010-05-14T13:09:18Z</time>
      </trkpt>
      <trkpt lat="48.63384" lon="1.64935">
        <ele>138</ele>
        <time>2010-05-14T13:09:19Z</time>
      </trkpt>
      <trkpt lat="48.63379" lon="1.64933">
        <ele>139</ele>
        <time>2010-05-14T13:09:20Z</time>
      </trkpt>
      <trkpt lat="48.63373" lon="1.64932">
        <ele>140</ele>
        <time>2010-05-14T13:09:21Z</time>
      </trkpt>
      <trkpt lat="48.63357" lon="1.64932">
        <ele>141</ele>
        <time>2010-05-14T13:09:24Z</time>
      </trkpt>
      <trkpt lat="48.63349" lon="1.64932">
        <ele>142</ele>
        <time>2010-05-14T13:09:25Z</time>
      </trkpt>
      <trkpt lat="48.63333" lon="1.64934">
        <ele>143</ele>
        <time>2010-05-14T13:09:28Z</time>
      </trkpt>
      <trkpt lat="48.63321" lon="1.64936">
        <ele>144</ele>
        <time>2010-05-14T13:09:29Z</time>
      </trkpt>
      <trkpt lat="48.63311" lon="1.64936">
        <ele>145</ele>
        <time>2010-05-14T13:09:30Z</time>
      </trkpt>
      <trkpt lat="48.63306" lon="1.64936">
        <ele>147</ele>
        <time>2010-05-14T13:09:31Z</time>
      </trkpt>
      <trkpt lat="48.633" lon="1.64936">
        <ele>149</ele>
        <time>2010-05-14T13:09:32Z</time>
      </trkpt>
      <trkpt lat="48.63285" lon="1.64938">
        <ele>151</ele>
        <time>2010-05-14T13:09:35Z</time>
      </trkpt>
      <trkpt lat="48.63274" lon="1.64939">
        <ele>153</ele>
        <time>2010-05-14T13:09:37Z</time>
      </trkpt>
      <trkpt lat="48.63262" lon="1.64936">
        <ele>155</ele>
        <time>2010-05-14T13:09:38Z</time>
      </trkpt>
      <trkpt lat="48.63254" lon="1.64936">
        <ele>157</ele>
        <time>2010-05-14T13:09:39Z</time>
      </trkpt>
      <trkpt lat="48.63248" lon="1.64937">
        <ele>159</ele>
        <time>2010-05-14T13:09:40Z</time>
      </trkpt>
      <trkpt lat="48.63231" lon="1.64934">
        <ele>160</ele>
        <time>2010-05-14T13:09:43Z</time>
      </trkpt>
      <trkpt lat="48.63225" lon="1.64932">
        <ele>161</ele>
        <time>2010-05-14T13:09:44Z</time>
      </trkpt>
      <trkpt lat="48.63217" lon="1.6493">
        <ele>162</ele>
        <time>2010-05-14T13:09:45Z</time>
      </trkpt>
      <trkpt lat="48.6321" lon="1.64929">
        <ele>162</ele>
        <time>2010-05-14T13:09:46Z</time>
      </trkpt>
      <trkpt lat="48.63203" lon="1.64929">
        <ele>162</ele>
        <time>2010-05-14T13:09:47Z</time>
      </trkpt>
      <trkpt lat="48.63197" lon="1.64929">
        <ele>162</ele>
        <time>2010-05-14T13:09:48Z</time>
      </trkpt>
      <trkpt lat="48.63191" lon="1.64928">
        <ele>162</ele>
        <time>2010-05-14T13:09:49Z</time>
      </trkpt>
      <trkpt lat="48.63186" lon="1.64928">
        <ele>162</ele>
        <time>2010-05-14T13:09:50Z</time>
      </trkpt>
      <trkpt lat="48.63182" lon="1.64928">
        <ele>161</ele>
        <time>2010-05-14T13:09:51Z</time>
      </trkpt>
      <trkpt lat="48.63177" lon="1.64928">
        <ele>160</ele>
        <time>2010-05-14T13:09:52Z</time>
      </trkpt>
      <trkpt lat="48.63173" lon="1.64926">
        <ele>159</ele>
        <time>2010-05-14T13:09:53Z</time>
      </trkpt>
      <trkpt lat="48.63168" lon="1.64925">
        <ele>158</ele>
        <time>2010-05-14T13:09:54Z</time>
      </trkpt>
      <trkpt lat="48.63164" lon="1.64925">
        <ele>158</ele>
        <time>2010-05-14T13:09:55Z</time>
      </trkpt>
      <trkpt lat="48.63161" lon="1.64925">
        <ele>157</ele>
        <time>2010-05-14T13:09:56Z</time>
      </trkpt>
      <trkpt lat="48.63158" lon="1.64925">
        <ele>156</ele>
        <time>2010-05-14T13:09:57Z</time>
      </trkpt>
      <trkpt lat="48.63156" lon="1.64924">
        <ele>156</ele>
        <time>2010-05-14T13:09:58Z</time>
      </trkpt>
      <trkpt lat="48.63154" lon="1.64923">
        <ele>155</ele>
        <time>2010-05-14T13:09:59Z</time>
      </trkpt>
      <trkpt lat="48.63151" lon="1.64921">
        <ele>155</ele>
        <time>2010-05-14T13:10:00Z</time>
      </trkpt>
      <trkpt lat="48.6315" lon="1.6492">
        <ele>155</ele>
        <time>2010-05-14T13:10:01Z</time>
      </trkpt>
      <trkpt lat="48.63148" lon="1.6492">
        <ele>155</ele>
        <time>2010-05-14T13:10:02Z</time>
      </trkpt>
      <trkpt lat="48.63147" lon="1.6492">
        <ele>155</ele>
        <time>2010-05-14T13:10:03Z</time>
      </trkpt>
      <trkpt lat="48.63145" lon="1.6492">
        <ele>155</ele>
        <time>2010-05-14T13:10:04Z</time>
      </trkpt>
      <trkpt lat="48.63143" lon="1.64919">
        <ele>154</ele>
        <time>2010-05-14T13:10:05Z</time>
      </trkpt>
      <trkpt lat="48.63142" lon="1.64919">
        <ele>154</ele>
        <time>2010-05-14T13:10:06Z</time>
      </trkpt>
      <trkpt lat="48.6314" lon="1.64919">
        <ele>154</ele>
        <time>2010-05-14T13:10:07Z</time>
      </trkpt>
      <trkpt lat="48.63138" lon="1.64918">
        <ele>153</ele>
        <time>2010-05-14T13:10:08Z</time>
      </trkpt>
      <trkpt lat="48.63137" lon="1.64919">
        <ele>153</ele>
        <time>2010-05-14T13:10:09Z</time>
      </trkpt>
      <trkpt lat="48.63135" lon="1.64919">
        <ele>153</ele>
        <time>2010-05-14T13:10:10Z</time>
      </trkpt>
      <trkpt lat="48.63133" lon="1.64918">
        <ele>153</ele>
        <time>2010-05-14T13:10:11Z</time>
      </trkpt>
      <trkpt lat="48.63132" lon="1.64918">
        <ele>153</ele>
        <time>2010-05-14T13:10:12Z</time>
      </trkpt>
      <trkpt lat="48.6313" lon="1.64917">
        <ele>153</ele>
        <time>2010-05-14T13:10:13Z</time>
      </trkpt>
      <trkpt lat="48.63128" lon="1.64917">
        <ele>153</ele>
        <time>2010-05-14T13:10:14Z</time>
      </trkpt>
      <trkpt lat="48.63127" lon="1.64917">
        <ele>153</ele>
        <time>2010-05-14T13:10:15Z</time>
      </trkpt>
      <trkpt lat="48.63125" lon="1.64917">
        <ele>153</ele>
        <time>2010-05-14T13:10:16Z</time>
      </trkpt>
      <trkpt lat="48.63124" lon="1.64917">
        <ele>153</ele>
        <time>2010-05-14T13:10:17Z</time>
      </trkpt>
      <trkpt lat="48.63122" lon="1.64917">
        <ele>153</ele>
        <time>2010-05-14T13:10:18Z</time>
      </trkpt>
      <trkpt lat="48.6312" lon="1.64917">
        <ele>153</ele>
        <time>2010-05-14T13:10:19Z</time>
      </trkpt>
      <trkpt lat="48.63119" lon="1.64917">
        <ele>153</ele>
        <time>2010-05-14T13:10:20Z</time>
      </trkpt>
      <trkpt lat="48.63117" lon="1.64917">
        <ele>153</ele>
        <time>2010-05-14T13:10:21Z</time>
      </trkpt>
      <trkpt lat="48.63115" lon="1.64916">
        <ele>153</ele>
        <time>2010-05-14T13:10:22Z</time>
      </trkpt>
      <trkpt lat="48.63113" lon="1.64916">
        <ele>152</ele>
        <time>2010-05-14T13:10:23Z</time>
      </trkpt>
      <trkpt lat="48.63111" lon="1.64916">
        <ele>152</ele>
        <time>2010-05-14T13:10:24Z</time>
      </trkpt>
      <trkpt lat="48.63109" lon="1.64916">
        <ele>152</ele>
        <time>2010-05-14T13:10:25Z</time>
      </trkpt>
      <trkpt lat="48.63108" lon="1.64916">
        <ele>152</ele>
        <time>2010-05-14T13:10:26Z</time>
      </trkpt>
      <trkpt lat="48.63106" lon="1.64915">
        <ele>152</ele>
        <time>2010-05-14T13:10:27Z</time>
      </trkpt>
      <trkpt lat="48.63104" lon="1.64915">
        <ele>152</ele>
        <time>2010-05-14T13:10:28Z</time>
      </trkpt>
      <trkpt lat="48.63102" lon="1.64915">
        <ele>152</ele>
        <time>2010-05-14T13:10:29Z</time>
      </trkpt>
      <trkpt lat="48.631" lon="1.64914">
        <ele>152</ele>
        <time>2010-05-14T13:10:30Z</time>
      </trkpt>
      <trkpt lat="48.63098" lon="1.64915">
        <ele>152</ele>
        <time>2010-05-14T13:10:31Z</time>
      </trkpt>
      <trkpt lat="48.63096" lon="1.64914">
        <ele>152</ele>
        <time>2010-05-14T13:10:32Z</time>
      </trkpt>
      <trkpt lat="48.63095" lon="1.64914">
        <ele>152</ele>
        <time>2010-05-14T13:10:33Z</time>
      </trkpt>
      <trkpt lat="48.63093" lon="1.64913">
        <ele>152</ele>
        <time>2010-05-14T13:10:34Z</time>
      </trkpt>
      <trkpt lat="48.63092" lon="1.64913">
        <ele>152</ele>
        <time>2010-05-14T13:10:35Z</time>
      </trkpt>
      <trkpt lat="48.6309" lon="1.64912">
        <ele>152</ele>
        <time>2010-05-14T13:10:36Z</time>
      </trkpt>
      <trkpt lat="48.63089" lon="1.64912">
        <ele>152</ele>
        <time>2010-05-14T13:10:37Z</time>
      </trkpt>
      <trkpt lat="48.63087" lon="1.64912">
        <ele>152</ele>
        <time>2010-05-14T13:10:38Z</time>
      </trkpt>
      <trkpt lat="48.63085" lon="1.64911">
        <ele>152</ele>
        <time>2010-05-14T13:10:39Z</time>
      </trkpt>
      <trkpt lat="48.63084" lon="1.64911">
        <ele>152</ele>
        <time>2010-05-14T13:10:40Z</time>
      </trkpt>
      <trkpt lat="48.63082" lon="1.6491">
        <ele>152</ele>
        <time>2010-05-14T13:10:41Z</time>
      </trkpt>
      <trkpt lat="48.6308" lon="1.6491">
        <ele>152</ele>
        <time>2010-05-14T13:10:42Z</time>
      </trkpt>
      <trkpt lat="48.63079" lon="1.64909">
        <ele>152</ele>
        <time>2010-05-14T13:10:43Z</time>
      </trkpt>
      <trkpt lat="48.63077" lon="1.64909">
        <ele>152</ele>
        <time>2010-05-14T13:10:44Z</time>
      </trkpt>
      <trkpt lat="48.63076" lon="1.64908">
        <ele>152</ele>
        <time>2010-05-14T13:10:45Z</time>
      </trkpt>
      <trkpt lat="48.63074" lon="1.64906">
        <ele>152</ele>
        <time>2010-05-14T13:10:46Z</time>
      </trkpt>
      <trkpt lat="48.63072" lon="1.64905">
        <ele>152</ele>
        <time>2010-05-14T13:10:47Z</time>
      </trkpt>
      <trkpt lat="48.63071" lon="1.64904">
        <ele>152</ele>
        <time>2010-05-14T13:10:48Z</time>
      </trkpt>
      <trkpt lat="48.63069" lon="1.64904">
        <ele>152</ele>
        <time>2010-05-14T13:10:49Z</time>
      </trkpt>
      <trkpt lat="48.63068" lon="1.64903">
        <ele>152</ele>
        <time>2010-05-14T13:10:50Z</time>
      </trkpt>
      <trkpt lat="48.63066" lon="1.64902">
        <ele>152</ele>
        <time>2010-05-14T13:10:51Z</time>
      </trkpt>
      <trkpt lat="48.63064" lon="1.64902">
        <ele>152</ele>
        <time>2010-05-14T13:10:52Z</time>
      </trkpt>
      <trkpt lat="48.63063" lon="1.64901">
        <ele>152</ele>
        <time>2010-05-14T13:10:53Z</time>
      </trkpt>
      <trkpt lat="48.63061" lon="1.649">
        <ele>152</ele>
        <time>2010-05-14T13:10:54Z</time>
      </trkpt>
      <trkpt lat="48.6306" lon="1.64899">
        <ele>152</ele>
        <time>2010-05-14T13:10:55Z</time>
      </trkpt>
      <trkpt lat="48.63058" lon="1.64899">
        <ele>152</ele>
        <time>2010-05-14T13:10:56Z</time>
      </trkpt>
      <trkpt lat="48.63056" lon="1.64898">
        <ele>152</ele>
        <time>2010-05-14T13:10:57Z</time>
      </trkpt>
      <trkpt lat="48.63055" lon="1.64897">
        <ele>152</ele>
        <time>2010-05-14T13:10:58Z</time>
      </trkpt>
      <trkpt lat="48.63054" lon="1.64896">
        <ele>152</ele>
        <time>2010-05-14T13:10:59Z</time>
      </trkpt>
      <trkpt lat="48.63052" lon="1.64895">
        <ele>152</ele>
        <time>2010-05-14T13:11:00Z</time>
      </trkpt>
      <trkpt lat="48.6305" lon="1.64894">
        <ele>152</ele>
        <time>2010-05-14T13:11:01Z</time>
      </trkpt>
      <trkpt lat="48.63049" lon="1.64893">
        <ele>152</ele>
        <time>2010-05-14T13:11:02Z</time>
      </trkpt>
      <trkpt lat="48.63047" lon="1.64892">
        <ele>152</ele>
        <time>2010-05-14T13:11:03Z</time>
      </trkpt>
      <trkpt lat="48.63046" lon="1.64891">
        <ele>152</ele>
        <time>2010-05-14T13:11:04Z</time>
      </trkpt>
      <trkpt lat="48.63044" lon="1.6489">
        <ele>152</ele>
        <time>2010-05-14T13:11:05Z</time>
      </trkpt>
      <trkpt lat="48.63042" lon="1.64888">
        <ele>152</ele>
        <time>2010-05-14T13:11:06Z</time>
      </trkpt>
      <trkpt lat="48.6304" lon="1.64886">
        <ele>152</ele>
        <time>2010-05-14T13:11:08Z</time>
      </trkpt>
      <trkpt lat="48.63038" lon="1.64885">
        <ele>152</ele>
        <time>2010-05-14T13:11:09Z</time>
      </trkpt>
      <trkpt lat="48.63037" lon="1.64884">
        <ele>152</ele>
        <time>2010-05-14T13:11:10Z</time>
      </trkpt>
      <trkpt lat="48.63036" lon="1.64883">
        <ele>152</ele>
        <time>2010-05-14T13:11:11Z</time>
      </trkpt>
      <trkpt lat="48.63034" lon="1.64881">
        <ele>152</ele>
        <time>2010-05-14T13:11:13Z</time>
      </trkpt>
      <trkpt lat="48.63032" lon="1.6488">
        <ele>152</ele>
        <time>2010-05-14T13:11:14Z</time>
      </trkpt>
      <trkpt lat="48.63031" lon="1.64879">
        <ele>152</ele>
        <time>2010-05-14T13:11:15Z</time>
      </trkpt>
      <trkpt lat="48.6303" lon="1.64878">
        <ele>152</ele>
        <time>2010-05-14T13:11:16Z</time>
      </trkpt>
      <trkpt lat="48.63028" lon="1.64877">
        <ele>152</ele>
        <time>2010-05-14T13:11:17Z</time>
      </trkpt>
      <trkpt lat="48.63027" lon="1.64876">
        <ele>152</ele>
        <time>2010-05-14T13:11:18Z</time>
      </trkpt>
      <trkpt lat="48.63025" lon="1.64874">
        <ele>152</ele>
        <time>2010-05-14T13:11:19Z</time>
      </trkpt>
      <trkpt lat="48.63024" lon="1.64872">
        <ele>152</ele>
        <time>2010-05-14T13:11:20Z</time>
      </trkpt>
      <trkpt lat="48.63022" lon="1.6487">
        <ele>152</ele>
        <time>2010-05-14T13:11:21Z</time>
      </trkpt>
      <trkpt lat="48.63021" lon="1.64869">
        <ele>152</ele>
        <time>2010-05-14T13:11:22Z</time>
      </trkpt>
      <trkpt lat="48.6302" lon="1.64867">
        <ele>152</ele>
        <time>2010-05-14T13:11:23Z</time>
      </trkpt>
      <trkpt lat="48.63018" lon="1.64866">
        <ele>152</ele>
        <time>2010-05-14T13:11:24Z</time>
      </trkpt>
      <trkpt lat="48.63017" lon="1.64865">
        <ele>152</ele>
        <time>2010-05-14T13:11:25Z</time>
      </trkpt>
      <trkpt lat="48.63015" lon="1.64863">
        <ele>152</ele>
        <time>2010-05-14T13:11:26Z</time>
      </trkpt>
      <trkpt lat="48.63014" lon="1.64862">
        <ele>152</ele>
        <time>2010-05-14T13:11:27Z</time>
      </trkpt>
      <trkpt lat="48.63013" lon="1.64861">
        <ele>152</ele>
        <time>2010-05-14T13:11:28Z</time>
      </trkpt>
      <trkpt lat="48.63012" lon="1.6486">
        <ele>152</ele>
        <time>2010-05-14T13:11:29Z</time>
      </trkpt>
      <trkpt lat="48.6301" lon="1.64858">
        <ele>152</ele>
        <time>2010-05-14T13:11:30Z</time>
      </trkpt>
      <trkpt lat="48.63009" lon="1.64857">
        <ele>152</ele>
        <time>2010-05-14T13:11:31Z</time>
      </trkpt>
      <trkpt lat="48.63007" lon="1.64856">
        <ele>152</ele>
        <time>2010-05-14T13:11:33Z</time>
      </trkpt>
      <trkpt lat="48.63006" lon="1.64855">
        <ele>152</ele>
        <time>2010-05-14T13:11:34Z</time>
      </trkpt>
      <trkpt lat="48.63004" lon="1.64854">
        <ele>152</ele>
        <time>2010-05-14T13:11:35Z</time>
      </trkpt>
      <trkpt lat="48.63003" lon="1.64852">
        <ele>152</ele>
        <time>2010-05-14T13:11:36Z</time>
      </trkpt>
      <trkpt lat="48.63002" lon="1.64851">
        <ele>152</ele>
        <time>2010-05-14T13:11:37Z</time>
      </trkpt>
      <trkpt lat="48.63001" lon="1.6485">
        <ele>152</ele>
        <time>2010-05-14T13:11:38Z</time>
      </trkpt>
      <trkpt lat="48.62999" lon="1.64847">
        <ele>152</ele>
        <time>2010-05-14T13:11:39Z</time>
      </trkpt>
      <trkpt lat="48.62998" lon="1.64846">
        <ele>152</ele>
        <time>2010-05-14T13:11:40Z</time>
      </trkpt>
      <trkpt lat="48.62997" lon="1.64845">
        <ele>152</ele>
        <time>2010-05-14T13:11:41Z</time>
      </trkpt>
      <trkpt lat="48.62995" lon="1.64843">
        <ele>152</ele>
        <time>2010-05-14T13:11:42Z</time>
      </trkpt>
      <trkpt lat="48.62994" lon="1.64842">
        <ele>152</ele>
        <time>2010-05-14T13:11:43Z</time>
      </trkpt>
      <trkpt lat="48.62992" lon="1.64839">
        <ele>152</ele>
        <time>2010-05-14T13:11:44Z</time>
      </trkpt>
      <trkpt lat="48.6299" lon="1.64837">
        <ele>152</ele>
        <time>2010-05-14T13:11:45Z</time>
      </trkpt>
      <trkpt lat="48.62988" lon="1.64835">
        <ele>152</ele>
        <time>2010-05-14T13:11:46Z</time>
      </trkpt>
      <trkpt lat="48.62987" lon="1.64833">
        <ele>152</ele>
        <time>2010-05-14T13:11:47Z</time>
      </trkpt>
      <trkpt lat="48.62985" lon="1.64831">
        <ele>152</ele>
        <time>2010-05-14T13:11:48Z</time>
      </trkpt>
      <trkpt lat="48.62984" lon="1.6483">
        <ele>152</ele>
        <time>2010-05-14T13:11:49Z</time>
      </trkpt>
      <trkpt lat="48.62982" lon="1.64828">
        <ele>152</ele>
        <time>2010-05-14T13:11:50Z</time>
      </trkpt>
      <trkpt lat="48.62981" lon="1.64827">
        <ele>152</ele>
        <time>2010-05-14T13:11:51Z</time>
      </trkpt>
      <trkpt lat="48.62979" lon="1.64826">
        <ele>152</ele>
        <time>2010-05-14T13:11:52Z</time>
      </trkpt>
      <trkpt lat="48.62978" lon="1.64825">
        <ele>152</ele>
        <time>2010-05-14T13:11:53Z</time>
      </trkpt>
      <trkpt lat="48.62977" lon="1.64823">
        <ele>152</ele>
        <time>2010-05-14T13:11:54Z</time>
      </trkpt>
      <trkpt lat="48.62975" lon="1.64821">
        <ele>152</ele>
        <time>2010-05-14T13:11:55Z</time>
      </trkpt>
      <trkpt lat="48.62974" lon="1.64819">
        <ele>152</ele>
        <time>2010-05-14T13:11:56Z</time>
      </trkpt>
      <trkpt lat="48.62972" lon="1.64817">
        <ele>152</ele>
        <time>2010-05-14T13:11:57Z</time>
      </trkpt>
      <trkpt lat="48.62971" lon="1.64816">
        <ele>152</ele>
        <time>2010-05-14T13:11:58Z</time>
      </trkpt>
      <trkpt lat="48.62969" lon="1.64814">
        <ele>152</ele>
        <time>2010-05-14T13:11:59Z</time>
      </trkpt>
      <trkpt lat="48.62968" lon="1.64813">
        <ele>152</ele>
        <time>2010-05-14T13:12:00Z</time>
      </trkpt>
      <trkpt lat="48.62966" lon="1.64811">
        <ele>152</ele>
        <time>2010-05-14T13:12:01Z</time>
      </trkpt>
      <trkpt lat="48.62965" lon="1.6481">
        <ele>152</ele>
        <time>2010-05-14T13:12:02Z</time>
      </trkpt>
      <trkpt lat="48.62964" lon="1.64808">
        <ele>152</ele>
        <time>2010-05-14T13:12:03Z</time>
      </trkpt>
      <trkpt lat="48.62962" lon="1.64807">
        <ele>152</ele>
        <time>2010-05-14T13:12:04Z</time>
      </trkpt>
      <trkpt lat="48.62961" lon="1.64805">
        <ele>152</ele>
        <time>2010-05-14T13:12:05Z</time>
      </trkpt>
      <trkpt lat="48.62959" lon="1.64802">
        <ele>152</ele>
        <time>2010-05-14T13:12:07Z</time>
      </trkpt>
      <trkpt lat="48.62958" lon="1.64801">
        <ele>152</ele>
        <time>2010-05-14T13:12:08Z</time>
      </trkpt>
      <trkpt lat="48.62957" lon="1.64799">
        <ele>152</ele>
        <time>2010-05-14T13:12:09Z</time>
      </trkpt>
      <trkpt lat="48.62955" lon="1.64798">
        <ele>152</ele>
        <time>2010-05-14T13:12:10Z</time>
      </trkpt>
      <trkpt lat="48.62954" lon="1.64796">
        <ele>152</ele>
        <time>2010-05-14T13:12:11Z</time>
      </trkpt>
      <trkpt lat="48.62952" lon="1.64794">
        <ele>152</ele>
        <time>2010-05-14T13:12:12Z</time>
      </trkpt>
      <trkpt lat="48.62951" lon="1.64793">
        <ele>152</ele>
        <time>2010-05-14T13:12:13Z</time>
      </trkpt>
      <trkpt lat="48.6295" lon="1.64791">
        <ele>152</ele>
        <time>2010-05-14T13:12:14Z</time>
      </trkpt>
      <trkpt lat="48.62948" lon="1.64789">
        <ele>152</ele>
        <time>2010-05-14T13:12:15Z</time>
      </trkpt>
      <trkpt lat="48.62947" lon="1.64788">
        <ele>152</ele>
        <time>2010-05-14T13:12:16Z</time>
      </trkpt>
      <trkpt lat="48.62945" lon="1.64786">
        <ele>152</ele>
        <time>2010-05-14T13:12:17Z</time>
      </trkpt>
      <trkpt lat="48.62944" lon="1.64784">
        <ele>152</ele>
        <time>2010-05-14T13:12:18Z</time>
      </trkpt>
      <trkpt lat="48.62942" lon="1.64783">
        <ele>152</ele>
        <time>2010-05-14T13:12:19Z</time>
      </trkpt>
      <trkpt lat="48.62941" lon="1.64781">
        <ele>152</ele>
        <time>2010-05-14T13:12:20Z</time>
      </trkpt>
      <trkpt lat="48.62939" lon="1.64779">
        <ele>152</ele>
        <time>2010-05-14T13:12:21Z</time>
      </trkpt>
      <trkpt lat="48.62938" lon="1.64777">
        <ele>152</ele>
        <time>2010-05-14T13:12:22Z</time>
      </trkpt>
      <trkpt lat="48.62937" lon="1.64776">
        <ele>152</ele>
        <time>2010-05-14T13:12:23Z</time>
      </trkpt>
      <trkpt lat="48.62936" lon="1.64775">
        <ele>152</ele>
        <time>2010-05-14T13:12:24Z</time>
      </trkpt>
      <trkpt lat="48.62935" lon="1.64774">
        <ele>152</ele>
        <time>2010-05-14T13:12:25Z</time>
      </trkpt>
      <trkpt lat="48.62933" lon="1.64772">
        <ele>152</ele>
        <time>2010-05-14T13:12:26Z</time>
      </trkpt>
      <trkpt lat="48.62932" lon="1.64771">
        <ele>152</ele>
        <time>2010-05-14T13:12:27Z</time>
      </trkpt>
      <trkpt lat="48.6293" lon="1.6477">
        <ele>152</ele>
        <time>2010-05-14T13:12:28Z</time>
      </trkpt>
      <trkpt lat="48.62929" lon="1.64768">
        <ele>152</ele>
        <time>2010-05-14T13:12:29Z</time>
      </trkpt>
      <trkpt lat="48.62928" lon="1.64767">
        <ele>152</ele>
        <time>2010-05-14T13:12:30Z</time>
      </trkpt>
      <trkpt lat="48.62927" lon="1.64766">
        <ele>152</ele>
        <time>2010-05-14T13:12:31Z</time>
      </trkpt>
      <trkpt lat="48.62925" lon="1.64763">
        <ele>152</ele>
        <time>2010-05-14T13:12:33Z</time>
      </trkpt>
      <trkpt lat="48.62922" lon="1.64761">
        <ele>152</ele>
        <time>2010-05-14T13:12:35Z</time>
      </trkpt>
      <trkpt lat="48.62921" lon="1.6476">
        <ele>152</ele>
        <time>2010-05-14T13:12:36Z</time>
      </trkpt>
      <trkpt lat="48.6292" lon="1.64759">
        <ele>152</ele>
        <time>2010-05-14T13:12:37Z</time>
      </trkpt>
      <trkpt lat="48.62918" lon="1.64757">
        <ele>152</ele>
        <time>2010-05-14T13:12:38Z</time>
      </trkpt>
      <trkpt lat="48.62917" lon="1.64756">
        <ele>152</ele>
        <time>2010-05-14T13:12:39Z</time>
      </trkpt>
      <trkpt lat="48.62915" lon="1.64755">
        <ele>152</ele>
        <time>2010-05-14T13:12:40Z</time>
      </trkpt>
      <trkpt lat="48.62914" lon="1.64754">
        <ele>152</ele>
        <time>2010-05-14T13:12:41Z</time>
      </trkpt>
      <trkpt lat="48.62913" lon="1.64752">
        <ele>152</ele>
        <time>2010-05-14T13:12:42Z</time>
      </trkpt>
      <trkpt lat="48.62911" lon="1.64751">
        <ele>152</ele>
        <time>2010-05-14T13:12:43Z</time>
      </trkpt>
      <trkpt lat="48.6291" lon="1.64749">
        <ele>152</ele>
        <time>2010-05-14T13:12:44Z</time>
      </trkpt>
      <trkpt lat="48.62908" lon="1.64748">
        <ele>152</ele>
        <time>2010-05-14T13:12:45Z</time>
      </trkpt>
      <trkpt lat="48.62907" lon="1.64746">
        <ele>152</ele>
        <time>2010-05-14T13:12:46Z</time>
      </trkpt>
      <trkpt lat="48.62906" lon="1.64745">
        <ele>152</ele>
        <time>2010-05-14T13:12:47Z</time>
      </trkpt>
      <trkpt lat="48.62905" lon="1.64743">
        <ele>152</ele>
        <time>2010-05-14T13:12:48Z</time>
      </trkpt>
      <trkpt lat="48.62903" lon="1.64741">
        <ele>152</ele>
        <time>2010-05-14T13:12:49Z</time>
      </trkpt>
      <trkpt lat="48.62902" lon="1.6474">
        <ele>152</ele>
        <time>2010-05-14T13:12:50Z</time>
      </trkpt>
      <trkpt lat="48.629" lon="1.64738">
        <ele>152</ele>
        <time>2010-05-14T13:12:51Z</time>
      </trkpt>
      <trkpt lat="48.62899" lon="1.64736">
        <ele>152</ele>
        <time>2010-05-14T13:12:52Z</time>
      </trkpt>
      <trkpt lat="48.62897" lon="1.64735">
        <ele>152</ele>
        <time>2010-05-14T13:12:53Z</time>
      </trkpt>
      <trkpt lat="48.62896" lon="1.64733">
        <ele>152</ele>
        <time>2010-05-14T13:12:54Z</time>
      </trkpt>
      <trkpt lat="48.62894" lon="1.64731">
        <ele>152</ele>
        <time>2010-05-14T13:12:55Z</time>
      </trkpt>
      <trkpt lat="48.62893" lon="1.6473">
        <ele>152</ele>
        <time>2010-05-14T13:12:56Z</time>
      </trkpt>
      <trkpt lat="48.62891" lon="1.64728">
        <ele>152</ele>
        <time>2010-05-14T13:12:57Z</time>
      </trkpt>
      <trkpt lat="48.62889" lon="1.64726">
        <ele>152</ele>
        <time>2010-05-14T13:12:58Z</time>
      </trkpt>
      <trkpt lat="48.62887" lon="1.64725">
        <ele>152</ele>
        <time>2010-05-14T13:12:59Z</time>
      </trkpt>
      <trkpt lat="48.62886" lon="1.64724">
        <ele>152</ele>
        <time>2010-05-14T13:13:00Z</time>
      </trkpt>
      <trkpt lat="48.62884" lon="1.64722">
        <ele>152</ele>
        <time>2010-05-14T13:13:01Z</time>
      </trkpt>
      <trkpt lat="48.62883" lon="1.64721">
        <ele>152</ele>
        <time>2010-05-14T13:13:02Z</time>
      </trkpt>
      <trkpt lat="48.62881" lon="1.64719">
        <ele>152</ele>
        <time>2010-05-14T13:13:03Z</time>
      </trkpt>
      <trkpt lat="48.6288" lon="1.64717">
        <ele>152</ele>
        <time>2010-05-14T13:13:04Z</time>
      </trkpt>
      <trkpt lat="48.62878" lon="1.64715">
        <ele>152</ele>
        <time>2010-05-14T13:13:05Z</time>
      </trkpt>
      <trkpt lat="48.62876" lon="1.64714">
        <ele>152</ele>
        <time>2010-05-14T13:13:06Z</time>
      </trkpt>
      <trkpt lat="48.62875" lon="1.64712">
        <ele>152</ele>
        <time>2010-05-14T13:13:07Z</time>
      </trkpt>
      <trkpt lat="48.62874" lon="1.6471">
        <ele>152</ele>
        <time>2010-05-14T13:13:08Z</time>
      </trkpt>
      <trkpt lat="48.62872" lon="1.64708">
        <ele>152</ele>
        <time>2010-05-14T13:13:09Z</time>
      </trkpt>
      <trkpt lat="48.6287" lon="1.64707">
        <ele>152</ele>
        <time>2010-05-14T13:13:10Z</time>
      </trkpt>
      <trkpt lat="48.62869" lon="1.64706">
        <ele>152</ele>
        <time>2010-05-14T13:13:11Z</time>
      </trkpt>
      <trkpt lat="48.62867" lon="1.64704">
        <ele>152</ele>
        <time>2010-05-14T13:13:12Z</time>
      </trkpt>
      <trkpt lat="48.62866" lon="1.64703">
        <ele>152</ele>
        <time>2010-05-14T13:13:13Z</time>
      </trkpt>
      <trkpt lat="48.62865" lon="1.64702">
        <ele>152</ele>
        <time>2010-05-14T13:13:14Z</time>
      </trkpt>
      <trkpt lat="48.62864" lon="1.64701">
        <ele>152</ele>
        <time>2010-05-14T13:13:15Z</time>
      </trkpt>
      <trkpt lat="48.62862" lon="1.64699">
        <ele>152</ele>
        <time>2010-05-14T13:13:16Z</time>
      </trkpt>
      <trkpt lat="48.62861" lon="1.64698">
        <ele>152</ele>
        <time>2010-05-14T13:13:17Z</time>
      </trkpt>
      <trkpt lat="48.6286" lon="1.64696">
        <ele>152</ele>
        <time>2010-05-14T13:13:18Z</time>
      </trkpt>
      <trkpt lat="48.62858" lon="1.64695">
        <ele>152</ele>
        <time>2010-05-14T13:13:19Z</time>
      </trkpt>
      <trkpt lat="48.62857" lon="1.64693">
        <ele>152</ele>
        <time>2010-05-14T13:13:20Z</time>
      </trkpt>
      <trkpt lat="48.62856" lon="1.64692">
        <ele>152</ele>
        <time>2010-05-14T13:13:21Z</time>
      </trkpt>
      <trkpt lat="48.62855" lon="1.6469">
        <ele>152</ele>
        <time>2010-05-14T13:13:22Z</time>
      </trkpt>
      <trkpt lat="48.62854" lon="1.64689">
        <ele>152</ele>
        <time>2010-05-14T13:13:23Z</time>
      </trkpt>
      <trkpt lat="48.62852" lon="1.64687">
        <ele>152</ele>
        <time>2010-05-14T13:13:25Z</time>
      </trkpt>
      <trkpt lat="48.62851" lon="1.64686">
        <ele>152</ele>
        <time>2010-05-14T13:13:26Z</time>
      </trkpt>
      <trkpt lat="48.62849" lon="1.64684">
        <ele>152</ele>
        <time>2010-05-14T13:13:27Z</time>
      </trkpt>
      <trkpt lat="48.62848" lon="1.64683">
        <ele>152</ele>
        <time>2010-05-14T13:13:28Z</time>
      </trkpt>
      <trkpt lat="48.62847" lon="1.64681">
        <ele>152</ele>
        <time>2010-05-14T13:13:29Z</time>
      </trkpt>
      <trkpt lat="48.62846" lon="1.6468">
        <ele>152</ele>
        <time>2010-05-14T13:13:30Z</time>
      </trkpt>
      <trkpt lat="48.62844" lon="1.64679">
        <ele>152</ele>
        <time>2010-05-14T13:13:31Z</time>
      </trkpt>
      <trkpt lat="48.62843" lon="1.64678">
        <ele>152</ele>
        <time>2010-05-14T13:13:32Z</time>
      </trkpt>
      <trkpt lat="48.62842" lon="1.64676">
        <ele>152</ele>
        <time>2010-05-14T13:13:33Z</time>
      </trkpt>
      <trkpt lat="48.6284" lon="1.64675">
        <ele>152</ele>
        <time>2010-05-14T13:13:34Z</time>
      </trkpt>
      <trkpt lat="48.62839" lon="1.64674">
        <ele>152</ele>
        <time>2010-05-14T13:13:35Z</time>
      </trkpt>
      <trkpt lat="48.62838" lon="1.64672">
        <ele>152</ele>
        <time>2010-05-14T13:13:36Z</time>
      </trkpt>
      <trkpt lat="48.62836" lon="1.6467">
        <ele>152</ele>
        <time>2010-05-14T13:13:38Z</time>
      </trkpt>
      <trkpt lat="48.62834" lon="1.64669">
        <ele>152</ele>
        <time>2010-05-14T13:13:39Z</time>
      </trkpt>
      <trkpt lat="48.62833" lon="1.64667">
        <ele>152</ele>
        <time>2010-05-14T13:13:40Z</time>
      </trkpt>
      <trkpt lat="48.62832" lon="1.64666">
        <ele>152</ele>
        <time>2010-05-14T13:13:41Z</time>
      </trkpt>
      <trkpt lat="48.62831" lon="1.64664">
        <ele>152</ele>
        <time>2010-05-14T13:13:42Z</time>
      </trkpt>
      <trkpt lat="48.62829" lon="1.64663">
        <ele>152</ele>
        <time>2010-05-14T13:13:43Z</time>
      </trkpt>
      <trkpt lat="48.62828" lon="1.64662">
        <ele>152</ele>
        <time>2010-05-14T13:13:44Z</time>
      </trkpt>
      <trkpt lat="48.62826" lon="1.6466">
        <ele>152</ele>
        <time>2010-05-14T13:13:45Z</time>
      </trkpt>
      <trkpt lat="48.62825" lon="1.64659">
        <ele>152</ele>
        <time>2010-05-14T13:13:46Z</time>
      </trkpt>
      <trkpt lat="48.62824" lon="1.64658">
        <ele>152</ele>
        <time>2010-05-14T13:13:47Z</time>
      </trkpt>
      <trkpt lat="48.62822" lon="1.64656">
        <ele>152</ele>
        <time>2010-05-14T13:13:48Z</time>
      </trkpt>
      <trkpt lat="48.62821" lon="1.64655">
        <ele>152</ele>
        <time>2010-05-14T13:13:49Z</time>
      </trkpt>
      <trkpt lat="48.62819" lon="1.64654">
        <ele>152</ele>
        <time>2010-05-14T13:13:50Z</time>
      </trkpt>
      <trkpt lat="48.62818" lon="1.64652">
        <ele>152</ele>
        <time>2010-05-14T13:13:51Z</time>
      </trkpt>
      <trkpt lat="48.62817" lon="1.64651">
        <ele>152</ele>
        <time>2010-05-14T13:13:52Z</time>
      </trkpt>
      <trkpt lat="48.62815" lon="1.64649">
        <ele>152</ele>
        <time>2010-05-14T13:13:53Z</time>
      </trkpt>
      <trkpt lat="48.62814" lon="1.64648">
        <ele>152</ele>
        <time>2010-05-14T13:13:54Z</time>
      </trkpt>
      <trkpt lat="48.62813" lon="1.64646">
        <ele>152</ele>
        <time>2010-05-14T13:13:55Z</time>
      </trkpt>
      <trkpt lat="48.62811" lon="1.64645">
        <ele>152</ele>
        <time>2010-05-14T13:13:56Z</time>
      </trkpt>
      <trkpt lat="48.6281" lon="1.64643">
        <ele>152</ele>
        <time>2010-05-14T13:13:57Z</time>
      </trkpt>
      <trkpt lat="48.62809" lon="1.64642">
        <ele>152</ele>
        <time>2010-05-14T13:13:58Z</time>
      </trkpt>
      <trkpt lat="48.62807" lon="1.6464">
        <ele>152</ele>
        <time>2010-05-14T13:13:59Z</time>
      </trkpt>
      <trkpt lat="48.62806" lon="1.64639">
        <ele>152</ele>
        <time>2010-05-14T13:14:00Z</time>
      </trkpt>
      <trkpt lat="48.62805" lon="1.64638">
        <ele>152</ele>
        <time>2010-05-14T13:14:01Z</time>
      </trkpt>
      <trkpt lat="48.62804" lon="1.64637">
        <ele>152</ele>
        <time>2010-05-14T13:14:02Z</time>
      </trkpt>
      <trkpt lat="48.62802" lon="1.64636">
        <ele>152</ele>
        <time>2010-05-14T13:14:03Z</time>
      </trkpt>
      <trkpt lat="48.62801" lon="1.64634">
        <ele>152</ele>
        <time>2010-05-14T13:14:04Z</time>
      </trkpt>
      <trkpt lat="48.62799" lon="1.64632">
        <ele>152</ele>
        <time>2010-05-14T13:14:05Z</time>
      </trkpt>
      <trkpt lat="48.62798" lon="1.6463">
        <ele>152</ele>
        <time>2010-05-14T13:14:06Z</time>
      </trkpt>
      <trkpt lat="48.62796" lon="1.64629">
        <ele>152</ele>
        <time>2010-05-14T13:14:07Z</time>
      </trkpt>
      <trkpt lat="48.62795" lon="1.64628">
        <ele>152</ele>
        <time>2010-05-14T13:14:08Z</time>
      </trkpt>
      <trkpt lat="48.62793" lon="1.64627">
        <ele>152</ele>
        <time>2010-05-14T13:14:09Z</time>
      </trkpt>
      <trkpt lat="48.62792" lon="1.64626">
        <ele>152</ele>
        <time>2010-05-14T13:14:10Z</time>
      </trkpt>
      <trkpt lat="48.62791" lon="1.64624">
        <ele>152</ele>
        <time>2010-05-14T13:14:11Z</time>
      </trkpt>
      <trkpt lat="48.62789" lon="1.64623">
        <ele>152</ele>
        <time>2010-05-14T13:14:12Z</time>
      </trkpt>
      <trkpt lat="48.62788" lon="1.64621">
        <ele>152</ele>
        <time>2010-05-14T13:14:13Z</time>
      </trkpt>
      <trkpt lat="48.62787" lon="1.6462">
        <ele>152</ele>
        <time>2010-05-14T13:14:14Z</time>
      </trkpt>
      <trkpt lat="48.62786" lon="1.64618">
        <ele>152</ele>
        <time>2010-05-14T13:14:15Z</time>
      </trkpt>
      <trkpt lat="48.62784" lon="1.64615">
        <ele>152</ele>
        <time>2010-05-14T13:14:17Z</time>
      </trkpt>
      <trkpt lat="48.62783" lon="1.64613">
        <ele>152</ele>
        <time>2010-05-14T13:14:18Z</time>
      </trkpt>
      <trkpt lat="48.62782" lon="1.64611">
        <ele>152</ele>
        <time>2010-05-14T13:14:19Z</time>
      </trkpt>
      <trkpt lat="48.62781" lon="1.64609">
        <ele>152</ele>
        <time>2010-05-14T13:14:20Z</time>
      </trkpt>
      <trkpt lat="48.6278" lon="1.64607">
        <ele>152</ele>
        <time>2010-05-14T13:14:21Z</time>
      </trkpt>
      <trkpt lat="48.62779" lon="1.64605">
        <ele>152</ele>
        <time>2010-05-14T13:14:22Z</time>
      </trkpt>
      <trkpt lat="48.62778" lon="1.64604">
        <ele>152</ele>
        <time>2010-05-14T13:14:23Z</time>
      </trkpt>
      <trkpt lat="48.62778" lon="1.64602">
        <ele>152</ele>
        <time>2010-05-14T13:14:24Z</time>
      </trkpt>
      <trkpt lat="48.62777" lon="1.646">
        <ele>152</ele>
        <time>2010-05-14T13:14:25Z</time>
      </trkpt>
      <trkpt lat="48.62776" lon="1.64598">
        <ele>152</ele>
        <time>2010-05-14T13:14:26Z</time>
      </trkpt>
      <trkpt lat="48.62775" lon="1.64596">
        <ele>152</ele>
        <time>2010-05-14T13:14:27Z</time>
      </trkpt>
      <trkpt lat="48.62774" lon="1.64593">
        <ele>152</ele>
        <time>2010-05-14T13:14:28Z</time>
      </trkpt>
      <trkpt lat="48.62774" lon="1.64591">
        <ele>152</ele>
        <time>2010-05-14T13:14:29Z</time>
      </trkpt>
      <trkpt lat="48.62773" lon="1.64589">
        <ele>152</ele>
        <time>2010-05-14T13:14:30Z</time>
      </trkpt>
      <trkpt lat="48.62772" lon="1.64587">
        <ele>152</ele>
        <time>2010-05-14T13:14:31Z</time>
      </trkpt>
      <trkpt lat="48.62771" lon="1.64585">
        <ele>152</ele>
        <time>2010-05-14T13:14:32Z</time>
      </trkpt>
      <trkpt lat="48.6277" lon="1.64583">
        <ele>152</ele>
        <time>2010-05-14T13:14:33Z</time>
      </trkpt>
      <trkpt lat="48.62769" lon="1.6458">
        <ele>152</ele>
        <time>2010-05-14T13:14:34Z</time>
      </trkpt>
      <trkpt lat="48.62768" lon="1.64578">
        <ele>152</ele>
        <time>2010-05-14T13:14:35Z</time>
      </trkpt>
      <trkpt lat="48.62768" lon="1.64576">
        <ele>152</ele>
        <time>2010-05-14T13:14:36Z</time>
      </trkpt>
      <trkpt lat="48.62767" lon="1.64574">
        <ele>152</ele>
        <time>2010-05-14T13:14:37Z</time>
      </trkpt>
      <trkpt lat="48.62766" lon="1.64572">
        <ele>152</ele>
        <time>2010-05-14T13:14:38Z</time>
      </trkpt>
      <trkpt lat="48.62765" lon="1.6457">
        <ele>152</ele>
        <time>2010-05-14T13:14:39Z</time>
      </trkpt>
      <trkpt lat="48.62765" lon="1.64568">
        <ele>152</ele>
        <time>2010-05-14T13:14:40Z</time>
      </trkpt>
      <trkpt lat="48.62764" lon="1.64566">
        <ele>152</ele>
        <time>2010-05-14T13:14:41Z</time>
      </trkpt>
      <trkpt lat="48.62762" lon="1.64564">
        <ele>152</ele>
        <time>2010-05-14T13:14:42Z</time>
      </trkpt>
      <trkpt lat="48.62761" lon="1.64562">
        <ele>152</ele>
        <time>2010-05-14T13:14:43Z</time>
      </trkpt>
      <trkpt lat="48.62761" lon="1.6456">
        <ele>152</ele>
        <time>2010-05-14T13:14:44Z</time>
      </trkpt>
      <trkpt lat="48.62759" lon="1.64558">
        <ele>152</ele>
        <time>2010-05-14T13:14:45Z</time>
      </trkpt>
      <trkpt lat="48.62758" lon="1.64556">
        <ele>152</ele>
        <time>2010-05-14T13:14:46Z</time>
      </trkpt>
      <trkpt lat="48.62757" lon="1.64554">
        <ele>152</ele>
        <time>2010-05-14T13:14:47Z</time>
      </trkpt>
      <trkpt lat="48.62756" lon="1.64553">
        <ele>152</ele>
        <time>2010-05-14T13:14:48Z</time>
      </trkpt>
      <trkpt lat="48.62755" lon="1.64551">
        <ele>152</ele>
        <time>2010-05-14T13:14:49Z</time>
      </trkpt>
      <trkpt lat="48.62754" lon="1.64549">
        <ele>152</ele>
        <time>2010-05-14T13:14:50Z</time>
      </trkpt>
      <trkpt lat="48.62753" lon="1.64548">
        <ele>152</ele>
        <time>2010-05-14T13:14:51Z</time>
      </trkpt>
      <trkpt lat="48.62752" lon="1.64546">
        <ele>152</ele>
        <time>2010-05-14T13:14:52Z</time>
      </trkpt>
      <trkpt lat="48.62751" lon="1.64545">
        <ele>152</ele>
        <time>2010-05-14T13:14:53Z</time>
      </trkpt>
      <trkpt lat="48.6275" lon="1.64543">
        <ele>152</ele>
        <time>2010-05-14T13:14:54Z</time>
      </trkpt>
      <trkpt lat="48.62749" lon="1.64541">
        <ele>152</ele>
        <time>2010-05-14T13:14:55Z</time>
      </trkpt>
      <trkpt lat="48.62747" lon="1.64539">
        <ele>152</ele>
        <time>2010-05-14T13:14:56Z</time>
      </trkpt>
      <trkpt lat="48.62746" lon="1.64537">
        <ele>152</ele>
        <time>2010-05-14T13:14:57Z</time>
      </trkpt>
      <trkpt lat="48.62745" lon="1.64536">
        <ele>152</ele>
        <time>2010-05-14T13:14:58Z</time>
      </trkpt>
      <trkpt lat="48.62744" lon="1.64534">
        <ele>152</ele>
        <time>2010-05-14T13:14:59Z</time>
      </trkpt>
      <trkpt lat="48.62743" lon="1.64532">
        <ele>152</ele>
        <time>2010-05-14T13:15:00Z</time>
      </trkpt>
      <trkpt lat="48.62742" lon="1.6453">
        <ele>152</ele>
        <time>2010-05-14T13:15:01Z</time>
      </trkpt>
      <trkpt lat="48.6274" lon="1.64527">
        <ele>152</ele>
        <time>2010-05-14T13:15:03Z</time>
      </trkpt>
      <trkpt lat="48.62739" lon="1.64526">
        <ele>152</ele>
        <time>2010-05-14T13:15:04Z</time>
      </trkpt>
      <trkpt lat="48.62738" lon="1.64524">
        <ele>152</ele>
        <time>2010-05-14T13:15:05Z</time>
      </trkpt>
      <trkpt lat="48.62737" lon="1.64522">
        <ele>152</ele>
        <time>2010-05-14T13:15:06Z</time>
      </trkpt>
      <trkpt lat="48.62736" lon="1.6452">
        <ele>152</ele>
        <time>2010-05-14T13:15:07Z</time>
      </trkpt>
      <trkpt lat="48.62736" lon="1.64518">
        <ele>152</ele>
        <time>2010-05-14T13:15:08Z</time>
      </trkpt>
      <trkpt lat="48.62735" lon="1.64516">
        <ele>152</ele>
        <time>2010-05-14T13:15:09Z</time>
      </trkpt>
      <trkpt lat="48.62734" lon="1.64515">
        <ele>152</ele>
        <time>2010-05-14T13:15:10Z</time>
      </trkpt>
      <trkpt lat="48.62733" lon="1.64513">
        <ele>152</ele>
        <time>2010-05-14T13:15:11Z</time>
      </trkpt>
      <trkpt lat="48.62732" lon="1.64511">
        <ele>152</ele>
        <time>2010-05-14T13:15:12Z</time>
      </trkpt>
      <trkpt lat="48.62731" lon="1.64509">
        <ele>152</ele>
        <time>2010-05-14T13:15:13Z</time>
      </trkpt>
      <trkpt lat="48.6273" lon="1.64507">
        <ele>152</ele>
        <time>2010-05-14T13:15:14Z</time>
      </trkpt>
      <trkpt lat="48.62729" lon="1.64505">
        <ele>152</ele>
        <time>2010-05-14T13:15:15Z</time>
      </trkpt>
      <trkpt lat="48.62728" lon="1.64503">
        <ele>152</ele>
        <time>2010-05-14T13:15:16Z</time>
      </trkpt>
      <trkpt lat="48.62727" lon="1.64502">
        <ele>152</ele>
        <time>2010-05-14T13:15:17Z</time>
      </trkpt>
      <trkpt lat="48.62726" lon="1.645">
        <ele>152</ele>
        <time>2010-05-14T13:15:18Z</time>
      </trkpt>
      <trkpt lat="48.62725" lon="1.64498">
        <ele>152</ele>
        <time>2010-05-14T13:15:19Z</time>
      </trkpt>
      <trkpt lat="48.62724" lon="1.64497">
        <ele>152</ele>
        <time>2010-05-14T13:15:20Z</time>
      </trkpt>
      <trkpt lat="48.62723" lon="1.64495">
        <ele>152</ele>
        <time>2010-05-14T13:15:21Z</time>
      </trkpt>
      <trkpt lat="48.62722" lon="1.64493">
        <ele>152</ele>
        <time>2010-05-14T13:15:22Z</time>
      </trkpt>
      <trkpt lat="48.62721" lon="1.64491">
        <ele>152</ele>
        <time>2010-05-14T13:15:23Z</time>
      </trkpt>
      <trkpt lat="48.6272" lon="1.6449">
        <ele>152</ele>
        <time>2010-05-14T13:15:24Z</time>
      </trkpt>
      <trkpt lat="48.62719" lon="1.64488">
        <ele>152</ele>
        <time>2010-05-14T13:15:25Z</time>
      </trkpt>
      <trkpt lat="48.62718" lon="1.64486">
        <ele>152</ele>
        <time>2010-05-14T13:15:26Z</time>
      </trkpt>
      <trkpt lat="48.62717" lon="1.64484">
        <ele>152</ele>
        <time>2010-05-14T13:15:27Z</time>
      </trkpt>
      <trkpt lat="48.62716" lon="1.64483">
        <ele>152</ele>
        <time>2010-05-14T13:15:28Z</time>
      </trkpt>
      <trkpt lat="48.62715" lon="1.64481">
        <ele>152</ele>
        <time>2010-05-14T13:15:29Z</time>
      </trkpt>
      <trkpt lat="48.62714" lon="1.64479">
        <ele>152</ele>
        <time>2010-05-14T13:15:30Z</time>
      </trkpt>
      <trkpt lat="48.62713" lon="1.64478">
        <ele>152</ele>
        <time>2010-05-14T13:15:31Z</time>
      </trkpt>
      <trkpt lat="48.62711" lon="1.64476">
        <ele>152</ele>
        <time>2010-05-14T13:15:32Z</time>
      </trkpt>
      <trkpt lat="48.6271" lon="1.64474">
        <ele>152</ele>
        <time>2010-05-14T13:15:33Z</time>
      </trkpt>
      <trkpt lat="48.62709" lon="1.64473">
        <ele>152</ele>
        <time>2010-05-14T13:15:34Z</time>
      </trkpt>
      <trkpt lat="48.62708" lon="1.64471">
        <ele>152</ele>
        <time>2010-05-14T13:15:35Z</time>
      </trkpt>
      <trkpt lat="48.62707" lon="1.64469">
        <ele>152</ele>
        <time>2010-05-14T13:15:36Z</time>
      </trkpt>
      <trkpt lat="48.62706" lon="1.64467">
        <ele>152</ele>
        <time>2010-05-14T13:15:37Z</time>
      </trkpt>
      <trkpt lat="48.62705" lon="1.64466">
        <ele>152</ele>
        <time>2010-05-14T13:15:38Z</time>
      </trkpt>
      <trkpt lat="48.62704" lon="1.64464">
        <ele>152</ele>
        <time>2010-05-14T13:15:39Z</time>
      </trkpt>
      <trkpt lat="48.62703" lon="1.64462">
        <ele>152</ele>
        <time>2010-05-14T13:15:40Z</time>
      </trkpt>
      <trkpt lat="48.62701" lon="1.6446">
        <ele>152</ele>
        <time>2010-05-14T13:15:41Z</time>
      </trkpt>
      <trkpt lat="48.627" lon="1.64459">
        <ele>152</ele>
        <time>2010-05-14T13:15:42Z</time>
      </trkpt>
      <trkpt lat="48.62699" lon="1.64457">
        <ele>152</ele>
        <time>2010-05-14T13:15:43Z</time>
      </trkpt>
      <trkpt lat="48.62698" lon="1.64456">
        <ele>152</ele>
        <time>2010-05-14T13:15:44Z</time>
      </trkpt>
      <trkpt lat="48.62697" lon="1.64454">
        <ele>152</ele>
        <time>2010-05-14T13:15:45Z</time>
      </trkpt>
      <trkpt lat="48.62696" lon="1.64453">
        <ele>152</ele>
        <time>2010-05-14T13:15:46Z</time>
      </trkpt>
      <trkpt lat="48.62695" lon="1.64452">
        <ele>152</ele>
        <time>2010-05-14T13:15:47Z</time>
      </trkpt>
      <trkpt lat="48.62694" lon="1.6445">
        <ele>152</ele>
        <time>2010-05-14T13:15:48Z</time>
      </trkpt>
      <trkpt lat="48.62692" lon="1.64448">
        <ele>152</ele>
        <time>2010-05-14T13:15:49Z</time>
      </trkpt>
      <trkpt lat="48.62691" lon="1.64446">
        <ele>152</ele>
        <time>2010-05-14T13:15:50Z</time>
      </trkpt>
      <trkpt lat="48.6269" lon="1.64444">
        <ele>152</ele>
        <time>2010-05-14T13:15:51Z</time>
      </trkpt>
      <trkpt lat="48.62689" lon="1.64443">
        <ele>152</ele>
        <time>2010-05-14T13:15:52Z</time>
      </trkpt>
      <trkpt lat="48.62687" lon="1.6444">
        <ele>152</ele>
        <time>2010-05-14T13:15:54Z</time>
      </trkpt>
      <trkpt lat="48.62686" lon="1.64438">
        <ele>152</ele>
        <time>2010-05-14T13:15:55Z</time>
      </trkpt>
      <trkpt lat="48.62685" lon="1.64436">
        <ele>152</ele>
        <time>2010-05-14T13:15:56Z</time>
      </trkpt>
      <trkpt lat="48.62683" lon="1.64433">
        <ele>152</ele>
        <time>2010-05-14T13:15:58Z</time>
      </trkpt>
      <trkpt lat="48.62682" lon="1.64431">
        <ele>152</ele>
        <time>2010-05-14T13:15:59Z</time>
      </trkpt>
      <trkpt lat="48.62681" lon="1.6443">
        <ele>152</ele>
        <time>2010-05-14T13:16:00Z</time>
      </trkpt>
      <trkpt lat="48.62681" lon="1.64428">
        <ele>152</ele>
        <time>2010-05-14T13:16:01Z</time>
      </trkpt>
      <trkpt lat="48.6268" lon="1.64426">
        <ele>152</ele>
        <time>2010-05-14T13:16:02Z</time>
      </trkpt>
      <trkpt lat="48.62679" lon="1.64424">
        <ele>152</ele>
        <time>2010-05-14T13:16:03Z</time>
      </trkpt>
      <trkpt lat="48.62678" lon="1.64423">
        <ele>152</ele>
        <time>2010-05-14T13:16:04Z</time>
      </trkpt>
      <trkpt lat="48.62677" lon="1.64421">
        <ele>152</ele>
        <time>2010-05-14T13:16:05Z</time>
      </trkpt>
      <trkpt lat="48.62676" lon="1.64419">
        <ele>152</ele>
        <time>2010-05-14T13:16:06Z</time>
      </trkpt>
      <trkpt lat="48.62674" lon="1.64416">
        <ele>152</ele>
        <time>2010-05-14T13:16:08Z</time>
      </trkpt>
      <trkpt lat="48.62673" lon="1.64415">
        <ele>152</ele>
        <time>2010-05-14T13:16:09Z</time>
      </trkpt>
      <trkpt lat="48.62672" lon="1.64413">
        <ele>152</ele>
        <time>2010-05-14T13:16:10Z</time>
      </trkpt>
      <trkpt lat="48.62671" lon="1.64411">
        <ele>152</ele>
        <time>2010-05-14T13:16:11Z</time>
      </trkpt>
      <trkpt lat="48.6267" lon="1.6441">
        <ele>152</ele>
        <time>2010-05-14T13:16:12Z</time>
      </trkpt>
      <trkpt lat="48.62668" lon="1.64408">
        <ele>152</ele>
        <time>2010-05-14T13:16:13Z</time>
      </trkpt>
      <trkpt lat="48.62667" lon="1.64406">
        <ele>152</ele>
        <time>2010-05-14T13:16:14Z</time>
      </trkpt>
      <trkpt lat="48.62666" lon="1.64404">
        <ele>152</ele>
        <time>2010-05-14T13:16:15Z</time>
      </trkpt>
      <trkpt lat="48.62665" lon="1.64403">
        <ele>152</ele>
        <time>2010-05-14T13:16:16Z</time>
      </trkpt>
      <trkpt lat="48.62664" lon="1.64401">
        <ele>152</ele>
        <time>2010-05-14T13:16:17Z</time>
      </trkpt>
      <trkpt lat="48.62663" lon="1.644">
        <ele>152</ele>
        <time>2010-05-14T13:16:18Z</time>
      </trkpt>
      <trkpt lat="48.62662" lon="1.64398">
        <ele>152</ele>
        <time>2010-05-14T13:16:19Z</time>
      </trkpt>
      <trkpt lat="48.6266" lon="1.64397">
        <ele>152</ele>
        <time>2010-05-14T13:16:20Z</time>
      </trkpt>
      <trkpt lat="48.62659" lon="1.64395">
        <ele>152</ele>
        <time>2010-05-14T13:16:21Z</time>
      </trkpt>
      <trkpt lat="48.62658" lon="1.64394">
        <ele>152</ele>
        <time>2010-05-14T13:16:22Z</time>
      </trkpt>
      <trkpt lat="48.62657" lon="1.64392">
        <ele>152</ele>
        <time>2010-05-14T13:16:23Z</time>
      </trkpt>
      <trkpt lat="48.62656" lon="1.64391">
        <ele>152</ele>
        <time>2010-05-14T13:16:24Z</time>
      </trkpt>
      <trkpt lat="48.62655" lon="1.64389">
        <ele>152</ele>
        <time>2010-05-14T13:16:25Z</time>
      </trkpt>
      <trkpt lat="48.62653" lon="1.64387">
        <ele>152</ele>
        <time>2010-05-14T13:16:26Z</time>
      </trkpt>
      <trkpt lat="48.62652" lon="1.64386">
        <ele>152</ele>
        <time>2010-05-14T13:16:27Z</time>
      </trkpt>
      <trkpt lat="48.62651" lon="1.64384">
        <ele>152</ele>
        <time>2010-05-14T13:16:28Z</time>
      </trkpt>
      <trkpt lat="48.6265" lon="1.64382">
        <ele>152</ele>
        <time>2010-05-14T13:16:29Z</time>
      </trkpt>
      <trkpt lat="48.62649" lon="1.6438">
        <ele>152</ele>
        <time>2010-05-14T13:16:30Z</time>
      </trkpt>
      <trkpt lat="48.62648" lon="1.64379">
        <ele>152</ele>
        <time>2010-05-14T13:16:31Z</time>
      </trkpt>
      <trkpt lat="48.62647" lon="1.64377">
        <ele>152</ele>
        <time>2010-05-14T13:16:32Z</time>
      </trkpt>
      <trkpt lat="48.62646" lon="1.64376">
        <ele>152</ele>
        <time>2010-05-14T13:16:33Z</time>
      </trkpt>
      <trkpt lat="48.62643" lon="1.64372">
        <ele>152</ele>
        <time>2010-05-14T13:16:35Z</time>
      </trkpt>
      <trkpt lat="48.62642" lon="1.64371">
        <ele>152</ele>
        <time>2010-05-14T13:16:36Z</time>
      </trkpt>
      <trkpt lat="48.62641" lon="1.64369">
        <ele>152</ele>
        <time>2010-05-14T13:16:37Z</time>
      </trkpt>
      <trkpt lat="48.6264" lon="1.64367">
        <ele>152</ele>
        <time>2010-05-14T13:16:38Z</time>
      </trkpt>
      <trkpt lat="48.62639" lon="1.64366">
        <ele>152</ele>
        <time>2010-05-14T13:16:39Z</time>
      </trkpt>
      <trkpt lat="48.62638" lon="1.64364">
        <ele>152</ele>
        <time>2010-05-14T13:16:40Z</time>
      </trkpt>
      <trkpt lat="48.62636" lon="1.64363">
        <ele>152</ele>
        <time>2010-05-14T13:16:41Z</time>
      </trkpt>
      <trkpt lat="48.62635" lon="1.64361">
        <ele>152</ele>
        <time>2010-05-14T13:16:42Z</time>
      </trkpt>
      <trkpt lat="48.62633" lon="1.64358">
        <ele>152</ele>
        <time>2010-05-14T13:16:44Z</time>
      </trkpt>
      <trkpt lat="48.62632" lon="1.64357">
        <ele>152</ele>
        <time>2010-05-14T13:16:45Z</time>
      </trkpt>
      <trkpt lat="48.62631" lon="1.64355">
        <ele>152</ele>
        <time>2010-05-14T13:16:46Z</time>
      </trkpt>
      <trkpt lat="48.6263" lon="1.64353">
        <ele>152</ele>
        <time>2010-05-14T13:16:47Z</time>
      </trkpt>
      <trkpt lat="48.62629" lon="1.64352">
        <ele>152</ele>
        <time>2010-05-14T13:16:48Z</time>
      </trkpt>
      <trkpt lat="48.62627" lon="1.64349">
        <ele>152</ele>
        <time>2010-05-14T13:16:50Z</time>
      </trkpt>
      <trkpt lat="48.62626" lon="1.64347">
        <ele>152</ele>
        <time>2010-05-14T13:16:51Z</time>
      </trkpt>
      <trkpt lat="48.62625" lon="1.64345">
        <ele>152</ele>
        <time>2010-05-14T13:16:52Z</time>
      </trkpt>
      <trkpt lat="48.62624" lon="1.64344">
        <ele>152</ele>
        <time>2010-05-14T13:16:53Z</time>
      </trkpt>
      <trkpt lat="48.62623" lon="1.64342">
        <ele>152</ele>
        <time>2010-05-14T13:16:54Z</time>
      </trkpt>
      <trkpt lat="48.62621" lon="1.64339">
        <ele>152</ele>
        <time>2010-05-14T13:16:56Z</time>
      </trkpt>
      <trkpt lat="48.62619" lon="1.64337">
        <ele>152</ele>
        <time>2010-05-14T13:16:58Z</time>
      </trkpt>
      <trkpt lat="48.62617" lon="1.64334">
        <ele>152</ele>
        <time>2010-05-14T13:17:00Z</time>
      </trkpt>
      <trkpt lat="48.62616" lon="1.64332">
        <ele>152</ele>
        <time>2010-05-14T13:17:01Z</time>
      </trkpt>
      <trkpt lat="48.62614" lon="1.64329">
        <ele>152</ele>
        <time>2010-05-14T13:17:03Z</time>
      </trkpt>
      <trkpt lat="48.62612" lon="1.64326">
        <ele>152</ele>
        <time>2010-05-14T13:17:05Z</time>
      </trkpt>
      <trkpt lat="48.6261" lon="1.64323">
        <ele>152</ele>
        <time>2010-05-14T13:17:07Z</time>
      </trkpt>
      <trkpt lat="48.62609" lon="1.64321">
        <ele>152</ele>
        <time>2010-05-14T13:17:08Z</time>
      </trkpt>
      <trkpt lat="48.62608" lon="1.64319">
        <ele>152</ele>
        <time>2010-05-14T13:17:09Z</time>
      </trkpt>
      <trkpt lat="48.62607" lon="1.64318">
        <ele>152</ele>
        <time>2010-05-14T13:17:10Z</time>
      </trkpt>
      <trkpt lat="48.62605" lon="1.64315">
        <ele>152</ele>
        <time>2010-05-14T13:17:12Z</time>
      </trkpt>
      <trkpt lat="48.62603" lon="1.64313">
        <ele>152</ele>
        <time>2010-05-14T13:17:13Z</time>
      </trkpt>
      <trkpt lat="48.62602" lon="1.64311">
        <ele>152</ele>
        <time>2010-05-14T13:17:14Z</time>
      </trkpt>
      <trkpt lat="48.62601" lon="1.6431">
        <ele>152</ele>
        <time>2010-05-14T13:17:15Z</time>
      </trkpt>
      <trkpt lat="48.62599" lon="1.64306">
        <ele>152</ele>
        <time>2010-05-14T13:17:17Z</time>
      </trkpt>
      <trkpt lat="48.62598" lon="1.64305">
        <ele>152</ele>
        <time>2010-05-14T13:17:18Z</time>
      </trkpt>
      <trkpt lat="48.62597" lon="1.64303">
        <ele>152</ele>
        <time>2010-05-14T13:17:19Z</time>
      </trkpt>
      <trkpt lat="48.62596" lon="1.64301">
        <ele>152</ele>
        <time>2010-05-14T13:17:20Z</time>
      </trkpt>
      <trkpt lat="48.62595" lon="1.643">
        <ele>152</ele>
        <time>2010-05-14T13:17:21Z</time>
      </trkpt>
      <trkpt lat="48.62594" lon="1.64298">
        <ele>152</ele>
        <time>2010-05-14T13:17:22Z</time>
      </trkpt>
      <trkpt lat="48.62592" lon="1.64295">
        <ele>152</ele>
        <time>2010-05-14T13:17:24Z</time>
      </trkpt>
      <trkpt lat="48.62591" lon="1.64293">
        <ele>152</ele>
        <time>2010-05-14T13:17:25Z</time>
      </trkpt>
      <trkpt lat="48.6259" lon="1.64292">
        <ele>152</ele>
        <time>2010-05-14T13:17:26Z</time>
      </trkpt>
      <trkpt lat="48.62589" lon="1.6429">
        <ele>152</ele>
        <time>2010-05-14T13:17:27Z</time>
      </trkpt>
      <trkpt lat="48.62588" lon="1.64289">
        <ele>152</ele>
        <time>2010-05-14T13:17:28Z</time>
      </trkpt>
      <trkpt lat="48.62586" lon="1.64285">
        <ele>152</ele>
        <time>2010-05-14T13:17:30Z</time>
      </trkpt>
      <trkpt lat="48.62585" lon="1.64284">
        <ele>152</ele>
        <time>2010-05-14T13:17:31Z</time>
      </trkpt>
      <trkpt lat="48.62584" lon="1.64282">
        <ele>152</ele>
        <time>2010-05-14T13:17:32Z</time>
      </trkpt>
      <trkpt lat="48.62583" lon="1.6428">
        <ele>152</ele>
        <time>2010-05-14T13:17:33Z</time>
      </trkpt>
      <trkpt lat="48.62582" lon="1.64279">
        <ele>152</ele>
        <time>2010-05-14T13:17:34Z</time>
      </trkpt>
      <trkpt lat="48.62581" lon="1.64277">
        <ele>152</ele>
        <time>2010-05-14T13:17:35Z</time>
      </trkpt>
      <trkpt lat="48.6258" lon="1.64275">
        <ele>152</ele>
        <time>2010-05-14T13:17:36Z</time>
      </trkpt>
      <trkpt lat="48.62578" lon="1.64273">
        <ele>152</ele>
        <time>2010-05-14T13:17:37Z</time>
      </trkpt>
      <trkpt lat="48.62577" lon="1.64272">
        <ele>152</ele>
        <time>2010-05-14T13:17:38Z</time>
      </trkpt>
      <trkpt lat="48.62576" lon="1.6427">
        <ele>152</ele>
        <time>2010-05-14T13:17:39Z</time>
      </trkpt>
      <trkpt lat="48.62575" lon="1.64268">
        <ele>152</ele>
        <time>2010-05-14T13:17:40Z</time>
      </trkpt>
      <trkpt lat="48.62574" lon="1.64266">
        <ele>152</ele>
        <time>2010-05-14T13:17:41Z</time>
      </trkpt>
      <trkpt lat="48.62573" lon="1.64265">
        <ele>152</ele>
        <time>2010-05-14T13:17:42Z</time>
      </trkpt>
      <trkpt lat="48.62572" lon="1.64263">
        <ele>152</ele>
        <time>2010-05-14T13:17:43Z</time>
      </trkpt>
      <trkpt lat="48.62571" lon="1.64261">
        <ele>152</ele>
        <time>2010-05-14T13:17:44Z</time>
      </trkpt>
      <trkpt lat="48.62569" lon="1.64259">
        <ele>152</ele>
        <time>2010-05-14T13:17:45Z</time>
      </trkpt>
      <trkpt lat="48.62568" lon="1.64258">
        <ele>152</ele>
        <time>2010-05-14T13:17:46Z</time>
      </trkpt>
      <trkpt lat="48.62567" lon="1.64256">
        <ele>152</ele>
        <time>2010-05-14T13:17:47Z</time>
      </trkpt>
      <trkpt lat="48.62565" lon="1.64253">
        <ele>152</ele>
        <time>2010-05-14T13:17:49Z</time>
      </trkpt>
      <trkpt lat="48.62563" lon="1.6425">
        <ele>152</ele>
        <time>2010-05-14T13:17:51Z</time>
      </trkpt>
      <trkpt lat="48.62562" lon="1.64249">
        <ele>152</ele>
        <time>2010-05-14T13:17:52Z</time>
      </trkpt>
      <trkpt lat="48.62561" lon="1.64247">
        <ele>152</ele>
        <time>2010-05-14T13:17:53Z</time>
      </trkpt>
      <trkpt lat="48.6256" lon="1.64244">
        <ele>152</ele>
        <time>2010-05-14T13:17:54Z</time>
      </trkpt>
      <trkpt lat="48.62559" lon="1.64242">
        <ele>152</ele>
        <time>2010-05-14T13:17:55Z</time>
      </trkpt>
      <trkpt lat="48.62557" lon="1.64239">
        <ele>152</ele>
        <time>2010-05-14T13:17:57Z</time>
      </trkpt>
      <trkpt lat="48.62556" lon="1.64238">
        <ele>152</ele>
        <time>2010-05-14T13:17:58Z</time>
      </trkpt>
      <trkpt lat="48.62554" lon="1.64235">
        <ele>152</ele>
        <time>2010-05-14T13:18:00Z</time>
      </trkpt>
      <trkpt lat="48.62552" lon="1.64233">
        <ele>152</ele>
        <time>2010-05-14T13:18:02Z</time>
      </trkpt>
      <trkpt lat="48.6255" lon="1.64231">
        <ele>152</ele>
        <time>2010-05-14T13:18:04Z</time>
      </trkpt>
      <trkpt lat="48.62548" lon="1.64228">
        <ele>152</ele>
        <time>2010-05-14T13:18:06Z</time>
      </trkpt>
      <trkpt lat="48.62546" lon="1.64225">
        <ele>152</ele>
        <time>2010-05-14T13:18:08Z</time>
      </trkpt>
      <trkpt lat="48.62544" lon="1.64223">
        <ele>152</ele>
        <time>2010-05-14T13:18:09Z</time>
      </trkpt>
      <trkpt lat="48.62542" lon="1.6422">
        <ele>152</ele>
        <time>2010-05-14T13:18:10Z</time>
      </trkpt>
      <trkpt lat="48.62541" lon="1.64218">
        <ele>152</ele>
        <time>2010-05-14T13:18:11Z</time>
      </trkpt>
      <trkpt lat="48.62539" lon="1.64217">
        <ele>152</ele>
        <time>2010-05-14T13:18:12Z</time>
      </trkpt>
      <trkpt lat="48.62538" lon="1.64214">
        <ele>152</ele>
        <time>2010-05-14T13:18:13Z</time>
      </trkpt>
      <trkpt lat="48.62537" lon="1.64213">
        <ele>152</ele>
        <time>2010-05-14T13:18:14Z</time>
      </trkpt>
      <trkpt lat="48.62535" lon="1.64211">
        <ele>152</ele>
        <time>2010-05-14T13:18:15Z</time>
      </trkpt>
      <trkpt lat="48.62534" lon="1.6421">
        <ele>152</ele>
        <time>2010-05-14T13:18:16Z</time>
      </trkpt>
      <trkpt lat="48.62532" lon="1.64208">
        <ele>152</ele>
        <time>2010-05-14T13:18:17Z</time>
      </trkpt>
      <trkpt lat="48.62531" lon="1.64207">
        <ele>152</ele>
        <time>2010-05-14T13:18:18Z</time>
      </trkpt>
      <trkpt lat="48.6253" lon="1.64206">
        <ele>153</ele>
        <time>2010-05-14T13:18:19Z</time>
      </trkpt>
      <trkpt lat="48.62528" lon="1.64205">
        <ele>153</ele>
        <time>2010-05-14T13:18:20Z</time>
      </trkpt>
      <trkpt lat="48.62527" lon="1.64204">
        <ele>153</ele>
        <time>2010-05-14T13:18:21Z</time>
      </trkpt>
      <trkpt lat="48.62526" lon="1.64203">
        <ele>153</ele>
        <time>2010-05-14T13:18:22Z</time>
      </trkpt>
      <trkpt lat="48.62525" lon="1.64202">
        <ele>153</ele>
        <time>2010-05-14T13:18:23Z</time>
      </trkpt>
      <trkpt lat="48.62524" lon="1.64201">
        <ele>153</ele>
        <time>2010-05-14T13:18:24Z</time>
      </trkpt>
      <trkpt lat="48.62523" lon="1.64201">
        <ele>153</ele>
        <time>2010-05-14T13:18:25Z</time>
      </trkpt>
      <trkpt lat="48.62521" lon="1.642">
        <ele>153</ele>
        <time>2010-05-14T13:18:26Z</time>
      </trkpt>
      <trkpt lat="48.6252" lon="1.64198">
        <ele>153</ele>
        <time>2010-05-14T13:18:27Z</time>
      </trkpt>
      <trkpt lat="48.62518" lon="1.64196">
        <ele>153</ele>
        <time>2010-05-14T13:18:28Z</time>
      </trkpt>
      <trkpt lat="48.62517" lon="1.64195">
        <ele>153</ele>
        <time>2010-05-14T13:18:29Z</time>
      </trkpt>
      <trkpt lat="48.62515" lon="1.64193">
        <ele>153</ele>
        <time>2010-05-14T13:18:30Z</time>
      </trkpt>
      <trkpt lat="48.62514" lon="1.64192">
        <ele>153</ele>
        <time>2010-05-14T13:18:31Z</time>
      </trkpt>
      <trkpt lat="48.62512" lon="1.6419">
        <ele>154</ele>
        <time>2010-05-14T13:18:32Z</time>
      </trkpt>
      <trkpt lat="48.62511" lon="1.64189">
        <ele>154</ele>
        <time>2010-05-14T13:18:33Z</time>
      </trkpt>
      <trkpt lat="48.62509" lon="1.64187">
        <ele>155</ele>
        <time>2010-05-14T13:18:34Z</time>
      </trkpt>
      <trkpt lat="48.62508" lon="1.64186">
        <ele>155</ele>
        <time>2010-05-14T13:18:35Z</time>
      </trkpt>
      <trkpt lat="48.62506" lon="1.64185">
        <ele>155</ele>
        <time>2010-05-14T13:18:36Z</time>
      </trkpt>
      <trkpt lat="48.62505" lon="1.64184">
        <ele>155</ele>
        <time>2010-05-14T13:18:37Z</time>
      </trkpt>
      <trkpt lat="48.62504" lon="1.64184">
        <ele>156</ele>
        <time>2010-05-14T13:18:38Z</time>
      </trkpt>
      <trkpt lat="48.62502" lon="1.64183">
        <ele>156</ele>
        <time>2010-05-14T13:18:39Z</time>
      </trkpt>
      <trkpt lat="48.62501" lon="1.64182">
        <ele>156</ele>
        <time>2010-05-14T13:18:40Z</time>
      </trkpt>
      <trkpt lat="48.625" lon="1.64181">
        <ele>156</ele>
        <time>2010-05-14T13:18:41Z</time>
      </trkpt>
      <trkpt lat="48.62498" lon="1.6418">
        <ele>156</ele>
        <time>2010-05-14T13:18:42Z</time>
      </trkpt>
      <trkpt lat="48.62497" lon="1.6418">
        <ele>156</ele>
        <time>2010-05-14T13:18:43Z</time>
      </trkpt>
      <trkpt lat="48.62496" lon="1.64179">
        <ele>157</ele>
        <time>2010-05-14T13:18:44Z</time>
      </trkpt>
      <trkpt lat="48.62494" lon="1.64178">
        <ele>157</ele>
        <time>2010-05-14T13:18:46Z</time>
      </trkpt>
      <trkpt lat="48.62493" lon="1.64177">
        <ele>157</ele>
        <time>2010-05-14T13:18:47Z</time>
      </trkpt>
      <trkpt lat="48.62492" lon="1.64177">
        <ele>157</ele>
        <time>2010-05-14T13:18:48Z</time>
      </trkpt>
      <trkpt lat="48.6249" lon="1.64176">
        <ele>157</ele>
        <time>2010-05-14T13:18:49Z</time>
      </trkpt>
      <trkpt lat="48.62489" lon="1.64175">
        <ele>157</ele>
        <time>2010-05-14T13:18:50Z</time>
      </trkpt>
      <trkpt lat="48.62488" lon="1.64174">
        <ele>157</ele>
        <time>2010-05-14T13:18:51Z</time>
      </trkpt>
      <trkpt lat="48.62486" lon="1.64173">
        <ele>157</ele>
        <time>2010-05-14T13:18:52Z</time>
      </trkpt>
      <trkpt lat="48.62485" lon="1.64172">
        <ele>157</ele>
        <time>2010-05-14T13:18:53Z</time>
      </trkpt>
      <trkpt lat="48.62482" lon="1.64171">
        <ele>157</ele>
        <time>2010-05-14T13:18:55Z</time>
      </trkpt>
      <trkpt lat="48.62481" lon="1.6417">
        <ele>157</ele>
        <time>2010-05-14T13:18:56Z</time>
      </trkpt>
      <trkpt lat="48.6248" lon="1.64169">
        <ele>157</ele>
        <time>2010-05-14T13:18:57Z</time>
      </trkpt>
      <trkpt lat="48.62479" lon="1.64168">
        <ele>157</ele>
        <time>2010-05-14T13:18:58Z</time>
      </trkpt>
      <trkpt lat="48.62477" lon="1.64167">
        <ele>157</ele>
        <time>2010-05-14T13:18:59Z</time>
      </trkpt>
      <trkpt lat="48.62476" lon="1.64165">
        <ele>157</ele>
        <time>2010-05-14T13:19:00Z</time>
      </trkpt>
      <trkpt lat="48.62475" lon="1.64163">
        <ele>157</ele>
        <time>2010-05-14T13:19:01Z</time>
      </trkpt>
      <trkpt lat="48.62472" lon="1.64161">
        <ele>157</ele>
        <time>2010-05-14T13:19:03Z</time>
      </trkpt>
      <trkpt lat="48.62471" lon="1.6416">
        <ele>157</ele>
        <time>2010-05-14T13:19:04Z</time>
      </trkpt>
      <trkpt lat="48.6247" lon="1.64159">
        <ele>157</ele>
        <time>2010-05-14T13:19:05Z</time>
      </trkpt>
      <trkpt lat="48.62469" lon="1.64158">
        <ele>157</ele>
        <time>2010-05-14T13:19:06Z</time>
      </trkpt>
      <trkpt lat="48.62468" lon="1.64157">
        <ele>157</ele>
        <time>2010-05-14T13:19:07Z</time>
      </trkpt>
      <trkpt lat="48.62466" lon="1.64156">
        <ele>157</ele>
        <time>2010-05-14T13:19:08Z</time>
      </trkpt>
      <trkpt lat="48.62465" lon="1.64155">
        <ele>157</ele>
        <time>2010-05-14T13:19:09Z</time>
      </trkpt>
      <trkpt lat="48.62463" lon="1.64153">
        <ele>157</ele>
        <time>2010-05-14T13:19:10Z</time>
      </trkpt>
      <trkpt lat="48.62462" lon="1.64152">
        <ele>157</ele>
        <time>2010-05-14T13:19:11Z</time>
      </trkpt>
      <trkpt lat="48.6246" lon="1.6415">
        <ele>157</ele>
        <time>2010-05-14T13:19:12Z</time>
      </trkpt>
      <trkpt lat="48.62458" lon="1.64147">
        <ele>157</ele>
        <time>2010-05-14T13:19:14Z</time>
      </trkpt>
      <trkpt lat="48.62457" lon="1.64146">
        <ele>157</ele>
        <time>2010-05-14T13:19:15Z</time>
      </trkpt>
      <trkpt lat="48.62455" lon="1.64145">
        <ele>157</ele>
        <time>2010-05-14T13:19:16Z</time>
      </trkpt>
      <trkpt lat="48.62453" lon="1.64143">
        <ele>157</ele>
        <time>2010-05-14T13:19:18Z</time>
      </trkpt>
      <trkpt lat="48.62451" lon="1.64141">
        <ele>157</ele>
        <time>2010-05-14T13:19:20Z</time>
      </trkpt>
      <trkpt lat="48.62449" lon="1.64139">
        <ele>157</ele>
        <time>2010-05-14T13:19:22Z</time>
      </trkpt>
      <trkpt lat="48.62448" lon="1.64138">
        <ele>157</ele>
        <time>2010-05-14T13:19:23Z</time>
      </trkpt>
      <trkpt lat="48.62446" lon="1.64137">
        <ele>157</ele>
        <time>2010-05-14T13:19:24Z</time>
      </trkpt>
      <trkpt lat="48.62445" lon="1.64136">
        <ele>157</ele>
        <time>2010-05-14T13:19:25Z</time>
      </trkpt>
      <trkpt lat="48.62444" lon="1.64135">
        <ele>157</ele>
        <time>2010-05-14T13:19:26Z</time>
      </trkpt>
      <trkpt lat="48.62442" lon="1.64134">
        <ele>157</ele>
        <time>2010-05-14T13:19:27Z</time>
      </trkpt>
      <trkpt lat="48.62441" lon="1.64133">
        <ele>157</ele>
        <time>2010-05-14T13:19:28Z</time>
      </trkpt>
      <trkpt lat="48.6244" lon="1.64132">
        <ele>157</ele>
        <time>2010-05-14T13:19:29Z</time>
      </trkpt>
      <trkpt lat="48.62438" lon="1.64131">
        <ele>157</ele>
        <time>2010-05-14T13:19:30Z</time>
      </trkpt>
      <trkpt lat="48.62437" lon="1.6413">
        <ele>157</ele>
        <time>2010-05-14T13:19:31Z</time>
      </trkpt>
      <trkpt lat="48.62435" lon="1.64129">
        <ele>157</ele>
        <time>2010-05-14T13:19:32Z</time>
      </trkpt>
      <trkpt lat="48.62434" lon="1.64128">
        <ele>157</ele>
        <time>2010-05-14T13:19:33Z</time>
      </trkpt>
      <trkpt lat="48.62432" lon="1.64127">
        <ele>157</ele>
        <time>2010-05-14T13:19:34Z</time>
      </trkpt>
      <trkpt lat="48.62431" lon="1.64125">
        <ele>157</ele>
        <time>2010-05-14T13:19:35Z</time>
      </trkpt>
      <trkpt lat="48.6243" lon="1.64124">
        <ele>157</ele>
        <time>2010-05-14T13:19:36Z</time>
      </trkpt>
      <trkpt lat="48.62429" lon="1.64122">
        <ele>157</ele>
        <time>2010-05-14T13:19:37Z</time>
      </trkpt>
      <trkpt lat="48.62427" lon="1.64121">
        <ele>157</ele>
        <time>2010-05-14T13:19:38Z</time>
      </trkpt>
      <trkpt lat="48.62426" lon="1.6412">
        <ele>157</ele>
        <time>2010-05-14T13:19:39Z</time>
      </trkpt>
      <trkpt lat="48.62425" lon="1.64118">
        <ele>157</ele>
        <time>2010-05-14T13:19:40Z</time>
      </trkpt>
      <trkpt lat="48.62424" lon="1.64117">
        <ele>156</ele>
        <time>2010-05-14T13:19:41Z</time>
      </trkpt>
      <trkpt lat="48.62423" lon="1.64116">
        <ele>156</ele>
        <time>2010-05-14T13:19:42Z</time>
      </trkpt>
      <trkpt lat="48.62421" lon="1.64114">
        <ele>156</ele>
        <time>2010-05-14T13:19:43Z</time>
      </trkpt>
      <trkpt lat="48.6242" lon="1.64113">
        <ele>156</ele>
        <time>2010-05-14T13:19:44Z</time>
      </trkpt>
      <trkpt lat="48.62419" lon="1.64112">
        <ele>155</ele>
        <time>2010-05-14T13:19:45Z</time>
      </trkpt>
      <trkpt lat="48.62417" lon="1.6411">
        <ele>155</ele>
        <time>2010-05-14T13:19:46Z</time>
      </trkpt>
      <trkpt lat="48.62416" lon="1.64109">
        <ele>155</ele>
        <time>2010-05-14T13:19:47Z</time>
      </trkpt>
      <trkpt lat="48.62415" lon="1.64108">
        <ele>155</ele>
        <time>2010-05-14T13:19:48Z</time>
      </trkpt>
      <trkpt lat="48.62413" lon="1.64106">
        <ele>155</ele>
        <time>2010-05-14T13:19:49Z</time>
      </trkpt>
      <trkpt lat="48.62412" lon="1.64105">
        <ele>154</ele>
        <time>2010-05-14T13:19:50Z</time>
      </trkpt>
      <trkpt lat="48.62411" lon="1.64104">
        <ele>154</ele>
        <time>2010-05-14T13:19:51Z</time>
      </trkpt>
      <trkpt lat="48.62409" lon="1.64103">
        <ele>154</ele>
        <time>2010-05-14T13:19:52Z</time>
      </trkpt>
      <trkpt lat="48.62408" lon="1.64101">
        <ele>154</ele>
        <time>2010-05-14T13:19:53Z</time>
      </trkpt>
      <trkpt lat="48.62406" lon="1.641">
        <ele>154</ele>
        <time>2010-05-14T13:19:54Z</time>
      </trkpt>
      <trkpt lat="48.62405" lon="1.64099">
        <ele>153</ele>
        <time>2010-05-14T13:19:55Z</time>
      </trkpt>
      <trkpt lat="48.62404" lon="1.64098">
        <ele>153</ele>
        <time>2010-05-14T13:19:56Z</time>
      </trkpt>
      <trkpt lat="48.62402" lon="1.64096">
        <ele>153</ele>
        <time>2010-05-14T13:19:57Z</time>
      </trkpt>
      <trkpt lat="48.62401" lon="1.64095">
        <ele>153</ele>
        <time>2010-05-14T13:19:58Z</time>
      </trkpt>
      <trkpt lat="48.624" lon="1.64094">
        <ele>153</ele>
        <time>2010-05-14T13:19:59Z</time>
      </trkpt>
      <trkpt lat="48.62398" lon="1.64092">
        <ele>153</ele>
        <time>2010-05-14T13:20:00Z</time>
      </trkpt>
      <trkpt lat="48.62397" lon="1.64091">
        <ele>153</ele>
        <time>2010-05-14T13:20:01Z</time>
      </trkpt>
      <trkpt lat="48.62396" lon="1.6409">
        <ele>152</ele>
        <time>2010-05-14T13:20:02Z</time>
      </trkpt>
      <trkpt lat="48.62394" lon="1.64088">
        <ele>152</ele>
        <time>2010-05-14T13:20:03Z</time>
      </trkpt>
      <trkpt lat="48.62393" lon="1.64087">
        <ele>152</ele>
        <time>2010-05-14T13:20:04Z</time>
      </trkpt>
      <trkpt lat="48.62391" lon="1.64086">
        <ele>152</ele>
        <time>2010-05-14T13:20:05Z</time>
      </trkpt>
      <trkpt lat="48.6239" lon="1.64084">
        <ele>152</ele>
        <time>2010-05-14T13:20:06Z</time>
      </trkpt>
      <trkpt lat="48.62388" lon="1.64083">
        <ele>152</ele>
        <time>2010-05-14T13:20:07Z</time>
      </trkpt>
      <trkpt lat="48.62387" lon="1.64082">
        <ele>152</ele>
        <time>2010-05-14T13:20:08Z</time>
      </trkpt>
      <trkpt lat="48.62386" lon="1.64081">
        <ele>152</ele>
        <time>2010-05-14T13:20:09Z</time>
      </trkpt>
      <trkpt lat="48.62384" lon="1.64079">
        <ele>152</ele>
        <time>2010-05-14T13:20:10Z</time>
      </trkpt>
      <trkpt lat="48.62383" lon="1.64078">
        <ele>152</ele>
        <time>2010-05-14T13:20:11Z</time>
      </trkpt>
      <trkpt lat="48.62381" lon="1.64077">
        <ele>152</ele>
        <time>2010-05-14T13:20:12Z</time>
      </trkpt>
      <trkpt lat="48.6238" lon="1.64075">
        <ele>152</ele>
        <time>2010-05-14T13:20:13Z</time>
      </trkpt>
      <trkpt lat="48.62378" lon="1.64074">
        <ele>152</ele>
        <time>2010-05-14T13:20:14Z</time>
      </trkpt>
      <trkpt lat="48.62377" lon="1.64072">
        <ele>152</ele>
        <time>2010-05-14T13:20:15Z</time>
      </trkpt>
      <trkpt lat="48.62375" lon="1.6407">
        <ele>152</ele>
        <time>2010-05-14T13:20:16Z</time>
      </trkpt>
      <trkpt lat="48.62373" lon="1.64068">
        <ele>152</ele>
        <time>2010-05-14T13:20:17Z</time>
      </trkpt>
      <trkpt lat="48.62372" lon="1.64067">
        <ele>152</ele>
        <time>2010-05-14T13:20:18Z</time>
      </trkpt>
      <trkpt lat="48.6237" lon="1.64066">
        <ele>152</ele>
        <time>2010-05-14T13:20:19Z</time>
      </trkpt>
      <trkpt lat="48.62369" lon="1.64065">
        <ele>152</ele>
        <time>2010-05-14T13:20:20Z</time>
      </trkpt>
      <trkpt lat="48.62367" lon="1.64064">
        <ele>151</ele>
        <time>2010-05-14T13:20:21Z</time>
      </trkpt>
      <trkpt lat="48.62366" lon="1.64062">
        <ele>151</ele>
        <time>2010-05-14T13:20:22Z</time>
      </trkpt>
      <trkpt lat="48.62365" lon="1.64061">
        <ele>151</ele>
        <time>2010-05-14T13:20:23Z</time>
      </trkpt>
      <trkpt lat="48.62363" lon="1.6406">
        <ele>151</ele>
        <time>2010-05-14T13:20:24Z</time>
      </trkpt>
      <trkpt lat="48.62362" lon="1.64058">
        <ele>151</ele>
        <time>2010-05-14T13:20:25Z</time>
      </trkpt>
      <trkpt lat="48.62361" lon="1.64057">
        <ele>151</ele>
        <time>2010-05-14T13:20:26Z</time>
      </trkpt>
      <trkpt lat="48.62359" lon="1.64055">
        <ele>151</ele>
        <time>2010-05-14T13:20:27Z</time>
      </trkpt>
      <trkpt lat="48.62358" lon="1.64054">
        <ele>151</ele>
        <time>2010-05-14T13:20:28Z</time>
      </trkpt>
      <trkpt lat="48.62356" lon="1.64053">
        <ele>151</ele>
        <time>2010-05-14T13:20:29Z</time>
      </trkpt>
      <trkpt lat="48.62355" lon="1.64052">
        <ele>151</ele>
        <time>2010-05-14T13:20:30Z</time>
      </trkpt>
      <trkpt lat="48.62354" lon="1.6405">
        <ele>150</ele>
        <time>2010-05-14T13:20:31Z</time>
      </trkpt>
      <trkpt lat="48.62352" lon="1.64049">
        <ele>150</ele>
        <time>2010-05-14T13:20:32Z</time>
      </trkpt>
      <trkpt lat="48.62351" lon="1.64048">
        <ele>150</ele>
        <time>2010-05-14T13:20:33Z</time>
      </trkpt>
      <trkpt lat="48.62349" lon="1.64046">
        <ele>150</ele>
        <time>2010-05-14T13:20:34Z</time>
      </trkpt>
      <trkpt lat="48.62348" lon="1.64045">
        <ele>150</ele>
        <time>2010-05-14T13:20:35Z</time>
      </trkpt>
      <trkpt lat="48.62346" lon="1.64044">
        <ele>150</ele>
        <time>2010-05-14T13:20:36Z</time>
      </trkpt>
      <trkpt lat="48.62345" lon="1.64042">
        <ele>150</ele>
        <time>2010-05-14T13:20:37Z</time>
      </trkpt>
      <trkpt lat="48.62344" lon="1.64041">
        <ele>150</ele>
        <time>2010-05-14T13:20:38Z</time>
      </trkpt>
      <trkpt lat="48.62342" lon="1.6404">
        <ele>150</ele>
        <time>2010-05-14T13:20:39Z</time>
      </trkpt>
      <trkpt lat="48.62341" lon="1.64038">
        <ele>150</ele>
        <time>2010-05-14T13:20:40Z</time>
      </trkpt>
      <trkpt lat="48.62339" lon="1.64037">
        <ele>150</ele>
        <time>2010-05-14T13:20:41Z</time>
      </trkpt>
      <trkpt lat="48.62338" lon="1.64035">
        <ele>150</ele>
        <time>2010-05-14T13:20:42Z</time>
      </trkpt>
      <trkpt lat="48.62336" lon="1.64034">
        <ele>150</ele>
        <time>2010-05-14T13:20:43Z</time>
      </trkpt>
      <trkpt lat="48.62335" lon="1.64033">
        <ele>150</ele>
        <time>2010-05-14T13:20:44Z</time>
      </trkpt>
      <trkpt lat="48.62333" lon="1.64032">
        <ele>150</ele>
        <time>2010-05-14T13:20:45Z</time>
      </trkpt>
      <trkpt lat="48.62332" lon="1.64031">
        <ele>150</ele>
        <time>2010-05-14T13:20:46Z</time>
      </trkpt>
      <trkpt lat="48.6233" lon="1.64029">
        <ele>150</ele>
        <time>2010-05-14T13:20:47Z</time>
      </trkpt>
      <trkpt lat="48.62329" lon="1.64028">
        <ele>149</ele>
        <time>2010-05-14T13:20:48Z</time>
      </trkpt>
      <trkpt lat="48.62327" lon="1.64027">
        <ele>149</ele>
        <time>2010-05-14T13:20:49Z</time>
      </trkpt>
      <trkpt lat="48.62326" lon="1.64026">
        <ele>149</ele>
        <time>2010-05-14T13:20:50Z</time>
      </trkpt>
      <trkpt lat="48.62324" lon="1.64024">
        <ele>149</ele>
        <time>2010-05-14T13:20:51Z</time>
      </trkpt>
      <trkpt lat="48.62323" lon="1.64023">
        <ele>149</ele>
        <time>2010-05-14T13:20:52Z</time>
      </trkpt>
      <trkpt lat="48.62322" lon="1.64022">
        <ele>149</ele>
        <time>2010-05-14T13:20:53Z</time>
      </trkpt>
      <trkpt lat="48.6232" lon="1.64021">
        <ele>149</ele>
        <time>2010-05-14T13:20:54Z</time>
      </trkpt>
      <trkpt lat="48.62319" lon="1.64019">
        <ele>149</ele>
        <time>2010-05-14T13:20:55Z</time>
      </trkpt>
      <trkpt lat="48.62317" lon="1.64018">
        <ele>149</ele>
        <time>2010-05-14T13:20:56Z</time>
      </trkpt>
      <trkpt lat="48.62316" lon="1.64017">
        <ele>149</ele>
        <time>2010-05-14T13:20:57Z</time>
      </trkpt>
      <trkpt lat="48.62315" lon="1.64016">
        <ele>149</ele>
        <time>2010-05-14T13:20:58Z</time>
      </trkpt>
      <trkpt lat="48.62313" lon="1.64014">
        <ele>149</ele>
        <time>2010-05-14T13:20:59Z</time>
      </trkpt>
      <trkpt lat="48.62312" lon="1.64013">
        <ele>149</ele>
        <time>2010-05-14T13:21:00Z</time>
      </trkpt>
      <trkpt lat="48.6231" lon="1.64012">
        <ele>149</ele>
        <time>2010-05-14T13:21:01Z</time>
      </trkpt>
      <trkpt lat="48.62309" lon="1.6401">
        <ele>149</ele>
        <time>2010-05-14T13:21:02Z</time>
      </trkpt>
      <trkpt lat="48.62308" lon="1.64009">
        <ele>149</ele>
        <time>2010-05-14T13:21:03Z</time>
      </trkpt>
      <trkpt lat="48.62306" lon="1.64008">
        <ele>149</ele>
        <time>2010-05-14T13:21:04Z</time>
      </trkpt>
      <trkpt lat="48.62305" lon="1.64006">
        <ele>149</ele>
        <time>2010-05-14T13:21:05Z</time>
      </trkpt>
      <trkpt lat="48.62303" lon="1.64005">
        <ele>149</ele>
        <time>2010-05-14T13:21:06Z</time>
      </trkpt>
      <trkpt lat="48.62302" lon="1.64004">
        <ele>149</ele>
        <time>2010-05-14T13:21:07Z</time>
      </trkpt>
      <trkpt lat="48.62301" lon="1.64003">
        <ele>149</ele>
        <time>2010-05-14T13:21:08Z</time>
      </trkpt>
      <trkpt lat="48.62299" lon="1.64001">
        <ele>149</ele>
        <time>2010-05-14T13:21:09Z</time>
      </trkpt>
      <trkpt lat="48.62298" lon="1.64">
        <ele>149</ele>
        <time>2010-05-14T13:21:10Z</time>
      </trkpt>
      <trkpt lat="48.62296" lon="1.63999">
        <ele>149</ele>
        <time>2010-05-14T13:21:11Z</time>
      </trkpt>
      <trkpt lat="48.62295" lon="1.63997">
        <ele>149</ele>
        <time>2010-05-14T13:21:12Z</time>
      </trkpt>
      <trkpt lat="48.62294" lon="1.63996">
        <ele>149</ele>
        <time>2010-05-14T13:21:13Z</time>
      </trkpt>
      <trkpt lat="48.62292" lon="1.63995">
        <ele>149</ele>
        <time>2010-05-14T13:21:14Z</time>
      </trkpt>
      <trkpt lat="48.62291" lon="1.63994">
        <ele>149</ele>
        <time>2010-05-14T13:21:15Z</time>
      </trkpt>
      <trkpt lat="48.62289" lon="1.63993">
        <ele>149</ele>
        <time>2010-05-14T13:21:16Z</time>
      </trkpt>
      <trkpt lat="48.62288" lon="1.63991">
        <ele>149</ele>
        <time>2010-05-14T13:21:17Z</time>
      </trkpt>
      <trkpt lat="48.62287" lon="1.6399">
        <ele>149</ele>
        <time>2010-05-14T13:21:18Z</time>
      </trkpt>
      <trkpt lat="48.62285" lon="1.63989">
        <ele>149</ele>
        <time>2010-05-14T13:21:19Z</time>
      </trkpt>
      <trkpt lat="48.62283" lon="1.63987">
        <ele>149</ele>
        <time>2010-05-14T13:21:20Z</time>
      </trkpt>
      <trkpt lat="48.62282" lon="1.63986">
        <ele>149</ele>
        <time>2010-05-14T13:21:21Z</time>
      </trkpt>
      <trkpt lat="48.6228" lon="1.63984">
        <ele>149</ele>
        <time>2010-05-14T13:21:22Z</time>
      </trkpt>
      <trkpt lat="48.62279" lon="1.63983">
        <ele>149</ele>
        <time>2010-05-14T13:21:23Z</time>
      </trkpt>
      <trkpt lat="48.62277" lon="1.63982">
        <ele>149</ele>
        <time>2010-05-14T13:21:24Z</time>
      </trkpt>
      <trkpt lat="48.62276" lon="1.6398">
        <ele>149</ele>
        <time>2010-05-14T13:21:25Z</time>
      </trkpt>
      <trkpt lat="48.62275" lon="1.63979">
        <ele>149</ele>
        <time>2010-05-14T13:21:26Z</time>
      </trkpt>
      <trkpt lat="48.62273" lon="1.63977">
        <ele>149</ele>
        <time>2010-05-14T13:21:27Z</time>
      </trkpt>
      <trkpt lat="48.62272" lon="1.63976">
        <ele>149</ele>
        <time>2010-05-14T13:21:28Z</time>
      </trkpt>
      <trkpt lat="48.6227" lon="1.63975">
        <ele>149</ele>
        <time>2010-05-14T13:21:29Z</time>
      </trkpt>
      <trkpt lat="48.62269" lon="1.63973">
        <ele>148</ele>
        <time>2010-05-14T13:21:30Z</time>
      </trkpt>
      <trkpt lat="48.62267" lon="1.63972">
        <ele>148</ele>
        <time>2010-05-14T13:21:31Z</time>
      </trkpt>
      <trkpt lat="48.62266" lon="1.63971">
        <ele>148</ele>
        <time>2010-05-14T13:21:32Z</time>
      </trkpt>
      <trkpt lat="48.62265" lon="1.6397">
        <ele>148</ele>
        <time>2010-05-14T13:21:33Z</time>
      </trkpt>
      <trkpt lat="48.62263" lon="1.63969">
        <ele>148</ele>
        <time>2010-05-14T13:21:34Z</time>
      </trkpt>
      <trkpt lat="48.62262" lon="1.63968">
        <ele>148</ele>
        <time>2010-05-14T13:21:35Z</time>
      </trkpt>
      <trkpt lat="48.6226" lon="1.63967">
        <ele>148</ele>
        <time>2010-05-14T13:21:36Z</time>
      </trkpt>
      <trkpt lat="48.62259" lon="1.63965">
        <ele>148</ele>
        <time>2010-05-14T13:21:37Z</time>
      </trkpt>
      <trkpt lat="48.62257" lon="1.63964">
        <ele>148</ele>
        <time>2010-05-14T13:21:38Z</time>
      </trkpt>
      <trkpt lat="48.62256" lon="1.63964">
        <ele>148</ele>
        <time>2010-05-14T13:21:39Z</time>
      </trkpt>
      <trkpt lat="48.62255" lon="1.63963">
        <ele>148</ele>
        <time>2010-05-14T13:21:40Z</time>
      </trkpt>
      <trkpt lat="48.62253" lon="1.63962">
        <ele>148</ele>
        <time>2010-05-14T13:21:41Z</time>
      </trkpt>
      <trkpt lat="48.62252" lon="1.63961">
        <ele>148</ele>
        <time>2010-05-14T13:21:42Z</time>
      </trkpt>
      <trkpt lat="48.6225" lon="1.6396">
        <ele>147</ele>
        <time>2010-05-14T13:21:43Z</time>
      </trkpt>
      <trkpt lat="48.62249" lon="1.63959">
        <ele>147</ele>
        <time>2010-05-14T13:21:44Z</time>
      </trkpt>
      <trkpt lat="48.62248" lon="1.63958">
        <ele>147</ele>
        <time>2010-05-14T13:21:45Z</time>
      </trkpt>
      <trkpt lat="48.62246" lon="1.63956">
        <ele>147</ele>
        <time>2010-05-14T13:21:46Z</time>
      </trkpt>
      <trkpt lat="48.62245" lon="1.63955">
        <ele>147</ele>
        <time>2010-05-14T13:21:47Z</time>
      </trkpt>
      <trkpt lat="48.62243" lon="1.63954">
        <ele>147</ele>
        <time>2010-05-14T13:21:48Z</time>
      </trkpt>
      <trkpt lat="48.62242" lon="1.63953">
        <ele>147</ele>
        <time>2010-05-14T13:21:49Z</time>
      </trkpt>
      <trkpt lat="48.62241" lon="1.63951">
        <ele>147</ele>
        <time>2010-05-14T13:21:50Z</time>
      </trkpt>
      <trkpt lat="48.62239" lon="1.6395">
        <ele>146</ele>
        <time>2010-05-14T13:21:51Z</time>
      </trkpt>
      <trkpt lat="48.62238" lon="1.63949">
        <ele>146</ele>
        <time>2010-05-14T13:21:52Z</time>
      </trkpt>
      <trkpt lat="48.62236" lon="1.63948">
        <ele>146</ele>
        <time>2010-05-14T13:21:53Z</time>
      </trkpt>
      <trkpt lat="48.62235" lon="1.63947">
        <ele>146</ele>
        <time>2010-05-14T13:21:54Z</time>
      </trkpt>
      <trkpt lat="48.62233" lon="1.63945">
        <ele>146</ele>
        <time>2010-05-14T13:21:55Z</time>
      </trkpt>
      <trkpt lat="48.62232" lon="1.63944">
        <ele>146</ele>
        <time>2010-05-14T13:21:56Z</time>
      </trkpt>
      <trkpt lat="48.6223" lon="1.63943">
        <ele>146</ele>
        <time>2010-05-14T13:21:57Z</time>
      </trkpt>
      <trkpt lat="48.62229" lon="1.63942">
        <ele>146</ele>
        <time>2010-05-14T13:21:58Z</time>
      </trkpt>
      <trkpt lat="48.62228" lon="1.63941">
        <ele>146</ele>
        <time>2010-05-14T13:21:59Z</time>
      </trkpt>
      <trkpt lat="48.62226" lon="1.6394">
        <ele>146</ele>
        <time>2010-05-14T13:22:00Z</time>
      </trkpt>
      <trkpt lat="48.62225" lon="1.63939">
        <ele>145</ele>
        <time>2010-05-14T13:22:01Z</time>
      </trkpt>
      <trkpt lat="48.62223" lon="1.63938">
        <ele>145</ele>
        <time>2010-05-14T13:22:02Z</time>
      </trkpt>
      <trkpt lat="48.62222" lon="1.63937">
        <ele>145</ele>
        <time>2010-05-14T13:22:03Z</time>
      </trkpt>
      <trkpt lat="48.6222" lon="1.63936">
        <ele>145</ele>
        <time>2010-05-14T13:22:04Z</time>
      </trkpt>
      <trkpt lat="48.62219" lon="1.63936">
        <ele>145</ele>
        <time>2010-05-14T13:22:05Z</time>
      </trkpt>
      <trkpt lat="48.62218" lon="1.63935">
        <ele>145</ele>
        <time>2010-05-14T13:22:06Z</time>
      </trkpt>
      <trkpt lat="48.62216" lon="1.63935">
        <ele>145</ele>
        <time>2010-05-14T13:22:07Z</time>
      </trkpt>
      <trkpt lat="48.62215" lon="1.63932">
        <ele>145</ele>
        <time>2010-05-14T13:22:08Z</time>
      </trkpt>
      <trkpt lat="48.62213" lon="1.6393">
        <ele>145</ele>
        <time>2010-05-14T13:22:09Z</time>
      </trkpt>
      <trkpt lat="48.62211" lon="1.63929">
        <ele>145</ele>
        <time>2010-05-14T13:22:10Z</time>
      </trkpt>
      <trkpt lat="48.62209" lon="1.63927">
        <ele>145</ele>
        <time>2010-05-14T13:22:11Z</time>
      </trkpt>
      <trkpt lat="48.62208" lon="1.63926">
        <ele>145</ele>
        <time>2010-05-14T13:22:12Z</time>
      </trkpt>
      <trkpt lat="48.62207" lon="1.63924">
        <ele>145</ele>
        <time>2010-05-14T13:22:13Z</time>
      </trkpt>
      <trkpt lat="48.62205" lon="1.63922">
        <ele>145</ele>
        <time>2010-05-14T13:22:14Z</time>
      </trkpt>
      <trkpt lat="48.62204" lon="1.6392">
        <ele>145</ele>
        <time>2010-05-14T13:22:15Z</time>
      </trkpt>
      <trkpt lat="48.62202" lon="1.63917">
        <ele>145</ele>
        <time>2010-05-14T13:22:16Z</time>
      </trkpt>
      <trkpt lat="48.622" lon="1.63914">
        <ele>145</ele>
        <time>2010-05-14T13:22:17Z</time>
      </trkpt>
      <trkpt lat="48.62198" lon="1.63913">
        <ele>145</ele>
        <time>2010-05-14T13:22:18Z</time>
      </trkpt>
      <trkpt lat="48.62197" lon="1.63912">
        <ele>145</ele>
        <time>2010-05-14T13:22:19Z</time>
      </trkpt>
      <trkpt lat="48.62195" lon="1.63911">
        <ele>145</ele>
        <time>2010-05-14T13:22:20Z</time>
      </trkpt>
      <trkpt lat="48.62193" lon="1.6391">
        <ele>145</ele>
        <time>2010-05-14T13:22:21Z</time>
      </trkpt>
      <trkpt lat="48.62192" lon="1.63908">
        <ele>145</ele>
        <time>2010-05-14T13:22:22Z</time>
      </trkpt>
      <trkpt lat="48.62191" lon="1.63907">
        <ele>145</ele>
        <time>2010-05-14T13:22:23Z</time>
      </trkpt>
      <trkpt lat="48.62188" lon="1.63905">
        <ele>145</ele>
        <time>2010-05-14T13:22:25Z</time>
      </trkpt>
      <trkpt lat="48.62187" lon="1.63903">
        <ele>145</ele>
        <time>2010-05-14T13:22:26Z</time>
      </trkpt>
      <trkpt lat="48.62186" lon="1.63901">
        <ele>145</ele>
        <time>2010-05-14T13:22:27Z</time>
      </trkpt>
      <trkpt lat="48.62185" lon="1.639">
        <ele>145</ele>
        <time>2010-05-14T13:22:28Z</time>
      </trkpt>
      <trkpt lat="48.62183" lon="1.63898">
        <ele>145</ele>
        <time>2010-05-14T13:22:29Z</time>
      </trkpt>
      <trkpt lat="48.62182" lon="1.63896">
        <ele>145</ele>
        <time>2010-05-14T13:22:30Z</time>
      </trkpt>
      <trkpt lat="48.6218" lon="1.63895">
        <ele>145</ele>
        <time>2010-05-14T13:22:31Z</time>
      </trkpt>
      <trkpt lat="48.62179" lon="1.63894">
        <ele>145</ele>
        <time>2010-05-14T13:22:32Z</time>
      </trkpt>
      <trkpt lat="48.62177" lon="1.63892">
        <ele>145</ele>
        <time>2010-05-14T13:22:33Z</time>
      </trkpt>
      <trkpt lat="48.62176" lon="1.63891">
        <ele>145</ele>
        <time>2010-05-14T13:22:34Z</time>
      </trkpt>
      <trkpt lat="48.62174" lon="1.63889">
        <ele>145</ele>
        <time>2010-05-14T13:22:35Z</time>
      </trkpt>
      <trkpt lat="48.62173" lon="1.63889">
        <ele>145</ele>
        <time>2010-05-14T13:22:36Z</time>
      </trkpt>
      <trkpt lat="48.62172" lon="1.63888">
        <ele>145</ele>
        <time>2010-05-14T13:22:37Z</time>
      </trkpt>
      <trkpt lat="48.6217" lon="1.63887">
        <ele>145</ele>
        <time>2010-05-14T13:22:38Z</time>
      </trkpt>
      <trkpt lat="48.62169" lon="1.63887">
        <ele>145</ele>
        <time>2010-05-14T13:22:39Z</time>
      </trkpt>
      <trkpt lat="48.62168" lon="1.63886">
        <ele>145</ele>
        <time>2010-05-14T13:22:40Z</time>
      </trkpt>
      <trkpt lat="48.62167" lon="1.63886">
        <ele>145</ele>
        <time>2010-05-14T13:22:41Z</time>
      </trkpt>
      <trkpt lat="48.62166" lon="1.63884">
        <ele>145</ele>
        <time>2010-05-14T13:22:42Z</time>
      </trkpt>
      <trkpt lat="48.62164" lon="1.63883">
        <ele>145</ele>
        <time>2010-05-14T13:22:43Z</time>
      </trkpt>
      <trkpt lat="48.62163" lon="1.63883">
        <ele>145</ele>
        <time>2010-05-14T13:22:44Z</time>
      </trkpt>
      <trkpt lat="48.62162" lon="1.63882">
        <ele>145</ele>
        <time>2010-05-14T13:22:45Z</time>
      </trkpt>
      <trkpt lat="48.6216" lon="1.63881">
        <ele>145</ele>
        <time>2010-05-14T13:22:46Z</time>
      </trkpt>
      <trkpt lat="48.62159" lon="1.6388">
        <ele>145</ele>
        <time>2010-05-14T13:22:47Z</time>
      </trkpt>
      <trkpt lat="48.62158" lon="1.63878">
        <ele>145</ele>
        <time>2010-05-14T13:22:48Z</time>
      </trkpt>
      <trkpt lat="48.62156" lon="1.63877">
        <ele>145</ele>
        <time>2010-05-14T13:22:49Z</time>
      </trkpt>
      <trkpt lat="48.62154" lon="1.63874">
        <ele>145</ele>
        <time>2010-05-14T13:22:50Z</time>
      </trkpt>
      <trkpt lat="48.62152" lon="1.63873">
        <ele>145</ele>
        <time>2010-05-14T13:22:52Z</time>
      </trkpt>
      <trkpt lat="48.62151" lon="1.63873">
        <ele>145</ele>
        <time>2010-05-14T13:22:53Z</time>
      </trkpt>
      <trkpt lat="48.6215" lon="1.63873">
        <ele>145</ele>
        <time>2010-05-14T13:22:54Z</time>
      </trkpt>
      <trkpt lat="48.62148" lon="1.6387">
        <ele>145</ele>
        <time>2010-05-14T13:22:55Z</time>
      </trkpt>
      <trkpt lat="48.62146" lon="1.63868">
        <ele>145</ele>
        <time>2010-05-14T13:22:56Z</time>
      </trkpt>
      <trkpt lat="48.62144" lon="1.63866">
        <ele>145</ele>
        <time>2010-05-14T13:22:57Z</time>
      </trkpt>
      <trkpt lat="48.62142" lon="1.63863">
        <ele>145</ele>
        <time>2010-05-14T13:22:59Z</time>
      </trkpt>
      <trkpt lat="48.62141" lon="1.63862">
        <ele>145</ele>
        <time>2010-05-14T13:23:00Z</time>
      </trkpt>
      <trkpt lat="48.62139" lon="1.6386">
        <ele>145</ele>
        <time>2010-05-14T13:23:02Z</time>
      </trkpt>
      <trkpt lat="48.62138" lon="1.63859">
        <ele>145</ele>
        <time>2010-05-14T13:23:04Z</time>
      </trkpt>
      <trkpt lat="48.62136" lon="1.63857">
        <ele>145</ele>
        <time>2010-05-14T13:23:05Z</time>
      </trkpt>
      <trkpt lat="48.62134" lon="1.63855">
        <ele>145</ele>
        <time>2010-05-14T13:23:07Z</time>
      </trkpt>
      <trkpt lat="48.62133" lon="1.63852">
        <ele>145</ele>
        <time>2010-05-14T13:23:08Z</time>
      </trkpt>
      <trkpt lat="48.62131" lon="1.63849">
        <ele>145</ele>
        <time>2010-05-14T13:23:09Z</time>
      </trkpt>
      <trkpt lat="48.6213" lon="1.63846">
        <ele>145</ele>
        <time>2010-05-14T13:23:10Z</time>
      </trkpt>
      <trkpt lat="48.62128" lon="1.63844">
        <ele>145</ele>
        <time>2010-05-14T13:23:11Z</time>
      </trkpt>
      <trkpt lat="48.62127" lon="1.63841">
        <ele>145</ele>
        <time>2010-05-14T13:23:12Z</time>
      </trkpt>
      <trkpt lat="48.62126" lon="1.63838">
        <ele>145</ele>
        <time>2010-05-14T13:23:13Z</time>
      </trkpt>
      <trkpt lat="48.62124" lon="1.63836">
        <ele>145</ele>
        <time>2010-05-14T13:23:14Z</time>
      </trkpt>
      <trkpt lat="48.62123" lon="1.63835">
        <ele>145</ele>
        <time>2010-05-14T13:23:15Z</time>
      </trkpt>
      <trkpt lat="48.62121" lon="1.63833">
        <ele>145</ele>
        <time>2010-05-14T13:23:16Z</time>
      </trkpt>
      <trkpt lat="48.6212" lon="1.63832">
        <ele>145</ele>
        <time>2010-05-14T13:23:17Z</time>
      </trkpt>
      <trkpt lat="48.62119" lon="1.6383">
        <ele>145</ele>
        <time>2010-05-14T13:23:18Z</time>
      </trkpt>
      <trkpt lat="48.62117" lon="1.63829">
        <ele>145</ele>
        <time>2010-05-14T13:23:19Z</time>
      </trkpt>
      <trkpt lat="48.62116" lon="1.63828">
        <ele>145</ele>
        <time>2010-05-14T13:23:20Z</time>
      </trkpt>
      <trkpt lat="48.62114" lon="1.63827">
        <ele>145</ele>
        <time>2010-05-14T13:23:21Z</time>
      </trkpt>
      <trkpt lat="48.62112" lon="1.63825">
        <ele>145</ele>
        <time>2010-05-14T13:23:23Z</time>
      </trkpt>
      <trkpt lat="48.6211" lon="1.63824">
        <ele>144</ele>
        <time>2010-05-14T13:23:24Z</time>
      </trkpt>
      <trkpt lat="48.62109" lon="1.63821">
        <ele>144</ele>
        <time>2010-05-14T13:23:25Z</time>
      </trkpt>
      <trkpt lat="48.62107" lon="1.63819">
        <ele>144</ele>
        <time>2010-05-14T13:23:26Z</time>
      </trkpt>
      <trkpt lat="48.62106" lon="1.63817">
        <ele>144</ele>
        <time>2010-05-14T13:23:27Z</time>
      </trkpt>
      <trkpt lat="48.62105" lon="1.63815">
        <ele>144</ele>
        <time>2010-05-14T13:23:28Z</time>
      </trkpt>
      <trkpt lat="48.62104" lon="1.63813">
        <ele>144</ele>
        <time>2010-05-14T13:23:29Z</time>
      </trkpt>
      <trkpt lat="48.62103" lon="1.63811">
        <ele>143</ele>
        <time>2010-05-14T13:23:30Z</time>
      </trkpt>
      <trkpt lat="48.62102" lon="1.6381">
        <ele>143</ele>
        <time>2010-05-14T13:23:31Z</time>
      </trkpt>
      <trkpt lat="48.62099" lon="1.63808">
        <ele>143</ele>
        <time>2010-05-14T13:23:33Z</time>
      </trkpt>
      <trkpt lat="48.62098" lon="1.63807">
        <ele>142</ele>
        <time>2010-05-14T13:23:34Z</time>
      </trkpt>
      <trkpt lat="48.62097" lon="1.63804">
        <ele>142</ele>
        <time>2010-05-14T13:23:35Z</time>
      </trkpt>
      <trkpt lat="48.62095" lon="1.63801">
        <ele>141</ele>
        <time>2010-05-14T13:23:37Z</time>
      </trkpt>
      <trkpt lat="48.62094" lon="1.63799">
        <ele>141</ele>
        <time>2010-05-14T13:23:38Z</time>
      </trkpt>
      <trkpt lat="48.62092" lon="1.63797">
        <ele>141</ele>
        <time>2010-05-14T13:23:39Z</time>
      </trkpt>
      <trkpt lat="48.62091" lon="1.63795">
        <ele>141</ele>
        <time>2010-05-14T13:23:40Z</time>
      </trkpt>
      <trkpt lat="48.6209" lon="1.63793">
        <ele>141</ele>
        <time>2010-05-14T13:23:41Z</time>
      </trkpt>
      <trkpt lat="48.62089" lon="1.63791">
        <ele>141</ele>
        <time>2010-05-14T13:23:42Z</time>
      </trkpt>
      <trkpt lat="48.62087" lon="1.63789">
        <ele>141</ele>
        <time>2010-05-14T13:23:43Z</time>
      </trkpt>
      <trkpt lat="48.62086" lon="1.63788">
        <ele>141</ele>
        <time>2010-05-14T13:23:44Z</time>
      </trkpt>
      <trkpt lat="48.62085" lon="1.63787">
        <ele>141</ele>
        <time>2010-05-14T13:23:45Z</time>
      </trkpt>
      <trkpt lat="48.62083" lon="1.63785">
        <ele>141</ele>
        <time>2010-05-14T13:23:47Z</time>
      </trkpt>
      <trkpt lat="48.62081" lon="1.63782">
        <ele>141</ele>
        <time>2010-05-14T13:23:48Z</time>
      </trkpt>
      <trkpt lat="48.6208" lon="1.6378">
        <ele>141</ele>
        <time>2010-05-14T13:23:49Z</time>
      </trkpt>
      <trkpt lat="48.62079" lon="1.63779">
        <ele>141</ele>
        <time>2010-05-14T13:23:50Z</time>
      </trkpt>
      <trkpt lat="48.62076" lon="1.63776">
        <ele>141</ele>
        <time>2010-05-14T13:23:52Z</time>
      </trkpt>
      <trkpt lat="48.62075" lon="1.63774">
        <ele>141</ele>
        <time>2010-05-14T13:23:53Z</time>
      </trkpt>
      <trkpt lat="48.62074" lon="1.63772">
        <ele>141</ele>
        <time>2010-05-14T13:23:54Z</time>
      </trkpt>
      <trkpt lat="48.62072" lon="1.63769">
        <ele>141</ele>
        <time>2010-05-14T13:23:56Z</time>
      </trkpt>
      <trkpt lat="48.62071" lon="1.63767">
        <ele>140</ele>
        <time>2010-05-14T13:23:57Z</time>
      </trkpt>
      <trkpt lat="48.62069" lon="1.63764">
        <ele>139</ele>
        <time>2010-05-14T13:23:58Z</time>
      </trkpt>
      <trkpt lat="48.62068" lon="1.63763">
        <ele>139</ele>
        <time>2010-05-14T13:23:59Z</time>
      </trkpt>
      <trkpt lat="48.62067" lon="1.6376">
        <ele>138</ele>
        <time>2010-05-14T13:24:00Z</time>
      </trkpt>
      <trkpt lat="48.62066" lon="1.63758">
        <ele>138</ele>
        <time>2010-05-14T13:24:01Z</time>
      </trkpt>
      <trkpt lat="48.62065" lon="1.63755">
        <ele>138</ele>
        <time>2010-05-14T13:24:02Z</time>
      </trkpt>
      <trkpt lat="48.62064" lon="1.63754">
        <ele>138</ele>
        <time>2010-05-14T13:24:03Z</time>
      </trkpt>
      <trkpt lat="48.62063" lon="1.63752">
        <ele>138</ele>
        <time>2010-05-14T13:24:04Z</time>
      </trkpt>
      <trkpt lat="48.62062" lon="1.6375">
        <ele>138</ele>
        <time>2010-05-14T13:24:05Z</time>
      </trkpt>
      <trkpt lat="48.6206" lon="1.63747">
        <ele>138</ele>
        <time>2010-05-14T13:24:07Z</time>
      </trkpt>
      <trkpt lat="48.62059" lon="1.63746">
        <ele>138</ele>
        <time>2010-05-14T13:24:08Z</time>
      </trkpt>
      <trkpt lat="48.62058" lon="1.63744">
        <ele>138</ele>
        <time>2010-05-14T13:24:09Z</time>
      </trkpt>
      <trkpt lat="48.62057" lon="1.63743">
        <ele>138</ele>
        <time>2010-05-14T13:24:10Z</time>
      </trkpt>
      <trkpt lat="48.62056" lon="1.63741">
        <ele>138</ele>
        <time>2010-05-14T13:24:11Z</time>
      </trkpt>
      <trkpt lat="48.62053" lon="1.63736">
        <ele>138</ele>
        <time>2010-05-14T13:24:13Z</time>
      </trkpt>
      <trkpt lat="48.62052" lon="1.63735">
        <ele>138</ele>
        <time>2010-05-14T13:24:14Z</time>
      </trkpt>
      <trkpt lat="48.62051" lon="1.63734">
        <ele>138</ele>
        <time>2010-05-14T13:24:15Z</time>
      </trkpt>
      <trkpt lat="48.62049" lon="1.63733">
        <ele>138</ele>
        <time>2010-05-14T13:24:16Z</time>
      </trkpt>
      <trkpt lat="48.62048" lon="1.63731">
        <ele>138</ele>
        <time>2010-05-14T13:24:18Z</time>
      </trkpt>
      <trkpt lat="48.62045" lon="1.63727">
        <ele>138</ele>
        <time>2010-05-14T13:24:20Z</time>
      </trkpt>
      <trkpt lat="48.62044" lon="1.63726">
        <ele>138</ele>
        <time>2010-05-14T13:24:21Z</time>
      </trkpt>
      <trkpt lat="48.62042" lon="1.63724">
        <ele>138</ele>
        <time>2010-05-14T13:24:23Z</time>
      </trkpt>
      <trkpt lat="48.6204" lon="1.6372">
        <ele>138</ele>
        <time>2010-05-14T13:24:25Z</time>
      </trkpt>
      <trkpt lat="48.62039" lon="1.63718">
        <ele>138</ele>
        <time>2010-05-14T13:24:26Z</time>
      </trkpt>
      <trkpt lat="48.62037" lon="1.63715">
        <ele>138</ele>
        <time>2010-05-14T13:24:27Z</time>
      </trkpt>
      <trkpt lat="48.62036" lon="1.63713">
        <ele>138</ele>
        <time>2010-05-14T13:24:28Z</time>
      </trkpt>
      <trkpt lat="48.62035" lon="1.63712">
        <ele>138</ele>
        <time>2010-05-14T13:24:29Z</time>
      </trkpt>
      <trkpt lat="48.62034" lon="1.63711">
        <ele>138</ele>
        <time>2010-05-14T13:24:30Z</time>
      </trkpt>
      <trkpt lat="48.62032" lon="1.63708">
        <ele>138</ele>
        <time>2010-05-14T13:24:32Z</time>
      </trkpt>
      <trkpt lat="48.6203" lon="1.63706">
        <ele>138</ele>
        <time>2010-05-14T13:24:34Z</time>
      </trkpt>
      <trkpt lat="48.62029" lon="1.63703">
        <ele>138</ele>
        <time>2010-05-14T13:24:35Z</time>
      </trkpt>
      <trkpt lat="48.62027" lon="1.63701">
        <ele>138</ele>
        <time>2010-05-14T13:24:37Z</time>
      </trkpt>
      <trkpt lat="48.62025" lon="1.63698">
        <ele>138</ele>
        <time>2010-05-14T13:24:39Z</time>
      </trkpt>
      <trkpt lat="48.62024" lon="1.63697">
        <ele>138</ele>
        <time>2010-05-14T13:24:40Z</time>
      </trkpt>
      <trkpt lat="48.62023" lon="1.63695">
        <ele>138</ele>
        <time>2010-05-14T13:24:41Z</time>
      </trkpt>
      <trkpt lat="48.62021" lon="1.63692">
        <ele>138</ele>
        <time>2010-05-14T13:24:43Z</time>
      </trkpt>
      <trkpt lat="48.6202" lon="1.6369">
        <ele>138</ele>
        <time>2010-05-14T13:24:44Z</time>
      </trkpt>
      <trkpt lat="48.62018" lon="1.63688">
        <ele>138</ele>
        <time>2010-05-14T13:24:45Z</time>
      </trkpt>
      <trkpt lat="48.62017" lon="1.63687">
        <ele>138</ele>
        <time>2010-05-14T13:24:46Z</time>
      </trkpt>
      <trkpt lat="48.62016" lon="1.63686">
        <ele>138</ele>
        <time>2010-05-14T13:24:47Z</time>
      </trkpt>
      <trkpt lat="48.62015" lon="1.63684">
        <ele>138</ele>
        <time>2010-05-14T13:24:48Z</time>
      </trkpt>
      <trkpt lat="48.62014" lon="1.63682">
        <ele>138</ele>
        <time>2010-05-14T13:24:49Z</time>
      </trkpt>
      <trkpt lat="48.62012" lon="1.6368">
        <ele>138</ele>
        <time>2010-05-14T13:24:50Z</time>
      </trkpt>
      <trkpt lat="48.62011" lon="1.63676">
        <ele>138</ele>
        <time>2010-05-14T13:24:51Z</time>
      </trkpt>
      <trkpt lat="48.6201" lon="1.63674">
        <ele>138</ele>
        <time>2010-05-14T13:24:52Z</time>
      </trkpt>
      <trkpt lat="48.62009" lon="1.6367">
        <ele>138</ele>
        <time>2010-05-14T13:24:53Z</time>
      </trkpt>
      <trkpt lat="48.62008" lon="1.63666">
        <ele>138</ele>
        <time>2010-05-14T13:24:54Z</time>
      </trkpt>
      <trkpt lat="48.62008" lon="1.63664">
        <ele>138</ele>
        <time>2010-05-14T13:24:55Z</time>
      </trkpt>
      <trkpt lat="48.62007" lon="1.63662">
        <ele>139</ele>
        <time>2010-05-14T13:24:56Z</time>
      </trkpt>
      <trkpt lat="48.62007" lon="1.6366">
        <ele>139</ele>
        <time>2010-05-14T13:24:57Z</time>
      </trkpt>
      <trkpt lat="48.62006" lon="1.63658">
        <ele>139</ele>
        <time>2010-05-14T13:24:58Z</time>
      </trkpt>
      <trkpt lat="48.62005" lon="1.63656">
        <ele>139</ele>
        <time>2010-05-14T13:24:59Z</time>
      </trkpt>
      <trkpt lat="48.62005" lon="1.63654">
        <ele>139</ele>
        <time>2010-05-14T13:25:00Z</time>
      </trkpt>
      <trkpt lat="48.62004" lon="1.63652">
        <ele>139</ele>
        <time>2010-05-14T13:25:01Z</time>
      </trkpt>
      <trkpt lat="48.62003" lon="1.6365">
        <ele>139</ele>
        <time>2010-05-14T13:25:02Z</time>
      </trkpt>
      <trkpt lat="48.62002" lon="1.63648">
        <ele>139</ele>
        <time>2010-05-14T13:25:03Z</time>
      </trkpt>
      <trkpt lat="48.62001" lon="1.63645">
        <ele>139</ele>
        <time>2010-05-14T13:25:04Z</time>
      </trkpt>
      <trkpt lat="48.62" lon="1.63643">
        <ele>139</ele>
        <time>2010-05-14T13:25:05Z</time>
      </trkpt>
      <trkpt lat="48.62" lon="1.63641">
        <ele>139</ele>
        <time>2010-05-14T13:25:06Z</time>
      </trkpt>
      <trkpt lat="48.61999" lon="1.63638">
        <ele>139</ele>
        <time>2010-05-14T13:25:07Z</time>
      </trkpt>
      <trkpt lat="48.61999" lon="1.63636">
        <ele>139</ele>
        <time>2010-05-14T13:25:08Z</time>
      </trkpt>
      <trkpt lat="48.61998" lon="1.63634">
        <ele>139</ele>
        <time>2010-05-14T13:25:09Z</time>
      </trkpt>
      <trkpt lat="48.61997" lon="1.63632">
        <ele>139</ele>
        <time>2010-05-14T13:25:10Z</time>
      </trkpt>
      <trkpt lat="48.61996" lon="1.63629">
        <ele>139</ele>
        <time>2010-05-14T13:25:11Z</time>
      </trkpt>
      <trkpt lat="48.61995" lon="1.63627">
        <ele>139</ele>
        <time>2010-05-14T13:25:12Z</time>
      </trkpt>
      <trkpt lat="48.61995" lon="1.63625">
        <ele>139</ele>
        <time>2010-05-14T13:25:13Z</time>
      </trkpt>
      <trkpt lat="48.61994" lon="1.63623">
        <ele>139</ele>
        <time>2010-05-14T13:25:14Z</time>
      </trkpt>
      <trkpt lat="48.61994" lon="1.63621">
        <ele>139</ele>
        <time>2010-05-14T13:25:15Z</time>
      </trkpt>
      <trkpt lat="48.61993" lon="1.63618">
        <ele>139</ele>
        <time>2010-05-14T13:25:16Z</time>
      </trkpt>
      <trkpt lat="48.61992" lon="1.63616">
        <ele>139</ele>
        <time>2010-05-14T13:25:17Z</time>
      </trkpt>
      <trkpt lat="48.61992" lon="1.63614">
        <ele>139</ele>
        <time>2010-05-14T13:25:18Z</time>
      </trkpt>
      <trkpt lat="48.61992" lon="1.63612">
        <ele>139</ele>
        <time>2010-05-14T13:25:19Z</time>
      </trkpt>
      <trkpt lat="48.61991" lon="1.6361">
        <ele>139</ele>
        <time>2010-05-14T13:25:20Z</time>
      </trkpt>
      <trkpt lat="48.6199" lon="1.63607">
        <ele>139</ele>
        <time>2010-05-14T13:25:21Z</time>
      </trkpt>
      <trkpt lat="48.61989" lon="1.63605">
        <ele>139</ele>
        <time>2010-05-14T13:25:22Z</time>
      </trkpt>
      <trkpt lat="48.61989" lon="1.63603">
        <ele>139</ele>
        <time>2010-05-14T13:25:23Z</time>
      </trkpt>
      <trkpt lat="48.61988" lon="1.63601">
        <ele>139</ele>
        <time>2010-05-14T13:25:24Z</time>
      </trkpt>
      <trkpt lat="48.61987" lon="1.636">
        <ele>139</ele>
        <time>2010-05-14T13:25:25Z</time>
      </trkpt>
      <trkpt lat="48.61985" lon="1.63596">
        <ele>139</ele>
        <time>2010-05-14T13:25:27Z</time>
      </trkpt>
      <trkpt lat="48.61984" lon="1.63595">
        <ele>139</ele>
        <time>2010-05-14T13:25:28Z</time>
      </trkpt>
      <trkpt lat="48.61983" lon="1.63593">
        <ele>139</ele>
        <time>2010-05-14T13:25:29Z</time>
      </trkpt>
      <trkpt lat="48.61982" lon="1.63591">
        <ele>139</ele>
        <time>2010-05-14T13:25:30Z</time>
      </trkpt>
      <trkpt lat="48.61981" lon="1.63589">
        <ele>138</ele>
        <time>2010-05-14T13:25:31Z</time>
      </trkpt>
      <trkpt lat="48.6198" lon="1.63587">
        <ele>138</ele>
        <time>2010-05-14T13:25:32Z</time>
      </trkpt>
      <trkpt lat="48.61979" lon="1.63585">
        <ele>137</ele>
        <time>2010-05-14T13:25:33Z</time>
      </trkpt>
      <trkpt lat="48.61979" lon="1.63583">
        <ele>137</ele>
        <time>2010-05-14T13:25:34Z</time>
      </trkpt>
      <trkpt lat="48.61978" lon="1.63581">
        <ele>136</ele>
        <time>2010-05-14T13:25:35Z</time>
      </trkpt>
      <trkpt lat="48.61977" lon="1.63578">
        <ele>136</ele>
        <time>2010-05-14T13:25:36Z</time>
      </trkpt>
      <trkpt lat="48.61976" lon="1.63576">
        <ele>136</ele>
        <time>2010-05-14T13:25:37Z</time>
      </trkpt>
      <trkpt lat="48.61975" lon="1.63574">
        <ele>135</ele>
        <time>2010-05-14T13:25:38Z</time>
      </trkpt>
      <trkpt lat="48.61974" lon="1.63572">
        <ele>135</ele>
        <time>2010-05-14T13:25:39Z</time>
      </trkpt>
      <trkpt lat="48.61973" lon="1.63569">
        <ele>135</ele>
        <time>2010-05-14T13:25:40Z</time>
      </trkpt>
      <trkpt lat="48.61972" lon="1.63567">
        <ele>135</ele>
        <time>2010-05-14T13:25:41Z</time>
      </trkpt>
      <trkpt lat="48.61971" lon="1.63565">
        <ele>134</ele>
        <time>2010-05-14T13:25:42Z</time>
      </trkpt>
      <trkpt lat="48.6197" lon="1.63563">
        <ele>134</ele>
        <time>2010-05-14T13:25:43Z</time>
      </trkpt>
      <trkpt lat="48.61969" lon="1.6356">
        <ele>134</ele>
        <time>2010-05-14T13:25:44Z</time>
      </trkpt>
      <trkpt lat="48.61968" lon="1.63558">
        <ele>134</ele>
        <time>2010-05-14T13:25:45Z</time>
      </trkpt>
      <trkpt lat="48.61967" lon="1.63556">
        <ele>134</ele>
        <time>2010-05-14T13:25:46Z</time>
      </trkpt>
      <trkpt lat="48.61966" lon="1.63553">
        <ele>134</ele>
        <time>2010-05-14T13:25:47Z</time>
      </trkpt>
      <trkpt lat="48.61965" lon="1.63551">
        <ele>134</ele>
        <time>2010-05-14T13:25:48Z</time>
      </trkpt>
      <trkpt lat="48.61964" lon="1.63549">
        <ele>134</ele>
        <time>2010-05-14T13:25:49Z</time>
      </trkpt>
      <trkpt lat="48.61963" lon="1.63546">
        <ele>133</ele>
        <time>2010-05-14T13:25:50Z</time>
      </trkpt>
      <trkpt lat="48.61962" lon="1.63544">
        <ele>133</ele>
        <time>2010-05-14T13:25:51Z</time>
      </trkpt>
      <trkpt lat="48.61961" lon="1.63542">
        <ele>133</ele>
        <time>2010-05-14T13:25:52Z</time>
      </trkpt>
      <trkpt lat="48.6196" lon="1.6354">
        <ele>133</ele>
        <time>2010-05-14T13:25:53Z</time>
      </trkpt>
      <trkpt lat="48.61959" lon="1.63538">
        <ele>132</ele>
        <time>2010-05-14T13:25:54Z</time>
      </trkpt>
      <trkpt lat="48.61958" lon="1.63536">
        <ele>132</ele>
        <time>2010-05-14T13:25:55Z</time>
      </trkpt>
      <trkpt lat="48.61957" lon="1.63534">
        <ele>132</ele>
        <time>2010-05-14T13:25:56Z</time>
      </trkpt>
      <trkpt lat="48.61956" lon="1.63532">
        <ele>132</ele>
        <time>2010-05-14T13:25:57Z</time>
      </trkpt>
      <trkpt lat="48.61955" lon="1.6353">
        <ele>131</ele>
        <time>2010-05-14T13:25:58Z</time>
      </trkpt>
      <trkpt lat="48.61954" lon="1.63527">
        <ele>131</ele>
        <time>2010-05-14T13:25:59Z</time>
      </trkpt>
      <trkpt lat="48.61953" lon="1.63525">
        <ele>131</ele>
        <time>2010-05-14T13:26:00Z</time>
      </trkpt>
      <trkpt lat="48.61952" lon="1.63523">
        <ele>131</ele>
        <time>2010-05-14T13:26:01Z</time>
      </trkpt>
      <trkpt lat="48.61951" lon="1.63521">
        <ele>131</ele>
        <time>2010-05-14T13:26:02Z</time>
      </trkpt>
      <trkpt lat="48.61951" lon="1.63519">
        <ele>130</ele>
        <time>2010-05-14T13:26:03Z</time>
      </trkpt>
      <trkpt lat="48.6195" lon="1.63517">
        <ele>130</ele>
        <time>2010-05-14T13:26:04Z</time>
      </trkpt>
      <trkpt lat="48.61949" lon="1.63515">
        <ele>130</ele>
        <time>2010-05-14T13:26:05Z</time>
      </trkpt>
      <trkpt lat="48.61948" lon="1.63513">
        <ele>130</ele>
        <time>2010-05-14T13:26:06Z</time>
      </trkpt>
      <trkpt lat="48.61948" lon="1.63511">
        <ele>130</ele>
        <time>2010-05-14T13:26:07Z</time>
      </trkpt>
      <trkpt lat="48.61947" lon="1.63509">
        <ele>130</ele>
        <time>2010-05-14T13:26:08Z</time>
      </trkpt>
      <trkpt lat="48.61946" lon="1.63507">
        <ele>130</ele>
        <time>2010-05-14T13:26:09Z</time>
      </trkpt>
      <trkpt lat="48.61945" lon="1.63505">
        <ele>130</ele>
        <time>2010-05-14T13:26:10Z</time>
      </trkpt>
      <trkpt lat="48.61944" lon="1.63503">
        <ele>129</ele>
        <time>2010-05-14T13:26:11Z</time>
      </trkpt>
      <trkpt lat="48.61943" lon="1.63501">
        <ele>129</ele>
        <time>2010-05-14T13:26:12Z</time>
      </trkpt>
      <trkpt lat="48.61942" lon="1.63499">
        <ele>129</ele>
        <time>2010-05-14T13:26:13Z</time>
      </trkpt>
      <trkpt lat="48.61941" lon="1.63497">
        <ele>129</ele>
        <time>2010-05-14T13:26:14Z</time>
      </trkpt>
      <trkpt lat="48.6194" lon="1.63495">
        <ele>129</ele>
        <time>2010-05-14T13:26:15Z</time>
      </trkpt>
      <trkpt lat="48.6194" lon="1.63493">
        <ele>129</ele>
        <time>2010-05-14T13:26:16Z</time>
      </trkpt>
      <trkpt lat="48.61939" lon="1.63491">
        <ele>129</ele>
        <time>2010-05-14T13:26:17Z</time>
      </trkpt>
      <trkpt lat="48.61938" lon="1.63489">
        <ele>129</ele>
        <time>2010-05-14T13:26:18Z</time>
      </trkpt>
      <trkpt lat="48.61937" lon="1.63487">
        <ele>129</ele>
        <time>2010-05-14T13:26:19Z</time>
      </trkpt>
      <trkpt lat="48.61936" lon="1.63485">
        <ele>128</ele>
        <time>2010-05-14T13:26:20Z</time>
      </trkpt>
      <trkpt lat="48.61935" lon="1.63483">
        <ele>128</ele>
        <time>2010-05-14T13:26:21Z</time>
      </trkpt>
      <trkpt lat="48.61934" lon="1.63481">
        <ele>128</ele>
        <time>2010-05-14T13:26:22Z</time>
      </trkpt>
      <trkpt lat="48.61933" lon="1.63479">
        <ele>128</ele>
        <time>2010-05-14T13:26:23Z</time>
      </trkpt>
      <trkpt lat="48.61932" lon="1.63477">
        <ele>128</ele>
        <time>2010-05-14T13:26:24Z</time>
      </trkpt>
      <trkpt lat="48.61931" lon="1.63475">
        <ele>128</ele>
        <time>2010-05-14T13:26:25Z</time>
      </trkpt>
      <trkpt lat="48.6193" lon="1.63473">
        <ele>128</ele>
        <time>2010-05-14T13:26:26Z</time>
      </trkpt>
      <trkpt lat="48.61929" lon="1.63471">
        <ele>128</ele>
        <time>2010-05-14T13:26:27Z</time>
      </trkpt>
      <trkpt lat="48.61928" lon="1.63469">
        <ele>128</ele>
        <time>2010-05-14T13:26:28Z</time>
      </trkpt>
      <trkpt lat="48.61927" lon="1.63467">
        <ele>128</ele>
        <time>2010-05-14T13:26:29Z</time>
      </trkpt>
      <trkpt lat="48.61926" lon="1.63465">
        <ele>128</ele>
        <time>2010-05-14T13:26:30Z</time>
      </trkpt>
      <trkpt lat="48.61925" lon="1.63463">
        <ele>128</ele>
        <time>2010-05-14T13:26:31Z</time>
      </trkpt>
      <trkpt lat="48.61925" lon="1.63461">
        <ele>128</ele>
        <time>2010-05-14T13:26:32Z</time>
      </trkpt>
      <trkpt lat="48.61924" lon="1.63459">
        <ele>128</ele>
        <time>2010-05-14T13:26:33Z</time>
      </trkpt>
      <trkpt lat="48.61923" lon="1.63457">
        <ele>128</ele>
        <time>2010-05-14T13:26:34Z</time>
      </trkpt>
      <trkpt lat="48.61922" lon="1.63455">
        <ele>128</ele>
        <time>2010-05-14T13:26:35Z</time>
      </trkpt>
      <trkpt lat="48.61921" lon="1.63453">
        <ele>128</ele>
        <time>2010-05-14T13:26:36Z</time>
      </trkpt>
      <trkpt lat="48.6192" lon="1.6345">
        <ele>128</ele>
        <time>2010-05-14T13:26:37Z</time>
      </trkpt>
      <trkpt lat="48.61919" lon="1.63448">
        <ele>128</ele>
        <time>2010-05-14T13:26:38Z</time>
      </trkpt>
      <trkpt lat="48.61917" lon="1.63445">
        <ele>127</ele>
        <time>2010-05-14T13:26:39Z</time>
      </trkpt>
      <trkpt lat="48.61916" lon="1.63442">
        <ele>127</ele>
        <time>2010-05-14T13:26:40Z</time>
      </trkpt>
      <trkpt lat="48.61915" lon="1.6344">
        <ele>127</ele>
        <time>2010-05-14T13:26:41Z</time>
      </trkpt>
      <trkpt lat="48.61914" lon="1.63437">
        <ele>127</ele>
        <time>2010-05-14T13:26:42Z</time>
      </trkpt>
      <trkpt lat="48.61913" lon="1.63435">
        <ele>127</ele>
        <time>2010-05-14T13:26:43Z</time>
      </trkpt>
      <trkpt lat="48.61912" lon="1.63433">
        <ele>127</ele>
        <time>2010-05-14T13:26:44Z</time>
      </trkpt>
      <trkpt lat="48.61911" lon="1.63431">
        <ele>127</ele>
        <time>2010-05-14T13:26:45Z</time>
      </trkpt>
      <trkpt lat="48.6191" lon="1.63429">
        <ele>127</ele>
        <time>2010-05-14T13:26:46Z</time>
      </trkpt>
      <trkpt lat="48.61909" lon="1.63427">
        <ele>127</ele>
        <time>2010-05-14T13:26:47Z</time>
      </trkpt>
      <trkpt lat="48.61908" lon="1.63425">
        <ele>127</ele>
        <time>2010-05-14T13:26:48Z</time>
      </trkpt>
      <trkpt lat="48.61907" lon="1.63423">
        <ele>127</ele>
        <time>2010-05-14T13:26:49Z</time>
      </trkpt>
      <trkpt lat="48.61907" lon="1.63421">
        <ele>127</ele>
        <time>2010-05-14T13:26:50Z</time>
      </trkpt>
      <trkpt lat="48.61906" lon="1.63419">
        <ele>127</ele>
        <time>2010-05-14T13:26:51Z</time>
      </trkpt>
      <trkpt lat="48.61905" lon="1.63417">
        <ele>127</ele>
        <time>2010-05-14T13:26:52Z</time>
      </trkpt>
      <trkpt lat="48.61904" lon="1.63415">
        <ele>127</ele>
        <time>2010-05-14T13:26:53Z</time>
      </trkpt>
      <trkpt lat="48.61903" lon="1.63413">
        <ele>127</ele>
        <time>2010-05-14T13:26:54Z</time>
      </trkpt>
      <trkpt lat="48.61902" lon="1.63411">
        <ele>127</ele>
        <time>2010-05-14T13:26:55Z</time>
      </trkpt>
      <trkpt lat="48.61901" lon="1.63409">
        <ele>127</ele>
        <time>2010-05-14T13:26:56Z</time>
      </trkpt>
      <trkpt lat="48.619" lon="1.63407">
        <ele>127</ele>
        <time>2010-05-14T13:26:57Z</time>
      </trkpt>
      <trkpt lat="48.61899" lon="1.63405">
        <ele>127</ele>
        <time>2010-05-14T13:26:58Z</time>
      </trkpt>
      <trkpt lat="48.61898" lon="1.63402">
        <ele>127</ele>
        <time>2010-05-14T13:26:59Z</time>
      </trkpt>
      <trkpt lat="48.61897" lon="1.634">
        <ele>127</ele>
        <time>2010-05-14T13:27:00Z</time>
      </trkpt>
      <trkpt lat="48.61896" lon="1.63398">
        <ele>127</ele>
        <time>2010-05-14T13:27:01Z</time>
      </trkpt>
      <trkpt lat="48.61895" lon="1.63396">
        <ele>127</ele>
        <time>2010-05-14T13:27:02Z</time>
      </trkpt>
      <trkpt lat="48.61894" lon="1.63394">
        <ele>127</ele>
        <time>2010-05-14T13:27:03Z</time>
      </trkpt>
      <trkpt lat="48.61893" lon="1.63392">
        <ele>127</ele>
        <time>2010-05-14T13:27:04Z</time>
      </trkpt>
      <trkpt lat="48.61893" lon="1.6339">
        <ele>127</ele>
        <time>2010-05-14T13:27:05Z</time>
      </trkpt>
      <trkpt lat="48.61892" lon="1.63389">
        <ele>127</ele>
        <time>2010-05-14T13:27:06Z</time>
      </trkpt>
      <trkpt lat="48.61891" lon="1.63387">
        <ele>127</ele>
        <time>2010-05-14T13:27:07Z</time>
      </trkpt>
      <trkpt lat="48.6189" lon="1.63385">
        <ele>127</ele>
        <time>2010-05-14T13:27:08Z</time>
      </trkpt>
      <trkpt lat="48.61889" lon="1.63383">
        <ele>127</ele>
        <time>2010-05-14T13:27:09Z</time>
      </trkpt>
      <trkpt lat="48.61888" lon="1.63381">
        <ele>127</ele>
        <time>2010-05-14T13:27:10Z</time>
      </trkpt>
      <trkpt lat="48.61887" lon="1.63379">
        <ele>127</ele>
        <time>2010-05-14T13:27:11Z</time>
      </trkpt>
      <trkpt lat="48.61886" lon="1.63378">
        <ele>127</ele>
        <time>2010-05-14T13:27:12Z</time>
      </trkpt>
      <trkpt lat="48.61885" lon="1.63376">
        <ele>127</ele>
        <time>2010-05-14T13:27:13Z</time>
      </trkpt>
      <trkpt lat="48.61885" lon="1.63374">
        <ele>127</ele>
        <time>2010-05-14T13:27:14Z</time>
      </trkpt>
      <trkpt lat="48.61884" lon="1.63372">
        <ele>127</ele>
        <time>2010-05-14T13:27:15Z</time>
      </trkpt>
      <trkpt lat="48.61883" lon="1.6337">
        <ele>127</ele>
        <time>2010-05-14T13:27:16Z</time>
      </trkpt>
      <trkpt lat="48.61882" lon="1.63368">
        <ele>127</ele>
        <time>2010-05-14T13:27:17Z</time>
      </trkpt>
      <trkpt lat="48.61881" lon="1.63366">
        <ele>127</ele>
        <time>2010-05-14T13:27:18Z</time>
      </trkpt>
      <trkpt lat="48.61881" lon="1.63364">
        <ele>127</ele>
        <time>2010-05-14T13:27:19Z</time>
      </trkpt>
      <trkpt lat="48.6188" lon="1.63362">
        <ele>127</ele>
        <time>2010-05-14T13:27:20Z</time>
      </trkpt>
      <trkpt lat="48.61879" lon="1.63359">
        <ele>127</ele>
        <time>2010-05-14T13:27:21Z</time>
      </trkpt>
      <trkpt lat="48.61878" lon="1.63357">
        <ele>127</ele>
        <time>2010-05-14T13:27:22Z</time>
      </trkpt>
      <trkpt lat="48.61877" lon="1.63354">
        <ele>127</ele>
        <time>2010-05-14T13:27:23Z</time>
      </trkpt>
      <trkpt lat="48.61877" lon="1.63352">
        <ele>127</ele>
        <time>2010-05-14T13:27:24Z</time>
      </trkpt>
      <trkpt lat="48.61876" lon="1.6335">
        <ele>127</ele>
        <time>2010-05-14T13:27:25Z</time>
      </trkpt>
      <trkpt lat="48.61875" lon="1.63348">
        <ele>127</ele>
        <time>2010-05-14T13:27:26Z</time>
      </trkpt>
      <trkpt lat="48.61875" lon="1.63346">
        <ele>127</ele>
        <time>2010-05-14T13:27:27Z</time>
      </trkpt>
      <trkpt lat="48.61874" lon="1.63344">
        <ele>127</ele>
        <time>2010-05-14T13:27:28Z</time>
      </trkpt>
      <trkpt lat="48.61874" lon="1.63342">
        <ele>127</ele>
        <time>2010-05-14T13:27:29Z</time>
      </trkpt>
      <trkpt lat="48.61872" lon="1.63339">
        <ele>127</ele>
        <time>2010-05-14T13:27:30Z</time>
      </trkpt>
      <trkpt lat="48.61871" lon="1.63337">
        <ele>127</ele>
        <time>2010-05-14T13:27:31Z</time>
      </trkpt>
      <trkpt lat="48.6187" lon="1.63334">
        <ele>127</ele>
        <time>2010-05-14T13:27:32Z</time>
      </trkpt>
      <trkpt lat="48.61869" lon="1.63331">
        <ele>127</ele>
        <time>2010-05-14T13:27:33Z</time>
      </trkpt>
      <trkpt lat="48.61868" lon="1.63327">
        <ele>127</ele>
        <time>2010-05-14T13:27:34Z</time>
      </trkpt>
      <trkpt lat="48.61867" lon="1.63325">
        <ele>127</ele>
        <time>2010-05-14T13:27:35Z</time>
      </trkpt>
      <trkpt lat="48.61867" lon="1.63322">
        <ele>127</ele>
        <time>2010-05-14T13:27:36Z</time>
      </trkpt>
      <trkpt lat="48.61866" lon="1.6332">
        <ele>127</ele>
        <time>2010-05-14T13:27:37Z</time>
      </trkpt>
      <trkpt lat="48.61865" lon="1.63317">
        <ele>127</ele>
        <time>2010-05-14T13:27:39Z</time>
      </trkpt>
      <trkpt lat="48.61864" lon="1.63315">
        <ele>127</ele>
        <time>2010-05-14T13:27:40Z</time>
      </trkpt>
      <trkpt lat="48.61863" lon="1.63313">
        <ele>127</ele>
        <time>2010-05-14T13:27:41Z</time>
      </trkpt>
      <trkpt lat="48.61863" lon="1.6331">
        <ele>127</ele>
        <time>2010-05-14T13:27:42Z</time>
      </trkpt>
      <trkpt lat="48.61862" lon="1.63309">
        <ele>127</ele>
        <time>2010-05-14T13:27:43Z</time>
      </trkpt>
      <trkpt lat="48.61861" lon="1.63307">
        <ele>127</ele>
        <time>2010-05-14T13:27:44Z</time>
      </trkpt>
      <trkpt lat="48.6186" lon="1.63304">
        <ele>127</ele>
        <time>2010-05-14T13:27:45Z</time>
      </trkpt>
      <trkpt lat="48.6186" lon="1.63302">
        <ele>128</ele>
        <time>2010-05-14T13:27:46Z</time>
      </trkpt>
      <trkpt lat="48.61859" lon="1.633">
        <ele>128</ele>
        <time>2010-05-14T13:27:47Z</time>
      </trkpt>
      <trkpt lat="48.61858" lon="1.63297">
        <ele>128</ele>
        <time>2010-05-14T13:27:48Z</time>
      </trkpt>
      <trkpt lat="48.61857" lon="1.63295">
        <ele>128</ele>
        <time>2010-05-14T13:27:49Z</time>
      </trkpt>
      <trkpt lat="48.61856" lon="1.63293">
        <ele>128</ele>
        <time>2010-05-14T13:27:50Z</time>
      </trkpt>
      <trkpt lat="48.61856" lon="1.63291">
        <ele>128</ele>
        <time>2010-05-14T13:27:51Z</time>
      </trkpt>
      <trkpt lat="48.61855" lon="1.63289">
        <ele>128</ele>
        <time>2010-05-14T13:27:52Z</time>
      </trkpt>
      <trkpt lat="48.61853" lon="1.63286">
        <ele>128</ele>
        <time>2010-05-14T13:27:54Z</time>
      </trkpt>
      <trkpt lat="48.61852" lon="1.63284">
        <ele>128</ele>
        <time>2010-05-14T13:27:55Z</time>
      </trkpt>
      <trkpt lat="48.61851" lon="1.63282">
        <ele>128</ele>
        <time>2010-05-14T13:27:56Z</time>
      </trkpt>
      <trkpt lat="48.6185" lon="1.63281">
        <ele>128</ele>
        <time>2010-05-14T13:27:57Z</time>
      </trkpt>
      <trkpt lat="48.61849" lon="1.63277">
        <ele>128</ele>
        <time>2010-05-14T13:27:59Z</time>
      </trkpt>
      <trkpt lat="48.61848" lon="1.63275">
        <ele>128</ele>
        <time>2010-05-14T13:28:00Z</time>
      </trkpt>
      <trkpt lat="48.61848" lon="1.63273">
        <ele>128</ele>
        <time>2010-05-14T13:28:01Z</time>
      </trkpt>
      <trkpt lat="48.61847" lon="1.63271">
        <ele>128</ele>
        <time>2010-05-14T13:28:02Z</time>
      </trkpt>
      <trkpt lat="48.61846" lon="1.63269">
        <ele>128</ele>
        <time>2010-05-14T13:28:03Z</time>
      </trkpt>
      <trkpt lat="48.61845" lon="1.63267">
        <ele>128</ele>
        <time>2010-05-14T13:28:04Z</time>
      </trkpt>
      <trkpt lat="48.61844" lon="1.63265">
        <ele>128</ele>
        <time>2010-05-14T13:28:05Z</time>
      </trkpt>
      <trkpt lat="48.61844" lon="1.63263">
        <ele>128</ele>
        <time>2010-05-14T13:28:06Z</time>
      </trkpt>
      <trkpt lat="48.61843" lon="1.6326">
        <ele>128</ele>
        <time>2010-05-14T13:28:07Z</time>
      </trkpt>
      <trkpt lat="48.61842" lon="1.63258">
        <ele>128</ele>
        <time>2010-05-14T13:28:08Z</time>
      </trkpt>
      <trkpt lat="48.61842" lon="1.63256">
        <ele>128</ele>
        <time>2010-05-14T13:28:09Z</time>
      </trkpt>
      <trkpt lat="48.61841" lon="1.63254">
        <ele>128</ele>
        <time>2010-05-14T13:28:10Z</time>
      </trkpt>
      <trkpt lat="48.61841" lon="1.63252">
        <ele>128</ele>
        <time>2010-05-14T13:28:11Z</time>
      </trkpt>
      <trkpt lat="48.6184" lon="1.6325">
        <ele>128</ele>
        <time>2010-05-14T13:28:12Z</time>
      </trkpt>
      <trkpt lat="48.6184" lon="1.63248">
        <ele>128</ele>
        <time>2010-05-14T13:28:13Z</time>
      </trkpt>
      <trkpt lat="48.61839" lon="1.63246">
        <ele>128</ele>
        <time>2010-05-14T13:28:14Z</time>
      </trkpt>
      <trkpt lat="48.61839" lon="1.63243">
        <ele>128</ele>
        <time>2010-05-14T13:28:15Z</time>
      </trkpt>
      <trkpt lat="48.61839" lon="1.63241">
        <ele>128</ele>
        <time>2010-05-14T13:28:16Z</time>
      </trkpt>
      <trkpt lat="48.61838" lon="1.63239">
        <ele>128</ele>
        <time>2010-05-14T13:28:17Z</time>
      </trkpt>
      <trkpt lat="48.61838" lon="1.63236">
        <ele>128</ele>
        <time>2010-05-14T13:28:18Z</time>
      </trkpt>
      <trkpt lat="48.61838" lon="1.63234">
        <ele>128</ele>
        <time>2010-05-14T13:28:19Z</time>
      </trkpt>
      <trkpt lat="48.61837" lon="1.63231">
        <ele>128</ele>
        <time>2010-05-14T13:28:20Z</time>
      </trkpt>
      <trkpt lat="48.61837" lon="1.63229">
        <ele>128</ele>
        <time>2010-05-14T13:28:21Z</time>
      </trkpt>
      <trkpt lat="48.61837" lon="1.63226">
        <ele>128</ele>
        <time>2010-05-14T13:28:22Z</time>
      </trkpt>
      <trkpt lat="48.61837" lon="1.63224">
        <ele>128</ele>
        <time>2010-05-14T13:28:23Z</time>
      </trkpt>
      <trkpt lat="48.61837" lon="1.63222">
        <ele>128</ele>
        <time>2010-05-14T13:28:24Z</time>
      </trkpt>
      <trkpt lat="48.61836" lon="1.6322">
        <ele>128</ele>
        <time>2010-05-14T13:28:25Z</time>
      </trkpt>
      <trkpt lat="48.61836" lon="1.63218">
        <ele>128</ele>
        <time>2010-05-14T13:28:26Z</time>
      </trkpt>
      <trkpt lat="48.61836" lon="1.63216">
        <ele>128</ele>
        <time>2010-05-14T13:28:27Z</time>
      </trkpt>
      <trkpt lat="48.61835" lon="1.63214">
        <ele>128</ele>
        <time>2010-05-14T13:28:28Z</time>
      </trkpt>
      <trkpt lat="48.61834" lon="1.63212">
        <ele>128</ele>
        <time>2010-05-14T13:28:29Z</time>
      </trkpt>
      <trkpt lat="48.61834" lon="1.6321">
        <ele>128</ele>
        <time>2010-05-14T13:28:30Z</time>
      </trkpt>
      <trkpt lat="48.61834" lon="1.63207">
        <ele>128</ele>
        <time>2010-05-14T13:28:31Z</time>
      </trkpt>
      <trkpt lat="48.61833" lon="1.63205">
        <ele>128</ele>
        <time>2010-05-14T13:28:32Z</time>
      </trkpt>
      <trkpt lat="48.61833" lon="1.63201">
        <ele>128</ele>
        <time>2010-05-14T13:28:33Z</time>
      </trkpt>
      <trkpt lat="48.61832" lon="1.63198">
        <ele>128</ele>
        <time>2010-05-14T13:28:34Z</time>
      </trkpt>
      <trkpt lat="48.61831" lon="1.63196">
        <ele>127</ele>
        <time>2010-05-14T13:28:35Z</time>
      </trkpt>
      <trkpt lat="48.61831" lon="1.63193">
        <ele>126</ele>
        <time>2010-05-14T13:28:36Z</time>
      </trkpt>
      <trkpt lat="48.6183" lon="1.63191">
        <ele>125</ele>
        <time>2010-05-14T13:28:37Z</time>
      </trkpt>
      <trkpt lat="48.6183" lon="1.63188">
        <ele>125</ele>
        <time>2010-05-14T13:28:38Z</time>
      </trkpt>
      <trkpt lat="48.6183" lon="1.63186">
        <ele>124</ele>
        <time>2010-05-14T13:28:39Z</time>
      </trkpt>
      <trkpt lat="48.61829" lon="1.63184">
        <ele>124</ele>
        <time>2010-05-14T13:28:40Z</time>
      </trkpt>
      <trkpt lat="48.61829" lon="1.63182">
        <ele>124</ele>
        <time>2010-05-14T13:28:41Z</time>
      </trkpt>
      <trkpt lat="48.61828" lon="1.6318">
        <ele>123</ele>
        <time>2010-05-14T13:28:42Z</time>
      </trkpt>
      <trkpt lat="48.61828" lon="1.63178">
        <ele>123</ele>
        <time>2010-05-14T13:28:43Z</time>
      </trkpt>
      <trkpt lat="48.61828" lon="1.63176">
        <ele>123</ele>
        <time>2010-05-14T13:28:44Z</time>
      </trkpt>
      <trkpt lat="48.61827" lon="1.63174">
        <ele>123</ele>
        <time>2010-05-14T13:28:45Z</time>
      </trkpt>
      <trkpt lat="48.61827" lon="1.63172">
        <ele>123</ele>
        <time>2010-05-14T13:28:46Z</time>
      </trkpt>
      <trkpt lat="48.61826" lon="1.6317">
        <ele>122</ele>
        <time>2010-05-14T13:28:47Z</time>
      </trkpt>
      <trkpt lat="48.61825" lon="1.63169">
        <ele>122</ele>
        <time>2010-05-14T13:28:48Z</time>
      </trkpt>
      <trkpt lat="48.61825" lon="1.63167">
        <ele>122</ele>
        <time>2010-05-14T13:28:49Z</time>
      </trkpt>
      <trkpt lat="48.61823" lon="1.63164">
        <ele>122</ele>
        <time>2010-05-14T13:28:51Z</time>
      </trkpt>
      <trkpt lat="48.61822" lon="1.63162">
        <ele>121</ele>
        <time>2010-05-14T13:28:52Z</time>
      </trkpt>
      <trkpt lat="48.61822" lon="1.6316">
        <ele>121</ele>
        <time>2010-05-14T13:28:53Z</time>
      </trkpt>
      <trkpt lat="48.61821" lon="1.63158">
        <ele>120</ele>
        <time>2010-05-14T13:28:54Z</time>
      </trkpt>
      <trkpt lat="48.6182" lon="1.63156">
        <ele>120</ele>
        <time>2010-05-14T13:28:55Z</time>
      </trkpt>
      <trkpt lat="48.61818" lon="1.63153">
        <ele>119</ele>
        <time>2010-05-14T13:28:57Z</time>
      </trkpt>
      <trkpt lat="48.61817" lon="1.63151">
        <ele>119</ele>
        <time>2010-05-14T13:28:58Z</time>
      </trkpt>
      <trkpt lat="48.61816" lon="1.63149">
        <ele>118</ele>
        <time>2010-05-14T13:28:59Z</time>
      </trkpt>
      <trkpt lat="48.61815" lon="1.63148">
        <ele>118</ele>
        <time>2010-05-14T13:29:00Z</time>
      </trkpt>
      <trkpt lat="48.61814" lon="1.63146">
        <ele>117</ele>
        <time>2010-05-14T13:29:01Z</time>
      </trkpt>
      <trkpt lat="48.61813" lon="1.63144">
        <ele>117</ele>
        <time>2010-05-14T13:29:02Z</time>
      </trkpt>
      <trkpt lat="48.61812" lon="1.63142">
        <ele>117</ele>
        <time>2010-05-14T13:29:03Z</time>
      </trkpt>
      <trkpt lat="48.61811" lon="1.6314">
        <ele>117</ele>
        <time>2010-05-14T13:29:04Z</time>
      </trkpt>
      <trkpt lat="48.61809" lon="1.63138">
        <ele>117</ele>
        <time>2010-05-14T13:29:05Z</time>
      </trkpt>
      <trkpt lat="48.61808" lon="1.63137">
        <ele>117</ele>
        <time>2010-05-14T13:29:06Z</time>
      </trkpt>
      <trkpt lat="48.61807" lon="1.63136">
        <ele>116</ele>
        <time>2010-05-14T13:29:07Z</time>
      </trkpt>
      <trkpt lat="48.61805" lon="1.63133">
        <ele>116</ele>
        <time>2010-05-14T13:29:09Z</time>
      </trkpt>
      <trkpt lat="48.61803" lon="1.6313">
        <ele>115</ele>
        <time>2010-05-14T13:29:11Z</time>
      </trkpt>
      <trkpt lat="48.61801" lon="1.63127">
        <ele>115</ele>
        <time>2010-05-14T13:29:13Z</time>
      </trkpt>
      <trkpt lat="48.618" lon="1.63126">
        <ele>115</ele>
        <time>2010-05-14T13:29:14Z</time>
      </trkpt>
      <trkpt lat="48.61798" lon="1.63124">
        <ele>114</ele>
        <time>2010-05-14T13:29:15Z</time>
      </trkpt>
      <trkpt lat="48.61796" lon="1.63122">
        <ele>114</ele>
        <time>2010-05-14T13:29:17Z</time>
      </trkpt>
      <trkpt lat="48.61795" lon="1.6312">
        <ele>114</ele>
        <time>2010-05-14T13:29:18Z</time>
      </trkpt>
      <trkpt lat="48.61794" lon="1.63119">
        <ele>113</ele>
        <time>2010-05-14T13:29:19Z</time>
      </trkpt>
      <trkpt lat="48.61793" lon="1.63118">
        <ele>113</ele>
        <time>2010-05-14T13:29:20Z</time>
      </trkpt>
      <trkpt lat="48.61792" lon="1.63117">
        <ele>113</ele>
        <time>2010-05-14T13:29:21Z</time>
      </trkpt>
      <trkpt lat="48.6179" lon="1.63115">
        <ele>112</ele>
        <time>2010-05-14T13:29:22Z</time>
      </trkpt>
      <trkpt lat="48.61789" lon="1.63114">
        <ele>112</ele>
        <time>2010-05-14T13:29:23Z</time>
      </trkpt>
      <trkpt lat="48.61788" lon="1.63112">
        <ele>112</ele>
        <time>2010-05-14T13:29:24Z</time>
      </trkpt>
      <trkpt lat="48.61787" lon="1.6311">
        <ele>112</ele>
        <time>2010-05-14T13:29:25Z</time>
      </trkpt>
      <trkpt lat="48.61786" lon="1.63108">
        <ele>112</ele>
        <time>2010-05-14T13:29:26Z</time>
      </trkpt>
      <trkpt lat="48.61785" lon="1.63107">
        <ele>112</ele>
        <time>2010-05-14T13:29:27Z</time>
      </trkpt>
      <trkpt lat="48.61784" lon="1.63105">
        <ele>111</ele>
        <time>2010-05-14T13:29:28Z</time>
      </trkpt>
      <trkpt lat="48.61782" lon="1.63102">
        <ele>111</ele>
        <time>2010-05-14T13:29:30Z</time>
      </trkpt>
      <trkpt lat="48.6178" lon="1.63101">
        <ele>111</ele>
        <time>2010-05-14T13:29:31Z</time>
      </trkpt>
      <trkpt lat="48.61779" lon="1.631">
        <ele>110</ele>
        <time>2010-05-14T13:29:32Z</time>
      </trkpt>
      <trkpt lat="48.61778" lon="1.63098">
        <ele>110</ele>
        <time>2010-05-14T13:29:33Z</time>
      </trkpt>
      <trkpt lat="48.61777" lon="1.63097">
        <ele>110</ele>
        <time>2010-05-14T13:29:34Z</time>
      </trkpt>
      <trkpt lat="48.61775" lon="1.63096">
        <ele>110</ele>
        <time>2010-05-14T13:29:35Z</time>
      </trkpt>
      <trkpt lat="48.61774" lon="1.63095">
        <ele>109</ele>
        <time>2010-05-14T13:29:36Z</time>
      </trkpt>
      <trkpt lat="48.61773" lon="1.63093">
        <ele>109</ele>
        <time>2010-05-14T13:29:37Z</time>
      </trkpt>
      <trkpt lat="48.61772" lon="1.63092">
        <ele>109</ele>
        <time>2010-05-14T13:29:38Z</time>
      </trkpt>
      <trkpt lat="48.61771" lon="1.6309">
        <ele>109</ele>
        <time>2010-05-14T13:29:39Z</time>
      </trkpt>
      <trkpt lat="48.6177" lon="1.63089">
        <ele>108</ele>
        <time>2010-05-14T13:29:40Z</time>
      </trkpt>
      <trkpt lat="48.61768" lon="1.63087">
        <ele>108</ele>
        <time>2010-05-14T13:29:41Z</time>
      </trkpt>
      <trkpt lat="48.61767" lon="1.63086">
        <ele>108</ele>
        <time>2010-05-14T13:29:42Z</time>
      </trkpt>
      <trkpt lat="48.61766" lon="1.63084">
        <ele>107</ele>
        <time>2010-05-14T13:29:43Z</time>
      </trkpt>
      <trkpt lat="48.61765" lon="1.63083">
        <ele>107</ele>
        <time>2010-05-14T13:29:44Z</time>
      </trkpt>
      <trkpt lat="48.61763" lon="1.63081">
        <ele>107</ele>
        <time>2010-05-14T13:29:45Z</time>
      </trkpt>
      <trkpt lat="48.61762" lon="1.63079">
        <ele>107</ele>
        <time>2010-05-14T13:29:46Z</time>
      </trkpt>
      <trkpt lat="48.6176" lon="1.63077">
        <ele>106</ele>
        <time>2010-05-14T13:29:47Z</time>
      </trkpt>
      <trkpt lat="48.61758" lon="1.63074">
        <ele>106</ele>
        <time>2010-05-14T13:29:48Z</time>
      </trkpt>
      <trkpt lat="48.61756" lon="1.6307">
        <ele>106</ele>
        <time>2010-05-14T13:29:49Z</time>
      </trkpt>
      <trkpt lat="48.61754" lon="1.63067">
        <ele>106</ele>
        <time>2010-05-14T13:29:50Z</time>
      </trkpt>
      <trkpt lat="48.61753" lon="1.63064">
        <ele>106</ele>
        <time>2010-05-14T13:29:51Z</time>
      </trkpt>
      <trkpt lat="48.61751" lon="1.63061">
        <ele>106</ele>
        <time>2010-05-14T13:29:52Z</time>
      </trkpt>
      <trkpt lat="48.61749" lon="1.63058">
        <ele>106</ele>
        <time>2010-05-14T13:29:53Z</time>
      </trkpt>
      <trkpt lat="48.61748" lon="1.63055">
        <ele>106</ele>
        <time>2010-05-14T13:29:54Z</time>
      </trkpt>
      <trkpt lat="48.61747" lon="1.63053">
        <ele>106</ele>
        <time>2010-05-14T13:29:55Z</time>
      </trkpt>
      <trkpt lat="48.61746" lon="1.63051">
        <ele>106</ele>
        <time>2010-05-14T13:29:56Z</time>
      </trkpt>
      <trkpt lat="48.61745" lon="1.63049">
        <ele>106</ele>
        <time>2010-05-14T13:29:57Z</time>
      </trkpt>
      <trkpt lat="48.61744" lon="1.63047">
        <ele>106</ele>
        <time>2010-05-14T13:29:58Z</time>
      </trkpt>
      <trkpt lat="48.61743" lon="1.63046">
        <ele>106</ele>
        <time>2010-05-14T13:29:59Z</time>
      </trkpt>
      <trkpt lat="48.61742" lon="1.63044">
        <ele>106</ele>
        <time>2010-05-14T13:30:00Z</time>
      </trkpt>
      <trkpt lat="48.61741" lon="1.63042">
        <ele>106</ele>
        <time>2010-05-14T13:30:01Z</time>
      </trkpt>
      <trkpt lat="48.6174" lon="1.6304">
        <ele>106</ele>
        <time>2010-05-14T13:30:02Z</time>
      </trkpt>
      <trkpt lat="48.61739" lon="1.63038">
        <ele>106</ele>
        <time>2010-05-14T13:30:03Z</time>
      </trkpt>
      <trkpt lat="48.61738" lon="1.63037">
        <ele>106</ele>
        <time>2010-05-14T13:30:04Z</time>
      </trkpt>
      <trkpt lat="48.61737" lon="1.63035">
        <ele>106</ele>
        <time>2010-05-14T13:30:05Z</time>
      </trkpt>
      <trkpt lat="48.61736" lon="1.63033">
        <ele>106</ele>
        <time>2010-05-14T13:30:06Z</time>
      </trkpt>
      <trkpt lat="48.61735" lon="1.6303">
        <ele>106</ele>
        <time>2010-05-14T13:30:07Z</time>
      </trkpt>
      <trkpt lat="48.61733" lon="1.63027">
        <ele>106</ele>
        <time>2010-05-14T13:30:08Z</time>
      </trkpt>
      <trkpt lat="48.61733" lon="1.63025">
        <ele>106</ele>
        <time>2010-05-14T13:30:09Z</time>
      </trkpt>
      <trkpt lat="48.61731" lon="1.63023">
        <ele>106</ele>
        <time>2010-05-14T13:30:10Z</time>
      </trkpt>
      <trkpt lat="48.6173" lon="1.63022">
        <ele>106</ele>
        <time>2010-05-14T13:30:11Z</time>
      </trkpt>
      <trkpt lat="48.61729" lon="1.63019">
        <ele>106</ele>
        <time>2010-05-14T13:30:12Z</time>
      </trkpt>
      <trkpt lat="48.61728" lon="1.63017">
        <ele>106</ele>
        <time>2010-05-14T13:30:13Z</time>
      </trkpt>
      <trkpt lat="48.61726" lon="1.63014">
        <ele>106</ele>
        <time>2010-05-14T13:30:14Z</time>
      </trkpt>
      <trkpt lat="48.61725" lon="1.63012">
        <ele>106</ele>
        <time>2010-05-14T13:30:15Z</time>
      </trkpt>
      <trkpt lat="48.61724" lon="1.6301">
        <ele>107</ele>
        <time>2010-05-14T13:30:16Z</time>
      </trkpt>
      <trkpt lat="48.61723" lon="1.63008">
        <ele>107</ele>
        <time>2010-05-14T13:30:17Z</time>
      </trkpt>
      <trkpt lat="48.61722" lon="1.63007">
        <ele>107</ele>
        <time>2010-05-14T13:30:18Z</time>
      </trkpt>
      <trkpt lat="48.61721" lon="1.63005">
        <ele>107</ele>
        <time>2010-05-14T13:30:19Z</time>
      </trkpt>
      <trkpt lat="48.61719" lon="1.63003">
        <ele>107</ele>
        <time>2010-05-14T13:30:20Z</time>
      </trkpt>
      <trkpt lat="48.61718" lon="1.63001">
        <ele>107</ele>
        <time>2010-05-14T13:30:21Z</time>
      </trkpt>
      <trkpt lat="48.61717" lon="1.62999">
        <ele>107</ele>
        <time>2010-05-14T13:30:22Z</time>
      </trkpt>
      <trkpt lat="48.61716" lon="1.62997">
        <ele>107</ele>
        <time>2010-05-14T13:30:23Z</time>
      </trkpt>
      <trkpt lat="48.61715" lon="1.62995">
        <ele>107</ele>
        <time>2010-05-14T13:30:24Z</time>
      </trkpt>
      <trkpt lat="48.61713" lon="1.62993">
        <ele>107</ele>
        <time>2010-05-14T13:30:25Z</time>
      </trkpt>
      <trkpt lat="48.61712" lon="1.62991">
        <ele>107</ele>
        <time>2010-05-14T13:30:26Z</time>
      </trkpt>
      <trkpt lat="48.61712" lon="1.62989">
        <ele>107</ele>
        <time>2010-05-14T13:30:27Z</time>
      </trkpt>
      <trkpt lat="48.6171" lon="1.62987">
        <ele>107</ele>
        <time>2010-05-14T13:30:29Z</time>
      </trkpt>
      <trkpt lat="48.61709" lon="1.62985">
        <ele>107</ele>
        <time>2010-05-14T13:30:30Z</time>
      </trkpt>
      <trkpt lat="48.61707" lon="1.62983">
        <ele>107</ele>
        <time>2010-05-14T13:30:32Z</time>
      </trkpt>
      <trkpt lat="48.61705" lon="1.62981">
        <ele>107</ele>
        <time>2010-05-14T13:30:33Z</time>
      </trkpt>
      <trkpt lat="48.61704" lon="1.62979">
        <ele>107</ele>
        <time>2010-05-14T13:30:34Z</time>
      </trkpt>
      <trkpt lat="48.61702" lon="1.62978">
        <ele>107</ele>
        <time>2010-05-14T13:30:35Z</time>
      </trkpt>
      <trkpt lat="48.61701" lon="1.62976">
        <ele>108</ele>
        <time>2010-05-14T13:30:36Z</time>
      </trkpt>
      <trkpt lat="48.617" lon="1.62973">
        <ele>109</ele>
        <time>2010-05-14T13:30:37Z</time>
      </trkpt>
      <trkpt lat="48.617" lon="1.6297">
        <ele>110</ele>
        <time>2010-05-14T13:30:38Z</time>
      </trkpt>
      <trkpt lat="48.61699" lon="1.62967">
        <ele>111</ele>
        <time>2010-05-14T13:30:39Z</time>
      </trkpt>
      <trkpt lat="48.61697" lon="1.62966">
        <ele>111</ele>
        <time>2010-05-14T13:30:40Z</time>
      </trkpt>
      <trkpt lat="48.61696" lon="1.62965">
        <ele>112</ele>
        <time>2010-05-14T13:30:41Z</time>
      </trkpt>
      <trkpt lat="48.61694" lon="1.62961">
        <ele>112</ele>
        <time>2010-05-14T13:30:43Z</time>
      </trkpt>
      <trkpt lat="48.61693" lon="1.6296">
        <ele>112</ele>
        <time>2010-05-14T13:30:44Z</time>
      </trkpt>
      <trkpt lat="48.61692" lon="1.62958">
        <ele>113</ele>
        <time>2010-05-14T13:30:45Z</time>
      </trkpt>
      <trkpt lat="48.6169" lon="1.62956">
        <ele>113</ele>
        <time>2010-05-14T13:30:46Z</time>
      </trkpt>
      <trkpt lat="48.61688" lon="1.62953">
        <ele>114</ele>
        <time>2010-05-14T13:30:48Z</time>
      </trkpt>
      <trkpt lat="48.61687" lon="1.62952">
        <ele>114</ele>
        <time>2010-05-14T13:30:49Z</time>
      </trkpt>
      <trkpt lat="48.61685" lon="1.62949">
        <ele>114</ele>
        <time>2010-05-14T13:30:51Z</time>
      </trkpt>
      <trkpt lat="48.61684" lon="1.62946">
        <ele>115</ele>
        <time>2010-05-14T13:30:53Z</time>
      </trkpt>
      <trkpt lat="48.61683" lon="1.62944">
        <ele>115</ele>
        <time>2010-05-14T13:30:54Z</time>
      </trkpt>
      <trkpt lat="48.61682" lon="1.62942">
        <ele>116</ele>
        <time>2010-05-14T13:30:55Z</time>
      </trkpt>
      <trkpt lat="48.6168" lon="1.62941">
        <ele>117</ele>
        <time>2010-05-14T13:30:56Z</time>
      </trkpt>
      <trkpt lat="48.61679" lon="1.62939">
        <ele>117</ele>
        <time>2010-05-14T13:30:57Z</time>
      </trkpt>
      <trkpt lat="48.61678" lon="1.62938">
        <ele>117</ele>
        <time>2010-05-14T13:30:58Z</time>
      </trkpt>
      <trkpt lat="48.61676" lon="1.62935">
        <ele>117</ele>
        <time>2010-05-14T13:31:00Z</time>
      </trkpt>
      <trkpt lat="48.61675" lon="1.62934">
        <ele>117</ele>
        <time>2010-05-14T13:31:01Z</time>
      </trkpt>
      <trkpt lat="48.61673" lon="1.62932">
        <ele>117</ele>
        <time>2010-05-14T13:31:02Z</time>
      </trkpt>
      <trkpt lat="48.61672" lon="1.62931">
        <ele>117</ele>
        <time>2010-05-14T13:31:03Z</time>
      </trkpt>
      <trkpt lat="48.6167" lon="1.62928">
        <ele>117</ele>
        <time>2010-05-14T13:31:05Z</time>
      </trkpt>
      <trkpt lat="48.61669" lon="1.62927">
        <ele>117</ele>
        <time>2010-05-14T13:31:06Z</time>
      </trkpt>
      <trkpt lat="48.61667" lon="1.62924">
        <ele>117</ele>
        <time>2010-05-14T13:31:08Z</time>
      </trkpt>
      <trkpt lat="48.61665" lon="1.62921">
        <ele>117</ele>
        <time>2010-05-14T13:31:10Z</time>
      </trkpt>
      <trkpt lat="48.61664" lon="1.6292">
        <ele>117</ele>
        <time>2010-05-14T13:31:11Z</time>
      </trkpt>
      <trkpt lat="48.61662" lon="1.62919">
        <ele>117</ele>
        <time>2010-05-14T13:31:12Z</time>
      </trkpt>
      <trkpt lat="48.61661" lon="1.62918">
        <ele>117</ele>
        <time>2010-05-14T13:31:13Z</time>
      </trkpt>
      <trkpt lat="48.61659" lon="1.62916">
        <ele>117</ele>
        <time>2010-05-14T13:31:14Z</time>
      </trkpt>
      <trkpt lat="48.61658" lon="1.62915">
        <ele>117</ele>
        <time>2010-05-14T13:31:15Z</time>
      </trkpt>
      <trkpt lat="48.61657" lon="1.62914">
        <ele>117</ele>
        <time>2010-05-14T13:31:16Z</time>
      </trkpt>
      <trkpt lat="48.61655" lon="1.62913">
        <ele>117</ele>
        <time>2010-05-14T13:31:17Z</time>
      </trkpt>
      <trkpt lat="48.61654" lon="1.62912">
        <ele>117</ele>
        <time>2010-05-14T13:31:18Z</time>
      </trkpt>
      <trkpt lat="48.61652" lon="1.62911">
        <ele>117</ele>
        <time>2010-05-14T13:31:19Z</time>
      </trkpt>
      <trkpt lat="48.61651" lon="1.6291">
        <ele>117</ele>
        <time>2010-05-14T13:31:20Z</time>
      </trkpt>
      <trkpt lat="48.6165" lon="1.62908">
        <ele>117</ele>
        <time>2010-05-14T13:31:21Z</time>
      </trkpt>
      <trkpt lat="48.61649" lon="1.62903">
        <ele>117</ele>
        <time>2010-05-14T13:31:22Z</time>
      </trkpt>
      <trkpt lat="48.61648" lon="1.62901">
        <ele>117</ele>
        <time>2010-05-14T13:31:23Z</time>
      </trkpt>
      <trkpt lat="48.61646" lon="1.62899">
        <ele>117</ele>
        <time>2010-05-14T13:31:25Z</time>
      </trkpt>
      <trkpt lat="48.61645" lon="1.62896">
        <ele>117</ele>
        <time>2010-05-14T13:31:27Z</time>
      </trkpt>
      <trkpt lat="48.61643" lon="1.62894">
        <ele>117</ele>
        <time>2010-05-14T13:31:28Z</time>
      </trkpt>
      <trkpt lat="48.61642" lon="1.62893">
        <ele>117</ele>
        <time>2010-05-14T13:31:29Z</time>
      </trkpt>
      <trkpt lat="48.61639" lon="1.6289">
        <ele>117</ele>
        <time>2010-05-14T13:31:30Z</time>
      </trkpt>
      <trkpt lat="48.61638" lon="1.62887">
        <ele>117</ele>
        <time>2010-05-14T13:31:31Z</time>
      </trkpt>
      <trkpt lat="48.61636" lon="1.62884">
        <ele>117</ele>
        <time>2010-05-14T13:31:32Z</time>
      </trkpt>
      <trkpt lat="48.61635" lon="1.62881">
        <ele>118</ele>
        <time>2010-05-14T13:31:33Z</time>
      </trkpt>
      <trkpt lat="48.61634" lon="1.62878">
        <ele>118</ele>
        <time>2010-05-14T13:31:34Z</time>
      </trkpt>
      <trkpt lat="48.61634" lon="1.62875">
        <ele>119</ele>
        <time>2010-05-14T13:31:35Z</time>
      </trkpt>
      <trkpt lat="48.61632" lon="1.62872">
        <ele>120</ele>
        <time>2010-05-14T13:31:36Z</time>
      </trkpt>
      <trkpt lat="48.61631" lon="1.6287">
        <ele>120</ele>
        <time>2010-05-14T13:31:37Z</time>
      </trkpt>
      <trkpt lat="48.61629" lon="1.62869">
        <ele>120</ele>
        <time>2010-05-14T13:31:39Z</time>
      </trkpt>
      <trkpt lat="48.61628" lon="1.62868">
        <ele>120</ele>
        <time>2010-05-14T13:31:40Z</time>
      </trkpt>
      <trkpt lat="48.61626" lon="1.62867">
        <ele>120</ele>
        <time>2010-05-14T13:31:41Z</time>
      </trkpt>
      <trkpt lat="48.61625" lon="1.62866">
        <ele>120</ele>
        <time>2010-05-14T13:31:44Z</time>
      </trkpt>
      <trkpt lat="48.61623" lon="1.62864">
        <ele>120</ele>
        <time>2010-05-14T13:31:47Z</time>
      </trkpt>
      <trkpt lat="48.61621" lon="1.62859">
        <ele>120</ele>
        <time>2010-05-14T13:31:49Z</time>
      </trkpt>
      <trkpt lat="48.6162" lon="1.62858">
        <ele>121</ele>
        <time>2010-05-14T13:31:50Z</time>
      </trkpt>
      <trkpt lat="48.61611" lon="1.62848">
        <ele>122</ele>
        <time>2010-05-14T13:31:56Z</time>
      </trkpt>
      <trkpt lat="48.61607" lon="1.62844">
        <ele>123</ele>
        <time>2010-05-14T13:31:57Z</time>
      </trkpt>
      <trkpt lat="48.61604" lon="1.62846">
        <ele>123</ele>
        <time>2010-05-14T13:31:58Z</time>
      </trkpt>
      <trkpt lat="48.61602" lon="1.62848">
        <ele>123</ele>
        <time>2010-05-14T13:31:59Z</time>
      </trkpt>
      <trkpt lat="48.61599" lon="1.62849">
        <ele>123</ele>
        <time>2010-05-14T13:32:01Z</time>
      </trkpt>
      <trkpt lat="48.61597" lon="1.62848">
        <ele>123</ele>
        <time>2010-05-14T13:32:03Z</time>
      </trkpt>
      <trkpt lat="48.61595" lon="1.62847">
        <ele>123</ele>
        <time>2010-05-14T13:32:04Z</time>
      </trkpt>
      <trkpt lat="48.61594" lon="1.62847">
        <ele>123</ele>
        <time>2010-05-14T13:32:05Z</time>
      </trkpt>
      <trkpt lat="48.61592" lon="1.62847">
        <ele>123</ele>
        <time>2010-05-14T13:32:06Z</time>
      </trkpt>
      <trkpt lat="48.61591" lon="1.62846">
        <ele>123</ele>
        <time>2010-05-14T13:32:07Z</time>
      </trkpt>
      <trkpt lat="48.6159" lon="1.62847">
        <ele>123</ele>
        <time>2010-05-14T13:32:08Z</time>
      </trkpt>
      <trkpt lat="48.61589" lon="1.62846">
        <ele>123</ele>
        <time>2010-05-14T13:32:09Z</time>
      </trkpt>
      <trkpt lat="48.61587" lon="1.62845">
        <ele>122</ele>
        <time>2010-05-14T13:32:10Z</time>
      </trkpt>
      <trkpt lat="48.61586" lon="1.62842">
        <ele>121</ele>
        <time>2010-05-14T13:32:11Z</time>
      </trkpt>
      <trkpt lat="48.61584" lon="1.6284">
        <ele>120</ele>
        <time>2010-05-14T13:32:12Z</time>
      </trkpt>
      <trkpt lat="48.61583" lon="1.6284">
        <ele>119</ele>
        <time>2010-05-14T13:32:13Z</time>
      </trkpt>
      <trkpt lat="48.61582" lon="1.62839">
        <ele>118</ele>
        <time>2010-05-14T13:32:14Z</time>
      </trkpt>
      <trkpt lat="48.61579" lon="1.62837">
        <ele>116</ele>
        <time>2010-05-14T13:32:16Z</time>
      </trkpt>
      <trkpt lat="48.61578" lon="1.62836">
        <ele>115</ele>
        <time>2010-05-14T13:32:17Z</time>
      </trkpt>
      <trkpt lat="48.61577" lon="1.62835">
        <ele>114</ele>
        <time>2010-05-14T13:32:18Z</time>
      </trkpt>
      <trkpt lat="48.61575" lon="1.62835">
        <ele>113</ele>
        <time>2010-05-14T13:32:19Z</time>
      </trkpt>
      <trkpt lat="48.61573" lon="1.62833">
        <ele>112</ele>
        <time>2010-05-14T13:32:20Z</time>
      </trkpt>
      <trkpt lat="48.61572" lon="1.62832">
        <ele>111</ele>
        <time>2010-05-14T13:32:21Z</time>
      </trkpt>
      <trkpt lat="48.61571" lon="1.62832">
        <ele>110</ele>
        <time>2010-05-14T13:32:22Z</time>
      </trkpt>
      <trkpt lat="48.61569" lon="1.62832">
        <ele>109</ele>
        <time>2010-05-14T13:32:23Z</time>
      </trkpt>
      <trkpt lat="48.61568" lon="1.62832">
        <ele>109</ele>
        <time>2010-05-14T13:32:24Z</time>
      </trkpt>
      <trkpt lat="48.61566" lon="1.62832">
        <ele>109</ele>
        <time>2010-05-14T13:32:25Z</time>
      </trkpt>
      <trkpt lat="48.61564" lon="1.62831">
        <ele>108</ele>
        <time>2010-05-14T13:32:26Z</time>
      </trkpt>
      <trkpt lat="48.61563" lon="1.62831">
        <ele>108</ele>
        <time>2010-05-14T13:32:27Z</time>
      </trkpt>
      <trkpt lat="48.61561" lon="1.62831">
        <ele>108</ele>
        <time>2010-05-14T13:32:28Z</time>
      </trkpt>
      <trkpt lat="48.6156" lon="1.62832">
        <ele>108</ele>
        <time>2010-05-14T13:32:29Z</time>
      </trkpt>
      <trkpt lat="48.61559" lon="1.62832">
        <ele>108</ele>
        <time>2010-05-14T13:32:30Z</time>
      </trkpt>
      <trkpt lat="48.61557" lon="1.62832">
        <ele>108</ele>
        <time>2010-05-14T13:32:31Z</time>
      </trkpt>
      <trkpt lat="48.61556" lon="1.62831">
        <ele>108</ele>
        <time>2010-05-14T13:32:32Z</time>
      </trkpt>
      <trkpt lat="48.61554" lon="1.6283">
        <ele>108</ele>
        <time>2010-05-14T13:32:33Z</time>
      </trkpt>
      <trkpt lat="48.61553" lon="1.6283">
        <ele>108</ele>
        <time>2010-05-14T13:32:34Z</time>
      </trkpt>
      <trkpt lat="48.61551" lon="1.6283">
        <ele>108</ele>
        <time>2010-05-14T13:32:35Z</time>
      </trkpt>
      <trkpt lat="48.6155" lon="1.62829">
        <ele>108</ele>
        <time>2010-05-14T13:32:36Z</time>
      </trkpt>
      <trkpt lat="48.61548" lon="1.62828">
        <ele>108</ele>
        <time>2010-05-14T13:32:37Z</time>
      </trkpt>
      <trkpt lat="48.61547" lon="1.62827">
        <ele>108</ele>
        <time>2010-05-14T13:32:38Z</time>
      </trkpt>
      <trkpt lat="48.61546" lon="1.62826">
        <ele>108</ele>
        <time>2010-05-14T13:32:39Z</time>
      </trkpt>
      <trkpt lat="48.61545" lon="1.62825">
        <ele>108</ele>
        <time>2010-05-14T13:32:40Z</time>
      </trkpt>
      <trkpt lat="48.61542" lon="1.62822">
        <ele>108</ele>
        <time>2010-05-14T13:32:42Z</time>
      </trkpt>
      <trkpt lat="48.61541" lon="1.62821">
        <ele>108</ele>
        <time>2010-05-14T13:32:43Z</time>
      </trkpt>
      <trkpt lat="48.6154" lon="1.62819">
        <ele>108</ele>
        <time>2010-05-14T13:32:44Z</time>
      </trkpt>
      <trkpt lat="48.61539" lon="1.62819">
        <ele>108</ele>
        <time>2010-05-14T13:32:45Z</time>
      </trkpt>
      <trkpt lat="48.61537" lon="1.62817">
        <ele>108</ele>
        <time>2010-05-14T13:32:48Z</time>
      </trkpt>
      <trkpt lat="48.61536" lon="1.62816">
        <ele>108</ele>
        <time>2010-05-14T13:32:49Z</time>
      </trkpt>
      <trkpt lat="48.61534" lon="1.62816">
        <ele>108</ele>
        <time>2010-05-14T13:32:50Z</time>
      </trkpt>
      <trkpt lat="48.61533" lon="1.62815">
        <ele>108</ele>
        <time>2010-05-14T13:32:51Z</time>
      </trkpt>
      <trkpt lat="48.6153" lon="1.62813">
        <ele>108</ele>
        <time>2010-05-14T13:32:53Z</time>
      </trkpt>
      <trkpt lat="48.61528" lon="1.62811">
        <ele>108</ele>
        <time>2010-05-14T13:32:54Z</time>
      </trkpt>
      <trkpt lat="48.61526" lon="1.62809">
        <ele>109</ele>
        <time>2010-05-14T13:32:55Z</time>
      </trkpt>
      <trkpt lat="48.61525" lon="1.62808">
        <ele>109</ele>
        <time>2010-05-14T13:32:56Z</time>
      </trkpt>
      <trkpt lat="48.61522" lon="1.62805">
        <ele>109</ele>
        <time>2010-05-14T13:32:57Z</time>
      </trkpt>
      <trkpt lat="48.61521" lon="1.62803">
        <ele>110</ele>
        <time>2010-05-14T13:32:58Z</time>
      </trkpt>
      <trkpt lat="48.61519" lon="1.62801">
        <ele>111</ele>
        <time>2010-05-14T13:32:59Z</time>
      </trkpt>
      <trkpt lat="48.61518" lon="1.62797">
        <ele>112</ele>
        <time>2010-05-14T13:33:00Z</time>
      </trkpt>
      <trkpt lat="48.61516" lon="1.62793">
        <ele>113</ele>
        <time>2010-05-14T13:33:01Z</time>
      </trkpt>
      <trkpt lat="48.61515" lon="1.62789">
        <ele>114</ele>
        <time>2010-05-14T13:33:02Z</time>
      </trkpt>
      <trkpt lat="48.61514" lon="1.62786">
        <ele>116</ele>
        <time>2010-05-14T13:33:04Z</time>
      </trkpt>
      <trkpt lat="48.61513" lon="1.62784">
        <ele>117</ele>
        <time>2010-05-14T13:33:05Z</time>
      </trkpt>
      <trkpt lat="48.61512" lon="1.62782">
        <ele>118</ele>
        <time>2010-05-14T13:33:06Z</time>
      </trkpt>
      <trkpt lat="48.61511" lon="1.62781">
        <ele>119</ele>
        <time>2010-05-14T13:33:07Z</time>
      </trkpt>
      <trkpt lat="48.6151" lon="1.62781">
        <ele>119</ele>
        <time>2010-05-14T13:33:08Z</time>
      </trkpt>
      <trkpt lat="48.61508" lon="1.6278">
        <ele>119</ele>
        <time>2010-05-14T13:33:09Z</time>
      </trkpt>
      <trkpt lat="48.61507" lon="1.62779">
        <ele>119</ele>
        <time>2010-05-14T13:33:10Z</time>
      </trkpt>
      <trkpt lat="48.61505" lon="1.62778">
        <ele>119</ele>
        <time>2010-05-14T13:33:11Z</time>
      </trkpt>
      <trkpt lat="48.61504" lon="1.62775">
        <ele>120</ele>
        <time>2010-05-14T13:33:12Z</time>
      </trkpt>
      <trkpt lat="48.61502" lon="1.62772">
        <ele>120</ele>
        <time>2010-05-14T13:33:13Z</time>
      </trkpt>
      <trkpt lat="48.61501" lon="1.6277">
        <ele>120</ele>
        <time>2010-05-14T13:33:14Z</time>
      </trkpt>
      <trkpt lat="48.61499" lon="1.62768">
        <ele>121</ele>
        <time>2010-05-14T13:33:15Z</time>
      </trkpt>
      <trkpt lat="48.61498" lon="1.62765">
        <ele>121</ele>
        <time>2010-05-14T13:33:16Z</time>
      </trkpt>
      <trkpt lat="48.61497" lon="1.62763">
        <ele>122</ele>
        <time>2010-05-14T13:33:17Z</time>
      </trkpt>
      <trkpt lat="48.61495" lon="1.62761">
        <ele>122</ele>
        <time>2010-05-14T13:33:18Z</time>
      </trkpt>
      <trkpt lat="48.61493" lon="1.6276">
        <ele>122</ele>
        <time>2010-05-14T13:33:19Z</time>
      </trkpt>
      <trkpt lat="48.61492" lon="1.62758">
        <ele>123</ele>
        <time>2010-05-14T13:33:21Z</time>
      </trkpt>
      <trkpt lat="48.61491" lon="1.62756">
        <ele>123</ele>
        <time>2010-05-14T13:33:22Z</time>
      </trkpt>
      <trkpt lat="48.61489" lon="1.62754">
        <ele>123</ele>
        <time>2010-05-14T13:33:23Z</time>
      </trkpt>
      <trkpt lat="48.61488" lon="1.62752">
        <ele>123</ele>
        <time>2010-05-14T13:33:24Z</time>
      </trkpt>
      <trkpt lat="48.61488" lon="1.6275">
        <ele>123</ele>
        <time>2010-05-14T13:33:25Z</time>
      </trkpt>
      <trkpt lat="48.61487" lon="1.62749">
        <ele>123</ele>
        <time>2010-05-14T13:33:26Z</time>
      </trkpt>
      <trkpt lat="48.61486" lon="1.62746">
        <ele>123</ele>
        <time>2010-05-14T13:33:28Z</time>
      </trkpt>
      <trkpt lat="48.61485" lon="1.62744">
        <ele>123</ele>
        <time>2010-05-14T13:33:29Z</time>
      </trkpt>
      <trkpt lat="48.61484" lon="1.62741">
        <ele>123</ele>
        <time>2010-05-14T13:33:30Z</time>
      </trkpt>
      <trkpt lat="48.61483" lon="1.62739">
        <ele>123</ele>
        <time>2010-05-14T13:33:31Z</time>
      </trkpt>
      <trkpt lat="48.61484" lon="1.62738">
        <ele>123</ele>
        <time>2010-05-14T13:33:32Z</time>
      </trkpt>
      <trkpt lat="48.61484" lon="1.62734">
        <ele>123</ele>
        <time>2010-05-14T13:33:34Z</time>
      </trkpt>
      <trkpt lat="48.61484" lon="1.62733">
        <ele>123</ele>
        <time>2010-05-14T13:33:35Z</time>
      </trkpt>
      <trkpt lat="48.61484" lon="1.62731">
        <ele>123</ele>
        <time>2010-05-14T13:33:36Z</time>
      </trkpt>
      <trkpt lat="48.61484" lon="1.62729">
        <ele>123</ele>
        <time>2010-05-14T13:33:37Z</time>
      </trkpt>
      <trkpt lat="48.61484" lon="1.62727">
        <ele>123</ele>
        <time>2010-05-14T13:33:38Z</time>
      </trkpt>
      <trkpt lat="48.61484" lon="1.62725">
        <ele>122</ele>
        <time>2010-05-14T13:33:39Z</time>
      </trkpt>
      <trkpt lat="48.61484" lon="1.62722">
        <ele>121</ele>
        <time>2010-05-14T13:33:40Z</time>
      </trkpt>
      <trkpt lat="48.61484" lon="1.6272">
        <ele>121</ele>
        <time>2010-05-14T13:33:41Z</time>
      </trkpt>
      <trkpt lat="48.61484" lon="1.62717">
        <ele>120</ele>
        <time>2010-05-14T13:33:42Z</time>
      </trkpt>
      <trkpt lat="48.61484" lon="1.6271">
        <ele>120</ele>
        <time>2010-05-14T13:33:45Z</time>
      </trkpt>
      <trkpt lat="48.61482" lon="1.62705">
        <ele>119</ele>
        <time>2010-05-14T13:33:46Z</time>
      </trkpt>
      <trkpt lat="48.61481" lon="1.62704">
        <ele>118</ele>
        <time>2010-05-14T13:33:47Z</time>
      </trkpt>
      <trkpt lat="48.6148" lon="1.62702">
        <ele>118</ele>
        <time>2010-05-14T13:33:48Z</time>
      </trkpt>
      <trkpt lat="48.6148" lon="1.627">
        <ele>117</ele>
        <time>2010-05-14T13:33:49Z</time>
      </trkpt>
      <trkpt lat="48.61479" lon="1.62698">
        <ele>116</ele>
        <time>2010-05-14T13:33:50Z</time>
      </trkpt>
      <trkpt lat="48.61479" lon="1.62695">
        <ele>115</ele>
        <time>2010-05-14T13:33:51Z</time>
      </trkpt>
      <trkpt lat="48.61478" lon="1.62693">
        <ele>114</ele>
        <time>2010-05-14T13:33:52Z</time>
      </trkpt>
      <trkpt lat="48.61479" lon="1.62691">
        <ele>113</ele>
        <time>2010-05-14T13:33:53Z</time>
      </trkpt>
      <trkpt lat="48.61479" lon="1.62689">
        <ele>111</ele>
        <time>2010-05-14T13:33:55Z</time>
      </trkpt>
      <trkpt lat="48.61479" lon="1.62688">
        <ele>110</ele>
        <time>2010-05-14T13:33:56Z</time>
      </trkpt>
      <trkpt lat="48.61479" lon="1.62684">
        <ele>110</ele>
        <time>2010-05-14T13:33:58Z</time>
      </trkpt>
      <trkpt lat="48.61481" lon="1.6268">
        <ele>110</ele>
        <time>2010-05-14T13:34:00Z</time>
      </trkpt>
      <trkpt lat="48.61482" lon="1.62679">
        <ele>110</ele>
        <time>2010-05-14T13:34:01Z</time>
      </trkpt>
      <trkpt lat="48.61483" lon="1.62676">
        <ele>110</ele>
        <time>2010-05-14T13:34:03Z</time>
      </trkpt>
      <trkpt lat="48.61484" lon="1.62672">
        <ele>110</ele>
        <time>2010-05-14T13:34:05Z</time>
      </trkpt>
      <trkpt lat="48.61484" lon="1.6267">
        <ele>109</ele>
        <time>2010-05-14T13:34:06Z</time>
      </trkpt>
      <trkpt lat="48.61485" lon="1.62667">
        <ele>109</ele>
        <time>2010-05-14T13:34:07Z</time>
      </trkpt>
      <trkpt lat="48.61485" lon="1.62665">
        <ele>108</ele>
        <time>2010-05-14T13:34:08Z</time>
      </trkpt>
      <trkpt lat="48.61486" lon="1.62663">
        <ele>108</ele>
        <time>2010-05-14T13:34:09Z</time>
      </trkpt>
      <trkpt lat="48.61486" lon="1.6266">
        <ele>108</ele>
        <time>2010-05-14T13:34:10Z</time>
      </trkpt>
      <trkpt lat="48.61487" lon="1.62658">
        <ele>108</ele>
        <time>2010-05-14T13:34:11Z</time>
      </trkpt>
      <trkpt lat="48.61488" lon="1.62656">
        <ele>108</ele>
        <time>2010-05-14T13:34:12Z</time>
      </trkpt>
      <trkpt lat="48.61488" lon="1.62654">
        <ele>108</ele>
        <time>2010-05-14T13:34:13Z</time>
      </trkpt>
      <trkpt lat="48.61488" lon="1.62651">
        <ele>108</ele>
        <time>2010-05-14T13:34:14Z</time>
      </trkpt>
      <trkpt lat="48.61488" lon="1.62648">
        <ele>108</ele>
        <time>2010-05-14T13:34:15Z</time>
      </trkpt>
      <trkpt lat="48.61489" lon="1.62646">
        <ele>108</ele>
        <time>2010-05-14T13:34:16Z</time>
      </trkpt>
      <trkpt lat="48.61489" lon="1.62643">
        <ele>108</ele>
        <time>2010-05-14T13:34:17Z</time>
      </trkpt>
      <trkpt lat="48.61489" lon="1.62641">
        <ele>108</ele>
        <time>2010-05-14T13:34:18Z</time>
      </trkpt>
      <trkpt lat="48.6149" lon="1.62639">
        <ele>108</ele>
        <time>2010-05-14T13:34:19Z</time>
      </trkpt>
      <trkpt lat="48.61491" lon="1.62637">
        <ele>108</ele>
        <time>2010-05-14T13:34:20Z</time>
      </trkpt>
      <trkpt lat="48.61492" lon="1.62634">
        <ele>108</ele>
        <time>2010-05-14T13:34:21Z</time>
      </trkpt>
      <trkpt lat="48.61492" lon="1.62631">
        <ele>108</ele>
        <time>2010-05-14T13:34:22Z</time>
      </trkpt>
      <trkpt lat="48.61493" lon="1.62628">
        <ele>108</ele>
        <time>2010-05-14T13:34:23Z</time>
      </trkpt>
      <trkpt lat="48.61493" lon="1.62625">
        <ele>108</ele>
        <time>2010-05-14T13:34:24Z</time>
      </trkpt>
      <trkpt lat="48.61493" lon="1.62623">
        <ele>108</ele>
        <time>2010-05-14T13:34:25Z</time>
      </trkpt>
      <trkpt lat="48.61493" lon="1.6262">
        <ele>108</ele>
        <time>2010-05-14T13:34:26Z</time>
      </trkpt>
      <trkpt lat="48.61493" lon="1.62617">
        <ele>107</ele>
        <time>2010-05-14T13:34:27Z</time>
      </trkpt>
      <trkpt lat="48.61492" lon="1.62614">
        <ele>107</ele>
        <time>2010-05-14T13:34:28Z</time>
      </trkpt>
      <trkpt lat="48.61492" lon="1.62612">
        <ele>106</ele>
        <time>2010-05-14T13:34:29Z</time>
      </trkpt>
      <trkpt lat="48.61492" lon="1.62609">
        <ele>106</ele>
        <time>2010-05-14T13:34:30Z</time>
      </trkpt>
      <trkpt lat="48.61491" lon="1.62607">
        <ele>106</ele>
        <time>2010-05-14T13:34:31Z</time>
      </trkpt>
      <trkpt lat="48.61489" lon="1.62605">
        <ele>106</ele>
        <time>2010-05-14T13:34:32Z</time>
      </trkpt>
      <trkpt lat="48.61488" lon="1.62603">
        <ele>106</ele>
        <time>2010-05-14T13:34:33Z</time>
      </trkpt>
      <trkpt lat="48.61486" lon="1.62601">
        <ele>106</ele>
        <time>2010-05-14T13:34:34Z</time>
      </trkpt>
      <trkpt lat="48.61486" lon="1.62599">
        <ele>106</ele>
        <time>2010-05-14T13:34:35Z</time>
      </trkpt>
      <trkpt lat="48.61485" lon="1.62597">
        <ele>106</ele>
        <time>2010-05-14T13:34:36Z</time>
      </trkpt>
      <trkpt lat="48.61486" lon="1.62593">
        <ele>106</ele>
        <time>2010-05-14T13:34:38Z</time>
      </trkpt>
      <trkpt lat="48.61484" lon="1.6259">
        <ele>106</ele>
        <time>2010-05-14T13:34:40Z</time>
      </trkpt>
      <trkpt lat="48.61483" lon="1.62588">
        <ele>106</ele>
        <time>2010-05-14T13:34:41Z</time>
      </trkpt>
      <trkpt lat="48.61481" lon="1.62586">
        <ele>106</ele>
        <time>2010-05-14T13:34:42Z</time>
      </trkpt>
      <trkpt lat="48.61479" lon="1.62584">
        <ele>106</ele>
        <time>2010-05-14T13:34:43Z</time>
      </trkpt>
      <trkpt lat="48.61477" lon="1.62583">
        <ele>106</ele>
        <time>2010-05-14T13:34:44Z</time>
      </trkpt>
      <trkpt lat="48.61476" lon="1.62582">
        <ele>107</ele>
        <time>2010-05-14T13:34:45Z</time>
      </trkpt>
      <trkpt lat="48.61474" lon="1.62581">
        <ele>108</ele>
        <time>2010-05-14T13:34:46Z</time>
      </trkpt>
      <trkpt lat="48.61472" lon="1.6258">
        <ele>109</ele>
        <time>2010-05-14T13:34:47Z</time>
      </trkpt>
      <trkpt lat="48.61471" lon="1.62579">
        <ele>110</ele>
        <time>2010-05-14T13:34:48Z</time>
      </trkpt>
      <trkpt lat="48.61469" lon="1.62577">
        <ele>111</ele>
        <time>2010-05-14T13:34:49Z</time>
      </trkpt>
      <trkpt lat="48.61468" lon="1.62574">
        <ele>112</ele>
        <time>2010-05-14T13:34:51Z</time>
      </trkpt>
      <trkpt lat="48.61467" lon="1.62571">
        <ele>112</ele>
        <time>2010-05-14T13:34:53Z</time>
      </trkpt>
      <trkpt lat="48.61466" lon="1.62569">
        <ele>113</ele>
        <time>2010-05-14T13:34:54Z</time>
      </trkpt>
      <trkpt lat="48.61465" lon="1.62566">
        <ele>113</ele>
        <time>2010-05-14T13:34:55Z</time>
      </trkpt>
      <trkpt lat="48.61464" lon="1.62564">
        <ele>114</ele>
        <time>2010-05-14T13:34:56Z</time>
      </trkpt>
      <trkpt lat="48.61463" lon="1.62561">
        <ele>114</ele>
        <time>2010-05-14T13:34:57Z</time>
      </trkpt>
      <trkpt lat="48.61462" lon="1.62558">
        <ele>114</ele>
        <time>2010-05-14T13:34:59Z</time>
      </trkpt>
      <trkpt lat="48.61461" lon="1.62555">
        <ele>114</ele>
        <time>2010-05-14T13:35:00Z</time>
      </trkpt>
      <trkpt lat="48.6146" lon="1.62553">
        <ele>114</ele>
        <time>2010-05-14T13:35:01Z</time>
      </trkpt>
      <trkpt lat="48.61457" lon="1.6255">
        <ele>114</ele>
        <time>2010-05-14T13:35:03Z</time>
      </trkpt>
      <trkpt lat="48.61456" lon="1.62549">
        <ele>114</ele>
        <time>2010-05-14T13:35:04Z</time>
      </trkpt>
      <trkpt lat="48.61454" lon="1.62547">
        <ele>114</ele>
        <time>2010-05-14T13:35:05Z</time>
      </trkpt>
      <trkpt lat="48.61453" lon="1.62546">
        <ele>114</ele>
        <time>2010-05-14T13:35:06Z</time>
      </trkpt>
      <trkpt lat="48.61451" lon="1.62544">
        <ele>114</ele>
        <time>2010-05-14T13:35:07Z</time>
      </trkpt>
      <trkpt lat="48.61449" lon="1.6254">
        <ele>114</ele>
        <time>2010-05-14T13:35:09Z</time>
      </trkpt>
      <trkpt lat="48.61448" lon="1.62539">
        <ele>114</ele>
        <time>2010-05-14T13:35:10Z</time>
      </trkpt>
      <trkpt lat="48.61447" lon="1.62536">
        <ele>114</ele>
        <time>2010-05-14T13:35:11Z</time>
      </trkpt>
      <trkpt lat="48.61446" lon="1.62534">
        <ele>114</ele>
        <time>2010-05-14T13:35:12Z</time>
      </trkpt>
      <trkpt lat="48.61444" lon="1.62532">
        <ele>113</ele>
        <time>2010-05-14T13:35:14Z</time>
      </trkpt>
      <trkpt lat="48.61443" lon="1.6253">
        <ele>113</ele>
        <time>2010-05-14T13:35:15Z</time>
      </trkpt>
      <trkpt lat="48.61441" lon="1.62529">
        <ele>113</ele>
        <time>2010-05-14T13:35:16Z</time>
      </trkpt>
      <trkpt lat="48.61439" lon="1.62526">
        <ele>113</ele>
        <time>2010-05-14T13:35:18Z</time>
      </trkpt>
      <trkpt lat="48.61437" lon="1.62525">
        <ele>113</ele>
        <time>2010-05-14T13:35:19Z</time>
      </trkpt>
      <trkpt lat="48.61435" lon="1.62524">
        <ele>113</ele>
        <time>2010-05-14T13:35:20Z</time>
      </trkpt>
      <trkpt lat="48.61433" lon="1.62523">
        <ele>113</ele>
        <time>2010-05-14T13:35:21Z</time>
      </trkpt>
      <trkpt lat="48.61432" lon="1.62521">
        <ele>113</ele>
        <time>2010-05-14T13:35:22Z</time>
      </trkpt>
      <trkpt lat="48.6143" lon="1.6252">
        <ele>113</ele>
        <time>2010-05-14T13:35:23Z</time>
      </trkpt>
      <trkpt lat="48.61429" lon="1.62519">
        <ele>113</ele>
        <time>2010-05-14T13:35:24Z</time>
      </trkpt>
      <trkpt lat="48.61427" lon="1.62518">
        <ele>113</ele>
        <time>2010-05-14T13:35:25Z</time>
      </trkpt>
      <trkpt lat="48.61426" lon="1.62514">
        <ele>113</ele>
        <time>2010-05-14T13:35:27Z</time>
      </trkpt>
      <trkpt lat="48.61424" lon="1.62511">
        <ele>112</ele>
        <time>2010-05-14T13:35:29Z</time>
      </trkpt>
      <trkpt lat="48.61423" lon="1.6251">
        <ele>112</ele>
        <time>2010-05-14T13:35:30Z</time>
      </trkpt>
      <trkpt lat="48.61422" lon="1.62509">
        <ele>112</ele>
        <time>2010-05-14T13:35:32Z</time>
      </trkpt>
      <trkpt lat="48.6142" lon="1.62508">
        <ele>112</ele>
        <time>2010-05-14T13:35:33Z</time>
      </trkpt>
      <trkpt lat="48.61418" lon="1.62507">
        <ele>112</ele>
        <time>2010-05-14T13:35:34Z</time>
      </trkpt>
      <trkpt lat="48.61417" lon="1.62506">
        <ele>112</ele>
        <time>2010-05-14T13:35:35Z</time>
      </trkpt>
      <trkpt lat="48.61415" lon="1.62504">
        <ele>112</ele>
        <time>2010-05-14T13:35:36Z</time>
      </trkpt>
      <trkpt lat="48.61413" lon="1.62502">
        <ele>112</ele>
        <time>2010-05-14T13:35:38Z</time>
      </trkpt>
      <trkpt lat="48.61412" lon="1.62498">
        <ele>112</ele>
        <time>2010-05-14T13:35:40Z</time>
      </trkpt>
      <trkpt lat="48.61411" lon="1.62496">
        <ele>112</ele>
        <time>2010-05-14T13:35:41Z</time>
      </trkpt>
      <trkpt lat="48.6141" lon="1.62493">
        <ele>112</ele>
        <time>2010-05-14T13:35:42Z</time>
      </trkpt>
      <trkpt lat="48.61408" lon="1.62492">
        <ele>112</ele>
        <time>2010-05-14T13:35:43Z</time>
      </trkpt>
      <trkpt lat="48.61408" lon="1.6249">
        <ele>112</ele>
        <time>2010-05-14T13:35:44Z</time>
      </trkpt>
      <trkpt lat="48.61407" lon="1.62487">
        <ele>112</ele>
        <time>2010-05-14T13:35:45Z</time>
      </trkpt>
      <trkpt lat="48.61406" lon="1.62486">
        <ele>112</ele>
        <time>2010-05-14T13:35:46Z</time>
      </trkpt>
      <trkpt lat="48.61404" lon="1.62484">
        <ele>112</ele>
        <time>2010-05-14T13:35:47Z</time>
      </trkpt>
      <trkpt lat="48.61403" lon="1.62482">
        <ele>112</ele>
        <time>2010-05-14T13:35:48Z</time>
      </trkpt>
      <trkpt lat="48.61402" lon="1.62481">
        <ele>112</ele>
        <time>2010-05-14T13:35:49Z</time>
      </trkpt>
      <trkpt lat="48.614" lon="1.62479">
        <ele>112</ele>
        <time>2010-05-14T13:35:50Z</time>
      </trkpt>
      <trkpt lat="48.61399" lon="1.62477">
        <ele>112</ele>
        <time>2010-05-14T13:35:51Z</time>
      </trkpt>
      <trkpt lat="48.61397" lon="1.62476">
        <ele>112</ele>
        <time>2010-05-14T13:35:52Z</time>
      </trkpt>
      <trkpt lat="48.61396" lon="1.62475">
        <ele>113</ele>
        <time>2010-05-14T13:35:53Z</time>
      </trkpt>
      <trkpt lat="48.61394" lon="1.62474">
        <ele>114</ele>
        <time>2010-05-14T13:35:54Z</time>
      </trkpt>
      <trkpt lat="48.61392" lon="1.62474">
        <ele>114</ele>
        <time>2010-05-14T13:35:55Z</time>
      </trkpt>
      <trkpt lat="48.61389" lon="1.62472">
        <ele>114</ele>
        <time>2010-05-14T13:35:56Z</time>
      </trkpt>
      <trkpt lat="48.61386" lon="1.62471">
        <ele>114</ele>
        <time>2010-05-14T13:35:57Z</time>
      </trkpt>
      <trkpt lat="48.61382" lon="1.62468">
        <ele>114</ele>
        <time>2010-05-14T13:36:00Z</time>
      </trkpt>
      <trkpt lat="48.6138" lon="1.62468">
        <ele>114</ele>
        <time>2010-05-14T13:36:01Z</time>
      </trkpt>
      <trkpt lat="48.61378" lon="1.62468">
        <ele>114</ele>
        <time>2010-05-14T13:36:02Z</time>
      </trkpt>
      <trkpt lat="48.61378" lon="1.62465">
        <ele>114</ele>
        <time>2010-05-14T13:36:03Z</time>
      </trkpt>
      <trkpt lat="48.61377" lon="1.62461">
        <ele>114</ele>
        <time>2010-05-14T13:36:05Z</time>
      </trkpt>
      <trkpt lat="48.61376" lon="1.62459">
        <ele>115</ele>
        <time>2010-05-14T13:36:08Z</time>
      </trkpt>
      <trkpt lat="48.61374" lon="1.62456">
        <ele>116</ele>
        <time>2010-05-14T13:36:10Z</time>
      </trkpt>
      <trkpt lat="48.61372" lon="1.62456">
        <ele>116</ele>
        <time>2010-05-14T13:36:11Z</time>
      </trkpt>
      <trkpt lat="48.6137" lon="1.62456">
        <ele>116</ele>
        <time>2010-05-14T13:36:12Z</time>
      </trkpt>
      <trkpt lat="48.61368" lon="1.62455">
        <ele>116</ele>
        <time>2010-05-14T13:36:13Z</time>
      </trkpt>
      <trkpt lat="48.61366" lon="1.62454">
        <ele>116</ele>
        <time>2010-05-14T13:36:14Z</time>
      </trkpt>
      <trkpt lat="48.61364" lon="1.62454">
        <ele>116</ele>
        <time>2010-05-14T13:36:15Z</time>
      </trkpt>
      <trkpt lat="48.6136" lon="1.62453">
        <ele>116</ele>
        <time>2010-05-14T13:36:18Z</time>
      </trkpt>
      <trkpt lat="48.61356" lon="1.62452">
        <ele>116</ele>
        <time>2010-05-14T13:36:19Z</time>
      </trkpt>
      <trkpt lat="48.61354" lon="1.62452">
        <ele>116</ele>
        <time>2010-05-14T13:36:20Z</time>
      </trkpt>
      <trkpt lat="48.61352" lon="1.62451">
        <ele>116</ele>
        <time>2010-05-14T13:36:21Z</time>
      </trkpt>
      <trkpt lat="48.6135" lon="1.62451">
        <ele>116</ele>
        <time>2010-05-14T13:36:22Z</time>
      </trkpt>
      <trkpt lat="48.61348" lon="1.62449">
        <ele>116</ele>
        <time>2010-05-14T13:36:23Z</time>
      </trkpt>
      <trkpt lat="48.61346" lon="1.62449">
        <ele>116</ele>
        <time>2010-05-14T13:36:24Z</time>
      </trkpt>
      <trkpt lat="48.61344" lon="1.62449">
        <ele>116</ele>
        <time>2010-05-14T13:36:25Z</time>
      </trkpt>
      <trkpt lat="48.61343" lon="1.6245">
        <ele>116</ele>
        <time>2010-05-14T13:36:26Z</time>
      </trkpt>
      <trkpt lat="48.61341" lon="1.6245">
        <ele>116</ele>
        <time>2010-05-14T13:36:28Z</time>
      </trkpt>
      <trkpt lat="48.6134" lon="1.62449">
        <ele>116</ele>
        <time>2010-05-14T13:36:30Z</time>
      </trkpt>
      <trkpt lat="48.61339" lon="1.62448">
        <ele>116</ele>
        <time>2010-05-14T13:36:31Z</time>
      </trkpt>
      <trkpt lat="48.61337" lon="1.62448">
        <ele>116</ele>
        <time>2010-05-14T13:36:32Z</time>
      </trkpt>
      <trkpt lat="48.61335" lon="1.62447">
        <ele>116</ele>
        <time>2010-05-14T13:36:34Z</time>
      </trkpt>
      <trkpt lat="48.61334" lon="1.62448">
        <ele>116</ele>
        <time>2010-05-14T13:36:37Z</time>
      </trkpt>
      <trkpt lat="48.61333" lon="1.62444">
        <ele>116</ele>
        <time>2010-05-14T13:36:39Z</time>
      </trkpt>
      <trkpt lat="48.61334" lon="1.62443">
        <ele>116</ele>
        <time>2010-05-14T13:36:41Z</time>
      </trkpt>
      <trkpt lat="48.61333" lon="1.6244">
        <ele>116</ele>
        <time>2010-05-14T13:36:42Z</time>
      </trkpt>
      <trkpt lat="48.61332" lon="1.62438">
        <ele>116</ele>
        <time>2010-05-14T13:36:43Z</time>
      </trkpt>
      <trkpt lat="48.61331" lon="1.62436">
        <ele>116</ele>
        <time>2010-05-14T13:36:44Z</time>
      </trkpt>
      <trkpt lat="48.61331" lon="1.62433">
        <ele>116</ele>
        <time>2010-05-14T13:36:45Z</time>
      </trkpt>
      <trkpt lat="48.61334" lon="1.62428">
        <ele>115</ele>
        <time>2010-05-14T13:36:48Z</time>
      </trkpt>
      <trkpt lat="48.61336" lon="1.62427">
        <ele>114</ele>
        <time>2010-05-14T13:36:49Z</time>
      </trkpt>
      <trkpt lat="48.61338" lon="1.62424">
        <ele>113</ele>
        <time>2010-05-14T13:36:50Z</time>
      </trkpt>
      <trkpt lat="48.61341" lon="1.62422">
        <ele>112</ele>
        <time>2010-05-14T13:36:51Z</time>
      </trkpt>
      <trkpt lat="48.61342" lon="1.6242">
        <ele>111</ele>
        <time>2010-05-14T13:36:52Z</time>
      </trkpt>
      <trkpt lat="48.61344" lon="1.62419">
        <ele>110</ele>
        <time>2010-05-14T13:36:53Z</time>
      </trkpt>
      <trkpt lat="48.61345" lon="1.62417">
        <ele>109</ele>
        <time>2010-05-14T13:36:54Z</time>
      </trkpt>
      <trkpt lat="48.61345" lon="1.62414">
        <ele>108</ele>
        <time>2010-05-14T13:36:55Z</time>
      </trkpt>
      <trkpt lat="48.61346" lon="1.62412">
        <ele>107</ele>
        <time>2010-05-14T13:36:56Z</time>
      </trkpt>
      <trkpt lat="48.61347" lon="1.62411">
        <ele>106</ele>
        <time>2010-05-14T13:36:57Z</time>
      </trkpt>
      <trkpt lat="48.61347" lon="1.62408">
        <ele>105</ele>
        <time>2010-05-14T13:36:58Z</time>
      </trkpt>
      <trkpt lat="48.61346" lon="1.62405">
        <ele>104</ele>
        <time>2010-05-14T13:36:59Z</time>
      </trkpt>
      <trkpt lat="48.61346" lon="1.62401">
        <ele>103</ele>
        <time>2010-05-14T13:37:00Z</time>
      </trkpt>
      <trkpt lat="48.61346" lon="1.62398">
        <ele>103</ele>
        <time>2010-05-14T13:37:02Z</time>
      </trkpt>
      <trkpt lat="48.61347" lon="1.62396">
        <ele>103</ele>
        <time>2010-05-14T13:37:03Z</time>
      </trkpt>
      <trkpt lat="48.61347" lon="1.62393">
        <ele>103</ele>
        <time>2010-05-14T13:37:04Z</time>
      </trkpt>
      <trkpt lat="48.61349" lon="1.6239">
        <ele>103</ele>
        <time>2010-05-14T13:37:06Z</time>
      </trkpt>
      <trkpt lat="48.6135" lon="1.62388">
        <ele>103</ele>
        <time>2010-05-14T13:37:07Z</time>
      </trkpt>
      <trkpt lat="48.61352" lon="1.62387">
        <ele>103</ele>
        <time>2010-05-14T13:37:09Z</time>
      </trkpt>
      <trkpt lat="48.61354" lon="1.62388">
        <ele>103</ele>
        <time>2010-05-14T13:37:11Z</time>
      </trkpt>
      <trkpt lat="48.61356" lon="1.62386">
        <ele>103</ele>
        <time>2010-05-14T13:37:13Z</time>
      </trkpt>
      <trkpt lat="48.61358" lon="1.62386">
        <ele>103</ele>
        <time>2010-05-14T13:37:17Z</time>
      </trkpt>
      <trkpt lat="48.61359" lon="1.62387">
        <ele>103</ele>
        <time>2010-05-14T13:37:18Z</time>
      </trkpt>
      <trkpt lat="48.6136" lon="1.62387">
        <ele>103</ele>
        <time>2010-05-14T13:37:21Z</time>
      </trkpt>
      <trkpt lat="48.61362" lon="1.62386">
        <ele>103</ele>
        <time>2010-05-14T13:37:23Z</time>
      </trkpt>
      <trkpt lat="48.61361" lon="1.62384">
        <ele>103</ele>
        <time>2010-05-14T13:37:27Z</time>
      </trkpt>
      <trkpt lat="48.61359" lon="1.62383">
        <ele>104</ele>
        <time>2010-05-14T13:37:29Z</time>
      </trkpt>
      <trkpt lat="48.61359" lon="1.62381">
        <ele>107</ele>
        <time>2010-05-14T13:37:32Z</time>
      </trkpt>
      <trkpt lat="48.61361" lon="1.6238">
        <ele>108</ele>
        <time>2010-05-14T13:37:35Z</time>
      </trkpt>
      <trkpt lat="48.61362" lon="1.62378">
        <ele>109</ele>
        <time>2010-05-14T13:37:39Z</time>
      </trkpt>
      <trkpt lat="48.6136" lon="1.62379">
        <ele>111</ele>
        <time>2010-05-14T13:37:47Z</time>
      </trkpt>
      <trkpt lat="48.61361" lon="1.62381">
        <ele>111</ele>
        <time>2010-05-14T13:37:51Z</time>
      </trkpt>
      <trkpt lat="48.61361" lon="1.62382">
        <ele>109</ele>
        <time>2010-05-14T13:37:56Z</time>
      </trkpt>
      <trkpt lat="48.61359" lon="1.62382">
        <ele>109</ele>
        <time>2010-05-14T13:37:59Z</time>
      </trkpt>
      <trkpt lat="48.61357" lon="1.62381">
        <ele>109</ele>
        <time>2010-05-14T13:38:01Z</time>
      </trkpt>
      <trkpt lat="48.61355" lon="1.6238">
        <ele>109</ele>
        <time>2010-05-14T13:38:03Z</time>
      </trkpt>
      <trkpt lat="48.61354" lon="1.62379">
        <ele>109</ele>
        <time>2010-05-14T13:38:05Z</time>
      </trkpt>
      <trkpt lat="48.61354" lon="1.62376">
        <ele>109</ele>
        <time>2010-05-14T13:38:13Z</time>
      </trkpt>
      <trkpt lat="48.61354" lon="1.62374">
        <ele>106</ele>
        <time>2010-05-14T13:38:17Z</time>
      </trkpt>
      <trkpt lat="48.61355" lon="1.62373">
        <ele>94</ele>
        <time>2010-05-14T13:38:35Z</time>
      </trkpt>
      <trkpt lat="48.61356" lon="1.62371">
        <ele>94</ele>
        <time>2010-05-14T13:38:46Z</time>
      </trkpt>
      <trkpt lat="48.61356" lon="1.62368">
        <ele>94</ele>
        <time>2010-05-14T13:38:47Z</time>
      </trkpt>
      <trkpt lat="48.61355" lon="1.62365">
        <ele>94</ele>
        <time>2010-05-14T13:38:48Z</time>
      </trkpt>
      <trkpt lat="48.61354" lon="1.62363">
        <ele>94</ele>
        <time>2010-05-14T13:38:49Z</time>
      </trkpt>
      <trkpt lat="48.61353" lon="1.6236">
        <ele>95</ele>
        <time>2010-05-14T13:38:50Z</time>
      </trkpt>
      <trkpt lat="48.61353" lon="1.62357">
        <ele>95</ele>
        <time>2010-05-14T13:38:51Z</time>
      </trkpt>
      <trkpt lat="48.61352" lon="1.62355">
        <ele>96</ele>
        <time>2010-05-14T13:38:52Z</time>
      </trkpt>
      <trkpt lat="48.61351" lon="1.62352">
        <ele>97</ele>
        <time>2010-05-14T13:38:54Z</time>
      </trkpt>
      <trkpt lat="48.6135" lon="1.6235">
        <ele>97</ele>
        <time>2010-05-14T13:38:55Z</time>
      </trkpt>
      <trkpt lat="48.6135" lon="1.62349">
        <ele>97</ele>
        <time>2010-05-14T13:38:56Z</time>
      </trkpt>
      <trkpt lat="48.61349" lon="1.62347">
        <ele>97</ele>
        <time>2010-05-14T13:38:57Z</time>
      </trkpt>
      <trkpt lat="48.61348" lon="1.62344">
        <ele>98</ele>
        <time>2010-05-14T13:38:59Z</time>
      </trkpt>
      <trkpt lat="48.61348" lon="1.62342">
        <ele>98</ele>
        <time>2010-05-14T13:39:00Z</time>
      </trkpt>
      <trkpt lat="48.61347" lon="1.6234">
        <ele>99</ele>
        <time>2010-05-14T13:39:01Z</time>
      </trkpt>
      <trkpt lat="48.61346" lon="1.62338">
        <ele>99</ele>
        <time>2010-05-14T13:39:02Z</time>
      </trkpt>
      <trkpt lat="48.61345" lon="1.62336">
        <ele>99</ele>
        <time>2010-05-14T13:39:03Z</time>
      </trkpt>
      <trkpt lat="48.61345" lon="1.62334">
        <ele>100</ele>
        <time>2010-05-14T13:39:04Z</time>
      </trkpt>
      <trkpt lat="48.61344" lon="1.62332">
        <ele>100</ele>
        <time>2010-05-14T13:39:05Z</time>
      </trkpt>
      <trkpt lat="48.61344" lon="1.6233">
        <ele>100</ele>
        <time>2010-05-14T13:39:06Z</time>
      </trkpt>
      <trkpt lat="48.61343" lon="1.62328">
        <ele>100</ele>
        <time>2010-05-14T13:39:07Z</time>
      </trkpt>
      <trkpt lat="48.61343" lon="1.62326">
        <ele>101</ele>
        <time>2010-05-14T13:39:08Z</time>
      </trkpt>
      <trkpt lat="48.61342" lon="1.62324">
        <ele>101</ele>
        <time>2010-05-14T13:39:09Z</time>
      </trkpt>
      <trkpt lat="48.61341" lon="1.62322">
        <ele>101</ele>
        <time>2010-05-14T13:39:10Z</time>
      </trkpt>
      <trkpt lat="48.6134" lon="1.6232">
        <ele>101</ele>
        <time>2010-05-14T13:39:11Z</time>
      </trkpt>
      <trkpt lat="48.61339" lon="1.62318">
        <ele>101</ele>
        <time>2010-05-14T13:39:12Z</time>
      </trkpt>
      <trkpt lat="48.61338" lon="1.62316">
        <ele>101</ele>
        <time>2010-05-14T13:39:13Z</time>
      </trkpt>
      <trkpt lat="48.61337" lon="1.62314">
        <ele>101</ele>
        <time>2010-05-14T13:39:14Z</time>
      </trkpt>
      <trkpt lat="48.61336" lon="1.62312">
        <ele>101</ele>
        <time>2010-05-14T13:39:15Z</time>
      </trkpt>
      <trkpt lat="48.61335" lon="1.6231">
        <ele>101</ele>
        <time>2010-05-14T13:39:16Z</time>
      </trkpt>
      <trkpt lat="48.61334" lon="1.62308">
        <ele>101</ele>
        <time>2010-05-14T13:39:17Z</time>
      </trkpt>
      <trkpt lat="48.61334" lon="1.62307">
        <ele>101</ele>
        <time>2010-05-14T13:39:18Z</time>
      </trkpt>
      <trkpt lat="48.61334" lon="1.62303">
        <ele>101</ele>
        <time>2010-05-14T13:39:20Z</time>
      </trkpt>
      <trkpt lat="48.61335" lon="1.62301">
        <ele>101</ele>
        <time>2010-05-14T13:39:21Z</time>
      </trkpt>
      <trkpt lat="48.61336" lon="1.62299">
        <ele>101</ele>
        <time>2010-05-14T13:39:22Z</time>
      </trkpt>
      <trkpt lat="48.61336" lon="1.62296">
        <ele>101</ele>
        <time>2010-05-14T13:39:24Z</time>
      </trkpt>
      <trkpt lat="48.61336" lon="1.62292">
        <ele>101</ele>
        <time>2010-05-14T13:39:26Z</time>
      </trkpt>
      <trkpt lat="48.61337" lon="1.62291">
        <ele>101</ele>
        <time>2010-05-14T13:39:27Z</time>
      </trkpt>
      <trkpt lat="48.61337" lon="1.62288">
        <ele>102</ele>
        <time>2010-05-14T13:39:29Z</time>
      </trkpt>
      <trkpt lat="48.61336" lon="1.62286">
        <ele>103</ele>
        <time>2010-05-14T13:39:30Z</time>
      </trkpt>
      <trkpt lat="48.61334" lon="1.62284">
        <ele>104</ele>
        <time>2010-05-14T13:39:31Z</time>
      </trkpt>
      <trkpt lat="48.61334" lon="1.62282">
        <ele>105</ele>
        <time>2010-05-14T13:39:32Z</time>
      </trkpt>
      <trkpt lat="48.61333" lon="1.62279">
        <ele>106</ele>
        <time>2010-05-14T13:39:33Z</time>
      </trkpt>
      <trkpt lat="48.61332" lon="1.62276">
        <ele>107</ele>
        <time>2010-05-14T13:39:34Z</time>
      </trkpt>
      <trkpt lat="48.6133" lon="1.62274">
        <ele>107</ele>
        <time>2010-05-14T13:39:35Z</time>
      </trkpt>
      <trkpt lat="48.61328" lon="1.62272">
        <ele>107</ele>
        <time>2010-05-14T13:39:36Z</time>
      </trkpt>
      <trkpt lat="48.61326" lon="1.6227">
        <ele>107</ele>
        <time>2010-05-14T13:39:37Z</time>
      </trkpt>
      <trkpt lat="48.61324" lon="1.62268">
        <ele>107</ele>
        <time>2010-05-14T13:39:38Z</time>
      </trkpt>
      <trkpt lat="48.61323" lon="1.62266">
        <ele>107</ele>
        <time>2010-05-14T13:39:39Z</time>
      </trkpt>
      <trkpt lat="48.61322" lon="1.62263">
        <ele>108</ele>
        <time>2010-05-14T13:39:40Z</time>
      </trkpt>
      <trkpt lat="48.61322" lon="1.6226">
        <ele>109</ele>
        <time>2010-05-14T13:39:41Z</time>
      </trkpt>
      <trkpt lat="48.61321" lon="1.62258">
        <ele>109</ele>
        <time>2010-05-14T13:39:42Z</time>
      </trkpt>
      <trkpt lat="48.6132" lon="1.62255">
        <ele>109</ele>
        <time>2010-05-14T13:39:43Z</time>
      </trkpt>
      <trkpt lat="48.61318" lon="1.62252">
        <ele>109</ele>
        <time>2010-05-14T13:39:44Z</time>
      </trkpt>
      <trkpt lat="48.61317" lon="1.6225">
        <ele>109</ele>
        <time>2010-05-14T13:39:45Z</time>
      </trkpt>
      <trkpt lat="48.61315" lon="1.62247">
        <ele>109</ele>
        <time>2010-05-14T13:39:46Z</time>
      </trkpt>
      <trkpt lat="48.61313" lon="1.62245">
        <ele>109</ele>
        <time>2010-05-14T13:39:47Z</time>
      </trkpt>
      <trkpt lat="48.61312" lon="1.62242">
        <ele>109</ele>
        <time>2010-05-14T13:39:48Z</time>
      </trkpt>
      <trkpt lat="48.6131" lon="1.6224">
        <ele>109</ele>
        <time>2010-05-14T13:39:49Z</time>
      </trkpt>
      <trkpt lat="48.61309" lon="1.62238">
        <ele>109</ele>
        <time>2010-05-14T13:39:50Z</time>
      </trkpt>
      <trkpt lat="48.61308" lon="1.62236">
        <ele>109</ele>
        <time>2010-05-14T13:39:51Z</time>
      </trkpt>
      <trkpt lat="48.61307" lon="1.62233">
        <ele>109</ele>
        <time>2010-05-14T13:39:52Z</time>
      </trkpt>
      <trkpt lat="48.61307" lon="1.62231">
        <ele>109</ele>
        <time>2010-05-14T13:39:53Z</time>
      </trkpt>
      <trkpt lat="48.61307" lon="1.62229">
        <ele>109</ele>
        <time>2010-05-14T13:39:54Z</time>
      </trkpt>
      <trkpt lat="48.61307" lon="1.62227">
        <ele>109</ele>
        <time>2010-05-14T13:39:55Z</time>
      </trkpt>
      <trkpt lat="48.61307" lon="1.62225">
        <ele>109</ele>
        <time>2010-05-14T13:39:56Z</time>
      </trkpt>
      <trkpt lat="48.61307" lon="1.62223">
        <ele>109</ele>
        <time>2010-05-14T13:39:57Z</time>
      </trkpt>
      <trkpt lat="48.61306" lon="1.62221">
        <ele>109</ele>
        <time>2010-05-14T13:39:58Z</time>
      </trkpt>
      <trkpt lat="48.61305" lon="1.62219">
        <ele>109</ele>
        <time>2010-05-14T13:39:59Z</time>
      </trkpt>
      <trkpt lat="48.61304" lon="1.62217">
        <ele>109</ele>
        <time>2010-05-14T13:40:00Z</time>
      </trkpt>
      <trkpt lat="48.61303" lon="1.62215">
        <ele>109</ele>
        <time>2010-05-14T13:40:01Z</time>
      </trkpt>
      <trkpt lat="48.61302" lon="1.62214">
        <ele>109</ele>
        <time>2010-05-14T13:40:02Z</time>
      </trkpt>
      <trkpt lat="48.61301" lon="1.62212">
        <ele>109</ele>
        <time>2010-05-14T13:40:03Z</time>
      </trkpt>
      <trkpt lat="48.613" lon="1.6221">
        <ele>109</ele>
        <time>2010-05-14T13:40:04Z</time>
      </trkpt>
      <trkpt lat="48.613" lon="1.62208">
        <ele>109</ele>
        <time>2010-05-14T13:40:05Z</time>
      </trkpt>
      <trkpt lat="48.61299" lon="1.62206">
        <ele>109</ele>
        <time>2010-05-14T13:40:06Z</time>
      </trkpt>
      <trkpt lat="48.61297" lon="1.62204">
        <ele>109</ele>
        <time>2010-05-14T13:40:07Z</time>
      </trkpt>
      <trkpt lat="48.61296" lon="1.62202">
        <ele>109</ele>
        <time>2010-05-14T13:40:08Z</time>
      </trkpt>
      <trkpt lat="48.61295" lon="1.62199">
        <ele>109</ele>
        <time>2010-05-14T13:40:09Z</time>
      </trkpt>
      <trkpt lat="48.61295" lon="1.62197">
        <ele>109</ele>
        <time>2010-05-14T13:40:10Z</time>
      </trkpt>
      <trkpt lat="48.61295" lon="1.62194">
        <ele>109</ele>
        <time>2010-05-14T13:40:11Z</time>
      </trkpt>
      <trkpt lat="48.61295" lon="1.62192">
        <ele>109</ele>
        <time>2010-05-14T13:40:12Z</time>
      </trkpt>
      <trkpt lat="48.61295" lon="1.6219">
        <ele>109</ele>
        <time>2010-05-14T13:40:13Z</time>
      </trkpt>
      <trkpt lat="48.61295" lon="1.62188">
        <ele>109</ele>
        <time>2010-05-14T13:40:14Z</time>
      </trkpt>
      <trkpt lat="48.61295" lon="1.62186">
        <ele>109</ele>
        <time>2010-05-14T13:40:15Z</time>
      </trkpt>
      <trkpt lat="48.61295" lon="1.62183">
        <ele>109</ele>
        <time>2010-05-14T13:40:16Z</time>
      </trkpt>
      <trkpt lat="48.61295" lon="1.62181">
        <ele>109</ele>
        <time>2010-05-14T13:40:17Z</time>
      </trkpt>
      <trkpt lat="48.61295" lon="1.62178">
        <ele>109</ele>
        <time>2010-05-14T13:40:18Z</time>
      </trkpt>
      <trkpt lat="48.61296" lon="1.62175">
        <ele>109</ele>
        <time>2010-05-14T13:40:19Z</time>
      </trkpt>
      <trkpt lat="48.61295" lon="1.62171">
        <ele>109</ele>
        <time>2010-05-14T13:40:21Z</time>
      </trkpt>
      <trkpt lat="48.61295" lon="1.62164">
        <ele>109</ele>
        <time>2010-05-14T13:40:25Z</time>
      </trkpt>
      <trkpt lat="48.61296" lon="1.62161">
        <ele>109</ele>
        <time>2010-05-14T13:40:26Z</time>
      </trkpt>
      <trkpt lat="48.61296" lon="1.62159">
        <ele>109</ele>
        <time>2010-05-14T13:40:27Z</time>
      </trkpt>
      <trkpt lat="48.61295" lon="1.62157">
        <ele>109</ele>
        <time>2010-05-14T13:40:28Z</time>
      </trkpt>
      <trkpt lat="48.61294" lon="1.62155">
        <ele>109</ele>
        <time>2010-05-14T13:40:29Z</time>
      </trkpt>
      <trkpt lat="48.61294" lon="1.62153">
        <ele>109</ele>
        <time>2010-05-14T13:40:30Z</time>
      </trkpt>
      <trkpt lat="48.61293" lon="1.62151">
        <ele>109</ele>
        <time>2010-05-14T13:40:31Z</time>
      </trkpt>
      <trkpt lat="48.61292" lon="1.62149">
        <ele>109</ele>
        <time>2010-05-14T13:40:32Z</time>
      </trkpt>
      <trkpt lat="48.61292" lon="1.62147">
        <ele>110</ele>
        <time>2010-05-14T13:40:33Z</time>
      </trkpt>
      <trkpt lat="48.61291" lon="1.62145">
        <ele>111</ele>
        <time>2010-05-14T13:40:34Z</time>
      </trkpt>
      <trkpt lat="48.6129" lon="1.62143">
        <ele>112</ele>
        <time>2010-05-14T13:40:35Z</time>
      </trkpt>
      <trkpt lat="48.61289" lon="1.62141">
        <ele>113</ele>
        <time>2010-05-14T13:40:36Z</time>
      </trkpt>
      <trkpt lat="48.61288" lon="1.62139">
        <ele>114</ele>
        <time>2010-05-14T13:40:37Z</time>
      </trkpt>
      <trkpt lat="48.61288" lon="1.62137">
        <ele>114</ele>
        <time>2010-05-14T13:40:38Z</time>
      </trkpt>
      <trkpt lat="48.61287" lon="1.62135">
        <ele>115</ele>
        <time>2010-05-14T13:40:39Z</time>
      </trkpt>
      <trkpt lat="48.61287" lon="1.62133">
        <ele>116</ele>
        <time>2010-05-14T13:40:40Z</time>
      </trkpt>
      <trkpt lat="48.61287" lon="1.6213">
        <ele>116</ele>
        <time>2010-05-14T13:40:41Z</time>
      </trkpt>
      <trkpt lat="48.61287" lon="1.62128">
        <ele>117</ele>
        <time>2010-05-14T13:40:42Z</time>
      </trkpt>
      <trkpt lat="48.61288" lon="1.62126">
        <ele>117</ele>
        <time>2010-05-14T13:40:43Z</time>
      </trkpt>
      <trkpt lat="48.61287" lon="1.62124">
        <ele>118</ele>
        <time>2010-05-14T13:40:44Z</time>
      </trkpt>
      <trkpt lat="48.61288" lon="1.62123">
        <ele>118</ele>
        <time>2010-05-14T13:40:45Z</time>
      </trkpt>
      <trkpt lat="48.61288" lon="1.62121">
        <ele>118</ele>
        <time>2010-05-14T13:40:46Z</time>
      </trkpt>
      <trkpt lat="48.61288" lon="1.62119">
        <ele>118</ele>
        <time>2010-05-14T13:40:47Z</time>
      </trkpt>
      <trkpt lat="48.61288" lon="1.62117">
        <ele>119</ele>
        <time>2010-05-14T13:40:48Z</time>
      </trkpt>
      <trkpt lat="48.61288" lon="1.62115">
        <ele>119</ele>
        <time>2010-05-14T13:40:49Z</time>
      </trkpt>
      <trkpt lat="48.61288" lon="1.62113">
        <ele>119</ele>
        <time>2010-05-14T13:40:50Z</time>
      </trkpt>
      <trkpt lat="48.61288" lon="1.6211">
        <ele>120</ele>
        <time>2010-05-14T13:40:51Z</time>
      </trkpt>
      <trkpt lat="48.61289" lon="1.62109">
        <ele>120</ele>
        <time>2010-05-14T13:40:52Z</time>
      </trkpt>
      <trkpt lat="48.61289" lon="1.62107">
        <ele>120</ele>
        <time>2010-05-14T13:40:53Z</time>
      </trkpt>
      <trkpt lat="48.61289" lon="1.62105">
        <ele>120</ele>
        <time>2010-05-14T13:40:54Z</time>
      </trkpt>
      <trkpt lat="48.6129" lon="1.62102">
        <ele>120</ele>
        <time>2010-05-14T13:40:56Z</time>
      </trkpt>
      <trkpt lat="48.6129" lon="1.621">
        <ele>120</ele>
        <time>2010-05-14T13:40:57Z</time>
      </trkpt>
      <trkpt lat="48.6129" lon="1.62098">
        <ele>120</ele>
        <time>2010-05-14T13:40:58Z</time>
      </trkpt>
      <trkpt lat="48.61291" lon="1.62096">
        <ele>120</ele>
        <time>2010-05-14T13:40:59Z</time>
      </trkpt>
      <trkpt lat="48.61292" lon="1.62094">
        <ele>120</ele>
        <time>2010-05-14T13:41:00Z</time>
      </trkpt>
      <trkpt lat="48.61292" lon="1.62092">
        <ele>120</ele>
        <time>2010-05-14T13:41:01Z</time>
      </trkpt>
      <trkpt lat="48.61292" lon="1.6209">
        <ele>120</ele>
        <time>2010-05-14T13:41:02Z</time>
      </trkpt>
      <trkpt lat="48.61292" lon="1.62088">
        <ele>120</ele>
        <time>2010-05-14T13:41:03Z</time>
      </trkpt>
      <trkpt lat="48.61292" lon="1.62086">
        <ele>120</ele>
        <time>2010-05-14T13:41:04Z</time>
      </trkpt>
      <trkpt lat="48.61292" lon="1.62084">
        <ele>120</ele>
        <time>2010-05-14T13:41:05Z</time>
      </trkpt>
      <trkpt lat="48.61293" lon="1.62082">
        <ele>120</ele>
        <time>2010-05-14T13:41:06Z</time>
      </trkpt>
      <trkpt lat="48.61293" lon="1.62079">
        <ele>120</ele>
        <time>2010-05-14T13:41:08Z</time>
      </trkpt>
      <trkpt lat="48.61293" lon="1.62077">
        <ele>120</ele>
        <time>2010-05-14T13:41:09Z</time>
      </trkpt>
      <trkpt lat="48.61293" lon="1.62075">
        <ele>120</ele>
        <time>2010-05-14T13:41:10Z</time>
      </trkpt>
      <trkpt lat="48.61293" lon="1.62073">
        <ele>120</ele>
        <time>2010-05-14T13:41:11Z</time>
      </trkpt>
      <trkpt lat="48.61293" lon="1.6207">
        <ele>121</ele>
        <time>2010-05-14T13:41:12Z</time>
      </trkpt>
      <trkpt lat="48.61293" lon="1.62068">
        <ele>121</ele>
        <time>2010-05-14T13:41:13Z</time>
      </trkpt>
      <trkpt lat="48.61294" lon="1.62066">
        <ele>122</ele>
        <time>2010-05-14T13:41:14Z</time>
      </trkpt>
      <trkpt lat="48.61294" lon="1.62063">
        <ele>122</ele>
        <time>2010-05-14T13:41:15Z</time>
      </trkpt>
      <trkpt lat="48.61294" lon="1.6206">
        <ele>122</ele>
        <time>2010-05-14T13:41:16Z</time>
      </trkpt>
      <trkpt lat="48.61294" lon="1.62058">
        <ele>122</ele>
        <time>2010-05-14T13:41:17Z</time>
      </trkpt>
      <trkpt lat="48.61294" lon="1.62056">
        <ele>122</ele>
        <time>2010-05-14T13:41:18Z</time>
      </trkpt>
      <trkpt lat="48.61294" lon="1.62054">
        <ele>122</ele>
        <time>2010-05-14T13:41:19Z</time>
      </trkpt>
      <trkpt lat="48.61294" lon="1.62051">
        <ele>122</ele>
        <time>2010-05-14T13:41:20Z</time>
      </trkpt>
      <trkpt lat="48.61294" lon="1.62049">
        <ele>122</ele>
        <time>2010-05-14T13:41:21Z</time>
      </trkpt>
      <trkpt lat="48.61294" lon="1.62047">
        <ele>122</ele>
        <time>2010-05-14T13:41:22Z</time>
      </trkpt>
      <trkpt lat="48.61294" lon="1.62045">
        <ele>122</ele>
        <time>2010-05-14T13:41:23Z</time>
      </trkpt>
      <trkpt lat="48.61295" lon="1.62043">
        <ele>122</ele>
        <time>2010-05-14T13:41:24Z</time>
      </trkpt>
      <trkpt lat="48.61295" lon="1.62041">
        <ele>122</ele>
        <time>2010-05-14T13:41:25Z</time>
      </trkpt>
      <trkpt lat="48.61295" lon="1.62039">
        <ele>122</ele>
        <time>2010-05-14T13:41:26Z</time>
      </trkpt>
      <trkpt lat="48.61295" lon="1.62036">
        <ele>122</ele>
        <time>2010-05-14T13:41:27Z</time>
      </trkpt>
      <trkpt lat="48.61294" lon="1.62033">
        <ele>122</ele>
        <time>2010-05-14T13:41:28Z</time>
      </trkpt>
      <trkpt lat="48.61294" lon="1.6203">
        <ele>122</ele>
        <time>2010-05-14T13:41:29Z</time>
      </trkpt>
      <trkpt lat="48.61293" lon="1.62027">
        <ele>122</ele>
        <time>2010-05-14T13:41:30Z</time>
      </trkpt>
      <trkpt lat="48.61293" lon="1.62023">
        <ele>122</ele>
        <time>2010-05-14T13:41:31Z</time>
      </trkpt>
      <trkpt lat="48.61292" lon="1.62021">
        <ele>122</ele>
        <time>2010-05-14T13:41:32Z</time>
      </trkpt>
      <trkpt lat="48.61292" lon="1.62018">
        <ele>122</ele>
        <time>2010-05-14T13:41:33Z</time>
      </trkpt>
      <trkpt lat="48.61292" lon="1.62016">
        <ele>122</ele>
        <time>2010-05-14T13:41:34Z</time>
      </trkpt>
      <trkpt lat="48.61292" lon="1.62014">
        <ele>122</ele>
        <time>2010-05-14T13:41:35Z</time>
      </trkpt>
      <trkpt lat="48.61292" lon="1.62012">
        <ele>122</ele>
        <time>2010-05-14T13:41:36Z</time>
      </trkpt>
      <trkpt lat="48.61292" lon="1.6201">
        <ele>122</ele>
        <time>2010-05-14T13:41:37Z</time>
      </trkpt>
      <trkpt lat="48.61292" lon="1.62008">
        <ele>123</ele>
        <time>2010-05-14T13:41:38Z</time>
      </trkpt>
      <trkpt lat="48.61291" lon="1.62006">
        <ele>123</ele>
        <time>2010-05-14T13:41:39Z</time>
      </trkpt>
      <trkpt lat="48.61291" lon="1.62004">
        <ele>123</ele>
        <time>2010-05-14T13:41:40Z</time>
      </trkpt>
      <trkpt lat="48.61291" lon="1.62002">
        <ele>124</ele>
        <time>2010-05-14T13:41:41Z</time>
      </trkpt>
      <trkpt lat="48.61291" lon="1.62">
        <ele>124</ele>
        <time>2010-05-14T13:41:42Z</time>
      </trkpt>
      <trkpt lat="48.61292" lon="1.61998">
        <ele>124</ele>
        <time>2010-05-14T13:41:43Z</time>
      </trkpt>
      <trkpt lat="48.61292" lon="1.61995">
        <ele>124</ele>
        <time>2010-05-14T13:41:44Z</time>
      </trkpt>
      <trkpt lat="48.61291" lon="1.61993">
        <ele>124</ele>
        <time>2010-05-14T13:41:45Z</time>
      </trkpt>
      <trkpt lat="48.61291" lon="1.61991">
        <ele>125</ele>
        <time>2010-05-14T13:41:46Z</time>
      </trkpt>
      <trkpt lat="48.61291" lon="1.61988">
        <ele>125</ele>
        <time>2010-05-14T13:41:47Z</time>
      </trkpt>
      <trkpt lat="48.61291" lon="1.61986">
        <ele>125</ele>
        <time>2010-05-14T13:41:48Z</time>
      </trkpt>
      <trkpt lat="48.61291" lon="1.61984">
        <ele>125</ele>
        <time>2010-05-14T13:41:49Z</time>
      </trkpt>
      <trkpt lat="48.61291" lon="1.61982">
        <ele>125</ele>
        <time>2010-05-14T13:41:50Z</time>
      </trkpt>
      <trkpt lat="48.61292" lon="1.6198">
        <ele>125</ele>
        <time>2010-05-14T13:41:51Z</time>
      </trkpt>
      <trkpt lat="48.61291" lon="1.61978">
        <ele>125</ele>
        <time>2010-05-14T13:41:52Z</time>
      </trkpt>
      <trkpt lat="48.61292" lon="1.61976">
        <ele>125</ele>
        <time>2010-05-14T13:41:53Z</time>
      </trkpt>
      <trkpt lat="48.61292" lon="1.61973">
        <ele>125</ele>
        <time>2010-05-14T13:41:54Z</time>
      </trkpt>
      <trkpt lat="48.61292" lon="1.61971">
        <ele>125</ele>
        <time>2010-05-14T13:41:55Z</time>
      </trkpt>
      <trkpt lat="48.61292" lon="1.61969">
        <ele>125</ele>
        <time>2010-05-14T13:41:56Z</time>
      </trkpt>
      <trkpt lat="48.61292" lon="1.61967">
        <ele>125</ele>
        <time>2010-05-14T13:41:57Z</time>
      </trkpt>
      <trkpt lat="48.61292" lon="1.61964">
        <ele>125</ele>
        <time>2010-05-14T13:41:58Z</time>
      </trkpt>
      <trkpt lat="48.61293" lon="1.61962">
        <ele>125</ele>
        <time>2010-05-14T13:41:59Z</time>
      </trkpt>
      <trkpt lat="48.61293" lon="1.61959">
        <ele>125</ele>
        <time>2010-05-14T13:42:00Z</time>
      </trkpt>
      <trkpt lat="48.61293" lon="1.61957">
        <ele>125</ele>
        <time>2010-05-14T13:42:01Z</time>
      </trkpt>
      <trkpt lat="48.61293" lon="1.61955">
        <ele>125</ele>
        <time>2010-05-14T13:42:02Z</time>
      </trkpt>
      <trkpt lat="48.61294" lon="1.61953">
        <ele>125</ele>
        <time>2010-05-14T13:42:03Z</time>
      </trkpt>
      <trkpt lat="48.61295" lon="1.6195">
        <ele>125</ele>
        <time>2010-05-14T13:42:04Z</time>
      </trkpt>
      <trkpt lat="48.61294" lon="1.61947">
        <ele>125</ele>
        <time>2010-05-14T13:42:05Z</time>
      </trkpt>
      <trkpt lat="48.61294" lon="1.61944">
        <ele>124</ele>
        <time>2010-05-14T13:42:06Z</time>
      </trkpt>
      <trkpt lat="48.61294" lon="1.61941">
        <ele>124</ele>
        <time>2010-05-14T13:42:07Z</time>
      </trkpt>
      <trkpt lat="48.61294" lon="1.61939">
        <ele>123</ele>
        <time>2010-05-14T13:42:08Z</time>
      </trkpt>
      <trkpt lat="48.61294" lon="1.61936">
        <ele>123</ele>
        <time>2010-05-14T13:42:09Z</time>
      </trkpt>
      <trkpt lat="48.61294" lon="1.61934">
        <ele>123</ele>
        <time>2010-05-14T13:42:10Z</time>
      </trkpt>
      <trkpt lat="48.61295" lon="1.61932">
        <ele>123</ele>
        <time>2010-05-14T13:42:11Z</time>
      </trkpt>
      <trkpt lat="48.61294" lon="1.6193">
        <ele>123</ele>
        <time>2010-05-14T13:42:12Z</time>
      </trkpt>
      <trkpt lat="48.61294" lon="1.61928">
        <ele>123</ele>
        <time>2010-05-14T13:42:13Z</time>
      </trkpt>
      <trkpt lat="48.61294" lon="1.61926">
        <ele>123</ele>
        <time>2010-05-14T13:42:14Z</time>
      </trkpt>
      <trkpt lat="48.61294" lon="1.61924">
        <ele>123</ele>
        <time>2010-05-14T13:42:15Z</time>
      </trkpt>
      <trkpt lat="48.61294" lon="1.61922">
        <ele>123</ele>
        <time>2010-05-14T13:42:17Z</time>
      </trkpt>
      <trkpt lat="48.61294" lon="1.6192">
        <ele>123</ele>
        <time>2010-05-14T13:42:19Z</time>
      </trkpt>
      <trkpt lat="48.61294" lon="1.61918">
        <ele>123</ele>
        <time>2010-05-14T13:42:20Z</time>
      </trkpt>
      <trkpt lat="48.61293" lon="1.61916">
        <ele>123</ele>
        <time>2010-05-14T13:42:22Z</time>
      </trkpt>
      <trkpt lat="48.61293" lon="1.61914">
        <ele>123</ele>
        <time>2010-05-14T13:42:23Z</time>
      </trkpt>
      <trkpt lat="48.61293" lon="1.61911">
        <ele>123</ele>
        <time>2010-05-14T13:42:25Z</time>
      </trkpt>
      <trkpt lat="48.61295" lon="1.6191">
        <ele>123</ele>
        <time>2010-05-14T13:42:31Z</time>
      </trkpt>
      <trkpt lat="48.61295" lon="1.61908">
        <ele>123</ele>
        <time>2010-05-14T13:42:33Z</time>
      </trkpt>
      <trkpt lat="48.61296" lon="1.61906">
        <ele>123</ele>
        <time>2010-05-14T13:42:34Z</time>
      </trkpt>
      <trkpt lat="48.61295" lon="1.61903">
        <ele>123</ele>
        <time>2010-05-14T13:42:36Z</time>
      </trkpt>
      <trkpt lat="48.61295" lon="1.61901">
        <ele>123</ele>
        <time>2010-05-14T13:42:37Z</time>
      </trkpt>
      <trkpt lat="48.61295" lon="1.61899">
        <ele>123</ele>
        <time>2010-05-14T13:42:38Z</time>
      </trkpt>
      <trkpt lat="48.61295" lon="1.61897">
        <ele>123</ele>
        <time>2010-05-14T13:42:39Z</time>
      </trkpt>
      <trkpt lat="48.61296" lon="1.61895">
        <ele>123</ele>
        <time>2010-05-14T13:42:40Z</time>
      </trkpt>
      <trkpt lat="48.61296" lon="1.61892">
        <ele>122</ele>
        <time>2010-05-14T13:42:42Z</time>
      </trkpt>
      <trkpt lat="48.61296" lon="1.6189">
        <ele>122</ele>
        <time>2010-05-14T13:42:43Z</time>
      </trkpt>
      <trkpt lat="48.61296" lon="1.61888">
        <ele>122</ele>
        <time>2010-05-14T13:42:44Z</time>
      </trkpt>
      <trkpt lat="48.61296" lon="1.61886">
        <ele>121</ele>
        <time>2010-05-14T13:42:45Z</time>
      </trkpt>
      <trkpt lat="48.61296" lon="1.61884">
        <ele>121</ele>
        <time>2010-05-14T13:42:46Z</time>
      </trkpt>
      <trkpt lat="48.61295" lon="1.61882">
        <ele>121</ele>
        <time>2010-05-14T13:42:47Z</time>
      </trkpt>
      <trkpt lat="48.61294" lon="1.61879">
        <ele>121</ele>
        <time>2010-05-14T13:42:48Z</time>
      </trkpt>
      <trkpt lat="48.61293" lon="1.61878">
        <ele>121</ele>
        <time>2010-05-14T13:42:49Z</time>
      </trkpt>
      <trkpt lat="48.61294" lon="1.61876">
        <ele>120</ele>
        <time>2010-05-14T13:42:50Z</time>
      </trkpt>
      <trkpt lat="48.61293" lon="1.61874">
        <ele>120</ele>
        <time>2010-05-14T13:42:51Z</time>
      </trkpt>
      <trkpt lat="48.61293" lon="1.61871">
        <ele>120</ele>
        <time>2010-05-14T13:42:52Z</time>
      </trkpt>
      <trkpt lat="48.61293" lon="1.61869">
        <ele>120</ele>
        <time>2010-05-14T13:42:53Z</time>
      </trkpt>
      <trkpt lat="48.61292" lon="1.61867">
        <ele>120</ele>
        <time>2010-05-14T13:42:54Z</time>
      </trkpt>
      <trkpt lat="48.61292" lon="1.61865">
        <ele>120</ele>
        <time>2010-05-14T13:42:55Z</time>
      </trkpt>
      <trkpt lat="48.61292" lon="1.61863">
        <ele>120</ele>
        <time>2010-05-14T13:42:56Z</time>
      </trkpt>
      <trkpt lat="48.61292" lon="1.61861">
        <ele>120</ele>
        <time>2010-05-14T13:42:57Z</time>
      </trkpt>
      <trkpt lat="48.61291" lon="1.61859">
        <ele>119</ele>
        <time>2010-05-14T13:42:58Z</time>
      </trkpt>
      <trkpt lat="48.61291" lon="1.61857">
        <ele>119</ele>
        <time>2010-05-14T13:42:59Z</time>
      </trkpt>
      <trkpt lat="48.61291" lon="1.61855">
        <ele>119</ele>
        <time>2010-05-14T13:43:00Z</time>
      </trkpt>
      <trkpt lat="48.61291" lon="1.61854">
        <ele>119</ele>
        <time>2010-05-14T13:43:01Z</time>
      </trkpt>
      <trkpt lat="48.61291" lon="1.61852">
        <ele>119</ele>
        <time>2010-05-14T13:43:02Z</time>
      </trkpt>
      <trkpt lat="48.6129" lon="1.6185">
        <ele>119</ele>
        <time>2010-05-14T13:43:03Z</time>
      </trkpt>
      <trkpt lat="48.6129" lon="1.61848">
        <ele>119</ele>
        <time>2010-05-14T13:43:04Z</time>
      </trkpt>
      <trkpt lat="48.61289" lon="1.61846">
        <ele>119</ele>
        <time>2010-05-14T13:43:05Z</time>
      </trkpt>
      <trkpt lat="48.61289" lon="1.61844">
        <ele>119</ele>
        <time>2010-05-14T13:43:06Z</time>
      </trkpt>
      <trkpt lat="48.61288" lon="1.61842">
        <ele>119</ele>
        <time>2010-05-14T13:43:07Z</time>
      </trkpt>
      <trkpt lat="48.61288" lon="1.6184">
        <ele>119</ele>
        <time>2010-05-14T13:43:08Z</time>
      </trkpt>
      <trkpt lat="48.61287" lon="1.61838">
        <ele>119</ele>
        <time>2010-05-14T13:43:09Z</time>
      </trkpt>
      <trkpt lat="48.61286" lon="1.61837">
        <ele>119</ele>
        <time>2010-05-14T13:43:10Z</time>
      </trkpt>
      <trkpt lat="48.61284" lon="1.61834">
        <ele>119</ele>
        <time>2010-05-14T13:43:12Z</time>
      </trkpt>
      <trkpt lat="48.61284" lon="1.61831">
        <ele>119</ele>
        <time>2010-05-14T13:43:14Z</time>
      </trkpt>
      <trkpt lat="48.61283" lon="1.61829">
        <ele>119</ele>
        <time>2010-05-14T13:43:15Z</time>
      </trkpt>
      <trkpt lat="48.61283" lon="1.61827">
        <ele>119</ele>
        <time>2010-05-14T13:43:16Z</time>
      </trkpt>
      <trkpt lat="48.61283" lon="1.61825">
        <ele>119</ele>
        <time>2010-05-14T13:43:17Z</time>
      </trkpt>
      <trkpt lat="48.61282" lon="1.61823">
        <ele>119</ele>
        <time>2010-05-14T13:43:18Z</time>
      </trkpt>
      <trkpt lat="48.61281" lon="1.61821">
        <ele>119</ele>
        <time>2010-05-14T13:43:19Z</time>
      </trkpt>
      <trkpt lat="48.6128" lon="1.61819">
        <ele>119</ele>
        <time>2010-05-14T13:43:20Z</time>
      </trkpt>
      <trkpt lat="48.61279" lon="1.61818">
        <ele>119</ele>
        <time>2010-05-14T13:43:21Z</time>
      </trkpt>
      <trkpt lat="48.61279" lon="1.61815">
        <ele>119</ele>
        <time>2010-05-14T13:43:22Z</time>
      </trkpt>
      <trkpt lat="48.61278" lon="1.61814">
        <ele>119</ele>
        <time>2010-05-14T13:43:23Z</time>
      </trkpt>
      <trkpt lat="48.61277" lon="1.61812">
        <ele>119</ele>
        <time>2010-05-14T13:43:24Z</time>
      </trkpt>
      <trkpt lat="48.61276" lon="1.6181">
        <ele>119</ele>
        <time>2010-05-14T13:43:25Z</time>
      </trkpt>
      <trkpt lat="48.61276" lon="1.61808">
        <ele>119</ele>
        <time>2010-05-14T13:43:27Z</time>
      </trkpt>
      <trkpt lat="48.61277" lon="1.61805">
        <ele>119</ele>
        <time>2010-05-14T13:43:29Z</time>
      </trkpt>
      <trkpt lat="48.61277" lon="1.61802">
        <ele>119</ele>
        <time>2010-05-14T13:43:30Z</time>
      </trkpt>
      <trkpt lat="48.61277" lon="1.61799">
        <ele>119</ele>
        <time>2010-05-14T13:43:31Z</time>
      </trkpt>
      <trkpt lat="48.61277" lon="1.61796">
        <ele>119</ele>
        <time>2010-05-14T13:43:32Z</time>
      </trkpt>
      <trkpt lat="48.61276" lon="1.61794">
        <ele>119</ele>
        <time>2010-05-14T13:43:33Z</time>
      </trkpt>
      <trkpt lat="48.61276" lon="1.61791">
        <ele>118</ele>
        <time>2010-05-14T13:43:34Z</time>
      </trkpt>
      <trkpt lat="48.61275" lon="1.6179">
        <ele>117</ele>
        <time>2010-05-14T13:43:35Z</time>
      </trkpt>
      <trkpt lat="48.61274" lon="1.61788">
        <ele>117</ele>
        <time>2010-05-14T13:43:36Z</time>
      </trkpt>
      <trkpt lat="48.61274" lon="1.61786">
        <ele>116</ele>
        <time>2010-05-14T13:43:37Z</time>
      </trkpt>
      <trkpt lat="48.61273" lon="1.61784">
        <ele>115</ele>
        <time>2010-05-14T13:43:38Z</time>
      </trkpt>
      <trkpt lat="48.61271" lon="1.61782">
        <ele>115</ele>
        <time>2010-05-14T13:43:40Z</time>
      </trkpt>
      <trkpt lat="48.6127" lon="1.6178">
        <ele>115</ele>
        <time>2010-05-14T13:43:41Z</time>
      </trkpt>
      <trkpt lat="48.61269" lon="1.61778">
        <ele>115</ele>
        <time>2010-05-14T13:43:42Z</time>
      </trkpt>
      <trkpt lat="48.61268" lon="1.61776">
        <ele>115</ele>
        <time>2010-05-14T13:43:43Z</time>
      </trkpt>
      <trkpt lat="48.61268" lon="1.61774">
        <ele>115</ele>
        <time>2010-05-14T13:43:44Z</time>
      </trkpt>
      <trkpt lat="48.61267" lon="1.61772">
        <ele>115</ele>
        <time>2010-05-14T13:43:45Z</time>
      </trkpt>
      <trkpt lat="48.61266" lon="1.6177">
        <ele>115</ele>
        <time>2010-05-14T13:43:46Z</time>
      </trkpt>
      <trkpt lat="48.61266" lon="1.61768">
        <ele>115</ele>
        <time>2010-05-14T13:43:47Z</time>
      </trkpt>
      <trkpt lat="48.61265" lon="1.61767">
        <ele>115</ele>
        <time>2010-05-14T13:43:48Z</time>
      </trkpt>
      <trkpt lat="48.61264" lon="1.61764">
        <ele>115</ele>
        <time>2010-05-14T13:43:50Z</time>
      </trkpt>
      <trkpt lat="48.61264" lon="1.61761">
        <ele>115</ele>
        <time>2010-05-14T13:43:52Z</time>
      </trkpt>
      <trkpt lat="48.61263" lon="1.61759">
        <ele>115</ele>
        <time>2010-05-14T13:43:53Z</time>
      </trkpt>
      <trkpt lat="48.61262" lon="1.61757">
        <ele>115</ele>
        <time>2010-05-14T13:43:55Z</time>
      </trkpt>
      <trkpt lat="48.61262" lon="1.61754">
        <ele>115</ele>
        <time>2010-05-14T13:43:57Z</time>
      </trkpt>
      <trkpt lat="48.61261" lon="1.61751">
        <ele>115</ele>
        <time>2010-05-14T13:43:59Z</time>
      </trkpt>
      <trkpt lat="48.6126" lon="1.61749">
        <ele>115</ele>
        <time>2010-05-14T13:44:00Z</time>
      </trkpt>
      <trkpt lat="48.61258" lon="1.61748">
        <ele>115</ele>
        <time>2010-05-14T13:44:01Z</time>
      </trkpt>
      <trkpt lat="48.61256" lon="1.61745">
        <ele>115</ele>
        <time>2010-05-14T13:44:02Z</time>
      </trkpt>
      <trkpt lat="48.61255" lon="1.61743">
        <ele>115</ele>
        <time>2010-05-14T13:44:03Z</time>
      </trkpt>
      <trkpt lat="48.61254" lon="1.61741">
        <ele>115</ele>
        <time>2010-05-14T13:44:04Z</time>
      </trkpt>
      <trkpt lat="48.61255" lon="1.61739">
        <ele>115</ele>
        <time>2010-05-14T13:44:05Z</time>
      </trkpt>
      <trkpt lat="48.61254" lon="1.61737">
        <ele>115</ele>
        <time>2010-05-14T13:44:06Z</time>
      </trkpt>
      <trkpt lat="48.61253" lon="1.61735">
        <ele>115</ele>
        <time>2010-05-14T13:44:07Z</time>
      </trkpt>
      <trkpt lat="48.61252" lon="1.61732">
        <ele>115</ele>
        <time>2010-05-14T13:44:08Z</time>
      </trkpt>
      <trkpt lat="48.61251" lon="1.61729">
        <ele>115</ele>
        <time>2010-05-14T13:44:09Z</time>
      </trkpt>
      <trkpt lat="48.6125" lon="1.61727">
        <ele>115</ele>
        <time>2010-05-14T13:44:10Z</time>
      </trkpt>
      <trkpt lat="48.6125" lon="1.61725">
        <ele>115</ele>
        <time>2010-05-14T13:44:11Z</time>
      </trkpt>
      <trkpt lat="48.61249" lon="1.61722">
        <ele>115</ele>
        <time>2010-05-14T13:44:13Z</time>
      </trkpt>
      <trkpt lat="48.61249" lon="1.6172">
        <ele>115</ele>
        <time>2010-05-14T13:44:14Z</time>
      </trkpt>
      <trkpt lat="48.61248" lon="1.61718">
        <ele>115</ele>
        <time>2010-05-14T13:44:15Z</time>
      </trkpt>
      <trkpt lat="48.61248" lon="1.61717">
        <ele>115</ele>
        <time>2010-05-14T13:44:16Z</time>
      </trkpt>
      <trkpt lat="48.61247" lon="1.61715">
        <ele>115</ele>
        <time>2010-05-14T13:44:17Z</time>
      </trkpt>
      <trkpt lat="48.61246" lon="1.61713">
        <ele>115</ele>
        <time>2010-05-14T13:44:18Z</time>
      </trkpt>
      <trkpt lat="48.61246" lon="1.61712">
        <ele>115</ele>
        <time>2010-05-14T13:44:19Z</time>
      </trkpt>
      <trkpt lat="48.61244" lon="1.6171">
        <ele>115</ele>
        <time>2010-05-14T13:44:20Z</time>
      </trkpt>
      <trkpt lat="48.61243" lon="1.61708">
        <ele>115</ele>
        <time>2010-05-14T13:44:21Z</time>
      </trkpt>
      <trkpt lat="48.61242" lon="1.61706">
        <ele>115</ele>
        <time>2010-05-14T13:44:22Z</time>
      </trkpt>
      <trkpt lat="48.61241" lon="1.61704">
        <ele>115</ele>
        <time>2010-05-14T13:44:23Z</time>
      </trkpt>
      <trkpt lat="48.61241" lon="1.61702">
        <ele>115</ele>
        <time>2010-05-14T13:44:24Z</time>
      </trkpt>
      <trkpt lat="48.61241" lon="1.617">
        <ele>115</ele>
        <time>2010-05-14T13:44:25Z</time>
      </trkpt>
      <trkpt lat="48.61242" lon="1.61698">
        <ele>115</ele>
        <time>2010-05-14T13:44:26Z</time>
      </trkpt>
      <trkpt lat="48.61241" lon="1.61696">
        <ele>115</ele>
        <time>2010-05-14T13:44:27Z</time>
      </trkpt>
      <trkpt lat="48.6124" lon="1.61694">
        <ele>115</ele>
        <time>2010-05-14T13:44:28Z</time>
      </trkpt>
      <trkpt lat="48.61239" lon="1.61692">
        <ele>115</ele>
        <time>2010-05-14T13:44:29Z</time>
      </trkpt>
      <trkpt lat="48.61238" lon="1.61689">
        <ele>115</ele>
        <time>2010-05-14T13:44:31Z</time>
      </trkpt>
      <trkpt lat="48.61238" lon="1.61687">
        <ele>115</ele>
        <time>2010-05-14T13:44:32Z</time>
      </trkpt>
      <trkpt lat="48.61237" lon="1.61685">
        <ele>115</ele>
        <time>2010-05-14T13:44:33Z</time>
      </trkpt>
      <trkpt lat="48.61237" lon="1.61683">
        <ele>115</ele>
        <time>2010-05-14T13:44:35Z</time>
      </trkpt>
      <trkpt lat="48.61235" lon="1.61681">
        <ele>115</ele>
        <time>2010-05-14T13:44:37Z</time>
      </trkpt>
      <trkpt lat="48.61235" lon="1.61679">
        <ele>115</ele>
        <time>2010-05-14T13:44:38Z</time>
      </trkpt>
      <trkpt lat="48.61234" lon="1.61677">
        <ele>115</ele>
        <time>2010-05-14T13:44:39Z</time>
      </trkpt>
      <trkpt lat="48.61232" lon="1.61675">
        <ele>115</ele>
        <time>2010-05-14T13:44:41Z</time>
      </trkpt>
      <trkpt lat="48.61231" lon="1.61673">
        <ele>115</ele>
        <time>2010-05-14T13:44:42Z</time>
      </trkpt>
      <trkpt lat="48.6123" lon="1.61672">
        <ele>115</ele>
        <time>2010-05-14T13:44:43Z</time>
      </trkpt>
      <trkpt lat="48.61228" lon="1.61671">
        <ele>115</ele>
        <time>2010-05-14T13:44:44Z</time>
      </trkpt>
      <trkpt lat="48.61226" lon="1.61669">
        <ele>114</ele>
        <time>2010-05-14T13:44:45Z</time>
      </trkpt>
      <trkpt lat="48.61224" lon="1.61667">
        <ele>114</ele>
        <time>2010-05-14T13:44:46Z</time>
      </trkpt>
      <trkpt lat="48.61223" lon="1.61664">
        <ele>114</ele>
        <time>2010-05-14T13:44:48Z</time>
      </trkpt>
      <trkpt lat="48.61222" lon="1.61662">
        <ele>114</ele>
        <time>2010-05-14T13:44:50Z</time>
      </trkpt>
      <trkpt lat="48.61221" lon="1.6166">
        <ele>114</ele>
        <time>2010-05-14T13:44:51Z</time>
      </trkpt>
      <trkpt lat="48.6122" lon="1.61658">
        <ele>114</ele>
        <time>2010-05-14T13:44:52Z</time>
      </trkpt>
      <trkpt lat="48.6122" lon="1.61656">
        <ele>114</ele>
        <time>2010-05-14T13:44:53Z</time>
      </trkpt>
      <trkpt lat="48.61218" lon="1.61654">
        <ele>114</ele>
        <time>2010-05-14T13:44:55Z</time>
      </trkpt>
      <trkpt lat="48.61218" lon="1.61652">
        <ele>115</ele>
        <time>2010-05-14T13:44:56Z</time>
      </trkpt>
      <trkpt lat="48.61218" lon="1.6165">
        <ele>115</ele>
        <time>2010-05-14T13:44:58Z</time>
      </trkpt>
      <trkpt lat="48.61216" lon="1.61649">
        <ele>116</ele>
        <time>2010-05-14T13:44:59Z</time>
      </trkpt>
      <trkpt lat="48.61215" lon="1.61647">
        <ele>117</ele>
        <time>2010-05-14T13:45:00Z</time>
      </trkpt>
      <trkpt lat="48.61214" lon="1.61645">
        <ele>118</ele>
        <time>2010-05-14T13:45:01Z</time>
      </trkpt>
      <trkpt lat="48.61213" lon="1.61643">
        <ele>119</ele>
        <time>2010-05-14T13:45:04Z</time>
      </trkpt>
      <trkpt lat="48.61214" lon="1.6164">
        <ele>120</ele>
        <time>2010-05-14T13:45:07Z</time>
      </trkpt>
      <trkpt lat="48.61212" lon="1.61637">
        <ele>122</ele>
        <time>2010-05-14T13:45:09Z</time>
      </trkpt>
      <trkpt lat="48.6121" lon="1.61635">
        <ele>122</ele>
        <time>2010-05-14T13:45:10Z</time>
      </trkpt>
      <trkpt lat="48.61209" lon="1.61635">
        <ele>122</ele>
        <time>2010-05-14T13:45:11Z</time>
      </trkpt>
      <trkpt lat="48.61208" lon="1.61633">
        <ele>122</ele>
        <time>2010-05-14T13:45:13Z</time>
      </trkpt>
      <trkpt lat="48.61207" lon="1.6163">
        <ele>122</ele>
        <time>2010-05-14T13:45:15Z</time>
      </trkpt>
      <trkpt lat="48.61206" lon="1.61627">
        <ele>122</ele>
        <time>2010-05-14T13:45:17Z</time>
      </trkpt>
      <trkpt lat="48.61205" lon="1.61625">
        <ele>122</ele>
        <time>2010-05-14T13:45:18Z</time>
      </trkpt>
      <trkpt lat="48.61205" lon="1.61622">
        <ele>122</ele>
        <time>2010-05-14T13:45:20Z</time>
      </trkpt>
      <trkpt lat="48.61203" lon="1.61621">
        <ele>122</ele>
        <time>2010-05-14T13:45:22Z</time>
      </trkpt>
      <trkpt lat="48.61202" lon="1.61619">
        <ele>122</ele>
        <time>2010-05-14T13:45:24Z</time>
      </trkpt>
      <trkpt lat="48.61201" lon="1.61619">
        <ele>122</ele>
        <time>2010-05-14T13:45:27Z</time>
      </trkpt>
      <trkpt lat="48.61199" lon="1.6162">
        <ele>122</ele>
        <time>2010-05-14T13:45:30Z</time>
      </trkpt>
      <trkpt lat="48.61199" lon="1.61622">
        <ele>122</ele>
        <time>2010-05-14T13:45:41Z</time>
      </trkpt>
      <trkpt lat="48.61197" lon="1.61621">
        <ele>122</ele>
        <time>2010-05-14T13:45:45Z</time>
      </trkpt>
      <trkpt lat="48.61196" lon="1.61618">
        <ele>122</ele>
        <time>2010-05-14T13:45:47Z</time>
      </trkpt>
      <trkpt lat="48.61194" lon="1.61615">
        <ele>122</ele>
        <time>2010-05-14T13:45:49Z</time>
      </trkpt>
      <trkpt lat="48.61193" lon="1.61614">
        <ele>122</ele>
        <time>2010-05-14T13:45:50Z</time>
      </trkpt>
      <trkpt lat="48.61193" lon="1.61612">
        <ele>122</ele>
        <time>2010-05-14T13:45:51Z</time>
      </trkpt>
      <trkpt lat="48.61192" lon="1.6161">
        <ele>122</ele>
        <time>2010-05-14T13:45:52Z</time>
      </trkpt>
      <trkpt lat="48.6119" lon="1.61607">
        <ele>122</ele>
        <time>2010-05-14T13:45:54Z</time>
      </trkpt>
      <trkpt lat="48.61188" lon="1.61603">
        <ele>122</ele>
        <time>2010-05-14T13:45:56Z</time>
      </trkpt>
      <trkpt lat="48.61188" lon="1.61601">
        <ele>122</ele>
        <time>2010-05-14T13:45:57Z</time>
      </trkpt>
      <trkpt lat="48.61187" lon="1.616">
        <ele>122</ele>
        <time>2010-05-14T13:45:58Z</time>
      </trkpt>
      <trkpt lat="48.61187" lon="1.61598">
        <ele>122</ele>
        <time>2010-05-14T13:45:59Z</time>
      </trkpt>
      <trkpt lat="48.61186" lon="1.61596">
        <ele>122</ele>
        <time>2010-05-14T13:46:00Z</time>
      </trkpt>
      <trkpt lat="48.61185" lon="1.61594">
        <ele>122</ele>
        <time>2010-05-14T13:46:01Z</time>
      </trkpt>
      <trkpt lat="48.61184" lon="1.61591">
        <ele>122</ele>
        <time>2010-05-14T13:46:02Z</time>
      </trkpt>
      <trkpt lat="48.61183" lon="1.6159">
        <ele>122</ele>
        <time>2010-05-14T13:46:03Z</time>
      </trkpt>
      <trkpt lat="48.61183" lon="1.61588">
        <ele>122</ele>
        <time>2010-05-14T13:46:04Z</time>
      </trkpt>
      <trkpt lat="48.61182" lon="1.61585">
        <ele>122</ele>
        <time>2010-05-14T13:46:06Z</time>
      </trkpt>
      <trkpt lat="48.6118" lon="1.61583">
        <ele>122</ele>
        <time>2010-05-14T13:46:07Z</time>
      </trkpt>
      <trkpt lat="48.61179" lon="1.61582">
        <ele>122</ele>
        <time>2010-05-14T13:46:08Z</time>
      </trkpt>
      <trkpt lat="48.61178" lon="1.61578">
        <ele>122</ele>
        <time>2010-05-14T13:46:10Z</time>
      </trkpt>
      <trkpt lat="48.61178" lon="1.61577">
        <ele>122</ele>
        <time>2010-05-14T13:46:11Z</time>
      </trkpt>
      <trkpt lat="48.61176" lon="1.61575">
        <ele>122</ele>
        <time>2010-05-14T13:46:12Z</time>
      </trkpt>
      <trkpt lat="48.61175" lon="1.61573">
        <ele>122</ele>
        <time>2010-05-14T13:46:13Z</time>
      </trkpt>
      <trkpt lat="48.61174" lon="1.61571">
        <ele>122</ele>
        <time>2010-05-14T13:46:14Z</time>
      </trkpt>
      <trkpt lat="48.61173" lon="1.61569">
        <ele>122</ele>
        <time>2010-05-14T13:46:15Z</time>
      </trkpt>
      <trkpt lat="48.61172" lon="1.61568">
        <ele>122</ele>
        <time>2010-05-14T13:46:16Z</time>
      </trkpt>
      <trkpt lat="48.61171" lon="1.61566">
        <ele>121</ele>
        <time>2010-05-14T13:46:17Z</time>
      </trkpt>
      <trkpt lat="48.6117" lon="1.61564">
        <ele>121</ele>
        <time>2010-05-14T13:46:18Z</time>
      </trkpt>
      <trkpt lat="48.61169" lon="1.61563">
        <ele>121</ele>
        <time>2010-05-14T13:46:19Z</time>
      </trkpt>
      <trkpt lat="48.61168" lon="1.61561">
        <ele>121</ele>
        <time>2010-05-14T13:46:20Z</time>
      </trkpt>
      <trkpt lat="48.61167" lon="1.6156">
        <ele>121</ele>
        <time>2010-05-14T13:46:21Z</time>
      </trkpt>
      <trkpt lat="48.61165" lon="1.61557">
        <ele>121</ele>
        <time>2010-05-14T13:46:23Z</time>
      </trkpt>
      <trkpt lat="48.61164" lon="1.61553">
        <ele>121</ele>
        <time>2010-05-14T13:46:25Z</time>
      </trkpt>
      <trkpt lat="48.61163" lon="1.61551">
        <ele>121</ele>
        <time>2010-05-14T13:46:26Z</time>
      </trkpt>
      <trkpt lat="48.61162" lon="1.61548">
        <ele>120</ele>
        <time>2010-05-14T13:46:27Z</time>
      </trkpt>
      <trkpt lat="48.61161" lon="1.61546">
        <ele>120</ele>
        <time>2010-05-14T13:46:28Z</time>
      </trkpt>
      <trkpt lat="48.6116" lon="1.61544">
        <ele>120</ele>
        <time>2010-05-14T13:46:29Z</time>
      </trkpt>
      <trkpt lat="48.6116" lon="1.61541">
        <ele>120</ele>
        <time>2010-05-14T13:46:30Z</time>
      </trkpt>
      <trkpt lat="48.61158" lon="1.61539">
        <ele>119</ele>
        <time>2010-05-14T13:46:31Z</time>
      </trkpt>
      <trkpt lat="48.61157" lon="1.61538">
        <ele>119</ele>
        <time>2010-05-14T13:46:32Z</time>
      </trkpt>
      <trkpt lat="48.61156" lon="1.61536">
        <ele>119</ele>
        <time>2010-05-14T13:46:33Z</time>
      </trkpt>
      <trkpt lat="48.61156" lon="1.61534">
        <ele>119</ele>
        <time>2010-05-14T13:46:34Z</time>
      </trkpt>
      <trkpt lat="48.61155" lon="1.61533">
        <ele>119</ele>
        <time>2010-05-14T13:46:35Z</time>
      </trkpt>
      <trkpt lat="48.61154" lon="1.61531">
        <ele>119</ele>
        <time>2010-05-14T13:46:36Z</time>
      </trkpt>
      <trkpt lat="48.61153" lon="1.61529">
        <ele>119</ele>
        <time>2010-05-14T13:46:37Z</time>
      </trkpt>
      <trkpt lat="48.61153" lon="1.61527">
        <ele>119</ele>
        <time>2010-05-14T13:46:38Z</time>
      </trkpt>
      <trkpt lat="48.61152" lon="1.61524">
        <ele>119</ele>
        <time>2010-05-14T13:46:40Z</time>
      </trkpt>
      <trkpt lat="48.61151" lon="1.61522">
        <ele>119</ele>
        <time>2010-05-14T13:46:42Z</time>
      </trkpt>
      <trkpt lat="48.61151" lon="1.61521">
        <ele>119</ele>
        <time>2010-05-14T13:46:43Z</time>
      </trkpt>
      <trkpt lat="48.6115" lon="1.61518">
        <ele>119</ele>
        <time>2010-05-14T13:46:45Z</time>
      </trkpt>
      <trkpt lat="48.61149" lon="1.61515">
        <ele>119</ele>
        <time>2010-05-14T13:46:47Z</time>
      </trkpt>
      <trkpt lat="48.61148" lon="1.61514">
        <ele>119</ele>
        <time>2010-05-14T13:46:48Z</time>
      </trkpt>
      <trkpt lat="48.61147" lon="1.6151">
        <ele>119</ele>
        <time>2010-05-14T13:46:50Z</time>
      </trkpt>
      <trkpt lat="48.61146" lon="1.61508">
        <ele>119</ele>
        <time>2010-05-14T13:46:51Z</time>
      </trkpt>
      <trkpt lat="48.61146" lon="1.61507">
        <ele>119</ele>
        <time>2010-05-14T13:46:52Z</time>
      </trkpt>
      <trkpt lat="48.61145" lon="1.61504">
        <ele>119</ele>
        <time>2010-05-14T13:46:53Z</time>
      </trkpt>
      <trkpt lat="48.61144" lon="1.615">
        <ele>119</ele>
        <time>2010-05-14T13:46:54Z</time>
      </trkpt>
      <trkpt lat="48.61143" lon="1.61496">
        <ele>119</ele>
        <time>2010-05-14T13:46:55Z</time>
      </trkpt>
      <trkpt lat="48.61142" lon="1.61494">
        <ele>119</ele>
        <time>2010-05-14T13:46:56Z</time>
      </trkpt>
      <trkpt lat="48.61141" lon="1.61492">
        <ele>119</ele>
        <time>2010-05-14T13:46:57Z</time>
      </trkpt>
      <trkpt lat="48.6114" lon="1.6149">
        <ele>119</ele>
        <time>2010-05-14T13:46:58Z</time>
      </trkpt>
      <trkpt lat="48.6114" lon="1.61487">
        <ele>119</ele>
        <time>2010-05-14T13:46:59Z</time>
      </trkpt>
      <trkpt lat="48.61139" lon="1.61485">
        <ele>119</ele>
        <time>2010-05-14T13:47:00Z</time>
      </trkpt>
      <trkpt lat="48.61139" lon="1.61483">
        <ele>119</ele>
        <time>2010-05-14T13:47:01Z</time>
      </trkpt>
      <trkpt lat="48.61138" lon="1.61481">
        <ele>119</ele>
        <time>2010-05-14T13:47:02Z</time>
      </trkpt>
      <trkpt lat="48.61137" lon="1.61479">
        <ele>119</ele>
        <time>2010-05-14T13:47:03Z</time>
      </trkpt>
      <trkpt lat="48.61136" lon="1.61477">
        <ele>119</ele>
        <time>2010-05-14T13:47:04Z</time>
      </trkpt>
      <trkpt lat="48.61135" lon="1.61476">
        <ele>119</ele>
        <time>2010-05-14T13:47:05Z</time>
      </trkpt>
      <trkpt lat="48.61133" lon="1.61473">
        <ele>119</ele>
        <time>2010-05-14T13:47:07Z</time>
      </trkpt>
      <trkpt lat="48.61131" lon="1.6147">
        <ele>119</ele>
        <time>2010-05-14T13:47:09Z</time>
      </trkpt>
      <trkpt lat="48.6113" lon="1.61468">
        <ele>119</ele>
        <time>2010-05-14T13:47:10Z</time>
      </trkpt>
      <trkpt lat="48.61129" lon="1.61467">
        <ele>119</ele>
        <time>2010-05-14T13:47:11Z</time>
      </trkpt>
      <trkpt lat="48.61128" lon="1.61465">
        <ele>119</ele>
        <time>2010-05-14T13:47:12Z</time>
      </trkpt>
      <trkpt lat="48.61127" lon="1.61463">
        <ele>119</ele>
        <time>2010-05-14T13:47:13Z</time>
      </trkpt>
      <trkpt lat="48.61127" lon="1.61461">
        <ele>119</ele>
        <time>2010-05-14T13:47:14Z</time>
      </trkpt>
      <trkpt lat="48.61126" lon="1.61459">
        <ele>119</ele>
        <time>2010-05-14T13:47:15Z</time>
      </trkpt>
      <trkpt lat="48.61125" lon="1.61457">
        <ele>119</ele>
        <time>2010-05-14T13:47:16Z</time>
      </trkpt>
      <trkpt lat="48.61124" lon="1.61455">
        <ele>119</ele>
        <time>2010-05-14T13:47:17Z</time>
      </trkpt>
      <trkpt lat="48.61123" lon="1.61452">
        <ele>119</ele>
        <time>2010-05-14T13:47:18Z</time>
      </trkpt>
      <trkpt lat="48.61122" lon="1.61451">
        <ele>119</ele>
        <time>2010-05-14T13:47:19Z</time>
      </trkpt>
      <trkpt lat="48.61121" lon="1.61449">
        <ele>119</ele>
        <time>2010-05-14T13:47:20Z</time>
      </trkpt>
      <trkpt lat="48.61121" lon="1.61447">
        <ele>119</ele>
        <time>2010-05-14T13:47:21Z</time>
      </trkpt>
      <trkpt lat="48.6112" lon="1.61445">
        <ele>119</ele>
        <time>2010-05-14T13:47:22Z</time>
      </trkpt>
      <trkpt lat="48.61118" lon="1.61442">
        <ele>119</ele>
        <time>2010-05-14T13:47:24Z</time>
      </trkpt>
      <trkpt lat="48.61117" lon="1.6144">
        <ele>119</ele>
        <time>2010-05-14T13:47:25Z</time>
      </trkpt>
      <trkpt lat="48.61117" lon="1.61437">
        <ele>119</ele>
        <time>2010-05-14T13:47:27Z</time>
      </trkpt>
      <trkpt lat="48.61116" lon="1.61435">
        <ele>119</ele>
        <time>2010-05-14T13:47:28Z</time>
      </trkpt>
      <trkpt lat="48.61116" lon="1.61433">
        <ele>119</ele>
        <time>2010-05-14T13:47:29Z</time>
      </trkpt>
      <trkpt lat="48.61115" lon="1.61431">
        <ele>119</ele>
        <time>2010-05-14T13:47:30Z</time>
      </trkpt>
      <trkpt lat="48.61115" lon="1.61429">
        <ele>119</ele>
        <time>2010-05-14T13:47:31Z</time>
      </trkpt>
      <trkpt lat="48.61114" lon="1.61427">
        <ele>119</ele>
        <time>2010-05-14T13:47:32Z</time>
      </trkpt>
      <trkpt lat="48.61114" lon="1.61425">
        <ele>119</ele>
        <time>2010-05-14T13:47:33Z</time>
      </trkpt>
      <trkpt lat="48.61113" lon="1.61423">
        <ele>119</ele>
        <time>2010-05-14T13:47:34Z</time>
      </trkpt>
      <trkpt lat="48.61113" lon="1.61422">
        <ele>119</ele>
        <time>2010-05-14T13:47:35Z</time>
      </trkpt>
      <trkpt lat="48.61113" lon="1.6142">
        <ele>119</ele>
        <time>2010-05-14T13:47:36Z</time>
      </trkpt>
      <trkpt lat="48.61112" lon="1.61418">
        <ele>119</ele>
        <time>2010-05-14T13:47:37Z</time>
      </trkpt>
      <trkpt lat="48.61112" lon="1.61416">
        <ele>119</ele>
        <time>2010-05-14T13:47:38Z</time>
      </trkpt>
      <trkpt lat="48.61111" lon="1.61415">
        <ele>119</ele>
        <time>2010-05-14T13:47:39Z</time>
      </trkpt>
      <trkpt lat="48.6111" lon="1.61413">
        <ele>119</ele>
        <time>2010-05-14T13:47:40Z</time>
      </trkpt>
      <trkpt lat="48.61109" lon="1.61411">
        <ele>119</ele>
        <time>2010-05-14T13:47:41Z</time>
      </trkpt>
      <trkpt lat="48.61109" lon="1.61409">
        <ele>119</ele>
        <time>2010-05-14T13:47:42Z</time>
      </trkpt>
      <trkpt lat="48.61109" lon="1.61407">
        <ele>119</ele>
        <time>2010-05-14T13:47:43Z</time>
      </trkpt>
      <trkpt lat="48.61108" lon="1.61405">
        <ele>119</ele>
        <time>2010-05-14T13:47:44Z</time>
      </trkpt>
      <trkpt lat="48.61107" lon="1.61403">
        <ele>119</ele>
        <time>2010-05-14T13:47:45Z</time>
      </trkpt>
      <trkpt lat="48.61107" lon="1.61401">
        <ele>119</ele>
        <time>2010-05-14T13:47:46Z</time>
      </trkpt>
      <trkpt lat="48.61106" lon="1.61399">
        <ele>119</ele>
        <time>2010-05-14T13:47:47Z</time>
      </trkpt>
      <trkpt lat="48.61106" lon="1.61397">
        <ele>119</ele>
        <time>2010-05-14T13:47:48Z</time>
      </trkpt>
      <trkpt lat="48.61105" lon="1.61395">
        <ele>119</ele>
        <time>2010-05-14T13:47:49Z</time>
      </trkpt>
      <trkpt lat="48.61105" lon="1.61393">
        <ele>118</ele>
        <time>2010-05-14T13:47:50Z</time>
      </trkpt>
      <trkpt lat="48.61104" lon="1.61391">
        <ele>118</ele>
        <time>2010-05-14T13:47:51Z</time>
      </trkpt>
      <trkpt lat="48.61104" lon="1.61389">
        <ele>118</ele>
        <time>2010-05-14T13:47:52Z</time>
      </trkpt>
      <trkpt lat="48.61103" lon="1.61388">
        <ele>118</ele>
        <time>2010-05-14T13:47:53Z</time>
      </trkpt>
      <trkpt lat="48.61102" lon="1.61386">
        <ele>118</ele>
        <time>2010-05-14T13:47:54Z</time>
      </trkpt>
      <trkpt lat="48.61101" lon="1.61384">
        <ele>118</ele>
        <time>2010-05-14T13:47:55Z</time>
      </trkpt>
      <trkpt lat="48.61101" lon="1.61382">
        <ele>118</ele>
        <time>2010-05-14T13:47:56Z</time>
      </trkpt>
      <trkpt lat="48.611" lon="1.6138">
        <ele>118</ele>
        <time>2010-05-14T13:47:57Z</time>
      </trkpt>
      <trkpt lat="48.61099" lon="1.61378">
        <ele>118</ele>
        <time>2010-05-14T13:47:58Z</time>
      </trkpt>
      <trkpt lat="48.61099" lon="1.61376">
        <ele>118</ele>
        <time>2010-05-14T13:47:59Z</time>
      </trkpt>
      <trkpt lat="48.61098" lon="1.61374">
        <ele>118</ele>
        <time>2010-05-14T13:48:00Z</time>
      </trkpt>
      <trkpt lat="48.61097" lon="1.61372">
        <ele>118</ele>
        <time>2010-05-14T13:48:01Z</time>
      </trkpt>
      <trkpt lat="48.61096" lon="1.6137">
        <ele>118</ele>
        <time>2010-05-14T13:48:02Z</time>
      </trkpt>
      <trkpt lat="48.61095" lon="1.61369">
        <ele>118</ele>
        <time>2010-05-14T13:48:03Z</time>
      </trkpt>
      <trkpt lat="48.61094" lon="1.61367">
        <ele>118</ele>
        <time>2010-05-14T13:48:04Z</time>
      </trkpt>
      <trkpt lat="48.61093" lon="1.61363">
        <ele>118</ele>
        <time>2010-05-14T13:48:06Z</time>
      </trkpt>
      <trkpt lat="48.61093" lon="1.61361">
        <ele>118</ele>
        <time>2010-05-14T13:48:07Z</time>
      </trkpt>
      <trkpt lat="48.61092" lon="1.61359">
        <ele>118</ele>
        <time>2010-05-14T13:48:08Z</time>
      </trkpt>
      <trkpt lat="48.61091" lon="1.61358">
        <ele>118</ele>
        <time>2010-05-14T13:48:09Z</time>
      </trkpt>
      <trkpt lat="48.6109" lon="1.61356">
        <ele>118</ele>
        <time>2010-05-14T13:48:10Z</time>
      </trkpt>
      <trkpt lat="48.61088" lon="1.61354">
        <ele>118</ele>
        <time>2010-05-14T13:48:12Z</time>
      </trkpt>
      <trkpt lat="48.61086" lon="1.61351">
        <ele>118</ele>
        <time>2010-05-14T13:48:14Z</time>
      </trkpt>
      <trkpt lat="48.61086" lon="1.61349">
        <ele>118</ele>
        <time>2010-05-14T13:48:15Z</time>
      </trkpt>
      <trkpt lat="48.61085" lon="1.61347">
        <ele>118</ele>
        <time>2010-05-14T13:48:17Z</time>
      </trkpt>
      <trkpt lat="48.61085" lon="1.61345">
        <ele>118</ele>
        <time>2010-05-14T13:48:17Z</time>
      </trkpt>
      <trkpt lat="48.61084" lon="1.61343">
        <ele>118</ele>
        <time>2010-05-14T13:48:18Z</time>
      </trkpt>
      <trkpt lat="48.61084" lon="1.61341">
        <ele>118</ele>
        <time>2010-05-14T13:48:19Z</time>
      </trkpt>
      <trkpt lat="48.61083" lon="1.61339">
        <ele>118</ele>
        <time>2010-05-14T13:48:20Z</time>
      </trkpt>
      <trkpt lat="48.61082" lon="1.61336">
        <ele>118</ele>
        <time>2010-05-14T13:48:22Z</time>
      </trkpt>
      <trkpt lat="48.61082" lon="1.61334">
        <ele>118</ele>
        <time>2010-05-14T13:48:23Z</time>
      </trkpt>
      <trkpt lat="48.61081" lon="1.61331">
        <ele>118</ele>
        <time>2010-05-14T13:48:25Z</time>
      </trkpt>
      <trkpt lat="48.6108" lon="1.61329">
        <ele>118</ele>
        <time>2010-05-14T13:48:26Z</time>
      </trkpt>
      <trkpt lat="48.61079" lon="1.61327">
        <ele>118</ele>
        <time>2010-05-14T13:48:27Z</time>
      </trkpt>
      <trkpt lat="48.61079" lon="1.61325">
        <ele>118</ele>
        <time>2010-05-14T13:48:28Z</time>
      </trkpt>
      <trkpt lat="48.61079" lon="1.61323">
        <ele>118</ele>
        <time>2010-05-14T13:48:29Z</time>
      </trkpt>
      <trkpt lat="48.61079" lon="1.61321">
        <ele>118</ele>
        <time>2010-05-14T13:48:30Z</time>
      </trkpt>
      <trkpt lat="48.61078" lon="1.61319">
        <ele>118</ele>
        <time>2010-05-14T13:48:31Z</time>
      </trkpt>
      <trkpt lat="48.61078" lon="1.61317">
        <ele>118</ele>
        <time>2010-05-14T13:48:32Z</time>
      </trkpt>
      <trkpt lat="48.61077" lon="1.61315">
        <ele>118</ele>
        <time>2010-05-14T13:48:33Z</time>
      </trkpt>
      <trkpt lat="48.61077" lon="1.61313">
        <ele>118</ele>
        <time>2010-05-14T13:48:34Z</time>
      </trkpt>
      <trkpt lat="48.61076" lon="1.61311">
        <ele>118</ele>
        <time>2010-05-14T13:48:35Z</time>
      </trkpt>
      <trkpt lat="48.61076" lon="1.61309">
        <ele>118</ele>
        <time>2010-05-14T13:48:36Z</time>
      </trkpt>
      <trkpt lat="48.61076" lon="1.61307">
        <ele>118</ele>
        <time>2010-05-14T13:48:37Z</time>
      </trkpt>
      <trkpt lat="48.61075" lon="1.61305">
        <ele>118</ele>
        <time>2010-05-14T13:48:38Z</time>
      </trkpt>
      <trkpt lat="48.61075" lon="1.61302">
        <ele>118</ele>
        <time>2010-05-14T13:48:39Z</time>
      </trkpt>
      <trkpt lat="48.61075" lon="1.613">
        <ele>118</ele>
        <time>2010-05-14T13:48:40Z</time>
      </trkpt>
      <trkpt lat="48.61075" lon="1.61297">
        <ele>118</ele>
        <time>2010-05-14T13:48:41Z</time>
      </trkpt>
      <trkpt lat="48.61075" lon="1.61295">
        <ele>118</ele>
        <time>2010-05-14T13:48:42Z</time>
      </trkpt>
      <trkpt lat="48.61075" lon="1.61293">
        <ele>118</ele>
        <time>2010-05-14T13:48:43Z</time>
      </trkpt>
      <trkpt lat="48.61075" lon="1.6129">
        <ele>118</ele>
        <time>2010-05-14T13:48:44Z</time>
      </trkpt>
      <trkpt lat="48.61074" lon="1.61288">
        <ele>117</ele>
        <time>2010-05-14T13:48:45Z</time>
      </trkpt>
      <trkpt lat="48.61074" lon="1.61286">
        <ele>117</ele>
        <time>2010-05-14T13:48:46Z</time>
      </trkpt>
      <trkpt lat="48.61073" lon="1.61284">
        <ele>117</ele>
        <time>2010-05-14T13:48:47Z</time>
      </trkpt>
      <trkpt lat="48.61073" lon="1.61283">
        <ele>117</ele>
        <time>2010-05-14T13:48:48Z</time>
      </trkpt>
      <trkpt lat="48.61073" lon="1.61279">
        <ele>116</ele>
        <time>2010-05-14T13:48:50Z</time>
      </trkpt>
      <trkpt lat="48.61073" lon="1.61278">
        <ele>116</ele>
        <time>2010-05-14T13:48:51Z</time>
      </trkpt>
      <trkpt lat="48.61073" lon="1.61275">
        <ele>116</ele>
        <time>2010-05-14T13:48:52Z</time>
      </trkpt>
      <trkpt lat="48.61073" lon="1.61273">
        <ele>116</ele>
        <time>2010-05-14T13:48:53Z</time>
      </trkpt>
      <trkpt lat="48.61073" lon="1.61271">
        <ele>116</ele>
        <time>2010-05-14T13:48:54Z</time>
      </trkpt>
      <trkpt lat="48.61073" lon="1.6127">
        <ele>116</ele>
        <time>2010-05-14T13:48:55Z</time>
      </trkpt>
      <trkpt lat="48.61075" lon="1.61268">
        <ele>116</ele>
        <time>2010-05-14T13:48:56Z</time>
      </trkpt>
      <trkpt lat="48.61075" lon="1.61266">
        <ele>116</ele>
        <time>2010-05-14T13:48:57Z</time>
      </trkpt>
      <trkpt lat="48.61075" lon="1.61263">
        <ele>116</ele>
        <time>2010-05-14T13:48:58Z</time>
      </trkpt>
      <trkpt lat="48.61075" lon="1.61261">
        <ele>116</ele>
        <time>2010-05-14T13:48:59Z</time>
      </trkpt>
      <trkpt lat="48.61075" lon="1.61258">
        <ele>116</ele>
        <time>2010-05-14T13:49:00Z</time>
      </trkpt>
      <trkpt lat="48.61076" lon="1.61256">
        <ele>116</ele>
        <time>2010-05-14T13:49:01Z</time>
      </trkpt>
      <trkpt lat="48.61076" lon="1.61254">
        <ele>116</ele>
        <time>2010-05-14T13:49:02Z</time>
      </trkpt>
      <trkpt lat="48.61076" lon="1.61252">
        <ele>116</ele>
        <time>2010-05-14T13:49:03Z</time>
      </trkpt>
      <trkpt lat="48.61075" lon="1.61249">
        <ele>116</ele>
        <time>2010-05-14T13:49:05Z</time>
      </trkpt>
      <trkpt lat="48.61075" lon="1.61246">
        <ele>116</ele>
        <time>2010-05-14T13:49:06Z</time>
      </trkpt>
      <trkpt lat="48.61075" lon="1.61244">
        <ele>116</ele>
        <time>2010-05-14T13:49:07Z</time>
      </trkpt>
      <trkpt lat="48.61076" lon="1.61242">
        <ele>116</ele>
        <time>2010-05-14T13:49:08Z</time>
      </trkpt>
      <trkpt lat="48.61076" lon="1.61239">
        <ele>116</ele>
        <time>2010-05-14T13:49:09Z</time>
      </trkpt>
      <trkpt lat="48.61076" lon="1.61237">
        <ele>116</ele>
        <time>2010-05-14T13:49:10Z</time>
      </trkpt>
      <trkpt lat="48.61076" lon="1.61235">
        <ele>116</ele>
        <time>2010-05-14T13:49:11Z</time>
      </trkpt>
      <trkpt lat="48.61075" lon="1.61234">
        <ele>116</ele>
        <time>2010-05-14T13:49:12Z</time>
      </trkpt>
      <trkpt lat="48.61075" lon="1.61232">
        <ele>116</ele>
        <time>2010-05-14T13:49:13Z</time>
      </trkpt>
      <trkpt lat="48.61076" lon="1.61229">
        <ele>116</ele>
        <time>2010-05-14T13:49:15Z</time>
      </trkpt>
      <trkpt lat="48.61076" lon="1.61227">
        <ele>116</ele>
        <time>2010-05-14T13:49:16Z</time>
      </trkpt>
      <trkpt lat="48.61075" lon="1.61225">
        <ele>116</ele>
        <time>2010-05-14T13:49:17Z</time>
      </trkpt>
      <trkpt lat="48.61075" lon="1.61223">
        <ele>116</ele>
        <time>2010-05-14T13:49:18Z</time>
      </trkpt>
      <trkpt lat="48.61074" lon="1.6122">
        <ele>116</ele>
        <time>2010-05-14T13:49:20Z</time>
      </trkpt>
      <trkpt lat="48.61073" lon="1.61219">
        <ele>116</ele>
        <time>2010-05-14T13:49:21Z</time>
      </trkpt>
      <trkpt lat="48.61073" lon="1.61216">
        <ele>116</ele>
        <time>2010-05-14T13:49:22Z</time>
      </trkpt>
      <trkpt lat="48.61073" lon="1.61214">
        <ele>116</ele>
        <time>2010-05-14T13:49:23Z</time>
      </trkpt>
      <trkpt lat="48.61073" lon="1.61212">
        <ele>116</ele>
        <time>2010-05-14T13:49:24Z</time>
      </trkpt>
      <trkpt lat="48.61073" lon="1.6121">
        <ele>116</ele>
        <time>2010-05-14T13:49:25Z</time>
      </trkpt>
      <trkpt lat="48.61072" lon="1.61207">
        <ele>116</ele>
        <time>2010-05-14T13:49:26Z</time>
      </trkpt>
      <trkpt lat="48.61071" lon="1.61204">
        <ele>116</ele>
        <time>2010-05-14T13:49:28Z</time>
      </trkpt>
      <trkpt lat="48.61072" lon="1.61201">
        <ele>116</ele>
        <time>2010-05-14T13:49:30Z</time>
      </trkpt>
      <trkpt lat="48.61073" lon="1.61198">
        <ele>116</ele>
        <time>2010-05-14T13:49:32Z</time>
      </trkpt>
      <trkpt lat="48.61073" lon="1.61196">
        <ele>116</ele>
        <time>2010-05-14T13:49:33Z</time>
      </trkpt>
      <trkpt lat="48.61075" lon="1.61194">
        <ele>116</ele>
        <time>2010-05-14T13:49:34Z</time>
      </trkpt>
      <trkpt lat="48.61077" lon="1.61192">
        <ele>116</ele>
        <time>2010-05-14T13:49:35Z</time>
      </trkpt>
      <trkpt lat="48.61077" lon="1.61191">
        <ele>116</ele>
        <time>2010-05-14T13:49:36Z</time>
      </trkpt>
      <trkpt lat="48.61076" lon="1.61188">
        <ele>116</ele>
        <time>2010-05-14T13:49:38Z</time>
      </trkpt>
      <trkpt lat="48.61075" lon="1.61186">
        <ele>116</ele>
        <time>2010-05-14T13:49:40Z</time>
      </trkpt>
      <trkpt lat="48.61074" lon="1.61184">
        <ele>116</ele>
        <time>2010-05-14T13:49:41Z</time>
      </trkpt>
      <trkpt lat="48.61072" lon="1.61182">
        <ele>116</ele>
        <time>2010-05-14T13:49:42Z</time>
      </trkpt>
      <trkpt lat="48.61071" lon="1.6118">
        <ele>116</ele>
        <time>2010-05-14T13:49:43Z</time>
      </trkpt>
      <trkpt lat="48.6107" lon="1.61177">
        <ele>116</ele>
        <time>2010-05-14T13:49:44Z</time>
      </trkpt>
      <trkpt lat="48.61068" lon="1.61175">
        <ele>116</ele>
        <time>2010-05-14T13:49:45Z</time>
      </trkpt>
      <trkpt lat="48.61067" lon="1.61174">
        <ele>116</ele>
        <time>2010-05-14T13:49:46Z</time>
      </trkpt>
      <trkpt lat="48.61067" lon="1.61172">
        <ele>116</ele>
        <time>2010-05-14T13:49:47Z</time>
      </trkpt>
      <trkpt lat="48.61064" lon="1.6117">
        <ele>116</ele>
        <time>2010-05-14T13:49:49Z</time>
      </trkpt>
      <trkpt lat="48.61062" lon="1.61169">
        <ele>116</ele>
        <time>2010-05-14T13:49:51Z</time>
      </trkpt>
      <trkpt lat="48.61061" lon="1.61168">
        <ele>116</ele>
        <time>2010-05-14T13:49:52Z</time>
      </trkpt>
      <trkpt lat="48.6106" lon="1.61166">
        <ele>116</ele>
        <time>2010-05-14T13:49:53Z</time>
      </trkpt>
      <trkpt lat="48.61058" lon="1.61165">
        <ele>115</ele>
        <time>2010-05-14T13:49:54Z</time>
      </trkpt>
      <trkpt lat="48.61057" lon="1.61163">
        <ele>115</ele>
        <time>2010-05-14T13:49:55Z</time>
      </trkpt>
      <trkpt lat="48.61056" lon="1.61162">
        <ele>114</ele>
        <time>2010-05-14T13:49:56Z</time>
      </trkpt>
      <trkpt lat="48.61054" lon="1.6116">
        <ele>114</ele>
        <time>2010-05-14T13:49:57Z</time>
      </trkpt>
      <trkpt lat="48.61053" lon="1.61159">
        <ele>114</ele>
        <time>2010-05-14T13:49:58Z</time>
      </trkpt>
      <trkpt lat="48.61052" lon="1.61158">
        <ele>114</ele>
        <time>2010-05-14T13:49:59Z</time>
      </trkpt>
      <trkpt lat="48.61051" lon="1.61154">
        <ele>114</ele>
        <time>2010-05-14T13:50:01Z</time>
      </trkpt>
      <trkpt lat="48.61049" lon="1.61152">
        <ele>114</ele>
        <time>2010-05-14T13:50:03Z</time>
      </trkpt>
      <trkpt lat="48.61047" lon="1.61151">
        <ele>114</ele>
        <time>2010-05-14T13:50:05Z</time>
      </trkpt>
      <trkpt lat="48.61045" lon="1.6115">
        <ele>114</ele>
        <time>2010-05-14T13:50:06Z</time>
      </trkpt>
      <trkpt lat="48.61044" lon="1.61149">
        <ele>114</ele>
        <time>2010-05-14T13:50:07Z</time>
      </trkpt>
      <trkpt lat="48.61042" lon="1.61146">
        <ele>114</ele>
        <time>2010-05-14T13:50:09Z</time>
      </trkpt>
      <trkpt lat="48.61041" lon="1.61144">
        <ele>114</ele>
        <time>2010-05-14T13:50:10Z</time>
      </trkpt>
      <trkpt lat="48.61039" lon="1.61141">
        <ele>114</ele>
        <time>2010-05-14T13:50:12Z</time>
      </trkpt>
      <trkpt lat="48.61037" lon="1.61138">
        <ele>114</ele>
        <time>2010-05-14T13:50:14Z</time>
      </trkpt>
      <trkpt lat="48.61036" lon="1.61137">
        <ele>114</ele>
        <time>2010-05-14T13:50:15Z</time>
      </trkpt>
      <trkpt lat="48.61035" lon="1.61136">
        <ele>114</ele>
        <time>2010-05-14T13:50:16Z</time>
      </trkpt>
      <trkpt lat="48.61033" lon="1.61135">
        <ele>114</ele>
        <time>2010-05-14T13:50:17Z</time>
      </trkpt>
      <trkpt lat="48.61032" lon="1.61134">
        <ele>113</ele>
        <time>2010-05-14T13:50:18Z</time>
      </trkpt>
      <trkpt lat="48.6103" lon="1.61133">
        <ele>113</ele>
        <time>2010-05-14T13:50:19Z</time>
      </trkpt>
      <trkpt lat="48.61028" lon="1.61131">
        <ele>112</ele>
        <time>2010-05-14T13:50:20Z</time>
      </trkpt>
      <trkpt lat="48.61026" lon="1.61128">
        <ele>111</ele>
        <time>2010-05-14T13:50:22Z</time>
      </trkpt>
      <trkpt lat="48.61025" lon="1.61126">
        <ele>111</ele>
        <time>2010-05-14T13:50:23Z</time>
      </trkpt>
      <trkpt lat="48.61023" lon="1.61124">
        <ele>111</ele>
        <time>2010-05-14T13:50:25Z</time>
      </trkpt>
      <trkpt lat="48.61022" lon="1.61123">
        <ele>111</ele>
        <time>2010-05-14T13:50:26Z</time>
      </trkpt>
      <trkpt lat="48.61021" lon="1.61122">
        <ele>111</ele>
        <time>2010-05-14T13:50:27Z</time>
      </trkpt>
      <trkpt lat="48.61019" lon="1.61121">
        <ele>111</ele>
        <time>2010-05-14T13:50:28Z</time>
      </trkpt>
      <trkpt lat="48.61017" lon="1.61118">
        <ele>111</ele>
        <time>2010-05-14T13:50:30Z</time>
      </trkpt>
      <trkpt lat="48.61016" lon="1.61116">
        <ele>111</ele>
        <time>2010-05-14T13:50:31Z</time>
      </trkpt>
      <trkpt lat="48.61015" lon="1.61115">
        <ele>111</ele>
        <time>2010-05-14T13:50:32Z</time>
      </trkpt>
      <trkpt lat="48.61014" lon="1.61111">
        <ele>111</ele>
        <time>2010-05-14T13:50:34Z</time>
      </trkpt>
      <trkpt lat="48.61012" lon="1.61109">
        <ele>111</ele>
        <time>2010-05-14T13:50:35Z</time>
      </trkpt>
      <trkpt lat="48.61011" lon="1.61108">
        <ele>111</ele>
        <time>2010-05-14T13:50:36Z</time>
      </trkpt>
      <trkpt lat="48.6101" lon="1.61106">
        <ele>111</ele>
        <time>2010-05-14T13:50:37Z</time>
      </trkpt>
      <trkpt lat="48.61009" lon="1.61105">
        <ele>111</ele>
        <time>2010-05-14T13:50:38Z</time>
      </trkpt>
      <trkpt lat="48.61008" lon="1.61104">
        <ele>111</ele>
        <time>2010-05-14T13:50:39Z</time>
      </trkpt>
      <trkpt lat="48.61006" lon="1.61103">
        <ele>111</ele>
        <time>2010-05-14T13:50:40Z</time>
      </trkpt>
      <trkpt lat="48.61005" lon="1.61101">
        <ele>111</ele>
        <time>2010-05-14T13:50:41Z</time>
      </trkpt>
      <trkpt lat="48.61003" lon="1.61099">
        <ele>111</ele>
        <time>2010-05-14T13:50:43Z</time>
      </trkpt>
      <trkpt lat="48.61002" lon="1.61097">
        <ele>111</ele>
        <time>2010-05-14T13:50:45Z</time>
      </trkpt>
      <trkpt lat="48.61" lon="1.61095">
        <ele>111</ele>
        <time>2010-05-14T13:50:47Z</time>
      </trkpt>
      <trkpt lat="48.61001" lon="1.61096">
        <ele>111</ele>
        <time>2010-05-14T13:50:51Z</time>
      </trkpt>
      <trkpt lat="48.61002" lon="1.61098">
        <ele>111</ele>
        <time>2010-05-14T13:50:55Z</time>
      </trkpt>
      <trkpt lat="48.61001" lon="1.61097">
        <ele>111</ele>
        <time>2010-05-14T13:50:58Z</time>
      </trkpt>
      <trkpt lat="48.61" lon="1.61096">
        <ele>111</ele>
        <time>2010-05-14T13:50:59Z</time>
      </trkpt>
      <trkpt lat="48.60998" lon="1.61095">
        <ele>111</ele>
        <time>2010-05-14T13:51:00Z</time>
      </trkpt>
      <trkpt lat="48.60997" lon="1.61093">
        <ele>111</ele>
        <time>2010-05-14T13:51:01Z</time>
      </trkpt>
      <trkpt lat="48.60995" lon="1.6109">
        <ele>111</ele>
        <time>2010-05-14T13:51:03Z</time>
      </trkpt>
      <trkpt lat="48.60994" lon="1.61089">
        <ele>111</ele>
        <time>2010-05-14T13:51:04Z</time>
      </trkpt>
      <trkpt lat="48.60993" lon="1.61086">
        <ele>111</ele>
        <time>2010-05-14T13:51:06Z</time>
      </trkpt>
      <trkpt lat="48.60991" lon="1.61084">
        <ele>111</ele>
        <time>2010-05-14T13:51:08Z</time>
      </trkpt>
      <trkpt lat="48.60989" lon="1.61082">
        <ele>111</ele>
        <time>2010-05-14T13:51:09Z</time>
      </trkpt>
      <trkpt lat="48.60988" lon="1.61081">
        <ele>111</ele>
        <time>2010-05-14T13:51:10Z</time>
      </trkpt>
      <trkpt lat="48.60987" lon="1.6108">
        <ele>111</ele>
        <time>2010-05-14T13:51:11Z</time>
      </trkpt>
      <trkpt lat="48.60985" lon="1.61078">
        <ele>111</ele>
        <time>2010-05-14T13:51:12Z</time>
      </trkpt>
      <trkpt lat="48.60984" lon="1.61077">
        <ele>111</ele>
        <time>2010-05-14T13:51:13Z</time>
      </trkpt>
      <trkpt lat="48.60983" lon="1.61076">
        <ele>111</ele>
        <time>2010-05-14T13:51:14Z</time>
      </trkpt>
      <trkpt lat="48.60982" lon="1.61075">
        <ele>111</ele>
        <time>2010-05-14T13:51:15Z</time>
      </trkpt>
      <trkpt lat="48.60979" lon="1.61073">
        <ele>111</ele>
        <time>2010-05-14T13:51:17Z</time>
      </trkpt>
      <trkpt lat="48.60978" lon="1.61072">
        <ele>111</ele>
        <time>2010-05-14T13:51:18Z</time>
      </trkpt>
      <trkpt lat="48.60976" lon="1.6107">
        <ele>111</ele>
        <time>2010-05-14T13:51:20Z</time>
      </trkpt>
      <trkpt lat="48.60974" lon="1.61069">
        <ele>111</ele>
        <time>2010-05-14T13:51:21Z</time>
      </trkpt>
      <trkpt lat="48.60973" lon="1.61068">
        <ele>111</ele>
        <time>2010-05-14T13:51:22Z</time>
      </trkpt>
      <trkpt lat="48.60972" lon="1.61066">
        <ele>111</ele>
        <time>2010-05-14T13:51:23Z</time>
      </trkpt>
      <trkpt lat="48.60971" lon="1.61066">
        <ele>111</ele>
        <time>2010-05-14T13:51:24Z</time>
      </trkpt>
      <trkpt lat="48.60969" lon="1.61065">
        <ele>111</ele>
        <time>2010-05-14T13:51:25Z</time>
      </trkpt>
      <trkpt lat="48.60968" lon="1.61065">
        <ele>111</ele>
        <time>2010-05-14T13:51:26Z</time>
      </trkpt>
      <trkpt lat="48.60967" lon="1.61065">
        <ele>111</ele>
        <time>2010-05-14T13:51:27Z</time>
      </trkpt>
      <trkpt lat="48.60965" lon="1.61068">
        <ele>111</ele>
        <time>2010-05-14T13:51:29Z</time>
      </trkpt>
      <trkpt lat="48.60963" lon="1.6107">
        <ele>111</ele>
        <time>2010-05-14T13:51:31Z</time>
      </trkpt>
      <trkpt lat="48.60963" lon="1.61072">
        <ele>111</ele>
        <time>2010-05-14T13:51:32Z</time>
      </trkpt>
      <trkpt lat="48.60962" lon="1.61074">
        <ele>111</ele>
        <time>2010-05-14T13:51:33Z</time>
      </trkpt>
      <trkpt lat="48.6096" lon="1.61077">
        <ele>110</ele>
        <time>2010-05-14T13:51:35Z</time>
      </trkpt>
      <trkpt lat="48.6096" lon="1.61079">
        <ele>110</ele>
        <time>2010-05-14T13:51:36Z</time>
      </trkpt>
      <trkpt lat="48.60959" lon="1.61081">
        <ele>110</ele>
        <time>2010-05-14T13:51:37Z</time>
      </trkpt>
      <trkpt lat="48.60958" lon="1.61083">
        <ele>110</ele>
        <time>2010-05-14T13:51:38Z</time>
      </trkpt>
      <trkpt lat="48.60957" lon="1.61086">
        <ele>110</ele>
        <time>2010-05-14T13:51:40Z</time>
      </trkpt>
      <trkpt lat="48.60956" lon="1.61088">
        <ele>110</ele>
        <time>2010-05-14T13:51:41Z</time>
      </trkpt>
      <trkpt lat="48.60955" lon="1.61091">
        <ele>110</ele>
        <time>2010-05-14T13:51:43Z</time>
      </trkpt>
      <trkpt lat="48.60954" lon="1.61093">
        <ele>110</ele>
        <time>2010-05-14T13:51:44Z</time>
      </trkpt>
      <trkpt lat="48.60953" lon="1.61095">
        <ele>110</ele>
        <time>2010-05-14T13:51:45Z</time>
      </trkpt>
      <trkpt lat="48.60952" lon="1.61097">
        <ele>110</ele>
        <time>2010-05-14T13:51:46Z</time>
      </trkpt>
      <trkpt lat="48.60951" lon="1.61099">
        <ele>110</ele>
        <time>2010-05-14T13:51:48Z</time>
      </trkpt>
      <trkpt lat="48.60949" lon="1.61103">
        <ele>110</ele>
        <time>2010-05-14T13:51:50Z</time>
      </trkpt>
      <trkpt lat="48.60949" lon="1.61104">
        <ele>110</ele>
        <time>2010-05-14T13:51:51Z</time>
      </trkpt>
      <trkpt lat="48.60948" lon="1.61107">
        <ele>109</ele>
        <time>2010-05-14T13:51:53Z</time>
      </trkpt>
      <trkpt lat="48.60947" lon="1.61109">
        <ele>109</ele>
        <time>2010-05-14T13:51:54Z</time>
      </trkpt>
      <trkpt lat="48.60947" lon="1.61111">
        <ele>109</ele>
        <time>2010-05-14T13:51:55Z</time>
      </trkpt>
      <trkpt lat="48.60947" lon="1.61113">
        <ele>109</ele>
        <time>2010-05-14T13:51:56Z</time>
      </trkpt>
      <trkpt lat="48.60947" lon="1.61115">
        <ele>109</ele>
        <time>2010-05-14T13:51:57Z</time>
      </trkpt>
      <trkpt lat="48.60947" lon="1.61117">
        <ele>109</ele>
        <time>2010-05-14T13:51:58Z</time>
      </trkpt>
      <trkpt lat="48.60948" lon="1.6112">
        <ele>109</ele>
        <time>2010-05-14T13:52:00Z</time>
      </trkpt>
      <trkpt lat="48.60949" lon="1.61122">
        <ele>109</ele>
        <time>2010-05-14T13:52:03Z</time>
      </trkpt>
      <trkpt lat="48.60951" lon="1.61125">
        <ele>109</ele>
        <time>2010-05-14T13:52:05Z</time>
      </trkpt>
      <trkpt lat="48.60953" lon="1.61127">
        <ele>109</ele>
        <time>2010-05-14T13:52:07Z</time>
      </trkpt>
      <trkpt lat="48.60955" lon="1.6113">
        <ele>109</ele>
        <time>2010-05-14T13:52:09Z</time>
      </trkpt>
      <trkpt lat="48.60956" lon="1.61132">
        <ele>109</ele>
        <time>2010-05-14T13:52:10Z</time>
      </trkpt>
      <trkpt lat="48.60958" lon="1.61134">
        <ele>109</ele>
        <time>2010-05-14T13:52:12Z</time>
      </trkpt>
      <trkpt lat="48.60959" lon="1.61136">
        <ele>109</ele>
        <time>2010-05-14T13:52:13Z</time>
      </trkpt>
      <trkpt lat="48.6096" lon="1.61137">
        <ele>109</ele>
        <time>2010-05-14T13:52:14Z</time>
      </trkpt>
      <trkpt lat="48.60961" lon="1.61138">
        <ele>109</ele>
        <time>2010-05-14T13:52:15Z</time>
      </trkpt>
      <trkpt lat="48.60963" lon="1.61139">
        <ele>109</ele>
        <time>2010-05-14T13:52:16Z</time>
      </trkpt>
      <trkpt lat="48.60964" lon="1.6114">
        <ele>109</ele>
        <time>2010-05-14T13:52:17Z</time>
      </trkpt>
      <trkpt lat="48.60965" lon="1.61141">
        <ele>109</ele>
        <time>2010-05-14T13:52:18Z</time>
      </trkpt>
      <trkpt lat="48.60967" lon="1.61142">
        <ele>109</ele>
        <time>2010-05-14T13:52:19Z</time>
      </trkpt>
      <trkpt lat="48.60968" lon="1.61143">
        <ele>109</ele>
        <time>2010-05-14T13:52:20Z</time>
      </trkpt>
      <trkpt lat="48.60969" lon="1.61145">
        <ele>109</ele>
        <time>2010-05-14T13:52:21Z</time>
      </trkpt>
      <trkpt lat="48.60971" lon="1.61148">
        <ele>109</ele>
        <time>2010-05-14T13:52:23Z</time>
      </trkpt>
      <trkpt lat="48.60971" lon="1.6115">
        <ele>109</ele>
        <time>2010-05-14T13:52:24Z</time>
      </trkpt>
      <trkpt lat="48.60971" lon="1.61152">
        <ele>109</ele>
        <time>2010-05-14T13:52:25Z</time>
      </trkpt>
      <trkpt lat="48.60971" lon="1.61153">
        <ele>109</ele>
        <time>2010-05-14T13:52:26Z</time>
      </trkpt>
      <trkpt lat="48.60971" lon="1.61155">
        <ele>108</ele>
        <time>2010-05-14T13:52:27Z</time>
      </trkpt>
      <trkpt lat="48.60971" lon="1.61157">
        <ele>108</ele>
        <time>2010-05-14T13:52:28Z</time>
      </trkpt>
      <trkpt lat="48.60971" lon="1.61159">
        <ele>108</ele>
        <time>2010-05-14T13:52:29Z</time>
      </trkpt>
      <trkpt lat="48.6097" lon="1.6116">
        <ele>108</ele>
        <time>2010-05-14T13:52:30Z</time>
      </trkpt>
      <trkpt lat="48.60969" lon="1.61163">
        <ele>108</ele>
        <time>2010-05-14T13:52:32Z</time>
      </trkpt>
      <trkpt lat="48.60968" lon="1.61165">
        <ele>107</ele>
        <time>2010-05-14T13:52:33Z</time>
      </trkpt>
      <trkpt lat="48.60967" lon="1.61167">
        <ele>107</ele>
        <time>2010-05-14T13:52:34Z</time>
      </trkpt>
      <trkpt lat="48.60967" lon="1.6117">
        <ele>107</ele>
        <time>2010-05-14T13:52:36Z</time>
      </trkpt>
      <trkpt lat="48.60967" lon="1.61172">
        <ele>106</ele>
        <time>2010-05-14T13:52:40Z</time>
      </trkpt>
      <trkpt lat="48.60967" lon="1.61174">
        <ele>106</ele>
        <time>2010-05-14T13:52:47Z</time>
      </trkpt>
      <trkpt lat="48.60966" lon="1.61174">
        <ele>106</ele>
        <time>2010-05-14T13:52:59Z</time>
      </trkpt>
      <trkpt lat="48.60965" lon="1.61175">
        <ele>107</ele>
        <time>2010-05-14T13:53:08Z</time>
      </trkpt>
      <trkpt lat="48.60966" lon="1.61175">
        <ele>109</ele>
        <time>2010-05-14T13:53:36Z</time>
      </trkpt>
      <trkpt lat="48.60965" lon="1.61174">
        <ele>109</ele>
        <time>2010-05-14T13:53:57Z</time>
      </trkpt>
      <trkpt lat="48.60965" lon="1.61176">
        <ele>109</ele>
        <time>2010-05-14T13:54:11Z</time>
      </trkpt>
      <trkpt lat="48.60966" lon="1.61176">
        <ele>109</ele>
        <time>2010-05-14T13:54:17Z</time>
      </trkpt>
      <trkpt lat="48.60967" lon="1.61174">
        <ele>109</ele>
        <time>2010-05-14T13:54:21Z</time>
      </trkpt>
      <trkpt lat="48.60967" lon="1.61171">
        <ele>109</ele>
        <time>2010-05-14T13:54:23Z</time>
      </trkpt>
      <trkpt lat="48.60968" lon="1.61171">
        <ele>109</ele>
        <time>2010-05-14T13:54:27Z</time>
      </trkpt>
      <trkpt lat="48.60968" lon="1.61169">
        <ele>109</ele>
        <time>2010-05-14T13:54:34Z</time>
      </trkpt>
      <trkpt lat="48.60967" lon="1.6117">
        <ele>109</ele>
        <time>2010-05-14T13:54:48Z</time>
      </trkpt>
      <trkpt lat="48.60965" lon="1.6117">
        <ele>109</ele>
        <time>2010-05-14T13:54:50Z</time>
      </trkpt>
      <trkpt lat="48.60964" lon="1.6117">
        <ele>109</ele>
        <time>2010-05-14T13:54:53Z</time>
      </trkpt>
      <trkpt lat="48.60965" lon="1.6117">
        <ele>109</ele>
        <time>2010-05-14T13:55:02Z</time>
      </trkpt>
      <trkpt lat="48.60966" lon="1.61171">
        <ele>109</ele>
        <time>2010-05-14T13:55:04Z</time>
      </trkpt>
      <trkpt lat="48.60965" lon="1.61174">
        <ele>109</ele>
        <time>2010-05-14T13:55:10Z</time>
      </trkpt>
      <trkpt lat="48.60967" lon="1.61171">
        <ele>108</ele>
        <time>2010-05-14T13:55:22Z</time>
      </trkpt>
      <trkpt lat="48.60967" lon="1.6117">
        <ele>104</ele>
        <time>2010-05-14T13:55:30Z</time>
      </trkpt>
      <trkpt lat="48.60968" lon="1.61168">
        <ele>103</ele>
        <time>2010-05-14T13:55:56Z</time>
      </trkpt>
      <trkpt lat="48.60966" lon="1.6117">
        <ele>103</ele>
        <time>2010-05-14T13:56:00Z</time>
      </trkpt>
      <trkpt lat="48.60967" lon="1.6117">
        <ele>103</ele>
        <time>2010-05-14T13:56:03Z</time>
      </trkpt>
      <trkpt lat="48.60969" lon="1.61171">
        <ele>103</ele>
        <time>2010-05-14T13:56:05Z</time>
      </trkpt>
      <trkpt lat="48.60967" lon="1.61171">
        <ele>103</ele>
        <time>2010-05-14T13:56:15Z</time>
      </trkpt>
      <trkpt lat="48.60966" lon="1.61171">
        <ele>103</ele>
        <time>2010-05-14T13:56:24Z</time>
      </trkpt>
      <trkpt lat="48.60965" lon="1.61172">
        <ele>104</ele>
        <time>2010-05-14T13:56:27Z</time>
      </trkpt>
      <trkpt lat="48.60965" lon="1.6117">
        <ele>105</ele>
        <time>2010-05-14T13:56:42Z</time>
      </trkpt>
      <trkpt lat="48.60967" lon="1.61171">
        <ele>105</ele>
        <time>2010-05-14T13:56:44Z</time>
      </trkpt>
      <trkpt lat="48.60966" lon="1.6117">
        <ele>105</ele>
        <time>2010-05-14T13:57:07Z</time>
      </trkpt>
      <trkpt lat="48.60965" lon="1.61173">
        <ele>105</ele>
        <time>2010-05-14T13:57:09Z</time>
      </trkpt>
      <trkpt lat="48.60965" lon="1.61171">
        <ele>105</ele>
        <time>2010-05-14T13:57:17Z</time>
      </trkpt>
      <trkpt lat="48.60963" lon="1.61169">
        <ele>105</ele>
        <time>2010-05-14T13:57:32Z</time>
      </trkpt>
      <trkpt lat="48.60963" lon="1.61171">
        <ele>105</ele>
        <time>2010-05-14T13:57:34Z</time>
      </trkpt>
      <trkpt lat="48.60964" lon="1.61169">
        <ele>105</ele>
        <time>2010-05-14T13:57:40Z</time>
      </trkpt>
      <trkpt lat="48.60965" lon="1.6117">
        <ele>105</ele>
        <time>2010-05-14T13:57:43Z</time>
      </trkpt>
      <trkpt lat="48.60965" lon="1.61172">
        <ele>105</ele>
        <time>2010-05-14T13:57:58Z</time>
      </trkpt>
      <trkpt lat="48.60966" lon="1.6117">
        <ele>105</ele>
        <time>2010-05-14T13:58:05Z</time>
      </trkpt>
      <trkpt lat="48.60967" lon="1.61169">
        <ele>105</ele>
        <time>2010-05-14T13:58:10Z</time>
      </trkpt>
      <trkpt lat="48.60968" lon="1.61168">
        <ele>104</ele>
        <time>2010-05-14T13:58:14Z</time>
      </trkpt>
      <trkpt lat="48.60968" lon="1.61166">
        <ele>104</ele>
        <time>2010-05-14T13:58:18Z</time>
      </trkpt>
      <trkpt lat="48.60967" lon="1.61164">
        <ele>101</ele>
        <time>2010-05-14T13:58:24Z</time>
      </trkpt>
      <trkpt lat="48.60968" lon="1.61161">
        <ele>100</ele>
        <time>2010-05-14T13:58:26Z</time>
      </trkpt>
      <trkpt lat="48.60969" lon="1.6116">
        <ele>95</ele>
        <time>2010-05-14T13:58:31Z</time>
      </trkpt>
      <trkpt lat="48.60969" lon="1.61162">
        <ele>95</ele>
        <time>2010-05-14T13:58:35Z</time>
      </trkpt>
      <trkpt lat="48.6097" lon="1.61164">
        <ele>95</ele>
        <time>2010-05-14T13:58:37Z</time>
      </trkpt>
      <trkpt lat="48.60971" lon="1.61165">
        <ele>95</ele>
        <time>2010-05-14T13:58:40Z</time>
      </trkpt>
      <trkpt lat="48.6097" lon="1.61165">
        <ele>98</ele>
        <time>2010-05-14T13:58:46Z</time>
      </trkpt>
      <trkpt lat="48.60969" lon="1.61167">
        <ele>99</ele>
        <time>2010-05-14T13:58:48Z</time>
      </trkpt>
      <trkpt lat="48.6097" lon="1.61169">
        <ele>100</ele>
        <time>2010-05-14T13:58:49Z</time>
      </trkpt>
      <trkpt lat="48.60969" lon="1.61171">
        <ele>102</ele>
        <time>2010-05-14T13:58:51Z</time>
      </trkpt>
      <trkpt lat="48.60967" lon="1.61171">
        <ele>104</ele>
        <time>2010-05-14T13:58:53Z</time>
      </trkpt>
      <trkpt lat="48.60966" lon="1.61171">
        <ele>105</ele>
        <time>2010-05-14T13:58:55Z</time>
      </trkpt>
      <trkpt lat="48.60967" lon="1.61169">
        <ele>108</ele>
        <time>2010-05-14T13:59:05Z</time>
      </trkpt>
      <trkpt lat="48.60967" lon="1.61168">
        <ele>109</ele>
        <time>2010-05-14T13:59:16Z</time>
      </trkpt>
      <trkpt lat="48.60969" lon="1.61168">
        <ele>112</ele>
        <time>2010-05-14T13:59:21Z</time>
      </trkpt>
      <trkpt lat="48.6097" lon="1.61168">
        <ele>112</ele>
        <time>2010-05-14T13:59:31Z</time>
      </trkpt>
      <trkpt lat="48.60971" lon="1.61169">
        <ele>112</ele>
        <time>2010-05-14T13:59:35Z</time>
      </trkpt>
      <trkpt lat="48.60972" lon="1.61168">
        <ele>112</ele>
        <time>2010-05-14T13:59:41Z</time>
      </trkpt>
      <trkpt lat="48.60974" lon="1.61167">
        <ele>110</ele>
        <time>2010-05-14T13:59:56Z</time>
      </trkpt>
      <trkpt lat="48.60972" lon="1.61167">
        <ele>110</ele>
        <time>2010-05-14T14:00:04Z</time>
      </trkpt>
      <trkpt lat="48.60972" lon="1.61169">
        <ele>109</ele>
        <time>2010-05-14T14:00:17Z</time>
      </trkpt>
      <trkpt lat="48.60971" lon="1.61171">
        <ele>109</ele>
        <time>2010-05-14T14:00:25Z</time>
      </trkpt>
      <trkpt lat="48.60968" lon="1.6117">
        <ele>109</ele>
        <time>2010-05-14T14:00:34Z</time>
      </trkpt>
      <trkpt lat="48.60967" lon="1.61172">
        <ele>109</ele>
        <time>2010-05-14T14:00:36Z</time>
      </trkpt>
      <trkpt lat="48.60966" lon="1.61172">
        <ele>110</ele>
        <time>2010-05-14T14:00:40Z</time>
      </trkpt>
      <trkpt lat="48.60964" lon="1.61172">
        <ele>110</ele>
        <time>2010-05-14T14:00:51Z</time>
      </trkpt>
      <trkpt lat="48.60964" lon="1.6117">
        <ele>110</ele>
        <time>2010-05-14T14:00:54Z</time>
      </trkpt>
      <trkpt lat="48.60962" lon="1.61171">
        <ele>110</ele>
        <time>2010-05-14T14:00:59Z</time>
      </trkpt>
      <trkpt lat="48.60962" lon="1.61173">
        <ele>110</ele>
        <time>2010-05-14T14:01:04Z</time>
      </trkpt>
      <trkpt lat="48.60961" lon="1.61175">
        <ele>110</ele>
        <time>2010-05-14T14:01:10Z</time>
      </trkpt>
      <trkpt lat="48.60962" lon="1.61173">
        <ele>110</ele>
        <time>2010-05-14T14:01:12Z</time>
      </trkpt>
      <trkpt lat="48.60964" lon="1.61171">
        <ele>107</ele>
        <time>2010-05-14T14:01:20Z</time>
      </trkpt>
      <trkpt lat="48.60963" lon="1.61169">
        <ele>106</ele>
        <time>2010-05-14T14:01:24Z</time>
      </trkpt>
      <trkpt lat="48.60964" lon="1.61172">
        <ele>106</ele>
        <time>2010-05-14T14:01:36Z</time>
      </trkpt>
      <trkpt lat="48.60965" lon="1.61174">
        <ele>106</ele>
        <time>2010-05-14T14:01:47Z</time>
      </trkpt>
      <trkpt lat="48.60964" lon="1.61176">
        <ele>110</ele>
        <time>2010-05-14T14:02:01Z</time>
      </trkpt>
      <trkpt lat="48.60964" lon="1.61173">
        <ele>112</ele>
        <time>2010-05-14T14:02:03Z</time>
      </trkpt>
      <trkpt lat="48.60965" lon="1.61172">
        <ele>112</ele>
        <time>2010-05-14T14:02:08Z</time>
      </trkpt>
      <trkpt lat="48.60964" lon="1.61173">
        <ele>112</ele>
        <time>2010-05-14T14:02:16Z</time>
      </trkpt>
      <trkpt lat="48.60964" lon="1.61172">
        <ele>110</ele>
        <time>2010-05-14T14:02:23Z</time>
      </trkpt>
      <trkpt lat="48.60963" lon="1.6117">
        <ele>110</ele>
        <time>2010-05-14T14:02:36Z</time>
      </trkpt>
      <trkpt lat="48.60962" lon="1.61169">
        <ele>110</ele>
        <time>2010-05-14T14:02:39Z</time>
      </trkpt>
      <trkpt lat="48.60961" lon="1.61168">
        <ele>110</ele>
        <time>2010-05-14T14:02:49Z</time>
      </trkpt>
      <trkpt lat="48.6096" lon="1.61166">
        <ele>109</ele>
        <time>2010-05-14T14:02:52Z</time>
      </trkpt>
      <trkpt lat="48.60959" lon="1.61164">
        <ele>106</ele>
        <time>2010-05-14T14:02:56Z</time>
      </trkpt>
      <trkpt lat="48.60959" lon="1.61163">
        <ele>106</ele>
        <time>2010-05-14T14:03:03Z</time>
      </trkpt>
      <trkpt lat="48.60961" lon="1.61164">
        <ele>105</ele>
        <time>2010-05-14T14:03:19Z</time>
      </trkpt>
      <trkpt lat="48.60962" lon="1.61165">
        <ele>105</ele>
        <time>2010-05-14T14:03:23Z</time>
      </trkpt>
      <trkpt lat="48.60963" lon="1.61166">
        <ele>107</ele>
        <time>2010-05-14T14:03:30Z</time>
      </trkpt>
      <trkpt lat="48.60965" lon="1.61166">
        <ele>109</ele>
        <time>2010-05-14T14:03:35Z</time>
      </trkpt>
      <trkpt lat="48.60966" lon="1.61167">
        <ele>110</ele>
        <time>2010-05-14T14:03:39Z</time>
      </trkpt>
      <trkpt lat="48.60967" lon="1.61165">
        <ele>112</ele>
        <time>2010-05-14T14:03:46Z</time>
      </trkpt>
      <trkpt lat="48.60967" lon="1.61164">
        <ele>113</ele>
        <time>2010-05-14T14:03:52Z</time>
      </trkpt>
      <trkpt lat="48.60966" lon="1.61164">
        <ele>113</ele>
        <time>2010-05-14T14:03:58Z</time>
      </trkpt>
      <trkpt lat="48.60967" lon="1.61163">
        <ele>113</ele>
        <time>2010-05-14T14:04:03Z</time>
      </trkpt>
      <trkpt lat="48.60968" lon="1.61164">
        <ele>113</ele>
        <time>2010-05-14T14:04:06Z</time>
      </trkpt>
      <trkpt lat="48.60967" lon="1.61166">
        <ele>113</ele>
        <time>2010-05-14T14:04:09Z</time>
      </trkpt>
      <trkpt lat="48.60967" lon="1.61167">
        <ele>114</ele>
        <time>2010-05-14T14:04:40Z</time>
      </trkpt>
      <trkpt lat="48.60967" lon="1.61169">
        <ele>114</ele>
        <time>2010-05-14T14:04:50Z</time>
      </trkpt>
      <trkpt lat="48.60966" lon="1.61169">
        <ele>114</ele>
        <time>2010-05-14T14:04:59Z</time>
      </trkpt>
      <trkpt lat="48.60964" lon="1.61168">
        <ele>114</ele>
        <time>2010-05-14T14:05:02Z</time>
      </trkpt>
      <trkpt lat="48.60963" lon="1.6117">
        <ele>114</ele>
        <time>2010-05-14T14:05:05Z</time>
      </trkpt>
      <trkpt lat="48.60962" lon="1.6117">
        <ele>116</ele>
        <time>2010-05-14T14:05:07Z</time>
      </trkpt>
      <trkpt lat="48.60961" lon="1.61171">
        <ele>118</ele>
        <time>2010-05-14T14:05:11Z</time>
      </trkpt>
      <trkpt lat="48.60959" lon="1.61171">
        <ele>119</ele>
        <time>2010-05-14T14:05:20Z</time>
      </trkpt>
      <trkpt lat="48.60959" lon="1.61169">
        <ele>119</ele>
        <time>2010-05-14T14:05:24Z</time>
      </trkpt>
      <trkpt lat="48.60959" lon="1.61167">
        <ele>119</ele>
        <time>2010-05-14T14:05:27Z</time>
      </trkpt>
      <trkpt lat="48.60961" lon="1.61167">
        <ele>116</ele>
        <time>2010-05-14T14:05:32Z</time>
      </trkpt>
      <trkpt lat="48.60962" lon="1.61167">
        <ele>115</ele>
        <time>2010-05-14T14:05:36Z</time>
      </trkpt>
      <trkpt lat="48.60963" lon="1.61168">
        <ele>113</ele>
        <time>2010-05-14T14:05:45Z</time>
      </trkpt>
      <trkpt lat="48.60963" lon="1.61169">
        <ele>113</ele>
        <time>2010-05-14T14:05:55Z</time>
      </trkpt>
      <trkpt lat="48.60962" lon="1.6117">
        <ele>113</ele>
        <time>2010-05-14T14:05:59Z</time>
      </trkpt>
      <trkpt lat="48.60964" lon="1.61169">
        <ele>113</ele>
        <time>2010-05-14T14:06:06Z</time>
      </trkpt>
      <trkpt lat="48.60964" lon="1.61167">
        <ele>112</ele>
        <time>2010-05-14T14:06:17Z</time>
      </trkpt>
      <trkpt lat="48.60962" lon="1.61166">
        <ele>112</ele>
        <time>2010-05-14T14:06:19Z</time>
      </trkpt>
      <trkpt lat="48.60961" lon="1.61166">
        <ele>112</ele>
        <time>2010-05-14T14:06:22Z</time>
      </trkpt>
      <trkpt lat="48.6096" lon="1.61166">
        <ele>112</ele>
        <time>2010-05-14T14:06:30Z</time>
      </trkpt>
      <trkpt lat="48.60961" lon="1.61167">
        <ele>112</ele>
        <time>2010-05-14T14:06:35Z</time>
      </trkpt>
      <trkpt lat="48.60961" lon="1.61165">
        <ele>111</ele>
        <time>2010-05-14T14:06:42Z</time>
      </trkpt>
      <trkpt lat="48.6096" lon="1.61164">
        <ele>110</ele>
        <time>2010-05-14T14:06:48Z</time>
      </trkpt>
      <trkpt lat="48.60958" lon="1.61164">
        <ele>110</ele>
        <time>2010-05-14T14:06:52Z</time>
      </trkpt>
      <trkpt lat="48.60959" lon="1.61166">
        <ele>110</ele>
        <time>2010-05-14T14:06:56Z</time>
      </trkpt>
      <trkpt lat="48.6096" lon="1.61168">
        <ele>110</ele>
        <time>2010-05-14T14:06:59Z</time>
      </trkpt>
      <trkpt lat="48.60962" lon="1.61168">
        <ele>110</ele>
        <time>2010-05-14T14:07:03Z</time>
      </trkpt>
      <trkpt lat="48.60963" lon="1.61169">
        <ele>104</ele>
        <time>2010-05-14T14:07:13Z</time>
      </trkpt>
      <trkpt lat="48.60964" lon="1.61169">
        <ele>103</ele>
        <time>2010-05-14T14:07:17Z</time>
      </trkpt>
      <trkpt lat="48.60966" lon="1.61168">
        <ele>103</ele>
        <time>2010-05-14T14:07:20Z</time>
      </trkpt>
      <trkpt lat="48.60965" lon="1.6117">
        <ele>103</ele>
        <time>2010-05-14T14:07:26Z</time>
      </trkpt>
      <trkpt lat="48.60964" lon="1.61172">
        <ele>103</ele>
        <time>2010-05-14T14:07:28Z</time>
      </trkpt>
      <trkpt lat="48.60963" lon="1.61173">
        <ele>103</ele>
        <time>2010-05-14T14:07:29Z</time>
      </trkpt>
      <trkpt lat="48.60962" lon="1.61175">
        <ele>103</ele>
        <time>2010-05-14T14:07:30Z</time>
      </trkpt>
      <trkpt lat="48.60961" lon="1.61177">
        <ele>103</ele>
        <time>2010-05-14T14:07:31Z</time>
      </trkpt>
      <trkpt lat="48.60961" lon="1.61179">
        <ele>103</ele>
        <time>2010-05-14T14:07:32Z</time>
      </trkpt>
      <trkpt lat="48.60959" lon="1.6118">
        <ele>103</ele>
        <time>2010-05-14T14:07:33Z</time>
      </trkpt>
      <trkpt lat="48.60958" lon="1.61182">
        <ele>103</ele>
        <time>2010-05-14T14:07:34Z</time>
      </trkpt>
      <trkpt lat="48.60957" lon="1.61185">
        <ele>103</ele>
        <time>2010-05-14T14:07:36Z</time>
      </trkpt>
      <trkpt lat="48.60955" lon="1.61188">
        <ele>103</ele>
        <time>2010-05-14T14:07:38Z</time>
      </trkpt>
      <trkpt lat="48.60954" lon="1.61189">
        <ele>103</ele>
        <time>2010-05-14T14:07:39Z</time>
      </trkpt>
      <trkpt lat="48.60954" lon="1.61191">
        <ele>103</ele>
        <time>2010-05-14T14:07:40Z</time>
      </trkpt>
      <trkpt lat="48.60951" lon="1.61194">
        <ele>103</ele>
        <time>2010-05-14T14:07:42Z</time>
      </trkpt>
      <trkpt lat="48.6095" lon="1.61196">
        <ele>103</ele>
        <time>2010-05-14T14:07:43Z</time>
      </trkpt>
      <trkpt lat="48.60949" lon="1.61197">
        <ele>103</ele>
        <time>2010-05-14T14:07:44Z</time>
      </trkpt>
      <trkpt lat="48.60947" lon="1.61199">
        <ele>104</ele>
        <time>2010-05-14T14:07:45Z</time>
      </trkpt>
      <trkpt lat="48.60946" lon="1.612">
        <ele>105</ele>
        <time>2010-05-14T14:07:46Z</time>
      </trkpt>
      <trkpt lat="48.60944" lon="1.61201">
        <ele>105</ele>
        <time>2010-05-14T14:07:47Z</time>
      </trkpt>
      <trkpt lat="48.60943" lon="1.61202">
        <ele>107</ele>
        <time>2010-05-14T14:07:49Z</time>
      </trkpt>
      <trkpt lat="48.60942" lon="1.61202">
        <ele>107</ele>
        <time>2010-05-14T14:07:51Z</time>
      </trkpt>
      <trkpt lat="48.60941" lon="1.61202">
        <ele>108</ele>
        <time>2010-05-14T14:07:53Z</time>
      </trkpt>
      <trkpt lat="48.6094" lon="1.61201">
        <ele>109</ele>
        <time>2010-05-14T14:08:04Z</time>
      </trkpt>
      <trkpt lat="48.60939" lon="1.61199">
        <ele>109</ele>
        <time>2010-05-14T14:08:08Z</time>
      </trkpt>
      <trkpt lat="48.60938" lon="1.61197">
        <ele>109</ele>
        <time>2010-05-14T14:08:13Z</time>
      </trkpt>
      <trkpt lat="48.60937" lon="1.61196">
        <ele>109</ele>
        <time>2010-05-14T14:08:15Z</time>
      </trkpt>
      <trkpt lat="48.60936" lon="1.61196">
        <ele>109</ele>
        <time>2010-05-14T14:08:17Z</time>
      </trkpt>
      <trkpt lat="48.60934" lon="1.61196">
        <ele>109</ele>
        <time>2010-05-14T14:08:19Z</time>
      </trkpt>
      <trkpt lat="48.60933" lon="1.61198">
        <ele>109</ele>
        <time>2010-05-14T14:08:22Z</time>
      </trkpt>
      <trkpt lat="48.60932" lon="1.612">
        <ele>109</ele>
        <time>2010-05-14T14:08:25Z</time>
      </trkpt>
      <trkpt lat="48.60931" lon="1.612">
        <ele>109</ele>
        <time>2010-05-14T14:08:29Z</time>
      </trkpt>
      <trkpt lat="48.60929" lon="1.61199">
        <ele>109</ele>
        <time>2010-05-14T14:08:31Z</time>
      </trkpt>
      <trkpt lat="48.60927" lon="1.612">
        <ele>109</ele>
        <time>2010-05-14T14:08:32Z</time>
      </trkpt>
      <trkpt lat="48.60926" lon="1.61201">
        <ele>109</ele>
        <time>2010-05-14T14:08:33Z</time>
      </trkpt>
      <trkpt lat="48.60924" lon="1.61201">
        <ele>109</ele>
        <time>2010-05-14T14:08:34Z</time>
      </trkpt>
      <trkpt lat="48.60922" lon="1.61202">
        <ele>109</ele>
        <time>2010-05-14T14:08:35Z</time>
      </trkpt>
      <trkpt lat="48.60921" lon="1.61203">
        <ele>109</ele>
        <time>2010-05-14T14:08:36Z</time>
      </trkpt>
      <trkpt lat="48.6092" lon="1.61203">
        <ele>109</ele>
        <time>2010-05-14T14:08:37Z</time>
      </trkpt>
      <trkpt lat="48.60918" lon="1.61204">
        <ele>109</ele>
        <time>2010-05-14T14:08:38Z</time>
      </trkpt>
      <trkpt lat="48.60917" lon="1.61204">
        <ele>110</ele>
        <time>2010-05-14T14:08:39Z</time>
      </trkpt>
      <trkpt lat="48.60916" lon="1.61205">
        <ele>110</ele>
        <time>2010-05-14T14:08:40Z</time>
      </trkpt>
      <trkpt lat="48.60915" lon="1.61205">
        <ele>110</ele>
        <time>2010-05-14T14:08:41Z</time>
      </trkpt>
      <trkpt lat="48.60913" lon="1.61205">
        <ele>110</ele>
        <time>2010-05-14T14:08:43Z</time>
      </trkpt>
      <trkpt lat="48.6091" lon="1.61206">
        <ele>110</ele>
        <time>2010-05-14T14:08:45Z</time>
      </trkpt>
      <trkpt lat="48.60909" lon="1.61205">
        <ele>110</ele>
        <time>2010-05-14T14:08:47Z</time>
      </trkpt>
      <trkpt lat="48.60907" lon="1.61204">
        <ele>110</ele>
        <time>2010-05-14T14:08:49Z</time>
      </trkpt>
      <trkpt lat="48.60905" lon="1.61203">
        <ele>110</ele>
        <time>2010-05-14T14:08:50Z</time>
      </trkpt>
      <trkpt lat="48.60904" lon="1.61202">
        <ele>110</ele>
        <time>2010-05-14T14:08:51Z</time>
      </trkpt>
      <trkpt lat="48.60902" lon="1.612">
        <ele>110</ele>
        <time>2010-05-14T14:08:53Z</time>
      </trkpt>
      <trkpt lat="48.60901" lon="1.61198">
        <ele>110</ele>
        <time>2010-05-14T14:08:54Z</time>
      </trkpt>
      <trkpt lat="48.609" lon="1.61197">
        <ele>110</ele>
        <time>2010-05-14T14:08:55Z</time>
      </trkpt>
      <trkpt lat="48.60898" lon="1.61195">
        <ele>110</ele>
        <time>2010-05-14T14:08:56Z</time>
      </trkpt>
      <trkpt lat="48.60897" lon="1.61194">
        <ele>110</ele>
        <time>2010-05-14T14:08:57Z</time>
      </trkpt>
      <trkpt lat="48.60896" lon="1.61192">
        <ele>110</ele>
        <time>2010-05-14T14:08:58Z</time>
      </trkpt>
      <trkpt lat="48.60895" lon="1.6119">
        <ele>110</ele>
        <time>2010-05-14T14:08:59Z</time>
      </trkpt>
      <trkpt lat="48.60895" lon="1.61188">
        <ele>110</ele>
        <time>2010-05-14T14:09:00Z</time>
      </trkpt>
      <trkpt lat="48.60894" lon="1.61185">
        <ele>110</ele>
        <time>2010-05-14T14:09:02Z</time>
      </trkpt>
      <trkpt lat="48.60893" lon="1.61182">
        <ele>110</ele>
        <time>2010-05-14T14:09:04Z</time>
      </trkpt>
      <trkpt lat="48.60893" lon="1.61184">
        <ele>110</ele>
        <time>2010-05-14T14:09:14Z</time>
      </trkpt>
      <trkpt lat="48.60894" lon="1.61184">
        <ele>110</ele>
        <time>2010-05-14T14:09:16Z</time>
      </trkpt>
      <trkpt lat="48.60896" lon="1.61183">
        <ele>110</ele>
        <time>2010-05-14T14:09:19Z</time>
      </trkpt>
      <trkpt lat="48.60897" lon="1.61183">
        <ele>109</ele>
        <time>2010-05-14T14:09:27Z</time>
      </trkpt>
      <trkpt lat="48.60898" lon="1.61182">
        <ele>109</ele>
        <time>2010-05-14T14:09:31Z</time>
      </trkpt>
      <trkpt lat="48.60899" lon="1.61181">
        <ele>109</ele>
        <time>2010-05-14T14:09:46Z</time>
      </trkpt>
      <trkpt lat="48.609" lon="1.61181">
        <ele>109</ele>
        <time>2010-05-14T14:09:51Z</time>
      </trkpt>
      <trkpt lat="48.60902" lon="1.61183">
        <ele>110</ele>
        <time>2010-05-14T14:09:55Z</time>
      </trkpt>
      <trkpt lat="48.60901" lon="1.61182">
        <ele>118</ele>
        <time>2010-05-14T14:10:09Z</time>
      </trkpt>
      <trkpt lat="48.60902" lon="1.61183">
        <ele>118</ele>
        <time>2010-05-14T14:10:14Z</time>
      </trkpt>
      <trkpt lat="48.60903" lon="1.61183">
        <ele>118</ele>
        <time>2010-05-14T14:10:16Z</time>
      </trkpt>
      <trkpt lat="48.60905" lon="1.61186">
        <ele>116</ele>
        <time>2010-05-14T14:10:19Z</time>
      </trkpt>
      <trkpt lat="48.60904" lon="1.61188">
        <ele>116</ele>
        <time>2010-05-14T14:10:22Z</time>
      </trkpt>
      <trkpt lat="48.60906" lon="1.61189">
        <ele>115</ele>
        <time>2010-05-14T14:10:25Z</time>
      </trkpt>
      <trkpt lat="48.60907" lon="1.61188">
        <ele>113</ele>
        <time>2010-05-14T14:10:27Z</time>
      </trkpt>
      <trkpt lat="48.60909" lon="1.61189">
        <ele>111</ele>
        <time>2010-05-14T14:10:29Z</time>
      </trkpt>
      <trkpt lat="48.60908" lon="1.61185">
        <ele>108</ele>
        <time>2010-05-14T14:10:34Z</time>
      </trkpt>
      <trkpt lat="48.60908" lon="1.61184">
        <ele>108</ele>
        <time>2010-05-14T14:10:35Z</time>
      </trkpt>
      <trkpt lat="48.60906" lon="1.61183">
        <ele>108</ele>
        <time>2010-05-14T14:10:41Z</time>
      </trkpt>
      <trkpt lat="48.60905" lon="1.61184">
        <ele>108</ele>
        <time>2010-05-14T14:10:46Z</time>
      </trkpt>
      <trkpt lat="48.60905" lon="1.61183">
        <ele>110</ele>
        <time>2010-05-14T14:11:03Z</time>
      </trkpt>
      <trkpt lat="48.60904" lon="1.61183">
        <ele>110</ele>
        <time>2010-05-14T14:11:07Z</time>
      </trkpt>
      <trkpt lat="48.60902" lon="1.61185">
        <ele>110</ele>
        <time>2010-05-14T14:11:12Z</time>
      </trkpt>
      <trkpt lat="48.60901" lon="1.61186">
        <ele>111</ele>
        <time>2010-05-14T14:11:15Z</time>
      </trkpt>
      <trkpt lat="48.60901" lon="1.61188">
        <ele>114</ele>
        <time>2010-05-14T14:11:20Z</time>
      </trkpt>
      <trkpt lat="48.60902" lon="1.61188">
        <ele>114</ele>
        <time>2010-05-14T14:11:22Z</time>
      </trkpt>
      <trkpt lat="48.60904" lon="1.61189">
        <ele>114</ele>
        <time>2010-05-14T14:11:26Z</time>
      </trkpt>
      <trkpt lat="48.60905" lon="1.61189">
        <ele>114</ele>
        <time>2010-05-14T14:11:28Z</time>
      </trkpt>
      <trkpt lat="48.60906" lon="1.61186">
        <ele>110</ele>
        <time>2010-05-14T14:11:36Z</time>
      </trkpt>
      <trkpt lat="48.60907" lon="1.61185">
        <ele>110</ele>
        <time>2010-05-14T14:11:37Z</time>
      </trkpt>
      <trkpt lat="48.60908" lon="1.61183">
        <ele>108</ele>
        <time>2010-05-14T14:11:39Z</time>
      </trkpt>
      <trkpt lat="48.6091" lon="1.61182">
        <ele>107</ele>
        <time>2010-05-14T14:11:42Z</time>
      </trkpt>
      <trkpt lat="48.60909" lon="1.61184">
        <ele>107</ele>
        <time>2010-05-14T14:11:46Z</time>
      </trkpt>
      <trkpt lat="48.60911" lon="1.61185">
        <ele>107</ele>
        <time>2010-05-14T14:11:49Z</time>
      </trkpt>
      <trkpt lat="48.60913" lon="1.61185">
        <ele>107</ele>
        <time>2010-05-14T14:11:51Z</time>
      </trkpt>
      <trkpt lat="48.60914" lon="1.61185">
        <ele>107</ele>
        <time>2010-05-14T14:11:57Z</time>
      </trkpt>
      <trkpt lat="48.60913" lon="1.61185">
        <ele>107</ele>
        <time>2010-05-14T14:12:03Z</time>
      </trkpt>
      <trkpt lat="48.60912" lon="1.61185">
        <ele>107</ele>
        <time>2010-05-14T14:12:05Z</time>
      </trkpt>
      <trkpt lat="48.6091" lon="1.61185">
        <ele>107</ele>
        <time>2010-05-14T14:12:07Z</time>
      </trkpt>
      <trkpt lat="48.60908" lon="1.61185">
        <ele>106</ele>
        <time>2010-05-14T14:12:09Z</time>
      </trkpt>
      <trkpt lat="48.60907" lon="1.61186">
        <ele>105</ele>
        <time>2010-05-14T14:12:11Z</time>
      </trkpt>
      <trkpt lat="48.60907" lon="1.61183">
        <ele>105</ele>
        <time>2010-05-14T14:12:14Z</time>
      </trkpt>
      <trkpt lat="48.60907" lon="1.61182">
        <ele>104</ele>
        <time>2010-05-14T14:12:17Z</time>
      </trkpt>
      <trkpt lat="48.60908" lon="1.6118">
        <ele>104</ele>
        <time>2010-05-14T14:12:19Z</time>
      </trkpt>
      <trkpt lat="48.60907" lon="1.6118">
        <ele>104</ele>
        <time>2010-05-14T14:12:25Z</time>
      </trkpt>
      <trkpt lat="48.60906" lon="1.61181">
        <ele>104</ele>
        <time>2010-05-14T14:12:27Z</time>
      </trkpt>
      <trkpt lat="48.60904" lon="1.61182">
        <ele>107</ele>
        <time>2010-05-14T14:12:31Z</time>
      </trkpt>
      <trkpt lat="48.60903" lon="1.61183">
        <ele>109</ele>
        <time>2010-05-14T14:12:33Z</time>
      </trkpt>
      <trkpt lat="48.60902" lon="1.61183">
        <ele>111</ele>
        <time>2010-05-14T14:12:35Z</time>
      </trkpt>
      <trkpt lat="48.60902" lon="1.61182">
        <ele>113</ele>
        <time>2010-05-14T14:12:37Z</time>
      </trkpt>
      <trkpt lat="48.60902" lon="1.6118">
        <ele>114</ele>
        <time>2010-05-14T14:12:43Z</time>
      </trkpt>
      <trkpt lat="48.60901" lon="1.6118">
        <ele>114</ele>
        <time>2010-05-14T14:12:45Z</time>
      </trkpt>
      <trkpt lat="48.60903" lon="1.6118">
        <ele>114</ele>
        <time>2010-05-14T14:12:54Z</time>
      </trkpt>
      <trkpt lat="48.60904" lon="1.6118">
        <ele>114</ele>
        <time>2010-05-14T14:12:57Z</time>
      </trkpt>
      <trkpt lat="48.60904" lon="1.61181">
        <ele>114</ele>
        <time>2010-05-14T14:13:00Z</time>
      </trkpt>
      <trkpt lat="48.60904" lon="1.61184">
        <ele>114</ele>
        <time>2010-05-14T14:13:04Z</time>
      </trkpt>
      <trkpt lat="48.60903" lon="1.61185">
        <ele>114</ele>
        <time>2010-05-14T14:13:09Z</time>
      </trkpt>
      <trkpt lat="48.60902" lon="1.61185">
        <ele>114</ele>
        <time>2010-05-14T14:13:12Z</time>
      </trkpt>
      <trkpt lat="48.60901" lon="1.61187">
        <ele>114</ele>
        <time>2010-05-14T14:13:15Z</time>
      </trkpt>
      <trkpt lat="48.609" lon="1.61189">
        <ele>114</ele>
        <time>2010-05-14T14:13:18Z</time>
      </trkpt>
      <trkpt lat="48.60901" lon="1.61188">
        <ele>114</ele>
        <time>2010-05-14T14:13:21Z</time>
      </trkpt>
      <trkpt lat="48.60903" lon="1.61189">
        <ele>114</ele>
        <time>2010-05-14T14:13:24Z</time>
      </trkpt>
      <trkpt lat="48.60901" lon="1.61189">
        <ele>114</ele>
        <time>2010-05-14T14:13:33Z</time>
      </trkpt>
      <trkpt lat="48.609" lon="1.61189">
        <ele>114</ele>
        <time>2010-05-14T14:13:36Z</time>
      </trkpt>
      <trkpt lat="48.60899" lon="1.61189">
        <ele>114</ele>
        <time>2010-05-14T14:13:41Z</time>
      </trkpt>
      <trkpt lat="48.60898" lon="1.61189">
        <ele>114</ele>
        <time>2010-05-14T14:13:43Z</time>
      </trkpt>
      <trkpt lat="48.60896" lon="1.61189">
        <ele>114</ele>
        <time>2010-05-14T14:13:45Z</time>
      </trkpt>
      <trkpt lat="48.60898" lon="1.6119">
        <ele>115</ele>
        <time>2010-05-14T14:13:58Z</time>
      </trkpt>
      <trkpt lat="48.60899" lon="1.6119">
        <ele>115</ele>
        <time>2010-05-14T14:13:59Z</time>
      </trkpt>
      <trkpt lat="48.609" lon="1.61192">
        <ele>115</ele>
        <time>2010-05-14T14:14:02Z</time>
      </trkpt>
      <trkpt lat="48.609" lon="1.6119">
        <ele>115</ele>
        <time>2010-05-14T14:14:08Z</time>
      </trkpt>
      <trkpt lat="48.609" lon="1.61188">
        <ele>115</ele>
        <time>2010-05-14T14:14:10Z</time>
      </trkpt>
      <trkpt lat="48.60901" lon="1.61186">
        <ele>114</ele>
        <time>2010-05-14T14:14:13Z</time>
      </trkpt>
      <trkpt lat="48.60902" lon="1.61185">
        <ele>113</ele>
        <time>2010-05-14T14:14:15Z</time>
      </trkpt>
      <trkpt lat="48.60903" lon="1.61183">
        <ele>112</ele>
        <time>2010-05-14T14:14:18Z</time>
      </trkpt>
      <trkpt lat="48.60903" lon="1.61181">
        <ele>111</ele>
        <time>2010-05-14T14:14:22Z</time>
      </trkpt>
      <trkpt lat="48.60902" lon="1.61179">
        <ele>111</ele>
        <time>2010-05-14T14:14:25Z</time>
      </trkpt>
      <trkpt lat="48.60902" lon="1.61176">
        <ele>111</ele>
        <time>2010-05-14T14:14:27Z</time>
      </trkpt>
      <trkpt lat="48.60901" lon="1.61174">
        <ele>111</ele>
        <time>2010-05-14T14:14:29Z</time>
      </trkpt>
      <trkpt lat="48.60899" lon="1.61172">
        <ele>111</ele>
        <time>2010-05-14T14:14:31Z</time>
      </trkpt>
      <trkpt lat="48.60897" lon="1.61171">
        <ele>111</ele>
        <time>2010-05-14T14:14:33Z</time>
      </trkpt>
      <trkpt lat="48.60896" lon="1.61171">
        <ele>111</ele>
        <time>2010-05-14T14:14:35Z</time>
      </trkpt>
      <trkpt lat="48.60895" lon="1.61171">
        <ele>111</ele>
        <time>2010-05-14T14:14:40Z</time>
      </trkpt>
      <trkpt lat="48.60894" lon="1.61169">
        <ele>111</ele>
        <time>2010-05-14T14:14:43Z</time>
      </trkpt>
      <trkpt lat="48.60892" lon="1.61168">
        <ele>111</ele>
        <time>2010-05-14T14:14:46Z</time>
      </trkpt>
      <trkpt lat="48.60892" lon="1.6117">
        <ele>111</ele>
        <time>2010-05-14T14:14:52Z</time>
      </trkpt>
      <trkpt lat="48.60892" lon="1.61171">
        <ele>110</ele>
        <time>2010-05-14T14:14:55Z</time>
      </trkpt>
      <trkpt lat="48.60893" lon="1.61173">
        <ele>107</ele>
        <time>2010-05-14T14:14:59Z</time>
      </trkpt>
      <trkpt lat="48.60892" lon="1.61174">
        <ele>105</ele>
        <time>2010-05-14T14:15:12Z</time>
      </trkpt>
      <trkpt lat="48.60891" lon="1.61174">
        <ele>105</ele>
        <time>2010-05-14T14:15:15Z</time>
      </trkpt>
      <trkpt lat="48.60889" lon="1.61176">
        <ele>105</ele>
        <time>2010-05-14T14:15:17Z</time>
      </trkpt>
      <trkpt lat="48.60888" lon="1.61178">
        <ele>106</ele>
        <time>2010-05-14T14:15:19Z</time>
      </trkpt>
      <trkpt lat="48.60886" lon="1.61179">
        <ele>107</ele>
        <time>2010-05-14T14:15:21Z</time>
      </trkpt>
      <trkpt lat="48.60884" lon="1.6118">
        <ele>108</ele>
        <time>2010-05-14T14:15:23Z</time>
      </trkpt>
      <trkpt lat="48.60883" lon="1.61182">
        <ele>108</ele>
        <time>2010-05-14T14:15:25Z</time>
      </trkpt>
      <trkpt lat="48.60881" lon="1.61183">
        <ele>109</ele>
        <time>2010-05-14T14:15:27Z</time>
      </trkpt>
      <trkpt lat="48.6088" lon="1.61183">
        <ele>109</ele>
        <time>2010-05-14T14:15:29Z</time>
      </trkpt>
      <trkpt lat="48.60878" lon="1.61183">
        <ele>110</ele>
        <time>2010-05-14T14:15:32Z</time>
      </trkpt>
      <trkpt lat="48.60877" lon="1.61184">
        <ele>111</ele>
        <time>2010-05-14T14:15:35Z</time>
      </trkpt>
      <trkpt lat="48.60876" lon="1.61185">
        <ele>111</ele>
        <time>2010-05-14T14:15:37Z</time>
      </trkpt>
      <trkpt lat="48.60877" lon="1.61185">
        <ele>112</ele>
        <time>2010-05-14T14:15:39Z</time>
      </trkpt>
      <trkpt lat="48.60879" lon="1.61182">
        <ele>112</ele>
        <time>2010-05-14T14:15:41Z</time>
      </trkpt>
      <trkpt lat="48.6088" lon="1.61181">
        <ele>112</ele>
        <time>2010-05-14T14:15:43Z</time>
      </trkpt>
      <trkpt lat="48.60882" lon="1.6118">
        <ele>112</ele>
        <time>2010-05-14T14:15:45Z</time>
      </trkpt>
      <trkpt lat="48.60883" lon="1.6118">
        <ele>112</ele>
        <time>2010-05-14T14:15:47Z</time>
      </trkpt>
      <trkpt lat="48.60884" lon="1.6118">
        <ele>112</ele>
        <time>2010-05-14T14:15:49Z</time>
      </trkpt>
      <trkpt lat="48.60886" lon="1.61178">
        <ele>112</ele>
        <time>2010-05-14T14:15:51Z</time>
      </trkpt>
      <trkpt lat="48.60888" lon="1.61178">
        <ele>112</ele>
        <time>2010-05-14T14:15:53Z</time>
      </trkpt>
      <trkpt lat="48.6089" lon="1.61177">
        <ele>110</ele>
        <time>2010-05-14T14:15:55Z</time>
      </trkpt>
      <trkpt lat="48.60891" lon="1.61178">
        <ele>107</ele>
        <time>2010-05-14T14:15:58Z</time>
      </trkpt>
      <trkpt lat="48.60893" lon="1.6118">
        <ele>105</ele>
        <time>2010-05-14T14:16:01Z</time>
      </trkpt>
      <trkpt lat="48.60894" lon="1.61181">
        <ele>105</ele>
        <time>2010-05-14T14:16:06Z</time>
      </trkpt>
      <trkpt lat="48.60893" lon="1.61183">
        <ele>105</ele>
        <time>2010-05-14T14:16:09Z</time>
      </trkpt>
      <trkpt lat="48.60894" lon="1.61181">
        <ele>105</ele>
        <time>2010-05-14T14:16:16Z</time>
      </trkpt>
      <trkpt lat="48.60895" lon="1.61179">
        <ele>105</ele>
        <time>2010-05-14T14:16:19Z</time>
      </trkpt>
      <trkpt lat="48.60896" lon="1.61178">
        <ele>105</ele>
        <time>2010-05-14T14:16:31Z</time>
      </trkpt>
      <trkpt lat="48.60894" lon="1.61178">
        <ele>105</ele>
        <time>2010-05-14T14:16:33Z</time>
      </trkpt>
      <trkpt lat="48.60892" lon="1.61178">
        <ele>105</ele>
        <time>2010-05-14T14:16:35Z</time>
      </trkpt>
      <trkpt lat="48.60891" lon="1.61179">
        <ele>105</ele>
        <time>2010-05-14T14:16:36Z</time>
      </trkpt>
      <trkpt lat="48.60889" lon="1.6118">
        <ele>106</ele>
        <time>2010-05-14T14:16:38Z</time>
      </trkpt>
      <trkpt lat="48.60889" lon="1.61178">
        <ele>109</ele>
        <time>2010-05-14T14:16:41Z</time>
      </trkpt>
      <trkpt lat="48.60888" lon="1.61177">
        <ele>112</ele>
        <time>2010-05-14T14:16:53Z</time>
      </trkpt>
      <trkpt lat="48.60886" lon="1.61177">
        <ele>115</ele>
        <time>2010-05-14T14:16:56Z</time>
      </trkpt>
      <trkpt lat="48.60887" lon="1.61175">
        <ele>117</ele>
        <time>2010-05-14T14:17:03Z</time>
      </trkpt>
      <trkpt lat="48.60888" lon="1.61173">
        <ele>117</ele>
        <time>2010-05-14T14:17:05Z</time>
      </trkpt>
      <trkpt lat="48.60889" lon="1.61172">
        <ele>117</ele>
        <time>2010-05-14T14:17:08Z</time>
      </trkpt>
      <trkpt lat="48.6089" lon="1.61171">
        <ele>117</ele>
        <time>2010-05-14T14:17:10Z</time>
      </trkpt>
      <trkpt lat="48.60891" lon="1.6117">
        <ele>117</ele>
        <time>2010-05-14T14:17:14Z</time>
      </trkpt>
      <trkpt lat="48.60893" lon="1.6117">
        <ele>114</ele>
        <time>2010-05-14T14:17:18Z</time>
      </trkpt>
      <trkpt lat="48.60891" lon="1.61171">
        <ele>114</ele>
        <time>2010-05-14T14:17:21Z</time>
      </trkpt>
      <trkpt lat="48.6089" lon="1.61173">
        <ele>114</ele>
        <time>2010-05-14T14:17:24Z</time>
      </trkpt>
      <trkpt lat="48.60889" lon="1.61173">
        <ele>112</ele>
        <time>2010-05-14T14:17:35Z</time>
      </trkpt>
      <trkpt lat="48.60888" lon="1.61174">
        <ele>112</ele>
        <time>2010-05-14T14:17:40Z</time>
      </trkpt>
      <trkpt lat="48.60889" lon="1.61176">
        <ele>112</ele>
        <time>2010-05-14T14:17:56Z</time>
      </trkpt>
      <trkpt lat="48.6089" lon="1.61177">
        <ele>112</ele>
        <time>2010-05-14T14:17:58Z</time>
      </trkpt>
      <trkpt lat="48.6089" lon="1.61181">
        <ele>112</ele>
        <time>2010-05-14T14:18:00Z</time>
      </trkpt>
      <trkpt lat="48.60891" lon="1.61181">
        <ele>113</ele>
        <time>2010-05-14T14:18:02Z</time>
      </trkpt>
      <trkpt lat="48.60892" lon="1.61184">
        <ele>115</ele>
        <time>2010-05-14T14:18:05Z</time>
      </trkpt>
      <trkpt lat="48.60894" lon="1.61184">
        <ele>116</ele>
        <time>2010-05-14T14:18:07Z</time>
      </trkpt>
      <trkpt lat="48.60895" lon="1.61186">
        <ele>116</ele>
        <time>2010-05-14T14:18:09Z</time>
      </trkpt>
      <trkpt lat="48.60896" lon="1.61187">
        <ele>116</ele>
        <time>2010-05-14T14:18:12Z</time>
      </trkpt>
      <trkpt lat="48.60897" lon="1.61189">
        <ele>116</ele>
        <time>2010-05-14T14:18:15Z</time>
      </trkpt>
      <trkpt lat="48.60896" lon="1.61192">
        <ele>116</ele>
        <time>2010-05-14T14:18:18Z</time>
      </trkpt>
      <trkpt lat="48.60896" lon="1.61194">
        <ele>116</ele>
        <time>2010-05-14T14:18:28Z</time>
      </trkpt>
      <trkpt lat="48.60897" lon="1.61195">
        <ele>116</ele>
        <time>2010-05-14T14:18:30Z</time>
      </trkpt>
      <trkpt lat="48.60898" lon="1.61194">
        <ele>116</ele>
        <time>2010-05-14T14:18:32Z</time>
      </trkpt>
      <trkpt lat="48.609" lon="1.61194">
        <ele>116</ele>
        <time>2010-05-14T14:18:34Z</time>
      </trkpt>
      <trkpt lat="48.609" lon="1.61192">
        <ele>116</ele>
        <time>2010-05-14T14:18:37Z</time>
      </trkpt>
      <trkpt lat="48.60899" lon="1.6119">
        <ele>116</ele>
        <time>2010-05-14T14:18:39Z</time>
      </trkpt>
      <trkpt lat="48.60898" lon="1.61193">
        <ele>116</ele>
        <time>2010-05-14T14:18:44Z</time>
      </trkpt>
      <trkpt lat="48.60898" lon="1.61195">
        <ele>116</ele>
        <time>2010-05-14T14:18:46Z</time>
      </trkpt>
      <trkpt lat="48.609" lon="1.61195">
        <ele>116</ele>
        <time>2010-05-14T14:18:52Z</time>
      </trkpt>
      <trkpt lat="48.60901" lon="1.61195">
        <ele>114</ele>
        <time>2010-05-14T14:19:02Z</time>
      </trkpt>
      <trkpt lat="48.60902" lon="1.61193">
        <ele>113</ele>
        <time>2010-05-14T14:19:18Z</time>
      </trkpt>
      <trkpt lat="48.60902" lon="1.61192">
        <ele>112</ele>
        <time>2010-05-14T14:19:24Z</time>
      </trkpt>
      <trkpt lat="48.60901" lon="1.61194">
        <ele>112</ele>
        <time>2010-05-14T14:19:28Z</time>
      </trkpt>
      <trkpt lat="48.60901" lon="1.61196">
        <ele>112</ele>
        <time>2010-05-14T14:19:30Z</time>
      </trkpt>
      <trkpt lat="48.60902" lon="1.61196">
        <ele>112</ele>
        <time>2010-05-14T14:19:33Z</time>
      </trkpt>
      <trkpt lat="48.60904" lon="1.61196">
        <ele>113</ele>
        <time>2010-05-14T14:19:36Z</time>
      </trkpt>
      <trkpt lat="48.60905" lon="1.61197">
        <ele>115</ele>
        <time>2010-05-14T14:19:38Z</time>
      </trkpt>
      <trkpt lat="48.60906" lon="1.61197">
        <ele>117</ele>
        <time>2010-05-14T14:19:40Z</time>
      </trkpt>
      <trkpt lat="48.60905" lon="1.61199">
        <ele>117</ele>
        <time>2010-05-14T14:19:47Z</time>
      </trkpt>
      <trkpt lat="48.60904" lon="1.612">
        <ele>122</ele>
        <time>2010-05-14T14:19:53Z</time>
      </trkpt>
      <trkpt lat="48.60903" lon="1.61203">
        <ele>123</ele>
        <time>2010-05-14T14:19:58Z</time>
      </trkpt>
      <trkpt lat="48.60904" lon="1.61205">
        <ele>123</ele>
        <time>2010-05-14T14:20:00Z</time>
      </trkpt>
      <trkpt lat="48.60906" lon="1.61206">
        <ele>123</ele>
        <time>2010-05-14T14:20:02Z</time>
      </trkpt>
      <trkpt lat="48.60908" lon="1.61207">
        <ele>123</ele>
        <time>2010-05-14T14:20:04Z</time>
      </trkpt>
      <trkpt lat="48.6091" lon="1.61206">
        <ele>123</ele>
        <time>2010-05-14T14:20:07Z</time>
      </trkpt>
      <trkpt lat="48.60911" lon="1.61205">
        <ele>121</ele>
        <time>2010-05-14T14:20:09Z</time>
      </trkpt>
      <trkpt lat="48.60913" lon="1.61206">
        <ele>120</ele>
        <time>2010-05-14T14:20:10Z</time>
      </trkpt>
      <trkpt lat="48.60914" lon="1.61205">
        <ele>120</ele>
        <time>2010-05-14T14:20:12Z</time>
      </trkpt>
      <trkpt lat="48.60915" lon="1.61203">
        <ele>119</ele>
        <time>2010-05-14T14:20:18Z</time>
      </trkpt>
      <trkpt lat="48.60916" lon="1.61202">
        <ele>118</ele>
        <time>2010-05-14T14:20:23Z</time>
      </trkpt>
      <trkpt lat="48.60918" lon="1.612">
        <ele>117</ele>
        <time>2010-05-14T14:20:27Z</time>
      </trkpt>
      <trkpt lat="48.60921" lon="1.612">
        <ele>116</ele>
        <time>2010-05-14T14:20:29Z</time>
      </trkpt>
      <trkpt lat="48.60922" lon="1.612">
        <ele>114</ele>
        <time>2010-05-14T14:20:31Z</time>
      </trkpt>
      <trkpt lat="48.60924" lon="1.612">
        <ele>114</ele>
        <time>2010-05-14T14:20:33Z</time>
      </trkpt>
      <trkpt lat="48.60925" lon="1.612">
        <ele>114</ele>
        <time>2010-05-14T14:20:35Z</time>
      </trkpt>
      <trkpt lat="48.60926" lon="1.612">
        <ele>114</ele>
        <time>2010-05-14T14:20:37Z</time>
      </trkpt>
      <trkpt lat="48.60928" lon="1.612">
        <ele>114</ele>
        <time>2010-05-14T14:20:39Z</time>
      </trkpt>
      <trkpt lat="48.60929" lon="1.61201">
        <ele>114</ele>
        <time>2010-05-14T14:20:43Z</time>
      </trkpt>
      <trkpt lat="48.6093" lon="1.61201">
        <ele>114</ele>
        <time>2010-05-14T14:20:44Z</time>
      </trkpt>
      <trkpt lat="48.60932" lon="1.61201">
        <ele>114</ele>
        <time>2010-05-14T14:20:46Z</time>
      </trkpt>
      <trkpt lat="48.60933" lon="1.61201">
        <ele>113</ele>
        <time>2010-05-14T14:20:47Z</time>
      </trkpt>
      <trkpt lat="48.60935" lon="1.61201">
        <ele>113</ele>
        <time>2010-05-14T14:20:49Z</time>
      </trkpt>
      <trkpt lat="48.60936" lon="1.61199">
        <ele>112</ele>
        <time>2010-05-14T14:20:51Z</time>
      </trkpt>
      <trkpt lat="48.60937" lon="1.61197">
        <ele>111</ele>
        <time>2010-05-14T14:20:53Z</time>
      </trkpt>
      <trkpt lat="48.60935" lon="1.61198">
        <ele>110</ele>
        <time>2010-05-14T14:21:02Z</time>
      </trkpt>
      <trkpt lat="48.60934" lon="1.612">
        <ele>110</ele>
        <time>2010-05-14T14:21:04Z</time>
      </trkpt>
      <trkpt lat="48.60935" lon="1.61202">
        <ele>110</ele>
        <time>2010-05-14T14:21:06Z</time>
      </trkpt>
      <trkpt lat="48.60937" lon="1.61202">
        <ele>110</ele>
        <time>2010-05-14T14:21:07Z</time>
      </trkpt>
      <trkpt lat="48.60939" lon="1.61203">
        <ele>110</ele>
        <time>2010-05-14T14:21:09Z</time>
      </trkpt>
      <trkpt lat="48.6094" lon="1.61203">
        <ele>110</ele>
        <time>2010-05-14T14:21:11Z</time>
      </trkpt>
      <trkpt lat="48.60942" lon="1.61204">
        <ele>110</ele>
        <time>2010-05-14T14:21:13Z</time>
      </trkpt>
      <trkpt lat="48.60944" lon="1.61201">
        <ele>110</ele>
        <time>2010-05-14T14:21:15Z</time>
      </trkpt>
      <trkpt lat="48.60945" lon="1.61199">
        <ele>110</ele>
        <time>2010-05-14T14:21:17Z</time>
      </trkpt>
      <trkpt lat="48.60946" lon="1.61197">
        <ele>110</ele>
        <time>2010-05-14T14:21:19Z</time>
      </trkpt>
      <trkpt lat="48.60946" lon="1.61195">
        <ele>110</ele>
        <time>2010-05-14T14:21:21Z</time>
      </trkpt>
      <trkpt lat="48.60948" lon="1.61194">
        <ele>110</ele>
        <time>2010-05-14T14:21:23Z</time>
      </trkpt>
      <trkpt lat="48.60949" lon="1.61192">
        <ele>110</ele>
        <time>2010-05-14T14:21:25Z</time>
      </trkpt>
      <trkpt lat="48.6095" lon="1.6119">
        <ele>109</ele>
        <time>2010-05-14T14:21:28Z</time>
      </trkpt>
      <trkpt lat="48.60951" lon="1.61188">
        <ele>109</ele>
        <time>2010-05-14T14:21:31Z</time>
      </trkpt>
      <trkpt lat="48.60953" lon="1.61186">
        <ele>109</ele>
        <time>2010-05-14T14:21:34Z</time>
      </trkpt>
      <trkpt lat="48.60954" lon="1.61185">
        <ele>108</ele>
        <time>2010-05-14T14:21:36Z</time>
      </trkpt>
      <trkpt lat="48.60955" lon="1.61183">
        <ele>107</ele>
        <time>2010-05-14T14:21:38Z</time>
      </trkpt>
      <trkpt lat="48.60956" lon="1.61182">
        <ele>107</ele>
        <time>2010-05-14T14:21:39Z</time>
      </trkpt>
      <trkpt lat="48.60958" lon="1.61181">
        <ele>107</ele>
        <time>2010-05-14T14:21:41Z</time>
      </trkpt>
      <trkpt lat="48.60957" lon="1.61182">
        <ele>107</ele>
        <time>2010-05-14T14:21:43Z</time>
      </trkpt>
      <trkpt lat="48.60955" lon="1.61182">
        <ele>107</ele>
        <time>2010-05-14T14:21:45Z</time>
      </trkpt>
      <trkpt lat="48.60954" lon="1.61182">
        <ele>107</ele>
        <time>2010-05-14T14:21:47Z</time>
      </trkpt>
      <trkpt lat="48.60952" lon="1.61182">
        <ele>107</ele>
        <time>2010-05-14T14:21:49Z</time>
      </trkpt>
      <trkpt lat="48.60951" lon="1.61183">
        <ele>107</ele>
        <time>2010-05-14T14:21:53Z</time>
      </trkpt>
      <trkpt lat="48.60953" lon="1.61184">
        <ele>107</ele>
        <time>2010-05-14T14:21:56Z</time>
      </trkpt>
      <trkpt lat="48.60954" lon="1.61184">
        <ele>107</ele>
        <time>2010-05-14T14:21:57Z</time>
      </trkpt>
      <trkpt lat="48.60955" lon="1.61184">
        <ele>107</ele>
        <time>2010-05-14T14:21:58Z</time>
      </trkpt>
      <trkpt lat="48.60956" lon="1.61183">
        <ele>107</ele>
        <time>2010-05-14T14:21:59Z</time>
      </trkpt>
      <trkpt lat="48.60958" lon="1.61181">
        <ele>107</ele>
        <time>2010-05-14T14:22:01Z</time>
      </trkpt>
      <trkpt lat="48.6096" lon="1.61179">
        <ele>107</ele>
        <time>2010-05-14T14:22:03Z</time>
      </trkpt>
      <trkpt lat="48.60961" lon="1.61177">
        <ele>107</ele>
        <time>2010-05-14T14:22:05Z</time>
      </trkpt>
      <trkpt lat="48.60963" lon="1.61175">
        <ele>107</ele>
        <time>2010-05-14T14:22:07Z</time>
      </trkpt>
      <trkpt lat="48.60964" lon="1.61174">
        <ele>107</ele>
        <time>2010-05-14T14:22:08Z</time>
      </trkpt>
      <trkpt lat="48.60965" lon="1.61173">
        <ele>107</ele>
        <time>2010-05-14T14:22:12Z</time>
      </trkpt>
      <trkpt lat="48.60966" lon="1.61171">
        <ele>107</ele>
        <time>2010-05-14T14:22:15Z</time>
      </trkpt>
      <trkpt lat="48.60965" lon="1.61169">
        <ele>107</ele>
        <time>2010-05-14T14:22:17Z</time>
      </trkpt>
      <trkpt lat="48.60967" lon="1.61171">
        <ele>111</ele>
        <time>2010-05-14T14:22:23Z</time>
      </trkpt>
      <trkpt lat="48.60969" lon="1.61173">
        <ele>112</ele>
        <time>2010-05-14T14:22:25Z</time>
      </trkpt>
      <trkpt lat="48.60969" lon="1.61175">
        <ele>112</ele>
        <time>2010-05-14T14:22:27Z</time>
      </trkpt>
      <trkpt lat="48.60969" lon="1.61177">
        <ele>112</ele>
        <time>2010-05-14T14:22:30Z</time>
      </trkpt>
      <trkpt lat="48.6097" lon="1.61179">
        <ele>112</ele>
        <time>2010-05-14T14:22:33Z</time>
      </trkpt>
      <trkpt lat="48.60971" lon="1.61181">
        <ele>112</ele>
        <time>2010-05-14T14:22:35Z</time>
      </trkpt>
      <trkpt lat="48.60973" lon="1.61183">
        <ele>112</ele>
        <time>2010-05-14T14:22:36Z</time>
      </trkpt>
      <trkpt lat="48.60975" lon="1.61184">
        <ele>112</ele>
        <time>2010-05-14T14:22:39Z</time>
      </trkpt>
      <trkpt lat="48.60976" lon="1.61185">
        <ele>112</ele>
        <time>2010-05-14T14:22:40Z</time>
      </trkpt>
      <trkpt lat="48.60977" lon="1.61186">
        <ele>112</ele>
        <time>2010-05-14T14:22:41Z</time>
      </trkpt>
      <trkpt lat="48.60979" lon="1.61187">
        <ele>112</ele>
        <time>2010-05-14T14:22:42Z</time>
      </trkpt>
      <trkpt lat="48.6098" lon="1.61188">
        <ele>112</ele>
        <time>2010-05-14T14:22:44Z</time>
      </trkpt>
      <trkpt lat="48.60982" lon="1.61189">
        <ele>112</ele>
        <time>2010-05-14T14:22:45Z</time>
      </trkpt>
      <trkpt lat="48.60983" lon="1.61189">
        <ele>112</ele>
        <time>2010-05-14T14:22:46Z</time>
      </trkpt>
      <trkpt lat="48.60985" lon="1.61188">
        <ele>112</ele>
        <time>2010-05-14T14:22:47Z</time>
      </trkpt>
      <trkpt lat="48.60986" lon="1.61186">
        <ele>111</ele>
        <time>2010-05-14T14:22:48Z</time>
      </trkpt>
      <trkpt lat="48.60983" lon="1.61185">
        <ele>107</ele>
        <time>2010-05-14T14:22:54Z</time>
      </trkpt>
      <trkpt lat="48.60982" lon="1.61184">
        <ele>107</ele>
        <time>2010-05-14T14:22:57Z</time>
      </trkpt>
      <trkpt lat="48.60979" lon="1.61184">
        <ele>107</ele>
        <time>2010-05-14T14:22:59Z</time>
      </trkpt>
      <trkpt lat="48.60979" lon="1.61182">
        <ele>107</ele>
        <time>2010-05-14T14:23:00Z</time>
      </trkpt>
      <trkpt lat="48.60977" lon="1.61181">
        <ele>107</ele>
        <time>2010-05-14T14:23:01Z</time>
      </trkpt>
      <trkpt lat="48.60976" lon="1.61181">
        <ele>107</ele>
        <time>2010-05-14T14:23:02Z</time>
      </trkpt>
      <trkpt lat="48.60974" lon="1.61181">
        <ele>107</ele>
        <time>2010-05-14T14:23:03Z</time>
      </trkpt>
      <trkpt lat="48.60973" lon="1.6118">
        <ele>107</ele>
        <time>2010-05-14T14:23:04Z</time>
      </trkpt>
      <trkpt lat="48.6097" lon="1.61178">
        <ele>107</ele>
        <time>2010-05-14T14:23:06Z</time>
      </trkpt>
      <trkpt lat="48.60969" lon="1.61175">
        <ele>108</ele>
        <time>2010-05-14T14:23:08Z</time>
      </trkpt>
      <trkpt lat="48.60967" lon="1.61172">
        <ele>108</ele>
        <time>2010-05-14T14:23:10Z</time>
      </trkpt>
      <trkpt lat="48.60967" lon="1.6117">
        <ele>108</ele>
        <time>2010-05-14T14:23:11Z</time>
      </trkpt>
      <trkpt lat="48.60964" lon="1.61168">
        <ele>108</ele>
        <time>2010-05-14T14:23:13Z</time>
      </trkpt>
      <trkpt lat="48.60963" lon="1.61169">
        <ele>108</ele>
        <time>2010-05-14T14:23:15Z</time>
      </trkpt>
      <trkpt lat="48.60963" lon="1.61171">
        <ele>108</ele>
        <time>2010-05-14T14:23:20Z</time>
      </trkpt>
      <trkpt lat="48.60965" lon="1.61171">
        <ele>108</ele>
        <time>2010-05-14T14:23:21Z</time>
      </trkpt>
      <trkpt lat="48.60966" lon="1.61173">
        <ele>109</ele>
        <time>2010-05-14T14:23:28Z</time>
      </trkpt>
      <trkpt lat="48.60967" lon="1.61173">
        <ele>109</ele>
        <time>2010-05-14T14:23:31Z</time>
      </trkpt>
      <trkpt lat="48.60969" lon="1.61174">
        <ele>109</ele>
        <time>2010-05-14T14:23:33Z</time>
      </trkpt>
      <trkpt lat="48.6097" lon="1.61175">
        <ele>109</ele>
        <time>2010-05-14T14:23:35Z</time>
      </trkpt>
      <trkpt lat="48.60972" lon="1.61176">
        <ele>109</ele>
        <time>2010-05-14T14:23:37Z</time>
      </trkpt>
      <trkpt lat="48.60972" lon="1.61178">
        <ele>109</ele>
        <time>2010-05-14T14:23:39Z</time>
      </trkpt>
      <trkpt lat="48.60973" lon="1.61181">
        <ele>109</ele>
        <time>2010-05-14T14:23:41Z</time>
      </trkpt>
      <trkpt lat="48.60975" lon="1.61182">
        <ele>109</ele>
        <time>2010-05-14T14:23:43Z</time>
      </trkpt>
      <trkpt lat="48.60976" lon="1.61182">
        <ele>109</ele>
        <time>2010-05-14T14:23:44Z</time>
      </trkpt>
      <trkpt lat="48.60978" lon="1.61185">
        <ele>109</ele>
        <time>2010-05-14T14:23:47Z</time>
      </trkpt>
      <trkpt lat="48.60979" lon="1.61186">
        <ele>109</ele>
        <time>2010-05-14T14:23:48Z</time>
      </trkpt>
      <trkpt lat="48.60979" lon="1.61188">
        <ele>109</ele>
        <time>2010-05-14T14:23:50Z</time>
      </trkpt>
      <trkpt lat="48.6098" lon="1.61189">
        <ele>109</ele>
        <time>2010-05-14T14:23:53Z</time>
      </trkpt>
      <trkpt lat="48.60981" lon="1.61187">
        <ele>109</ele>
        <time>2010-05-14T14:24:04Z</time>
      </trkpt>
      <trkpt lat="48.60984" lon="1.61186">
        <ele>109</ele>
        <time>2010-05-14T14:24:06Z</time>
      </trkpt>
      <trkpt lat="48.60985" lon="1.61188">
        <ele>107</ele>
        <time>2010-05-14T14:24:12Z</time>
      </trkpt>
      <trkpt lat="48.60986" lon="1.6119">
        <ele>106</ele>
        <time>2010-05-14T14:24:13Z</time>
      </trkpt>
      <trkpt lat="48.60984" lon="1.6119">
        <ele>106</ele>
        <time>2010-05-14T14:24:15Z</time>
      </trkpt>
      <trkpt lat="48.60982" lon="1.61189">
        <ele>106</ele>
        <time>2010-05-14T14:24:17Z</time>
      </trkpt>
      <trkpt lat="48.60981" lon="1.61188">
        <ele>106</ele>
        <time>2010-05-14T14:24:18Z</time>
      </trkpt>
      <trkpt lat="48.6098" lon="1.61188">
        <ele>106</ele>
        <time>2010-05-14T14:24:19Z</time>
      </trkpt>
      <trkpt lat="48.60977" lon="1.61186">
        <ele>106</ele>
        <time>2010-05-14T14:24:21Z</time>
      </trkpt>
      <trkpt lat="48.60976" lon="1.61185">
        <ele>106</ele>
        <time>2010-05-14T14:24:22Z</time>
      </trkpt>
      <trkpt lat="48.60973" lon="1.61184">
        <ele>106</ele>
        <time>2010-05-14T14:24:24Z</time>
      </trkpt>
      <trkpt lat="48.60972" lon="1.61183">
        <ele>106</ele>
        <time>2010-05-14T14:24:26Z</time>
      </trkpt>
    </trkseg>
  </trk>
</gpx>